<?xml version='1.0' encoding='UTF-8'?><gpx version="1.1" creator="JPX - https://github.com/jenetics/jpx" xmlns="http://www.topografix.com/GPX/1/1"><trk><trkseg><trkpt lat="45.71856432890146" lon="9.771037637851187"><ele>338.0</ele><time>2026-04-17T13:01:26Z</time></trkpt><trkpt lat="45.71849300050711" lon="9.770958806341062"><ele>337.0</ele><time>2026-04-17T13:01:28Z</time></trkpt><trkpt lat="45.71839471359181" lon="9.770892220823551"><ele>336.0</ele><time>2026-04-17T13:01:30Z</time></trkpt><trkpt lat="45.71833417496595" lon="9.770856810917916"><ele>335.0</ele><time>2026-04-17T13:01:31Z</time></trkpt><trkpt lat="45.718269138097604" lon="9.770818757812597"><ele>334.0</ele><time>2026-04-17T13:01:32Z</time></trkpt><trkpt lat="45.7182116019958" lon="9.77076163864692"><ele>333.0</ele><time>2026-04-17T13:01:33Z</time></trkpt><trkpt lat="45.718148411476264" lon="9.77072844847837"><ele>333.0</ele><time>2026-04-17T13:01:34Z</time></trkpt><trkpt lat="45.71804306057834" lon="9.770640145909166"><ele>333.0</ele><time>2026-04-17T13:01:36Z</time></trkpt><trkpt lat="45.717943073820024" lon="9.770596489309906"><ele>333.0</ele><time>2026-04-17T13:01:38Z</time></trkpt><trkpt lat="45.717854511446525" lon="9.770625985418722"><ele>333.0</ele><time>2026-04-17T13:01:40Z</time></trkpt><trkpt lat="45.7177634803624" lon="9.770571701540838"><ele>333.0</ele><time>2026-04-17T13:01:42Z</time></trkpt><trkpt lat="45.71771321131539" lon="9.770510669057595"><ele>331.8333333333333</ele><time>2026-04-17T13:01:43Z</time></trkpt><trkpt lat="45.7176564259899" lon="9.770439396171197"><ele>330.6666666666667</ele><time>2026-04-17T13:01:44Z</time></trkpt><trkpt lat="45.717603672374814" lon="9.770378989559655"><ele>329.5</ele><time>2026-04-17T13:01:45Z</time></trkpt><trkpt lat="45.717517570611015" lon="9.770290953891577"><ele>328.33333333333337</ele><time>2026-04-17T13:01:47Z</time></trkpt><trkpt lat="45.71749673827517" lon="9.7702019338661"><ele>327.1666666666667</ele><time>2026-04-17T13:01:50Z</time></trkpt><trkpt lat="45.7175711686755" lon="9.770094403631767"><ele>326.0</ele><time>2026-04-17T13:01:52Z</time></trkpt><trkpt lat="45.71765981317251" lon="9.76996210273262"><ele>326.4</ele><time>2026-04-17T13:01:54Z</time></trkpt><trkpt lat="45.71774500286062" lon="9.769828281202669"><ele>326.8</ele><time>2026-04-17T13:01:56Z</time></trkpt><trkpt lat="45.717788848347034" lon="9.769760552375102"><ele>327.2</ele><time>2026-04-17T13:01:57Z</time></trkpt><trkpt lat="45.71783507501988" lon="9.76969585050454"><ele>327.59999999999997</ele><time>2026-04-17T13:01:58Z</time></trkpt><trkpt lat="45.717880594809536" lon="9.769622716755096"><ele>328.0</ele><time>2026-04-17T13:01:59Z</time></trkpt><trkpt lat="45.71796413980986" lon="9.769484331881008"><ele>328.0</ele><time>2026-04-17T13:02:01Z</time></trkpt><trkpt lat="45.71800761092996" lon="9.769419099178055"><ele>328.0</ele><time>2026-04-17T13:02:02Z</time></trkpt><trkpt lat="45.718089102944525" lon="9.769290246449351"><ele>328.0</ele><time>2026-04-17T13:02:04Z</time></trkpt><trkpt lat="45.71816706072249" lon="9.769166794111472"><ele>328.0</ele><time>2026-04-17T13:02:06Z</time></trkpt><trkpt lat="45.718213699189306" lon="9.769104025300207"><ele>328.0</ele><time>2026-04-17T13:02:07Z</time></trkpt><trkpt lat="45.71829553125236" lon="9.76899465941994"><ele>327.8333333333333</ele><time>2026-04-17T13:02:09Z</time></trkpt><trkpt lat="45.7183956219318" lon="9.768880804395994"><ele>327.66666666666663</ele><time>2026-04-17T13:02:11Z</time></trkpt><trkpt lat="45.71845147032756" lon="9.768826791102025"><ele>327.5</ele><time>2026-04-17T13:02:12Z</time></trkpt><trkpt lat="45.71850837309844" lon="9.768776791848019"><ele>327.3333333333333</ele><time>2026-04-17T13:02:13Z</time></trkpt><trkpt lat="45.71856204721954" lon="9.768721352532598"><ele>327.1666666666667</ele><time>2026-04-17T13:02:14Z</time></trkpt><trkpt lat="45.718616079320114" lon="9.768663465192201"><ele>327.0</ele><time>2026-04-17T13:02:15Z</time></trkpt><trkpt lat="45.718669324726086" lon="9.768608948416333"><ele>327.0</ele><time>2026-04-17T13:02:16Z</time></trkpt><trkpt lat="45.71872398844045" lon="9.768555650723235"><ele>327.0</ele><time>2026-04-17T13:02:17Z</time></trkpt><trkpt lat="45.718832916303626" lon="9.768459582794343"><ele>327.0</ele><time>2026-04-17T13:02:19Z</time></trkpt><trkpt lat="45.718935914371464" lon="9.768366487807466"><ele>327.0</ele><time>2026-04-17T13:02:21Z</time></trkpt><trkpt lat="45.7190376165558" lon="9.768268002204309"><ele>327.0</ele><time>2026-04-17T13:02:23Z</time></trkpt><trkpt lat="45.71909876829081" lon="9.76821053910917"><ele>327.42857142857144</ele><time>2026-04-17T13:02:24Z</time></trkpt><trkpt lat="45.71915131193888" lon="9.768160577192758"><ele>327.8571428571429</ele><time>2026-04-17T13:02:25Z</time></trkpt><trkpt lat="45.7192050700663" lon="9.768103613515935"><ele>328.28571428571433</ele><time>2026-04-17T13:02:26Z</time></trkpt><trkpt lat="45.71926145987178" lon="9.768049977164782"><ele>328.7142857142857</ele><time>2026-04-17T13:02:27Z</time></trkpt><trkpt lat="45.71931911726738" lon="9.767993298525669"><ele>329.14285714285717</ele><time>2026-04-17T13:02:28Z</time></trkpt><trkpt lat="45.71937215735528" lon="9.767939044951465"><ele>329.5714285714286</ele><time>2026-04-17T13:02:29Z</time></trkpt><trkpt lat="45.71942463605575" lon="9.76787944507707"><ele>330.0</ele><time>2026-04-17T13:02:30Z</time></trkpt><trkpt lat="45.71947888471374" lon="9.767823367321704"><ele>330.00000000000006</ele><time>2026-04-17T13:02:31Z</time></trkpt><trkpt lat="45.71953553258244" lon="9.767767230950085"><ele>330.0</ele><time>2026-04-17T13:02:32Z</time></trkpt><trkpt lat="45.71959339718431" lon="9.76771306131622"><ele>330.0</ele><time>2026-04-17T13:02:33Z</time></trkpt><trkpt lat="45.71965610661138" lon="9.767658020330597"><ele>330.0</ele><time>2026-04-17T13:02:34Z</time></trkpt><trkpt lat="45.71970779603838" lon="9.767604710595913"><ele>330.0</ele><time>2026-04-17T13:02:35Z</time></trkpt><trkpt lat="45.71977158553229" lon="9.767542101201196"><ele>330.00000000000006</ele><time>2026-04-17T13:02:36Z</time></trkpt><trkpt lat="45.71982892587699" lon="9.76749054024698"><ele>330.0</ele><time>2026-04-17T13:02:37Z</time></trkpt><trkpt lat="45.71988499560046" lon="9.767430297981331"><ele>330.1666666666667</ele><time>2026-04-17T13:02:38Z</time></trkpt><trkpt lat="45.719939964212934" lon="9.767372691190083"><ele>330.3333333333333</ele><time>2026-04-17T13:02:39Z</time></trkpt><trkpt lat="45.71999649756604" lon="9.767314834269863"><ele>330.5</ele><time>2026-04-17T13:02:40Z</time></trkpt><trkpt lat="45.72004930633793" lon="9.76725692187778"><ele>330.66666666666663</ele><time>2026-04-17T13:02:41Z</time></trkpt><trkpt lat="45.720108798036804" lon="9.767204078041688"><ele>330.8333333333333</ele><time>2026-04-17T13:02:42Z</time></trkpt><trkpt lat="45.72021593796797" lon="9.767098698281211"><ele>331.0</ele><time>2026-04-17T13:02:44Z</time></trkpt><trkpt lat="45.72026924482076" lon="9.76703339701324"><ele>331.0</ele><time>2026-04-17T13:02:45Z</time></trkpt><trkpt lat="45.720320615111696" lon="9.76697847702392"><ele>331.0</ele><time>2026-04-17T13:02:46Z</time></trkpt><trkpt lat="45.72037710751327" lon="9.76693106748395"><ele>331.0</ele><time>2026-04-17T13:02:47Z</time></trkpt><trkpt lat="45.72044081841218" lon="9.766878216450118"><ele>331.0</ele><time>2026-04-17T13:02:48Z</time></trkpt><trkpt lat="45.7204959436272" lon="9.766823465611834"><ele>331.0</ele><time>2026-04-17T13:02:49Z</time></trkpt><trkpt lat="45.72054826513357" lon="9.766772846790607"><ele>331.0</ele><time>2026-04-17T13:02:50Z</time></trkpt><trkpt lat="45.72060877542107" lon="9.766721678544096"><ele>331.0</ele><time>2026-04-17T13:02:51Z</time></trkpt><trkpt lat="45.720650725117466" lon="9.766654140240231"><ele>329.7142857142857</ele><time>2026-04-17T13:02:52Z</time></trkpt><trkpt lat="45.720700490216366" lon="9.766590798644765"><ele>328.42857142857144</ele><time>2026-04-17T13:02:53Z</time></trkpt><trkpt lat="45.72074753038747" lon="9.76652447401702"><ele>327.1428571428571</ele><time>2026-04-17T13:02:54Z</time></trkpt><trkpt lat="45.720798517903106" lon="9.766460423744656"><ele>325.8571428571429</ele><time>2026-04-17T13:02:55Z</time></trkpt><trkpt lat="45.720852628153594" lon="9.766394832213825"><ele>324.57142857142856</ele><time>2026-04-17T13:02:56Z</time></trkpt><trkpt lat="45.72090105394554" lon="9.76633596958483"><ele>323.2857142857143</ele><time>2026-04-17T13:02:57Z</time></trkpt><trkpt lat="45.72095507711003" lon="9.766270188105294"><ele>322.0</ele><time>2026-04-17T13:02:58Z</time></trkpt><trkpt lat="45.72099947346258" lon="9.76619999264932"><ele>322.0</ele><time>2026-04-17T13:02:59Z</time></trkpt><trkpt lat="45.721062129280774" lon="9.766148036769893"><ele>322.0</ele><time>2026-04-17T13:03:00Z</time></trkpt><trkpt lat="45.7211501492908" lon="9.766020592090788"><ele>322.0</ele><time>2026-04-17T13:03:02Z</time></trkpt><trkpt lat="45.721201954661474" lon="9.76595922602001"><ele>322.0</ele><time>2026-04-17T13:03:03Z</time></trkpt><trkpt lat="45.721253698843796" lon="9.765905175615758"><ele>322.0</ele><time>2026-04-17T13:03:04Z</time></trkpt><trkpt lat="45.72135711776274" lon="9.765775634587122"><ele>321.5</ele><time>2026-04-17T13:03:06Z</time></trkpt><trkpt lat="45.721418259526345" lon="9.765694122375995"><ele>321.0</ele><time>2026-04-17T13:03:07Z</time></trkpt><trkpt lat="45.72149545650941" lon="9.765600613100329"><ele>320.5</ele><time>2026-04-17T13:03:09Z</time></trkpt><trkpt lat="45.72155308719146" lon="9.765548648750071"><ele>320.0</ele><time>2026-04-17T13:03:10Z</time></trkpt><trkpt lat="45.721658093900196" lon="9.765440624827777"><ele>319.5</ele><time>2026-04-17T13:03:12Z</time></trkpt><trkpt lat="45.72170985951794" lon="9.765385821442123"><ele>319.0</ele><time>2026-04-17T13:03:13Z</time></trkpt><trkpt lat="45.721761642586365" lon="9.765329542931307"><ele>319.0</ele><time>2026-04-17T13:03:14Z</time></trkpt><trkpt lat="45.72181440077249" lon="9.765277693569079"><ele>319.0</ele><time>2026-04-17T13:03:15Z</time></trkpt><trkpt lat="45.72186392646022" lon="9.765221169367672"><ele>319.0</ele><time>2026-04-17T13:03:16Z</time></trkpt><trkpt lat="45.72192135816755" lon="9.76517853614904"><ele>319.0</ele><time>2026-04-17T13:03:17Z</time></trkpt><trkpt lat="45.721973340964624" lon="9.765127565742972"><ele>319.0</ele><time>2026-04-17T13:03:18Z</time></trkpt><trkpt lat="45.72203632131681" lon="9.765088751132508"><ele>319.0</ele><time>2026-04-17T13:03:19Z</time></trkpt><trkpt lat="45.72208950294369" lon="9.7650304999233"><ele>319.0</ele><time>2026-04-17T13:03:20Z</time></trkpt><trkpt lat="45.722149248070615" lon="9.764977366322627"><ele>319.0</ele><time>2026-04-17T13:03:21Z</time></trkpt><trkpt lat="45.72220660836614" lon="9.764923776949544"><ele>319.0</ele><time>2026-04-17T13:03:22Z</time></trkpt><trkpt lat="45.72226703954412" lon="9.764864410135973"><ele>319.0</ele><time>2026-04-17T13:03:23Z</time></trkpt><trkpt lat="45.722329037933505" lon="9.764808239758374"><ele>319.0</ele><time>2026-04-17T13:03:24Z</time></trkpt><trkpt lat="45.72238688744093" lon="9.764751711936363"><ele>319.0</ele><time>2026-04-17T13:03:25Z</time></trkpt><trkpt lat="45.72244867816307" lon="9.764694307585875"><ele>319.0</ele><time>2026-04-17T13:03:26Z</time></trkpt><trkpt lat="45.72251244087665" lon="9.764633426751907"><ele>319.0</ele><time>2026-04-17T13:03:27Z</time></trkpt><trkpt lat="45.7225702507135" lon="9.764572912819657"><ele>319.0</ele><time>2026-04-17T13:03:28Z</time></trkpt><trkpt lat="45.72263333022194" lon="9.764505863894298"><ele>319.0</ele><time>2026-04-17T13:03:29Z</time></trkpt><trkpt lat="45.72269711678102" lon="9.764457222799646"><ele>319.0</ele><time>2026-04-17T13:03:30Z</time></trkpt><trkpt lat="45.72276119195965" lon="9.764393771819746"><ele>319.0</ele><time>2026-04-17T13:03:31Z</time></trkpt><trkpt lat="45.72282048723465" lon="9.764340382216867"><ele>319.0</ele><time>2026-04-17T13:03:32Z</time></trkpt><trkpt lat="45.72288025081728" lon="9.76426653062407"><ele>319.0</ele><time>2026-04-17T13:03:33Z</time></trkpt><trkpt lat="45.72294559237032" lon="9.764218787633423"><ele>318.16666666666663</ele><time>2026-04-17T13:03:34Z</time></trkpt><trkpt lat="45.72299528504244" lon="9.764147415418032"><ele>317.3333333333333</ele><time>2026-04-17T13:03:35Z</time></trkpt><trkpt lat="45.72305450100041" lon="9.764077995686177"><ele>316.5</ele><time>2026-04-17T13:03:36Z</time></trkpt><trkpt lat="45.72311227727947" lon="9.764017191858018"><ele>315.6666666666667</ele><time>2026-04-17T13:03:37Z</time></trkpt><trkpt lat="45.723163268765404" lon="9.76394308325241"><ele>314.83333333333337</ele><time>2026-04-17T13:03:38Z</time></trkpt><trkpt lat="45.72322320778797" lon="9.763866470134733"><ele>314.0</ele><time>2026-04-17T13:03:39Z</time></trkpt><trkpt lat="45.723327397567004" lon="9.763739758145942"><ele>314.0</ele><time>2026-04-17T13:03:41Z</time></trkpt><trkpt lat="45.72336916791846" lon="9.763663034322121"><ele>314.0</ele><time>2026-04-17T13:03:42Z</time></trkpt><trkpt lat="45.723420070904474" lon="9.763607191056462"><ele>314.0</ele><time>2026-04-17T13:03:43Z</time></trkpt><trkpt lat="45.72347243481675" lon="9.763526118306908"><ele>314.0</ele><time>2026-04-17T13:03:44Z</time></trkpt><trkpt lat="45.72355493384861" lon="9.763384101039597"><ele>314.0</ele><time>2026-04-17T13:03:46Z</time></trkpt><trkpt lat="45.723620461572" lon="9.763339115886714"><ele>314.0</ele><time>2026-04-17T13:03:47Z</time></trkpt><trkpt lat="45.72367943961134" lon="9.763290277310455"><ele>314.4285714285714</ele><time>2026-04-17T13:03:48Z</time></trkpt><trkpt lat="45.72371011167541" lon="9.76320769178423"><ele>314.85714285714283</ele><time>2026-04-17T13:03:49Z</time></trkpt><trkpt lat="45.72376758669978" lon="9.763151823379765"><ele>315.2857142857143</ele><time>2026-04-17T13:03:50Z</time></trkpt><trkpt lat="45.7238204068857" lon="9.763096998801341"><ele>315.71428571428567</ele><time>2026-04-17T13:03:51Z</time></trkpt><trkpt lat="45.723870734810234" lon="9.763035463861709"><ele>316.1428571428571</ele><time>2026-04-17T13:03:52Z</time></trkpt><trkpt lat="45.72393042956194" lon="9.762978438859466"><ele>316.57142857142856</ele><time>2026-04-17T13:03:53Z</time></trkpt><trkpt lat="45.7239943740478" lon="9.762869351686502"><ele>317.0</ele><time>2026-04-17T13:03:55Z</time></trkpt><trkpt lat="45.724104490043736" lon="9.762733914550653"><ele>316.57142857142856</ele><time>2026-04-17T13:03:57Z</time></trkpt><trkpt lat="45.72416221703852" lon="9.76266727960193"><ele>316.1428571428571</ele><time>2026-04-17T13:03:58Z</time></trkpt><trkpt lat="45.72420886266849" lon="9.762598604093714"><ele>315.71428571428567</ele><time>2026-04-17T13:03:59Z</time></trkpt><trkpt lat="45.72425328743385" lon="9.762523396741738"><ele>315.2857142857143</ele><time>2026-04-17T13:04:00Z</time></trkpt><trkpt lat="45.72429961052198" lon="9.762440761483786"><ele>314.85714285714283</ele><time>2026-04-17T13:04:01Z</time></trkpt><trkpt lat="45.72433972058982" lon="9.762363303735254"><ele>314.4285714285714</ele><time>2026-04-17T13:04:02Z</time></trkpt><trkpt lat="45.72437629991405" lon="9.762283868960735"><ele>314.0</ele><time>2026-04-17T13:04:03Z</time></trkpt><trkpt lat="45.72441179396755" lon="9.76218350310136"><ele>314.1428571428571</ele><time>2026-04-17T13:04:04Z</time></trkpt><trkpt lat="45.724443458992916" lon="9.762102773441308"><ele>314.2857142857143</ele><time>2026-04-17T13:04:05Z</time></trkpt><trkpt lat="45.7244977668284" lon="9.762026839854272"><ele>314.42857142857144</ele><time>2026-04-17T13:04:06Z</time></trkpt><trkpt lat="45.72453191478479" lon="9.761934497350945"><ele>314.57142857142856</ele><time>2026-04-17T13:04:07Z</time></trkpt><trkpt lat="45.72457369295848" lon="9.761845275213346"><ele>314.7142857142857</ele><time>2026-04-17T13:04:08Z</time></trkpt><trkpt lat="45.724614515824605" lon="9.76175321722313"><ele>314.85714285714283</ele><time>2026-04-17T13:04:09Z</time></trkpt><trkpt lat="45.72465995425034" lon="9.761661262395746"><ele>315.0</ele><time>2026-04-17T13:04:10Z</time></trkpt><trkpt lat="45.724703480238865" lon="9.761575368768728"><ele>315.0</ele><time>2026-04-17T13:04:11Z</time></trkpt><trkpt lat="45.72475876675893" lon="9.761495423259325"><ele>315.0</ele><time>2026-04-17T13:04:12Z</time></trkpt><trkpt lat="45.724808744697086" lon="9.76142371484772"><ele>315.0</ele><time>2026-04-17T13:04:13Z</time></trkpt><trkpt lat="45.72486449600542" lon="9.761359133373281"><ele>315.0</ele><time>2026-04-17T13:04:14Z</time></trkpt><trkpt lat="45.72492758061011" lon="9.761299163464503"><ele>315.0</ele><time>2026-04-17T13:04:15Z</time></trkpt><trkpt lat="45.72499029349337" lon="9.761249567432515"><ele>315.0</ele><time>2026-04-17T13:04:16Z</time></trkpt><trkpt lat="45.725059524882504" lon="9.761203863419558"><ele>315.0</ele><time>2026-04-17T13:04:17Z</time></trkpt><trkpt lat="45.72512422575808" lon="9.761163772859257"><ele>315.0</ele><time>2026-04-17T13:04:18Z</time></trkpt><trkpt lat="45.725195381733236" lon="9.761120753120062"><ele>315.0</ele><time>2026-04-17T13:04:19Z</time></trkpt><trkpt lat="45.725263222303965" lon="9.761085233689178"><ele>315.0</ele><time>2026-04-17T13:04:20Z</time></trkpt><trkpt lat="45.72533170715111" lon="9.761041504456205"><ele>315.0</ele><time>2026-04-17T13:04:21Z</time></trkpt><trkpt lat="45.725402090898214" lon="9.761007553339837"><ele>315.0</ele><time>2026-04-17T13:04:22Z</time></trkpt><trkpt lat="45.72547246844102" lon="9.760971648513031"><ele>315.0</ele><time>2026-04-17T13:04:23Z</time></trkpt><trkpt lat="45.72554512626916" lon="9.760941539846154"><ele>315.0</ele><time>2026-04-17T13:04:24Z</time></trkpt><trkpt lat="45.72561935715166" lon="9.76091525430299"><ele>314.7142857142857</ele><time>2026-04-17T13:04:25Z</time></trkpt><trkpt lat="45.72569189051666" lon="9.760894281559741"><ele>314.42857142857144</ele><time>2026-04-17T13:04:26Z</time></trkpt><trkpt lat="45.725764710417664" lon="9.76085826623229"><ele>314.1428571428571</ele><time>2026-04-17T13:04:27Z</time></trkpt><trkpt lat="45.72583698524093" lon="9.76082479781942"><ele>313.8571428571429</ele><time>2026-04-17T13:04:28Z</time></trkpt><trkpt lat="45.72590316388403" lon="9.760797547532361"><ele>313.57142857142856</ele><time>2026-04-17T13:04:29Z</time></trkpt><trkpt lat="45.725976747886044" lon="9.76077303999071"><ele>313.2857142857143</ele><time>2026-04-17T13:04:30Z</time></trkpt><trkpt lat="45.72605081992294" lon="9.760745568798715"><ele>313.0</ele><time>2026-04-17T13:04:31Z</time></trkpt><trkpt lat="45.72612406836802" lon="9.760717716884463"><ele>313.0</ele><time>2026-04-17T13:04:32Z</time></trkpt><trkpt lat="45.72619148106606" lon="9.760689766950193"><ele>313.0</ele><time>2026-04-17T13:04:33Z</time></trkpt><trkpt lat="45.72626289352237" lon="9.760660232332233"><ele>313.0</ele><time>2026-04-17T13:04:34Z</time></trkpt><trkpt lat="45.72633061460693" lon="9.760634838488649"><ele>313.0</ele><time>2026-04-17T13:04:35Z</time></trkpt><trkpt lat="45.726398232444105" lon="9.760606400957556"><ele>313.0</ele><time>2026-04-17T13:04:36Z</time></trkpt><trkpt lat="45.726465669225504" lon="9.76058122252546"><ele>313.0</ele><time>2026-04-17T13:04:37Z</time></trkpt><trkpt lat="45.72653416437591" lon="9.760551679889495"><ele>313.0</ele><time>2026-04-17T13:04:38Z</time></trkpt><trkpt lat="45.72660614232119" lon="9.760529538357408"><ele>313.0</ele><time>2026-04-17T13:04:39Z</time></trkpt><trkpt lat="45.72667611637099" lon="9.760494714499293"><ele>313.0</ele><time>2026-04-17T13:04:40Z</time></trkpt><trkpt lat="45.72674281557114" lon="9.760465612452405"><ele>313.0</ele><time>2026-04-17T13:04:41Z</time></trkpt><trkpt lat="45.72681266487764" lon="9.760445508466006"><ele>313.0</ele><time>2026-04-17T13:04:42Z</time></trkpt><trkpt lat="45.726883765295355" lon="9.760413203771808"><ele>313.0</ele><time>2026-04-17T13:04:43Z</time></trkpt><trkpt lat="45.72695593928858" lon="9.760398818391744"><ele>313.0</ele><time>2026-04-17T13:04:44Z</time></trkpt><trkpt lat="45.727025040266675" lon="9.760379081568225"><ele>313.0</ele><time>2026-04-17T13:04:45Z</time></trkpt><trkpt lat="45.72709558153098" lon="9.76035825215252"><ele>312.57142857142856</ele><time>2026-04-17T13:04:46Z</time></trkpt><trkpt lat="45.7271709864381" lon="9.760338438414221"><ele>312.14285714285717</ele><time>2026-04-17T13:04:47Z</time></trkpt><trkpt lat="45.72723931820122" lon="9.760324445672309"><ele>311.7142857142857</ele><time>2026-04-17T13:04:48Z</time></trkpt><trkpt lat="45.72730868533508" lon="9.760299600120366"><ele>311.2857142857143</ele><time>2026-04-17T13:04:49Z</time></trkpt><trkpt lat="45.72737864887327" lon="9.76027030347786"><ele>310.85714285714283</ele><time>2026-04-17T13:04:50Z</time></trkpt><trkpt lat="45.72744303512105" lon="9.760245563205011"><ele>310.42857142857144</ele><time>2026-04-17T13:04:51Z</time></trkpt><trkpt lat="45.72751566099914" lon="9.760210170469536"><ele>310.0</ele><time>2026-04-17T13:04:52Z</time></trkpt><trkpt lat="45.72757926156985" lon="9.760175949504685"><ele>310.0</ele><time>2026-04-17T13:04:53Z</time></trkpt><trkpt lat="45.72764248600954" lon="9.760138713155971"><ele>310.0</ele><time>2026-04-17T13:04:54Z</time></trkpt><trkpt lat="45.72770912137885" lon="9.760101471927543"><ele>310.0</ele><time>2026-04-17T13:04:55Z</time></trkpt><trkpt lat="45.727777667850255" lon="9.760061417625527"><ele>310.0</ele><time>2026-04-17T13:04:56Z</time></trkpt><trkpt lat="45.72784054833742" lon="9.760029437526509"><ele>310.0</ele><time>2026-04-17T13:04:57Z</time></trkpt><trkpt lat="45.72790645697073" lon="9.759994509427353"><ele>310.0</ele><time>2026-04-17T13:04:58Z</time></trkpt><trkpt lat="45.7279725092805" lon="9.759972363329966"><ele>310.0</ele><time>2026-04-17T13:04:59Z</time></trkpt><trkpt lat="45.72804327526514" lon="9.759932429309542"><ele>310.0</ele><time>2026-04-17T13:05:00Z</time></trkpt><trkpt lat="45.72810337831778" lon="9.759890857555856"><ele>310.0</ele><time>2026-04-17T13:05:01Z</time></trkpt><trkpt lat="45.72816711164799" lon="9.759861015601759"><ele>310.0</ele><time>2026-04-17T13:05:02Z</time></trkpt><trkpt lat="45.72822803987954" lon="9.759820541652562"><ele>310.0</ele><time>2026-04-17T13:05:03Z</time></trkpt><trkpt lat="45.72829451031603" lon="9.759784538706946"><ele>310.0</ele><time>2026-04-17T13:05:04Z</time></trkpt><trkpt lat="45.72836128382139" lon="9.759762157665438"><ele>310.0</ele><time>2026-04-17T13:05:05Z</time></trkpt><trkpt lat="45.728427734024464" lon="9.759725475053429"><ele>310.0</ele><time>2026-04-17T13:05:06Z</time></trkpt><trkpt lat="45.72849354317486" lon="9.759696125482611"><ele>310.0</ele><time>2026-04-17T13:05:07Z</time></trkpt><trkpt lat="45.72855650145861" lon="9.759654995734758"><ele>310.0</ele><time>2026-04-17T13:05:08Z</time></trkpt><trkpt lat="45.728623773708534" lon="9.75962269479943"><ele>310.0</ele><time>2026-04-17T13:05:09Z</time></trkpt><trkpt lat="45.72868810664304" lon="9.759583741175039"><ele>310.0</ele><time>2026-04-17T13:05:10Z</time></trkpt><trkpt lat="45.72875079508003" lon="9.75955839504176"><ele>310.0</ele><time>2026-04-17T13:05:11Z</time></trkpt><trkpt lat="45.72881357637166" lon="9.759523229949828"><ele>310.0</ele><time>2026-04-17T13:05:12Z</time></trkpt><trkpt lat="45.72887336257757" lon="9.759488123167014"><ele>310.0</ele><time>2026-04-17T13:05:13Z</time></trkpt><trkpt lat="45.72893596800803" lon="9.759464894927353"><ele>310.66666666666663</ele><time>2026-04-17T13:05:14Z</time></trkpt><trkpt lat="45.72899561717696" lon="9.759432472158414"><ele>311.3333333333333</ele><time>2026-04-17T13:05:15Z</time></trkpt><trkpt lat="45.72906402377843" lon="9.759414522202588"><ele>312.0</ele><time>2026-04-17T13:05:16Z</time></trkpt><trkpt lat="45.72918970703989" lon="9.759376568355473"><ele>312.6666666666667</ele><time>2026-04-17T13:05:18Z</time></trkpt><trkpt lat="45.72925408091347" lon="9.75936674840692"><ele>313.33333333333337</ele><time>2026-04-17T13:05:19Z</time></trkpt><trkpt lat="45.7293226030551" lon="9.759366584084677"><ele>314.0</ele><time>2026-04-17T13:05:20Z</time></trkpt><trkpt lat="45.729385775900695" lon="9.759355344873883"><ele>312.4</ele><time>2026-04-17T13:05:21Z</time></trkpt><trkpt lat="45.72945059939338" lon="9.759342876747333"><ele>310.79999999999995</ele><time>2026-04-17T13:05:22Z</time></trkpt><trkpt lat="45.72956571051297" lon="9.75935517088744"><ele>309.20000000000005</ele><time>2026-04-17T13:05:24Z</time></trkpt><trkpt lat="45.729642628892265" lon="9.759362729873898"><ele>307.6</ele><time>2026-04-17T13:05:25Z</time></trkpt><trkpt lat="45.72970721554662" lon="9.75934968906379"><ele>306.0</ele><time>2026-04-17T13:05:26Z</time></trkpt><trkpt lat="45.72983849930866" lon="9.75934856659728"><ele>306.0</ele><time>2026-04-17T13:05:28Z</time></trkpt><trkpt lat="45.72990605376328" lon="9.759333234422689"><ele>306.0</ele><time>2026-04-17T13:05:29Z</time></trkpt><trkpt lat="45.729972080215006" lon="9.759323208915426"><ele>306.0</ele><time>2026-04-17T13:05:30Z</time></trkpt><trkpt lat="45.730040450949716" lon="9.759310978002567"><ele>306.0</ele><time>2026-04-17T13:05:31Z</time></trkpt><trkpt lat="45.730167623106674" lon="9.759296422438755"><ele>306.0</ele><time>2026-04-17T13:05:33Z</time></trkpt><trkpt lat="45.73023005301792" lon="9.75928306770697"><ele>306.0</ele><time>2026-04-17T13:05:34Z</time></trkpt><trkpt lat="45.730301346382824" lon="9.759266623193383"><ele>306.0</ele><time>2026-04-17T13:05:35Z</time></trkpt><trkpt lat="45.73036844018618" lon="9.759256027319903"><ele>306.0</ele><time>2026-04-17T13:05:36Z</time></trkpt><trkpt lat="45.730437172867646" lon="9.759228848104692"><ele>306.0</ele><time>2026-04-17T13:05:37Z</time></trkpt><trkpt lat="45.73051124918028" lon="9.75921449111778"><ele>306.0</ele><time>2026-04-17T13:05:38Z</time></trkpt><trkpt lat="45.73058682523096" lon="9.759204956755918"><ele>306.0</ele><time>2026-04-17T13:05:39Z</time></trkpt><trkpt lat="45.7306564749263" lon="9.759191212188647"><ele>306.0</ele><time>2026-04-17T13:05:40Z</time></trkpt><trkpt lat="45.73072625480047" lon="9.759172684954887"><ele>306.0</ele><time>2026-04-17T13:05:41Z</time></trkpt><trkpt lat="45.73084429483244" lon="9.759101406396434"><ele>306.0</ele><time>2026-04-17T13:05:43Z</time></trkpt><trkpt lat="45.73090918430783" lon="9.759049485629909"><ele>306.0</ele><time>2026-04-17T13:05:44Z</time></trkpt><trkpt lat="45.730974455345674" lon="9.758969790533488"><ele>306.0</ele><time>2026-04-17T13:05:45Z</time></trkpt><trkpt lat="45.731035971190856" lon="9.758933801458198"><ele>306.0</ele><time>2026-04-17T13:05:46Z</time></trkpt><trkpt lat="45.73111089776509" lon="9.758883809965859"><ele>306.0</ele><time>2026-04-17T13:05:47Z</time></trkpt><trkpt lat="45.73119217317626" lon="9.75885222698281"><ele>306.0</ele><time>2026-04-17T13:05:48Z</time></trkpt><trkpt lat="45.731274741021004" lon="9.758822416772013"><ele>306.0</ele><time>2026-04-17T13:05:49Z</time></trkpt><trkpt lat="45.73134686174431" lon="9.75880900986516"><ele>306.0</ele><time>2026-04-17T13:05:50Z</time></trkpt><trkpt lat="45.7314322943567" lon="9.75871325227392"><ele>306.0</ele><time>2026-04-17T13:05:52Z</time></trkpt><trkpt lat="45.73143611058314" lon="9.758622593147585"><ele>306.0</ele><time>2026-04-17T13:05:53Z</time></trkpt><trkpt lat="45.73143661242702" lon="9.758530640879597"><ele>306.0</ele><time>2026-04-17T13:05:54Z</time></trkpt><trkpt lat="45.731409802542665" lon="9.758388074574773"><ele>306.0</ele><time>2026-04-17T13:05:56Z</time></trkpt><trkpt lat="45.73142914554411" lon="9.758299534925385"><ele>306.0</ele><time>2026-04-17T13:05:57Z</time></trkpt><trkpt lat="45.73152567027486" lon="9.758250011121818"><ele>306.0</ele><time>2026-04-17T13:05:59Z</time></trkpt><trkpt lat="45.73159160700712" lon="9.758197618416393"><ele>306.0</ele><time>2026-04-17T13:06:00Z</time></trkpt><trkpt lat="45.731647220225085" lon="9.758140533638695"><ele>306.0</ele><time>2026-04-17T13:06:02Z</time></trkpt><trkpt lat="45.73172950131411" lon="9.75811715615816"><ele>306.0</ele><time>2026-04-17T13:06:05Z</time></trkpt><trkpt lat="45.73178790683502" lon="9.758081438261659"><ele>306.0</ele><time>2026-04-17T13:06:06Z</time></trkpt><trkpt lat="45.731857569005136" lon="9.758036297306067"><ele>306.0</ele><time>2026-04-17T13:06:07Z</time></trkpt><trkpt lat="45.73191833874156" lon="9.757975938841447"><ele>306.0</ele><time>2026-04-17T13:06:08Z</time></trkpt><trkpt lat="45.73197743892389" lon="9.757916023254074"><ele>306.0</ele><time>2026-04-17T13:06:09Z</time></trkpt><trkpt lat="45.73203942781722" lon="9.757856065464969"><ele>306.0</ele><time>2026-04-17T13:06:10Z</time></trkpt><trkpt lat="45.73210660289921" lon="9.757808752376112"><ele>306.0</ele><time>2026-04-17T13:06:11Z</time></trkpt><trkpt lat="45.73217130646249" lon="9.757759768521408"><ele>306.0</ele><time>2026-04-17T13:06:12Z</time></trkpt><trkpt lat="45.732233956643384" lon="9.757733014306815"><ele>306.0</ele><time>2026-04-17T13:06:13Z</time></trkpt><trkpt lat="45.732300040832875" lon="9.757698311829262"><ele>306.0</ele><time>2026-04-17T13:06:14Z</time></trkpt><trkpt lat="45.73236856548169" lon="9.757668616959252"><ele>306.0</ele><time>2026-04-17T13:06:15Z</time></trkpt><trkpt lat="45.73243810080615" lon="9.757633047480766"><ele>306.0</ele><time>2026-04-17T13:06:16Z</time></trkpt><trkpt lat="45.7325120209809" lon="9.75760066976477"><ele>306.0</ele><time>2026-04-17T13:06:17Z</time></trkpt><trkpt lat="45.73257684096096" lon="9.75756016602897"><ele>306.0</ele><time>2026-04-17T13:06:18Z</time></trkpt><trkpt lat="45.73266225314601" lon="9.757524447240954"><ele>306.0</ele><time>2026-04-17T13:06:19Z</time></trkpt><trkpt lat="45.73274210917722" lon="9.757489811859399"><ele>305.3333333333333</ele><time>2026-04-17T13:06:20Z</time></trkpt><trkpt lat="45.732819965168495" lon="9.757458862929594"><ele>304.6666666666667</ele><time>2026-04-17T13:06:21Z</time></trkpt><trkpt lat="45.732910207969326" lon="9.75744179004859"><ele>304.0</ele><time>2026-04-17T13:06:22Z</time></trkpt><trkpt lat="45.733004477277674" lon="9.75742081413709"><ele>303.33333333333337</ele><time>2026-04-17T13:06:23Z</time></trkpt><trkpt lat="45.73309193618219" lon="9.757395166658172"><ele>302.6666666666667</ele><time>2026-04-17T13:06:24Z</time></trkpt><trkpt lat="45.7331768809125" lon="9.757354869014561"><ele>302.0</ele><time>2026-04-17T13:06:25Z</time></trkpt><trkpt lat="45.73325214315911" lon="9.757284578091172"><ele>302.0</ele><time>2026-04-17T13:06:26Z</time></trkpt><trkpt lat="45.73331840600204" lon="9.757191691115354"><ele>302.0</ele><time>2026-04-17T13:06:27Z</time></trkpt><trkpt lat="45.7333731800802" lon="9.757098426090993"><ele>302.0</ele><time>2026-04-17T13:06:28Z</time></trkpt><trkpt lat="45.73340877834591" lon="9.757012786523754"><ele>302.0</ele><time>2026-04-17T13:06:29Z</time></trkpt><trkpt lat="45.733455418054234" lon="9.756933392646541"><ele>302.0</ele><time>2026-04-17T13:06:30Z</time></trkpt><trkpt lat="45.73354092294962" lon="9.756926032979552"><ele>302.0</ele><time>2026-04-17T13:06:31Z</time></trkpt><trkpt lat="45.73360618245435" lon="9.756898771876596"><ele>302.0</ele><time>2026-04-17T13:06:32Z</time></trkpt><trkpt lat="45.73371306664006" lon="9.756843698359333"><ele>302.0</ele><time>2026-04-17T13:06:34Z</time></trkpt><trkpt lat="45.73377524000932" lon="9.756811306782714"><ele>302.0</ele><time>2026-04-17T13:06:35Z</time></trkpt><trkpt lat="45.73383589446078" lon="9.75677758297766"><ele>302.0</ele><time>2026-04-17T13:06:36Z</time></trkpt><trkpt lat="45.73389717995732" lon="9.756746182484733"><ele>302.0</ele><time>2026-04-17T13:06:37Z</time></trkpt><trkpt lat="45.73401837957074" lon="9.756689776133692"><ele>302.0</ele><time>2026-04-17T13:06:39Z</time></trkpt><trkpt lat="45.73408140522732" lon="9.75665847013845"><ele>302.0</ele><time>2026-04-17T13:06:40Z</time></trkpt><trkpt lat="45.73414689307358" lon="9.756622902236861"><ele>302.0</ele><time>2026-04-17T13:06:41Z</time></trkpt><trkpt lat="45.73426030937039" lon="9.756544049845061"><ele>302.0</ele><time>2026-04-17T13:06:43Z</time></trkpt><trkpt lat="45.73430676906689" lon="9.7563862808634"><ele>302.0</ele><time>2026-04-17T13:06:45Z</time></trkpt><trkpt lat="45.73432106317303" lon="9.756291469543136"><ele>302.0</ele><time>2026-04-17T13:06:46Z</time></trkpt><trkpt lat="45.734343808171616" lon="9.756116719886043"><ele>301.33333333333337</ele><time>2026-04-17T13:06:48Z</time></trkpt><trkpt lat="45.73439347845719" lon="9.756046256695726"><ele>300.6666666666667</ele><time>2026-04-17T13:06:49Z</time></trkpt><trkpt lat="45.73445901893907" lon="9.756014893762975"><ele>300.0</ele><time>2026-04-17T13:06:50Z</time></trkpt><trkpt lat="45.73452391444584" lon="9.755993533080444"><ele>299.3333333333333</ele><time>2026-04-17T13:06:51Z</time></trkpt><trkpt lat="45.73458601177628" lon="9.755974399666803"><ele>298.66666666666663</ele><time>2026-04-17T13:06:52Z</time></trkpt><trkpt lat="45.73465267414784" lon="9.755952919267786"><ele>298.0</ele><time>2026-04-17T13:06:53Z</time></trkpt><trkpt lat="45.7347736434794" lon="9.755901367889692"><ele>297.4</ele><time>2026-04-17T13:06:55Z</time></trkpt><trkpt lat="45.73483796305069" lon="9.755884499036874"><ele>296.8</ele><time>2026-04-17T13:06:56Z</time></trkpt><trkpt lat="45.734961056760156" lon="9.755832100952853"><ele>296.2</ele><time>2026-04-17T13:06:58Z</time></trkpt><trkpt lat="45.7350852678037" lon="9.755785780727729"><ele>295.6</ele><time>2026-04-17T13:07:00Z</time></trkpt><trkpt lat="45.73517873867523" lon="9.755664817275917"><ele>295.0</ele><time>2026-04-17T13:07:02Z</time></trkpt><trkpt lat="45.735226559293274" lon="9.755600241691905"><ele>294.2</ele><time>2026-04-17T13:07:03Z</time></trkpt><trkpt lat="45.735341245465214" lon="9.755531001726633"><ele>293.4</ele><time>2026-04-17T13:07:05Z</time></trkpt><trkpt lat="45.73545954370356" lon="9.7555617714583"><ele>292.6</ele><time>2026-04-17T13:07:07Z</time></trkpt><trkpt lat="45.735576014985554" lon="9.755523463911755"><ele>291.8</ele><time>2026-04-17T13:07:09Z</time></trkpt><trkpt lat="45.73562427168378" lon="9.755433253063012"><ele>291.0</ele><time>2026-04-17T13:07:10Z</time></trkpt><trkpt lat="45.735660749613324" lon="9.755326843913119"><ele>291.0</ele><time>2026-04-17T13:07:11Z</time></trkpt><trkpt lat="45.735682815398455" lon="9.755218374649528"><ele>291.0</ele><time>2026-04-17T13:07:12Z</time></trkpt><trkpt lat="45.735677448107126" lon="9.755086908323085"><ele>291.0</ele><time>2026-04-17T13:07:13Z</time></trkpt><trkpt lat="45.735618196642456" lon="9.754999496230974"><ele>291.0</ele><time>2026-04-17T13:07:14Z</time></trkpt><trkpt lat="45.735571423772996" lon="9.754902733635369"><ele>291.0</ele><time>2026-04-17T13:07:15Z</time></trkpt><trkpt lat="45.73554251275383" lon="9.754803243994793"><ele>291.0</ele><time>2026-04-17T13:07:16Z</time></trkpt><trkpt lat="45.73551617270525" lon="9.754695505843912"><ele>290.6666666666667</ele><time>2026-04-17T13:07:17Z</time></trkpt><trkpt lat="45.735481325581674" lon="9.75459147926122"><ele>290.3333333333333</ele><time>2026-04-17T13:07:18Z</time></trkpt><trkpt lat="45.73544775495575" lon="9.754487611707424"><ele>290.0</ele><time>2026-04-17T13:07:19Z</time></trkpt><trkpt lat="45.735417901210674" lon="9.754381807168894"><ele>289.66666666666663</ele><time>2026-04-17T13:07:20Z</time></trkpt><trkpt lat="45.735391675816636" lon="9.754276412150407"><ele>289.3333333333333</ele><time>2026-04-17T13:07:21Z</time></trkpt><trkpt lat="45.73536899688864" lon="9.75417340976266"><ele>289.0</ele><time>2026-04-17T13:07:22Z</time></trkpt><trkpt lat="45.735345922595364" lon="9.754072627052999"><ele>288.7142857142857</ele><time>2026-04-17T13:07:23Z</time></trkpt><trkpt lat="45.73530961051729" lon="9.753974413939801"><ele>288.42857142857144</ele><time>2026-04-17T13:07:24Z</time></trkpt><trkpt lat="45.735272976370176" lon="9.753884653731404"><ele>288.1428571428571</ele><time>2026-04-17T13:07:25Z</time></trkpt><trkpt lat="45.73524706768276" lon="9.75378571199736"><ele>287.8571428571429</ele><time>2026-04-17T13:07:26Z</time></trkpt><trkpt lat="45.735214486305615" lon="9.753692292647028"><ele>287.57142857142856</ele><time>2026-04-17T13:07:27Z</time></trkpt><trkpt lat="45.73518543437261" lon="9.753593047630554"><ele>287.2857142857143</ele><time>2026-04-17T13:07:28Z</time></trkpt><trkpt lat="45.73514585075519" lon="9.75350047880635"><ele>287.0</ele><time>2026-04-17T13:07:29Z</time></trkpt><trkpt lat="45.73511256722047" lon="9.753414784666207"><ele>287.83333333333337</ele><time>2026-04-17T13:07:30Z</time></trkpt><trkpt lat="45.73507646709683" lon="9.753332255963041"><ele>288.6666666666667</ele><time>2026-04-17T13:07:31Z</time></trkpt><trkpt lat="45.73503952121769" lon="9.753245329131703"><ele>289.5</ele><time>2026-04-17T13:07:32Z</time></trkpt><trkpt lat="45.73501065636951" lon="9.753164039816564"><ele>290.3333333333333</ele><time>2026-04-17T13:07:33Z</time></trkpt><trkpt lat="45.734982405331564" lon="9.753078234244258"><ele>291.16666666666663</ele><time>2026-04-17T13:07:34Z</time></trkpt><trkpt lat="45.73494777197519" lon="9.752889958786756"><ele>292.0</ele><time>2026-04-17T13:07:36Z</time></trkpt><trkpt lat="45.73493630315858" lon="9.752796769503954"><ele>291.7142857142857</ele><time>2026-04-17T13:07:37Z</time></trkpt><trkpt lat="45.73492259851864" lon="9.752698713054361"><ele>291.42857142857144</ele><time>2026-04-17T13:07:38Z</time></trkpt><trkpt lat="45.734907130173816" lon="9.752608648441282"><ele>291.14285714285717</ele><time>2026-04-17T13:07:39Z</time></trkpt><trkpt lat="45.734892259519505" lon="9.752505364574844"><ele>290.8571428571429</ele><time>2026-04-17T13:07:40Z</time></trkpt><trkpt lat="45.7348898033573" lon="9.752409370195778"><ele>290.5714285714286</ele><time>2026-04-17T13:07:41Z</time></trkpt><trkpt lat="45.73485128363783" lon="9.75230934328711"><ele>290.2857142857143</ele><time>2026-04-17T13:07:42Z</time></trkpt><trkpt lat="45.73482678146876" lon="9.75220302917154"><ele>290.0</ele><time>2026-04-17T13:07:43Z</time></trkpt><trkpt lat="45.734807547631895" lon="9.752087861327734"><ele>290.0</ele><time>2026-04-17T13:07:44Z</time></trkpt><trkpt lat="45.73478301923551" lon="9.751980876244511"><ele>290.0</ele><time>2026-04-17T13:07:45Z</time></trkpt><trkpt lat="45.7347436610222" lon="9.751877048917445"><ele>290.0</ele><time>2026-04-17T13:07:46Z</time></trkpt><trkpt lat="45.73470871504305" lon="9.751768730564091"><ele>290.0</ele><time>2026-04-17T13:07:47Z</time></trkpt><trkpt lat="45.73467140878002" lon="9.751661386640016"><ele>290.0</ele><time>2026-04-17T13:07:48Z</time></trkpt><trkpt lat="45.73463021228445" lon="9.751552050293276"><ele>290.0</ele><time>2026-04-17T13:07:49Z</time></trkpt><trkpt lat="45.73458171059156" lon="9.751449144947761"><ele>289.8</ele><time>2026-04-17T13:07:50Z</time></trkpt><trkpt lat="45.734541939138886" lon="9.7513622167413"><ele>289.6</ele><time>2026-04-17T13:07:51Z</time></trkpt><trkpt lat="45.73448387130804" lon="9.751213069851445"><ele>289.4</ele><time>2026-04-17T13:07:53Z</time></trkpt><trkpt lat="45.73440865020913" lon="9.751070023956991"><ele>289.2</ele><time>2026-04-17T13:07:55Z</time></trkpt><trkpt lat="45.734336920035865" lon="9.750921573157477"><ele>289.0</ele><time>2026-04-17T13:07:57Z</time></trkpt><trkpt lat="45.7342814437351" lon="9.750770077865297"><ele>289.5</ele><time>2026-04-17T13:07:59Z</time></trkpt><trkpt lat="45.73420863187665" lon="9.750619409218594"><ele>290.0</ele><time>2026-04-17T13:08:01Z</time></trkpt><trkpt lat="45.73418457332869" lon="9.750533741440552"><ele>290.5</ele><time>2026-04-17T13:08:02Z</time></trkpt><trkpt lat="45.73412393377922" lon="9.750394333755308"><ele>291.0</ele><time>2026-04-17T13:08:04Z</time></trkpt><trkpt lat="45.734100712735604" lon="9.750305242735346"><ele>291.5</ele><time>2026-04-17T13:08:05Z</time></trkpt><trkpt lat="45.73406773367636" lon="9.750221030507811"><ele>292.0</ele><time>2026-04-17T13:08:06Z</time></trkpt><trkpt lat="45.734037306947776" lon="9.7501383909902"><ele>292.0</ele><time>2026-04-17T13:08:07Z</time></trkpt><trkpt lat="45.73400878433361" lon="9.750056803079492"><ele>292.0</ele><time>2026-04-17T13:08:08Z</time></trkpt><trkpt lat="45.733984961373565" lon="9.749968380004077"><ele>292.0</ele><time>2026-04-17T13:08:09Z</time></trkpt><trkpt lat="45.73392175519311" lon="9.749812905672563"><ele>292.0</ele><time>2026-04-17T13:08:11Z</time></trkpt><trkpt lat="45.73389163825806" lon="9.749728610031713"><ele>292.0</ele><time>2026-04-17T13:08:12Z</time></trkpt><trkpt lat="45.73385629967806" lon="9.749652950961494"><ele>292.0</ele><time>2026-04-17T13:08:13Z</time></trkpt><trkpt lat="45.73383695922896" lon="9.74956710879732"><ele>292.0</ele><time>2026-04-17T13:08:14Z</time></trkpt><trkpt lat="45.73378522674082" lon="9.749395747182618"><ele>291.4</ele><time>2026-04-17T13:08:16Z</time></trkpt><trkpt lat="45.733754759222535" lon="9.74930799637188"><ele>290.79999999999995</ele><time>2026-04-17T13:08:17Z</time></trkpt><trkpt lat="45.733702125502795" lon="9.749145339813694"><ele>290.2</ele><time>2026-04-17T13:08:19Z</time></trkpt><trkpt lat="45.73365350368255" lon="9.74899492662428"><ele>289.59999999999997</ele><time>2026-04-17T13:08:21Z</time></trkpt><trkpt lat="45.733586891797046" lon="9.748853121790418"><ele>289.0</ele><time>2026-04-17T13:08:23Z</time></trkpt><trkpt lat="45.7334979276418" lon="9.748737339523862"><ele>289.5</ele><time>2026-04-17T13:08:25Z</time></trkpt><trkpt lat="45.733404151545855" lon="9.748605566114577"><ele>290.0</ele><time>2026-04-17T13:08:27Z</time></trkpt><trkpt lat="45.733368830852115" lon="9.748529727083907"><ele>290.5</ele><time>2026-04-17T13:08:28Z</time></trkpt><trkpt lat="45.73332978603246" lon="9.748450819587614"><ele>291.0</ele><time>2026-04-17T13:08:29Z</time></trkpt><trkpt lat="45.733314050531256" lon="9.748357474694059"><ele>291.5</ele><time>2026-04-17T13:08:30Z</time></trkpt><trkpt lat="45.73330219541866" lon="9.748263588635059"><ele>292.0</ele><time>2026-04-17T13:08:31Z</time></trkpt><trkpt lat="45.733272363168204" lon="9.748169361835922"><ele>292.0</ele><time>2026-04-17T13:08:32Z</time></trkpt><trkpt lat="45.73324569297216" lon="9.74807833626104"><ele>292.0</ele><time>2026-04-17T13:08:33Z</time></trkpt><trkpt lat="45.73323949295954" lon="9.747983398790552"><ele>292.0</ele><time>2026-04-17T13:08:34Z</time></trkpt><trkpt lat="45.733162170328406" lon="9.74783387940295"><ele>292.0</ele><time>2026-04-17T13:08:36Z</time></trkpt><trkpt lat="45.73312404521707" lon="9.747754431900088"><ele>292.0</ele><time>2026-04-17T13:08:37Z</time></trkpt><trkpt lat="45.73308029779266" lon="9.74768318655577"><ele>292.0</ele><time>2026-04-17T13:08:38Z</time></trkpt><trkpt lat="45.733033236626824" lon="9.747618523087791"><ele>291.4</ele><time>2026-04-17T13:08:39Z</time></trkpt><trkpt lat="45.732976144644965" lon="9.747559830458155"><ele>290.79999999999995</ele><time>2026-04-17T13:08:40Z</time></trkpt><trkpt lat="45.732920074760735" lon="9.747508645641377"><ele>290.2</ele><time>2026-04-17T13:08:41Z</time></trkpt><trkpt lat="45.732830497010525" lon="9.74737211988882"><ele>289.59999999999997</ele><time>2026-04-17T13:08:43Z</time></trkpt><trkpt lat="45.73282559244025" lon="9.747193705399452"><ele>289.0</ele><time>2026-04-17T13:08:45Z</time></trkpt><trkpt lat="45.73282889851654" lon="9.747099446835339"><ele>289.0</ele><time>2026-04-17T13:08:46Z</time></trkpt><trkpt lat="45.732814246656936" lon="9.74700268527521"><ele>289.0</ele><time>2026-04-17T13:08:47Z</time></trkpt><trkpt lat="45.73280022816013" lon="9.74681627771716"><ele>289.0</ele><time>2026-04-17T13:08:49Z</time></trkpt><trkpt lat="45.73279494390089" lon="9.746722824180639"><ele>289.0</ele><time>2026-04-17T13:08:50Z</time></trkpt><trkpt lat="45.73279203908411" lon="9.746540142421118"><ele>289.0</ele><time>2026-04-17T13:08:52Z</time></trkpt><trkpt lat="45.73279002431013" lon="9.74644047650163"><ele>288.5</ele><time>2026-04-17T13:08:53Z</time></trkpt><trkpt lat="45.73278534945377" lon="9.746263932943418"><ele>288.0</ele><time>2026-04-17T13:08:55Z</time></trkpt><trkpt lat="45.73275323607842" lon="9.746156474721756"><ele>287.5</ele><time>2026-04-17T13:08:56Z</time></trkpt><trkpt lat="45.732731083768655" lon="9.746056744000972"><ele>287.0</ele><time>2026-04-17T13:08:57Z</time></trkpt><trkpt lat="45.73270642743403" lon="9.745959091810395"><ele>286.5</ele><time>2026-04-17T13:08:58Z</time></trkpt><trkpt lat="45.73268683349645" lon="9.745867036841434"><ele>286.0</ele><time>2026-04-17T13:08:59Z</time></trkpt><trkpt lat="45.73266371697695" lon="9.745774659334563"><ele>286.85714285714283</ele><time>2026-04-17T13:09:00Z</time></trkpt><trkpt lat="45.73264493315708" lon="9.745682181892397"><ele>287.7142857142857</ele><time>2026-04-17T13:09:01Z</time></trkpt><trkpt lat="45.73262175309291" lon="9.745597386949985"><ele>288.57142857142856</ele><time>2026-04-17T13:09:02Z</time></trkpt><trkpt lat="45.73260907787332" lon="9.745508177944814"><ele>289.42857142857144</ele><time>2026-04-17T13:09:03Z</time></trkpt><trkpt lat="45.73257051078494" lon="9.745336491013319"><ele>290.2857142857143</ele><time>2026-04-17T13:09:05Z</time></trkpt><trkpt lat="45.73254889080549" lon="9.745250041635481"><ele>291.1428571428571</ele><time>2026-04-17T13:09:06Z</time></trkpt><trkpt lat="45.73252250115953" lon="9.745164749202022"><ele>292.0</ele><time>2026-04-17T13:09:07Z</time></trkpt><trkpt lat="45.732503730156346" lon="9.745073945828706"><ele>292.0</ele><time>2026-04-17T13:09:08Z</time></trkpt><trkpt lat="45.73247947656745" lon="9.74498742819868"><ele>292.0</ele><time>2026-04-17T13:09:09Z</time></trkpt><trkpt lat="45.732419345385786" lon="9.744821600470438"><ele>292.0</ele><time>2026-04-17T13:09:11Z</time></trkpt><trkpt lat="45.73236949087217" lon="9.74472317840189"><ele>292.0</ele><time>2026-04-17T13:09:12Z</time></trkpt><trkpt lat="45.7323677272007" lon="9.744548246688348"><ele>292.0</ele><time>2026-04-17T13:09:14Z</time></trkpt><trkpt lat="45.73235326547817" lon="9.744460164488837"><ele>291.16666666666663</ele><time>2026-04-17T13:09:15Z</time></trkpt><trkpt lat="45.732331081423126" lon="9.744370575643876"><ele>290.3333333333333</ele><time>2026-04-17T13:09:16Z</time></trkpt><trkpt lat="45.732314616801325" lon="9.744280765742568"><ele>289.5</ele><time>2026-04-17T13:09:17Z</time></trkpt><trkpt lat="45.73229161577002" lon="9.744184158411224"><ele>288.6666666666667</ele><time>2026-04-17T13:09:18Z</time></trkpt><trkpt lat="45.732261010000286" lon="9.744012528242628"><ele>287.83333333333337</ele><time>2026-04-17T13:09:20Z</time></trkpt><trkpt lat="45.732241105568995" lon="9.743924647189163"><ele>287.0</ele><time>2026-04-17T13:09:21Z</time></trkpt><trkpt lat="45.73221929617456" lon="9.743832663463476"><ele>287.0</ele><time>2026-04-17T13:09:22Z</time></trkpt><trkpt lat="45.73220460156701" lon="9.743743211663764"><ele>287.0</ele><time>2026-04-17T13:09:23Z</time></trkpt><trkpt lat="45.732190079298206" lon="9.743651827483369"><ele>287.0</ele><time>2026-04-17T13:09:24Z</time></trkpt><trkpt lat="45.732168441894395" lon="9.743561538969077"><ele>287.0</ele><time>2026-04-17T13:09:25Z</time></trkpt><trkpt lat="45.73215169902345" lon="9.743472019246987"><ele>287.0</ele><time>2026-04-17T13:09:26Z</time></trkpt><trkpt lat="45.73212813822249" lon="9.743385511765036"><ele>287.0</ele><time>2026-04-17T13:09:27Z</time></trkpt><trkpt lat="45.73210838309211" lon="9.743227691366886"><ele>287.0</ele><time>2026-04-17T13:09:29Z</time></trkpt><trkpt lat="45.732058132378384" lon="9.743056718971575"><ele>286.6</ele><time>2026-04-17T13:09:31Z</time></trkpt><trkpt lat="45.73201024026391" lon="9.74294829751309"><ele>286.2</ele><time>2026-04-17T13:09:32Z</time></trkpt><trkpt lat="45.73198535108717" lon="9.74279307359534"><ele>285.8</ele><time>2026-04-17T13:09:34Z</time></trkpt><trkpt lat="45.731955336104114" lon="9.742710810615272"><ele>285.4</ele><time>2026-04-17T13:09:35Z</time></trkpt><trkpt lat="45.73192030362479" lon="9.742625920493337"><ele>285.0</ele><time>2026-04-17T13:09:36Z</time></trkpt><trkpt lat="45.73186578989284" lon="9.74247140560137"><ele>286.6666666666667</ele><time>2026-04-17T13:09:38Z</time></trkpt><trkpt lat="45.731823414736624" lon="9.742397839754018"><ele>288.3333333333333</ele><time>2026-04-17T13:09:39Z</time></trkpt><trkpt lat="45.73177548360603" lon="9.742333400934418"><ele>290.0</ele><time>2026-04-17T13:09:40Z</time></trkpt><trkpt lat="45.731729376057" lon="9.742267463195086"><ele>291.66666666666663</ele><time>2026-04-17T13:09:41Z</time></trkpt><trkpt lat="45.731640560927076" lon="9.742140105480916"><ele>293.3333333333333</ele><time>2026-04-17T13:09:43Z</time></trkpt><trkpt lat="45.73155357889553" lon="9.742019883649826"><ele>295.0</ele><time>2026-04-17T13:09:45Z</time></trkpt><trkpt lat="45.73150543765682" lon="9.74194943890538"><ele>295.0</ele><time>2026-04-17T13:09:46Z</time></trkpt><trkpt lat="45.73145633235973" lon="9.741882820371574"><ele>295.0</ele><time>2026-04-17T13:09:47Z</time></trkpt><trkpt lat="45.731374838064156" lon="9.741751134857928"><ele>295.0</ele><time>2026-04-17T13:09:49Z</time></trkpt><trkpt lat="45.731328738766955" lon="9.741682926132713"><ele>295.0</ele><time>2026-04-17T13:09:50Z</time></trkpt><trkpt lat="45.73123951566794" lon="9.741564691643989"><ele>295.0</ele><time>2026-04-17T13:09:52Z</time></trkpt><trkpt lat="45.73113742593611" lon="9.74146288518309"><ele>295.5714285714286</ele><time>2026-04-17T13:09:54Z</time></trkpt><trkpt lat="45.73108407072367" lon="9.741414426878519"><ele>296.14285714285717</ele><time>2026-04-17T13:09:55Z</time></trkpt><trkpt lat="45.731025726475224" lon="9.741373704915468"><ele>296.7142857142857</ele><time>2026-04-17T13:09:56Z</time></trkpt><trkpt lat="45.730963814830154" lon="9.74134099582089"><ele>297.28571428571433</ele><time>2026-04-17T13:09:57Z</time></trkpt><trkpt lat="45.73090206913927" lon="9.741307044857065"><ele>297.8571428571429</ele><time>2026-04-17T13:09:58Z</time></trkpt><trkpt lat="45.73082776038733" lon="9.741295278227465"><ele>298.42857142857144</ele><time>2026-04-17T13:09:59Z</time></trkpt><trkpt lat="45.73075820139198" lon="9.741261411107903"><ele>299.0</ele><time>2026-04-17T13:10:00Z</time></trkpt><trkpt lat="45.73063951531352" lon="9.741216248295146"><ele>299.0</ele><time>2026-04-17T13:10:02Z</time></trkpt><trkpt lat="45.73057617436477" lon="9.741184762829107"><ele>299.0</ele><time>2026-04-17T13:10:03Z</time></trkpt><trkpt lat="45.730517657673964" lon="9.741144001938315"><ele>299.0</ele><time>2026-04-17T13:10:04Z</time></trkpt><trkpt lat="45.730463680450704" lon="9.74109535089545"><ele>299.0</ele><time>2026-04-17T13:10:05Z</time></trkpt><trkpt lat="45.73040678112396" lon="9.741039993830485"><ele>299.0</ele><time>2026-04-17T13:10:06Z</time></trkpt><trkpt lat="45.730358880481305" lon="9.7409771085083"><ele>299.0</ele><time>2026-04-17T13:10:07Z</time></trkpt><trkpt lat="45.73031247124809" lon="9.74090903138344"><ele>299.0</ele><time>2026-04-17T13:10:08Z</time></trkpt><trkpt lat="45.73026927614141" lon="9.740841190840968"><ele>297.1666666666667</ele><time>2026-04-17T13:10:09Z</time></trkpt><trkpt lat="45.730216112471254" lon="9.740777087414743"><ele>295.33333333333337</ele><time>2026-04-17T13:10:10Z</time></trkpt><trkpt lat="45.73017208857793" lon="9.740706107514015"><ele>293.5</ele><time>2026-04-17T13:10:11Z</time></trkpt><trkpt lat="45.730121004295775" lon="9.740631693708353"><ele>291.6666666666667</ele><time>2026-04-17T13:10:12Z</time></trkpt><trkpt lat="45.73002812217237" lon="9.740497948503917"><ele>289.8333333333333</ele><time>2026-04-17T13:10:14Z</time></trkpt><trkpt lat="45.72998105249231" lon="9.740429112833155"><ele>288.0</ele><time>2026-04-17T13:10:15Z</time></trkpt><trkpt lat="45.72993291761009" lon="9.740361446515406"><ele>288.00000000000006</ele><time>2026-04-17T13:10:16Z</time></trkpt><trkpt lat="45.7298764016224" lon="9.740301106366745"><ele>288.0</ele><time>2026-04-17T13:10:17Z</time></trkpt><trkpt lat="45.729814965280966" lon="9.740244734631121"><ele>288.0</ele><time>2026-04-17T13:10:18Z</time></trkpt><trkpt lat="45.72975611950358" lon="9.74019769871658"><ele>288.0</ele><time>2026-04-17T13:10:19Z</time></trkpt><trkpt lat="45.72968920563662" lon="9.740149733624047"><ele>288.0</ele><time>2026-04-17T13:10:20Z</time></trkpt><trkpt lat="45.7296238793235" lon="9.740122748424465"><ele>288.00000000000006</ele><time>2026-04-17T13:10:21Z</time></trkpt><trkpt lat="45.72955400676364" lon="9.740095420504458"><ele>288.0</ele><time>2026-04-17T13:10:22Z</time></trkpt><trkpt lat="45.72948352027697" lon="9.740072656558313"><ele>287.28571428571433</ele><time>2026-04-17T13:10:23Z</time></trkpt><trkpt lat="45.72941342868126" lon="9.740072012767536"><ele>286.57142857142856</ele><time>2026-04-17T13:10:24Z</time></trkpt><trkpt lat="45.72933547232221" lon="9.740067175297389"><ele>285.8571428571429</ele><time>2026-04-17T13:10:25Z</time></trkpt><trkpt lat="45.72926558859118" lon="9.740066944325868"><ele>285.14285714285717</ele><time>2026-04-17T13:10:26Z</time></trkpt><trkpt lat="45.72919260143687" lon="9.740079618535116"><ele>284.42857142857144</ele><time>2026-04-17T13:10:27Z</time></trkpt><trkpt lat="45.729115856399794" lon="9.740086299549287"><ele>283.7142857142857</ele><time>2026-04-17T13:10:28Z</time></trkpt><trkpt lat="45.729042249324465" lon="9.740102125640549"><ele>283.0</ele><time>2026-04-17T13:10:29Z</time></trkpt><trkpt lat="45.72896562224234" lon="9.740103047093159"><ele>283.0</ele><time>2026-04-17T13:10:30Z</time></trkpt><trkpt lat="45.72889625335871" lon="9.740101466073702"><ele>283.0</ele><time>2026-04-17T13:10:31Z</time></trkpt><trkpt lat="45.728819041443145" lon="9.740106481998207"><ele>283.0</ele><time>2026-04-17T13:10:32Z</time></trkpt><trkpt lat="45.728745631777706" lon="9.740125292370516"><ele>283.0</ele><time>2026-04-17T13:10:33Z</time></trkpt><trkpt lat="45.72867089352802" lon="9.740141274907918"><ele>283.0</ele><time>2026-04-17T13:10:34Z</time></trkpt><trkpt lat="45.728596545869145" lon="9.740150980301317"><ele>283.0</ele><time>2026-04-17T13:10:35Z</time></trkpt><trkpt lat="45.72852632338279" lon="9.740164256257412"><ele>283.0</ele><time>2026-04-17T13:10:36Z</time></trkpt><trkpt lat="45.72845505369672" lon="9.740167226967468"><ele>282.8333333333333</ele><time>2026-04-17T13:10:37Z</time></trkpt><trkpt lat="45.72838315442768" lon="9.740173437143605"><ele>282.66666666666663</ele><time>2026-04-17T13:10:38Z</time></trkpt><trkpt lat="45.72831780179674" lon="9.740171896856781"><ele>282.5</ele><time>2026-04-17T13:10:39Z</time></trkpt><trkpt lat="45.72824747642865" lon="9.740176070139498"><ele>282.3333333333333</ele><time>2026-04-17T13:10:40Z</time></trkpt><trkpt lat="45.72812818938538" lon="9.74015661551528"><ele>282.1666666666667</ele><time>2026-04-17T13:10:42Z</time></trkpt><trkpt lat="45.728060349028176" lon="9.74016962422142"><ele>282.0</ele><time>2026-04-17T13:10:43Z</time></trkpt><trkpt lat="45.727996616785006" lon="9.740167663679957"><ele>282.0</ele><time>2026-04-17T13:10:44Z</time></trkpt><trkpt lat="45.727932973898014" lon="9.740157689936819"><ele>282.0</ele><time>2026-04-17T13:10:45Z</time></trkpt><trkpt lat="45.727860882261105" lon="9.740162144548586"><ele>282.0</ele><time>2026-04-17T13:10:46Z</time></trkpt><trkpt lat="45.72773351551752" lon="9.740143693124763"><ele>282.0</ele><time>2026-04-17T13:10:48Z</time></trkpt><trkpt lat="45.727667131294304" lon="9.740138748041055"><ele>282.0</ele><time>2026-04-17T13:10:49Z</time></trkpt><trkpt lat="45.72760397727063" lon="9.740130744076898"><ele>282.0</ele><time>2026-04-17T13:10:50Z</time></trkpt><trkpt lat="45.72753904528232" lon="9.740119436699745"><ele>282.0</ele><time>2026-04-17T13:10:51Z</time></trkpt><trkpt lat="45.72747453059332" lon="9.740109889476544"><ele>282.0</ele><time>2026-04-17T13:10:52Z</time></trkpt><trkpt lat="45.72741017922408" lon="9.740094294737572"><ele>282.0</ele><time>2026-04-17T13:10:53Z</time></trkpt><trkpt lat="45.727343483623216" lon="9.740079386367457"><ele>282.0</ele><time>2026-04-17T13:10:54Z</time></trkpt><trkpt lat="45.72728240900573" lon="9.740052847597497"><ele>282.0</ele><time>2026-04-17T13:10:55Z</time></trkpt><trkpt lat="45.72722161478704" lon="9.7400264325742"><ele>282.0</ele><time>2026-04-17T13:10:56Z</time></trkpt><trkpt lat="45.727155252809844" lon="9.739985741327443"><ele>282.0</ele><time>2026-04-17T13:10:57Z</time></trkpt><trkpt lat="45.72704386927128" lon="9.739932099292568"><ele>282.0</ele><time>2026-04-17T13:10:59Z</time></trkpt><trkpt lat="45.72697834449024" lon="9.739903969817366"><ele>282.0</ele><time>2026-04-17T13:11:00Z</time></trkpt><trkpt lat="45.72685767078566" lon="9.739844764699516"><ele>282.0</ele><time>2026-04-17T13:11:02Z</time></trkpt><trkpt lat="45.726738177678605" lon="9.739778777901822"><ele>282.0</ele><time>2026-04-17T13:11:04Z</time></trkpt><trkpt lat="45.7266206903796" lon="9.739719674292122"><ele>282.0</ele><time>2026-04-17T13:11:06Z</time></trkpt><trkpt lat="45.72655965105963" lon="9.73968994608642"><ele>282.0</ele><time>2026-04-17T13:11:07Z</time></trkpt><trkpt lat="45.726494256748495" lon="9.739657115738705"><ele>282.0</ele><time>2026-04-17T13:11:08Z</time></trkpt><trkpt lat="45.726381787454606" lon="9.739585781607923"><ele>282.0</ele><time>2026-04-17T13:11:10Z</time></trkpt><trkpt lat="45.72631696968612" lon="9.7395438432213"><ele>282.0</ele><time>2026-04-17T13:11:11Z</time></trkpt><trkpt lat="45.72620403130244" lon="9.739463818323486"><ele>282.0</ele><time>2026-04-17T13:11:13Z</time></trkpt><trkpt lat="45.72614579345668" lon="9.739408711593116"><ele>282.2</ele><time>2026-04-17T13:11:14Z</time></trkpt><trkpt lat="45.72603958035245" lon="9.739306368010531"><ele>282.4</ele><time>2026-04-17T13:11:16Z</time></trkpt><trkpt lat="45.72598748646988" lon="9.739253771869231"><ele>282.6</ele><time>2026-04-17T13:11:17Z</time></trkpt><trkpt lat="45.72593388330238" lon="9.73920056015152"><ele>282.8</ele><time>2026-04-17T13:11:18Z</time></trkpt><trkpt lat="45.72588209053963" lon="9.739145059415975"><ele>283.0</ele><time>2026-04-17T13:11:19Z</time></trkpt><trkpt lat="45.72577985597575" lon="9.739032222916958"><ele>283.0</ele><time>2026-04-17T13:11:21Z</time></trkpt><trkpt lat="45.7257352938837" lon="9.738964377623311"><ele>283.0</ele><time>2026-04-17T13:11:22Z</time></trkpt><trkpt lat="45.72564673761252" lon="9.738839924471199"><ele>283.0</ele><time>2026-04-17T13:11:24Z</time></trkpt><trkpt lat="45.72559973095914" lon="9.738776283817407"><ele>283.0</ele><time>2026-04-17T13:11:25Z</time></trkpt><trkpt lat="45.725549229526756" lon="9.738722408272956"><ele>283.0</ele><time>2026-04-17T13:11:26Z</time></trkpt><trkpt lat="45.72549629482634" lon="9.738668182141751"><ele>283.0</ele><time>2026-04-17T13:11:27Z</time></trkpt><trkpt lat="45.725438709816416" lon="9.738625312547125"><ele>283.0</ele><time>2026-04-17T13:11:28Z</time></trkpt><trkpt lat="45.72537846689042" lon="9.73858935506116"><ele>283.0</ele><time>2026-04-17T13:11:29Z</time></trkpt><trkpt lat="45.72531545554917" lon="9.738558296626667"><ele>283.0</ele><time>2026-04-17T13:11:30Z</time></trkpt><trkpt lat="45.72525520600197" lon="9.738530567316891"><ele>283.0</ele><time>2026-04-17T13:11:31Z</time></trkpt><trkpt lat="45.72519501802475" lon="9.738502171835083"><ele>283.0</ele><time>2026-04-17T13:11:32Z</time></trkpt><trkpt lat="45.72513320641311" lon="9.738475039378878"><ele>283.0</ele><time>2026-04-17T13:11:33Z</time></trkpt><trkpt lat="45.72506921448015" lon="9.738438113314254"><ele>283.0</ele><time>2026-04-17T13:11:34Z</time></trkpt><trkpt lat="45.724948791777926" lon="9.738379182022943"><ele>282.7142857142857</ele><time>2026-04-17T13:11:36Z</time></trkpt><trkpt lat="45.7248868106216" lon="9.738350885704026"><ele>282.42857142857144</ele><time>2026-04-17T13:11:37Z</time></trkpt><trkpt lat="45.72476693310851" lon="9.738293405746257"><ele>282.14285714285717</ele><time>2026-04-17T13:11:39Z</time></trkpt><trkpt lat="45.72471083758262" lon="9.73824848802803"><ele>281.8571428571429</ele><time>2026-04-17T13:11:40Z</time></trkpt><trkpt lat="45.72465669483301" lon="9.73819976750584"><ele>281.57142857142856</ele><time>2026-04-17T13:11:41Z</time></trkpt><trkpt lat="45.7246050760048" lon="9.738143149495833"><ele>281.28571428571433</ele><time>2026-04-17T13:11:42Z</time></trkpt><trkpt lat="45.72455392320772" lon="9.738087672915043"><ele>281.0</ele><time>2026-04-17T13:11:43Z</time></trkpt><trkpt lat="45.724502969752876" lon="9.738027816564445"><ele>281.00000000000006</ele><time>2026-04-17T13:11:44Z</time></trkpt><trkpt lat="45.72445404433889" lon="9.737969496585151"><ele>281.0</ele><time>2026-04-17T13:11:45Z</time></trkpt><trkpt lat="45.724404671352275" lon="9.737911963514874"><ele>281.0</ele><time>2026-04-17T13:11:46Z</time></trkpt><trkpt lat="45.724355144098624" lon="9.737850101266972"><ele>281.0</ele><time>2026-04-17T13:11:47Z</time></trkpt><trkpt lat="45.72430409635666" lon="9.737794085089734"><ele>281.0</ele><time>2026-04-17T13:11:48Z</time></trkpt><trkpt lat="45.72425821072604" lon="9.737725237070986"><ele>281.00000000000006</ele><time>2026-04-17T13:11:49Z</time></trkpt><trkpt lat="45.7242171592323" lon="9.737654219303577"><ele>281.0</ele><time>2026-04-17T13:11:50Z</time></trkpt><trkpt lat="45.724177789403385" lon="9.73758007839082"><ele>281.0</ele><time>2026-04-17T13:11:51Z</time></trkpt><trkpt lat="45.72413830818529" lon="9.737505922209952"><ele>281.0</ele><time>2026-04-17T13:11:52Z</time></trkpt><trkpt lat="45.724098651472254" lon="9.737425384063016"><ele>281.0</ele><time>2026-04-17T13:11:53Z</time></trkpt><trkpt lat="45.724071298576575" lon="9.737342392944946"><ele>281.0</ele><time>2026-04-17T13:11:54Z</time></trkpt><trkpt lat="45.72403804848875" lon="9.737260507805793"><ele>281.0</ele><time>2026-04-17T13:11:55Z</time></trkpt><trkpt lat="45.7239767104466" lon="9.737100791104043"><ele>281.0</ele><time>2026-04-17T13:11:57Z</time></trkpt><trkpt lat="45.72394420336407" lon="9.737020883647036"><ele>280.40000000000003</ele><time>2026-04-17T13:11:58Z</time></trkpt><trkpt lat="45.7238821055183" lon="9.736867700624213"><ele>279.8</ele><time>2026-04-17T13:12:00Z</time></trkpt><trkpt lat="45.72382823074952" lon="9.73671283881079"><ele>279.20000000000005</ele><time>2026-04-17T13:12:02Z</time></trkpt><trkpt lat="45.72377009397056" lon="9.736556827379525"><ele>278.6</ele><time>2026-04-17T13:12:04Z</time></trkpt><trkpt lat="45.72373486183047" lon="9.736479862531224"><ele>278.0</ele><time>2026-04-17T13:12:05Z</time></trkpt><trkpt lat="45.723709448857754" lon="9.736396322530702"><ele>278.0</ele><time>2026-04-17T13:12:06Z</time></trkpt><trkpt lat="45.72367506988448" lon="9.736315319012215"><ele>278.0</ele><time>2026-04-17T13:12:07Z</time></trkpt><trkpt lat="45.72364315448543" lon="9.736234195641224"><ele>278.0</ele><time>2026-04-17T13:12:08Z</time></trkpt><trkpt lat="45.723607725879724" lon="9.736154941383415"><ele>278.0</ele><time>2026-04-17T13:12:09Z</time></trkpt><trkpt lat="45.72356834860734" lon="9.736080933751238"><ele>278.0</ele><time>2026-04-17T13:12:10Z</time></trkpt><trkpt lat="45.72352186973328" lon="9.736008466846583"><ele>278.0</ele><time>2026-04-17T13:12:11Z</time></trkpt><trkpt lat="45.723430810689166" lon="9.735866883366166"><ele>278.0</ele><time>2026-04-17T13:12:13Z</time></trkpt><trkpt lat="45.723340881470406" lon="9.735737595541876"><ele>278.0</ele><time>2026-04-17T13:12:15Z</time></trkpt><trkpt lat="45.723295673417084" lon="9.735673263595125"><ele>278.0</ele><time>2026-04-17T13:12:16Z</time></trkpt><trkpt lat="45.72324613782663" lon="9.735607359326375"><ele>278.0</ele><time>2026-04-17T13:12:17Z</time></trkpt><trkpt lat="45.72315116684773" lon="9.735471783365853"><ele>278.0</ele><time>2026-04-17T13:12:19Z</time></trkpt><trkpt lat="45.72307318816912" lon="9.735339470215914"><ele>277.83333333333337</ele><time>2026-04-17T13:12:21Z</time></trkpt><trkpt lat="45.723006314694054" lon="9.735186544801545"><ele>277.6666666666667</ele><time>2026-04-17T13:12:23Z</time></trkpt><trkpt lat="45.722969726237835" lon="9.735111455200835"><ele>277.5</ele><time>2026-04-17T13:12:24Z</time></trkpt><trkpt lat="45.72291777830336" lon="9.735050819481659"><ele>277.3333333333333</ele><time>2026-04-17T13:12:25Z</time></trkpt><trkpt lat="45.722861639232896" lon="9.735000573826147"><ele>277.16666666666663</ele><time>2026-04-17T13:12:26Z</time></trkpt><trkpt lat="45.72276421809615" lon="9.734887628492354"><ele>277.0</ele><time>2026-04-17T13:12:28Z</time></trkpt><trkpt lat="45.722722571328504" lon="9.734815966118848"><ele>277.4</ele><time>2026-04-17T13:12:29Z</time></trkpt><trkpt lat="45.72265227644896" lon="9.734663719832172"><ele>277.79999999999995</ele><time>2026-04-17T13:12:31Z</time></trkpt><trkpt lat="45.7226181503196" lon="9.734585771976919"><ele>278.2</ele><time>2026-04-17T13:12:32Z</time></trkpt><trkpt lat="45.722552063329594" lon="9.734430991419462"><ele>278.59999999999997</ele><time>2026-04-17T13:12:34Z</time></trkpt><trkpt lat="45.722484798326235" lon="9.734280194227328"><ele>279.0</ele><time>2026-04-17T13:12:36Z</time></trkpt><trkpt lat="45.722455799102406" lon="9.734198417764036"><ele>279.0</ele><time>2026-04-17T13:12:37Z</time></trkpt><trkpt lat="45.72241816428306" lon="9.73412432695675"><ele>279.0</ele><time>2026-04-17T13:12:38Z</time></trkpt><trkpt lat="45.72238499590001" lon="9.734041933770891"><ele>279.0</ele><time>2026-04-17T13:12:39Z</time></trkpt><trkpt lat="45.72232296974114" lon="9.733883662725354"><ele>279.0</ele><time>2026-04-17T13:12:41Z</time></trkpt><trkpt lat="45.72225296699367" lon="9.733735011735874"><ele>279.0</ele><time>2026-04-17T13:12:43Z</time></trkpt><trkpt lat="45.722220370907145" lon="9.733655682203244"><ele>279.0</ele><time>2026-04-17T13:12:44Z</time></trkpt><trkpt lat="45.72218397614423" lon="9.733575882475408"><ele>278.4</ele><time>2026-04-17T13:12:45Z</time></trkpt><trkpt lat="45.72214999334735" lon="9.733490805186628"><ele>277.79999999999995</ele><time>2026-04-17T13:12:46Z</time></trkpt><trkpt lat="45.722101797137206" lon="9.733317430932178"><ele>277.20000000000005</ele><time>2026-04-17T13:12:48Z</time></trkpt><trkpt lat="45.722075481721006" lon="9.733145751784015"><ele>276.6</ele><time>2026-04-17T13:12:50Z</time></trkpt><trkpt lat="45.72205267266887" lon="9.733052625918619"><ele>276.0</ele><time>2026-04-17T13:12:51Z</time></trkpt><trkpt lat="45.72203058157698" lon="9.732960107514227"><ele>276.0</ele><time>2026-04-17T13:12:52Z</time></trkpt><trkpt lat="45.7219967645435" lon="9.73287758962737"><ele>276.0</ele><time>2026-04-17T13:12:53Z</time></trkpt><trkpt lat="45.72192834642303" lon="9.732758921345015"><ele>276.0</ele><time>2026-04-17T13:12:55Z</time></trkpt><trkpt lat="45.7218638540455" lon="9.73271091021294"><ele>276.0</ele><time>2026-04-17T13:12:56Z</time></trkpt><trkpt lat="45.72178665756595" lon="9.73266778260948"><ele>276.0</ele><time>2026-04-17T13:12:57Z</time></trkpt><trkpt lat="45.721735869651006" lon="9.732605891519317"><ele>276.0</ele><time>2026-04-17T13:12:58Z</time></trkpt><trkpt lat="45.72169002417485" lon="9.732542422325483"><ele>276.14285714285717</ele><time>2026-04-17T13:12:59Z</time></trkpt><trkpt lat="45.721639415064125" lon="9.732476306697116"><ele>276.28571428571433</ele><time>2026-04-17T13:13:00Z</time></trkpt><trkpt lat="45.72157366257356" lon="9.732425230100082"><ele>276.42857142857144</ele><time>2026-04-17T13:13:01Z</time></trkpt><trkpt lat="45.721533797782186" lon="9.732348772108512"><ele>276.57142857142856</ele><time>2026-04-17T13:13:02Z</time></trkpt><trkpt lat="45.72149829105391" lon="9.732268311377185"><ele>276.71428571428567</ele><time>2026-04-17T13:13:03Z</time></trkpt><trkpt lat="45.72145149779848" lon="9.73219749372138"><ele>276.85714285714283</ele><time>2026-04-17T13:13:04Z</time></trkpt><trkpt lat="45.7214104585656" lon="9.732111461247953"><ele>277.0</ele><time>2026-04-17T13:13:05Z</time></trkpt><trkpt lat="45.72140936428097" lon="9.732020746801021"><ele>277.0</ele><time>2026-04-17T13:13:06Z</time></trkpt><trkpt lat="45.721414517651" lon="9.731926270051549"><ele>277.0</ele><time>2026-04-17T13:13:07Z</time></trkpt><trkpt lat="45.72142747409933" lon="9.731833605442686"><ele>277.0</ele><time>2026-04-17T13:13:08Z</time></trkpt><trkpt lat="45.72144278131786" lon="9.73174516427383"><ele>277.0</ele><time>2026-04-17T13:13:09Z</time></trkpt><trkpt lat="45.72145098170027" lon="9.73165422661852"><ele>277.0</ele><time>2026-04-17T13:13:10Z</time></trkpt><trkpt lat="45.72145517673016" lon="9.731560480612389"><ele>277.0</ele><time>2026-04-17T13:13:11Z</time></trkpt><trkpt lat="45.72145390020909" lon="9.731469465640432"><ele>277.0</ele><time>2026-04-17T13:13:12Z</time></trkpt><trkpt lat="45.72144509822354" lon="9.731370203995084"><ele>276.57142857142856</ele><time>2026-04-17T13:13:13Z</time></trkpt><trkpt lat="45.72145455172758" lon="9.731273539626201"><ele>276.1428571428571</ele><time>2026-04-17T13:13:14Z</time></trkpt><trkpt lat="45.72145394598087" lon="9.7311771787387"><ele>275.7142857142857</ele><time>2026-04-17T13:13:15Z</time></trkpt><trkpt lat="45.72146226692114" lon="9.731080025003331"><ele>275.2857142857143</ele><time>2026-04-17T13:13:16Z</time></trkpt><trkpt lat="45.72146544013493" lon="9.730980755938608"><ele>274.8571428571429</ele><time>2026-04-17T13:13:17Z</time></trkpt><trkpt lat="45.72146926484446" lon="9.730873816821347"><ele>274.42857142857144</ele><time>2026-04-17T13:13:18Z</time></trkpt><trkpt lat="45.72147504939727" lon="9.730775350079517"><ele>274.0</ele><time>2026-04-17T13:13:19Z</time></trkpt><trkpt lat="45.7214851898137" lon="9.730668711550223"><ele>273.3333333333333</ele><time>2026-04-17T13:13:20Z</time></trkpt><trkpt lat="45.72149438729912" lon="9.73056689613369"><ele>272.66666666666663</ele><time>2026-04-17T13:13:21Z</time></trkpt><trkpt lat="45.7215084296155" lon="9.730462494635013"><ele>272.0</ele><time>2026-04-17T13:13:22Z</time></trkpt><trkpt lat="45.72152408036822" lon="9.73035525761519"><ele>271.3333333333333</ele><time>2026-04-17T13:13:23Z</time></trkpt><trkpt lat="45.7215579660553" lon="9.730257447988729"><ele>270.6666666666667</ele><time>2026-04-17T13:13:24Z</time></trkpt><trkpt lat="45.72159709282527" lon="9.730163095098755"><ele>270.0</ele><time>2026-04-17T13:13:25Z</time></trkpt><trkpt lat="45.72165262276726" lon="9.730089798322291"><ele>270.0</ele><time>2026-04-17T13:13:26Z</time></trkpt><trkpt lat="45.72170331906462" lon="9.730029722248132"><ele>270.0</ele><time>2026-04-17T13:13:27Z</time></trkpt><trkpt lat="45.721774363955625" lon="9.72995886429613"><ele>270.0</ele><time>2026-04-17T13:13:28Z</time></trkpt><trkpt lat="45.72183499160693" lon="9.729898061931861"><ele>270.0</ele><time>2026-04-17T13:13:29Z</time></trkpt><trkpt lat="45.72188378626523" lon="9.729823404890256"><ele>270.0</ele><time>2026-04-17T13:13:30Z</time></trkpt><trkpt lat="45.72195067450955" lon="9.729750105902326"><ele>270.0</ele><time>2026-04-17T13:13:31Z</time></trkpt><trkpt lat="45.722008593373694" lon="9.729706542320313"><ele>270.0</ele><time>2026-04-17T13:13:32Z</time></trkpt><trkpt lat="45.72206990316228" lon="9.729659443594313"><ele>270.0</ele><time>2026-04-17T13:13:33Z</time></trkpt><trkpt lat="45.72213184427294" lon="9.729610298519813"><ele>270.0</ele><time>2026-04-17T13:13:34Z</time></trkpt><trkpt lat="45.72223450651482" lon="9.729506695593686"><ele>270.0</ele><time>2026-04-17T13:13:36Z</time></trkpt><trkpt lat="45.72233072989687" lon="9.729404590346421"><ele>270.0</ele><time>2026-04-17T13:13:38Z</time></trkpt><trkpt lat="45.722365009400896" lon="9.729328720974706"><ele>270.0</ele><time>2026-04-17T13:13:39Z</time></trkpt><trkpt lat="45.7223512472472" lon="9.729238108283258"><ele>270.0</ele><time>2026-04-17T13:13:40Z</time></trkpt><trkpt lat="45.72230437729968" lon="9.72916257153503"><ele>270.0</ele><time>2026-04-17T13:13:41Z</time></trkpt><trkpt lat="45.72223600032556" lon="9.72912534616136"><ele>270.0</ele><time>2026-04-17T13:13:42Z</time></trkpt><trkpt lat="45.722161188014056" lon="9.729120219705191"><ele>270.0</ele><time>2026-04-17T13:13:43Z</time></trkpt><trkpt lat="45.72209690607481" lon="9.729099964554184"><ele>270.0</ele><time>2026-04-17T13:13:44Z</time></trkpt><trkpt lat="45.722036076992474" lon="9.729062434930754"><ele>270.0</ele><time>2026-04-17T13:13:45Z</time></trkpt><trkpt lat="45.72197697130699" lon="9.72901766089594"><ele>270.0</ele><time>2026-04-17T13:13:46Z</time></trkpt><trkpt lat="45.72192740412223" lon="9.72895749325154"><ele>270.0</ele><time>2026-04-17T13:13:47Z</time></trkpt><trkpt lat="45.721873744407745" lon="9.728906019896538"><ele>269.8333333333333</ele><time>2026-04-17T13:13:48Z</time></trkpt><trkpt lat="45.72181390839462" lon="9.728862352250465"><ele>269.6666666666667</ele><time>2026-04-17T13:13:49Z</time></trkpt><trkpt lat="45.72175443845484" lon="9.728813541694468"><ele>269.5</ele><time>2026-04-17T13:13:50Z</time></trkpt><trkpt lat="45.72169752362653" lon="9.728764224757821"><ele>269.33333333333337</ele><time>2026-04-17T13:13:51Z</time></trkpt><trkpt lat="45.72163983731751" lon="9.728714568709313"><ele>269.1666666666667</ele><time>2026-04-17T13:13:52Z</time></trkpt><trkpt lat="45.72153062071674" lon="9.728619694958923"><ele>269.0</ele><time>2026-04-17T13:13:54Z</time></trkpt><trkpt lat="45.72147294434775" lon="9.728570208878692"><ele>269.0</ele><time>2026-04-17T13:13:55Z</time></trkpt><trkpt lat="45.72141437698228" lon="9.728525647847624"><ele>269.0</ele><time>2026-04-17T13:13:56Z</time></trkpt><trkpt lat="45.72130175547764" lon="9.728437313129392"><ele>269.0</ele><time>2026-04-17T13:13:58Z</time></trkpt><trkpt lat="45.72118333730082" lon="9.728372230535532"><ele>269.0</ele><time>2026-04-17T13:14:00Z</time></trkpt><trkpt lat="45.72112463308188" lon="9.728338074828189"><ele>269.0</ele><time>2026-04-17T13:14:01Z</time></trkpt><trkpt lat="45.72100460273386" lon="9.728287975317482"><ele>269.0</ele><time>2026-04-17T13:14:03Z</time></trkpt><trkpt lat="45.72094188612335" lon="9.728266018349625"><ele>269.0</ele><time>2026-04-17T13:14:04Z</time></trkpt><trkpt lat="45.72087706982139" lon="9.72824677857795"><ele>269.0</ele><time>2026-04-17T13:14:05Z</time></trkpt><trkpt lat="45.72081445350967" lon="9.728235198928058"><ele>269.0</ele><time>2026-04-17T13:14:06Z</time></trkpt><trkpt lat="45.72074965605365" lon="9.728223595206716"><ele>269.0</ele><time>2026-04-17T13:14:07Z</time></trkpt><trkpt lat="45.720625434879736" lon="9.728200901778836"><ele>269.0</ele><time>2026-04-17T13:14:09Z</time></trkpt><trkpt lat="45.72056126661231" lon="9.728188402344966"><ele>269.0</ele><time>2026-04-17T13:14:10Z</time></trkpt><trkpt lat="45.720494366076814" lon="9.728181675047392"><ele>269.0</ele><time>2026-04-17T13:14:11Z</time></trkpt><trkpt lat="45.72036958898224" lon="9.728156926404226"><ele>269.0</ele><time>2026-04-17T13:14:13Z</time></trkpt><trkpt lat="45.72030441810727" lon="9.728138836504195"><ele>269.0</ele><time>2026-04-17T13:14:14Z</time></trkpt><trkpt lat="45.72024065173544" lon="9.728132634709233"><ele>269.0</ele><time>2026-04-17T13:14:15Z</time></trkpt><trkpt lat="45.720177356633044" lon="9.728128435210271"><ele>269.0</ele><time>2026-04-17T13:14:16Z</time></trkpt><trkpt lat="45.720112192273746" lon="9.728119535856806"><ele>269.0</ele><time>2026-04-17T13:14:17Z</time></trkpt><trkpt lat="45.720044532131205" lon="9.728099500877534"><ele>268.8</ele><time>2026-04-17T13:14:18Z</time></trkpt><trkpt lat="45.71998241152189" lon="9.728080224902941"><ele>268.59999999999997</ele><time>2026-04-17T13:14:19Z</time></trkpt><trkpt lat="45.71984899908629" lon="9.728066005285067"><ele>268.4</ele><time>2026-04-17T13:14:21Z</time></trkpt><trkpt lat="45.71972500959254" lon="9.728062464019311"><ele>268.2</ele><time>2026-04-17T13:14:23Z</time></trkpt><trkpt lat="45.71965996577316" lon="9.728055296898383"><ele>268.0</ele><time>2026-04-17T13:14:24Z</time></trkpt><trkpt lat="45.71959677063221" lon="9.72805784004927"><ele>268.0</ele><time>2026-04-17T13:14:25Z</time></trkpt><trkpt lat="45.71953095885172" lon="9.728066056094583"><ele>268.0</ele><time>2026-04-17T13:14:26Z</time></trkpt><trkpt lat="45.71946244539812" lon="9.728063237401228"><ele>268.0</ele><time>2026-04-17T13:14:27Z</time></trkpt><trkpt lat="45.719399913942645" lon="9.728094000355103"><ele>268.0</ele><time>2026-04-17T13:14:28Z</time></trkpt><trkpt lat="45.7193361754069" lon="9.728098796790873"><ele>268.0</ele><time>2026-04-17T13:14:29Z</time></trkpt><trkpt lat="45.71926896344972" lon="9.728109597025052"><ele>268.0</ele><time>2026-04-17T13:14:30Z</time></trkpt><trkpt lat="45.71914114199225" lon="9.728136892384407"><ele>268.14285714285717</ele><time>2026-04-17T13:14:32Z</time></trkpt><trkpt lat="45.71907802236568" lon="9.728150215797656"><ele>268.2857142857143</ele><time>2026-04-17T13:14:33Z</time></trkpt><trkpt lat="45.719014358966604" lon="9.728163448064938"><ele>268.42857142857144</ele><time>2026-04-17T13:14:34Z</time></trkpt><trkpt lat="45.71894926525912" lon="9.72817376806531"><ele>268.57142857142856</ele><time>2026-04-17T13:14:35Z</time></trkpt><trkpt lat="45.718885010589574" lon="9.72819702844364"><ele>268.7142857142857</ele><time>2026-04-17T13:14:36Z</time></trkpt><trkpt lat="45.7188192068716" lon="9.72820633726633"><ele>268.8571428571429</ele><time>2026-04-17T13:14:37Z</time></trkpt><trkpt lat="45.71875697361846" lon="9.728221594354277"><ele>269.0</ele><time>2026-04-17T13:14:38Z</time></trkpt><trkpt lat="45.718692791742896" lon="9.728239821911442"><ele>269.0</ele><time>2026-04-17T13:14:39Z</time></trkpt><trkpt lat="45.718627505978986" lon="9.728253802245135"><ele>269.0</ele><time>2026-04-17T13:14:40Z</time></trkpt><trkpt lat="45.71856362589325" lon="9.728266434504885"><ele>269.0</ele><time>2026-04-17T13:14:41Z</time></trkpt><trkpt lat="45.71849996691599" lon="9.728280237041586"><ele>269.0</ele><time>2026-04-17T13:14:42Z</time></trkpt><trkpt lat="45.71843551905543" lon="9.728294384366365"><ele>269.0</ele><time>2026-04-17T13:14:43Z</time></trkpt><trkpt lat="45.71837140144413" lon="9.728305360354257"><ele>269.0</ele><time>2026-04-17T13:14:44Z</time></trkpt><trkpt lat="45.71830731351696" lon="9.72831690473025"><ele>269.0</ele><time>2026-04-17T13:14:45Z</time></trkpt><trkpt lat="45.71824242394244" lon="9.728330712981624"><ele>269.0</ele><time>2026-04-17T13:14:46Z</time></trkpt><trkpt lat="45.71817814828257" lon="9.728340226923049"><ele>269.0</ele><time>2026-04-17T13:14:47Z</time></trkpt><trkpt lat="45.718115279007975" lon="9.728348232453143"><ele>269.0</ele><time>2026-04-17T13:14:48Z</time></trkpt><trkpt lat="45.71804819179064" lon="9.728354330730834"><ele>269.0</ele><time>2026-04-17T13:14:49Z</time></trkpt><trkpt lat="45.717985033194246" lon="9.728357215357871"><ele>269.0</ele><time>2026-04-17T13:14:50Z</time></trkpt><trkpt lat="45.7179219318108" lon="9.728356172145684"><ele>269.0</ele><time>2026-04-17T13:14:51Z</time></trkpt><trkpt lat="45.71785588107637" lon="9.728350859633487"><ele>269.0</ele><time>2026-04-17T13:14:52Z</time></trkpt><trkpt lat="45.71779168266442" lon="9.728344851901515"><ele>269.0</ele><time>2026-04-17T13:14:53Z</time></trkpt><trkpt lat="45.71772775360336" lon="9.728333728693867"><ele>269.0</ele><time>2026-04-17T13:14:54Z</time></trkpt><trkpt lat="45.71766228750922" lon="9.728322581404516"><ele>269.0</ele><time>2026-04-17T13:14:55Z</time></trkpt><trkpt lat="45.71753562410688" lon="9.728300542549652"><ele>269.0</ele><time>2026-04-17T13:14:57Z</time></trkpt><trkpt lat="45.717411323467495" lon="9.72828065389988"><ele>269.0</ele><time>2026-04-17T13:14:59Z</time></trkpt><trkpt lat="45.717345194643755" lon="9.728267681671293"><ele>269.0</ele><time>2026-04-17T13:15:00Z</time></trkpt><trkpt lat="45.717282622883914" lon="9.728253832663851"><ele>269.0</ele><time>2026-04-17T13:15:01Z</time></trkpt><trkpt lat="45.717217389367605" lon="9.72824840018871"><ele>269.0</ele><time>2026-04-17T13:15:02Z</time></trkpt><trkpt lat="45.71715364364488" lon="9.728235386255857"><ele>269.0</ele><time>2026-04-17T13:15:03Z</time></trkpt><trkpt lat="45.717086789697376" lon="9.728226490992995"><ele>269.0</ele><time>2026-04-17T13:15:04Z</time></trkpt><trkpt lat="45.71702267088328" lon="9.72821717662777"><ele>269.0</ele><time>2026-04-17T13:15:05Z</time></trkpt><trkpt lat="45.71695724763626" lon="9.72820551045081"><ele>269.0</ele><time>2026-04-17T13:15:06Z</time></trkpt><trkpt lat="45.71689147779237" lon="9.728194727631148"><ele>269.33333333333337</ele><time>2026-04-17T13:15:07Z</time></trkpt><trkpt lat="45.71682729514801" lon="9.728188254798432"><ele>269.6666666666667</ele><time>2026-04-17T13:15:08Z</time></trkpt><trkpt lat="45.71676178774457" lon="9.728181905421499"><ele>270.0</ele><time>2026-04-17T13:15:09Z</time></trkpt><trkpt lat="45.71663019442349" lon="9.728166919311617"><ele>270.3333333333333</ele><time>2026-04-17T13:15:11Z</time></trkpt><trkpt lat="45.71656633680162" lon="9.728161733337862"><ele>270.66666666666663</ele><time>2026-04-17T13:15:12Z</time></trkpt><trkpt lat="45.716500408128105" lon="9.728160641100455"><ele>271.0</ele><time>2026-04-17T13:15:13Z</time></trkpt><trkpt lat="45.71643644114271" lon="9.728154289698475"><ele>271.0</ele><time>2026-04-17T13:15:14Z</time></trkpt><trkpt lat="45.71636963542875" lon="9.728149747872758"><ele>271.0</ele><time>2026-04-17T13:15:15Z</time></trkpt><trkpt lat="45.71630499022691" lon="9.72814457856293"><ele>271.0</ele><time>2026-04-17T13:15:16Z</time></trkpt><trkpt lat="45.71623961708367" lon="9.728141728452572"><ele>271.0</ele><time>2026-04-17T13:15:17Z</time></trkpt><trkpt lat="45.71617538633241" lon="9.728139948301248"><ele>271.0</ele><time>2026-04-17T13:15:18Z</time></trkpt><trkpt lat="45.71611097720282" lon="9.72814047864341"><ele>271.0</ele><time>2026-04-17T13:15:19Z</time></trkpt><trkpt lat="45.716045206234085" lon="9.728130207346815"><ele>271.0</ele><time>2026-04-17T13:15:20Z</time></trkpt><trkpt lat="45.71591563494734" lon="9.72812398427886"><ele>270.75</ele><time>2026-04-17T13:15:22Z</time></trkpt><trkpt lat="45.71585169381918" lon="9.72811449918602"><ele>270.5</ele><time>2026-04-17T13:15:23Z</time></trkpt><trkpt lat="45.71578782981308" lon="9.728106220364632"><ele>270.25</ele><time>2026-04-17T13:15:24Z</time></trkpt><trkpt lat="45.71572364245841" lon="9.728096310070615"><ele>270.0</ele><time>2026-04-17T13:15:25Z</time></trkpt><trkpt lat="45.7156594079445" lon="9.728083171841138"><ele>269.75</ele><time>2026-04-17T13:15:26Z</time></trkpt><trkpt lat="45.715596109293564" lon="9.728073083101307"><ele>269.5</ele><time>2026-04-17T13:15:27Z</time></trkpt><trkpt lat="45.7155333575593" lon="9.7280570625532"><ele>269.25</ele><time>2026-04-17T13:15:28Z</time></trkpt><trkpt lat="45.71547108506785" lon="9.728042921522025"><ele>269.0</ele><time>2026-04-17T13:15:29Z</time></trkpt><trkpt lat="45.715408115472655" lon="9.72802296514614"><ele>269.0</ele><time>2026-04-17T13:15:30Z</time></trkpt><trkpt lat="45.71528971798687" lon="9.727986245630861"><ele>269.0</ele><time>2026-04-17T13:15:32Z</time></trkpt><trkpt lat="45.715226243380535" lon="9.72797342867117"><ele>269.0</ele><time>2026-04-17T13:15:33Z</time></trkpt><trkpt lat="45.715163035674514" lon="9.72795513824004"><ele>269.0</ele><time>2026-04-17T13:15:34Z</time></trkpt><trkpt lat="45.71509834778634" lon="9.727942256388777"><ele>269.0</ele><time>2026-04-17T13:15:35Z</time></trkpt><trkpt lat="45.71497005374369" lon="9.727908967421651"><ele>269.0</ele><time>2026-04-17T13:15:37Z</time></trkpt><trkpt lat="45.71484670040053" lon="9.727869079251862"><ele>268.59999999999997</ele><time>2026-04-17T13:15:39Z</time></trkpt><trkpt lat="45.714781121566055" lon="9.727849648305407"><ele>268.2</ele><time>2026-04-17T13:15:40Z</time></trkpt><trkpt lat="45.71471801044394" lon="9.727827017254768"><ele>267.79999999999995</ele><time>2026-04-17T13:15:41Z</time></trkpt><trkpt lat="45.714597642872825" lon="9.727779099490714"><ele>267.4</ele><time>2026-04-17T13:15:43Z</time></trkpt><trkpt lat="45.71452655171209" lon="9.727751544207212"><ele>267.0</ele><time>2026-04-17T13:15:44Z</time></trkpt><trkpt lat="45.714408960231246" lon="9.727697435123972"><ele>267.4</ele><time>2026-04-17T13:15:46Z</time></trkpt><trkpt lat="45.714287003923616" lon="9.727644045713841"><ele>267.79999999999995</ele><time>2026-04-17T13:15:48Z</time></trkpt><trkpt lat="45.71422189742979" lon="9.727623693130884"><ele>268.2</ele><time>2026-04-17T13:15:49Z</time></trkpt><trkpt lat="45.71409530413361" lon="9.72759447617298"><ele>268.59999999999997</ele><time>2026-04-17T13:15:51Z</time></trkpt><trkpt lat="45.714028891411026" lon="9.727588689740204"><ele>269.0</ele><time>2026-04-17T13:15:52Z</time></trkpt><trkpt lat="45.713963402111084" lon="9.727584638739346"><ele>269.0</ele><time>2026-04-17T13:15:53Z</time></trkpt><trkpt lat="45.71390038446366" lon="9.727578792478864"><ele>269.0</ele><time>2026-04-17T13:15:54Z</time></trkpt><trkpt lat="45.71383344835196" lon="9.727581825074958"><ele>269.0</ele><time>2026-04-17T13:15:55Z</time></trkpt><trkpt lat="45.71370801817775" lon="9.727565699347664"><ele>269.0</ele><time>2026-04-17T13:15:57Z</time></trkpt><trkpt lat="45.713642553981884" lon="9.727561645655905"><ele>269.0</ele><time>2026-04-17T13:15:58Z</time></trkpt><trkpt lat="45.713577843682884" lon="9.727558104433438"><ele>269.0</ele><time>2026-04-17T13:15:59Z</time></trkpt><trkpt lat="45.71351463354125" lon="9.727556080257019"><ele>269.0</ele><time>2026-04-17T13:16:00Z</time></trkpt><trkpt lat="45.71345137460383" lon="9.72755498658235"><ele>269.0</ele><time>2026-04-17T13:16:01Z</time></trkpt><trkpt lat="45.71333165280109" lon="9.727558005689144"><ele>269.0</ele><time>2026-04-17T13:16:03Z</time></trkpt><trkpt lat="45.71321117450328" lon="9.727572650861529"><ele>269.0</ele><time>2026-04-17T13:16:05Z</time></trkpt><trkpt lat="45.71314633934767" lon="9.727588258461795"><ele>269.0</ele><time>2026-04-17T13:16:06Z</time></trkpt><trkpt lat="45.713020777039446" lon="9.727591940508082"><ele>269.0</ele><time>2026-04-17T13:16:08Z</time></trkpt><trkpt lat="45.71295497876451" lon="9.727576621230154"><ele>269.0</ele><time>2026-04-17T13:16:09Z</time></trkpt><trkpt lat="45.71289081185738" lon="9.727570885195647"><ele>269.0</ele><time>2026-04-17T13:16:10Z</time></trkpt><trkpt lat="45.712826014801074" lon="9.727581113099612"><ele>269.0</ele><time>2026-04-17T13:16:11Z</time></trkpt><trkpt lat="45.71270588829553" lon="9.72763293963386"><ele>269.0</ele><time>2026-04-17T13:16:13Z</time></trkpt><trkpt lat="45.71264253547397" lon="9.72764364228331"><ele>269.0</ele><time>2026-04-17T13:16:14Z</time></trkpt><trkpt lat="45.712516277303166" lon="9.727626469378903"><ele>268.8</ele><time>2026-04-17T13:16:16Z</time></trkpt><trkpt lat="45.712391758915004" lon="9.72760678394803"><ele>268.59999999999997</ele><time>2026-04-17T13:16:18Z</time></trkpt><trkpt lat="45.71232652729673" lon="9.727596912618772"><ele>268.4</ele><time>2026-04-17T13:16:19Z</time></trkpt><trkpt lat="45.71219875941537" lon="9.727582213317374"><ele>268.2</ele><time>2026-04-17T13:16:21Z</time></trkpt><trkpt lat="45.712072050911814" lon="9.72756248528743"><ele>268.0</ele><time>2026-04-17T13:16:23Z</time></trkpt><trkpt lat="45.71194545922751" lon="9.727547463756155"><ele>267.66666666666663</ele><time>2026-04-17T13:16:25Z</time></trkpt><trkpt lat="45.711880531009825" lon="9.727536870279126"><ele>267.3333333333333</ele><time>2026-04-17T13:16:26Z</time></trkpt><trkpt lat="45.71175303294677" lon="9.727517908077727"><ele>267.0</ele><time>2026-04-17T13:16:28Z</time></trkpt><trkpt lat="45.71168902104514" lon="9.727509250691956"><ele>266.6666666666667</ele><time>2026-04-17T13:16:29Z</time></trkpt><trkpt lat="45.71162544541153" lon="9.727495655253255"><ele>266.33333333333337</ele><time>2026-04-17T13:16:30Z</time></trkpt><trkpt lat="45.71156137704419" lon="9.727489752544187"><ele>266.0</ele><time>2026-04-17T13:16:31Z</time></trkpt><trkpt lat="45.71149709506384" lon="9.727478219364816"><ele>266.0</ele><time>2026-04-17T13:16:32Z</time></trkpt><trkpt lat="45.71136827862703" lon="9.727462424700361"><ele>266.0</ele><time>2026-04-17T13:16:34Z</time></trkpt><trkpt lat="45.71124566400483" lon="9.727446280522212"><ele>266.0</ele><time>2026-04-17T13:16:36Z</time></trkpt><trkpt lat="45.71112733383567" lon="9.72742937016406"><ele>266.0</ele><time>2026-04-17T13:16:38Z</time></trkpt><trkpt lat="45.71100541156028" lon="9.72740899295357"><ele>265.57142857142856</ele><time>2026-04-17T13:16:40Z</time></trkpt><trkpt lat="45.71094244056817" lon="9.727399883382699"><ele>265.1428571428571</ele><time>2026-04-17T13:16:41Z</time></trkpt><trkpt lat="45.71087635567301" lon="9.727390298993534"><ele>264.7142857142857</ele><time>2026-04-17T13:16:42Z</time></trkpt><trkpt lat="45.71081102125984" lon="9.727381057710367"><ele>264.2857142857143</ele><time>2026-04-17T13:16:43Z</time></trkpt><trkpt lat="45.71074702258822" lon="9.727371188520301"><ele>263.85714285714283</ele><time>2026-04-17T13:16:44Z</time></trkpt><trkpt lat="45.71068452734254" lon="9.72735979300826"><ele>263.42857142857144</ele><time>2026-04-17T13:16:45Z</time></trkpt><trkpt lat="45.71062183427432" lon="9.727351467927752"><ele>263.0</ele><time>2026-04-17T13:16:46Z</time></trkpt><trkpt lat="45.7104954057373" lon="9.727336903097044"><ele>263.0</ele><time>2026-04-17T13:16:48Z</time></trkpt><trkpt lat="45.71042695077928" lon="9.727326091221672"><ele>263.0</ele><time>2026-04-17T13:16:49Z</time></trkpt><trkpt lat="45.71030704269791" lon="9.72730786509158"><ele>263.0</ele><time>2026-04-17T13:16:51Z</time></trkpt><trkpt lat="45.710241752222366" lon="9.72729653807705"><ele>263.0</ele><time>2026-04-17T13:16:52Z</time></trkpt><trkpt lat="45.71011653726037" lon="9.727278434578603"><ele>263.0</ele><time>2026-04-17T13:16:54Z</time></trkpt><trkpt lat="45.709990452818005" lon="9.727260637955615"><ele>263.8</ele><time>2026-04-17T13:16:56Z</time></trkpt><trkpt lat="45.7099257286942" lon="9.727255158929054"><ele>264.6</ele><time>2026-04-17T13:16:57Z</time></trkpt><trkpt lat="45.70979892156572" lon="9.727232518225021"><ele>265.4</ele><time>2026-04-17T13:16:59Z</time></trkpt><trkpt lat="45.709671261558185" lon="9.727215609873728"><ele>266.2</ele><time>2026-04-17T13:17:01Z</time></trkpt><trkpt lat="45.7095443222803" lon="9.727191123833089"><ele>267.0</ele><time>2026-04-17T13:17:03Z</time></trkpt><trkpt lat="45.70948099039019" lon="9.727185021425475"><ele>267.0</ele><time>2026-04-17T13:17:04Z</time></trkpt><trkpt lat="45.70941777853821" lon="9.727174922696443"><ele>267.0</ele><time>2026-04-17T13:17:05Z</time></trkpt><trkpt lat="45.709353515183615" lon="9.727168786700766"><ele>267.0</ele><time>2026-04-17T13:17:06Z</time></trkpt><trkpt lat="45.709286754250776" lon="9.727157484490734"><ele>267.0</ele><time>2026-04-17T13:17:07Z</time></trkpt><trkpt lat="45.70921678000596" lon="9.727147403027917"><ele>267.0</ele><time>2026-04-17T13:17:08Z</time></trkpt><trkpt lat="45.70909061977438" lon="9.727129883159543"><ele>267.0</ele><time>2026-04-17T13:17:10Z</time></trkpt><trkpt lat="45.70902545871757" lon="9.72712943184834"><ele>267.2</ele><time>2026-04-17T13:17:11Z</time></trkpt><trkpt lat="45.70896140460889" lon="9.727119640825856"><ele>267.4</ele><time>2026-04-17T13:17:12Z</time></trkpt><trkpt lat="45.70889601029684" lon="9.727115284783746"><ele>267.6</ele><time>2026-04-17T13:17:13Z</time></trkpt><trkpt lat="45.70882945104407" lon="9.727115385713526"><ele>267.8</ele><time>2026-04-17T13:17:14Z</time></trkpt><trkpt lat="45.70870100229267" lon="9.727095236885575"><ele>268.0</ele><time>2026-04-17T13:17:16Z</time></trkpt><trkpt lat="45.70857438356246" lon="9.727077599927679"><ele>267.66666666666663</ele><time>2026-04-17T13:17:18Z</time></trkpt><trkpt lat="45.70851056828336" lon="9.727075258120912"><ele>267.3333333333333</ele><time>2026-04-17T13:17:19Z</time></trkpt><trkpt lat="45.70844392173738" lon="9.727063269378453"><ele>267.0</ele><time>2026-04-17T13:17:20Z</time></trkpt><trkpt lat="45.70831771822661" lon="9.727054838957983"><ele>266.6666666666667</ele><time>2026-04-17T13:17:22Z</time></trkpt><trkpt lat="45.70825245988352" lon="9.727043404798739"><ele>266.33333333333337</ele><time>2026-04-17T13:17:23Z</time></trkpt><trkpt lat="45.70818904523025" lon="9.727044592751922"><ele>266.0</ele><time>2026-04-17T13:17:24Z</time></trkpt><trkpt lat="45.708124660051126" lon="9.727033630864208"><ele>266.0</ele><time>2026-04-17T13:17:25Z</time></trkpt><trkpt lat="45.7080612568343" lon="9.727032725637747"><ele>266.0</ele><time>2026-04-17T13:17:26Z</time></trkpt><trkpt lat="45.707995052297036" lon="9.72702384610842"><ele>266.0</ele><time>2026-04-17T13:17:27Z</time></trkpt><trkpt lat="45.70786850854709" lon="9.72701328365043"><ele>266.0</ele><time>2026-04-17T13:17:29Z</time></trkpt><trkpt lat="45.707804490331675" lon="9.727007419158998"><ele>266.0</ele><time>2026-04-17T13:17:30Z</time></trkpt><trkpt lat="45.707740455945405" lon="9.72699768030543"><ele>266.0</ele><time>2026-04-17T13:17:31Z</time></trkpt><trkpt lat="45.707675037416976" lon="9.726991935544829"><ele>266.0</ele><time>2026-04-17T13:17:32Z</time></trkpt><trkpt lat="45.70760758962363" lon="9.726997058838355"><ele>266.0</ele><time>2026-04-17T13:17:33Z</time></trkpt><trkpt lat="45.707544158023914" lon="9.726974041899625"><ele>266.0</ele><time>2026-04-17T13:17:34Z</time></trkpt><trkpt lat="45.70749581601426" lon="9.726909463886368"><ele>266.0</ele><time>2026-04-17T13:17:35Z</time></trkpt><trkpt lat="45.7074907685696" lon="9.726796225461941"><ele>266.0</ele><time>2026-04-17T13:17:36Z</time></trkpt><trkpt lat="45.70750184449558" lon="9.726691000734153"><ele>266.0</ele><time>2026-04-17T13:17:37Z</time></trkpt><trkpt lat="45.707520801457065" lon="9.726595915849844"><ele>266.0</ele><time>2026-04-17T13:17:38Z</time></trkpt><trkpt lat="45.70752970233951" lon="9.726506458352624"><ele>266.0</ele><time>2026-04-17T13:17:39Z</time></trkpt><trkpt lat="45.70754113812132" lon="9.726328983729703"><ele>266.0</ele><time>2026-04-17T13:17:41Z</time></trkpt><trkpt lat="45.707546870119636" lon="9.726235173536613"><ele>266.0</ele><time>2026-04-17T13:17:42Z</time></trkpt><trkpt lat="45.70754857183184" lon="9.726138316650385"><ele>266.0</ele><time>2026-04-17T13:17:43Z</time></trkpt><trkpt lat="45.70755126674135" lon="9.726042534194331"><ele>266.0</ele><time>2026-04-17T13:17:44Z</time></trkpt><trkpt lat="45.70753363020074" lon="9.725863171725967"><ele>266.0</ele><time>2026-04-17T13:17:46Z</time></trkpt><trkpt lat="45.70747127937091" lon="9.725697432567337"><ele>266.0</ele><time>2026-04-17T13:17:48Z</time></trkpt><trkpt lat="45.70742314104353" lon="9.725636547063033"><ele>266.0</ele><time>2026-04-17T13:17:49Z</time></trkpt><trkpt lat="45.707363737671876" lon="9.725587093345014"><ele>266.0</ele><time>2026-04-17T13:17:50Z</time></trkpt><trkpt lat="45.70730076305072" lon="9.725558515767553"><ele>266.0</ele><time>2026-04-17T13:17:51Z</time></trkpt><trkpt lat="45.70718198047846" lon="9.725526779756544"><ele>266.0</ele><time>2026-04-17T13:17:53Z</time></trkpt><trkpt lat="45.70706255854306" lon="9.725468028394394"><ele>266.0</ele><time>2026-04-17T13:17:55Z</time></trkpt><trkpt lat="45.70699790847091" lon="9.725431377069839"><ele>266.0</ele><time>2026-04-17T13:17:56Z</time></trkpt><trkpt lat="45.706878575517" lon="9.725383461705466"><ele>266.0</ele><time>2026-04-17T13:17:58Z</time></trkpt><trkpt lat="45.70681551327184" lon="9.725353958995568"><ele>266.0</ele><time>2026-04-17T13:17:59Z</time></trkpt><trkpt lat="45.70675597328202" lon="9.725324649787925"><ele>266.0</ele><time>2026-04-17T13:18:00Z</time></trkpt><trkpt lat="45.70669503337253" lon="9.725288544547004"><ele>266.0</ele><time>2026-04-17T13:18:01Z</time></trkpt><trkpt lat="45.70663292537446" lon="9.725255864744742"><ele>266.0</ele><time>2026-04-17T13:18:02Z</time></trkpt><trkpt lat="45.70656520639708" lon="9.725235834080245"><ele>266.0</ele><time>2026-04-17T13:18:03Z</time></trkpt><trkpt lat="45.70644978192392" lon="9.725177763857006"><ele>266.0</ele><time>2026-04-17T13:18:05Z</time></trkpt><trkpt lat="45.70633162986166" lon="9.72512550487615"><ele>266.0</ele><time>2026-04-17T13:18:07Z</time></trkpt><trkpt lat="45.70626513074669" lon="9.725110337153763"><ele>266.0</ele><time>2026-04-17T13:18:08Z</time></trkpt><trkpt lat="45.706142900604874" lon="9.72509036150474"><ele>266.0</ele><time>2026-04-17T13:18:10Z</time></trkpt><trkpt lat="45.706030151332286" lon="9.725072764314586"><ele>266.0</ele><time>2026-04-17T13:18:12Z</time></trkpt><trkpt lat="45.70590012360668" lon="9.725046317178522"><ele>266.0</ele><time>2026-04-17T13:18:14Z</time></trkpt><trkpt lat="45.705775799967114" lon="9.725017240772258"><ele>266.0</ele><time>2026-04-17T13:18:16Z</time></trkpt><trkpt lat="45.70569710374747" lon="9.72488718475075"><ele>266.0</ele><time>2026-04-17T13:18:18Z</time></trkpt><trkpt lat="45.70570674026628" lon="9.724780314931522"><ele>266.0</ele><time>2026-04-17T13:18:19Z</time></trkpt><trkpt lat="45.70571371674097" lon="9.724681947830575"><ele>266.0</ele><time>2026-04-17T13:18:20Z</time></trkpt><trkpt lat="45.70572241975186" lon="9.724585860276829"><ele>266.0</ele><time>2026-04-17T13:18:21Z</time></trkpt><trkpt lat="45.70572404130495" lon="9.72448929480306"><ele>266.0</ele><time>2026-04-17T13:18:22Z</time></trkpt><trkpt lat="45.705718173719994" lon="9.72438691119546"><ele>266.0</ele><time>2026-04-17T13:18:23Z</time></trkpt><trkpt lat="45.70571661794022" lon="9.724291804682638"><ele>266.0</ele><time>2026-04-17T13:18:24Z</time></trkpt><trkpt lat="45.70570506622502" lon="9.724110059294476"><ele>265.85714285714283</ele><time>2026-04-17T13:18:26Z</time></trkpt><trkpt lat="45.70570050208507" lon="9.724013761492767"><ele>265.7142857142857</ele><time>2026-04-17T13:18:27Z</time></trkpt><trkpt lat="45.70569762930564" lon="9.723917664269313"><ele>265.57142857142856</ele><time>2026-04-17T13:18:28Z</time></trkpt><trkpt lat="45.70569136365141" lon="9.723824650552567"><ele>265.42857142857144</ele><time>2026-04-17T13:18:29Z</time></trkpt><trkpt lat="45.705689551086984" lon="9.72372920053057"><ele>265.2857142857143</ele><time>2026-04-17T13:18:30Z</time></trkpt><trkpt lat="45.70568916445743" lon="9.723632586006575"><ele>265.1428571428571</ele><time>2026-04-17T13:18:31Z</time></trkpt><trkpt lat="45.70568746818645" lon="9.72353550284646"><ele>265.0</ele><time>2026-04-17T13:18:32Z</time></trkpt><trkpt lat="45.70568078293341" lon="9.723440134348287"><ele>264.99999999999994</ele><time>2026-04-17T13:18:33Z</time></trkpt><trkpt lat="45.70567959633054" lon="9.723342388698708"><ele>265.0</ele><time>2026-04-17T13:18:34Z</time></trkpt><trkpt lat="45.70567644012613" lon="9.723242146496954"><ele>265.0</ele><time>2026-04-17T13:18:35Z</time></trkpt><trkpt lat="45.70567335391163" lon="9.723143022619858"><ele>265.0</ele><time>2026-04-17T13:18:36Z</time></trkpt><trkpt lat="45.70566811418067" lon="9.723038974532574"><ele>265.0</ele><time>2026-04-17T13:18:37Z</time></trkpt><trkpt lat="45.705666474064756" lon="9.722940960744705"><ele>264.99999999999994</ele><time>2026-04-17T13:18:38Z</time></trkpt><trkpt lat="45.70566508221519" lon="9.722843483988258"><ele>265.0</ele><time>2026-04-17T13:18:39Z</time></trkpt><trkpt lat="45.705679172165816" lon="9.722742809003726"><ele>264.5</ele><time>2026-04-17T13:18:40Z</time></trkpt><trkpt lat="45.70567516202323" lon="9.72265138879331"><ele>264.0</ele><time>2026-04-17T13:18:41Z</time></trkpt><trkpt lat="45.70567303126218" lon="9.722474151078146"><ele>263.5</ele><time>2026-04-17T13:18:43Z</time></trkpt><trkpt lat="45.7056716362748" lon="9.722382853482099"><ele>263.0</ele><time>2026-04-17T13:18:44Z</time></trkpt><trkpt lat="45.70566880630216" lon="9.722291019567345"><ele>262.5</ele><time>2026-04-17T13:18:45Z</time></trkpt><trkpt lat="45.705669850184606" lon="9.722197917826174"><ele>262.0</ele><time>2026-04-17T13:18:46Z</time></trkpt><trkpt lat="45.7056895869703" lon="9.72202448245848"><ele>262.4</ele><time>2026-04-17T13:18:48Z</time></trkpt><trkpt lat="45.70569889262667" lon="9.721851179135063"><ele>262.79999999999995</ele><time>2026-04-17T13:18:50Z</time></trkpt><trkpt lat="45.705706372638545" lon="9.721678057215339"><ele>263.2</ele><time>2026-04-17T13:18:52Z</time></trkpt><trkpt lat="45.7057193133479" lon="9.721536179794935"><ele>263.59999999999997</ele><time>2026-04-17T13:18:54Z</time></trkpt><trkpt lat="45.7056743388094" lon="9.721435391770079"><ele>264.0</ele><time>2026-04-17T13:18:58Z</time></trkpt><trkpt lat="45.70557135440869" lon="9.721482914469254"><ele>264.0</ele><time>2026-04-17T13:19:00Z</time></trkpt><trkpt lat="45.70546390828935" lon="9.721510164479769"><ele>264.0</ele><time>2026-04-17T13:19:02Z</time></trkpt><trkpt lat="45.70540308881283" lon="9.721475206517505"><ele>264.0</ele><time>2026-04-17T13:19:03Z</time></trkpt><trkpt lat="45.70534510072324" lon="9.721429899562066"><ele>264.0</ele><time>2026-04-17T13:19:04Z</time></trkpt><trkpt lat="45.705287354119825" lon="9.7213773160141"><ele>264.0</ele><time>2026-04-17T13:19:05Z</time></trkpt><trkpt lat="45.705231285187075" lon="9.721332773618016"><ele>264.0</ele><time>2026-04-17T13:19:06Z</time></trkpt><trkpt lat="45.70517217811646" lon="9.721299705890312"><ele>264.0</ele><time>2026-04-17T13:19:07Z</time></trkpt><trkpt lat="45.70511403268534" lon="9.721263456466335"><ele>264.1666666666667</ele><time>2026-04-17T13:19:08Z</time></trkpt><trkpt lat="45.70505351856575" lon="9.721235368082663"><ele>264.3333333333333</ele><time>2026-04-17T13:19:09Z</time></trkpt><trkpt lat="45.70493010534294" lon="9.721167422045447"><ele>264.5</ele><time>2026-04-17T13:19:11Z</time></trkpt><trkpt lat="45.70482211160058" lon="9.721082964998358"><ele>264.66666666666663</ele><time>2026-04-17T13:19:13Z</time></trkpt><trkpt lat="45.704762134902886" lon="9.721047545097562"><ele>264.8333333333333</ele><time>2026-04-17T13:19:14Z</time></trkpt><trkpt lat="45.70470412584636" lon="9.72100702799754"><ele>265.0</ele><time>2026-04-17T13:19:15Z</time></trkpt><trkpt lat="45.7046442307111" lon="9.720967708812342"><ele>265.5</ele><time>2026-04-17T13:19:16Z</time></trkpt><trkpt lat="45.704582617019234" lon="9.720932512919445"><ele>266.0</ele><time>2026-04-17T13:19:17Z</time></trkpt><trkpt lat="45.70452219106211" lon="9.72089253397582"><ele>266.5</ele><time>2026-04-17T13:19:18Z</time></trkpt><trkpt lat="45.70446904508807" lon="9.72072930950604"><ele>267.0</ele><time>2026-04-17T13:19:20Z</time></trkpt><trkpt lat="45.704458107680985" lon="9.720629334335987"><ele>267.5</ele><time>2026-04-17T13:19:21Z</time></trkpt><trkpt lat="45.70444349341102" lon="9.720534606770801"><ele>268.0</ele><time>2026-04-17T13:19:22Z</time></trkpt><trkpt lat="45.70442557586062" lon="9.720442605033856"><ele>268.0</ele><time>2026-04-17T13:19:23Z</time></trkpt><trkpt lat="45.70441149810128" lon="9.720354296320362"><ele>268.0</ele><time>2026-04-17T13:19:24Z</time></trkpt><trkpt lat="45.704397220570286" lon="9.720258678692412"><ele>268.0</ele><time>2026-04-17T13:19:25Z</time></trkpt><trkpt lat="45.704375449309524" lon="9.72016760843417"><ele>268.0</ele><time>2026-04-17T13:19:26Z</time></trkpt><trkpt lat="45.70434277583028" lon="9.719994929312048"><ele>268.0</ele><time>2026-04-17T13:19:28Z</time></trkpt><trkpt lat="45.70431353085441" lon="9.71982728731832"><ele>268.0</ele><time>2026-04-17T13:19:30Z</time></trkpt><trkpt lat="45.70427982262206" lon="9.719665940788135"><ele>268.5</ele><time>2026-04-17T13:19:32Z</time></trkpt><trkpt lat="45.7042642299505" lon="9.719576610223804"><ele>269.0</ele><time>2026-04-17T13:19:33Z</time></trkpt><trkpt lat="45.704245144590146" lon="9.719483756098102"><ele>269.5</ele><time>2026-04-17T13:19:34Z</time></trkpt><trkpt lat="45.70422745467645" lon="9.719396572938383"><ele>270.0</ele><time>2026-04-17T13:19:35Z</time></trkpt><trkpt lat="45.704206571578105" lon="9.71930728169508"><ele>270.5</ele><time>2026-04-17T13:19:36Z</time></trkpt><trkpt lat="45.70418899801595" lon="9.719215844835269"><ele>271.0</ele><time>2026-04-17T13:19:37Z</time></trkpt><trkpt lat="45.70415355377213" lon="9.719045183874924"><ele>271.2</ele><time>2026-04-17T13:19:39Z</time></trkpt><trkpt lat="45.70411865615358" lon="9.718876115499098"><ele>271.40000000000003</ele><time>2026-04-17T13:19:41Z</time></trkpt><trkpt lat="45.70409867244661" lon="9.718788860769665"><ele>271.6</ele><time>2026-04-17T13:19:42Z</time></trkpt><trkpt lat="45.70406840937104" lon="9.718612893064861"><ele>271.8</ele><time>2026-04-17T13:19:44Z</time></trkpt><trkpt lat="45.704048974047744" lon="9.718514029720906"><ele>272.0</ele><time>2026-04-17T13:19:45Z</time></trkpt><trkpt lat="45.7040494496842" lon="9.718331845573344"><ele>272.0</ele><time>2026-04-17T13:19:47Z</time></trkpt><trkpt lat="45.70405223851352" lon="9.718238477611232"><ele>272.0</ele><time>2026-04-17T13:19:48Z</time></trkpt><trkpt lat="45.70405059290484" lon="9.718053853475348"><ele>272.0</ele><time>2026-04-17T13:19:50Z</time></trkpt><trkpt lat="45.70405329251659" lon="9.717954309444357"><ele>272.0</ele><time>2026-04-17T13:19:51Z</time></trkpt><trkpt lat="45.70405825979116" lon="9.717780004931473"><ele>272.0</ele><time>2026-04-17T13:19:53Z</time></trkpt><trkpt lat="45.704055489624" lon="9.71768085085633"><ele>272.0</ele><time>2026-04-17T13:19:54Z</time></trkpt><trkpt lat="45.70406119634212" lon="9.717590210034132"><ele>272.0</ele><time>2026-04-17T13:19:55Z</time></trkpt><trkpt lat="45.7040611043817" lon="9.717497007816569"><ele>272.0</ele><time>2026-04-17T13:19:56Z</time></trkpt><trkpt lat="45.70406543819065" lon="9.717405772813393"><ele>272.0</ele><time>2026-04-17T13:19:57Z</time></trkpt><trkpt lat="45.704072079799744" lon="9.717220285687839"><ele>272.0</ele><time>2026-04-17T13:19:59Z</time></trkpt><trkpt lat="45.70408385435685" lon="9.717127177023459"><ele>272.0</ele><time>2026-04-17T13:20:00Z</time></trkpt><trkpt lat="45.704092424132725" lon="9.717033262220593"><ele>271.99999999999994</ele><time>2026-04-17T13:20:01Z</time></trkpt><trkpt lat="45.70412552189339" lon="9.71695176350039"><ele>272.0</ele><time>2026-04-17T13:20:02Z</time></trkpt><trkpt lat="45.704151317436995" lon="9.7168683422639"><ele>272.0</ele><time>2026-04-17T13:20:03Z</time></trkpt><trkpt lat="45.70418141358911" lon="9.7167867797105"><ele>272.0</ele><time>2026-04-17T13:20:04Z</time></trkpt><trkpt lat="45.704210783302244" lon="9.716701524307654"><ele>272.0</ele><time>2026-04-17T13:20:05Z</time></trkpt><trkpt lat="45.70423970254249" lon="9.71661700990785"><ele>271.99999999999994</ele><time>2026-04-17T13:20:06Z</time></trkpt><trkpt lat="45.704268563434276" lon="9.71653662540339"><ele>272.0</ele><time>2026-04-17T13:20:07Z</time></trkpt><trkpt lat="45.70429899768968" lon="9.716454572440227"><ele>271.99999999999994</ele><time>2026-04-17T13:20:08Z</time></trkpt><trkpt lat="45.70432930744119" lon="9.716371842827627"><ele>272.0</ele><time>2026-04-17T13:20:09Z</time></trkpt><trkpt lat="45.70436093262765" lon="9.716289872448872"><ele>272.0</ele><time>2026-04-17T13:20:10Z</time></trkpt><trkpt lat="45.70439495161438" lon="9.716211556380372"><ele>272.0</ele><time>2026-04-17T13:20:11Z</time></trkpt><trkpt lat="45.7044271585269" lon="9.716127380779097"><ele>272.0</ele><time>2026-04-17T13:20:12Z</time></trkpt><trkpt lat="45.70445812625367" lon="9.716044102330704"><ele>271.99999999999994</ele><time>2026-04-17T13:20:13Z</time></trkpt><trkpt lat="45.70448886539687" lon="9.715962550042281"><ele>272.0</ele><time>2026-04-17T13:20:14Z</time></trkpt><trkpt lat="45.70452112766355" lon="9.715882916768836"><ele>271.99999999999994</ele><time>2026-04-17T13:20:15Z</time></trkpt><trkpt lat="45.704551737129414" lon="9.715800930511355"><ele>272.0</ele><time>2026-04-17T13:20:16Z</time></trkpt><trkpt lat="45.70457417186026" lon="9.71571372889724"><ele>272.0</ele><time>2026-04-17T13:20:17Z</time></trkpt><trkpt lat="45.70460969554805" lon="9.715636101363327"><ele>272.0</ele><time>2026-04-17T13:20:18Z</time></trkpt><trkpt lat="45.70464243556018" lon="9.715554754056207"><ele>272.0</ele><time>2026-04-17T13:20:19Z</time></trkpt><trkpt lat="45.704671617856135" lon="9.715474810792136"><ele>271.99999999999994</ele><time>2026-04-17T13:20:20Z</time></trkpt><trkpt lat="45.704704053204914" lon="9.71539128512346"><ele>272.0</ele><time>2026-04-17T13:20:21Z</time></trkpt><trkpt lat="45.70474851185124" lon="9.715219201095316"><ele>272.2</ele><time>2026-04-17T13:20:23Z</time></trkpt><trkpt lat="45.70476995147131" lon="9.715132416497806"><ele>272.4</ele><time>2026-04-17T13:20:24Z</time></trkpt><trkpt lat="45.70478842726701" lon="9.714959048436043"><ele>272.6</ele><time>2026-04-17T13:20:26Z</time></trkpt><trkpt lat="45.704812716091865" lon="9.714864021660649"><ele>272.8</ele><time>2026-04-17T13:20:27Z</time></trkpt><trkpt lat="45.70487147676747" lon="9.714702081393519"><ele>273.0</ele><time>2026-04-17T13:20:29Z</time></trkpt><trkpt lat="45.7049275722368" lon="9.71454784553447"><ele>273.0</ele><time>2026-04-17T13:20:31Z</time></trkpt><trkpt lat="45.70495845364593" lon="9.714463456675048"><ele>273.0</ele><time>2026-04-17T13:20:32Z</time></trkpt><trkpt lat="45.70496744750209" lon="9.71437235422231"><ele>273.0</ele><time>2026-04-17T13:20:33Z</time></trkpt><trkpt lat="45.704947707522535" lon="9.71427807997283"><ele>273.0</ele><time>2026-04-17T13:20:34Z</time></trkpt><trkpt lat="45.70491188957155" lon="9.71419720332661"><ele>273.0</ele><time>2026-04-17T13:20:35Z</time></trkpt><trkpt lat="45.70486017615562" lon="9.7141401347211"><ele>273.0</ele><time>2026-04-17T13:20:36Z</time></trkpt><trkpt lat="45.704800756661434" lon="9.71409599690203"><ele>273.0</ele><time>2026-04-17T13:20:37Z</time></trkpt><trkpt lat="45.7047458818712" lon="9.71405126191054"><ele>272.85714285714283</ele><time>2026-04-17T13:20:38Z</time></trkpt><trkpt lat="45.704693898897375" lon="9.713997378944685"><ele>272.7142857142857</ele><time>2026-04-17T13:20:39Z</time></trkpt><trkpt lat="45.70464511342395" lon="9.713934845862084"><ele>272.57142857142856</ele><time>2026-04-17T13:20:40Z</time></trkpt><trkpt lat="45.704603206983684" lon="9.713856828043896"><ele>272.42857142857144</ele><time>2026-04-17T13:20:41Z</time></trkpt><trkpt lat="45.70456846391541" lon="9.7137743464886"><ele>272.2857142857143</ele><time>2026-04-17T13:20:42Z</time></trkpt><trkpt lat="45.704550914731016" lon="9.713680049357237"><ele>272.1428571428571</ele><time>2026-04-17T13:20:43Z</time></trkpt><trkpt lat="45.704540351484056" lon="9.713585420998685"><ele>272.0</ele><time>2026-04-17T13:20:44Z</time></trkpt><trkpt lat="45.70452397911735" lon="9.713494242831473"><ele>271.99999999999994</ele><time>2026-04-17T13:20:45Z</time></trkpt><trkpt lat="45.70450275153581" lon="9.713406743333408"><ele>272.0</ele><time>2026-04-17T13:20:46Z</time></trkpt><trkpt lat="45.704483951906326" lon="9.713320158077844"><ele>272.0</ele><time>2026-04-17T13:20:47Z</time></trkpt><trkpt lat="45.70446460759538" lon="9.713230974076577"><ele>272.0</ele><time>2026-04-17T13:20:48Z</time></trkpt><trkpt lat="45.704442266042534" lon="9.713145080513321"><ele>272.0</ele><time>2026-04-17T13:20:49Z</time></trkpt><trkpt lat="45.704422545708944" lon="9.7130557996277"><ele>271.99999999999994</ele><time>2026-04-17T13:20:50Z</time></trkpt><trkpt lat="45.70440276159611" lon="9.712967684907602"><ele>272.0</ele><time>2026-04-17T13:20:51Z</time></trkpt><trkpt lat="45.704383499434385" lon="9.712880287213368"><ele>272.0</ele><time>2026-04-17T13:20:52Z</time></trkpt><trkpt lat="45.70436668910137" lon="9.712789696274578"><ele>272.0</ele><time>2026-04-17T13:20:53Z</time></trkpt><trkpt lat="45.70434826756174" lon="9.712700815310168"><ele>272.0</ele><time>2026-04-17T13:20:54Z</time></trkpt><trkpt lat="45.7043285547307" lon="9.712612554554454"><ele>272.0</ele><time>2026-04-17T13:20:55Z</time></trkpt><trkpt lat="45.704310580939655" lon="9.712521872684729"><ele>272.0</ele><time>2026-04-17T13:20:56Z</time></trkpt><trkpt lat="45.704278618854644" lon="9.712346315603321"><ele>272.0</ele><time>2026-04-17T13:20:58Z</time></trkpt><trkpt lat="45.70426143584659" lon="9.712257213246275"><ele>271.83333333333337</ele><time>2026-04-17T13:20:59Z</time></trkpt><trkpt lat="45.70424282704428" lon="9.712166843824448"><ele>271.6666666666667</ele><time>2026-04-17T13:21:00Z</time></trkpt><trkpt lat="45.704221047754245" lon="9.712080429505695"><ele>271.5</ele><time>2026-04-17T13:21:01Z</time></trkpt><trkpt lat="45.70419696721772" lon="9.71199205722878"><ele>271.3333333333333</ele><time>2026-04-17T13:21:02Z</time></trkpt><trkpt lat="45.704174546526886" lon="9.711907702463018"><ele>271.16666666666663</ele><time>2026-04-17T13:21:03Z</time></trkpt><trkpt lat="45.70414834594307" lon="9.711820629832006"><ele>271.0</ele><time>2026-04-17T13:21:04Z</time></trkpt><trkpt lat="45.70409430236008" lon="9.711656425093944"><ele>270.8</ele><time>2026-04-17T13:21:06Z</time></trkpt><trkpt lat="45.704067298960915" lon="9.711571653798378"><ele>270.6</ele><time>2026-04-17T13:21:07Z</time></trkpt><trkpt lat="45.704015256112655" lon="9.711405231743424"><ele>270.4</ele><time>2026-04-17T13:21:09Z</time></trkpt><trkpt lat="45.70398701745989" lon="9.711316614723707"><ele>270.2</ele><time>2026-04-17T13:21:10Z</time></trkpt><trkpt lat="45.70394006052578" lon="9.711148262777252"><ele>270.0</ele><time>2026-04-17T13:21:12Z</time></trkpt><trkpt lat="45.7039190315264" lon="9.711060798683599"><ele>269.8333333333333</ele><time>2026-04-17T13:21:13Z</time></trkpt><trkpt lat="45.703913889670496" lon="9.710968212016203"><ele>269.6666666666667</ele><time>2026-04-17T13:21:14Z</time></trkpt><trkpt lat="45.703901967365475" lon="9.710788603108089"><ele>269.5</ele><time>2026-04-17T13:21:16Z</time></trkpt><trkpt lat="45.70388301278219" lon="9.71069805767505"><ele>269.33333333333337</ele><time>2026-04-17T13:21:17Z</time></trkpt><trkpt lat="45.70384587217476" lon="9.710622378794193"><ele>269.1666666666667</ele><time>2026-04-17T13:21:18Z</time></trkpt><trkpt lat="45.7037980517169" lon="9.710554992973764"><ele>269.0</ele><time>2026-04-17T13:21:19Z</time></trkpt><trkpt lat="45.70372378739226" lon="9.710410805984985"><ele>269.0</ele><time>2026-04-17T13:21:21Z</time></trkpt><trkpt lat="45.70370558396388" lon="9.710323568329228"><ele>269.0</ele><time>2026-04-17T13:21:22Z</time></trkpt><trkpt lat="45.70370737934907" lon="9.710224954933336"><ele>269.0</ele><time>2026-04-17T13:21:23Z</time></trkpt><trkpt lat="45.70370396543025" lon="9.710128958398291"><ele>269.0</ele><time>2026-04-17T13:21:24Z</time></trkpt><trkpt lat="45.70369658684129" lon="9.710036264936175"><ele>269.0</ele><time>2026-04-17T13:21:25Z</time></trkpt><trkpt lat="45.70368486000338" lon="9.709943260997841"><ele>269.0</ele><time>2026-04-17T13:21:26Z</time></trkpt><trkpt lat="45.70367324836199" lon="9.709851344768598"><ele>269.0</ele><time>2026-04-17T13:21:27Z</time></trkpt><trkpt lat="45.703665370852626" lon="9.7096690384995"><ele>268.8571428571429</ele><time>2026-04-17T13:21:29Z</time></trkpt><trkpt lat="45.70366720056468" lon="9.70957546362361"><ele>268.7142857142857</ele><time>2026-04-17T13:21:30Z</time></trkpt><trkpt lat="45.70366749350245" lon="9.709484858229265"><ele>268.57142857142856</ele><time>2026-04-17T13:21:31Z</time></trkpt><trkpt lat="45.70366920541937" lon="9.709390345632727"><ele>268.42857142857144</ele><time>2026-04-17T13:21:32Z</time></trkpt><trkpt lat="45.70367255999877" lon="9.70929618586434"><ele>268.2857142857143</ele><time>2026-04-17T13:21:33Z</time></trkpt><trkpt lat="45.703676966250555" lon="9.709202585672156"><ele>268.14285714285717</ele><time>2026-04-17T13:21:34Z</time></trkpt><trkpt lat="45.70367997414112" lon="9.709112224945164"><ele>268.0</ele><time>2026-04-17T13:21:35Z</time></trkpt><trkpt lat="45.703680185928164" lon="9.709018832170223"><ele>268.0</ele><time>2026-04-17T13:21:36Z</time></trkpt><trkpt lat="45.703680205411175" lon="9.70892560156575"><ele>268.0</ele><time>2026-04-17T13:21:37Z</time></trkpt><trkpt lat="45.703681557108574" lon="9.708832469362855"><ele>268.0</ele><time>2026-04-17T13:21:38Z</time></trkpt><trkpt lat="45.7036863883316" lon="9.708740470750314"><ele>268.0</ele><time>2026-04-17T13:21:39Z</time></trkpt><trkpt lat="45.7036911115366" lon="9.708648602229196"><ele>268.0</ele><time>2026-04-17T13:21:40Z</time></trkpt><trkpt lat="45.703693781776174" lon="9.708557376944833"><ele>268.0</ele><time>2026-04-17T13:21:41Z</time></trkpt><trkpt lat="45.70369379391217" lon="9.708466547804127"><ele>268.0</ele><time>2026-04-17T13:21:42Z</time></trkpt><trkpt lat="45.7036947560193" lon="9.708376083951102"><ele>268.0</ele><time>2026-04-17T13:21:43Z</time></trkpt><trkpt lat="45.70370081973317" lon="9.708285873023554"><ele>268.16666666666663</ele><time>2026-04-17T13:21:44Z</time></trkpt><trkpt lat="45.70370104105403" lon="9.7081954568252"><ele>268.3333333333333</ele><time>2026-04-17T13:21:45Z</time></trkpt><trkpt lat="45.70370303812927" lon="9.708103128388977"><ele>268.5</ele><time>2026-04-17T13:21:46Z</time></trkpt><trkpt lat="45.70371153712312" lon="9.707921629140229"><ele>268.6666666666667</ele><time>2026-04-17T13:21:48Z</time></trkpt><trkpt lat="45.70371551445627" lon="9.707741449255545"><ele>268.83333333333337</ele><time>2026-04-17T13:21:50Z</time></trkpt><trkpt lat="45.70372125720943" lon="9.707651098592839"><ele>269.0</ele><time>2026-04-17T13:21:51Z</time></trkpt><trkpt lat="45.70372216459291" lon="9.7075596874896"><ele>269.0</ele><time>2026-04-17T13:21:52Z</time></trkpt><trkpt lat="45.70372603702495" lon="9.707467929871452"><ele>269.0</ele><time>2026-04-17T13:21:53Z</time></trkpt><trkpt lat="45.703729402630984" lon="9.707377151852606"><ele>269.0</ele><time>2026-04-17T13:21:54Z</time></trkpt><trkpt lat="45.70373524867447" lon="9.707285380653829"><ele>269.0</ele><time>2026-04-17T13:21:55Z</time></trkpt><trkpt lat="45.70373933334734" lon="9.7071922549691"><ele>269.0</ele><time>2026-04-17T13:21:56Z</time></trkpt><trkpt lat="45.70374123451124" lon="9.707099794561541"><ele>269.0</ele><time>2026-04-17T13:21:57Z</time></trkpt><trkpt lat="45.70374754597208" lon="9.706918046767075"><ele>269.0</ele><time>2026-04-17T13:21:59Z</time></trkpt><trkpt lat="45.70374983369532" lon="9.706826736534426"><ele>268.83333333333337</ele><time>2026-04-17T13:22:00Z</time></trkpt><trkpt lat="45.703754280893136" lon="9.706645508062994"><ele>268.6666666666667</ele><time>2026-04-17T13:22:02Z</time></trkpt><trkpt lat="45.70376296410107" lon="9.706553383046648"><ele>268.5</ele><time>2026-04-17T13:22:03Z</time></trkpt><trkpt lat="45.70375673786552" lon="9.706462211188127"><ele>268.3333333333333</ele><time>2026-04-17T13:22:04Z</time></trkpt><trkpt lat="45.703760283775836" lon="9.706365718862191"><ele>268.16666666666663</ele><time>2026-04-17T13:22:05Z</time></trkpt><trkpt lat="45.70376587896274" lon="9.706186366805577"><ele>268.0</ele><time>2026-04-17T13:22:07Z</time></trkpt><trkpt lat="45.70377446347952" lon="9.706003308593012"><ele>268.0</ele><time>2026-04-17T13:22:09Z</time></trkpt><trkpt lat="45.70377637880032" lon="9.705911158360962"><ele>268.0</ele><time>2026-04-17T13:22:10Z</time></trkpt><trkpt lat="45.70377538537834" lon="9.70573154341985"><ele>268.0</ele><time>2026-04-17T13:22:12Z</time></trkpt><trkpt lat="45.70377001092313" lon="9.705635620679793"><ele>268.0</ele><time>2026-04-17T13:22:13Z</time></trkpt><trkpt lat="45.703767262240206" lon="9.70545414089676"><ele>268.0</ele><time>2026-04-17T13:22:15Z</time></trkpt><trkpt lat="45.70377055343707" lon="9.705363381251741"><ele>268.0</ele><time>2026-04-17T13:22:16Z</time></trkpt><trkpt lat="45.70376938828948" lon="9.705272773225206"><ele>268.2</ele><time>2026-04-17T13:22:17Z</time></trkpt><trkpt lat="45.70376923384273" lon="9.70518066521537"><ele>268.4</ele><time>2026-04-17T13:22:18Z</time></trkpt><trkpt lat="45.70376102712801" lon="9.704997379715508"><ele>268.59999999999997</ele><time>2026-04-17T13:22:20Z</time></trkpt><trkpt lat="45.70374994782371" lon="9.704903767486321"><ele>268.8</ele><time>2026-04-17T13:22:21Z</time></trkpt><trkpt lat="45.7037394381221" lon="9.704717883318157"><ele>269.0</ele><time>2026-04-17T13:22:23Z</time></trkpt><trkpt lat="45.703736365251935" lon="9.704627247564996"><ele>269.0</ele><time>2026-04-17T13:22:24Z</time></trkpt><trkpt lat="45.70372792446084" lon="9.70444349725983"><ele>269.0</ele><time>2026-04-17T13:22:26Z</time></trkpt><trkpt lat="45.703726767072794" lon="9.70435100081826"><ele>269.0</ele><time>2026-04-17T13:22:27Z</time></trkpt><trkpt lat="45.703721472006784" lon="9.704257424525043"><ele>269.0</ele><time>2026-04-17T13:22:28Z</time></trkpt><trkpt lat="45.7037120380513" lon="9.704076235970996"><ele>269.0</ele><time>2026-04-17T13:22:30Z</time></trkpt><trkpt lat="45.703707570805875" lon="9.703982018572031"><ele>268.8571428571429</ele><time>2026-04-17T13:22:31Z</time></trkpt><trkpt lat="45.703704928865385" lon="9.703891446200686"><ele>268.7142857142857</ele><time>2026-04-17T13:22:32Z</time></trkpt><trkpt lat="45.7036981806897" lon="9.703797712871848"><ele>268.57142857142856</ele><time>2026-04-17T13:22:33Z</time></trkpt><trkpt lat="45.70369520913783" lon="9.703705500872472"><ele>268.42857142857144</ele><time>2026-04-17T13:22:34Z</time></trkpt><trkpt lat="45.70368852205297" lon="9.703614512439046"><ele>268.2857142857143</ele><time>2026-04-17T13:22:35Z</time></trkpt><trkpt lat="45.70368351303325" lon="9.703520063626598"><ele>268.14285714285717</ele><time>2026-04-17T13:22:36Z</time></trkpt><trkpt lat="45.70367819837875" lon="9.703426922965846"><ele>268.0</ele><time>2026-04-17T13:22:37Z</time></trkpt><trkpt lat="45.70366670175632" lon="9.70333394380662"><ele>268.0</ele><time>2026-04-17T13:22:38Z</time></trkpt><trkpt lat="45.703663742805475" lon="9.703241486379799"><ele>268.0</ele><time>2026-04-17T13:22:39Z</time></trkpt><trkpt lat="45.70365489382957" lon="9.703149598193814"><ele>268.0</ele><time>2026-04-17T13:22:40Z</time></trkpt><trkpt lat="45.70364524977026" lon="9.703056852415697"><ele>268.0</ele><time>2026-04-17T13:22:41Z</time></trkpt><trkpt lat="45.70363450714178" lon="9.702965027591457"><ele>268.0</ele><time>2026-04-17T13:22:42Z</time></trkpt><trkpt lat="45.70362281922158" lon="9.702872787591696"><ele>268.0</ele><time>2026-04-17T13:22:43Z</time></trkpt><trkpt lat="45.70361442363907" lon="9.702783097206801"><ele>268.0</ele><time>2026-04-17T13:22:44Z</time></trkpt><trkpt lat="45.70359204026224" lon="9.702602011906865"><ele>267.0</ele><time>2026-04-17T13:22:46Z</time></trkpt><trkpt lat="45.70357780132628" lon="9.702512251526798"><ele>266.0</ele><time>2026-04-17T13:22:47Z</time></trkpt><trkpt lat="45.70354687686248" lon="9.7023321951981"><ele>265.0</ele><time>2026-04-17T13:22:49Z</time></trkpt><trkpt lat="45.703534315004106" lon="9.70224316782211"><ele>264.0</ele><time>2026-04-17T13:22:50Z</time></trkpt><trkpt lat="45.703521407061686" lon="9.702149688175725"><ele>263.0</ele><time>2026-04-17T13:22:51Z</time></trkpt><trkpt lat="45.70348543346676" lon="9.70196546935178"><ele>263.33333333333337</ele><time>2026-04-17T13:22:53Z</time></trkpt><trkpt lat="45.70346406921402" lon="9.701783149671629"><ele>263.6666666666667</ele><time>2026-04-17T13:22:55Z</time></trkpt><trkpt lat="45.70346430852845" lon="9.701683671504847"><ele>264.0</ele><time>2026-04-17T13:22:56Z</time></trkpt><trkpt lat="45.7034273850023" lon="9.701602060783816"><ele>264.3333333333333</ele><time>2026-04-17T13:22:57Z</time></trkpt><trkpt lat="45.703413198361105" lon="9.701511149031615"><ele>264.66666666666663</ele><time>2026-04-17T13:22:58Z</time></trkpt><trkpt lat="45.70339862432006" lon="9.701420023591316"><ele>265.0</ele><time>2026-04-17T13:22:59Z</time></trkpt><trkpt lat="45.70338468325408" lon="9.701330523883911"><ele>264.99999999999994</ele><time>2026-04-17T13:23:00Z</time></trkpt><trkpt lat="45.703368048195095" lon="9.701243019392217"><ele>265.0</ele><time>2026-04-17T13:23:01Z</time></trkpt><trkpt lat="45.70335448627614" lon="9.701150174459531"><ele>265.0</ele><time>2026-04-17T13:23:02Z</time></trkpt><trkpt lat="45.70334286102709" lon="9.701057522885888"><ele>265.0</ele><time>2026-04-17T13:23:03Z</time></trkpt><trkpt lat="45.70332844631639" lon="9.700967434376706"><ele>265.0</ele><time>2026-04-17T13:23:04Z</time></trkpt><trkpt lat="45.70331039745705" lon="9.70088023249729"><ele>264.99999999999994</ele><time>2026-04-17T13:23:05Z</time></trkpt><trkpt lat="45.70329898710832" lon="9.700790013953123"><ele>265.0</ele><time>2026-04-17T13:23:06Z</time></trkpt><trkpt lat="45.70328507776404" lon="9.700695855942104"><ele>265.2857142857143</ele><time>2026-04-17T13:23:07Z</time></trkpt><trkpt lat="45.70327639330382" lon="9.700601603356697"><ele>265.57142857142856</ele><time>2026-04-17T13:23:08Z</time></trkpt><trkpt lat="45.70326544139175" lon="9.700512148691661"><ele>265.8571428571429</ele><time>2026-04-17T13:23:09Z</time></trkpt><trkpt lat="45.703250190182445" lon="9.70042095756785"><ele>266.1428571428571</ele><time>2026-04-17T13:23:10Z</time></trkpt><trkpt lat="45.70323563667245" lon="9.700326293966606"><ele>266.42857142857144</ele><time>2026-04-17T13:23:11Z</time></trkpt><trkpt lat="45.70322330990137" lon="9.700237038853723"><ele>266.7142857142857</ele><time>2026-04-17T13:23:12Z</time></trkpt><trkpt lat="45.703209471738724" lon="9.700147248257597"><ele>267.0</ele><time>2026-04-17T13:23:13Z</time></trkpt><trkpt lat="45.70319792087638" lon="9.70005240274183"><ele>267.0</ele><time>2026-04-17T13:23:14Z</time></trkpt><trkpt lat="45.7031842260938" lon="9.699964243097137"><ele>267.0</ele><time>2026-04-17T13:23:15Z</time></trkpt><trkpt lat="45.703154727253796" lon="9.699787644506479"><ele>267.0</ele><time>2026-04-17T13:23:17Z</time></trkpt><trkpt lat="45.70313897684925" lon="9.69969984839049"><ele>267.0</ele><time>2026-04-17T13:23:18Z</time></trkpt><trkpt lat="45.703137194760416" lon="9.699605023318105"><ele>267.0</ele><time>2026-04-17T13:23:19Z</time></trkpt><trkpt lat="45.70312342155183" lon="9.69951373260443"><ele>267.0</ele><time>2026-04-17T13:23:20Z</time></trkpt><trkpt lat="45.70310089607793" lon="9.69933061593384"><ele>266.8</ele><time>2026-04-17T13:23:22Z</time></trkpt><trkpt lat="45.70308963650652" lon="9.69924096947594"><ele>266.6</ele><time>2026-04-17T13:23:23Z</time></trkpt><trkpt lat="45.70307810156549" lon="9.699145757954582"><ele>266.40000000000003</ele><time>2026-04-17T13:23:24Z</time></trkpt><trkpt lat="45.703051213010085" lon="9.698966571517925"><ele>266.2</ele><time>2026-04-17T13:23:26Z</time></trkpt><trkpt lat="45.703033106033814" lon="9.69878523222348"><ele>266.0</ele><time>2026-04-17T13:23:28Z</time></trkpt><trkpt lat="45.703016395988136" lon="9.698694199939176"><ele>266.0</ele><time>2026-04-17T13:23:29Z</time></trkpt><trkpt lat="45.70299722702836" lon="9.6985961757873"><ele>266.0</ele><time>2026-04-17T13:23:30Z</time></trkpt><trkpt lat="45.70298041576055" lon="9.698421536641156"><ele>266.0</ele><time>2026-04-17T13:23:32Z</time></trkpt><trkpt lat="45.702964184887406" lon="9.698322777235862"><ele>266.0</ele><time>2026-04-17T13:23:33Z</time></trkpt><trkpt lat="45.70294247499391" lon="9.698141133267322"><ele>266.0</ele><time>2026-04-17T13:23:35Z</time></trkpt><trkpt lat="45.70292867058573" lon="9.698050836318156"><ele>265.8</ele><time>2026-04-17T13:23:36Z</time></trkpt><trkpt lat="45.702907109514484" lon="9.69786768289485"><ele>265.6</ele><time>2026-04-17T13:23:38Z</time></trkpt><trkpt lat="45.702895347273135" lon="9.697774125798794"><ele>265.4</ele><time>2026-04-17T13:23:39Z</time></trkpt><trkpt lat="45.702879889541826" lon="9.697591497345948"><ele>265.2</ele><time>2026-04-17T13:23:41Z</time></trkpt><trkpt lat="45.702870356319366" lon="9.697499056778902"><ele>265.0</ele><time>2026-04-17T13:23:42Z</time></trkpt><trkpt lat="45.70286968006813" lon="9.697408290321407"><ele>264.99999999999994</ele><time>2026-04-17T13:23:43Z</time></trkpt><trkpt lat="45.702876002009845" lon="9.697317036282783"><ele>265.0</ele><time>2026-04-17T13:23:44Z</time></trkpt><trkpt lat="45.70288809624752" lon="9.697226625166767"><ele>265.0</ele><time>2026-04-17T13:23:45Z</time></trkpt><trkpt lat="45.702905572138654" lon="9.697138644177324"><ele>265.0</ele><time>2026-04-17T13:23:46Z</time></trkpt><trkpt lat="45.702925147875476" lon="9.697048992957384"><ele>265.0</ele><time>2026-04-17T13:23:47Z</time></trkpt><trkpt lat="45.70297480027488" lon="9.696885337926416"><ele>264.99999999999994</ele><time>2026-04-17T13:23:49Z</time></trkpt><trkpt lat="45.70300689058255" lon="9.696802889319212"><ele>265.0</ele><time>2026-04-17T13:23:50Z</time></trkpt><trkpt lat="45.70307395920341" lon="9.696668275261464"><ele>265.0</ele><time>2026-04-17T13:23:52Z</time></trkpt><trkpt lat="45.70313135637015" lon="9.696532824034138"><ele>265.0</ele><time>2026-04-17T13:23:54Z</time></trkpt><trkpt lat="45.70317799820733" lon="9.696434607241763"><ele>265.0</ele><time>2026-04-17T13:23:55Z</time></trkpt><trkpt lat="45.70323417977958" lon="9.696282734548324"><ele>265.0</ele><time>2026-04-17T13:23:57Z</time></trkpt><trkpt lat="45.70328133477108" lon="9.696210891293047"><ele>265.0</ele><time>2026-04-17T13:23:58Z</time></trkpt><trkpt lat="45.7033155610704" lon="9.696130304850099"><ele>265.0</ele><time>2026-04-17T13:23:59Z</time></trkpt><trkpt lat="45.70337417019296" lon="9.695983395296038"><ele>264.8</ele><time>2026-04-17T13:24:01Z</time></trkpt><trkpt lat="45.703456213548804" lon="9.695866282297509"><ele>264.6</ele><time>2026-04-17T13:24:03Z</time></trkpt><trkpt lat="45.70351716787166" lon="9.695836864096266"><ele>264.4</ele><time>2026-04-17T13:24:04Z</time></trkpt><trkpt lat="45.70358115157127" lon="9.695823384723447"><ele>264.2</ele><time>2026-04-17T13:24:05Z</time></trkpt><trkpt lat="45.70370861030233" lon="9.695857665840052"><ele>264.0</ele><time>2026-04-17T13:24:07Z</time></trkpt><trkpt lat="45.70382770142485" lon="9.695871180537699"><ele>264.4</ele><time>2026-04-17T13:24:09Z</time></trkpt><trkpt lat="45.70395041456572" lon="9.695871373262174"><ele>264.79999999999995</ele><time>2026-04-17T13:24:11Z</time></trkpt><trkpt lat="45.70407050789058" lon="9.695812111513426"><ele>265.20000000000005</ele><time>2026-04-17T13:24:13Z</time></trkpt><trkpt lat="45.704118725871574" lon="9.695752820395773"><ele>265.6</ele><time>2026-04-17T13:24:14Z</time></trkpt><trkpt lat="45.70418330445369" lon="9.695626031089214"><ele>266.0</ele><time>2026-04-17T13:24:16Z</time></trkpt><trkpt lat="45.704248854007545" lon="9.695504493577053"><ele>266.0</ele><time>2026-04-17T13:24:18Z</time></trkpt><trkpt lat="45.704351470754176" lon="9.69543456833561"><ele>266.0</ele><time>2026-04-17T13:24:20Z</time></trkpt><trkpt lat="45.70447445122619" lon="9.695417993449794"><ele>266.0</ele><time>2026-04-17T13:24:22Z</time></trkpt><trkpt lat="45.704538857332054" lon="9.695398242880882"><ele>266.0</ele><time>2026-04-17T13:24:23Z</time></trkpt><trkpt lat="45.7046591251559" lon="9.69533013735627"><ele>266.0</ele><time>2026-04-17T13:24:25Z</time></trkpt><trkpt lat="45.70471198349144" lon="9.69527924195827"><ele>266.40000000000003</ele><time>2026-04-17T13:24:26Z</time></trkpt><trkpt lat="45.70480882187187" lon="9.695163897381414"><ele>266.8</ele><time>2026-04-17T13:24:28Z</time></trkpt><trkpt lat="45.704888879641466" lon="9.695019922754554"><ele>267.20000000000005</ele><time>2026-04-17T13:24:30Z</time></trkpt><trkpt lat="45.70491459074412" lon="9.694932246877702"><ele>267.6</ele><time>2026-04-17T13:24:31Z</time></trkpt><trkpt lat="45.704941776150164" lon="9.694850129405378"><ele>268.0</ele><time>2026-04-17T13:24:32Z</time></trkpt><trkpt lat="45.70500153080736" lon="9.694698494036713"><ele>268.0</ele><time>2026-04-17T13:24:34Z</time></trkpt><trkpt lat="45.705071207047204" lon="9.694667282505605"><ele>268.0</ele><time>2026-04-17T13:24:35Z</time></trkpt><trkpt lat="45.70518799243569" lon="9.694595423835494"><ele>268.0</ele><time>2026-04-17T13:24:37Z</time></trkpt><trkpt lat="45.705304790187185" lon="9.694539331525352"><ele>268.0</ele><time>2026-04-17T13:24:39Z</time></trkpt><trkpt lat="45.70542519931363" lon="9.694484631581084"><ele>267.5</ele><time>2026-04-17T13:24:41Z</time></trkpt><trkpt lat="45.705537992496325" lon="9.694404165858796"><ele>267.0</ele><time>2026-04-17T13:24:43Z</time></trkpt><trkpt lat="45.705653431619254" lon="9.694333107634929"><ele>266.5</ele><time>2026-04-17T13:24:45Z</time></trkpt><trkpt lat="45.70577701125192" lon="9.694273227418094"><ele>266.0</ele><time>2026-04-17T13:24:47Z</time></trkpt><trkpt lat="45.7058986486527" lon="9.694222150016236"><ele>266.0</ele><time>2026-04-17T13:24:49Z</time></trkpt><trkpt lat="45.70596081455304" lon="9.694193895014447"><ele>266.0</ele><time>2026-04-17T13:24:50Z</time></trkpt><trkpt lat="45.7060224098218" lon="9.694163826423578"><ele>266.0</ele><time>2026-04-17T13:24:51Z</time></trkpt><trkpt lat="45.706084151525445" lon="9.69413276536435"><ele>266.0</ele><time>2026-04-17T13:24:52Z</time></trkpt><trkpt lat="45.7061435831764" lon="9.694091195519645"><ele>266.0</ele><time>2026-04-17T13:24:53Z</time></trkpt><trkpt lat="45.70620194777626" lon="9.69405478725725"><ele>266.0</ele><time>2026-04-17T13:24:54Z</time></trkpt><trkpt lat="45.706261517111244" lon="9.694014719079577"><ele>266.0</ele><time>2026-04-17T13:24:55Z</time></trkpt><trkpt lat="45.70632016819919" lon="9.693974152357859"><ele>266.40000000000003</ele><time>2026-04-17T13:24:56Z</time></trkpt><trkpt lat="45.70637652860562" lon="9.693931762059776"><ele>266.8</ele><time>2026-04-17T13:24:57Z</time></trkpt><trkpt lat="45.7064329631079" lon="9.693882732458688"><ele>267.20000000000005</ele><time>2026-04-17T13:24:58Z</time></trkpt><trkpt lat="45.70654412037239" lon="9.693790459500375"><ele>267.6</ele><time>2026-04-17T13:25:00Z</time></trkpt><trkpt lat="45.706644580829696" lon="9.693692844159624"><ele>268.0</ele><time>2026-04-17T13:25:02Z</time></trkpt><trkpt lat="45.70674658379304" lon="9.693597086718075"><ele>267.5</ele><time>2026-04-17T13:25:04Z</time></trkpt><trkpt lat="45.706844699565146" lon="9.693498523335062"><ele>267.0</ele><time>2026-04-17T13:25:06Z</time></trkpt><trkpt lat="45.70694162442051" lon="9.693391332975528"><ele>266.5</ele><time>2026-04-17T13:25:08Z</time></trkpt><trkpt lat="45.70703152930054" lon="9.69329300558984"><ele>266.0</ele><time>2026-04-17T13:25:10Z</time></trkpt><trkpt lat="45.70711005614865" lon="9.693155847737863"><ele>266.0</ele><time>2026-04-17T13:25:12Z</time></trkpt><trkpt lat="45.707196676021816" lon="9.693036204466308"><ele>266.0</ele><time>2026-04-17T13:25:14Z</time></trkpt><trkpt lat="45.707279635881825" lon="9.692908793646994"><ele>266.0</ele><time>2026-04-17T13:25:16Z</time></trkpt><trkpt lat="45.7073655647239" lon="9.692783795897029"><ele>266.0</ele><time>2026-04-17T13:25:18Z</time></trkpt><trkpt lat="45.70744638820395" lon="9.692652241732716"><ele>265.6</ele><time>2026-04-17T13:25:20Z</time></trkpt><trkpt lat="45.707491452792695" lon="9.692588205046912"><ele>265.20000000000005</ele><time>2026-04-17T13:25:21Z</time></trkpt><trkpt lat="45.70757519918823" lon="9.692452180802027"><ele>264.79999999999995</ele><time>2026-04-17T13:25:23Z</time></trkpt><trkpt lat="45.70765938837189" lon="9.692323915766279"><ele>264.4</ele><time>2026-04-17T13:25:25Z</time></trkpt><trkpt lat="45.707740629197616" lon="9.692191547600629"><ele>264.0</ele><time>2026-04-17T13:25:27Z</time></trkpt><trkpt lat="45.707783170147785" lon="9.692122790414881"><ele>265.0</ele><time>2026-04-17T13:25:28Z</time></trkpt><trkpt lat="45.70782676746253" lon="9.692055902457243"><ele>266.0</ele><time>2026-04-17T13:25:29Z</time></trkpt><trkpt lat="45.707911231392835" lon="9.691922339843439"><ele>267.0</ele><time>2026-04-17T13:25:31Z</time></trkpt><trkpt lat="45.70799517970959" lon="9.691792780180172"><ele>268.0</ele><time>2026-04-17T13:25:33Z</time></trkpt><trkpt lat="45.708074829016276" lon="9.691662829904399"><ele>269.0</ele><time>2026-04-17T13:25:35Z</time></trkpt><trkpt lat="45.70815823872" lon="9.691533056744243"><ele>269.0</ele><time>2026-04-17T13:25:37Z</time></trkpt><trkpt lat="45.7082454329133" lon="9.691398997673636"><ele>269.0</ele><time>2026-04-17T13:25:39Z</time></trkpt><trkpt lat="45.708287705161595" lon="9.691331197908378"><ele>269.0</ele><time>2026-04-17T13:25:40Z</time></trkpt><trkpt lat="45.708336362388" lon="9.69125373336215"><ele>269.0</ele><time>2026-04-17T13:25:41Z</time></trkpt><trkpt lat="45.708384270363254" lon="9.691179264542273"><ele>269.0</ele><time>2026-04-17T13:25:42Z</time></trkpt><trkpt lat="45.708432143837236" lon="9.69110090863517"><ele>269.0</ele><time>2026-04-17T13:25:43Z</time></trkpt><trkpt lat="45.70848575068657" lon="9.691021411374354"><ele>269.0</ele><time>2026-04-17T13:25:44Z</time></trkpt><trkpt lat="45.708534358885885" lon="9.69093802654857"><ele>269.0</ele><time>2026-04-17T13:25:45Z</time></trkpt><trkpt lat="45.708589082037115" lon="9.690853434060951"><ele>269.0</ele><time>2026-04-17T13:25:46Z</time></trkpt><trkpt lat="45.708644505649666" lon="9.690764335827081"><ele>269.0</ele><time>2026-04-17T13:25:47Z</time></trkpt><trkpt lat="45.70870325686759" lon="9.69067933238719"><ele>269.0</ele><time>2026-04-17T13:25:48Z</time></trkpt><trkpt lat="45.70875817783241" lon="9.690588571125126"><ele>269.0</ele><time>2026-04-17T13:25:49Z</time></trkpt><trkpt lat="45.70881628160628" lon="9.690504044165387"><ele>269.0</ele><time>2026-04-17T13:25:50Z</time></trkpt><trkpt lat="45.708872165708044" lon="9.690416758849523"><ele>269.0</ele><time>2026-04-17T13:25:51Z</time></trkpt><trkpt lat="45.70892272043126" lon="9.690330593456688"><ele>269.0</ele><time>2026-04-17T13:25:52Z</time></trkpt><trkpt lat="45.708982154735224" lon="9.690254273075825"><ele>269.0</ele><time>2026-04-17T13:25:53Z</time></trkpt><trkpt lat="45.7090358848778" lon="9.690181119021256"><ele>269.0</ele><time>2026-04-17T13:25:54Z</time></trkpt><trkpt lat="45.70908859627231" lon="9.690106773829106"><ele>269.0</ele><time>2026-04-17T13:25:55Z</time></trkpt><trkpt lat="45.709148965168254" lon="9.690054246504447"><ele>269.0</ele><time>2026-04-17T13:25:56Z</time></trkpt><trkpt lat="45.70920250641059" lon="9.689981777913017"><ele>269.0</ele><time>2026-04-17T13:25:57Z</time></trkpt><trkpt lat="45.70925312544702" lon="9.689921054116523"><ele>269.0</ele><time>2026-04-17T13:25:58Z</time></trkpt><trkpt lat="45.709363471260694" lon="9.68982152485333"><ele>269.0</ele><time>2026-04-17T13:26:00Z</time></trkpt><trkpt lat="45.709416856259125" lon="9.689773436833793"><ele>269.0</ele><time>2026-04-17T13:26:01Z</time></trkpt><trkpt lat="45.709526969521505" lon="9.68967922661974"><ele>269.0</ele><time>2026-04-17T13:26:03Z</time></trkpt><trkpt lat="45.709639920558075" lon="9.68959089605016"><ele>269.0</ele><time>2026-04-17T13:26:05Z</time></trkpt><trkpt lat="45.70974315993379" lon="9.689486876812985"><ele>269.0</ele><time>2026-04-17T13:26:07Z</time></trkpt><trkpt lat="45.70979790387128" lon="9.689440075368037"><ele>269.0</ele><time>2026-04-17T13:26:08Z</time></trkpt><trkpt lat="45.70990783096397" lon="9.689343293181452"><ele>269.0</ele><time>2026-04-17T13:26:10Z</time></trkpt><trkpt lat="45.70996492068456" lon="9.68930261150954"><ele>269.0</ele><time>2026-04-17T13:26:11Z</time></trkpt><trkpt lat="45.710069727097405" lon="9.689209191347269"><ele>269.0</ele><time>2026-04-17T13:26:13Z</time></trkpt><trkpt lat="45.71012783461342" lon="9.689161035388945"><ele>269.0</ele><time>2026-04-17T13:26:14Z</time></trkpt><trkpt lat="45.71023232463688" lon="9.68906394755226"><ele>269.0</ele><time>2026-04-17T13:26:16Z</time></trkpt><trkpt lat="45.71028678889766" lon="9.689017919654015"><ele>269.0</ele><time>2026-04-17T13:26:17Z</time></trkpt><trkpt lat="45.71034468571423" lon="9.688973344557962"><ele>269.0</ele><time>2026-04-17T13:26:18Z</time></trkpt><trkpt lat="45.710448843794985" lon="9.688880863569203"><ele>269.4</ele><time>2026-04-17T13:26:20Z</time></trkpt><trkpt lat="45.71050374006126" lon="9.688833146447315"><ele>269.79999999999995</ele><time>2026-04-17T13:26:21Z</time></trkpt><trkpt lat="45.710612392483526" lon="9.688737248627904"><ele>270.20000000000005</ele><time>2026-04-17T13:26:23Z</time></trkpt><trkpt lat="45.71072495326671" lon="9.688660968185347"><ele>270.6</ele><time>2026-04-17T13:26:25Z</time></trkpt><trkpt lat="45.71082482319616" lon="9.688561321525164"><ele>271.0</ele><time>2026-04-17T13:26:27Z</time></trkpt><trkpt lat="45.71093325440432" lon="9.688464832810633"><ele>271.0</ele><time>2026-04-17T13:26:29Z</time></trkpt><trkpt lat="45.710987804038666" lon="9.688417390861074"><ele>271.0</ele><time>2026-04-17T13:26:30Z</time></trkpt><trkpt lat="45.71108652427673" lon="9.688304194919288"><ele>271.0</ele><time>2026-04-17T13:26:32Z</time></trkpt><trkpt lat="45.71114065889234" lon="9.688257758953544"><ele>271.0</ele><time>2026-04-17T13:26:33Z</time></trkpt><trkpt lat="45.711193086566546" lon="9.688206386178107"><ele>271.0</ele><time>2026-04-17T13:26:34Z</time></trkpt><trkpt lat="45.71129135456121" lon="9.68808839497795"><ele>271.0</ele><time>2026-04-17T13:26:36Z</time></trkpt><trkpt lat="45.711343163197384" lon="9.688031588665991"><ele>271.2</ele><time>2026-04-17T13:26:37Z</time></trkpt><trkpt lat="45.7114337708975" lon="9.687908900050232"><ele>271.40000000000003</ele><time>2026-04-17T13:26:39Z</time></trkpt><trkpt lat="45.711483822024995" lon="9.68785409836972"><ele>271.6</ele><time>2026-04-17T13:26:40Z</time></trkpt><trkpt lat="45.711527275498845" lon="9.687781928654775"><ele>271.8</ele><time>2026-04-17T13:26:41Z</time></trkpt><trkpt lat="45.711622226447645" lon="9.687653563292221"><ele>272.0</ele><time>2026-04-17T13:26:43Z</time></trkpt><trkpt lat="45.711700276460974" lon="9.687519770090228"><ele>272.0</ele><time>2026-04-17T13:26:45Z</time></trkpt><trkpt lat="45.711748909855416" lon="9.687455185747963"><ele>272.0</ele><time>2026-04-17T13:26:46Z</time></trkpt><trkpt lat="45.7118215495212" lon="9.687312993714517"><ele>272.0</ele><time>2026-04-17T13:26:48Z</time></trkpt><trkpt lat="45.7118637813582" lon="9.687239971693867"><ele>272.0</ele><time>2026-04-17T13:26:49Z</time></trkpt><trkpt lat="45.71194004288828" lon="9.687097568791863"><ele>272.0</ele><time>2026-04-17T13:26:51Z</time></trkpt><trkpt lat="45.71197535563915" lon="9.687022259405849"><ele>272.0</ele><time>2026-04-17T13:26:52Z</time></trkpt><trkpt lat="45.712009855394406" lon="9.686946041698816"><ele>272.6666666666667</ele><time>2026-04-17T13:26:53Z</time></trkpt><trkpt lat="45.71205254929791" lon="9.686871451996849"><ele>273.33333333333337</ele><time>2026-04-17T13:26:54Z</time></trkpt><trkpt lat="45.71208883992541" lon="9.686796515289865"><ele>274.0</ele><time>2026-04-17T13:26:55Z</time></trkpt><trkpt lat="45.7121205981639" lon="9.686717547502031"><ele>274.6666666666667</ele><time>2026-04-17T13:26:56Z</time></trkpt><trkpt lat="45.71218230441677" lon="9.68656385781126"><ele>275.3333333333333</ele><time>2026-04-17T13:26:58Z</time></trkpt><trkpt lat="45.712242691510745" lon="9.686424102349205"><ele>276.0</ele><time>2026-04-17T13:27:00Z</time></trkpt><trkpt lat="45.71230923608134" lon="9.686281770631126"><ele>276.0</ele><time>2026-04-17T13:27:02Z</time></trkpt><trkpt lat="45.71233791747253" lon="9.68619724821284"><ele>276.0</ele><time>2026-04-17T13:27:03Z</time></trkpt><trkpt lat="45.7123747666159" lon="9.686113559506865"><ele>276.0</ele><time>2026-04-17T13:27:04Z</time></trkpt><trkpt lat="45.71240762023975" lon="9.686034750092746"><ele>276.0</ele><time>2026-04-17T13:27:05Z</time></trkpt><trkpt lat="45.712440165328395" lon="9.685955262834524"><ele>276.0</ele><time>2026-04-17T13:27:06Z</time></trkpt><trkpt lat="45.71247780574689" lon="9.685865759954474"><ele>276.0</ele><time>2026-04-17T13:27:07Z</time></trkpt><trkpt lat="45.712542713010926" lon="9.685705654732676"><ele>276.0</ele><time>2026-04-17T13:27:09Z</time></trkpt><trkpt lat="45.71257923548297" lon="9.685627949051291"><ele>276.0</ele><time>2026-04-17T13:27:10Z</time></trkpt><trkpt lat="45.71261212030245" lon="9.685538892114318"><ele>276.0</ele><time>2026-04-17T13:27:11Z</time></trkpt><trkpt lat="45.712644944412475" lon="9.685455460501357"><ele>276.0</ele><time>2026-04-17T13:27:12Z</time></trkpt><trkpt lat="45.71267908427056" lon="9.68536713296388"><ele>276.0</ele><time>2026-04-17T13:27:13Z</time></trkpt><trkpt lat="45.71270449372562" lon="9.685272791546735"><ele>276.0</ele><time>2026-04-17T13:27:14Z</time></trkpt><trkpt lat="45.71277821084756" lon="9.685123028449874"><ele>276.6666666666667</ele><time>2026-04-17T13:27:16Z</time></trkpt><trkpt lat="45.71281107724115" lon="9.685043613931553"><ele>277.3333333333333</ele><time>2026-04-17T13:27:17Z</time></trkpt><trkpt lat="45.71284164012557" lon="9.68496240674135"><ele>278.0</ele><time>2026-04-17T13:27:18Z</time></trkpt><trkpt lat="45.71287471124726" lon="9.684874971545806"><ele>278.66666666666663</ele><time>2026-04-17T13:27:19Z</time></trkpt><trkpt lat="45.712912943373176" lon="9.684801657395026"><ele>279.3333333333333</ele><time>2026-04-17T13:27:20Z</time></trkpt><trkpt lat="45.712949538907296" lon="9.684721190286844"><ele>280.0</ele><time>2026-04-17T13:27:21Z</time></trkpt><trkpt lat="45.71301237812573" lon="9.684566098747435"><ele>280.0</ele><time>2026-04-17T13:27:23Z</time></trkpt><trkpt lat="45.71304324589575" lon="9.684486454227715"><ele>280.0</ele><time>2026-04-17T13:27:24Z</time></trkpt><trkpt lat="45.71307783696951" lon="9.684409606354356"><ele>280.0</ele><time>2026-04-17T13:27:25Z</time></trkpt><trkpt lat="45.713110567012585" lon="9.684327735704711"><ele>280.0</ele><time>2026-04-17T13:27:26Z</time></trkpt><trkpt lat="45.7131420291823" lon="9.684246083315779"><ele>280.0</ele><time>2026-04-17T13:27:27Z</time></trkpt><trkpt lat="45.71317468064363" lon="9.684166885336506"><ele>280.0</ele><time>2026-04-17T13:27:28Z</time></trkpt><trkpt lat="45.71320522352109" lon="9.68408194162925"><ele>280.0</ele><time>2026-04-17T13:27:29Z</time></trkpt><trkpt lat="45.71327044959462" lon="9.683924531103106"><ele>279.16666666666663</ele><time>2026-04-17T13:27:31Z</time></trkpt><trkpt lat="45.71330583858812" lon="9.683846806798641"><ele>278.3333333333333</ele><time>2026-04-17T13:27:32Z</time></trkpt><trkpt lat="45.713336516035305" lon="9.683767536193146"><ele>277.5</ele><time>2026-04-17T13:27:33Z</time></trkpt><trkpt lat="45.71337148499595" lon="9.68368480377595"><ele>276.6666666666667</ele><time>2026-04-17T13:27:34Z</time></trkpt><trkpt lat="45.71340313277589" lon="9.683601765099336"><ele>275.83333333333337</ele><time>2026-04-17T13:27:35Z</time></trkpt><trkpt lat="45.713437937628996" lon="9.6835227649253"><ele>275.0</ele><time>2026-04-17T13:27:36Z</time></trkpt><trkpt lat="45.713502503418916" lon="9.683364346674155"><ele>275.33333333333337</ele><time>2026-04-17T13:27:38Z</time></trkpt><trkpt lat="45.71353577497985" lon="9.683284434772577"><ele>275.6666666666667</ele><time>2026-04-17T13:27:39Z</time></trkpt><trkpt lat="45.7135768175682" lon="9.683215094362431"><ele>276.0</ele><time>2026-04-17T13:27:40Z</time></trkpt><trkpt lat="45.71363230981132" lon="9.68304947016697"><ele>276.3333333333333</ele><time>2026-04-17T13:27:42Z</time></trkpt><trkpt lat="45.713656536163896" lon="9.682964694685205"><ele>276.66666666666663</ele><time>2026-04-17T13:27:43Z</time></trkpt><trkpt lat="45.713698819901325" lon="9.682802281409437"><ele>277.0</ele><time>2026-04-17T13:27:45Z</time></trkpt><trkpt lat="45.713723019521126" lon="9.68271696699635"><ele>276.2</ele><time>2026-04-17T13:27:46Z</time></trkpt><trkpt lat="45.71376059026917" lon="9.682552117171992"><ele>275.4</ele><time>2026-04-17T13:27:48Z</time></trkpt><trkpt lat="45.713789409401706" lon="9.682465458403637"><ele>274.6</ele><time>2026-04-17T13:27:49Z</time></trkpt><trkpt lat="45.713824997462396" lon="9.682289816615631"><ele>273.8</ele><time>2026-04-17T13:27:51Z</time></trkpt><trkpt lat="45.713857812471396" lon="9.682120368845732"><ele>273.0</ele><time>2026-04-17T13:27:53Z</time></trkpt><trkpt lat="45.713877531215616" lon="9.682026228862492"><ele>272.6666666666667</ele><time>2026-04-17T13:27:54Z</time></trkpt><trkpt lat="45.71391022516707" lon="9.681842896357209"><ele>272.3333333333333</ele><time>2026-04-17T13:27:56Z</time></trkpt><trkpt lat="45.71392861074128" lon="9.681754546904003"><ele>272.0</ele><time>2026-04-17T13:27:57Z</time></trkpt><trkpt lat="45.71394270333159" lon="9.68166205082351"><ele>271.66666666666663</ele><time>2026-04-17T13:27:58Z</time></trkpt><trkpt lat="45.71396280163328" lon="9.681561446656291"><ele>271.3333333333333</ele><time>2026-04-17T13:27:59Z</time></trkpt><trkpt lat="45.713977129115165" lon="9.681472698622747"><ele>271.0</ele><time>2026-04-17T13:28:00Z</time></trkpt><trkpt lat="45.71399827216824" lon="9.681375636050378"><ele>271.0</ele><time>2026-04-17T13:28:01Z</time></trkpt><trkpt lat="45.714014652557275" lon="9.681271846974571"><ele>271.0</ele><time>2026-04-17T13:28:02Z</time></trkpt><trkpt lat="45.71403330212647" lon="9.681177821403805"><ele>271.0</ele><time>2026-04-17T13:28:03Z</time></trkpt><trkpt lat="45.71405199751891" lon="9.681073740165543"><ele>271.0</ele><time>2026-04-17T13:28:04Z</time></trkpt><trkpt lat="45.71407302458447" lon="9.680970885687731"><ele>271.0</ele><time>2026-04-17T13:28:05Z</time></trkpt><trkpt lat="45.714095027198624" lon="9.680868715888186"><ele>271.0</ele><time>2026-04-17T13:28:06Z</time></trkpt><trkpt lat="45.714112821548326" lon="9.680761282732176"><ele>271.0</ele><time>2026-04-17T13:28:07Z</time></trkpt><trkpt lat="45.71413157491103" lon="9.680651618168154"><ele>271.0</ele><time>2026-04-17T13:28:08Z</time></trkpt><trkpt lat="45.71414795306335" lon="9.680545361160501"><ele>271.0</ele><time>2026-04-17T13:28:09Z</time></trkpt><trkpt lat="45.714174536241266" lon="9.680439932957203"><ele>271.0</ele><time>2026-04-17T13:28:10Z</time></trkpt><trkpt lat="45.714190201794864" lon="9.680334545109632"><ele>271.0</ele><time>2026-04-17T13:28:11Z</time></trkpt><trkpt lat="45.71420631447531" lon="9.680226833026813"><ele>271.0</ele><time>2026-04-17T13:28:12Z</time></trkpt><trkpt lat="45.71422415882539" lon="9.680123401814129"><ele>271.0</ele><time>2026-04-17T13:28:13Z</time></trkpt><trkpt lat="45.71424671916702" lon="9.680032288260724"><ele>271.0</ele><time>2026-04-17T13:28:14Z</time></trkpt><trkpt lat="45.71426484142486" lon="9.679936108010224"><ele>271.1428571428571</ele><time>2026-04-17T13:28:15Z</time></trkpt><trkpt lat="45.714289267652944" lon="9.679847273983457"><ele>271.2857142857143</ele><time>2026-04-17T13:28:16Z</time></trkpt><trkpt lat="45.71428754166685" lon="9.679754342205651"><ele>271.42857142857144</ele><time>2026-04-17T13:28:17Z</time></trkpt><trkpt lat="45.71431429303406" lon="9.679668478158913"><ele>271.57142857142856</ele><time>2026-04-17T13:28:18Z</time></trkpt><trkpt lat="45.714327912340394" lon="9.67957891834657"><ele>271.7142857142857</ele><time>2026-04-17T13:28:19Z</time></trkpt><trkpt lat="45.7143447290325" lon="9.679491521659308"><ele>271.85714285714283</ele><time>2026-04-17T13:28:20Z</time></trkpt><trkpt lat="45.7143617138144" lon="9.679401225354127"><ele>272.0</ele><time>2026-04-17T13:28:21Z</time></trkpt><trkpt lat="45.71438284650665" lon="9.67931573076768"><ele>272.25</ele><time>2026-04-17T13:28:22Z</time></trkpt><trkpt lat="45.71441525578861" lon="9.679139512283953"><ele>272.5</ele><time>2026-04-17T13:28:24Z</time></trkpt><trkpt lat="45.71444297191815" lon="9.678964980321751"><ele>272.75</ele><time>2026-04-17T13:28:26Z</time></trkpt><trkpt lat="45.714479895100226" lon="9.67879046218359"><ele>273.0</ele><time>2026-04-17T13:28:28Z</time></trkpt><trkpt lat="45.714507384527465" lon="9.678614444268707"><ele>273.0</ele><time>2026-04-17T13:28:30Z</time></trkpt><trkpt lat="45.71454229814622" lon="9.67844503672161"><ele>273.0</ele><time>2026-04-17T13:28:32Z</time></trkpt><trkpt lat="45.71457571703651" lon="9.678272808897987"><ele>273.0</ele><time>2026-04-17T13:28:34Z</time></trkpt><trkpt lat="45.71460893127084" lon="9.67810084170103"><ele>273.0</ele><time>2026-04-17T13:28:36Z</time></trkpt><trkpt lat="45.71464091363111" lon="9.677933903508954"><ele>272.8</ele><time>2026-04-17T13:28:38Z</time></trkpt><trkpt lat="45.71467194543365" lon="9.677762044803123"><ele>272.6</ele><time>2026-04-17T13:28:40Z</time></trkpt><trkpt lat="45.714709360342155" lon="9.677591997763486"><ele>272.4</ele><time>2026-04-17T13:28:42Z</time></trkpt><trkpt lat="45.71474005510383" lon="9.677419873540373"><ele>272.2</ele><time>2026-04-17T13:28:44Z</time></trkpt><trkpt lat="45.714754233503605" lon="9.677330813017793"><ele>272.0</ele><time>2026-04-17T13:28:45Z</time></trkpt><trkpt lat="45.71479236700554" lon="9.677154343300996"><ele>272.0</ele><time>2026-04-17T13:28:47Z</time></trkpt><trkpt lat="45.71482217520221" lon="9.676983048747914"><ele>272.0</ele><time>2026-04-17T13:28:49Z</time></trkpt><trkpt lat="45.714839581235076" lon="9.67689541690294"><ele>272.0</ele><time>2026-04-17T13:28:50Z</time></trkpt><trkpt lat="45.714872828672846" lon="9.676723976119836"><ele>272.0</ele><time>2026-04-17T13:28:52Z</time></trkpt><trkpt lat="45.71490448928513" lon="9.676553679746563"><ele>272.0</ele><time>2026-04-17T13:28:54Z</time></trkpt><trkpt lat="45.714935781772326" lon="9.67638162158747"><ele>272.0</ele><time>2026-04-17T13:28:56Z</time></trkpt><trkpt lat="45.71496890128102" lon="9.676212169721381"><ele>272.0</ele><time>2026-04-17T13:28:58Z</time></trkpt><trkpt lat="45.71499749164584" lon="9.676040619004654"><ele>272.0</ele><time>2026-04-17T13:29:00Z</time></trkpt><trkpt lat="45.71503283115733" lon="9.675873287724027"><ele>272.0</ele><time>2026-04-17T13:29:02Z</time></trkpt><trkpt lat="45.71506639722972" lon="9.675698631352823"><ele>272.0</ele><time>2026-04-17T13:29:04Z</time></trkpt><trkpt lat="45.715096799295516" lon="9.675524503219455"><ele>272.0</ele><time>2026-04-17T13:29:06Z</time></trkpt><trkpt lat="45.71511410324795" lon="9.675433769894644"><ele>272.0</ele><time>2026-04-17T13:29:07Z</time></trkpt><trkpt lat="45.71514876205059" lon="9.675256556648907"><ele>272.0</ele><time>2026-04-17T13:29:09Z</time></trkpt><trkpt lat="45.71518751212344" lon="9.675080478889239"><ele>272.0</ele><time>2026-04-17T13:29:11Z</time></trkpt><trkpt lat="45.71521067530301" lon="9.674992806403544"><ele>272.6</ele><time>2026-04-17T13:29:12Z</time></trkpt><trkpt lat="45.71525166857555" lon="9.6748085625632"><ele>273.2</ele><time>2026-04-17T13:29:14Z</time></trkpt><trkpt lat="45.71530235793486" lon="9.674636378062532"><ele>273.8</ele><time>2026-04-17T13:29:16Z</time></trkpt><trkpt lat="45.715327911653524" lon="9.674539238240149"><ele>274.4</ele><time>2026-04-17T13:29:17Z</time></trkpt><trkpt lat="45.71536339887408" lon="9.674458886678355"><ele>275.0</ele><time>2026-04-17T13:29:18Z</time></trkpt><trkpt lat="45.71538417731658" lon="9.674362135731904"><ele>275.0</ele><time>2026-04-17T13:29:19Z</time></trkpt><trkpt lat="45.71541256132769" lon="9.674265440622355"><ele>275.0</ele><time>2026-04-17T13:29:20Z</time></trkpt><trkpt lat="45.71545195477303" lon="9.674176792483712"><ele>275.0</ele><time>2026-04-17T13:29:21Z</time></trkpt><trkpt lat="45.715473833138844" lon="9.674077009051786"><ele>275.0</ele><time>2026-04-17T13:29:22Z</time></trkpt><trkpt lat="45.71550759360924" lon="9.673980631323817"><ele>275.0</ele><time>2026-04-17T13:29:23Z</time></trkpt><trkpt lat="45.71554510094343" lon="9.673892010455543"><ele>275.0</ele><time>2026-04-17T13:29:24Z</time></trkpt><trkpt lat="45.71557010345583" lon="9.673785141735163"><ele>275.0</ele><time>2026-04-17T13:29:25Z</time></trkpt><trkpt lat="45.7156047706" lon="9.673693605493748"><ele>274.57142857142856</ele><time>2026-04-17T13:29:26Z</time></trkpt><trkpt lat="45.71563333687693" lon="9.673599024296989"><ele>274.1428571428571</ele><time>2026-04-17T13:29:27Z</time></trkpt><trkpt lat="45.71565956204688" lon="9.673505349671125"><ele>273.71428571428567</ele><time>2026-04-17T13:29:28Z</time></trkpt><trkpt lat="45.715694889163885" lon="9.673422271830809"><ele>273.2857142857143</ele><time>2026-04-17T13:29:29Z</time></trkpt><trkpt lat="45.71572379384129" lon="9.673333552545035"><ele>272.85714285714283</ele><time>2026-04-17T13:29:30Z</time></trkpt><trkpt lat="45.715753590959544" lon="9.673239230031516"><ele>272.4285714285714</ele><time>2026-04-17T13:29:31Z</time></trkpt><trkpt lat="45.71578331581434" lon="9.673148350990395"><ele>272.0</ele><time>2026-04-17T13:29:32Z</time></trkpt><trkpt lat="45.715813869908125" lon="9.673056898895926"><ele>272.0</ele><time>2026-04-17T13:29:33Z</time></trkpt><trkpt lat="45.71586740373678" lon="9.672914724044714"><ele>272.0</ele><time>2026-04-17T13:29:35Z</time></trkpt><trkpt lat="45.71592125798495" lon="9.672752736592452"><ele>272.0</ele><time>2026-04-17T13:29:37Z</time></trkpt><trkpt lat="45.715947633715565" lon="9.6726626363277"><ele>272.0</ele><time>2026-04-17T13:29:38Z</time></trkpt><trkpt lat="45.71600221078405" lon="9.672499297708095"><ele>272.0</ele><time>2026-04-17T13:29:40Z</time></trkpt><trkpt lat="45.71602954812407" lon="9.672414581985564"><ele>272.1428571428571</ele><time>2026-04-17T13:29:41Z</time></trkpt><trkpt lat="45.716054592094615" lon="9.67233009259179"><ele>272.2857142857143</ele><time>2026-04-17T13:29:42Z</time></trkpt><trkpt lat="45.71608364796345" lon="9.672248928356673"><ele>272.42857142857144</ele><time>2026-04-17T13:29:43Z</time></trkpt><trkpt lat="45.716113947790674" lon="9.672163834683635"><ele>272.57142857142856</ele><time>2026-04-17T13:29:44Z</time></trkpt><trkpt lat="45.71613837026894" lon="9.672080321290961"><ele>272.7142857142857</ele><time>2026-04-17T13:29:45Z</time></trkpt><trkpt lat="45.71618351918854" lon="9.671915447323999"><ele>272.85714285714283</ele><time>2026-04-17T13:29:47Z</time></trkpt><trkpt lat="45.716208518637785" lon="9.671830476658421"><ele>273.0</ele><time>2026-04-17T13:29:48Z</time></trkpt><trkpt lat="45.71625186896666" lon="9.671660280445133"><ele>273.6666666666667</ele><time>2026-04-17T13:29:50Z</time></trkpt><trkpt lat="45.71629428619654" lon="9.671490433570849"><ele>274.3333333333333</ele><time>2026-04-17T13:29:52Z</time></trkpt><trkpt lat="45.716312116573064" lon="9.671403252137452"><ele>275.0</ele><time>2026-04-17T13:29:53Z</time></trkpt><trkpt lat="45.716332323396124" lon="9.671314691569943"><ele>275.66666666666663</ele><time>2026-04-17T13:29:54Z</time></trkpt><trkpt lat="45.71635291225915" lon="9.671228382686968"><ele>276.3333333333333</ele><time>2026-04-17T13:29:55Z</time></trkpt><trkpt lat="45.71638900924944" lon="9.671049641715458"><ele>277.0</ele><time>2026-04-17T13:29:57Z</time></trkpt><trkpt lat="45.71640887312481" lon="9.670961250971192"><ele>277.16666666666663</ele><time>2026-04-17T13:29:58Z</time></trkpt><trkpt lat="45.71642543053109" lon="9.670872893347116"><ele>277.3333333333333</ele><time>2026-04-17T13:29:59Z</time></trkpt><trkpt lat="45.71644575511999" lon="9.670782284827363"><ele>277.5</ele><time>2026-04-17T13:30:00Z</time></trkpt><trkpt lat="45.716485130313885" lon="9.670609507208795"><ele>277.6666666666667</ele><time>2026-04-17T13:30:02Z</time></trkpt><trkpt lat="45.71650103737203" lon="9.670516941490874"><ele>277.83333333333337</ele><time>2026-04-17T13:30:03Z</time></trkpt><trkpt lat="45.716546517157596" lon="9.67035196643407"><ele>278.0</ele><time>2026-04-17T13:30:05Z</time></trkpt><trkpt lat="45.71658767929594" lon="9.670281302899523"><ele>278.0</ele><time>2026-04-17T13:30:06Z</time></trkpt><trkpt lat="45.716568399582584" lon="9.67017449524639"><ele>278.0</ele><time>2026-04-17T13:30:07Z</time></trkpt><trkpt lat="45.71660771678721" lon="9.67000592218663"><ele>278.0</ele><time>2026-04-17T13:30:09Z</time></trkpt><trkpt lat="45.71662907676135" lon="9.669919614372848"><ele>278.0</ele><time>2026-04-17T13:30:10Z</time></trkpt><trkpt lat="45.716663247003595" lon="9.669751555704487"><ele>278.0</ele><time>2026-04-17T13:30:12Z</time></trkpt><trkpt lat="45.71669822293148" lon="9.669581522992353"><ele>278.0</ele><time>2026-04-17T13:30:14Z</time></trkpt><trkpt lat="45.71673474261488" lon="9.66941530602234"><ele>278.0</ele><time>2026-04-17T13:30:16Z</time></trkpt><trkpt lat="45.716784898339675" lon="9.669251317550286"><ele>278.0</ele><time>2026-04-17T13:30:18Z</time></trkpt><trkpt lat="45.71682354240382" lon="9.669077532712326"><ele>278.0</ele><time>2026-04-17T13:30:20Z</time></trkpt><trkpt lat="45.716877167774776" lon="9.668919607653189"><ele>278.5</ele><time>2026-04-17T13:30:22Z</time></trkpt><trkpt lat="45.71692259280678" lon="9.668756411233122"><ele>279.0</ele><time>2026-04-17T13:30:24Z</time></trkpt><trkpt lat="45.716955197248645" lon="9.668678843913883"><ele>279.5</ele><time>2026-04-17T13:30:25Z</time></trkpt><trkpt lat="45.71700773469789" lon="9.668523189932568"><ele>280.0</ele><time>2026-04-17T13:30:27Z</time></trkpt><trkpt lat="45.71703262747169" lon="9.668434175185565"><ele>280.5</ele><time>2026-04-17T13:30:28Z</time></trkpt><trkpt lat="45.717060336337745" lon="9.668350448563478"><ele>281.0</ele><time>2026-04-17T13:30:29Z</time></trkpt><trkpt lat="45.71711226640126" lon="9.668186063698444"><ele>281.00000000000006</ele><time>2026-04-17T13:30:31Z</time></trkpt><trkpt lat="45.71714408619868" lon="9.66810419861526"><ele>281.0</ele><time>2026-04-17T13:30:32Z</time></trkpt><trkpt lat="45.717171026667565" lon="9.66802222761335"><ele>281.0</ele><time>2026-04-17T13:30:33Z</time></trkpt><trkpt lat="45.717200769066366" lon="9.667937435173585"><ele>281.0</ele><time>2026-04-17T13:30:34Z</time></trkpt><trkpt lat="45.71722877788198" lon="9.667853356997886"><ele>281.0</ele><time>2026-04-17T13:30:35Z</time></trkpt><trkpt lat="45.717258381088" lon="9.667767629482688"><ele>281.00000000000006</ele><time>2026-04-17T13:30:36Z</time></trkpt><trkpt lat="45.717285370974736" lon="9.667684886210113"><ele>281.0</ele><time>2026-04-17T13:30:37Z</time></trkpt><trkpt lat="45.71731115955381" lon="9.667600651555167"><ele>281.0</ele><time>2026-04-17T13:30:38Z</time></trkpt><trkpt lat="45.717344235955736" lon="9.66752056190625"><ele>281.0</ele><time>2026-04-17T13:30:39Z</time></trkpt><trkpt lat="45.71739598765558" lon="9.667358579063707"><ele>281.0</ele><time>2026-04-17T13:30:41Z</time></trkpt><trkpt lat="45.71742393379262" lon="9.66727367657943"><ele>281.0</ele><time>2026-04-17T13:30:42Z</time></trkpt><trkpt lat="45.717459145797974" lon="9.667191528243244"><ele>281.0</ele><time>2026-04-17T13:30:43Z</time></trkpt><trkpt lat="45.71748604374957" lon="9.667105383825682"><ele>281.0</ele><time>2026-04-17T13:30:44Z</time></trkpt><trkpt lat="45.71751344131401" lon="9.66701962272361"><ele>280.83333333333337</ele><time>2026-04-17T13:30:45Z</time></trkpt><trkpt lat="45.71754658153845" lon="9.666934043245742"><ele>280.6666666666667</ele><time>2026-04-17T13:30:46Z</time></trkpt><trkpt lat="45.717571908733206" lon="9.66684523391659"><ele>280.5</ele><time>2026-04-17T13:30:47Z</time></trkpt><trkpt lat="45.71759798429686" lon="9.666758230377107"><ele>280.3333333333333</ele><time>2026-04-17T13:30:48Z</time></trkpt><trkpt lat="45.71763712785574" lon="9.666678263880048"><ele>280.16666666666663</ele><time>2026-04-17T13:30:49Z</time></trkpt><trkpt lat="45.71768082459328" lon="9.666511215712905"><ele>280.0</ele><time>2026-04-17T13:30:51Z</time></trkpt><trkpt lat="45.71772069142063" lon="9.666429673429594"><ele>280.25</ele><time>2026-04-17T13:30:52Z</time></trkpt><trkpt lat="45.71777174780032" lon="9.666273138968792"><ele>280.5</ele><time>2026-04-17T13:30:54Z</time></trkpt><trkpt lat="45.7178275994825" lon="9.666113475237275"><ele>280.75</ele><time>2026-04-17T13:30:56Z</time></trkpt><trkpt lat="45.71788042955379" lon="9.665954486365601"><ele>281.0</ele><time>2026-04-17T13:30:58Z</time></trkpt><trkpt lat="45.71793093854463" lon="9.665789719317946"><ele>281.1666666666667</ele><time>2026-04-17T13:31:00Z</time></trkpt><trkpt lat="45.717966283494846" lon="9.665670023014213"><ele>281.33333333333337</ele><time>2026-04-17T13:31:02Z</time></trkpt><trkpt lat="45.71800920285493" lon="9.665553073018282"><ele>281.5</ele><time>2026-04-17T13:31:03Z</time></trkpt><trkpt lat="45.718056390577416" lon="9.665398016340873"><ele>281.6666666666667</ele><time>2026-04-17T13:31:05Z</time></trkpt><trkpt lat="45.71808705247091" lon="9.665317124521266"><ele>281.8333333333333</ele><time>2026-04-17T13:31:06Z</time></trkpt><trkpt lat="45.718117459860935" lon="9.665233897584265"><ele>282.0</ele><time>2026-04-17T13:31:07Z</time></trkpt><trkpt lat="45.71814673098545" lon="9.665148757006543"><ele>282.2857142857143</ele><time>2026-04-17T13:31:08Z</time></trkpt><trkpt lat="45.71817479235497" lon="9.665062837464383"><ele>282.57142857142856</ele><time>2026-04-17T13:31:09Z</time></trkpt><trkpt lat="45.718204668938796" lon="9.664976925478998"><ele>282.85714285714283</ele><time>2026-04-17T13:31:10Z</time></trkpt><trkpt lat="45.718230275146816" lon="9.664883522580402"><ele>283.1428571428571</ele><time>2026-04-17T13:31:11Z</time></trkpt><trkpt lat="45.718264024854165" lon="9.664800875707181"><ele>283.4285714285714</ele><time>2026-04-17T13:31:12Z</time></trkpt><trkpt lat="45.71829121703387" lon="9.664711808268773"><ele>283.7142857142857</ele><time>2026-04-17T13:31:13Z</time></trkpt><trkpt lat="45.718320353096324" lon="9.664623915540394"><ele>284.0</ele><time>2026-04-17T13:31:14Z</time></trkpt><trkpt lat="45.71834937524611" lon="9.664528111967154"><ele>284.33333333333337</ele><time>2026-04-17T13:31:15Z</time></trkpt><trkpt lat="45.71838197516951" lon="9.664445331258136"><ele>284.6666666666667</ele><time>2026-04-17T13:31:16Z</time></trkpt><trkpt lat="45.71841659607089" lon="9.664353148028026"><ele>285.0</ele><time>2026-04-17T13:31:17Z</time></trkpt><trkpt lat="45.71844591414246" lon="9.664269873264015"><ele>285.3333333333333</ele><time>2026-04-17T13:31:18Z</time></trkpt><trkpt lat="45.71847384290647" lon="9.664168443365845"><ele>285.66666666666663</ele><time>2026-04-17T13:31:19Z</time></trkpt><trkpt lat="45.71851215177063" lon="9.664090164356766"><ele>286.0</ele><time>2026-04-17T13:31:20Z</time></trkpt><trkpt lat="45.71857867850762" lon="9.663945377741646"><ele>286.1428571428571</ele><time>2026-04-17T13:31:22Z</time></trkpt><trkpt lat="45.71860307979687" lon="9.663853160056542"><ele>286.2857142857143</ele><time>2026-04-17T13:31:23Z</time></trkpt><trkpt lat="45.718628173767456" lon="9.663764556657936"><ele>286.42857142857144</ele><time>2026-04-17T13:31:24Z</time></trkpt><trkpt lat="45.71865622348211" lon="9.66367872645143"><ele>286.57142857142856</ele><time>2026-04-17T13:31:25Z</time></trkpt><trkpt lat="45.718684825368086" lon="9.663584265680571"><ele>286.7142857142857</ele><time>2026-04-17T13:31:26Z</time></trkpt><trkpt lat="45.71871355740029" lon="9.66349170541401"><ele>286.85714285714283</ele><time>2026-04-17T13:31:27Z</time></trkpt><trkpt lat="45.71873741052881" lon="9.663403866352107"><ele>287.0</ele><time>2026-04-17T13:31:28Z</time></trkpt><trkpt lat="45.71877675597021" lon="9.66324961039589"><ele>287.0</ele><time>2026-04-17T13:31:30Z</time></trkpt><trkpt lat="45.71879163989661" lon="9.663079716225493"><ele>287.0</ele><time>2026-04-17T13:31:32Z</time></trkpt><trkpt lat="45.71884986051036" lon="9.662922093336228"><ele>287.0</ele><time>2026-04-17T13:31:34Z</time></trkpt><trkpt lat="45.71887231239479" lon="9.66283235132236"><ele>287.0</ele><time>2026-04-17T13:31:35Z</time></trkpt><trkpt lat="45.718888518970395" lon="9.662741973480179"><ele>287.0</ele><time>2026-04-17T13:31:36Z</time></trkpt><trkpt lat="45.71893196228248" lon="9.662576515841408"><ele>287.25</ele><time>2026-04-17T13:31:38Z</time></trkpt><trkpt lat="45.718967101116135" lon="9.662415077255732"><ele>287.5</ele><time>2026-04-17T13:31:40Z</time></trkpt><trkpt lat="45.71899378057383" lon="9.662243481219681"><ele>287.75</ele><time>2026-04-17T13:31:42Z</time></trkpt><trkpt lat="45.71902165545487" lon="9.66208211197603"><ele>288.0</ele><time>2026-04-17T13:31:44Z</time></trkpt><trkpt lat="45.719014848732336" lon="9.661917950930132"><ele>288.2</ele><time>2026-04-17T13:31:46Z</time></trkpt><trkpt lat="45.71904659034742" lon="9.661775394295734"><ele>288.4</ele><time>2026-04-17T13:31:48Z</time></trkpt><trkpt lat="45.71910085329137" lon="9.66162776870817"><ele>288.59999999999997</ele><time>2026-04-17T13:31:50Z</time></trkpt><trkpt lat="45.719070152141875" lon="9.661461834619764"><ele>288.8</ele><time>2026-04-17T13:31:52Z</time></trkpt><trkpt lat="45.71909666191385" lon="9.66132160008698"><ele>289.0</ele><time>2026-04-17T13:31:54Z</time></trkpt><trkpt lat="45.719147024176415" lon="9.66121735228772"><ele>289.4</ele><time>2026-04-17T13:31:56Z</time></trkpt><trkpt lat="45.71921322574687" lon="9.661097862807656"><ele>289.79999999999995</ele><time>2026-04-17T13:31:58Z</time></trkpt><trkpt lat="45.71928871863359" lon="9.660952506021008"><ele>290.20000000000005</ele><time>2026-04-17T13:32:00Z</time></trkpt><trkpt lat="45.71937386429618" lon="9.660819882853682"><ele>290.6</ele><time>2026-04-17T13:32:02Z</time></trkpt><trkpt lat="45.719413918909275" lon="9.660746896350703"><ele>291.0</ele><time>2026-04-17T13:32:03Z</time></trkpt><trkpt lat="45.71946066173019" lon="9.660681109245777"><ele>291.1428571428571</ele><time>2026-04-17T13:32:04Z</time></trkpt><trkpt lat="45.71951121800149" lon="9.660623059149414"><ele>291.2857142857143</ele><time>2026-04-17T13:32:05Z</time></trkpt><trkpt lat="45.71956491930609" lon="9.660570764053963"><ele>291.42857142857144</ele><time>2026-04-17T13:32:06Z</time></trkpt><trkpt lat="45.719615002895424" lon="9.660512608616306"><ele>291.57142857142856</ele><time>2026-04-17T13:32:07Z</time></trkpt><trkpt lat="45.71966682067154" lon="9.660456579470027"><ele>291.7142857142857</ele><time>2026-04-17T13:32:08Z</time></trkpt><trkpt lat="45.719718150703436" lon="9.660400606097577"><ele>291.85714285714283</ele><time>2026-04-17T13:32:09Z</time></trkpt><trkpt lat="45.71976855737862" lon="9.66034402839646"><ele>292.0</ele><time>2026-04-17T13:32:10Z</time></trkpt><trkpt lat="45.719819310612" lon="9.660287514205756"><ele>291.85714285714283</ele><time>2026-04-17T13:32:11Z</time></trkpt><trkpt lat="45.7198701467911" lon="9.660231644770121"><ele>291.7142857142857</ele><time>2026-04-17T13:32:12Z</time></trkpt><trkpt lat="45.7199228705544" lon="9.660182269541162"><ele>291.57142857142856</ele><time>2026-04-17T13:32:13Z</time></trkpt><trkpt lat="45.72002140874746" lon="9.660066871921007"><ele>291.42857142857144</ele><time>2026-04-17T13:32:15Z</time></trkpt><trkpt lat="45.720066646501" lon="9.660000684262226"><ele>291.2857142857143</ele><time>2026-04-17T13:32:16Z</time></trkpt><trkpt lat="45.720111914038334" lon="9.659934590588298"><ele>291.1428571428571</ele><time>2026-04-17T13:32:17Z</time></trkpt><trkpt lat="45.720153730323894" lon="9.65986562540157"><ele>291.0</ele><time>2026-04-17T13:32:18Z</time></trkpt><trkpt lat="45.720248139524124" lon="9.659755651959928"><ele>291.3333333333333</ele><time>2026-04-17T13:32:20Z</time></trkpt><trkpt lat="45.720287569551466" lon="9.659683227074403"><ele>291.6666666666667</ele><time>2026-04-17T13:32:21Z</time></trkpt><trkpt lat="45.72033456901044" lon="9.659622266458175"><ele>292.0</ele><time>2026-04-17T13:32:22Z</time></trkpt><trkpt lat="45.720423749390115" lon="9.65950145137487"><ele>292.33333333333337</ele><time>2026-04-17T13:32:24Z</time></trkpt><trkpt lat="45.72047003841773" lon="9.659437294891424"><ele>292.6666666666667</ele><time>2026-04-17T13:32:25Z</time></trkpt><trkpt lat="45.720517931166995" lon="9.659375204024007"><ele>293.0</ele><time>2026-04-17T13:32:26Z</time></trkpt><trkpt lat="45.72061587399792" lon="9.659259553891822"><ele>293.2</ele><time>2026-04-17T13:32:28Z</time></trkpt><trkpt lat="45.72065796285821" lon="9.65918750504812"><ele>293.4</ele><time>2026-04-17T13:32:29Z</time></trkpt><trkpt lat="45.72071065692093" lon="9.659132354123868"><ele>293.59999999999997</ele><time>2026-04-17T13:32:30Z</time></trkpt><trkpt lat="45.7208023398014" lon="9.65900397858725"><ele>293.8</ele><time>2026-04-17T13:32:32Z</time></trkpt><trkpt lat="45.720889547877654" lon="9.658874733870714"><ele>294.0</ele><time>2026-04-17T13:32:34Z</time></trkpt><trkpt lat="45.72098588712992" lon="9.658754877646683"><ele>294.2</ele><time>2026-04-17T13:32:36Z</time></trkpt><trkpt lat="45.721082890555394" lon="9.658643781629703"><ele>294.4</ele><time>2026-04-17T13:32:38Z</time></trkpt><trkpt lat="45.72119686743681" lon="9.658567913143743"><ele>294.6</ele><time>2026-04-17T13:32:40Z</time></trkpt><trkpt lat="45.72127494891435" lon="9.658419312396106"><ele>294.8</ele><time>2026-04-17T13:32:42Z</time></trkpt><trkpt lat="45.721306137800504" lon="9.658335283184812"><ele>295.0</ele><time>2026-04-17T13:32:43Z</time></trkpt><trkpt lat="45.72134203032851" lon="9.65825267122701"><ele>295.0</ele><time>2026-04-17T13:32:44Z</time></trkpt><trkpt lat="45.72141120069531" lon="9.658211042552892"><ele>295.0</ele><time>2026-04-17T13:32:45Z</time></trkpt><trkpt lat="45.7214627691292" lon="9.658149873393459"><ele>295.0</ele><time>2026-04-17T13:32:46Z</time></trkpt><trkpt lat="45.72151406276437" lon="9.658095078868762"><ele>295.0</ele><time>2026-04-17T13:32:47Z</time></trkpt><trkpt lat="45.72161104102165" lon="9.65797665517572"><ele>295.0</ele><time>2026-04-17T13:32:49Z</time></trkpt><trkpt lat="45.721654741525086" lon="9.657904883994942"><ele>295.0</ele><time>2026-04-17T13:32:50Z</time></trkpt><trkpt lat="45.72169845566048" lon="9.657839897001967"><ele>295.2</ele><time>2026-04-17T13:32:51Z</time></trkpt><trkpt lat="45.72173874429438" lon="9.657768595517885"><ele>295.4</ele><time>2026-04-17T13:32:52Z</time></trkpt><trkpt lat="45.72177757692058" lon="9.657692812996808"><ele>295.6</ele><time>2026-04-17T13:32:53Z</time></trkpt><trkpt lat="45.721846294693506" lon="9.657536559508163"><ele>295.8</ele><time>2026-04-17T13:32:55Z</time></trkpt><trkpt lat="45.721881059789624" lon="9.657456701733068"><ele>296.0</ele><time>2026-04-17T13:32:56Z</time></trkpt><trkpt lat="45.721953133077186" lon="9.65730924996399"><ele>296.0</ele><time>2026-04-17T13:32:58Z</time></trkpt><trkpt lat="45.721983187839086" lon="9.657223823102026"><ele>296.0</ele><time>2026-04-17T13:32:59Z</time></trkpt><trkpt lat="45.722022248671166" lon="9.657147725318614"><ele>296.0</ele><time>2026-04-17T13:33:00Z</time></trkpt><trkpt lat="45.7220582368307" lon="9.65706931798497"><ele>296.0</ele><time>2026-04-17T13:33:01Z</time></trkpt><trkpt lat="45.72209038205546" lon="9.656985069674418"><ele>296.0</ele><time>2026-04-17T13:33:02Z</time></trkpt><trkpt lat="45.722133145442186" lon="9.656906958988845"><ele>296.0</ele><time>2026-04-17T13:33:03Z</time></trkpt><trkpt lat="45.72217169391563" lon="9.656829379076445"><ele>296.0</ele><time>2026-04-17T13:33:04Z</time></trkpt><trkpt lat="45.72220711421737" lon="9.656748091693318"><ele>295.5</ele><time>2026-04-17T13:33:05Z</time></trkpt><trkpt lat="45.72224713346084" lon="9.656676291590582"><ele>295.0</ele><time>2026-04-17T13:33:06Z</time></trkpt><trkpt lat="45.72231108161748" lon="9.6565250137332"><ele>294.5</ele><time>2026-04-17T13:33:08Z</time></trkpt><trkpt lat="45.722350921212566" lon="9.656449204582632"><ele>294.0</ele><time>2026-04-17T13:33:09Z</time></trkpt><trkpt lat="45.72241774950666" lon="9.656295423386569"><ele>293.5</ele><time>2026-04-17T13:33:11Z</time></trkpt><trkpt lat="45.72245983381424" lon="9.656220868309244"><ele>293.0</ele><time>2026-04-17T13:33:12Z</time></trkpt><trkpt lat="45.72249647535541" lon="9.656139113801853"><ele>293.0</ele><time>2026-04-17T13:33:13Z</time></trkpt><trkpt lat="45.72256294070724" lon="9.65598617943597"><ele>293.0</ele><time>2026-04-17T13:33:15Z</time></trkpt><trkpt lat="45.72260294012134" lon="9.655909562784755"><ele>293.0</ele><time>2026-04-17T13:33:16Z</time></trkpt><trkpt lat="45.7226383459041" lon="9.65583214331739"><ele>293.0</ele><time>2026-04-17T13:33:17Z</time></trkpt><trkpt lat="45.72267194079254" lon="9.65575453552838"><ele>293.0</ele><time>2026-04-17T13:33:18Z</time></trkpt><trkpt lat="45.72270984777906" lon="9.655679643066486"><ele>293.0</ele><time>2026-04-17T13:33:19Z</time></trkpt><trkpt lat="45.72278337064362" lon="9.655528905742758"><ele>293.1666666666667</ele><time>2026-04-17T13:33:21Z</time></trkpt><trkpt lat="45.722814202866715" lon="9.65544894632604"><ele>293.33333333333337</ele><time>2026-04-17T13:33:22Z</time></trkpt><trkpt lat="45.722854254978536" lon="9.655371051374699"><ele>293.5</ele><time>2026-04-17T13:33:23Z</time></trkpt><trkpt lat="45.722923967066315" lon="9.655221769588092"><ele>293.6666666666667</ele><time>2026-04-17T13:33:25Z</time></trkpt><trkpt lat="45.722962111645224" lon="9.655147877797052"><ele>293.8333333333333</ele><time>2026-04-17T13:33:26Z</time></trkpt><trkpt lat="45.722997575964506" lon="9.655071292320024"><ele>294.0</ele><time>2026-04-17T13:33:27Z</time></trkpt><trkpt lat="45.72302443488067" lon="9.654986674249967"><ele>294.6666666666667</ele><time>2026-04-17T13:33:28Z</time></trkpt><trkpt lat="45.72306956712394" lon="9.6549144166814"><ele>295.3333333333333</ele><time>2026-04-17T13:33:29Z</time></trkpt><trkpt lat="45.72313580656472" lon="9.654771375998088"><ele>296.0</ele><time>2026-04-17T13:33:31Z</time></trkpt><trkpt lat="45.7231762629994" lon="9.654676405036838"><ele>296.66666666666663</ele><time>2026-04-17T13:33:32Z</time></trkpt><trkpt lat="45.72321944846343" lon="9.654599621955658"><ele>297.3333333333333</ele><time>2026-04-17T13:33:33Z</time></trkpt><trkpt lat="45.72325254894619" lon="9.654522580226486"><ele>298.0</ele><time>2026-04-17T13:33:34Z</time></trkpt><trkpt lat="45.72328706945783" lon="9.6544458084803"><ele>298.0</ele><time>2026-04-17T13:33:35Z</time></trkpt><trkpt lat="45.7233220461268" lon="9.654363303504558"><ele>298.0</ele><time>2026-04-17T13:33:36Z</time></trkpt><trkpt lat="45.7233929834269" lon="9.654211862158574"><ele>298.0</ele><time>2026-04-17T13:33:38Z</time></trkpt><trkpt lat="45.723431075586205" lon="9.654134406282415"><ele>298.0</ele><time>2026-04-17T13:33:39Z</time></trkpt><trkpt lat="45.723503450725744" lon="9.653984974234634"><ele>298.0</ele><time>2026-04-17T13:33:41Z</time></trkpt><trkpt lat="45.72357282319813" lon="9.653837586538566"><ele>297.8</ele><time>2026-04-17T13:33:43Z</time></trkpt><trkpt lat="45.723610035621455" lon="9.653763156673493"><ele>297.6</ele><time>2026-04-17T13:33:44Z</time></trkpt><trkpt lat="45.7236826714926" lon="9.653617127564123"><ele>297.4</ele><time>2026-04-17T13:33:46Z</time></trkpt><trkpt lat="45.723754381971844" lon="9.653469291605457"><ele>297.2</ele><time>2026-04-17T13:33:48Z</time></trkpt><trkpt lat="45.7238227985055" lon="9.653317393974953"><ele>297.0</ele><time>2026-04-17T13:33:50Z</time></trkpt><trkpt lat="45.723889189271915" lon="9.65317046165419"><ele>297.6</ele><time>2026-04-17T13:33:52Z</time></trkpt><trkpt lat="45.72392674624972" lon="9.653095148520581"><ele>298.2</ele><time>2026-04-17T13:33:53Z</time></trkpt><trkpt lat="45.72396472473025" lon="9.653021513453805"><ele>298.8</ele><time>2026-04-17T13:33:54Z</time></trkpt><trkpt lat="45.724046992442794" lon="9.652882198287699"><ele>299.4</ele><time>2026-04-17T13:33:56Z</time></trkpt><trkpt lat="45.72414244464389" lon="9.652764720535522"><ele>300.0</ele><time>2026-04-17T13:33:58Z</time></trkpt><trkpt lat="45.724245251994404" lon="9.652660550848708"><ele>300.4</ele><time>2026-04-17T13:34:00Z</time></trkpt><trkpt lat="45.72435543763987" lon="9.652569727775974"><ele>300.8</ele><time>2026-04-17T13:34:02Z</time></trkpt><trkpt lat="45.72446708010326" lon="9.652486209357848"><ele>301.2</ele><time>2026-04-17T13:34:04Z</time></trkpt><trkpt lat="45.72457803267665" lon="9.652408365738472"><ele>301.6</ele><time>2026-04-17T13:34:06Z</time></trkpt><trkpt lat="45.72463622711724" lon="9.652371628725087"><ele>302.0</ele><time>2026-04-17T13:34:07Z</time></trkpt><trkpt lat="45.72474864055406" lon="9.65229938337383"><ele>302.6666666666667</ele><time>2026-04-17T13:34:09Z</time></trkpt><trkpt lat="45.724862959123804" lon="9.652226952698667"><ele>303.33333333333337</ele><time>2026-04-17T13:34:11Z</time></trkpt><trkpt lat="45.724922142962726" lon="9.652192841601412"><ele>304.0</ele><time>2026-04-17T13:34:12Z</time></trkpt><trkpt lat="45.724982011424565" lon="9.652164213470705"><ele>304.6666666666667</ele><time>2026-04-17T13:34:13Z</time></trkpt><trkpt lat="45.72504807828165" lon="9.652141700475555"><ele>305.3333333333333</ele><time>2026-04-17T13:34:14Z</time></trkpt><trkpt lat="45.72516597478223" lon="9.65207845234852"><ele>306.0</ele><time>2026-04-17T13:34:16Z</time></trkpt><trkpt lat="45.725225656813826" lon="9.652048410603781"><ele>306.2</ele><time>2026-04-17T13:34:17Z</time></trkpt><trkpt lat="45.72533820345537" lon="9.651984915054426"><ele>306.40000000000003</ele><time>2026-04-17T13:34:19Z</time></trkpt><trkpt lat="45.725451889948374" lon="9.651924520125963"><ele>306.6</ele><time>2026-04-17T13:34:21Z</time></trkpt><trkpt lat="45.725509976446205" lon="9.651887828131319"><ele>306.8</ele><time>2026-04-17T13:34:22Z</time></trkpt><trkpt lat="45.725623849720485" lon="9.651828019120245"><ele>307.0</ele><time>2026-04-17T13:34:24Z</time></trkpt><trkpt lat="45.725739359573666" lon="9.651765133171395"><ele>307.4</ele><time>2026-04-17T13:34:26Z</time></trkpt><trkpt lat="45.72585395711045" lon="9.651704341516025"><ele>307.79999999999995</ele><time>2026-04-17T13:34:28Z</time></trkpt><trkpt lat="45.72591355509594" lon="9.651670362476253"><ele>308.2</ele><time>2026-04-17T13:34:29Z</time></trkpt><trkpt lat="45.726026998415776" lon="9.651616267911596"><ele>308.59999999999997</ele><time>2026-04-17T13:34:31Z</time></trkpt><trkpt lat="45.726088618615115" lon="9.651587190313807"><ele>309.0</ele><time>2026-04-17T13:34:32Z</time></trkpt><trkpt lat="45.72620401540156" lon="9.651528396171182"><ele>309.8</ele><time>2026-04-17T13:34:34Z</time></trkpt><trkpt lat="45.7263206184991" lon="9.651468876064643"><ele>310.59999999999997</ele><time>2026-04-17T13:34:36Z</time></trkpt><trkpt lat="45.726381459743806" lon="9.651436343267472"><ele>311.4</ele><time>2026-04-17T13:34:37Z</time></trkpt><trkpt lat="45.726495363152644" lon="9.651382069906397"><ele>312.2</ele><time>2026-04-17T13:34:39Z</time></trkpt><trkpt lat="45.72655414109351" lon="9.651349730280803"><ele>313.0</ele><time>2026-04-17T13:34:40Z</time></trkpt><trkpt lat="45.72666965722533" lon="9.651289130096627"><ele>313.0</ele><time>2026-04-17T13:34:42Z</time></trkpt><trkpt lat="45.72678787954669" lon="9.651227365579551"><ele>313.0</ele><time>2026-04-17T13:34:44Z</time></trkpt><trkpt lat="45.72689867558019" lon="9.651169354493929"><ele>313.0</ele><time>2026-04-17T13:34:46Z</time></trkpt><trkpt lat="45.72701546254361" lon="9.651105968729555"><ele>313.0</ele><time>2026-04-17T13:34:48Z</time></trkpt><trkpt lat="45.72713029079929" lon="9.651043426630098"><ele>314.5</ele><time>2026-04-17T13:34:50Z</time></trkpt><trkpt lat="45.727245621369306" lon="9.650979652332174"><ele>316.0</ele><time>2026-04-17T13:34:52Z</time></trkpt><trkpt lat="45.727362376725" lon="9.650920944884756"><ele>317.5</ele><time>2026-04-17T13:34:54Z</time></trkpt><trkpt lat="45.72748066282218" lon="9.650860480230207"><ele>319.0</ele><time>2026-04-17T13:34:56Z</time></trkpt><trkpt lat="45.72759847139036" lon="9.650798521374387"><ele>319.0</ele><time>2026-04-17T13:34:58Z</time></trkpt><trkpt lat="45.72765290949366" lon="9.65075272943126"><ele>319.0</ele><time>2026-04-17T13:34:59Z</time></trkpt><trkpt lat="45.72771424280184" lon="9.65072408853873"><ele>319.0</ele><time>2026-04-17T13:35:00Z</time></trkpt><trkpt lat="45.72777161114219" lon="9.650675918368623"><ele>319.0</ele><time>2026-04-17T13:35:01Z</time></trkpt><trkpt lat="45.72787821834589" lon="9.650575710699766"><ele>319.0</ele><time>2026-04-17T13:35:03Z</time></trkpt><trkpt lat="45.72794343728449" lon="9.650528246535284"><ele>319.0</ele><time>2026-04-17T13:35:04Z</time></trkpt><trkpt lat="45.72804516999739" lon="9.650419290613105"><ele>318.3333333333333</ele><time>2026-04-17T13:35:06Z</time></trkpt><trkpt lat="45.72809425795216" lon="9.650357224926458"><ele>317.66666666666663</ele><time>2026-04-17T13:35:07Z</time></trkpt><trkpt lat="45.728142546526435" lon="9.650293046651718"><ele>317.0</ele><time>2026-04-17T13:35:08Z</time></trkpt><trkpt lat="45.728189198273775" lon="9.650229961018116"><ele>316.3333333333333</ele><time>2026-04-17T13:35:09Z</time></trkpt><trkpt lat="45.728233842196765" lon="9.650156398050656"><ele>315.6666666666667</ele><time>2026-04-17T13:35:10Z</time></trkpt><trkpt lat="45.728277129455556" lon="9.650081579280544"><ele>315.0</ele><time>2026-04-17T13:35:11Z</time></trkpt><trkpt lat="45.72837829150834" lon="9.64995629302366"><ele>314.85714285714283</ele><time>2026-04-17T13:35:13Z</time></trkpt><trkpt lat="45.72842000807116" lon="9.64988619936606"><ele>314.7142857142857</ele><time>2026-04-17T13:35:14Z</time></trkpt><trkpt lat="45.72846650029811" lon="9.649811084833024"><ele>314.57142857142856</ele><time>2026-04-17T13:35:15Z</time></trkpt><trkpt lat="45.72850838550106" lon="9.649734255663306"><ele>314.42857142857144</ele><time>2026-04-17T13:35:16Z</time></trkpt><trkpt lat="45.72855373737929" lon="9.649651986165615"><ele>314.2857142857143</ele><time>2026-04-17T13:35:17Z</time></trkpt><trkpt lat="45.728598879765514" lon="9.649572674272557"><ele>314.1428571428571</ele><time>2026-04-17T13:35:18Z</time></trkpt><trkpt lat="45.72864096796341" lon="9.64949115226876"><ele>314.0</ele><time>2026-04-17T13:35:19Z</time></trkpt><trkpt lat="45.72868762355307" lon="9.649420303062016"><ele>313.71428571428567</ele><time>2026-04-17T13:35:20Z</time></trkpt><trkpt lat="45.72873359808402" lon="9.649329704590567"><ele>313.42857142857144</ele><time>2026-04-17T13:35:21Z</time></trkpt><trkpt lat="45.7287827192371" lon="9.649250916478103"><ele>313.1428571428571</ele><time>2026-04-17T13:35:22Z</time></trkpt><trkpt lat="45.7288275926868" lon="9.64916886671551"><ele>312.85714285714283</ele><time>2026-04-17T13:35:23Z</time></trkpt><trkpt lat="45.728876680502815" lon="9.649088401441693"><ele>312.57142857142856</ele><time>2026-04-17T13:35:24Z</time></trkpt><trkpt lat="45.72892180889053" lon="9.649002523715698"><ele>312.2857142857143</ele><time>2026-04-17T13:35:25Z</time></trkpt><trkpt lat="45.728969135995975" lon="9.648921554829327"><ele>312.0</ele><time>2026-04-17T13:35:26Z</time></trkpt><trkpt lat="45.729018103976976" lon="9.64883799143363"><ele>312.0</ele><time>2026-04-17T13:35:27Z</time></trkpt><trkpt lat="45.72906268185948" lon="9.6487526083808"><ele>312.0</ele><time>2026-04-17T13:35:28Z</time></trkpt><trkpt lat="45.72911055873729" lon="9.64866866978396"><ele>312.0</ele><time>2026-04-17T13:35:29Z</time></trkpt><trkpt lat="45.72915794615493" lon="9.648583838251454"><ele>312.0</ele><time>2026-04-17T13:35:30Z</time></trkpt><trkpt lat="45.72920612909394" lon="9.648496372735249"><ele>312.0</ele><time>2026-04-17T13:35:31Z</time></trkpt><trkpt lat="45.72925527634177" lon="9.64841400478279"><ele>312.0</ele><time>2026-04-17T13:35:32Z</time></trkpt><trkpt lat="45.729302186656696" lon="9.648323978386198"><ele>312.0</ele><time>2026-04-17T13:35:33Z</time></trkpt><trkpt lat="45.72935216239354" lon="9.648238254348875"><ele>312.0</ele><time>2026-04-17T13:35:34Z</time></trkpt><trkpt lat="45.729400959323904" lon="9.64815501400552"><ele>312.0</ele><time>2026-04-17T13:35:35Z</time></trkpt><trkpt lat="45.7294487568707" lon="9.648066879426455"><ele>312.0</ele><time>2026-04-17T13:35:36Z</time></trkpt><trkpt lat="45.729498202631135" lon="9.64797873198869"><ele>312.0</ele><time>2026-04-17T13:35:37Z</time></trkpt><trkpt lat="45.72954665503255" lon="9.647891102242019"><ele>312.0</ele><time>2026-04-17T13:35:38Z</time></trkpt><trkpt lat="45.72959692923905" lon="9.647803918553265"><ele>311.1666666666667</ele><time>2026-04-17T13:35:39Z</time></trkpt><trkpt lat="45.729647975310534" lon="9.647717766557538"><ele>310.3333333333333</ele><time>2026-04-17T13:35:40Z</time></trkpt><trkpt lat="45.72969539378409" lon="9.647625401698559"><ele>309.5</ele><time>2026-04-17T13:35:41Z</time></trkpt><trkpt lat="45.72974453183873" lon="9.647538025346574"><ele>308.66666666666663</ele><time>2026-04-17T13:35:42Z</time></trkpt><trkpt lat="45.729795536922005" lon="9.647458581024605"><ele>307.8333333333333</ele><time>2026-04-17T13:35:43Z</time></trkpt><trkpt lat="45.72984342249289" lon="9.647365179195047"><ele>307.0</ele><time>2026-04-17T13:35:44Z</time></trkpt><trkpt lat="45.729891965170445" lon="9.647276761603273"><ele>307.0</ele><time>2026-04-17T13:35:45Z</time></trkpt><trkpt lat="45.72993649347693" lon="9.647188492353573"><ele>307.0</ele><time>2026-04-17T13:35:46Z</time></trkpt><trkpt lat="45.72999306933956" lon="9.647098809214977"><ele>307.0</ele><time>2026-04-17T13:35:47Z</time></trkpt><trkpt lat="45.73003839993546" lon="9.647015469993613"><ele>307.0</ele><time>2026-04-17T13:35:48Z</time></trkpt><trkpt lat="45.73008675431316" lon="9.64692972409543"><ele>307.0</ele><time>2026-04-17T13:35:49Z</time></trkpt><trkpt lat="45.73013585346585" lon="9.646843267299806"><ele>307.0</ele><time>2026-04-17T13:35:50Z</time></trkpt><trkpt lat="45.73018593825752" lon="9.646753116492242"><ele>306.16666666666663</ele><time>2026-04-17T13:35:51Z</time></trkpt><trkpt lat="45.73023118027029" lon="9.646661720853515"><ele>305.3333333333333</ele><time>2026-04-17T13:35:52Z</time></trkpt><trkpt lat="45.730280668618825" lon="9.646570394416747"><ele>304.5</ele><time>2026-04-17T13:35:53Z</time></trkpt><trkpt lat="45.7303334264392" lon="9.646482695223792"><ele>303.6666666666667</ele><time>2026-04-17T13:35:54Z</time></trkpt><trkpt lat="45.73038438821159" lon="9.646401169146461"><ele>302.83333333333337</ele><time>2026-04-17T13:35:55Z</time></trkpt><trkpt lat="45.73043308390718" lon="9.64631712553386"><ele>302.0</ele><time>2026-04-17T13:35:56Z</time></trkpt><trkpt lat="45.73048027355794" lon="9.646226413831219"><ele>302.0</ele><time>2026-04-17T13:35:57Z</time></trkpt><trkpt lat="45.73052839205564" lon="9.646142133544586"><ele>302.0</ele><time>2026-04-17T13:35:58Z</time></trkpt><trkpt lat="45.73057605392801" lon="9.646057479867062"><ele>302.0</ele><time>2026-04-17T13:35:59Z</time></trkpt><trkpt lat="45.73062367613358" lon="9.645981308006782"><ele>302.0</ele><time>2026-04-17T13:36:00Z</time></trkpt><trkpt lat="45.730670402551574" lon="9.645902718895535"><ele>302.0</ele><time>2026-04-17T13:36:01Z</time></trkpt><trkpt lat="45.730719006851025" lon="9.645801723075243"><ele>302.0</ele><time>2026-04-17T13:36:02Z</time></trkpt><trkpt lat="45.73076081074207" lon="9.645719679473354"><ele>301.83333333333337</ele><time>2026-04-17T13:36:03Z</time></trkpt><trkpt lat="45.730805586673135" lon="9.645644161151376"><ele>301.6666666666667</ele><time>2026-04-17T13:36:04Z</time></trkpt><trkpt lat="45.73084616864619" lon="9.645563628022032"><ele>301.5</ele><time>2026-04-17T13:36:05Z</time></trkpt><trkpt lat="45.73093268873425" lon="9.645433895260608"><ele>301.3333333333333</ele><time>2026-04-17T13:36:07Z</time></trkpt><trkpt lat="45.73100650235282" lon="9.64529960674421"><ele>301.16666666666663</ele><time>2026-04-17T13:36:09Z</time></trkpt><trkpt lat="45.73105324167525" lon="9.64523675379623"><ele>301.0</ele><time>2026-04-17T13:36:10Z</time></trkpt><trkpt lat="45.731093936807845" lon="9.64516775528916"><ele>301.0</ele><time>2026-04-17T13:36:11Z</time></trkpt><trkpt lat="45.731138734952154" lon="9.64509699485447"><ele>301.0</ele><time>2026-04-17T13:36:12Z</time></trkpt><trkpt lat="45.73118112356545" lon="9.645026806334668"><ele>301.0</ele><time>2026-04-17T13:36:13Z</time></trkpt><trkpt lat="45.73122485749742" lon="9.644952264605486"><ele>301.0</ele><time>2026-04-17T13:36:14Z</time></trkpt><trkpt lat="45.731265912215456" lon="9.644876800446593"><ele>301.0</ele><time>2026-04-17T13:36:15Z</time></trkpt><trkpt lat="45.73133630143679" lon="9.64472930582274"><ele>301.0</ele><time>2026-04-17T13:36:17Z</time></trkpt><trkpt lat="45.73141335571193" lon="9.644580581793289"><ele>301.0</ele><time>2026-04-17T13:36:19Z</time></trkpt><trkpt lat="45.731451826706966" lon="9.644507650937827"><ele>301.0</ele><time>2026-04-17T13:36:20Z</time></trkpt><trkpt lat="45.73149173804266" lon="9.644436985331918"><ele>301.0</ele><time>2026-04-17T13:36:21Z</time></trkpt><trkpt lat="45.7315669599054" lon="9.644293664159251"><ele>301.0</ele><time>2026-04-17T13:36:23Z</time></trkpt><trkpt lat="45.73159415494641" lon="9.644211318045322"><ele>301.0</ele><time>2026-04-17T13:36:24Z</time></trkpt><trkpt lat="45.73163639235949" lon="9.644140057787702"><ele>301.0</ele><time>2026-04-17T13:36:25Z</time></trkpt><trkpt lat="45.73167201142983" lon="9.644055705720094"><ele>301.0</ele><time>2026-04-17T13:36:26Z</time></trkpt><trkpt lat="45.73173999659319" lon="9.643911724608747"><ele>301.0</ele><time>2026-04-17T13:36:28Z</time></trkpt><trkpt lat="45.73178952968425" lon="9.643745672132333"><ele>301.0</ele><time>2026-04-17T13:36:30Z</time></trkpt><trkpt lat="45.731836432497126" lon="9.643587512295523"><ele>301.0</ele><time>2026-04-17T13:36:32Z</time></trkpt><trkpt lat="45.73187984982286" lon="9.643440579353245"><ele>302.0</ele><time>2026-04-17T13:36:34Z</time></trkpt><trkpt lat="45.73191768660182" lon="9.643299735440822"><ele>303.0</ele><time>2026-04-17T13:36:36Z</time></trkpt><trkpt lat="45.7319348248369" lon="9.64321215216568"><ele>304.0</ele><time>2026-04-17T13:36:37Z</time></trkpt><trkpt lat="45.731959705486894" lon="9.64312141250218"><ele>305.0</ele><time>2026-04-17T13:36:38Z</time></trkpt><trkpt lat="45.73199016884554" lon="9.64294819460549"><ele>306.0</ele><time>2026-04-17T13:36:40Z</time></trkpt><trkpt lat="45.732016217984125" lon="9.64278245734844"><ele>306.0</ele><time>2026-04-17T13:36:42Z</time></trkpt><trkpt lat="45.7320240939466" lon="9.642691003046117"><ele>306.0</ele><time>2026-04-17T13:36:43Z</time></trkpt><trkpt lat="45.73202729683377" lon="9.642594402303285"><ele>306.0</ele><time>2026-04-17T13:36:44Z</time></trkpt><trkpt lat="45.732037165652166" lon="9.642503291403"><ele>306.0</ele><time>2026-04-17T13:36:45Z</time></trkpt><trkpt lat="45.73204678854962" lon="9.642410119635043"><ele>306.0</ele><time>2026-04-17T13:36:46Z</time></trkpt><trkpt lat="45.73205595963361" lon="9.642320506324156"><ele>306.0</ele><time>2026-04-17T13:36:47Z</time></trkpt><trkpt lat="45.732061103319424" lon="9.642229194241516"><ele>306.0</ele><time>2026-04-17T13:36:48Z</time></trkpt><trkpt lat="45.73206760817355" lon="9.6421383574948"><ele>306.0</ele><time>2026-04-17T13:36:49Z</time></trkpt><trkpt lat="45.73207896204617" lon="9.64204857874085"><ele>306.0</ele><time>2026-04-17T13:36:50Z</time></trkpt><trkpt lat="45.73210293052559" lon="9.641959945791987"><ele>306.0</ele><time>2026-04-17T13:36:51Z</time></trkpt><trkpt lat="45.7321319406432" lon="9.641874507909034"><ele>306.0</ele><time>2026-04-17T13:36:52Z</time></trkpt><trkpt lat="45.73214907699522" lon="9.641786592077935"><ele>306.0</ele><time>2026-04-17T13:36:53Z</time></trkpt><trkpt lat="45.73216600081617" lon="9.641690577585516"><ele>306.0</ele><time>2026-04-17T13:36:54Z</time></trkpt><trkpt lat="45.73218021144556" lon="9.641596398667106"><ele>306.0</ele><time>2026-04-17T13:36:55Z</time></trkpt><trkpt lat="45.73219183521472" lon="9.641501411373262"><ele>305.8</ele><time>2026-04-17T13:36:56Z</time></trkpt><trkpt lat="45.73221671115381" lon="9.64132323081152"><ele>305.6</ele><time>2026-04-17T13:36:58Z</time></trkpt><trkpt lat="45.732228105582834" lon="9.641234041638828"><ele>305.4</ele><time>2026-04-17T13:36:59Z</time></trkpt><trkpt lat="45.732252544652745" lon="9.641062167261104"><ele>305.2</ele><time>2026-04-17T13:37:01Z</time></trkpt><trkpt lat="45.732263869753005" lon="9.640972124489535"><ele>305.0</ele><time>2026-04-17T13:37:02Z</time></trkpt><trkpt lat="45.732289449328896" lon="9.640807212000892"><ele>304.5</ele><time>2026-04-17T13:37:04Z</time></trkpt><trkpt lat="45.73231457435741" lon="9.640641663106729"><ele>304.0</ele><time>2026-04-17T13:37:06Z</time></trkpt><trkpt lat="45.732340475326886" lon="9.640484372496639"><ele>303.5</ele><time>2026-04-17T13:37:08Z</time></trkpt><trkpt lat="45.732362563816835" lon="9.640322979294961"><ele>303.0</ele><time>2026-04-17T13:37:10Z</time></trkpt><trkpt lat="45.73238645911786" lon="9.640165679225815"><ele>302.6</ele><time>2026-04-17T13:37:12Z</time></trkpt><trkpt lat="45.73241131832852" lon="9.640012894976968"><ele>302.20000000000005</ele><time>2026-04-17T13:37:14Z</time></trkpt><trkpt lat="45.73243522022234" lon="9.639860928784381"><ele>301.8</ele><time>2026-04-17T13:37:16Z</time></trkpt><trkpt lat="45.732456063691345" lon="9.63970789323876"><ele>301.40000000000003</ele><time>2026-04-17T13:37:18Z</time></trkpt><trkpt lat="45.73248802739223" lon="9.639563319498466"><ele>301.0</ele><time>2026-04-17T13:37:20Z</time></trkpt><trkpt lat="45.73253333150338" lon="9.639423476980395"><ele>300.8</ele><time>2026-04-17T13:37:22Z</time></trkpt><trkpt lat="45.73258000584609" lon="9.639295346586879"><ele>300.6</ele><time>2026-04-17T13:37:24Z</time></trkpt><trkpt lat="45.732586095811264" lon="9.639168076463582"><ele>300.4</ele><time>2026-04-17T13:37:26Z</time></trkpt><trkpt lat="45.73261653304547" lon="9.639042580006583"><ele>300.2</ele><time>2026-04-17T13:37:28Z</time></trkpt><trkpt lat="45.73265768484362" lon="9.63888293938796"><ele>300.0</ele><time>2026-04-17T13:37:30Z</time></trkpt><trkpt lat="45.732680456654094" lon="9.63879711808796"><ele>300.0</ele><time>2026-04-17T13:37:31Z</time></trkpt><trkpt lat="45.73270754099198" lon="9.638710748674779"><ele>300.0</ele><time>2026-04-17T13:37:32Z</time></trkpt><trkpt lat="45.73275692338848" lon="9.638546238966558"><ele>300.0</ele><time>2026-04-17T13:37:34Z</time></trkpt><trkpt lat="45.73278637096633" lon="9.6384656272884"><ele>300.0</ele><time>2026-04-17T13:37:35Z</time></trkpt><trkpt lat="45.7328137619162" lon="9.638379525637758"><ele>300.0</ele><time>2026-04-17T13:37:36Z</time></trkpt><trkpt lat="45.73284111362447" lon="9.638297852804971"><ele>300.0</ele><time>2026-04-17T13:37:37Z</time></trkpt><trkpt lat="45.73289236898825" lon="9.63813175895803"><ele>299.85714285714283</ele><time>2026-04-17T13:37:39Z</time></trkpt><trkpt lat="45.732918504095686" lon="9.638046556160733"><ele>299.7142857142857</ele><time>2026-04-17T13:37:40Z</time></trkpt><trkpt lat="45.732945792773684" lon="9.637964889815718"><ele>299.57142857142856</ele><time>2026-04-17T13:37:41Z</time></trkpt><trkpt lat="45.732974557944246" lon="9.637882722226594"><ele>299.42857142857144</ele><time>2026-04-17T13:37:42Z</time></trkpt><trkpt lat="45.73303033027737" lon="9.63772058322556"><ele>299.2857142857143</ele><time>2026-04-17T13:37:44Z</time></trkpt><trkpt lat="45.73305665265432" lon="9.637637332273398"><ele>299.1428571428571</ele><time>2026-04-17T13:37:45Z</time></trkpt><trkpt lat="45.7330849499411" lon="9.637556109738288"><ele>299.0</ele><time>2026-04-17T13:37:46Z</time></trkpt><trkpt lat="45.73313557175114" lon="9.63739690712311"><ele>299.0</ele><time>2026-04-17T13:37:48Z</time></trkpt><trkpt lat="45.733179755889985" lon="9.637245678049618"><ele>299.0</ele><time>2026-04-17T13:37:50Z</time></trkpt><trkpt lat="45.73323011651512" lon="9.637095644519095"><ele>299.0</ele><time>2026-04-17T13:37:52Z</time></trkpt><trkpt lat="45.73327656973722" lon="9.636932367765985"><ele>299.0</ele><time>2026-04-17T13:37:54Z</time></trkpt><trkpt lat="45.73332545576518" lon="9.636776099254492"><ele>299.1666666666667</ele><time>2026-04-17T13:37:56Z</time></trkpt><trkpt lat="45.73337197276618" lon="9.636628198759306"><ele>299.33333333333337</ele><time>2026-04-17T13:37:58Z</time></trkpt><trkpt lat="45.73341214845245" lon="9.63650395581124"><ele>299.5</ele><time>2026-04-17T13:38:00Z</time></trkpt><trkpt lat="45.73345342023372" lon="9.636397850688923"><ele>299.6666666666667</ele><time>2026-04-17T13:38:02Z</time></trkpt><trkpt lat="45.73348571755068" lon="9.636304088763909"><ele>299.8333333333333</ele><time>2026-04-17T13:38:04Z</time></trkpt><trkpt lat="45.73351187361655" lon="9.636211299301557"><ele>300.0</ele><time>2026-04-17T13:38:06Z</time></trkpt><trkpt lat="45.73354243057105" lon="9.636098557275854"><ele>300.2</ele><time>2026-04-17T13:38:08Z</time></trkpt><trkpt lat="45.733579484195616" lon="9.635970887257862"><ele>300.4</ele><time>2026-04-17T13:38:10Z</time></trkpt><trkpt lat="45.7336229465884" lon="9.635835660227471"><ele>300.6</ele><time>2026-04-17T13:38:12Z</time></trkpt><trkpt lat="45.733668330734204" lon="9.635691792545447"><ele>300.8</ele><time>2026-04-17T13:38:14Z</time></trkpt><trkpt lat="45.73371536139787" lon="9.635545672770698"><ele>301.0</ele><time>2026-04-17T13:38:16Z</time></trkpt><trkpt lat="45.73375991962402" lon="9.635392288749765"><ele>301.5</ele><time>2026-04-17T13:38:18Z</time></trkpt><trkpt lat="45.733792232585294" lon="9.63523714457171"><ele>302.0</ele><time>2026-04-17T13:38:20Z</time></trkpt><trkpt lat="45.73381418228311" lon="9.635105048655888"><ele>302.5</ele><time>2026-04-17T13:38:22Z</time></trkpt><trkpt lat="45.73385063216866" lon="9.635007063312239"><ele>303.0</ele><time>2026-04-17T13:38:24Z</time></trkpt><trkpt lat="45.733867107028274" lon="9.634893441626565"><ele>303.5</ele><time>2026-04-17T13:38:51Z</time></trkpt><trkpt lat="45.73388162103665" lon="9.634792180859838"><ele>304.0</ele><time>2026-04-17T13:38:53Z</time></trkpt><trkpt lat="45.73387832326818" lon="9.63466623802081"><ele>304.0</ele><time>2026-04-17T13:38:55Z</time></trkpt><trkpt lat="45.73385705232231" lon="9.634520821469115"><ele>304.0</ele><time>2026-04-17T13:38:57Z</time></trkpt><trkpt lat="45.73383088936281" lon="9.634393735130159"><ele>304.0</ele><time>2026-04-17T13:38:59Z</time></trkpt><trkpt lat="45.733811014787356" lon="9.634241926974536"><ele>304.0</ele><time>2026-04-17T13:39:01Z</time></trkpt><trkpt lat="45.733808042245215" lon="9.634078951390393"><ele>304.0</ele><time>2026-04-17T13:39:03Z</time></trkpt><trkpt lat="45.73381186612394" lon="9.633899070234989"><ele>303.8333333333333</ele><time>2026-04-17T13:39:05Z</time></trkpt><trkpt lat="45.733818689579515" lon="9.63380436052687"><ele>303.66666666666663</ele><time>2026-04-17T13:39:06Z</time></trkpt><trkpt lat="45.73381342699442" lon="9.63371007693689"><ele>303.5</ele><time>2026-04-17T13:39:07Z</time></trkpt><trkpt lat="45.733818658824866" lon="9.63353071795657"><ele>303.3333333333333</ele><time>2026-04-17T13:39:09Z</time></trkpt><trkpt lat="45.733821896193305" lon="9.633433345534314"><ele>303.1666666666667</ele><time>2026-04-17T13:39:10Z</time></trkpt><trkpt lat="45.73382484763862" lon="9.633337698466102"><ele>303.0</ele><time>2026-04-17T13:39:11Z</time></trkpt><trkpt lat="45.733829022066494" lon="9.633242401329257"><ele>303.0</ele><time>2026-04-17T13:39:12Z</time></trkpt><trkpt lat="45.7338315889972" lon="9.63314500922736"><ele>303.0</ele><time>2026-04-17T13:39:13Z</time></trkpt><trkpt lat="45.733834010878994" lon="9.633047771892214"><ele>303.0</ele><time>2026-04-17T13:39:14Z</time></trkpt><trkpt lat="45.73383499972853" lon="9.632950331627308"><ele>303.0</ele><time>2026-04-17T13:39:15Z</time></trkpt><trkpt lat="45.73383711870004" lon="9.632850501456161"><ele>303.0</ele><time>2026-04-17T13:39:16Z</time></trkpt><trkpt lat="45.733837821744814" lon="9.632751911516403"><ele>303.0</ele><time>2026-04-17T13:39:17Z</time></trkpt><trkpt lat="45.73383897650252" lon="9.632648921925623"><ele>303.0</ele><time>2026-04-17T13:39:18Z</time></trkpt><trkpt lat="45.733838649007936" lon="9.632545157744111"><ele>303.0</ele><time>2026-04-17T13:39:19Z</time></trkpt><trkpt lat="45.733840422302315" lon="9.632441922109818"><ele>303.0</ele><time>2026-04-17T13:39:20Z</time></trkpt><trkpt lat="45.733841248704515" lon="9.632337458325972"><ele>303.0</ele><time>2026-04-17T13:39:21Z</time></trkpt><trkpt lat="45.73384021098638" lon="9.632233985655589"><ele>303.0</ele><time>2026-04-17T13:39:22Z</time></trkpt><trkpt lat="45.73384128355056" lon="9.632128738663717"><ele>303.0</ele><time>2026-04-17T13:39:23Z</time></trkpt><trkpt lat="45.73384338967838" lon="9.632025579697093"><ele>303.0</ele><time>2026-04-17T13:39:24Z</time></trkpt><trkpt lat="45.73384513507758" lon="9.631930746540347"><ele>303.0</ele><time>2026-04-17T13:39:25Z</time></trkpt><trkpt lat="45.733841488922536" lon="9.631819741914564"><ele>303.0</ele><time>2026-04-17T13:39:26Z</time></trkpt><trkpt lat="45.7338425517903" lon="9.631721082067932"><ele>303.0</ele><time>2026-04-17T13:39:27Z</time></trkpt><trkpt lat="45.73384751218822" lon="9.631622304364113"><ele>303.0</ele><time>2026-04-17T13:39:28Z</time></trkpt><trkpt lat="45.73384220193679" lon="9.631523720293169"><ele>303.0</ele><time>2026-04-17T13:39:29Z</time></trkpt><trkpt lat="45.73384529436774" lon="9.631426223978504"><ele>303.0</ele><time>2026-04-17T13:39:30Z</time></trkpt><trkpt lat="45.73384410503071" lon="9.631329247738497"><ele>303.0</ele><time>2026-04-17T13:39:31Z</time></trkpt><trkpt lat="45.733843014958275" lon="9.631231235168025"><ele>303.0</ele><time>2026-04-17T13:39:32Z</time></trkpt><trkpt lat="45.73384431444931" lon="9.63113700626055"><ele>302.6666666666667</ele><time>2026-04-17T13:39:33Z</time></trkpt><trkpt lat="45.733845947400134" lon="9.631041877588164"><ele>302.3333333333333</ele><time>2026-04-17T13:39:34Z</time></trkpt><trkpt lat="45.73384686571389" lon="9.630947414589338"><ele>302.0</ele><time>2026-04-17T13:39:35Z</time></trkpt><trkpt lat="45.73385349004767" lon="9.630853192004743"><ele>301.66666666666663</ele><time>2026-04-17T13:39:36Z</time></trkpt><trkpt lat="45.73391125868645" lon="9.630691052494772"><ele>301.3333333333333</ele><time>2026-04-17T13:39:38Z</time></trkpt><trkpt lat="45.73393547784005" lon="9.630596580406083"><ele>301.0</ele><time>2026-04-17T13:39:39Z</time></trkpt><trkpt lat="45.733964112625245" lon="9.630509334643037"><ele>301.0</ele><time>2026-04-17T13:39:40Z</time></trkpt><trkpt lat="45.73399046958927" lon="9.63042057853582"><ele>301.0</ele><time>2026-04-17T13:39:41Z</time></trkpt><trkpt lat="45.73401878917475" lon="9.630330398333799"><ele>301.0</ele><time>2026-04-17T13:39:42Z</time></trkpt><trkpt lat="45.73404703390043" lon="9.630239719779544"><ele>301.0</ele><time>2026-04-17T13:39:43Z</time></trkpt><trkpt lat="45.73407554314924" lon="9.630146013081196"><ele>301.0</ele><time>2026-04-17T13:39:44Z</time></trkpt><trkpt lat="45.734105287356506" lon="9.630053372804836"><ele>301.0</ele><time>2026-04-17T13:39:45Z</time></trkpt><trkpt lat="45.73413432592477" lon="9.629959646233155"><ele>301.0</ele><time>2026-04-17T13:39:46Z</time></trkpt><trkpt lat="45.734165918914016" lon="9.629863282545287"><ele>300.57142857142856</ele><time>2026-04-17T13:39:47Z</time></trkpt><trkpt lat="45.73419638986668" lon="9.629770768214971"><ele>300.1428571428571</ele><time>2026-04-17T13:39:48Z</time></trkpt><trkpt lat="45.734223906718505" lon="9.629677483216001"><ele>299.7142857142857</ele><time>2026-04-17T13:39:49Z</time></trkpt><trkpt lat="45.73425479775066" lon="9.62958318146986"><ele>299.2857142857143</ele><time>2026-04-17T13:39:50Z</time></trkpt><trkpt lat="45.73428690204524" lon="9.629490972794148"><ele>298.85714285714283</ele><time>2026-04-17T13:39:51Z</time></trkpt><trkpt lat="45.734318106760995" lon="9.62940054111708"><ele>298.42857142857144</ele><time>2026-04-17T13:39:52Z</time></trkpt><trkpt lat="45.73434489859752" lon="9.62930484203909"><ele>298.0</ele><time>2026-04-17T13:39:53Z</time></trkpt><trkpt lat="45.73437833341441" lon="9.629212320004987"><ele>297.57142857142856</ele><time>2026-04-17T13:39:54Z</time></trkpt><trkpt lat="45.73440877273244" lon="9.629118150350227"><ele>297.1428571428571</ele><time>2026-04-17T13:39:55Z</time></trkpt><trkpt lat="45.734440992266315" lon="9.629027314849747"><ele>296.7142857142857</ele><time>2026-04-17T13:39:56Z</time></trkpt><trkpt lat="45.734469428038366" lon="9.628932530235149"><ele>296.2857142857143</ele><time>2026-04-17T13:39:57Z</time></trkpt><trkpt lat="45.73450012083982" lon="9.628841789353755"><ele>295.8571428571429</ele><time>2026-04-17T13:39:58Z</time></trkpt><trkpt lat="45.73452943187457" lon="9.628747988381404"><ele>295.42857142857144</ele><time>2026-04-17T13:39:59Z</time></trkpt><trkpt lat="45.73455544226728" lon="9.628654374010015"><ele>295.0</ele><time>2026-04-17T13:40:00Z</time></trkpt><trkpt lat="45.73458959218979" lon="9.628564209757885"><ele>294.5</ele><time>2026-04-17T13:40:01Z</time></trkpt><trkpt lat="45.73461579713317" lon="9.628471564302028"><ele>294.0</ele><time>2026-04-17T13:40:02Z</time></trkpt><trkpt lat="45.73464692426806" lon="9.628383508916896"><ele>293.5</ele><time>2026-04-17T13:40:03Z</time></trkpt><trkpt lat="45.73467269236842" lon="9.628291793226715"><ele>293.0</ele><time>2026-04-17T13:40:04Z</time></trkpt><trkpt lat="45.7347000352261" lon="9.628204575773436"><ele>292.5</ele><time>2026-04-17T13:40:05Z</time></trkpt><trkpt lat="45.734730348002834" lon="9.62811797554053"><ele>292.0</ele><time>2026-04-17T13:40:06Z</time></trkpt><trkpt lat="45.734779040362426" lon="9.62796063063219"><ele>292.0</ele><time>2026-04-17T13:40:08Z</time></trkpt><trkpt lat="45.73480881700571" lon="9.627870402030103"><ele>292.0</ele><time>2026-04-17T13:40:09Z</time></trkpt><trkpt lat="45.734862639088455" lon="9.627708678301184"><ele>292.0</ele><time>2026-04-17T13:40:11Z</time></trkpt><trkpt lat="45.73488878363306" lon="9.627624878523475"><ele>292.0</ele><time>2026-04-17T13:40:12Z</time></trkpt><trkpt lat="45.734914067904775" lon="9.62754202734999"><ele>292.0</ele><time>2026-04-17T13:40:13Z</time></trkpt><trkpt lat="45.734940694012764" lon="9.627458864342398"><ele>292.0</ele><time>2026-04-17T13:40:14Z</time></trkpt><trkpt lat="45.73499464901278" lon="9.627298397645353"><ele>292.2</ele><time>2026-04-17T13:40:16Z</time></trkpt><trkpt lat="45.73504905868073" lon="9.627138863464303"><ele>292.4</ele><time>2026-04-17T13:40:18Z</time></trkpt><trkpt lat="45.735091757299074" lon="9.626980259098799"><ele>292.6</ele><time>2026-04-17T13:40:20Z</time></trkpt><trkpt lat="45.73514509188669" lon="9.626819360853688"><ele>292.8</ele><time>2026-04-17T13:40:22Z</time></trkpt><trkpt lat="45.73517051528593" lon="9.626736267416057"><ele>293.0</ele><time>2026-04-17T13:40:23Z</time></trkpt><trkpt lat="45.73522360266828" lon="9.626571544834903"><ele>295.0</ele><time>2026-04-17T13:40:25Z</time></trkpt><trkpt lat="45.73527570626915" lon="9.626412840794893"><ele>297.0</ele><time>2026-04-17T13:40:27Z</time></trkpt><trkpt lat="45.73532631053874" lon="9.62625027067586"><ele>299.0</ele><time>2026-04-17T13:40:29Z</time></trkpt><trkpt lat="45.735377631043264" lon="9.626089848940078"><ele>301.0</ele><time>2026-04-17T13:40:31Z</time></trkpt><trkpt lat="45.735403361108816" lon="9.6260056053823"><ele>303.0</ele><time>2026-04-17T13:40:32Z</time></trkpt><trkpt lat="45.73545859681365" lon="9.625847892567307"><ele>303.0</ele><time>2026-04-17T13:40:34Z</time></trkpt><trkpt lat="45.73551138904509" lon="9.62568798566298"><ele>303.0</ele><time>2026-04-17T13:40:36Z</time></trkpt><trkpt lat="45.73556445837162" lon="9.625528805935684"><ele>303.0</ele><time>2026-04-17T13:40:38Z</time></trkpt><trkpt lat="45.735586950329" lon="9.62544209411744"><ele>303.0</ele><time>2026-04-17T13:40:39Z</time></trkpt><trkpt lat="45.73564057526106" lon="9.625281086207798"><ele>303.0</ele><time>2026-04-17T13:40:41Z</time></trkpt><trkpt lat="45.73569030747772" lon="9.625119787661745"><ele>303.0</ele><time>2026-04-17T13:40:43Z</time></trkpt><trkpt lat="45.73574349397874" lon="9.624955139456228"><ele>303.0</ele><time>2026-04-17T13:40:45Z</time></trkpt><trkpt lat="45.735776926233974" lon="9.624872608584994"><ele>303.0</ele><time>2026-04-17T13:40:46Z</time></trkpt><trkpt lat="45.735825678073375" lon="9.624703943289608"><ele>303.0</ele><time>2026-04-17T13:40:48Z</time></trkpt><trkpt lat="45.73588742463741" lon="9.624552007987193"><ele>303.0</ele><time>2026-04-17T13:40:50Z</time></trkpt><trkpt lat="45.73591049043134" lon="9.624457491186808"><ele>302.8571428571429</ele><time>2026-04-17T13:40:51Z</time></trkpt><trkpt lat="45.735947047689415" lon="9.624377272236211"><ele>302.7142857142857</ele><time>2026-04-17T13:40:52Z</time></trkpt><trkpt lat="45.735982334766256" lon="9.624293200316396"><ele>302.57142857142856</ele><time>2026-04-17T13:40:53Z</time></trkpt><trkpt lat="45.73600994543082" lon="9.6242104998801"><ele>302.42857142857144</ele><time>2026-04-17T13:40:54Z</time></trkpt><trkpt lat="45.736047652638426" lon="9.624131981943329"><ele>302.2857142857143</ele><time>2026-04-17T13:40:55Z</time></trkpt><trkpt lat="45.736079047494414" lon="9.624047951307807"><ele>302.14285714285717</ele><time>2026-04-17T13:40:56Z</time></trkpt><trkpt lat="45.736114001080026" lon="9.623970631762866"><ele>302.0</ele><time>2026-04-17T13:40:57Z</time></trkpt><trkpt lat="45.73615297841054" lon="9.623896113574476"><ele>302.0</ele><time>2026-04-17T13:40:58Z</time></trkpt><trkpt lat="45.73619203934511" lon="9.623822280376164"><ele>302.0</ele><time>2026-04-17T13:40:59Z</time></trkpt><trkpt lat="45.73627474706887" lon="9.623683606481901"><ele>302.0</ele><time>2026-04-17T13:41:01Z</time></trkpt><trkpt lat="45.73635821407051" lon="9.623548785951705"><ele>302.0</ele><time>2026-04-17T13:41:03Z</time></trkpt><trkpt lat="45.73644647837813" lon="9.623453441710714"><ele>302.0</ele><time>2026-04-17T13:41:05Z</time></trkpt><trkpt lat="45.73649897466434" lon="9.623366819354494"><ele>302.0</ele><time>2026-04-17T13:41:06Z</time></trkpt><trkpt lat="45.73655130969672" lon="9.623311945779582"><ele>302.0</ele><time>2026-04-17T13:41:07Z</time></trkpt><trkpt lat="45.73665377226726" lon="9.623194548745753"><ele>302.0</ele><time>2026-04-17T13:41:09Z</time></trkpt><trkpt lat="45.736761487614565" lon="9.62308077774687"><ele>302.0</ele><time>2026-04-17T13:41:11Z</time></trkpt><trkpt lat="45.736824702650495" lon="9.623035547867689"><ele>302.0</ele><time>2026-04-17T13:41:12Z</time></trkpt><trkpt lat="45.73687901084245" lon="9.622982808952612"><ele>301.5714285714286</ele><time>2026-04-17T13:41:13Z</time></trkpt><trkpt lat="45.736939960357574" lon="9.622933479423752"><ele>301.14285714285717</ele><time>2026-04-17T13:41:14Z</time></trkpt><trkpt lat="45.736999500352425" lon="9.622886021928453"><ele>300.7142857142857</ele><time>2026-04-17T13:41:15Z</time></trkpt><trkpt lat="45.73706048739671" lon="9.622840052683584"><ele>300.28571428571433</ele><time>2026-04-17T13:41:16Z</time></trkpt><trkpt lat="45.73711921066423" lon="9.622793831433054"><ele>299.8571428571429</ele><time>2026-04-17T13:41:17Z</time></trkpt><trkpt lat="45.737181697754274" lon="9.622751462964075"><ele>299.42857142857144</ele><time>2026-04-17T13:41:18Z</time></trkpt><trkpt lat="45.73724308905386" lon="9.622702847672084"><ele>299.0</ele><time>2026-04-17T13:41:19Z</time></trkpt><trkpt lat="45.73730514677768" lon="9.622655523572321"><ele>298.7142857142857</ele><time>2026-04-17T13:41:20Z</time></trkpt><trkpt lat="45.73736792643882" lon="9.6226110808308"><ele>298.42857142857144</ele><time>2026-04-17T13:41:21Z</time></trkpt><trkpt lat="45.73742889520487" lon="9.622560334737042"><ele>298.14285714285717</ele><time>2026-04-17T13:41:22Z</time></trkpt><trkpt lat="45.73749415019229" lon="9.622514340846276"><ele>297.8571428571429</ele><time>2026-04-17T13:41:23Z</time></trkpt><trkpt lat="45.73755735051039" lon="9.622465727084366"><ele>297.5714285714286</ele><time>2026-04-17T13:41:24Z</time></trkpt><trkpt lat="45.737620295883836" lon="9.622419511627012"><ele>297.2857142857143</ele><time>2026-04-17T13:41:25Z</time></trkpt><trkpt lat="45.737681206695896" lon="9.622373296384492"><ele>297.0</ele><time>2026-04-17T13:41:26Z</time></trkpt><trkpt lat="45.73774580683609" lon="9.622325211638556"><ele>296.8333333333333</ele><time>2026-04-17T13:41:27Z</time></trkpt><trkpt lat="45.73781021067401" lon="9.622276295630405"><ele>296.6666666666667</ele><time>2026-04-17T13:41:28Z</time></trkpt><trkpt lat="45.737926587614886" lon="9.622190286266719"><ele>296.5</ele><time>2026-04-17T13:41:30Z</time></trkpt><trkpt lat="45.73798864152673" lon="9.6221485097358"><ele>296.33333333333337</ele><time>2026-04-17T13:41:31Z</time></trkpt><trkpt lat="45.73804735872885" lon="9.622106774297025"><ele>296.1666666666667</ele><time>2026-04-17T13:41:32Z</time></trkpt><trkpt lat="45.73810675475874" lon="9.622058289078952"><ele>296.0</ele><time>2026-04-17T13:41:33Z</time></trkpt><trkpt lat="45.73816690122741" lon="9.622017121235139"><ele>295.8571428571429</ele><time>2026-04-17T13:41:34Z</time></trkpt><trkpt lat="45.73822473944941" lon="9.621971647820782"><ele>295.7142857142857</ele><time>2026-04-17T13:41:35Z</time></trkpt><trkpt lat="45.73828032668139" lon="9.621926983393697"><ele>295.57142857142856</ele><time>2026-04-17T13:41:36Z</time></trkpt><trkpt lat="45.738340434186675" lon="9.621889598687522"><ele>295.42857142857144</ele><time>2026-04-17T13:41:37Z</time></trkpt><trkpt lat="45.738396022616826" lon="9.621843681544092"><ele>295.2857142857143</ele><time>2026-04-17T13:41:38Z</time></trkpt><trkpt lat="45.73845344381957" lon="9.62180133975717"><ele>295.14285714285717</ele><time>2026-04-17T13:41:39Z</time></trkpt><trkpt lat="45.738511052296175" lon="9.621760658858474"><ele>295.0</ele><time>2026-04-17T13:41:40Z</time></trkpt><trkpt lat="45.73856777247954" lon="9.621718808064392"><ele>295.3333333333333</ele><time>2026-04-17T13:41:41Z</time></trkpt><trkpt lat="45.738629164793174" lon="9.621674269736083"><ele>295.66666666666663</ele><time>2026-04-17T13:41:42Z</time></trkpt><trkpt lat="45.73868793057395" lon="9.621629948322976"><ele>296.0</ele><time>2026-04-17T13:41:43Z</time></trkpt><trkpt lat="45.7387496962432" lon="9.621590588082736"><ele>296.3333333333333</ele><time>2026-04-17T13:41:44Z</time></trkpt><trkpt lat="45.738849631148035" lon="9.621513846665176"><ele>296.6666666666667</ele><time>2026-04-17T13:41:46Z</time></trkpt><trkpt lat="45.73891796430028" lon="9.62145492898177"><ele>297.0</ele><time>2026-04-17T13:41:48Z</time></trkpt><trkpt lat="45.73901313840101" lon="9.621384586152283"><ele>297.0</ele><time>2026-04-17T13:41:50Z</time></trkpt><trkpt lat="45.739071092407684" lon="9.621339145506312"><ele>297.0</ele><time>2026-04-17T13:41:51Z</time></trkpt><trkpt lat="45.739132296809345" lon="9.621297785493967"><ele>297.0</ele><time>2026-04-17T13:41:52Z</time></trkpt><trkpt lat="45.739191692363164" lon="9.621253970300671"><ele>297.0</ele><time>2026-04-17T13:41:53Z</time></trkpt><trkpt lat="45.739251858923744" lon="9.621210748782397"><ele>297.0</ele><time>2026-04-17T13:41:54Z</time></trkpt><trkpt lat="45.73931023659765" lon="9.621172845507603"><ele>297.0</ele><time>2026-04-17T13:41:55Z</time></trkpt><trkpt lat="45.73936988299016" lon="9.621137726527165"><ele>297.0</ele><time>2026-04-17T13:41:56Z</time></trkpt><trkpt lat="45.73943268382011" lon="9.621086646399942"><ele>297.0</ele><time>2026-04-17T13:41:57Z</time></trkpt><trkpt lat="45.739489428222925" lon="9.621046569481724"><ele>297.0</ele><time>2026-04-17T13:41:58Z</time></trkpt><trkpt lat="45.739553447695606" lon="9.621007864414292"><ele>297.0</ele><time>2026-04-17T13:41:59Z</time></trkpt><trkpt lat="45.739662924082104" lon="9.620922984020622"><ele>297.0</ele><time>2026-04-17T13:42:01Z</time></trkpt><trkpt lat="45.73972180106394" lon="9.620872683167448"><ele>297.0</ele><time>2026-04-17T13:42:02Z</time></trkpt><trkpt lat="45.7397813987463" lon="9.620812096788226"><ele>297.0</ele><time>2026-04-17T13:42:03Z</time></trkpt><trkpt lat="45.73983739014116" lon="9.620755213824456"><ele>297.0</ele><time>2026-04-17T13:42:04Z</time></trkpt><trkpt lat="45.73989814781938" lon="9.620709752335161"><ele>297.0</ele><time>2026-04-17T13:42:05Z</time></trkpt><trkpt lat="45.73996144388285" lon="9.620669964132384"><ele>297.0</ele><time>2026-04-17T13:42:06Z</time></trkpt><trkpt lat="45.74002292673885" lon="9.620630405878238"><ele>297.0</ele><time>2026-04-17T13:42:07Z</time></trkpt><trkpt lat="45.740086019557346" lon="9.620589748390998"><ele>297.0</ele><time>2026-04-17T13:42:08Z</time></trkpt><trkpt lat="45.74014761347872" lon="9.620548401306861"><ele>297.0</ele><time>2026-04-17T13:42:09Z</time></trkpt><trkpt lat="45.74020871772802" lon="9.620510175008341"><ele>297.0</ele><time>2026-04-17T13:42:10Z</time></trkpt><trkpt lat="45.74027132270393" lon="9.62046746435139"><ele>297.0</ele><time>2026-04-17T13:42:11Z</time></trkpt><trkpt lat="45.7403292867948" lon="9.620424577180524"><ele>297.0</ele><time>2026-04-17T13:42:12Z</time></trkpt><trkpt lat="45.74039026917719" lon="9.620378092124364"><ele>297.0</ele><time>2026-04-17T13:42:13Z</time></trkpt><trkpt lat="45.7404503399985" lon="9.6203356101228"><ele>297.0</ele><time>2026-04-17T13:42:14Z</time></trkpt><trkpt lat="45.740505987960525" lon="9.620286823750334"><ele>297.0</ele><time>2026-04-17T13:42:15Z</time></trkpt><trkpt lat="45.74056315410075" lon="9.62023679679179"><ele>297.0</ele><time>2026-04-17T13:42:16Z</time></trkpt><trkpt lat="45.74061595748217" lon="9.620181446329559"><ele>297.0</ele><time>2026-04-17T13:42:17Z</time></trkpt><trkpt lat="45.74066989874473" lon="9.620124259261905"><ele>296.8571428571429</ele><time>2026-04-17T13:42:18Z</time></trkpt><trkpt lat="45.740728370576655" lon="9.620079440792308"><ele>296.7142857142857</ele><time>2026-04-17T13:42:19Z</time></trkpt><trkpt lat="45.74078903105426" lon="9.620032718707563"><ele>296.57142857142856</ele><time>2026-04-17T13:42:20Z</time></trkpt><trkpt lat="45.74085044715603" lon="9.620006988890344"><ele>296.42857142857144</ele><time>2026-04-17T13:42:21Z</time></trkpt><trkpt lat="45.74091777264304" lon="9.619986675581584"><ele>296.2857142857143</ele><time>2026-04-17T13:42:22Z</time></trkpt><trkpt lat="45.74097840517372" lon="9.619950223654481"><ele>296.14285714285717</ele><time>2026-04-17T13:42:23Z</time></trkpt><trkpt lat="45.741033339725696" lon="9.619901043704015"><ele>296.0</ele><time>2026-04-17T13:42:24Z</time></trkpt><trkpt lat="45.74109182724096" lon="9.61985406468073"><ele>295.8571428571429</ele><time>2026-04-17T13:42:25Z</time></trkpt><trkpt lat="45.74114978454255" lon="9.619807641646002"><ele>295.7142857142857</ele><time>2026-04-17T13:42:26Z</time></trkpt><trkpt lat="45.74120783645043" lon="9.619765628338447"><ele>295.57142857142856</ele><time>2026-04-17T13:42:27Z</time></trkpt><trkpt lat="45.7412698363644" lon="9.619726238405603"><ele>295.42857142857144</ele><time>2026-04-17T13:42:28Z</time></trkpt><trkpt lat="45.74132786672511" lon="9.619684512493956"><ele>295.2857142857143</ele><time>2026-04-17T13:42:29Z</time></trkpt><trkpt lat="45.741383338486244" lon="9.619639224153046"><ele>295.14285714285717</ele><time>2026-04-17T13:42:30Z</time></trkpt><trkpt lat="45.741441505634725" lon="9.619596282302778"><ele>295.0</ele><time>2026-04-17T13:42:31Z</time></trkpt><trkpt lat="45.7414991578514" lon="9.619552984787143"><ele>295.00000000000006</ele><time>2026-04-17T13:42:32Z</time></trkpt><trkpt lat="45.7415553551477" lon="9.619509850102345"><ele>295.0</ele><time>2026-04-17T13:42:33Z</time></trkpt><trkpt lat="45.74161266200593" lon="9.61946749265788"><ele>295.0</ele><time>2026-04-17T13:42:34Z</time></trkpt><trkpt lat="45.74166968538745" lon="9.619424309900309"><ele>295.0</ele><time>2026-04-17T13:42:35Z</time></trkpt><trkpt lat="45.74172526114863" lon="9.61937447579492"><ele>295.0</ele><time>2026-04-17T13:42:36Z</time></trkpt><trkpt lat="45.7417794560651" lon="9.619322953015692"><ele>295.00000000000006</ele><time>2026-04-17T13:42:37Z</time></trkpt><trkpt lat="45.74183439261897" lon="9.61927729349367"><ele>295.0</ele><time>2026-04-17T13:42:38Z</time></trkpt><trkpt lat="45.741889473470266" lon="9.619224390381651"><ele>295.14285714285717</ele><time>2026-04-17T13:42:39Z</time></trkpt><trkpt lat="45.74194419896125" lon="9.619171696006788"><ele>295.2857142857143</ele><time>2026-04-17T13:42:40Z</time></trkpt><trkpt lat="45.74199715707405" lon="9.6191223672896"><ele>295.42857142857144</ele><time>2026-04-17T13:42:41Z</time></trkpt><trkpt lat="45.74205317276312" lon="9.619076550039718"><ele>295.57142857142856</ele><time>2026-04-17T13:42:42Z</time></trkpt><trkpt lat="45.74210326640236" lon="9.619020293125283"><ele>295.7142857142857</ele><time>2026-04-17T13:42:43Z</time></trkpt><trkpt lat="45.742157501284055" lon="9.618967672731346"><ele>295.8571428571429</ele><time>2026-04-17T13:42:44Z</time></trkpt><trkpt lat="45.74221092611308" lon="9.61891757473564"><ele>296.0</ele><time>2026-04-17T13:42:45Z</time></trkpt><trkpt lat="45.74226444153387" lon="9.61886093214594"><ele>296.0</ele><time>2026-04-17T13:42:46Z</time></trkpt><trkpt lat="45.742317231556505" lon="9.61880807235268"><ele>296.0</ele><time>2026-04-17T13:42:47Z</time></trkpt><trkpt lat="45.74237112340425" lon="9.618752114251055"><ele>296.0</ele><time>2026-04-17T13:42:48Z</time></trkpt><trkpt lat="45.7424242240911" lon="9.618696531357456"><ele>296.0</ele><time>2026-04-17T13:42:49Z</time></trkpt><trkpt lat="45.74247816684942" lon="9.618641218355181"><ele>296.0</ele><time>2026-04-17T13:42:50Z</time></trkpt><trkpt lat="45.742531156475586" lon="9.618585618657349"><ele>296.0</ele><time>2026-04-17T13:42:51Z</time></trkpt><trkpt lat="45.742583220871424" lon="9.618530594243266"><ele>296.0</ele><time>2026-04-17T13:42:52Z</time></trkpt><trkpt lat="45.74263881428837" lon="9.618479674660529"><ele>296.0</ele><time>2026-04-17T13:42:53Z</time></trkpt><trkpt lat="45.742689129045644" lon="9.61842344872586"><ele>296.0</ele><time>2026-04-17T13:42:54Z</time></trkpt><trkpt lat="45.74274348707445" lon="9.618369731548576"><ele>296.0</ele><time>2026-04-17T13:42:55Z</time></trkpt><trkpt lat="45.74279589773003" lon="9.618314022025581"><ele>296.0</ele><time>2026-04-17T13:42:56Z</time></trkpt><trkpt lat="45.74284772013561" lon="9.618257667460727"><ele>296.0</ele><time>2026-04-17T13:42:57Z</time></trkpt><trkpt lat="45.74289872850762" lon="9.618204199349597"><ele>296.0</ele><time>2026-04-17T13:42:58Z</time></trkpt><trkpt lat="45.742952448225246" lon="9.618152386316327"><ele>296.0</ele><time>2026-04-17T13:42:59Z</time></trkpt><trkpt lat="45.74300415445974" lon="9.618097601185896"><ele>296.0</ele><time>2026-04-17T13:43:00Z</time></trkpt><trkpt lat="45.74306106005213" lon="9.618038654310556"><ele>296.0</ele><time>2026-04-17T13:43:01Z</time></trkpt><trkpt lat="45.7431130298949" lon="9.617980080022365"><ele>296.0</ele><time>2026-04-17T13:43:02Z</time></trkpt><trkpt lat="45.74321445815347" lon="9.617882812907421"><ele>296.0</ele><time>2026-04-17T13:43:04Z</time></trkpt><trkpt lat="45.74326524385036" lon="9.617823726950952"><ele>296.0</ele><time>2026-04-17T13:43:05Z</time></trkpt><trkpt lat="45.74337049799515" lon="9.617720629156958"><ele>296.0</ele><time>2026-04-17T13:43:07Z</time></trkpt><trkpt lat="45.743473510974255" lon="9.61761602329416"><ele>296.0</ele><time>2026-04-17T13:43:09Z</time></trkpt><trkpt lat="45.7435769896762" lon="9.617507303887697"><ele>296.0</ele><time>2026-04-17T13:43:11Z</time></trkpt><trkpt lat="45.74362904330443" lon="9.617456151506435"><ele>296.0</ele><time>2026-04-17T13:43:12Z</time></trkpt><trkpt lat="45.74368059610355" lon="9.617401407168824"><ele>296.0</ele><time>2026-04-17T13:43:13Z</time></trkpt><trkpt lat="45.743735437603426" lon="9.617345445148711"><ele>296.0</ele><time>2026-04-17T13:43:14Z</time></trkpt><trkpt lat="45.74378579993086" lon="9.617289389405158"><ele>296.0</ele><time>2026-04-17T13:43:15Z</time></trkpt><trkpt lat="45.74383961899036" lon="9.617237473989112"><ele>296.0</ele><time>2026-04-17T13:43:16Z</time></trkpt><trkpt lat="45.74389063683452" lon="9.617183892082155"><ele>296.0</ele><time>2026-04-17T13:43:17Z</time></trkpt><trkpt lat="45.74394294422138" lon="9.617130877185286"><ele>296.0</ele><time>2026-04-17T13:43:18Z</time></trkpt><trkpt lat="45.743992483875516" lon="9.617073201041357"><ele>296.0</ele><time>2026-04-17T13:43:19Z</time></trkpt><trkpt lat="45.74404516511426" lon="9.617018557889043"><ele>296.0</ele><time>2026-04-17T13:43:20Z</time></trkpt><trkpt lat="45.74410094266475" lon="9.616970226813143"><ele>296.0</ele><time>2026-04-17T13:43:21Z</time></trkpt><trkpt lat="45.74420466490102" lon="9.616863899500819"><ele>296.0</ele><time>2026-04-17T13:43:23Z</time></trkpt><trkpt lat="45.74425601875349" lon="9.616810800071507"><ele>296.0</ele><time>2026-04-17T13:43:24Z</time></trkpt><trkpt lat="45.74430598691327" lon="9.616753882646258"><ele>296.0</ele><time>2026-04-17T13:43:25Z</time></trkpt><trkpt lat="45.74435883667504" lon="9.616700152087672"><ele>296.0</ele><time>2026-04-17T13:43:26Z</time></trkpt><trkpt lat="45.74441071509112" lon="9.616644938981224"><ele>296.0</ele><time>2026-04-17T13:43:27Z</time></trkpt><trkpt lat="45.744460742972294" lon="9.61658882212266"><ele>296.0</ele><time>2026-04-17T13:43:28Z</time></trkpt><trkpt lat="45.744514520059134" lon="9.616537085737583"><ele>296.0</ele><time>2026-04-17T13:43:29Z</time></trkpt><trkpt lat="45.744566212959604" lon="9.61648169938811"><ele>296.0</ele><time>2026-04-17T13:43:30Z</time></trkpt><trkpt lat="45.74461835269688" lon="9.616428659261478"><ele>296.0</ele><time>2026-04-17T13:43:31Z</time></trkpt><trkpt lat="45.744671756943305" lon="9.616376280504364"><ele>296.0</ele><time>2026-04-17T13:43:32Z</time></trkpt><trkpt lat="45.744723711411595" lon="9.616318748326838"><ele>296.0</ele><time>2026-04-17T13:43:33Z</time></trkpt><trkpt lat="45.744776665109484" lon="9.616266663014358"><ele>296.0</ele><time>2026-04-17T13:43:34Z</time></trkpt><trkpt lat="45.74483043546729" lon="9.616211649170003"><ele>296.0</ele><time>2026-04-17T13:43:35Z</time></trkpt><trkpt lat="45.74493513281724" lon="9.61610657478914"><ele>296.0</ele><time>2026-04-17T13:43:37Z</time></trkpt><trkpt lat="45.74503914381659" lon="9.616002405662986"><ele>296.0</ele><time>2026-04-17T13:43:39Z</time></trkpt><trkpt lat="45.74508840194287" lon="9.615945144897557"><ele>296.0</ele><time>2026-04-17T13:43:40Z</time></trkpt><trkpt lat="45.74514278177566" lon="9.615894884908057"><ele>296.0</ele><time>2026-04-17T13:43:41Z</time></trkpt><trkpt lat="45.74526073011511" lon="9.615808621698319"><ele>296.0</ele><time>2026-04-17T13:43:43Z</time></trkpt><trkpt lat="45.74536313661752" lon="9.61571587533713"><ele>296.0</ele><time>2026-04-17T13:43:45Z</time></trkpt><trkpt lat="45.74542101931071" lon="9.615677283351737"><ele>296.0</ele><time>2026-04-17T13:43:46Z</time></trkpt><trkpt lat="45.745480567429176" lon="9.61564605704549"><ele>296.0</ele><time>2026-04-17T13:43:47Z</time></trkpt><trkpt lat="45.74559797484943" lon="9.615585730290318"><ele>296.0</ele><time>2026-04-17T13:43:49Z</time></trkpt><trkpt lat="45.745654442928526" lon="9.615541189061515"><ele>296.0</ele><time>2026-04-17T13:43:50Z</time></trkpt><trkpt lat="45.74570235311648" lon="9.615480035105517"><ele>296.0</ele><time>2026-04-17T13:43:51Z</time></trkpt><trkpt lat="45.74577907453948" lon="9.615336566476541"><ele>296.0</ele><time>2026-04-17T13:43:53Z</time></trkpt><trkpt lat="45.74585772863926" lon="9.615197241631808"><ele>296.0</ele><time>2026-04-17T13:43:55Z</time></trkpt><trkpt lat="45.745913009895034" lon="9.615144649285977"><ele>296.0</ele><time>2026-04-17T13:43:56Z</time></trkpt><trkpt lat="45.746015292194464" lon="9.615048137685434"><ele>296.0</ele><time>2026-04-17T13:43:58Z</time></trkpt><trkpt lat="45.746116156594724" lon="9.614940089392283"><ele>296.0</ele><time>2026-04-17T13:44:00Z</time></trkpt><trkpt lat="45.74622144125988" lon="9.614843764994117"><ele>296.0</ele><time>2026-04-17T13:44:02Z</time></trkpt><trkpt lat="45.74632654755105" lon="9.614749980557827"><ele>296.0</ele><time>2026-04-17T13:44:04Z</time></trkpt><trkpt lat="45.746425861028754" lon="9.61464126192578"><ele>296.0</ele><time>2026-04-17T13:44:06Z</time></trkpt><trkpt lat="45.74647791367915" lon="9.614588769849531"><ele>296.0</ele><time>2026-04-17T13:44:07Z</time></trkpt><trkpt lat="45.74652583407947" lon="9.614530027084687"><ele>296.0</ele><time>2026-04-17T13:44:08Z</time></trkpt><trkpt lat="45.74662402999582" lon="9.614420405234092"><ele>296.0</ele><time>2026-04-17T13:44:10Z</time></trkpt><trkpt lat="45.74667655729978" lon="9.614367763687259"><ele>296.0</ele><time>2026-04-17T13:44:11Z</time></trkpt><trkpt lat="45.746777480888184" lon="9.614253302079474"><ele>295.5</ele><time>2026-04-17T13:44:13Z</time></trkpt><trkpt lat="45.746840921874494" lon="9.614230472576065"><ele>295.0</ele><time>2026-04-17T13:44:14Z</time></trkpt><trkpt lat="45.746965602052676" lon="9.614212801046914"><ele>294.5</ele><time>2026-04-17T13:44:16Z</time></trkpt><trkpt lat="45.747023665183946" lon="9.614177057698342"><ele>294.0</ele><time>2026-04-17T13:44:17Z</time></trkpt><trkpt lat="45.74707505088313" lon="9.6141103458562"><ele>293.5</ele><time>2026-04-17T13:44:18Z</time></trkpt><trkpt lat="45.74712172501854" lon="9.614040563851749"><ele>293.0</ele><time>2026-04-17T13:44:19Z</time></trkpt><trkpt lat="45.747176459274186" lon="9.613973866323022"><ele>292.99999999999994</ele><time>2026-04-17T13:44:20Z</time></trkpt><trkpt lat="45.747239121347214" lon="9.613924864392104"><ele>293.0</ele><time>2026-04-17T13:44:21Z</time></trkpt><trkpt lat="45.74730724060556" lon="9.613896126540332"><ele>293.0</ele><time>2026-04-17T13:44:22Z</time></trkpt><trkpt lat="45.74737698842636" lon="9.61387040860027"><ele>293.0</ele><time>2026-04-17T13:44:23Z</time></trkpt><trkpt lat="45.74744518574968" lon="9.613836460713276"><ele>293.0</ele><time>2026-04-17T13:44:24Z</time></trkpt><trkpt lat="45.747512471089344" lon="9.61379508698314"><ele>292.99999999999994</ele><time>2026-04-17T13:44:25Z</time></trkpt><trkpt lat="45.74758072516325" lon="9.613753126979885"><ele>293.0</ele><time>2026-04-17T13:44:26Z</time></trkpt><trkpt lat="45.74765255350353" lon="9.613703255137903"><ele>293.1428571428571</ele><time>2026-04-17T13:44:27Z</time></trkpt><trkpt lat="45.74771721609286" lon="9.613668571379351"><ele>293.2857142857143</ele><time>2026-04-17T13:44:28Z</time></trkpt><trkpt lat="45.747780112364836" lon="9.613621831761611"><ele>293.42857142857144</ele><time>2026-04-17T13:44:29Z</time></trkpt><trkpt lat="45.74784527502109" lon="9.61358528579434"><ele>293.57142857142856</ele><time>2026-04-17T13:44:30Z</time></trkpt><trkpt lat="45.74790869315607" lon="9.613551257297743"><ele>293.7142857142857</ele><time>2026-04-17T13:44:31Z</time></trkpt><trkpt lat="45.74797300496835" lon="9.61350627209043"><ele>293.85714285714283</ele><time>2026-04-17T13:44:32Z</time></trkpt><trkpt lat="45.748031523849875" lon="9.613470518787556"><ele>294.0</ele><time>2026-04-17T13:44:33Z</time></trkpt><trkpt lat="45.74809245645261" lon="9.613434176193579"><ele>294.14285714285717</ele><time>2026-04-17T13:44:34Z</time></trkpt><trkpt lat="45.748151627858086" lon="9.613395839026259"><ele>294.2857142857143</ele><time>2026-04-17T13:44:35Z</time></trkpt><trkpt lat="45.7482106195351" lon="9.613358576743485"><ele>294.42857142857144</ele><time>2026-04-17T13:44:36Z</time></trkpt><trkpt lat="45.74826929216584" lon="9.61331982100204"><ele>294.57142857142856</ele><time>2026-04-17T13:44:37Z</time></trkpt><trkpt lat="45.74832696960551" lon="9.61328050609509"><ele>294.7142857142857</ele><time>2026-04-17T13:44:38Z</time></trkpt><trkpt lat="45.748446891896705" lon="9.61322162685398"><ele>294.8571428571429</ele><time>2026-04-17T13:44:40Z</time></trkpt><trkpt lat="45.748505177513984" lon="9.613187018729198"><ele>295.0</ele><time>2026-04-17T13:44:41Z</time></trkpt><trkpt lat="45.74856421005" lon="9.613152033404978"><ele>295.0</ele><time>2026-04-17T13:44:42Z</time></trkpt><trkpt lat="45.74862293375312" lon="9.613116484337292"><ele>295.0</ele><time>2026-04-17T13:44:43Z</time></trkpt><trkpt lat="45.74868174260649" lon="9.613077055601757"><ele>295.0</ele><time>2026-04-17T13:44:44Z</time></trkpt><trkpt lat="45.748795811850194" lon="9.613004405176062"><ele>295.0</ele><time>2026-04-17T13:44:46Z</time></trkpt><trkpt lat="45.748911504610426" lon="9.612934798625554"><ele>295.0</ele><time>2026-04-17T13:44:48Z</time></trkpt><trkpt lat="45.74902517605064" lon="9.612861551139085"><ele>295.00000000000006</ele><time>2026-04-17T13:44:50Z</time></trkpt><trkpt lat="45.74908354262169" lon="9.612826702447881"><ele>295.0</ele><time>2026-04-17T13:44:51Z</time></trkpt><trkpt lat="45.74914297940351" lon="9.61279510530906"><ele>295.0</ele><time>2026-04-17T13:44:52Z</time></trkpt><trkpt lat="45.74919990130163" lon="9.612754621043342"><ele>295.0</ele><time>2026-04-17T13:44:53Z</time></trkpt><trkpt lat="45.7493163670103" lon="9.612681567813869"><ele>295.0</ele><time>2026-04-17T13:44:55Z</time></trkpt><trkpt lat="45.749376104574466" lon="9.612645153965659"><ele>295.00000000000006</ele><time>2026-04-17T13:44:56Z</time></trkpt><trkpt lat="45.749436054747186" lon="9.612613393314703"><ele>295.0</ele><time>2026-04-17T13:44:57Z</time></trkpt><trkpt lat="45.749496213849056" lon="9.612577894991484"><ele>294.8333333333333</ele><time>2026-04-17T13:44:58Z</time></trkpt><trkpt lat="45.749557400913545" lon="9.612539107701654"><ele>294.66666666666663</ele><time>2026-04-17T13:44:59Z</time></trkpt><trkpt lat="45.74961842098579" lon="9.612502214351617"><ele>294.5</ele><time>2026-04-17T13:45:00Z</time></trkpt><trkpt lat="45.74973950998963" lon="9.61244049988846"><ele>294.3333333333333</ele><time>2026-04-17T13:45:02Z</time></trkpt><trkpt lat="45.749802616595154" lon="9.612412324190892"><ele>294.1666666666667</ele><time>2026-04-17T13:45:03Z</time></trkpt><trkpt lat="45.749863039910856" lon="9.612382827712148"><ele>294.0</ele><time>2026-04-17T13:45:04Z</time></trkpt><trkpt lat="45.74992754301792" lon="9.612354042580998"><ele>294.0</ele><time>2026-04-17T13:45:05Z</time></trkpt><trkpt lat="45.74999046655395" lon="9.612324372749608"><ele>294.0</ele><time>2026-04-17T13:45:06Z</time></trkpt><trkpt lat="45.75005177163322" lon="9.612294286766392"><ele>294.0</ele><time>2026-04-17T13:45:07Z</time></trkpt><trkpt lat="45.750120363886715" lon="9.612262900661573"><ele>294.0</ele><time>2026-04-17T13:45:08Z</time></trkpt><trkpt lat="45.750243480397245" lon="9.612210729084191"><ele>294.0</ele><time>2026-04-17T13:45:10Z</time></trkpt><trkpt lat="45.750303340230275" lon="9.612177231977183"><ele>294.0</ele><time>2026-04-17T13:45:11Z</time></trkpt><trkpt lat="45.75037135471832" lon="9.612149465739204"><ele>293.7142857142857</ele><time>2026-04-17T13:45:12Z</time></trkpt><trkpt lat="45.75043229771652" lon="9.612121425072559"><ele>293.42857142857144</ele><time>2026-04-17T13:45:13Z</time></trkpt><trkpt lat="45.75049690091219" lon="9.612094466261393"><ele>293.1428571428571</ele><time>2026-04-17T13:45:14Z</time></trkpt><trkpt lat="45.75056134751693" lon="9.612065820541783"><ele>292.8571428571429</ele><time>2026-04-17T13:45:15Z</time></trkpt><trkpt lat="45.75062492276874" lon="9.61203216169061"><ele>292.57142857142856</ele><time>2026-04-17T13:45:16Z</time></trkpt><trkpt lat="45.75068983095627" lon="9.61200375038098"><ele>292.2857142857143</ele><time>2026-04-17T13:45:17Z</time></trkpt><trkpt lat="45.75075442898665" lon="9.611976027092142"><ele>292.0</ele><time>2026-04-17T13:45:18Z</time></trkpt><trkpt lat="45.750818019310465" lon="9.611952165901608"><ele>291.66666666666663</ele><time>2026-04-17T13:45:19Z</time></trkpt><trkpt lat="45.750882041195666" lon="9.6119255555746"><ele>291.3333333333333</ele><time>2026-04-17T13:45:20Z</time></trkpt><trkpt lat="45.75094486075974" lon="9.611895296965002"><ele>291.0</ele><time>2026-04-17T13:45:21Z</time></trkpt><trkpt lat="45.75100874845761" lon="9.611863237074527"><ele>290.6666666666667</ele><time>2026-04-17T13:45:22Z</time></trkpt><trkpt lat="45.751132406371575" lon="9.611812041809198"><ele>290.33333333333337</ele><time>2026-04-17T13:45:24Z</time></trkpt><trkpt lat="45.75119427220811" lon="9.61178506663951"><ele>290.0</ele><time>2026-04-17T13:45:25Z</time></trkpt><trkpt lat="45.75125567314662" lon="9.61175848067369"><ele>290.0</ele><time>2026-04-17T13:45:26Z</time></trkpt><trkpt lat="45.75131758802363" lon="9.611729176550808"><ele>290.0</ele><time>2026-04-17T13:45:27Z</time></trkpt><trkpt lat="45.751378400117886" lon="9.61169732455503"><ele>290.0</ele><time>2026-04-17T13:45:28Z</time></trkpt><trkpt lat="45.751443531451926" lon="9.611672958054536"><ele>290.0</ele><time>2026-04-17T13:45:29Z</time></trkpt><trkpt lat="45.75156290874246" lon="9.611615698160467"><ele>290.0</ele><time>2026-04-17T13:45:31Z</time></trkpt><trkpt lat="45.75162538478465" lon="9.611587538259041"><ele>290.0</ele><time>2026-04-17T13:45:32Z</time></trkpt><trkpt lat="45.75168597277412" lon="9.611561660655841"><ele>290.0</ele><time>2026-04-17T13:45:33Z</time></trkpt><trkpt lat="45.75174716840458" lon="9.61153823139631"><ele>290.0</ele><time>2026-04-17T13:45:34Z</time></trkpt><trkpt lat="45.75186977459366" lon="9.611483577693429"><ele>290.0</ele><time>2026-04-17T13:45:36Z</time></trkpt><trkpt lat="45.751991554638245" lon="9.611430027018805"><ele>290.0</ele><time>2026-04-17T13:45:38Z</time></trkpt><trkpt lat="45.752053539989475" lon="9.611402873413825"><ele>290.0</ele><time>2026-04-17T13:45:39Z</time></trkpt><trkpt lat="45.7521152827887" lon="9.611377631664226"><ele>290.0</ele><time>2026-04-17T13:45:40Z</time></trkpt><trkpt lat="45.75223756216218" lon="9.611323772751815"><ele>290.14285714285717</ele><time>2026-04-17T13:45:42Z</time></trkpt><trkpt lat="45.752299234401534" lon="9.611295660631878"><ele>290.28571428571433</ele><time>2026-04-17T13:45:43Z</time></trkpt><trkpt lat="45.752360829706596" lon="9.611269557322773"><ele>290.42857142857144</ele><time>2026-04-17T13:45:44Z</time></trkpt><trkpt lat="45.75242097471858" lon="9.611240522715194"><ele>290.57142857142856</ele><time>2026-04-17T13:45:45Z</time></trkpt><trkpt lat="45.75248353739711" lon="9.61121633607856"><ele>290.71428571428567</ele><time>2026-04-17T13:45:46Z</time></trkpt><trkpt lat="45.75254461070006" lon="9.611187024905753"><ele>290.85714285714283</ele><time>2026-04-17T13:45:47Z</time></trkpt><trkpt lat="45.752606123936914" lon="9.611161268618151"><ele>291.0</ele><time>2026-04-17T13:45:48Z</time></trkpt><trkpt lat="45.75266864462622" lon="9.611136656102152"><ele>290.85714285714283</ele><time>2026-04-17T13:45:49Z</time></trkpt><trkpt lat="45.75273211428613" lon="9.611113643543383"><ele>290.71428571428567</ele><time>2026-04-17T13:45:50Z</time></trkpt><trkpt lat="45.75279329307546" lon="9.61109012355793"><ele>290.57142857142856</ele><time>2026-04-17T13:45:51Z</time></trkpt><trkpt lat="45.75285626254148" lon="9.61106672235961"><ele>290.42857142857144</ele><time>2026-04-17T13:45:52Z</time></trkpt><trkpt lat="45.75291892882261" lon="9.611045781495012"><ele>290.28571428571433</ele><time>2026-04-17T13:45:53Z</time></trkpt><trkpt lat="45.75298380822803" lon="9.611023750949728"><ele>290.14285714285717</ele><time>2026-04-17T13:45:54Z</time></trkpt><trkpt lat="45.753049622479956" lon="9.611006847074616"><ele>290.0</ele><time>2026-04-17T13:45:55Z</time></trkpt><trkpt lat="45.75311525570077" lon="9.610991279354279"><ele>290.0</ele><time>2026-04-17T13:45:56Z</time></trkpt><trkpt lat="45.75318203840744" lon="9.61097934399711"><ele>290.0</ele><time>2026-04-17T13:45:57Z</time></trkpt><trkpt lat="45.75324780058603" lon="9.610970183009037"><ele>290.0</ele><time>2026-04-17T13:45:58Z</time></trkpt><trkpt lat="45.7533152738217" lon="9.610962076320721"><ele>290.0</ele><time>2026-04-17T13:45:59Z</time></trkpt><trkpt lat="45.75338063307271" lon="9.610957895503848"><ele>290.0</ele><time>2026-04-17T13:46:00Z</time></trkpt><trkpt lat="45.753448265656914" lon="9.610952122353845"><ele>290.0</ele><time>2026-04-17T13:46:01Z</time></trkpt><trkpt lat="45.7535173930536" lon="9.610956290305664"><ele>290.0</ele><time>2026-04-17T13:46:02Z</time></trkpt><trkpt lat="45.7535863650176" lon="9.610965134633286"><ele>289.57142857142856</ele><time>2026-04-17T13:46:03Z</time></trkpt><trkpt lat="45.75365408478219" lon="9.61098103208733"><ele>289.14285714285717</ele><time>2026-04-17T13:46:04Z</time></trkpt><trkpt lat="45.75372360116635" lon="9.610996445277632"><ele>288.7142857142857</ele><time>2026-04-17T13:46:05Z</time></trkpt><trkpt lat="45.75379223040366" lon="9.611007003895606"><ele>288.2857142857143</ele><time>2026-04-17T13:46:06Z</time></trkpt><trkpt lat="45.753861219127195" lon="9.611027075540116"><ele>287.8571428571429</ele><time>2026-04-17T13:46:07Z</time></trkpt><trkpt lat="45.7539309122907" lon="9.61104521227243"><ele>287.42857142857144</ele><time>2026-04-17T13:46:08Z</time></trkpt><trkpt lat="45.75399966813045" lon="9.611054391683625"><ele>287.0</ele><time>2026-04-17T13:46:09Z</time></trkpt><trkpt lat="45.75406750065426" lon="9.611068435735183"><ele>287.0</ele><time>2026-04-17T13:46:10Z</time></trkpt><trkpt lat="45.75413504856189" lon="9.611078627526721"><ele>287.0</ele><time>2026-04-17T13:46:11Z</time></trkpt><trkpt lat="45.754200846299504" lon="9.611089798165489"><ele>287.0</ele><time>2026-04-17T13:46:12Z</time></trkpt><trkpt lat="45.75426673805986" lon="9.611085663258061"><ele>287.0</ele><time>2026-04-17T13:46:13Z</time></trkpt><trkpt lat="45.754332540805606" lon="9.611076116977328"><ele>287.0</ele><time>2026-04-17T13:46:14Z</time></trkpt><trkpt lat="45.75439678999324" lon="9.61106055113539"><ele>287.0</ele><time>2026-04-17T13:46:15Z</time></trkpt><trkpt lat="45.75445993793892" lon="9.61104250159562"><ele>287.0</ele><time>2026-04-17T13:46:16Z</time></trkpt><trkpt lat="45.75452551018284" lon="9.611031050803936"><ele>286.57142857142856</ele><time>2026-04-17T13:46:17Z</time></trkpt><trkpt lat="45.75458880449805" lon="9.611010454628092"><ele>286.1428571428571</ele><time>2026-04-17T13:46:18Z</time></trkpt><trkpt lat="45.754652426891596" lon="9.610997264356772"><ele>285.7142857142857</ele><time>2026-04-17T13:46:19Z</time></trkpt><trkpt lat="45.754717133030155" lon="9.610977182708123"><ele>285.2857142857143</ele><time>2026-04-17T13:46:20Z</time></trkpt><trkpt lat="45.75478156178699" lon="9.61096649902762"><ele>284.85714285714283</ele><time>2026-04-17T13:46:21Z</time></trkpt><trkpt lat="45.75484714672977" lon="9.610953541030364"><ele>284.42857142857144</ele><time>2026-04-17T13:46:22Z</time></trkpt><trkpt lat="45.75491383644968" lon="9.610937701561918"><ele>284.0</ele><time>2026-04-17T13:46:23Z</time></trkpt><trkpt lat="45.754979726474524" lon="9.610924088938377"><ele>284.0</ele><time>2026-04-17T13:46:24Z</time></trkpt><trkpt lat="45.75504568412426" lon="9.61090749874063"><ele>284.0</ele><time>2026-04-17T13:46:25Z</time></trkpt><trkpt lat="45.75511138951466" lon="9.610889706505063"><ele>284.0</ele><time>2026-04-17T13:46:26Z</time></trkpt><trkpt lat="45.75517865081104" lon="9.610877020486917"><ele>284.0</ele><time>2026-04-17T13:46:27Z</time></trkpt><trkpt lat="45.75524083950318" lon="9.610862834671787"><ele>284.0</ele><time>2026-04-17T13:46:28Z</time></trkpt><trkpt lat="45.755308933639846" lon="9.610840973493557"><ele>284.0</ele><time>2026-04-17T13:46:29Z</time></trkpt><trkpt lat="45.755372038394135" lon="9.610829626510036"><ele>284.0</ele><time>2026-04-17T13:46:30Z</time></trkpt><trkpt lat="45.7554370926042" lon="9.61080936943613"><ele>284.7142857142857</ele><time>2026-04-17T13:46:31Z</time></trkpt><trkpt lat="45.755500559346046" lon="9.610795016061571"><ele>285.4285714285714</ele><time>2026-04-17T13:46:32Z</time></trkpt><trkpt lat="45.75556744735655" lon="9.610775584652748"><ele>286.1428571428571</ele><time>2026-04-17T13:46:33Z</time></trkpt><trkpt lat="45.75563093166664" lon="9.610753033073724"><ele>286.85714285714283</ele><time>2026-04-17T13:46:34Z</time></trkpt><trkpt lat="45.75569718234558" lon="9.610728802533377"><ele>287.57142857142856</ele><time>2026-04-17T13:46:35Z</time></trkpt><trkpt lat="45.755760029949954" lon="9.610701634160309"><ele>288.2857142857143</ele><time>2026-04-17T13:46:36Z</time></trkpt><trkpt lat="45.75582554154406" lon="9.610671723625016"><ele>289.0</ele><time>2026-04-17T13:46:37Z</time></trkpt><trkpt lat="45.75588938933373" lon="9.610636466588995"><ele>289.0</ele><time>2026-04-17T13:46:38Z</time></trkpt><trkpt lat="45.75595405589495" lon="9.610604380626487"><ele>289.0</ele><time>2026-04-17T13:46:39Z</time></trkpt><trkpt lat="45.7560186581789" lon="9.610563893552971"><ele>289.0</ele><time>2026-04-17T13:46:40Z</time></trkpt><trkpt lat="45.75608204929687" lon="9.610520875349689"><ele>289.0</ele><time>2026-04-17T13:46:41Z</time></trkpt><trkpt lat="45.756145953587094" lon="9.610471870738596"><ele>289.0</ele><time>2026-04-17T13:46:42Z</time></trkpt><trkpt lat="45.75621055764916" lon="9.610423974823986"><ele>289.0</ele><time>2026-04-17T13:46:43Z</time></trkpt><trkpt lat="45.75627266123053" lon="9.610381669429358"><ele>289.0</ele><time>2026-04-17T13:46:44Z</time></trkpt><trkpt lat="45.756336971646164" lon="9.610327170478854"><ele>289.42857142857144</ele><time>2026-04-17T13:46:45Z</time></trkpt><trkpt lat="45.75639935610281" lon="9.610274236377686"><ele>289.85714285714283</ele><time>2026-04-17T13:46:46Z</time></trkpt><trkpt lat="45.756462478437065" lon="9.610217581129278"><ele>290.2857142857143</ele><time>2026-04-17T13:46:47Z</time></trkpt><trkpt lat="45.756524762082414" lon="9.610163368622263"><ele>290.7142857142857</ele><time>2026-04-17T13:46:48Z</time></trkpt><trkpt lat="45.75658727058138" lon="9.610107358541347"><ele>291.14285714285717</ele><time>2026-04-17T13:46:49Z</time></trkpt><trkpt lat="45.75664790855367" lon="9.610046938500687"><ele>291.57142857142856</ele><time>2026-04-17T13:46:50Z</time></trkpt><trkpt lat="45.75671050287663" lon="9.609987671720885"><ele>292.0</ele><time>2026-04-17T13:46:51Z</time></trkpt><trkpt lat="45.756772177290415" lon="9.609925621498254"><ele>292.0</ele><time>2026-04-17T13:46:52Z</time></trkpt><trkpt lat="45.756838343606674" lon="9.609869085479449"><ele>292.0</ele><time>2026-04-17T13:46:53Z</time></trkpt><trkpt lat="45.75690565772662" lon="9.60981214034467"><ele>292.0</ele><time>2026-04-17T13:46:54Z</time></trkpt><trkpt lat="45.75696726739717" lon="9.609754484897872"><ele>292.0</ele><time>2026-04-17T13:46:55Z</time></trkpt><trkpt lat="45.757036268694215" lon="9.609701522794493"><ele>292.0</ele><time>2026-04-17T13:46:56Z</time></trkpt><trkpt lat="45.75710368888149" lon="9.609652861810803"><ele>292.0</ele><time>2026-04-17T13:46:57Z</time></trkpt><trkpt lat="45.75716837728104" lon="9.609602374151006"><ele>289.57142857142856</ele><time>2026-04-17T13:46:58Z</time></trkpt><trkpt lat="45.75723820419191" lon="9.609560458638667"><ele>287.14285714285717</ele><time>2026-04-17T13:46:59Z</time></trkpt><trkpt lat="45.757303921098824" lon="9.609515513058845"><ele>284.7142857142857</ele><time>2026-04-17T13:47:00Z</time></trkpt><trkpt lat="45.7573734077996" lon="9.609482639179806"><ele>282.2857142857143</ele><time>2026-04-17T13:47:01Z</time></trkpt><trkpt lat="45.75744336423086" lon="9.609446834520773"><ele>279.85714285714283</ele><time>2026-04-17T13:47:02Z</time></trkpt><trkpt lat="45.757510593381916" lon="9.60942421355432"><ele>277.42857142857144</ele><time>2026-04-17T13:47:03Z</time></trkpt><trkpt lat="45.75757735165198" lon="9.609394871527922"><ele>275.0</ele><time>2026-04-17T13:47:04Z</time></trkpt><trkpt lat="45.757643574921616" lon="9.60937938790465"><ele>277.0</ele><time>2026-04-17T13:47:05Z</time></trkpt><trkpt lat="45.75770764893341" lon="9.609361176767074"><ele>279.0</ele><time>2026-04-17T13:47:06Z</time></trkpt><trkpt lat="45.75777052352937" lon="9.609343956487272"><ele>281.0</ele><time>2026-04-17T13:47:07Z</time></trkpt><trkpt lat="45.75789395819128" lon="9.609313656715521"><ele>283.0</ele><time>2026-04-17T13:47:09Z</time></trkpt><trkpt lat="45.75795578896433" lon="9.609294586809952"><ele>285.0</ele><time>2026-04-17T13:47:10Z</time></trkpt><trkpt lat="45.75807928741539" lon="9.6092609300845"><ele>287.0</ele><time>2026-04-17T13:47:12Z</time></trkpt><trkpt lat="45.758202973427075" lon="9.609230795051738"><ele>287.0</ele><time>2026-04-17T13:47:14Z</time></trkpt><trkpt lat="45.75832442587847" lon="9.609199901585496"><ele>287.0</ele><time>2026-04-17T13:47:16Z</time></trkpt><trkpt lat="45.758443949358266" lon="9.609163700355388"><ele>287.0</ele><time>2026-04-17T13:47:18Z</time></trkpt><trkpt lat="45.75856347343161" lon="9.609134394318815"><ele>287.0</ele><time>2026-04-17T13:47:20Z</time></trkpt><trkpt lat="45.75868175335516" lon="9.609092274732022"><ele>292.5</ele><time>2026-04-17T13:47:22Z</time></trkpt><trkpt lat="45.7587990559234" lon="9.60905099497347"><ele>298.0</ele><time>2026-04-17T13:47:24Z</time></trkpt><trkpt lat="45.75891398656549" lon="9.608998434283777"><ele>303.5</ele><time>2026-04-17T13:47:26Z</time></trkpt><trkpt lat="45.759028649413764" lon="9.608936049632964"><ele>309.0</ele><time>2026-04-17T13:47:28Z</time></trkpt><trkpt lat="45.75913805140119" lon="9.608859162932704"><ele>309.0</ele><time>2026-04-17T13:47:30Z</time></trkpt><trkpt lat="45.759245930647275" lon="9.608775744693753"><ele>309.0</ele><time>2026-04-17T13:47:32Z</time></trkpt><trkpt lat="45.75935265924223" lon="9.608686872989296"><ele>309.0</ele><time>2026-04-17T13:47:34Z</time></trkpt><trkpt lat="45.7594523038505" lon="9.60858629876617"><ele>309.0</ele><time>2026-04-17T13:47:36Z</time></trkpt><trkpt lat="45.75955262208161" lon="9.608476533626957"><ele>310.6666666666667</ele><time>2026-04-17T13:47:38Z</time></trkpt><trkpt lat="45.759600123597394" lon="9.60841611497472"><ele>312.3333333333333</ele><time>2026-04-17T13:47:39Z</time></trkpt><trkpt lat="45.75969345596133" lon="9.608300690740696"><ele>314.0</ele><time>2026-04-17T13:47:41Z</time></trkpt><trkpt lat="45.759782708259685" lon="9.60817866600166"><ele>315.66666666666663</ele><time>2026-04-17T13:47:43Z</time></trkpt><trkpt lat="45.759824221031785" lon="9.60810952171972"><ele>317.3333333333333</ele><time>2026-04-17T13:47:44Z</time></trkpt><trkpt lat="45.75986570759213" lon="9.608039116624978"><ele>319.0</ele><time>2026-04-17T13:47:45Z</time></trkpt><trkpt lat="45.75994097138563" lon="9.60790074790981"><ele>314.66666666666663</ele><time>2026-04-17T13:47:47Z</time></trkpt><trkpt lat="45.759979465145506" lon="9.607823759790447"><ele>310.3333333333333</ele><time>2026-04-17T13:47:48Z</time></trkpt><trkpt lat="45.76001236568741" lon="9.607743334621594"><ele>306.0</ele><time>2026-04-17T13:47:49Z</time></trkpt><trkpt lat="45.76008653945832" lon="9.607596905340573"><ele>301.6666666666667</ele><time>2026-04-17T13:47:51Z</time></trkpt><trkpt lat="45.760120507925116" lon="9.607515507434208"><ele>297.33333333333337</ele><time>2026-04-17T13:47:52Z</time></trkpt><trkpt lat="45.760157367033116" lon="9.60743814151356"><ele>293.0</ele><time>2026-04-17T13:47:53Z</time></trkpt><trkpt lat="45.76022980858842" lon="9.607292437546917"><ele>298.4</ele><time>2026-04-17T13:47:55Z</time></trkpt><trkpt lat="45.76026303339127" lon="9.607212891088484"><ele>303.8</ele><time>2026-04-17T13:47:56Z</time></trkpt><trkpt lat="45.760331725362484" lon="9.607063557569258"><ele>309.2</ele><time>2026-04-17T13:47:58Z</time></trkpt><trkpt lat="45.760397991301346" lon="9.606915629875694"><ele>314.6</ele><time>2026-04-17T13:48:00Z</time></trkpt><trkpt lat="45.76046470490144" lon="9.606768736345881"><ele>320.0</ele><time>2026-04-17T13:48:02Z</time></trkpt><trkpt lat="45.760499473451745" lon="9.606692871012493"><ele>320.0</ele><time>2026-04-17T13:48:03Z</time></trkpt><trkpt lat="45.76053591510853" lon="9.606619176195887"><ele>320.0</ele><time>2026-04-17T13:48:04Z</time></trkpt><trkpt lat="45.760600770656644" lon="9.606472242315673"><ele>320.0</ele><time>2026-04-17T13:48:06Z</time></trkpt><trkpt lat="45.760666800401054" lon="9.606324144252694"><ele>320.0</ele><time>2026-04-17T13:48:08Z</time></trkpt><trkpt lat="45.760707825530744" lon="9.606255536074448"><ele>320.0</ele><time>2026-04-17T13:48:09Z</time></trkpt><trkpt lat="45.76078207596877" lon="9.606115606803014"><ele>319.0</ele><time>2026-04-17T13:48:11Z</time></trkpt><trkpt lat="45.76082627346802" lon="9.606047216778702"><ele>318.0</ele><time>2026-04-17T13:48:12Z</time></trkpt><trkpt lat="45.76087676966512" lon="9.6059859555935"><ele>317.0</ele><time>2026-04-17T13:48:13Z</time></trkpt><trkpt lat="45.76097738744802" lon="9.60589168739285"><ele>316.0</ele><time>2026-04-17T13:48:15Z</time></trkpt><trkpt lat="45.76108616175516" lon="9.60580965224395"><ele>315.0</ele><time>2026-04-17T13:48:17Z</time></trkpt><trkpt lat="45.76120150162001" lon="9.605746902461979"><ele>315.0</ele><time>2026-04-17T13:48:19Z</time></trkpt><trkpt lat="45.761315383097674" lon="9.605683691118347"><ele>315.0</ele><time>2026-04-17T13:48:21Z</time></trkpt><trkpt lat="45.76143042689076" lon="9.605622129433963"><ele>315.0</ele><time>2026-04-17T13:48:23Z</time></trkpt><trkpt lat="45.76148780575513" lon="9.605581326682444"><ele>315.0</ele><time>2026-04-17T13:48:24Z</time></trkpt><trkpt lat="45.761603509435815" lon="9.605533226578723"><ele>315.0</ele><time>2026-04-17T13:48:26Z</time></trkpt><trkpt lat="45.76172420231685" lon="9.605517627898017"><ele>315.0</ele><time>2026-04-17T13:48:28Z</time></trkpt><trkpt lat="45.761844145675425" lon="9.605538099009564"><ele>315.0</ele><time>2026-04-17T13:48:30Z</time></trkpt><trkpt lat="45.761959944301395" lon="9.605593143575433"><ele>315.0</ele><time>2026-04-17T13:48:32Z</time></trkpt><trkpt lat="45.76206260840153" lon="9.605677969199094"><ele>315.0</ele><time>2026-04-17T13:48:34Z</time></trkpt><trkpt lat="45.76215968741672" lon="9.605788831587699"><ele>310.5</ele><time>2026-04-17T13:48:36Z</time></trkpt><trkpt lat="45.76225358682467" lon="9.605899355222196"><ele>306.0</ele><time>2026-04-17T13:48:38Z</time></trkpt><trkpt lat="45.7623463729008" lon="9.606019098226591"><ele>301.5</ele><time>2026-04-17T13:48:40Z</time></trkpt><trkpt lat="45.762440029233204" lon="9.606128674671954"><ele>297.0</ele><time>2026-04-17T13:48:42Z</time></trkpt><trkpt lat="45.762526421019935" lon="9.60624760000497"><ele>294.4</ele><time>2026-04-17T13:48:44Z</time></trkpt><trkpt lat="45.762571413831054" lon="9.606312923736342"><ele>291.79999999999995</ele><time>2026-04-17T13:48:45Z</time></trkpt><trkpt lat="45.76264150251728" lon="9.606449149685792"><ele>289.2</ele><time>2026-04-17T13:48:47Z</time></trkpt><trkpt lat="45.76270781367304" lon="9.606594179235167"><ele>286.59999999999997</ele><time>2026-04-17T13:48:49Z</time></trkpt><trkpt lat="45.762774565708895" lon="9.606740031006883"><ele>284.0</ele><time>2026-04-17T13:48:51Z</time></trkpt><trkpt lat="45.76284063477156" lon="9.606885231023682"><ele>289.5</ele><time>2026-04-17T13:48:53Z</time></trkpt><trkpt lat="45.762908008326804" lon="9.607032999206938"><ele>295.0</ele><time>2026-04-17T13:48:55Z</time></trkpt><trkpt lat="45.762973423949695" lon="9.607183776289698"><ele>300.5</ele><time>2026-04-17T13:48:57Z</time></trkpt><trkpt lat="45.763040764768775" lon="9.60733369408708"><ele>306.0</ele><time>2026-04-17T13:48:59Z</time></trkpt><trkpt lat="45.7631053193202" lon="9.607480226197861"><ele>306.0</ele><time>2026-04-17T13:49:01Z</time></trkpt><trkpt lat="45.763178702798214" lon="9.6076241331757"><ele>306.0</ele><time>2026-04-17T13:49:03Z</time></trkpt><trkpt lat="45.76325577902905" lon="9.60776183712522"><ele>306.0</ele><time>2026-04-17T13:49:05Z</time></trkpt><trkpt lat="45.76333149555415" lon="9.6078992695679"><ele>306.0</ele><time>2026-04-17T13:49:07Z</time></trkpt><trkpt lat="45.7634176441724" lon="9.60802797356989"><ele>305.5</ele><time>2026-04-17T13:49:09Z</time></trkpt><trkpt lat="45.763496729078604" lon="9.608157229580144"><ele>305.0</ele><time>2026-04-17T13:49:11Z</time></trkpt><trkpt lat="45.76357265267746" lon="9.608290785148133"><ele>304.5</ele><time>2026-04-17T13:49:13Z</time></trkpt><trkpt lat="45.7636588693315" lon="9.608417527939114"><ele>304.0</ele><time>2026-04-17T13:49:15Z</time></trkpt><trkpt lat="45.76374010013814" lon="9.608544361358536"><ele>307.25</ele><time>2026-04-17T13:49:17Z</time></trkpt><trkpt lat="45.76381998358873" lon="9.608677704410594"><ele>310.5</ele><time>2026-04-17T13:49:19Z</time></trkpt><trkpt lat="45.76390755395953" lon="9.608804564795212"><ele>313.75</ele><time>2026-04-17T13:49:21Z</time></trkpt><trkpt lat="45.76398930451494" lon="9.608932111211569"><ele>317.0</ele><time>2026-04-17T13:49:23Z</time></trkpt><trkpt lat="45.76406756589468" lon="9.609070195880934"><ele>317.0</ele><time>2026-04-17T13:49:25Z</time></trkpt><trkpt lat="45.76414949208818" lon="9.609191789977773"><ele>317.0</ele><time>2026-04-17T13:49:27Z</time></trkpt><trkpt lat="45.76422651137999" lon="9.609319462903779"><ele>317.0</ele><time>2026-04-17T13:49:29Z</time></trkpt><trkpt lat="45.76431063314308" lon="9.60943921655269"><ele>317.0</ele><time>2026-04-17T13:49:31Z</time></trkpt><trkpt lat="45.76437896055794" lon="9.60957399599581"><ele>314.75</ele><time>2026-04-17T13:49:33Z</time></trkpt><trkpt lat="45.7644667854442" lon="9.6096952871646"><ele>312.5</ele><time>2026-04-17T13:49:35Z</time></trkpt><trkpt lat="45.76455334890238" lon="9.609823910203902"><ele>310.25</ele><time>2026-04-17T13:49:37Z</time></trkpt><trkpt lat="45.764632034081366" lon="9.609952580508427"><ele>308.0</ele><time>2026-04-17T13:49:39Z</time></trkpt><trkpt lat="45.764710702357455" lon="9.610081331255548"><ele>308.0</ele><time>2026-04-17T13:49:41Z</time></trkpt><trkpt lat="45.76479563554806" lon="9.610213416932082"><ele>308.0</ele><time>2026-04-17T13:49:43Z</time></trkpt><trkpt lat="45.7648382750619" lon="9.610281859111286"><ele>308.0</ele><time>2026-04-17T13:49:44Z</time></trkpt><trkpt lat="45.76492284582788" lon="9.610399841486274"><ele>308.0</ele><time>2026-04-17T13:49:46Z</time></trkpt><trkpt lat="45.76500323275015" lon="9.610528746189622"><ele>308.0</ele><time>2026-04-17T13:49:48Z</time></trkpt><trkpt lat="45.76508471605661" lon="9.610657700962397"><ele>307.6</ele><time>2026-04-17T13:49:50Z</time></trkpt><trkpt lat="45.76516266754035" lon="9.610777957965286"><ele>307.20000000000005</ele><time>2026-04-17T13:49:52Z</time></trkpt><trkpt lat="45.76521133195998" lon="9.61084790317308"><ele>306.8</ele><time>2026-04-17T13:49:53Z</time></trkpt><trkpt lat="45.765294829453374" lon="9.610972670197837"><ele>306.40000000000003</ele><time>2026-04-17T13:49:55Z</time></trkpt><trkpt lat="45.765366174613355" lon="9.611105816290287"><ele>306.0</ele><time>2026-04-17T13:49:57Z</time></trkpt><trkpt lat="45.76546690604614" lon="9.611219121323149"><ele>308.0</ele><time>2026-04-17T13:49:59Z</time></trkpt><trkpt lat="45.76556815316859" lon="9.611303014503566"><ele>310.0</ele><time>2026-04-17T13:50:01Z</time></trkpt><trkpt lat="45.765679657861995" lon="9.6113687432733"><ele>312.0</ele><time>2026-04-17T13:50:03Z</time></trkpt><trkpt lat="45.76574079312967" lon="9.611392577795556"><ele>314.0</ele><time>2026-04-17T13:50:04Z</time></trkpt><trkpt lat="45.7658063485723" lon="9.61140705893344"><ele>316.0</ele><time>2026-04-17T13:50:05Z</time></trkpt><trkpt lat="45.76592800380801" lon="9.61142189875617"><ele>316.0</ele><time>2026-04-17T13:50:07Z</time></trkpt><trkpt lat="45.76599257579141" lon="9.61140872210343"><ele>316.0</ele><time>2026-04-17T13:50:08Z</time></trkpt><trkpt lat="45.76605686676344" lon="9.61140886639069"><ele>316.0</ele><time>2026-04-17T13:50:09Z</time></trkpt><trkpt lat="45.76618707160747" lon="9.611382891624585"><ele>316.0</ele><time>2026-04-17T13:50:11Z</time></trkpt><trkpt lat="45.76625012475862" lon="9.611365476009112"><ele>316.0</ele><time>2026-04-17T13:50:12Z</time></trkpt><trkpt lat="45.76631502535886" lon="9.611345037538364"><ele>316.0</ele><time>2026-04-17T13:50:13Z</time></trkpt><trkpt lat="45.7663787272409" lon="9.611330424535815"><ele>318.00000000000006</ele><time>2026-04-17T13:50:14Z</time></trkpt><trkpt lat="45.766443089336526" lon="9.611315368977245"><ele>320.0</ele><time>2026-04-17T13:50:15Z</time></trkpt><trkpt lat="45.766507760572125" lon="9.611300977992588"><ele>322.0</ele><time>2026-04-17T13:50:16Z</time></trkpt><trkpt lat="45.766631188603334" lon="9.611276028742314"><ele>324.0</ele><time>2026-04-17T13:50:18Z</time></trkpt><trkpt lat="45.7666937022297" lon="9.611256116582778"><ele>326.0</ele><time>2026-04-17T13:50:19Z</time></trkpt><trkpt lat="45.76675592668542" lon="9.611237635810843"><ele>328.00000000000006</ele><time>2026-04-17T13:50:20Z</time></trkpt><trkpt lat="45.76681868862682" lon="9.61122442360915"><ele>330.0</ele><time>2026-04-17T13:50:21Z</time></trkpt><trkpt lat="45.76694529203848" lon="9.611201273136018"><ele>330.0</ele><time>2026-04-17T13:50:23Z</time></trkpt><trkpt lat="45.76700967708163" lon="9.611190404836169"><ele>330.0</ele><time>2026-04-17T13:50:24Z</time></trkpt><trkpt lat="45.767134186059884" lon="9.611163869814883"><ele>330.0</ele><time>2026-04-17T13:50:26Z</time></trkpt><trkpt lat="45.76725499367186" lon="9.611145267849599"><ele>330.0</ele><time>2026-04-17T13:50:28Z</time></trkpt><trkpt lat="45.76732285417326" lon="9.611125949946057"><ele>330.0</ele><time>2026-04-17T13:50:29Z</time></trkpt><trkpt lat="45.767444872418956" lon="9.611096303127935"><ele>327.8</ele><time>2026-04-17T13:50:31Z</time></trkpt><trkpt lat="45.76751133304292" lon="9.61108889160686"><ele>325.6</ele><time>2026-04-17T13:50:32Z</time></trkpt><trkpt lat="45.76763563921802" lon="9.611067717745717"><ele>323.4</ele><time>2026-04-17T13:50:34Z</time></trkpt><trkpt lat="45.76770282682818" lon="9.611052724665047"><ele>321.2</ele><time>2026-04-17T13:50:35Z</time></trkpt><trkpt lat="45.76782688922705" lon="9.611026184760194"><ele>319.0</ele><time>2026-04-17T13:50:37Z</time></trkpt><trkpt lat="45.76795331991971" lon="9.610998649527856"><ele>319.0</ele><time>2026-04-17T13:50:39Z</time></trkpt><trkpt lat="45.768016501014074" lon="9.610988326749377"><ele>319.0</ele><time>2026-04-17T13:50:40Z</time></trkpt><trkpt lat="45.768078758653" lon="9.610974492887399"><ele>319.0</ele><time>2026-04-17T13:50:41Z</time></trkpt><trkpt lat="45.76814289803333" lon="9.610959937507221"><ele>319.0</ele><time>2026-04-17T13:50:42Z</time></trkpt><trkpt lat="45.76820502582838" lon="9.610941441787643"><ele>319.0</ele><time>2026-04-17T13:50:43Z</time></trkpt><trkpt lat="45.76827010278828" lon="9.610933438786212"><ele>319.0</ele><time>2026-04-17T13:50:44Z</time></trkpt><trkpt lat="45.768396940107934" lon="9.610915243308417"><ele>319.0</ele><time>2026-04-17T13:50:46Z</time></trkpt><trkpt lat="45.7684599379107" lon="9.610914566955236"><ele>319.0</ele><time>2026-04-17T13:50:47Z</time></trkpt><trkpt lat="45.76852303858558" lon="9.610911103452777"><ele>319.0</ele><time>2026-04-17T13:50:48Z</time></trkpt><trkpt lat="45.76864828505738" lon="9.610920371677688"><ele>319.0</ele><time>2026-04-17T13:50:50Z</time></trkpt><trkpt lat="45.76877584200863" lon="9.61093020987683"><ele>319.0</ele><time>2026-04-17T13:50:52Z</time></trkpt><trkpt lat="45.76890108707121" lon="9.610930300382268"><ele>319.0</ele><time>2026-04-17T13:50:54Z</time></trkpt><trkpt lat="45.768965588366164" lon="9.610942695632012"><ele>319.2</ele><time>2026-04-17T13:50:55Z</time></trkpt><trkpt lat="45.769029899110976" lon="9.610952507384907"><ele>319.4</ele><time>2026-04-17T13:50:56Z</time></trkpt><trkpt lat="45.76915607520784" lon="9.610958213868507"><ele>319.6</ele><time>2026-04-17T13:50:58Z</time></trkpt><trkpt lat="45.76927739454891" lon="9.610967538873256"><ele>319.8</ele><time>2026-04-17T13:51:00Z</time></trkpt><trkpt lat="45.7693978989209" lon="9.610975605833463"><ele>320.0</ele><time>2026-04-17T13:51:02Z</time></trkpt><trkpt lat="45.76952071643667" lon="9.610991104393786"><ele>318.5</ele><time>2026-04-17T13:51:04Z</time></trkpt><trkpt lat="45.76963938666941" lon="9.61102203979867"><ele>317.0</ele><time>2026-04-17T13:51:06Z</time></trkpt><trkpt lat="45.76975782381752" lon="9.61108066057991"><ele>315.5</ele><time>2026-04-17T13:51:08Z</time></trkpt><trkpt lat="45.76985599421798" lon="9.611171640566248"><ele>314.0</ele><time>2026-04-17T13:51:10Z</time></trkpt><trkpt lat="45.76994808595301" lon="9.611284985352254"><ele>311.59999999999997</ele><time>2026-04-17T13:51:12Z</time></trkpt><trkpt lat="45.770029893252534" lon="9.611391792498257"><ele>309.2</ele><time>2026-04-17T13:51:14Z</time></trkpt><trkpt lat="45.770071282006235" lon="9.611466744597465"><ele>306.79999999999995</ele><time>2026-04-17T13:51:15Z</time></trkpt><trkpt lat="45.77013045427391" lon="9.6116091580873"><ele>304.4</ele><time>2026-04-17T13:51:17Z</time></trkpt><trkpt lat="45.77017171248573" lon="9.611723150829725"><ele>302.0</ele><time>2026-04-17T13:51:19Z</time></trkpt><trkpt lat="45.77023349148371" lon="9.611811077102235"><ele>302.0</ele><time>2026-04-17T13:51:21Z</time></trkpt><trkpt lat="45.77030456286537" lon="9.611881568223845"><ele>302.0</ele><time>2026-04-17T13:51:22Z</time></trkpt><trkpt lat="45.77035973861876" lon="9.61195107439464"><ele>302.0</ele><time>2026-04-17T13:51:23Z</time></trkpt><trkpt lat="45.77035835432518" lon="9.612126734763839"><ele>302.0</ele><time>2026-04-17T13:51:24Z</time></trkpt><trkpt lat="45.77038293457715" lon="9.612224803923356"><ele>302.0</ele><time>2026-04-17T13:51:25Z</time></trkpt><trkpt lat="45.770429026717174" lon="9.612299724037925"><ele>302.0</ele><time>2026-04-17T13:51:26Z</time></trkpt><trkpt lat="45.77044719672046" lon="9.61239108586544"><ele>302.4</ele><time>2026-04-17T13:51:27Z</time></trkpt><trkpt lat="45.770519654411714" lon="9.612541330186026"><ele>302.79999999999995</ele><time>2026-04-17T13:51:29Z</time></trkpt><trkpt lat="45.77057723249861" lon="9.61269986410759"><ele>303.2</ele><time>2026-04-17T13:51:31Z</time></trkpt><trkpt lat="45.77064171998004" lon="9.612852790989932"><ele>303.59999999999997</ele><time>2026-04-17T13:51:33Z</time></trkpt><trkpt lat="45.7706729031734" lon="9.612931199000077"><ele>304.0</ele><time>2026-04-17T13:51:34Z</time></trkpt><trkpt lat="45.770737330575194" lon="9.613085881399792"><ele>307.25</ele><time>2026-04-17T13:51:36Z</time></trkpt><trkpt lat="45.770791321352455" lon="9.613234057607198"><ele>310.5</ele><time>2026-04-17T13:51:38Z</time></trkpt><trkpt lat="45.77085569840834" lon="9.613380666777335"><ele>313.75</ele><time>2026-04-17T13:51:40Z</time></trkpt><trkpt lat="45.770929877877336" lon="9.613517622971766"><ele>317.0</ele><time>2026-04-17T13:51:42Z</time></trkpt><trkpt lat="45.77101640948462" lon="9.613640035291828"><ele>321.2</ele><time>2026-04-17T13:51:44Z</time></trkpt><trkpt lat="45.77112904849403" lon="9.613742074727122"><ele>325.4</ele><time>2026-04-17T13:51:46Z</time></trkpt><trkpt lat="45.77123156390796" lon="9.61381451401629"><ele>329.59999999999997</ele><time>2026-04-17T13:51:48Z</time></trkpt><trkpt lat="45.77129112264569" lon="9.613854634521736"><ele>333.79999999999995</ele><time>2026-04-17T13:51:49Z</time></trkpt><trkpt lat="45.771405784490476" lon="9.61391632019228"><ele>338.0</ele><time>2026-04-17T13:51:51Z</time></trkpt><trkpt lat="45.771517450913144" lon="9.613990609786136"><ele>338.0</ele><time>2026-04-17T13:51:53Z</time></trkpt><trkpt lat="45.771593802125295" lon="9.614021644499761"><ele>338.0</ele><time>2026-04-17T13:51:54Z</time></trkpt><trkpt lat="45.77169873956329" lon="9.614095168168603"><ele>338.0</ele><time>2026-04-17T13:51:56Z</time></trkpt><trkpt lat="45.771759805310595" lon="9.614126918581595"><ele>338.0</ele><time>2026-04-17T13:51:57Z</time></trkpt><trkpt lat="45.77181810535954" lon="9.614162885643925"><ele>338.0</ele><time>2026-04-17T13:51:58Z</time></trkpt><trkpt lat="45.77187950379244" lon="9.614194715584263"><ele>338.0</ele><time>2026-04-17T13:51:59Z</time></trkpt><trkpt lat="45.77199346988011" lon="9.614270573041177"><ele>334.0</ele><time>2026-04-17T13:52:01Z</time></trkpt><trkpt lat="45.77205038464755" lon="9.614315628528294"><ele>330.0</ele><time>2026-04-17T13:52:02Z</time></trkpt><trkpt lat="45.772107937696425" lon="9.614370137798511"><ele>326.0</ele><time>2026-04-17T13:52:03Z</time></trkpt><trkpt lat="45.77216672065044" lon="9.614409104415465"><ele>322.0</ele><time>2026-04-17T13:52:04Z</time></trkpt><trkpt lat="45.772277631560534" lon="9.614487856555229"><ele>318.0</ele><time>2026-04-17T13:52:06Z</time></trkpt><trkpt lat="45.77238688045396" lon="9.614568120329789"><ele>314.0</ele><time>2026-04-17T13:52:08Z</time></trkpt><trkpt lat="45.77244559708477" lon="9.614610847692626"><ele>321.25</ele><time>2026-04-17T13:52:09Z</time></trkpt><trkpt lat="45.77255353992067" lon="9.614702540459394"><ele>328.5</ele><time>2026-04-17T13:52:11Z</time></trkpt><trkpt lat="45.77266661372117" lon="9.614786362700357"><ele>335.75</ele><time>2026-04-17T13:52:13Z</time></trkpt><trkpt lat="45.77277608505119" lon="9.61487019359531"><ele>343.0</ele><time>2026-04-17T13:52:15Z</time></trkpt><trkpt lat="45.77288319007769" lon="9.614960386717103"><ele>343.0</ele><time>2026-04-17T13:52:17Z</time></trkpt><trkpt lat="45.772988575098395" lon="9.615031649461423"><ele>343.0</ele><time>2026-04-17T13:52:19Z</time></trkpt><trkpt lat="45.77311003576319" lon="9.615074165530805"><ele>343.0</ele><time>2026-04-17T13:52:21Z</time></trkpt><trkpt lat="45.77323452507234" lon="9.615098976674549"><ele>343.0</ele><time>2026-04-17T13:52:23Z</time></trkpt><trkpt lat="45.77329905706304" lon="9.615078999816095"><ele>343.0</ele><time>2026-04-17T13:52:24Z</time></trkpt><trkpt lat="45.77342442800996" lon="9.615072112711593"><ele>342.5</ele><time>2026-04-17T13:52:26Z</time></trkpt><trkpt lat="45.77355088749955" lon="9.615060143158235"><ele>342.0</ele><time>2026-04-17T13:52:28Z</time></trkpt><trkpt lat="45.77366999418791" lon="9.615051466750154"><ele>341.5</ele><time>2026-04-17T13:52:30Z</time></trkpt><trkpt lat="45.77378437495288" lon="9.615039539941746"><ele>341.0</ele><time>2026-04-17T13:52:32Z</time></trkpt><trkpt lat="45.77389575051748" lon="9.615030406896087"><ele>341.0</ele><time>2026-04-17T13:52:34Z</time></trkpt><trkpt lat="45.77399984073223" lon="9.615023977507798"><ele>341.0</ele><time>2026-04-17T13:52:36Z</time></trkpt><trkpt lat="45.77410171200848" lon="9.615011703849516"><ele>341.0</ele><time>2026-04-17T13:52:38Z</time></trkpt><trkpt lat="45.77421202386083" lon="9.61498886732976"><ele>341.0</ele><time>2026-04-17T13:52:40Z</time></trkpt><trkpt lat="45.77431752103018" lon="9.614947358360403"><ele>341.0</ele><time>2026-04-17T13:52:42Z</time></trkpt><trkpt lat="45.77442947654694" lon="9.614897803507054"><ele>346.25</ele><time>2026-04-17T13:52:44Z</time></trkpt><trkpt lat="45.774550030070564" lon="9.614844275639967"><ele>351.5</ele><time>2026-04-17T13:52:46Z</time></trkpt><trkpt lat="45.77466813725064" lon="9.614783730515024"><ele>356.75</ele><time>2026-04-17T13:52:48Z</time></trkpt><trkpt lat="45.77478403178269" lon="9.614701281623477"><ele>362.0</ele><time>2026-04-17T13:52:50Z</time></trkpt><trkpt lat="45.774888708628666" lon="9.614597253151283"><ele>362.0</ele><time>2026-04-17T13:52:52Z</time></trkpt><trkpt lat="45.774941207552715" lon="9.614540797252422"><ele>362.0</ele><time>2026-04-17T13:52:53Z</time></trkpt><trkpt lat="45.77503930997375" lon="9.614425109354041"><ele>362.0</ele><time>2026-04-17T13:52:55Z</time></trkpt><trkpt lat="45.77508334081218" lon="9.614357414541724"><ele>362.0</ele><time>2026-04-17T13:52:56Z</time></trkpt><trkpt lat="45.77513193550263" lon="9.61429802603297"><ele>362.0</ele><time>2026-04-17T13:52:57Z</time></trkpt><trkpt lat="45.77522502715117" lon="9.614168101038176"><ele>360.5</ele><time>2026-04-17T13:52:59Z</time></trkpt><trkpt lat="45.77531812345757" lon="9.614044468471773"><ele>359.0</ele><time>2026-04-17T13:53:01Z</time></trkpt><trkpt lat="45.775365762055976" lon="9.61398319573854"><ele>357.5</ele><time>2026-04-17T13:53:02Z</time></trkpt><trkpt lat="45.77541116051961" lon="9.61391516776741"><ele>356.0</ele><time>2026-04-17T13:53:03Z</time></trkpt><trkpt lat="45.77545889786957" lon="9.613848707765596"><ele>354.5</ele><time>2026-04-17T13:53:04Z</time></trkpt><trkpt lat="45.775506241399114" lon="9.613787982356426"><ele>353.0</ele><time>2026-04-17T13:53:05Z</time></trkpt><trkpt lat="45.77560150863715" lon="9.613666882872165"><ele>350.85714285714283</ele><time>2026-04-17T13:53:07Z</time></trkpt><trkpt lat="45.775652914950555" lon="9.61360682274763"><ele>348.7142857142857</ele><time>2026-04-17T13:53:08Z</time></trkpt><trkpt lat="45.77570172853095" lon="9.613549136088846"><ele>346.57142857142856</ele><time>2026-04-17T13:53:09Z</time></trkpt><trkpt lat="45.77576056837716" lon="9.613505661315271"><ele>344.42857142857144</ele><time>2026-04-17T13:53:10Z</time></trkpt><trkpt lat="45.7758168503209" lon="9.613455732527855"><ele>342.2857142857143</ele><time>2026-04-17T13:53:11Z</time></trkpt><trkpt lat="45.775873071580826" lon="9.6134136616646"><ele>340.14285714285717</ele><time>2026-04-17T13:53:12Z</time></trkpt><trkpt lat="45.775934671016095" lon="9.613378669013475"><ele>338.0</ele><time>2026-04-17T13:53:13Z</time></trkpt><trkpt lat="45.77605194111393" lon="9.613305906675189"><ele>338.0</ele><time>2026-04-17T13:53:15Z</time></trkpt><trkpt lat="45.77617517806223" lon="9.613252648265735"><ele>338.0</ele><time>2026-04-17T13:53:17Z</time></trkpt><trkpt lat="45.77628317210552" lon="9.61316408420242"><ele>338.0</ele><time>2026-04-17T13:53:19Z</time></trkpt><trkpt lat="45.77640861481804" lon="9.61311316356025"><ele>338.0</ele><time>2026-04-17T13:53:21Z</time></trkpt><trkpt lat="45.776471655317756" lon="9.613106722926693"><ele>338.0</ele><time>2026-04-17T13:53:22Z</time></trkpt><trkpt lat="45.776535556732775" lon="9.613094328921399"><ele>338.0</ele><time>2026-04-17T13:53:23Z</time></trkpt><trkpt lat="45.77659766937742" lon="9.613061393603813"><ele>338.0</ele><time>2026-04-17T13:53:24Z</time></trkpt><trkpt lat="45.77666182268966" lon="9.613047753633516"><ele>338.0</ele><time>2026-04-17T13:53:25Z</time></trkpt><trkpt lat="45.776735130670815" lon="9.613042613410464"><ele>338.0</ele><time>2026-04-17T13:53:26Z</time></trkpt><trkpt lat="45.776806074957136" lon="9.613033447979873"><ele>338.0</ele><time>2026-04-17T13:53:27Z</time></trkpt><trkpt lat="45.77692917678617" lon="9.613035856091827"><ele>338.0</ele><time>2026-04-17T13:53:29Z</time></trkpt><trkpt lat="45.77699422547547" lon="9.61305993926718"><ele>337.79999999999995</ele><time>2026-04-17T13:53:30Z</time></trkpt><trkpt lat="45.777120221559194" lon="9.6130944036517"><ele>337.6</ele><time>2026-04-17T13:53:32Z</time></trkpt><trkpt lat="45.77724429100409" lon="9.613154749163364"><ele>337.4</ele><time>2026-04-17T13:53:34Z</time></trkpt><trkpt lat="45.77735894712897" lon="9.61320860109564"><ele>337.20000000000005</ele><time>2026-04-17T13:53:36Z</time></trkpt><trkpt lat="45.777419278579835" lon="9.613257395477397"><ele>337.0</ele><time>2026-04-17T13:53:37Z</time></trkpt><trkpt lat="45.77747899263731" lon="9.613292313191979"><ele>337.0</ele><time>2026-04-17T13:53:38Z</time></trkpt><trkpt lat="45.77754579694422" lon="9.613331489681217"><ele>337.0</ele><time>2026-04-17T13:53:39Z</time></trkpt><trkpt lat="45.7776614331889" lon="9.613394989979854"><ele>337.0</ele><time>2026-04-17T13:53:41Z</time></trkpt><trkpt lat="45.777719535254654" lon="9.613431485265183"><ele>337.0</ele><time>2026-04-17T13:53:42Z</time></trkpt><trkpt lat="45.77778049985972" lon="9.613459553647992"><ele>337.0</ele><time>2026-04-17T13:53:43Z</time></trkpt><trkpt lat="45.777899970796604" lon="9.613540886104548"><ele>335.6</ele><time>2026-04-17T13:53:45Z</time></trkpt><trkpt lat="45.778012814374286" lon="9.61359272022585"><ele>334.20000000000005</ele><time>2026-04-17T13:53:47Z</time></trkpt><trkpt lat="45.77807306304057" lon="9.613627655201775"><ele>332.8</ele><time>2026-04-17T13:53:48Z</time></trkpt><trkpt lat="45.77818875729183" lon="9.613697059589095"><ele>331.4</ele><time>2026-04-17T13:53:50Z</time></trkpt><trkpt lat="45.778303104995196" lon="9.613766734369069"><ele>330.0</ele><time>2026-04-17T13:53:52Z</time></trkpt><trkpt lat="45.778414879105284" lon="9.613827343564617"><ele>330.4</ele><time>2026-04-17T13:53:54Z</time></trkpt><trkpt lat="45.77853049616053" lon="9.61388906522557"><ele>330.8</ele><time>2026-04-17T13:53:56Z</time></trkpt><trkpt lat="45.778645268927875" lon="9.613948362096618"><ele>331.20000000000005</ele><time>2026-04-17T13:53:58Z</time></trkpt><trkpt lat="45.77875693587009" lon="9.6140154137252"><ele>331.6</ele><time>2026-04-17T13:54:00Z</time></trkpt><trkpt lat="45.77881603062604" lon="9.614048495883429"><ele>332.0</ele><time>2026-04-17T13:54:01Z</time></trkpt><trkpt lat="45.7788770675028" lon="9.614077298561018"><ele>332.0</ele><time>2026-04-17T13:54:02Z</time></trkpt><trkpt lat="45.77893856882967" lon="9.614116866536841"><ele>332.0</ele><time>2026-04-17T13:54:03Z</time></trkpt><trkpt lat="45.77905293003988" lon="9.614181538813954"><ele>332.0</ele><time>2026-04-17T13:54:05Z</time></trkpt><trkpt lat="45.77911680695175" lon="9.614211441856584"><ele>332.0</ele><time>2026-04-17T13:54:06Z</time></trkpt><trkpt lat="45.7791739902199" lon="9.61425261443293"><ele>332.0</ele><time>2026-04-17T13:54:07Z</time></trkpt><trkpt lat="45.7792905749762" lon="9.614336461109337"><ele>327.5</ele><time>2026-04-17T13:54:09Z</time></trkpt><trkpt lat="45.77939650531893" lon="9.614416010787368"><ele>323.0</ele><time>2026-04-17T13:54:11Z</time></trkpt><trkpt lat="45.779446793793646" lon="9.614476317251691"><ele>318.5</ele><time>2026-04-17T13:54:12Z</time></trkpt><trkpt lat="45.77948558891524" lon="9.61454817395969"><ele>314.0</ele><time>2026-04-17T13:54:13Z</time></trkpt><trkpt lat="45.77953130190086" lon="9.614624258433173"><ele>309.5</ele><time>2026-04-17T13:54:14Z</time></trkpt><trkpt lat="45.77958023799423" lon="9.614763827617558"><ele>305.0</ele><time>2026-04-17T13:54:16Z</time></trkpt><trkpt lat="45.779615099912974" lon="9.614856047369274"><ele>305.0</ele><time>2026-04-17T13:54:17Z</time></trkpt><trkpt lat="45.779630724221946" lon="9.614950117354768"><ele>305.0</ele><time>2026-04-17T13:54:18Z</time></trkpt><trkpt lat="45.779652550699744" lon="9.615124408741515"><ele>305.0</ele><time>2026-04-17T13:54:20Z</time></trkpt><trkpt lat="45.77965044937084" lon="9.61521617176237"><ele>305.0</ele><time>2026-04-17T13:54:21Z</time></trkpt><trkpt lat="45.779661641536926" lon="9.615305199794113"><ele>305.0</ele><time>2026-04-17T13:54:22Z</time></trkpt><trkpt lat="45.77966903615674" lon="9.615402365814708"><ele>305.0</ele><time>2026-04-17T13:54:23Z</time></trkpt><trkpt lat="45.77966896087279" lon="9.615493367162557"><ele>306.5714285714286</ele><time>2026-04-17T13:54:24Z</time></trkpt><trkpt lat="45.779674703040996" lon="9.615585034335627"><ele>308.1428571428571</ele><time>2026-04-17T13:54:25Z</time></trkpt><trkpt lat="45.779683953378125" lon="9.61567953532345"><ele>309.7142857142857</ele><time>2026-04-17T13:54:26Z</time></trkpt><trkpt lat="45.77969202539856" lon="9.615772470828675"><ele>311.28571428571433</ele><time>2026-04-17T13:54:27Z</time></trkpt><trkpt lat="45.77969223146718" lon="9.61586400380025"><ele>312.8571428571429</ele><time>2026-04-17T13:54:28Z</time></trkpt><trkpt lat="45.77969834499104" lon="9.615958109471983"><ele>314.42857142857144</ele><time>2026-04-17T13:54:29Z</time></trkpt><trkpt lat="45.77970577367195" lon="9.61605086428264"><ele>316.0</ele><time>2026-04-17T13:54:30Z</time></trkpt><trkpt lat="45.77970601886112" lon="9.616144121605355"><ele>316.16666666666663</ele><time>2026-04-17T13:54:31Z</time></trkpt><trkpt lat="45.77971076013261" lon="9.616239238983866"><ele>316.3333333333333</ele><time>2026-04-17T13:54:32Z</time></trkpt><trkpt lat="45.77971936266899" lon="9.61633151217152"><ele>316.5</ele><time>2026-04-17T13:54:33Z</time></trkpt><trkpt lat="45.779724380218795" lon="9.616427712254"><ele>316.6666666666667</ele><time>2026-04-17T13:54:34Z</time></trkpt><trkpt lat="45.77972823560096" lon="9.616526862973156"><ele>316.83333333333337</ele><time>2026-04-17T13:54:35Z</time></trkpt><trkpt lat="45.77974535422177" lon="9.616708501685384"><ele>317.0</ele><time>2026-04-17T13:54:37Z</time></trkpt><trkpt lat="45.77975268579372" lon="9.616805771459312"><ele>317.0</ele><time>2026-04-17T13:54:38Z</time></trkpt><trkpt lat="45.77976479872706" lon="9.616896865333143"><ele>317.0</ele><time>2026-04-17T13:54:39Z</time></trkpt><trkpt lat="45.77977050866202" lon="9.616994707231875"><ele>317.0</ele><time>2026-04-17T13:54:40Z</time></trkpt><trkpt lat="45.779785357392875" lon="9.617084211328642"><ele>317.0</ele><time>2026-04-17T13:54:41Z</time></trkpt><trkpt lat="45.77979489636736" lon="9.61718278730124"><ele>317.0</ele><time>2026-04-17T13:54:42Z</time></trkpt><trkpt lat="45.779816699748324" lon="9.617362066899162"><ele>317.0</ele><time>2026-04-17T13:54:44Z</time></trkpt><trkpt lat="45.77984160531516" lon="9.61754845192278"><ele>317.42857142857144</ele><time>2026-04-17T13:54:46Z</time></trkpt><trkpt lat="45.77984895313964" lon="9.617644000792184"><ele>317.85714285714283</ele><time>2026-04-17T13:54:47Z</time></trkpt><trkpt lat="45.77985184760582" lon="9.6177364189946"><ele>318.2857142857143</ele><time>2026-04-17T13:54:48Z</time></trkpt><trkpt lat="45.779851523671546" lon="9.617832086107738"><ele>318.7142857142857</ele><time>2026-04-17T13:54:49Z</time></trkpt><trkpt lat="45.77985048280847" lon="9.617927210226467"><ele>319.14285714285717</ele><time>2026-04-17T13:54:50Z</time></trkpt><trkpt lat="45.779840090672" lon="9.618017432895064"><ele>319.57142857142856</ele><time>2026-04-17T13:54:51Z</time></trkpt><trkpt lat="45.77983262815226" lon="9.618111294902345"><ele>320.0</ele><time>2026-04-17T13:54:52Z</time></trkpt><trkpt lat="45.77983136040432" lon="9.618202740027362"><ele>320.1666666666667</ele><time>2026-04-17T13:54:53Z</time></trkpt><trkpt lat="45.77982941326554" lon="9.618295095734311"><ele>320.33333333333337</ele><time>2026-04-17T13:54:54Z</time></trkpt><trkpt lat="45.77981748899085" lon="9.618385577950216"><ele>320.5</ele><time>2026-04-17T13:54:55Z</time></trkpt><trkpt lat="45.77981762536095" lon="9.618477517354007"><ele>320.6666666666667</ele><time>2026-04-17T13:54:56Z</time></trkpt><trkpt lat="45.77982186430945" lon="9.6185759277222"><ele>320.8333333333333</ele><time>2026-04-17T13:54:57Z</time></trkpt><trkpt lat="45.779826362407874" lon="9.61876153607676"><ele>321.0</ele><time>2026-04-17T13:54:59Z</time></trkpt><trkpt lat="45.77984817581383" lon="9.618852177120083"><ele>321.4</ele><time>2026-04-17T13:55:00Z</time></trkpt><trkpt lat="45.779907332611636" lon="9.61900978635436"><ele>321.8</ele><time>2026-04-17T13:55:02Z</time></trkpt><trkpt lat="45.77993584567075" lon="9.619091099165038"><ele>322.2</ele><time>2026-04-17T13:55:03Z</time></trkpt><trkpt lat="45.779967213138434" lon="9.619169667295928"><ele>322.59999999999997</ele><time>2026-04-17T13:55:04Z</time></trkpt><trkpt lat="45.78003009194108" lon="9.61932383284207"><ele>323.0</ele><time>2026-04-17T13:55:06Z</time></trkpt><trkpt lat="45.780088907037666" lon="9.619482992397131"><ele>324.1666666666667</ele><time>2026-04-17T13:55:08Z</time></trkpt><trkpt lat="45.78012178553995" lon="9.619560673194183"><ele>325.33333333333337</ele><time>2026-04-17T13:55:09Z</time></trkpt><trkpt lat="45.78019313177089" lon="9.61971282385394"><ele>326.5</ele><time>2026-04-17T13:55:11Z</time></trkpt><trkpt lat="45.78022904570782" lon="9.619787399604483"><ele>327.6666666666667</ele><time>2026-04-17T13:55:12Z</time></trkpt><trkpt lat="45.7802637373235" lon="9.6198659259671"><ele>328.8333333333333</ele><time>2026-04-17T13:55:13Z</time></trkpt><trkpt lat="45.78033449573517" lon="9.620020906914009"><ele>330.0</ele><time>2026-04-17T13:55:15Z</time></trkpt><trkpt lat="45.78036801181422" lon="9.6201009032034"><ele>328.8</ele><time>2026-04-17T13:55:16Z</time></trkpt><trkpt lat="45.78044205420414" lon="9.620258969428175"><ele>327.6</ele><time>2026-04-17T13:55:18Z</time></trkpt><trkpt lat="45.780507489741055" lon="9.620418249805981"><ele>326.4</ele><time>2026-04-17T13:55:20Z</time></trkpt><trkpt lat="45.78054425575084" lon="9.620493112017448"><ele>325.2</ele><time>2026-04-17T13:55:21Z</time></trkpt><trkpt lat="45.78057301111259" lon="9.62057399127426"><ele>324.0</ele><time>2026-04-17T13:55:22Z</time></trkpt><trkpt lat="45.780607667299996" lon="9.620655562810958"><ele>324.0</ele><time>2026-04-17T13:55:23Z</time></trkpt><trkpt lat="45.780640343963725" lon="9.620736402188907"><ele>324.0</ele><time>2026-04-17T13:55:24Z</time></trkpt><trkpt lat="45.7806720966695" lon="9.62081917476613"><ele>324.0</ele><time>2026-04-17T13:55:25Z</time></trkpt><trkpt lat="45.78070465731699" lon="9.62089987951186"><ele>324.0</ele><time>2026-04-17T13:55:26Z</time></trkpt><trkpt lat="45.780738119973435" lon="9.620979685282807"><ele>324.0</ele><time>2026-04-17T13:55:27Z</time></trkpt><trkpt lat="45.78077076688918" lon="9.621058549741086"><ele>324.0</ele><time>2026-04-17T13:55:28Z</time></trkpt><trkpt lat="45.780805815692524" lon="9.621138773418757"><ele>324.0</ele><time>2026-04-17T13:55:29Z</time></trkpt><trkpt lat="45.78084766223141" lon="9.621222014782145"><ele>325.0</ele><time>2026-04-17T13:55:30Z</time></trkpt><trkpt lat="45.780907510564674" lon="9.62138009991437"><ele>326.0</ele><time>2026-04-17T13:55:32Z</time></trkpt><trkpt lat="45.780946874889295" lon="9.621452758783942"><ele>327.0</ele><time>2026-04-17T13:55:33Z</time></trkpt><trkpt lat="45.78098571979911" lon="9.621535884444924"><ele>328.0</ele><time>2026-04-17T13:55:34Z</time></trkpt><trkpt lat="45.7810480174393" lon="9.621691005057258"><ele>329.0</ele><time>2026-04-17T13:55:36Z</time></trkpt><trkpt lat="45.781085927704325" lon="9.621773357015334"><ele>327.7142857142857</ele><time>2026-04-17T13:55:37Z</time></trkpt><trkpt lat="45.781117137457656" lon="9.621853927138837"><ele>326.42857142857144</ele><time>2026-04-17T13:55:38Z</time></trkpt><trkpt lat="45.781148561719796" lon="9.621935109022116"><ele>325.1428571428571</ele><time>2026-04-17T13:55:39Z</time></trkpt><trkpt lat="45.78119346671655" lon="9.622013501733182"><ele>323.8571428571429</ele><time>2026-04-17T13:55:40Z</time></trkpt><trkpt lat="45.781216824880474" lon="9.622098224530925"><ele>322.57142857142856</ele><time>2026-04-17T13:55:41Z</time></trkpt><trkpt lat="45.78125340164744" lon="9.622177836968167"><ele>321.2857142857143</ele><time>2026-04-17T13:55:42Z</time></trkpt><trkpt lat="45.781291275672956" lon="9.622260054609976"><ele>320.0</ele><time>2026-04-17T13:55:43Z</time></trkpt><trkpt lat="45.781322986898466" lon="9.622339674645675"><ele>320.0</ele><time>2026-04-17T13:55:44Z</time></trkpt><trkpt lat="45.7813595183042" lon="9.622422699019094"><ele>320.0</ele><time>2026-04-17T13:55:45Z</time></trkpt><trkpt lat="45.78138900188208" lon="9.622509913257641"><ele>320.0</ele><time>2026-04-17T13:55:46Z</time></trkpt><trkpt lat="45.78142456768691" lon="9.622592785153861"><ele>320.0</ele><time>2026-04-17T13:55:47Z</time></trkpt><trkpt lat="45.78146214833451" lon="9.6226704935391"><ele>320.0</ele><time>2026-04-17T13:55:48Z</time></trkpt><trkpt lat="45.78149488822301" lon="9.622750749237634"><ele>320.0</ele><time>2026-04-17T13:55:49Z</time></trkpt><trkpt lat="45.781535927502475" lon="9.622829508303905"><ele>320.0</ele><time>2026-04-17T13:55:50Z</time></trkpt><trkpt lat="45.78157459730804" lon="9.622905810175032"><ele>320.5</ele><time>2026-04-17T13:55:51Z</time></trkpt><trkpt lat="45.781610842449105" lon="9.622984289071262"><ele>321.0</ele><time>2026-04-17T13:55:52Z</time></trkpt><trkpt lat="45.78165081801874" lon="9.623071721085962"><ele>321.5</ele><time>2026-04-17T13:55:53Z</time></trkpt><trkpt lat="45.78172096228977" lon="9.623213850242209"><ele>322.0</ele><time>2026-04-17T13:55:55Z</time></trkpt><trkpt lat="45.781768520784155" lon="9.623275438915357"><ele>322.5</ele><time>2026-04-17T13:55:56Z</time></trkpt><trkpt lat="45.781817156734284" lon="9.623345999834967"><ele>323.0</ele><time>2026-04-17T13:55:57Z</time></trkpt><trkpt lat="45.78188326764661" lon="9.623481593557921"><ele>322.0</ele><time>2026-04-17T13:55:59Z</time></trkpt><trkpt lat="45.781941626030545" lon="9.623633554962465"><ele>321.0</ele><time>2026-04-17T13:56:01Z</time></trkpt><trkpt lat="45.78197888652498" lon="9.623713288044435"><ele>320.0</ele><time>2026-04-17T13:56:02Z</time></trkpt><trkpt lat="45.78201952257146" lon="9.623792197134446"><ele>319.0</ele><time>2026-04-17T13:56:03Z</time></trkpt><trkpt lat="45.782055009167316" lon="9.623870022454549"><ele>318.0</ele><time>2026-04-17T13:56:04Z</time></trkpt><trkpt lat="45.7820823998769" lon="9.623955567670471"><ele>317.0</ele><time>2026-04-17T13:56:05Z</time></trkpt><trkpt lat="45.782114273319316" lon="9.62404578461697"><ele>317.0</ele><time>2026-04-17T13:56:06Z</time></trkpt><trkpt lat="45.78216067537436" lon="9.624210396069625"><ele>317.0</ele><time>2026-04-17T13:56:08Z</time></trkpt><trkpt lat="45.782191070120426" lon="9.624292716750663"><ele>317.0</ele><time>2026-04-17T13:56:09Z</time></trkpt><trkpt lat="45.782217345076134" lon="9.624377205844917"><ele>317.0</ele><time>2026-04-17T13:56:10Z</time></trkpt><trkpt lat="45.7822373529108" lon="9.62446329977818"><ele>317.0</ele><time>2026-04-17T13:56:11Z</time></trkpt><trkpt lat="45.782263557828934" lon="9.62454855681959"><ele>317.0</ele><time>2026-04-17T13:56:12Z</time></trkpt><trkpt lat="45.78229113387357" lon="9.62463518211946"><ele>317.0</ele><time>2026-04-17T13:56:13Z</time></trkpt><trkpt lat="45.782321609829246" lon="9.624717645373572"><ele>317.7142857142857</ele><time>2026-04-17T13:56:14Z</time></trkpt><trkpt lat="45.78236015530251" lon="9.624793790813438"><ele>318.42857142857144</ele><time>2026-04-17T13:56:15Z</time></trkpt><trkpt lat="45.7824092206545" lon="9.62485940733397"><ele>319.1428571428571</ele><time>2026-04-17T13:56:16Z</time></trkpt><trkpt lat="45.78245887460452" lon="9.624919754788989"><ele>319.8571428571429</ele><time>2026-04-17T13:56:17Z</time></trkpt><trkpt lat="45.78251351380374" lon="9.624978056029077"><ele>320.57142857142856</ele><time>2026-04-17T13:56:18Z</time></trkpt><trkpt lat="45.782566035438656" lon="9.625032993313289"><ele>321.2857142857143</ele><time>2026-04-17T13:56:19Z</time></trkpt><trkpt lat="45.782619165944084" lon="9.625098327806702"><ele>322.0</ele><time>2026-04-17T13:56:20Z</time></trkpt><trkpt lat="45.78267085158517" lon="9.625169524080073"><ele>319.66666666666663</ele><time>2026-04-17T13:56:21Z</time></trkpt><trkpt lat="45.78276037424093" lon="9.625322208770699"><ele>317.3333333333333</ele><time>2026-04-17T13:56:23Z</time></trkpt><trkpt lat="45.78280608666752" lon="9.625402147348646"><ele>315.0</ele><time>2026-04-17T13:56:24Z</time></trkpt><trkpt lat="45.782854265727245" lon="9.625484552950812"><ele>312.6666666666667</ele><time>2026-04-17T13:56:25Z</time></trkpt><trkpt lat="45.78290384644265" lon="9.625572706951278"><ele>310.33333333333337</ele><time>2026-04-17T13:56:26Z</time></trkpt><trkpt lat="45.78294182939646" lon="9.625661947914262"><ele>308.0</ele><time>2026-04-17T13:56:27Z</time></trkpt><trkpt lat="45.78299106498943" lon="9.62575508741427"><ele>308.0</ele><time>2026-04-17T13:56:28Z</time></trkpt><trkpt lat="45.78303832760698" lon="9.625851307260696"><ele>308.0</ele><time>2026-04-17T13:56:29Z</time></trkpt><trkpt lat="45.78308266029669" lon="9.625944836010191"><ele>308.0</ele><time>2026-04-17T13:56:30Z</time></trkpt><trkpt lat="45.78314197620361" lon="9.626036986708304"><ele>308.0</ele><time>2026-04-17T13:56:31Z</time></trkpt><trkpt lat="45.78318391471688" lon="9.626134294038494"><ele>308.0</ele><time>2026-04-17T13:56:32Z</time></trkpt><trkpt lat="45.783239938512814" lon="9.626229911146064"><ele>308.0</ele><time>2026-04-17T13:56:33Z</time></trkpt><trkpt lat="45.78327709945752" lon="9.626341039797795"><ele>310.5</ele><time>2026-04-17T13:56:34Z</time></trkpt><trkpt lat="45.783320732819185" lon="9.626445240865772"><ele>313.0</ele><time>2026-04-17T13:56:35Z</time></trkpt><trkpt lat="45.78335786475926" lon="9.626566613874928"><ele>315.5</ele><time>2026-04-17T13:56:36Z</time></trkpt><trkpt lat="45.783388693450554" lon="9.626682154715606"><ele>318.0</ele><time>2026-04-17T13:56:37Z</time></trkpt><trkpt lat="45.78343113362959" lon="9.626803750670316"><ele>320.5</ele><time>2026-04-17T13:56:38Z</time></trkpt><trkpt lat="45.783460124818056" lon="9.626926888957483"><ele>323.0</ele><time>2026-04-17T13:56:39Z</time></trkpt><trkpt lat="45.78349786875898" lon="9.62704705369941"><ele>321.2</ele><time>2026-04-17T13:56:40Z</time></trkpt><trkpt lat="45.783543538875406" lon="9.627159770623857"><ele>319.4</ele><time>2026-04-17T13:56:41Z</time></trkpt><trkpt lat="45.78360576094598" lon="9.627270783904091"><ele>317.59999999999997</ele><time>2026-04-17T13:56:42Z</time></trkpt><trkpt lat="45.78366724339498" lon="9.627376281000291"><ele>315.79999999999995</ele><time>2026-04-17T13:56:43Z</time></trkpt><trkpt lat="45.78373728721127" lon="9.627475281844584"><ele>314.0</ele><time>2026-04-17T13:56:44Z</time></trkpt><trkpt lat="45.78382322063626" lon="9.627558654619895"><ele>314.0</ele><time>2026-04-17T13:56:45Z</time></trkpt><trkpt lat="45.78389464114304" lon="9.62762752937815"><ele>314.0</ele><time>2026-04-17T13:56:46Z</time></trkpt><trkpt lat="45.7839823114098" lon="9.627696228309626"><ele>314.0</ele><time>2026-04-17T13:56:47Z</time></trkpt><trkpt lat="45.7840674620159" lon="9.627765567702394"><ele>314.0</ele><time>2026-04-17T13:56:48Z</time></trkpt><trkpt lat="45.78415053114932" lon="9.627837001579653"><ele>314.0</ele><time>2026-04-17T13:56:49Z</time></trkpt><trkpt lat="45.784235186949324" lon="9.627917064538702"><ele>313.0</ele><time>2026-04-17T13:56:50Z</time></trkpt><trkpt lat="45.78430734290899" lon="9.628006864421538"><ele>312.0</ele><time>2026-04-17T13:56:51Z</time></trkpt><trkpt lat="45.784375841424996" lon="9.628099881523285"><ele>311.0</ele><time>2026-04-17T13:56:52Z</time></trkpt><trkpt lat="45.784441325620605" lon="9.628202881655634"><ele>310.0</ele><time>2026-04-17T13:56:53Z</time></trkpt><trkpt lat="45.78452083272542" lon="9.628301171993472"><ele>309.0</ele><time>2026-04-17T13:56:54Z</time></trkpt><trkpt lat="45.784591033258714" lon="9.628409895378523"><ele>309.0</ele><time>2026-04-17T13:56:55Z</time></trkpt><trkpt lat="45.784660250402325" lon="9.628506378700651"><ele>309.0</ele><time>2026-04-17T13:56:56Z</time></trkpt><trkpt lat="45.784734909214855" lon="9.628600845295844"><ele>309.0</ele><time>2026-04-17T13:56:57Z</time></trkpt><trkpt lat="45.78481097879948" lon="9.628689395514163"><ele>309.0</ele><time>2026-04-17T13:56:58Z</time></trkpt><trkpt lat="45.78489297674574" lon="9.628768605670281"><ele>309.0</ele><time>2026-04-17T13:56:59Z</time></trkpt><trkpt lat="45.78497501155283" lon="9.628840913982351"><ele>309.2</ele><time>2026-04-17T13:57:00Z</time></trkpt><trkpt lat="45.78505553631115" lon="9.628919438557933"><ele>309.4</ele><time>2026-04-17T13:57:01Z</time></trkpt><trkpt lat="45.78514428541555" lon="9.62900278144159"><ele>309.6</ele><time>2026-04-17T13:57:02Z</time></trkpt><trkpt lat="45.785234264387626" lon="9.629074801560598"><ele>309.8</ele><time>2026-04-17T13:57:03Z</time></trkpt><trkpt lat="45.78531992725477" lon="9.629152930397266"><ele>310.0</ele><time>2026-04-17T13:57:04Z</time></trkpt><trkpt lat="45.78540626316455" lon="9.629223598161657"><ele>310.0</ele><time>2026-04-17T13:57:05Z</time></trkpt><trkpt lat="45.78549402654206" lon="9.62930176659723"><ele>310.0</ele><time>2026-04-17T13:57:06Z</time></trkpt><trkpt lat="45.78558360776881" lon="9.629381088293751"><ele>310.0</ele><time>2026-04-17T13:57:07Z</time></trkpt><trkpt lat="45.78567367108212" lon="9.629456608972333"><ele>310.0</ele><time>2026-04-17T13:57:08Z</time></trkpt><trkpt lat="45.78576316771842" lon="9.629538086981684"><ele>310.0</ele><time>2026-04-17T13:57:09Z</time></trkpt><trkpt lat="45.78585120975879" lon="9.62961945737862"><ele>309.2</ele><time>2026-04-17T13:57:10Z</time></trkpt><trkpt lat="45.78593515323111" lon="9.629699855585482"><ele>308.4</ele><time>2026-04-17T13:57:11Z</time></trkpt><trkpt lat="45.7860273417167" lon="9.629780660570216"><ele>307.6</ele><time>2026-04-17T13:57:12Z</time></trkpt><trkpt lat="45.78611408548406" lon="9.629863247621769"><ele>306.8</ele><time>2026-04-17T13:57:13Z</time></trkpt><trkpt lat="45.7861997955501" lon="9.629949511413635"><ele>306.0</ele><time>2026-04-17T13:57:14Z</time></trkpt><trkpt lat="45.78628582573299" lon="9.6300430178179"><ele>304.8</ele><time>2026-04-17T13:57:15Z</time></trkpt><trkpt lat="45.786370175480045" lon="9.630131219290915"><ele>303.6</ele><time>2026-04-17T13:57:16Z</time></trkpt><trkpt lat="45.78644903064888" lon="9.630204898028419"><ele>302.4</ele><time>2026-04-17T13:57:17Z</time></trkpt><trkpt lat="45.78653278279868" lon="9.630288275729473"><ele>301.2</ele><time>2026-04-17T13:57:18Z</time></trkpt><trkpt lat="45.7866092399079" lon="9.630369977317647"><ele>300.0</ele><time>2026-04-17T13:57:19Z</time></trkpt><trkpt lat="45.786690196433135" lon="9.630447902293632"><ele>299.4</ele><time>2026-04-17T13:57:20Z</time></trkpt><trkpt lat="45.786765518970185" lon="9.630526784381603"><ele>298.8</ele><time>2026-04-17T13:57:21Z</time></trkpt><trkpt lat="45.786837875762124" lon="9.630608263235407"><ele>298.2</ele><time>2026-04-17T13:57:22Z</time></trkpt><trkpt lat="45.78690856809962" lon="9.630691273432275"><ele>297.6</ele><time>2026-04-17T13:57:23Z</time></trkpt><trkpt lat="45.78697965469735" lon="9.630769333744842"><ele>297.0</ele><time>2026-04-17T13:57:24Z</time></trkpt><trkpt lat="45.78704594732582" lon="9.630845888963723"><ele>300.8333333333333</ele><time>2026-04-17T13:57:25Z</time></trkpt><trkpt lat="45.787102954522716" lon="9.630938585265886"><ele>304.6666666666667</ele><time>2026-04-17T13:57:26Z</time></trkpt><trkpt lat="45.787158576804245" lon="9.631044942487577"><ele>308.5</ele><time>2026-04-17T13:57:27Z</time></trkpt><trkpt lat="45.78719289807493" lon="9.6311493861951"><ele>312.33333333333337</ele><time>2026-04-17T13:57:28Z</time></trkpt><trkpt lat="45.787211018248456" lon="9.631252250872516"><ele>316.1666666666667</ele><time>2026-04-17T13:57:29Z</time></trkpt><trkpt lat="45.78723002875149" lon="9.631361743591283"><ele>320.0</ele><time>2026-04-17T13:57:30Z</time></trkpt><trkpt lat="45.78725771742541" lon="9.631473864916073"><ele>320.0</ele><time>2026-04-17T13:57:31Z</time></trkpt><trkpt lat="45.78727071701756" lon="9.631576049483414"><ele>320.0</ele><time>2026-04-17T13:57:32Z</time></trkpt><trkpt lat="45.78727887496694" lon="9.631678279454041"><ele>320.0</ele><time>2026-04-17T13:57:33Z</time></trkpt><trkpt lat="45.78728378964094" lon="9.631780975411736"><ele>320.0</ele><time>2026-04-17T13:57:34Z</time></trkpt><trkpt lat="45.78728801284203" lon="9.631886892030433"><ele>320.0</ele><time>2026-04-17T13:57:35Z</time></trkpt><trkpt lat="45.78729118857575" lon="9.631993562890843"><ele>320.0</ele><time>2026-04-17T13:57:36Z</time></trkpt><trkpt lat="45.78729602323442" lon="9.63209539524222"><ele>320.0</ele><time>2026-04-17T13:57:37Z</time></trkpt><trkpt lat="45.787298514865014" lon="9.632197382614848"><ele>320.85714285714283</ele><time>2026-04-17T13:57:38Z</time></trkpt><trkpt lat="45.78730583644532" lon="9.632296304284296"><ele>321.7142857142857</ele><time>2026-04-17T13:57:39Z</time></trkpt><trkpt lat="45.787320949640026" lon="9.632391413182459"><ele>322.57142857142856</ele><time>2026-04-17T13:57:40Z</time></trkpt><trkpt lat="45.78733838643764" lon="9.632486114930126"><ele>323.42857142857144</ele><time>2026-04-17T13:57:41Z</time></trkpt><trkpt lat="45.787357713861354" lon="9.632577173120596"><ele>324.2857142857143</ele><time>2026-04-17T13:57:42Z</time></trkpt><trkpt lat="45.787381362984256" lon="9.632666614023545"><ele>325.14285714285717</ele><time>2026-04-17T13:57:43Z</time></trkpt><trkpt lat="45.78740037072044" lon="9.632755100656452"><ele>326.0</ele><time>2026-04-17T13:57:44Z</time></trkpt><trkpt lat="45.78742255499155" lon="9.632846008393459"><ele>322.6666666666667</ele><time>2026-04-17T13:57:45Z</time></trkpt><trkpt lat="45.7874461525432" lon="9.63293800904285"><ele>319.33333333333337</ele><time>2026-04-17T13:57:46Z</time></trkpt><trkpt lat="45.78748157801504" lon="9.63310311403134"><ele>316.0</ele><time>2026-04-17T13:57:48Z</time></trkpt><trkpt lat="45.78751139403446" lon="9.633280935396167"><ele>312.6666666666667</ele><time>2026-04-17T13:57:50Z</time></trkpt><trkpt lat="45.78753013328884" lon="9.633371447047798"><ele>309.3333333333333</ele><time>2026-04-17T13:57:51Z</time></trkpt><trkpt lat="45.787549715039034" lon="9.633457993382144"><ele>306.0</ele><time>2026-04-17T13:57:52Z</time></trkpt><trkpt lat="45.78756865427056" lon="9.633548028208818"><ele>306.0</ele><time>2026-04-17T13:57:53Z</time></trkpt><trkpt lat="45.7875882091655" lon="9.63363802767867"><ele>306.0</ele><time>2026-04-17T13:57:54Z</time></trkpt><trkpt lat="45.787602628294735" lon="9.633729874600053"><ele>306.0</ele><time>2026-04-17T13:57:55Z</time></trkpt><trkpt lat="45.78761741196263" lon="9.633820046013039"><ele>306.0</ele><time>2026-04-17T13:57:56Z</time></trkpt><trkpt lat="45.787631061550584" lon="9.633910241912423"><ele>306.0</ele><time>2026-04-17T13:57:57Z</time></trkpt><trkpt lat="45.78764748859802" lon="9.633997940966577"><ele>306.0</ele><time>2026-04-17T13:57:58Z</time></trkpt><trkpt lat="45.78767230054596" lon="9.634084869430524"><ele>306.0</ele><time>2026-04-17T13:57:59Z</time></trkpt><trkpt lat="45.787693601262006" lon="9.63417082347017"><ele>313.1666666666667</ele><time>2026-04-17T13:58:00Z</time></trkpt><trkpt lat="45.78771882935557" lon="9.634253693537268"><ele>320.3333333333333</ele><time>2026-04-17T13:58:01Z</time></trkpt><trkpt lat="45.78778128945214" lon="9.634408851627168"><ele>327.5</ele><time>2026-04-17T13:58:03Z</time></trkpt><trkpt lat="45.787848964072815" lon="9.634553265491007"><ele>334.66666666666663</ele><time>2026-04-17T13:58:05Z</time></trkpt><trkpt lat="45.78788544077901" lon="9.634635212073086"><ele>341.8333333333333</ele><time>2026-04-17T13:58:06Z</time></trkpt><trkpt lat="45.78792078892385" lon="9.634718616569693"><ele>349.0</ele><time>2026-04-17T13:58:07Z</time></trkpt><trkpt lat="45.78795760093534" lon="9.634804779383257"><ele>348.99999999999994</ele><time>2026-04-17T13:58:08Z</time></trkpt><trkpt lat="45.78799267673406" lon="9.634893858131404"><ele>349.0</ele><time>2026-04-17T13:58:09Z</time></trkpt><trkpt lat="45.78802792925388" lon="9.634986577969121"><ele>349.0</ele><time>2026-04-17T13:58:10Z</time></trkpt><trkpt lat="45.78805967351869" lon="9.635079724103688"><ele>349.0</ele><time>2026-04-17T13:58:11Z</time></trkpt><trkpt lat="45.788085798046694" lon="9.635174193542957"><ele>349.0</ele><time>2026-04-17T13:58:12Z</time></trkpt><trkpt lat="45.788113909962654" lon="9.635279498854135"><ele>348.99999999999994</ele><time>2026-04-17T13:58:13Z</time></trkpt><trkpt lat="45.78813859833425" lon="9.635381149435347"><ele>349.0</ele><time>2026-04-17T13:58:14Z</time></trkpt><trkpt lat="45.78815864223967" lon="9.635481641536273"><ele>344.4285714285714</ele><time>2026-04-17T13:58:15Z</time></trkpt><trkpt lat="45.78817926668589" lon="9.635585438838962"><ele>339.85714285714283</ele><time>2026-04-17T13:58:16Z</time></trkpt><trkpt lat="45.78820164048899" lon="9.635685635634893"><ele>335.2857142857143</ele><time>2026-04-17T13:58:17Z</time></trkpt><trkpt lat="45.788222993778575" lon="9.63578466868748"><ele>330.71428571428567</ele><time>2026-04-17T13:58:18Z</time></trkpt><trkpt lat="45.78823925312318" lon="9.63588732526582"><ele>326.1428571428571</ele><time>2026-04-17T13:58:19Z</time></trkpt><trkpt lat="45.788257832709085" lon="9.635984110498681"><ele>321.57142857142856</ele><time>2026-04-17T13:58:20Z</time></trkpt><trkpt lat="45.78827652719152" lon="9.636081252116139"><ele>317.0</ele><time>2026-04-17T13:58:21Z</time></trkpt><trkpt lat="45.78829709228089" lon="9.636176300239073"><ele>319.1666666666667</ele><time>2026-04-17T13:58:22Z</time></trkpt><trkpt lat="45.78832302002709" lon="9.636268351485523"><ele>321.33333333333337</ele><time>2026-04-17T13:58:23Z</time></trkpt><trkpt lat="45.7883518941064" lon="9.63635607486865"><ele>323.5</ele><time>2026-04-17T13:58:24Z</time></trkpt><trkpt lat="45.78838051524208" lon="9.636442387788511"><ele>325.6666666666667</ele><time>2026-04-17T13:58:25Z</time></trkpt><trkpt lat="45.78841200982575" lon="9.636522994359325"><ele>327.8333333333333</ele><time>2026-04-17T13:58:26Z</time></trkpt><trkpt lat="45.78847901245419" lon="9.636672649450068"><ele>330.0</ele><time>2026-04-17T13:58:28Z</time></trkpt><trkpt lat="45.78854533887094" lon="9.636823168259715"><ele>323.4</ele><time>2026-04-17T13:58:30Z</time></trkpt><trkpt lat="45.78864622336655" lon="9.636972112121367"><ele>316.8</ele><time>2026-04-17T13:58:32Z</time></trkpt><trkpt lat="45.78871154597696" lon="9.637100602068449"><ele>310.2</ele><time>2026-04-17T13:58:33Z</time></trkpt><trkpt lat="45.788758243983516" lon="9.637200681071384"><ele>303.6</ele><time>2026-04-17T13:58:34Z</time></trkpt><trkpt lat="45.78880980932204" lon="9.637275866418557"><ele>297.0</ele><time>2026-04-17T13:58:35Z</time></trkpt><trkpt lat="45.78885503351076" lon="9.637353373011692"><ele>297.0</ele><time>2026-04-17T13:58:36Z</time></trkpt><trkpt lat="45.78890150943747" lon="9.637435745706624"><ele>297.0</ele><time>2026-04-17T13:58:37Z</time></trkpt><trkpt lat="45.78894420311179" lon="9.637516957546312"><ele>297.0</ele><time>2026-04-17T13:58:38Z</time></trkpt><trkpt lat="45.788988225136364" lon="9.637595914337599"><ele>297.0</ele><time>2026-04-17T13:58:39Z</time></trkpt><trkpt lat="45.789027281195004" lon="9.637673265350825"><ele>297.0</ele><time>2026-04-17T13:58:40Z</time></trkpt><trkpt lat="45.78906539181981" lon="9.637754798825288"><ele>297.0</ele><time>2026-04-17T13:58:41Z</time></trkpt><trkpt lat="45.789100681881116" lon="9.637834355102886"><ele>297.0</ele><time>2026-04-17T13:58:42Z</time></trkpt><trkpt lat="45.789130629078976" lon="9.637922561500268"><ele>296.0</ele><time>2026-04-17T13:58:43Z</time></trkpt><trkpt lat="45.78915516640692" lon="9.638007921546977"><ele>295.0</ele><time>2026-04-17T13:58:44Z</time></trkpt><trkpt lat="45.78917717972956" lon="9.638093355988255"><ele>294.0</ele><time>2026-04-17T13:58:45Z</time></trkpt><trkpt lat="45.78922766289782" lon="9.638255816479278"><ele>293.0</ele><time>2026-04-17T13:58:47Z</time></trkpt><trkpt lat="45.789266426562534" lon="9.638425186061752"><ele>292.0</ele><time>2026-04-17T13:58:49Z</time></trkpt><trkpt lat="45.78926216941465" lon="9.638598420804257"><ele>292.4</ele><time>2026-04-17T13:58:51Z</time></trkpt><trkpt lat="45.7892465300612" lon="9.638780397048341"><ele>292.79999999999995</ele><time>2026-04-17T13:58:53Z</time></trkpt><trkpt lat="45.78925491728963" lon="9.638870057684844"><ele>293.2</ele><time>2026-04-17T13:58:54Z</time></trkpt><trkpt lat="45.789294078482136" lon="9.639039892404012"><ele>293.59999999999997</ele><time>2026-04-17T13:58:56Z</time></trkpt><trkpt lat="45.78934220820686" lon="9.639203161403392"><ele>294.0</ele><time>2026-04-17T13:58:58Z</time></trkpt><trkpt lat="45.789367994464115" lon="9.639287703682923"><ele>294.2857142857143</ele><time>2026-04-17T13:58:59Z</time></trkpt><trkpt lat="45.78940228806261" lon="9.639367582084503"><ele>294.57142857142856</ele><time>2026-04-17T13:59:00Z</time></trkpt><trkpt lat="45.78944055755722" lon="9.63944169091121"><ele>294.8571428571429</ele><time>2026-04-17T13:59:01Z</time></trkpt><trkpt lat="45.78948863130263" lon="9.639508832460528"><ele>295.1428571428571</ele><time>2026-04-17T13:59:02Z</time></trkpt><trkpt lat="45.78954060934525" lon="9.639568045577503"><ele>295.42857142857144</ele><time>2026-04-17T13:59:03Z</time></trkpt><trkpt lat="45.78959564301226" lon="9.63961896215424"><ele>295.7142857142857</ele><time>2026-04-17T13:59:04Z</time></trkpt><trkpt lat="45.78965172138833" lon="9.63966733789118"><ele>296.0</ele><time>2026-04-17T13:59:05Z</time></trkpt><trkpt lat="45.789756163432955" lon="9.639774465228452"><ele>296.0</ele><time>2026-04-17T13:59:07Z</time></trkpt><trkpt lat="45.78979908327677" lon="9.63984461122859"><ele>296.0</ele><time>2026-04-17T13:59:08Z</time></trkpt><trkpt lat="45.78985555229608" lon="9.640008865048923"><ele>296.0</ele><time>2026-04-17T13:59:10Z</time></trkpt><trkpt lat="45.789880283770955" lon="9.640093913937148"><ele>296.0</ele><time>2026-04-17T13:59:11Z</time></trkpt><trkpt lat="45.789910626180635" lon="9.640177293302575"><ele>296.0</ele><time>2026-04-17T13:59:12Z</time></trkpt><trkpt lat="45.78993941681769" lon="9.640261289464886"><ele>296.0</ele><time>2026-04-17T13:59:13Z</time></trkpt><trkpt lat="45.78997043797514" lon="9.640344592686388"><ele>295.14285714285717</ele><time>2026-04-17T13:59:14Z</time></trkpt><trkpt lat="45.78999966716425" lon="9.640425858655279"><ele>294.2857142857143</ele><time>2026-04-17T13:59:15Z</time></trkpt><trkpt lat="45.790028446256514" lon="9.640507554998493"><ele>293.42857142857144</ele><time>2026-04-17T13:59:16Z</time></trkpt><trkpt lat="45.790055162384604" lon="9.640591489877156"><ele>292.57142857142856</ele><time>2026-04-17T13:59:17Z</time></trkpt><trkpt lat="45.790083113398495" lon="9.64067601482755"><ele>291.7142857142857</ele><time>2026-04-17T13:59:18Z</time></trkpt><trkpt lat="45.790116626415994" lon="9.640757400954392"><ele>290.8571428571429</ele><time>2026-04-17T13:59:19Z</time></trkpt><trkpt lat="45.79014918348274" lon="9.640841457601057"><ele>290.0</ele><time>2026-04-17T13:59:20Z</time></trkpt><trkpt lat="45.79017967049667" lon="9.640924507336042"><ele>290.83333333333337</ele><time>2026-04-17T13:59:21Z</time></trkpt><trkpt lat="45.790207238099555" lon="9.641008682912313"><ele>291.6666666666667</ele><time>2026-04-17T13:59:22Z</time></trkpt><trkpt lat="45.790263108040776" lon="9.641169825738613"><ele>292.5</ele><time>2026-04-17T13:59:24Z</time></trkpt><trkpt lat="45.790295307322445" lon="9.641250736039687"><ele>293.3333333333333</ele><time>2026-04-17T13:59:25Z</time></trkpt><trkpt lat="45.79032729231086" lon="9.641331413699815"><ele>294.16666666666663</ele><time>2026-04-17T13:59:26Z</time></trkpt><trkpt lat="45.79038548669531" lon="9.641491865094277"><ele>295.0</ele><time>2026-04-17T13:59:28Z</time></trkpt><trkpt lat="45.79041581639874" lon="9.641574684235986"><ele>295.0</ele><time>2026-04-17T13:59:29Z</time></trkpt><trkpt lat="45.79047499659793" lon="9.641735266591068"><ele>295.0</ele><time>2026-04-17T13:59:31Z</time></trkpt><trkpt lat="45.790501638748374" lon="9.6418173847859"><ele>295.0</ele><time>2026-04-17T13:59:32Z</time></trkpt><trkpt lat="45.790535918456705" lon="9.641895443831284"><ele>295.0</ele><time>2026-04-17T13:59:33Z</time></trkpt><trkpt lat="45.79056618343592" lon="9.641977998125075"><ele>295.0</ele><time>2026-04-17T13:59:34Z</time></trkpt><trkpt lat="45.790613744726485" lon="9.642143875800508"><ele>295.0</ele><time>2026-04-17T13:59:36Z</time></trkpt><trkpt lat="45.79063538326988" lon="9.64223053966092"><ele>294.66666666666663</ele><time>2026-04-17T13:59:37Z</time></trkpt><trkpt lat="45.79067524995171" lon="9.642399655633978"><ele>294.3333333333333</ele><time>2026-04-17T13:59:39Z</time></trkpt><trkpt lat="45.790716431376836" lon="9.642572936612671"><ele>294.0</ele><time>2026-04-17T13:59:41Z</time></trkpt><trkpt lat="45.790737456925854" lon="9.642660391403243"><ele>293.6666666666667</ele><time>2026-04-17T13:59:42Z</time></trkpt><trkpt lat="45.79074841942531" lon="9.642751440346649"><ele>293.33333333333337</ele><time>2026-04-17T13:59:43Z</time></trkpt><trkpt lat="45.79076433758726" lon="9.64284107756733"><ele>293.0</ele><time>2026-04-17T13:59:44Z</time></trkpt><trkpt lat="45.79080279512028" lon="9.643014729235286"><ele>293.0</ele><time>2026-04-17T13:59:46Z</time></trkpt><trkpt lat="45.79083599264115" lon="9.643185499438584"><ele>293.0</ele><time>2026-04-17T13:59:48Z</time></trkpt><trkpt lat="45.790855105706385" lon="9.643272237523263"><ele>293.0</ele><time>2026-04-17T13:59:49Z</time></trkpt><trkpt lat="45.79086507344646" lon="9.643362477964512"><ele>293.0</ele><time>2026-04-17T13:59:50Z</time></trkpt><trkpt lat="45.79089002891176" lon="9.643536142258181"><ele>293.0</ele><time>2026-04-17T13:59:52Z</time></trkpt><trkpt lat="45.79092617221047" lon="9.64370840316003"><ele>293.1666666666667</ele><time>2026-04-17T13:59:54Z</time></trkpt><trkpt lat="45.79095338264873" lon="9.643876768737833"><ele>293.33333333333337</ele><time>2026-04-17T13:59:56Z</time></trkpt><trkpt lat="45.79098968388014" lon="9.644045969935453"><ele>293.5</ele><time>2026-04-17T13:59:58Z</time></trkpt><trkpt lat="45.79101280893683" lon="9.644133333953402"><ele>293.6666666666667</ele><time>2026-04-17T13:59:59Z</time></trkpt><trkpt lat="45.791031801447424" lon="9.644221284129515"><ele>293.8333333333333</ele><time>2026-04-17T14:00:00Z</time></trkpt><trkpt lat="45.79105256581784" lon="9.644306898095532"><ele>294.0</ele><time>2026-04-17T14:00:01Z</time></trkpt><trkpt lat="45.79110028373983" lon="9.644474756721204"><ele>295.3333333333333</ele><time>2026-04-17T14:00:03Z</time></trkpt><trkpt lat="45.79112479754612" lon="9.644563891877953"><ele>296.6666666666667</ele><time>2026-04-17T14:00:04Z</time></trkpt><trkpt lat="45.79114005508173" lon="9.644657646919425"><ele>298.0</ele><time>2026-04-17T14:00:05Z</time></trkpt><trkpt lat="45.79117780159575" lon="9.644830007131121"><ele>299.33333333333337</ele><time>2026-04-17T14:00:07Z</time></trkpt><trkpt lat="45.79120283491315" lon="9.644920031558721"><ele>300.6666666666667</ele><time>2026-04-17T14:00:08Z</time></trkpt><trkpt lat="45.79124020225011" lon="9.645082810226766"><ele>302.0</ele><time>2026-04-17T14:00:10Z</time></trkpt><trkpt lat="45.79126267074469" lon="9.64517428928778"><ele>301.2</ele><time>2026-04-17T14:00:11Z</time></trkpt><trkpt lat="45.791303359204015" lon="9.645344525633314"><ele>300.4</ele><time>2026-04-17T14:00:13Z</time></trkpt><trkpt lat="45.79134101352858" lon="9.645512395146978"><ele>299.6</ele><time>2026-04-17T14:00:15Z</time></trkpt><trkpt lat="45.79137960913365" lon="9.64567317545881"><ele>298.8</ele><time>2026-04-17T14:00:17Z</time></trkpt><trkpt lat="45.791401502533375" lon="9.645763044806586"><ele>298.0</ele><time>2026-04-17T14:00:18Z</time></trkpt><trkpt lat="45.79144580163755" lon="9.645935772177873"><ele>298.0</ele><time>2026-04-17T14:00:20Z</time></trkpt><trkpt lat="45.791480902200874" lon="9.64610048124746"><ele>298.0</ele><time>2026-04-17T14:00:22Z</time></trkpt><trkpt lat="45.79151976076716" lon="9.646272391618446"><ele>298.0</ele><time>2026-04-17T14:00:24Z</time></trkpt><trkpt lat="45.791537478610856" lon="9.646361208392502"><ele>298.0</ele><time>2026-04-17T14:00:25Z</time></trkpt><trkpt lat="45.791558439308204" lon="9.646453908578737"><ele>298.0</ele><time>2026-04-17T14:00:26Z</time></trkpt><trkpt lat="45.791592632180524" lon="9.646633777292227"><ele>298.0</ele><time>2026-04-17T14:00:28Z</time></trkpt><trkpt lat="45.791625216549185" lon="9.646817308655647"><ele>298.0</ele><time>2026-04-17T14:00:30Z</time></trkpt><trkpt lat="45.7916451507079" lon="9.646908012767765"><ele>298.0</ele><time>2026-04-17T14:00:31Z</time></trkpt><trkpt lat="45.79166098862633" lon="9.647003242353936"><ele>298.0</ele><time>2026-04-17T14:00:32Z</time></trkpt><trkpt lat="45.79167809143806" lon="9.647097286123504"><ele>298.0</ele><time>2026-04-17T14:00:33Z</time></trkpt><trkpt lat="45.79169811427032" lon="9.647188273205211"><ele>298.0</ele><time>2026-04-17T14:00:34Z</time></trkpt><trkpt lat="45.79171596694571" lon="9.647283246280047"><ele>297.75</ele><time>2026-04-17T14:00:35Z</time></trkpt><trkpt lat="45.79175002537796" lon="9.647463503200768"><ele>297.5</ele><time>2026-04-17T14:00:37Z</time></trkpt><trkpt lat="45.79178210895434" lon="9.647637724677844"><ele>297.25</ele><time>2026-04-17T14:00:39Z</time></trkpt><trkpt lat="45.791818026078545" lon="9.647810594632881"><ele>297.0</ele><time>2026-04-17T14:00:41Z</time></trkpt><trkpt lat="45.79184479463595" lon="9.64798565639905"><ele>298.6666666666667</ele><time>2026-04-17T14:00:43Z</time></trkpt><trkpt lat="45.791862139548385" lon="9.648073005268273"><ele>300.3333333333333</ele><time>2026-04-17T14:00:44Z</time></trkpt><trkpt lat="45.79187878601529" lon="9.648161300471834"><ele>302.0</ele><time>2026-04-17T14:00:45Z</time></trkpt><trkpt lat="45.79189614480882" lon="9.648249389757378"><ele>303.66666666666663</ele><time>2026-04-17T14:00:46Z</time></trkpt><trkpt lat="45.791928106131174" lon="9.64842069154569"><ele>305.3333333333333</ele><time>2026-04-17T14:00:48Z</time></trkpt><trkpt lat="45.79194920429129" lon="9.648604440480122"><ele>307.0</ele><time>2026-04-17T14:00:50Z</time></trkpt><trkpt lat="45.791966649433256" lon="9.648772758717653"><ele>307.0</ele><time>2026-04-17T14:00:52Z</time></trkpt><trkpt lat="45.79198477855306" lon="9.648951091768398"><ele>307.0</ele><time>2026-04-17T14:00:54Z</time></trkpt><trkpt lat="45.79200652284279" lon="9.649121285879591"><ele>307.0</ele><time>2026-04-17T14:00:56Z</time></trkpt><trkpt lat="45.792027218679934" lon="9.649290244969079"><ele>307.0</ele><time>2026-04-17T14:00:58Z</time></trkpt><trkpt lat="45.792052317088284" lon="9.649461815703509"><ele>306.2</ele><time>2026-04-17T14:01:00Z</time></trkpt><trkpt lat="45.792075118176136" lon="9.649637543309185"><ele>305.4</ele><time>2026-04-17T14:01:02Z</time></trkpt><trkpt lat="45.79210442864862" lon="9.649808970438189"><ele>304.6</ele><time>2026-04-17T14:01:04Z</time></trkpt><trkpt lat="45.79212832646391" lon="9.649981417012633"><ele>303.8</ele><time>2026-04-17T14:01:06Z</time></trkpt><trkpt lat="45.792142647620935" lon="9.650069655149984"><ele>303.0</ele><time>2026-04-17T14:01:07Z</time></trkpt><trkpt lat="45.79217915943367" lon="9.650243858884927"><ele>302.2</ele><time>2026-04-17T14:01:09Z</time></trkpt><trkpt lat="45.792201484476415" lon="9.650412565199147"><ele>301.4</ele><time>2026-04-17T14:01:11Z</time></trkpt><trkpt lat="45.792231129397145" lon="9.650579746491637"><ele>300.59999999999997</ele><time>2026-04-17T14:01:13Z</time></trkpt><trkpt lat="45.79224968526083" lon="9.650671550014295"><ele>299.8</ele><time>2026-04-17T14:01:14Z</time></trkpt><trkpt lat="45.79227869880715" lon="9.650837225499126"><ele>299.0</ele><time>2026-04-17T14:01:16Z</time></trkpt><trkpt lat="45.792301112636146" lon="9.650923792281446"><ele>299.0</ele><time>2026-04-17T14:01:17Z</time></trkpt><trkpt lat="45.79232791009365" lon="9.651094461546595"><ele>299.0</ele><time>2026-04-17T14:01:19Z</time></trkpt><trkpt lat="45.792349485752986" lon="9.651181671115696"><ele>299.0</ele><time>2026-04-17T14:01:20Z</time></trkpt><trkpt lat="45.79238065126348" lon="9.651350458049468"><ele>299.0</ele><time>2026-04-17T14:01:22Z</time></trkpt><trkpt lat="45.79241186083405" lon="9.651524724802593"><ele>299.0</ele><time>2026-04-17T14:01:24Z</time></trkpt><trkpt lat="45.792434815087965" lon="9.651614649348504"><ele>299.0</ele><time>2026-04-17T14:01:25Z</time></trkpt><trkpt lat="45.792466967876926" lon="9.65178340353518"><ele>299.0</ele><time>2026-04-17T14:01:27Z</time></trkpt><trkpt lat="45.792504376790134" lon="9.651955952929567"><ele>299.0</ele><time>2026-04-17T14:01:29Z</time></trkpt><trkpt lat="45.79253727559848" lon="9.652123501527546"><ele>299.0</ele><time>2026-04-17T14:01:31Z</time></trkpt><trkpt lat="45.7925565214024" lon="9.652210255083848"><ele>299.0</ele><time>2026-04-17T14:01:32Z</time></trkpt><trkpt lat="45.7925864238642" lon="9.652377727829277"><ele>299.0</ele><time>2026-04-17T14:01:34Z</time></trkpt><trkpt lat="45.79262614114658" lon="9.652544119567382"><ele>299.0</ele><time>2026-04-17T14:01:36Z</time></trkpt><trkpt lat="45.79265781034649" lon="9.652708442660929"><ele>299.0</ele><time>2026-04-17T14:01:38Z</time></trkpt><trkpt lat="45.79268973809509" lon="9.652875753528255"><ele>299.0</ele><time>2026-04-17T14:01:40Z</time></trkpt><trkpt lat="45.79271549539759" lon="9.653038678723462"><ele>300.2</ele><time>2026-04-17T14:01:42Z</time></trkpt><trkpt lat="45.79274194573397" lon="9.653122797163325"><ele>301.4</ele><time>2026-04-17T14:01:43Z</time></trkpt><trkpt lat="45.792774239767986" lon="9.653300234917767"><ele>302.6</ele><time>2026-04-17T14:01:45Z</time></trkpt><trkpt lat="45.79281138226572" lon="9.653464480754726"><ele>303.8</ele><time>2026-04-17T14:01:47Z</time></trkpt><trkpt lat="45.79283080819183" lon="9.653550846760227"><ele>305.0</ele><time>2026-04-17T14:01:48Z</time></trkpt><trkpt lat="45.79286473395109" lon="9.653714619840974"><ele>305.25</ele><time>2026-04-17T14:01:50Z</time></trkpt><trkpt lat="45.792893572257164" lon="9.653873350724016"><ele>305.5</ele><time>2026-04-17T14:01:52Z</time></trkpt><trkpt lat="45.792926942705684" lon="9.654036267534764"><ele>305.75</ele><time>2026-04-17T14:01:54Z</time></trkpt><trkpt lat="45.792962932932255" lon="9.654211137871684"><ele>306.0</ele><time>2026-04-17T14:01:56Z</time></trkpt><trkpt lat="45.79299515383663" lon="9.654385897153718"><ele>305.8</ele><time>2026-04-17T14:01:58Z</time></trkpt><trkpt lat="45.79301832895709" lon="9.654562028810867"><ele>305.6</ele><time>2026-04-17T14:02:00Z</time></trkpt><trkpt lat="45.793033313003875" lon="9.65465020076312"><ele>305.4</ele><time>2026-04-17T14:02:01Z</time></trkpt><trkpt lat="45.793055530467456" lon="9.65482869519492"><ele>305.2</ele><time>2026-04-17T14:02:03Z</time></trkpt><trkpt lat="45.79307212741469" lon="9.654920889605537"><ele>305.0</ele><time>2026-04-17T14:02:04Z</time></trkpt><trkpt lat="45.793087274730105" lon="9.65509939334969"><ele>305.0</ele><time>2026-04-17T14:02:06Z</time></trkpt><trkpt lat="45.793090237190725" lon="9.655189691367006"><ele>305.0</ele><time>2026-04-17T14:02:07Z</time></trkpt><trkpt lat="45.79309866806541" lon="9.655282257382689"><ele>305.0</ele><time>2026-04-17T14:02:08Z</time></trkpt><trkpt lat="45.793110915948155" lon="9.655371154524293"><ele>305.0</ele><time>2026-04-17T14:02:09Z</time></trkpt><trkpt lat="45.793117352830244" lon="9.655462385881405"><ele>305.0</ele><time>2026-04-17T14:02:10Z</time></trkpt><trkpt lat="45.793124432198866" lon="9.655553378166665"><ele>305.0</ele><time>2026-04-17T14:02:11Z</time></trkpt><trkpt lat="45.793143767256325" lon="9.655729626431599"><ele>305.0</ele><time>2026-04-17T14:02:13Z</time></trkpt><trkpt lat="45.79314876105032" lon="9.655819676899753"><ele>304.75</ele><time>2026-04-17T14:02:14Z</time></trkpt><trkpt lat="45.7931608858586" lon="9.655995201147936"><ele>304.5</ele><time>2026-04-17T14:02:16Z</time></trkpt><trkpt lat="45.79317662653091" lon="9.65617156003063"><ele>304.25</ele><time>2026-04-17T14:02:18Z</time></trkpt><trkpt lat="45.79319092281382" lon="9.656344042695734"><ele>304.0</ele><time>2026-04-17T14:02:20Z</time></trkpt><trkpt lat="45.79321192828434" lon="9.656516017429594"><ele>304.2</ele><time>2026-04-17T14:02:22Z</time></trkpt><trkpt lat="45.79322266331245" lon="9.656694398451735"><ele>304.4</ele><time>2026-04-17T14:02:24Z</time></trkpt><trkpt lat="45.79321738501745" lon="9.656785046901788"><ele>304.6</ele><time>2026-04-17T14:02:25Z</time></trkpt><trkpt lat="45.793217868403005" lon="9.656965877454672"><ele>304.8</ele><time>2026-04-17T14:02:27Z</time></trkpt><trkpt lat="45.793229154873345" lon="9.657147281180702"><ele>305.0</ele><time>2026-04-17T14:02:29Z</time></trkpt><trkpt lat="45.79324358202801" lon="9.657323441413327"><ele>305.0</ele><time>2026-04-17T14:02:31Z</time></trkpt><trkpt lat="45.79325258757536" lon="9.657501168983739"><ele>305.0</ele><time>2026-04-17T14:02:33Z</time></trkpt><trkpt lat="45.793259675134095" lon="9.657676213951348"><ele>305.0</ele><time>2026-04-17T14:02:35Z</time></trkpt><trkpt lat="45.79326156161366" lon="9.657766767553262"><ele>305.0</ele><time>2026-04-17T14:02:36Z</time></trkpt><trkpt lat="45.79327443188796" lon="9.657943074189886"><ele>305.0</ele><time>2026-04-17T14:02:38Z</time></trkpt><trkpt lat="45.79327844962397" lon="9.658118236458161"><ele>305.0</ele><time>2026-04-17T14:02:40Z</time></trkpt><trkpt lat="45.793282828484664" lon="9.658297092640613"><ele>305.0</ele><time>2026-04-17T14:02:42Z</time></trkpt><trkpt lat="45.7932842300908" lon="9.658387778889027"><ele>305.0</ele><time>2026-04-17T14:02:43Z</time></trkpt><trkpt lat="45.793284607281265" lon="9.65847979922664"><ele>305.0</ele><time>2026-04-17T14:02:44Z</time></trkpt><trkpt lat="45.79328137762581" lon="9.658656987993165"><ele>305.0</ele><time>2026-04-17T14:02:46Z</time></trkpt><trkpt lat="45.793281461167815" lon="9.658750695896437"><ele>305.0</ele><time>2026-04-17T14:02:47Z</time></trkpt><trkpt lat="45.7932833887408" lon="9.65892486530115"><ele>305.0</ele><time>2026-04-17T14:02:49Z</time></trkpt><trkpt lat="45.79328474319023" lon="9.659083431452059"><ele>305.0</ele><time>2026-04-17T14:02:51Z</time></trkpt><trkpt lat="45.79327462334151" lon="9.659237683657308"><ele>305.0</ele><time>2026-04-17T14:02:53Z</time></trkpt><trkpt lat="45.793234596553965" lon="9.65937648499745"><ele>305.0</ele><time>2026-04-17T14:02:55Z</time></trkpt><trkpt lat="45.79316665497207" lon="9.659440316193672"><ele>305.0</ele><time>2026-04-17T14:02:57Z</time></trkpt><trkpt lat="45.793098059219" lon="9.659520171553734"><ele>304.7142857142857</ele><time>2026-04-17T14:02:59Z</time></trkpt><trkpt lat="45.792994941218694" lon="9.659611770510578"><ele>304.4285714285714</ele><time>2026-04-17T14:03:01Z</time></trkpt><trkpt lat="45.79293316072684" lon="9.659652680709996"><ele>304.1428571428571</ele><time>2026-04-17T14:03:02Z</time></trkpt><trkpt lat="45.792872570729344" lon="9.659686844526734"><ele>303.8571428571429</ele><time>2026-04-17T14:03:03Z</time></trkpt><trkpt lat="45.7928149107565" lon="9.659724885179763"><ele>303.57142857142856</ele><time>2026-04-17T14:03:04Z</time></trkpt><trkpt lat="45.7927583379424" lon="9.6597663603348"><ele>303.2857142857143</ele><time>2026-04-17T14:03:05Z</time></trkpt><trkpt lat="45.79270380496797" lon="9.659815828312391"><ele>303.0</ele><time>2026-04-17T14:03:06Z</time></trkpt><trkpt lat="45.79260141654857" lon="9.65991265435619"><ele>303.0</ele><time>2026-04-17T14:03:08Z</time></trkpt><trkpt lat="45.79250441047688" lon="9.660038015619154"><ele>303.0</ele><time>2026-04-17T14:03:10Z</time></trkpt><trkpt lat="45.792466828772696" lon="9.660111998489784"><ele>303.0</ele><time>2026-04-17T14:03:11Z</time></trkpt><trkpt lat="45.79243197675618" lon="9.6601896009755"><ele>303.0</ele><time>2026-04-17T14:03:12Z</time></trkpt><trkpt lat="45.79240016640524" lon="9.660273699204714"><ele>303.0</ele><time>2026-04-17T14:03:13Z</time></trkpt><trkpt lat="45.7923561505083" lon="9.660441484777026"><ele>303.14285714285717</ele><time>2026-04-17T14:03:15Z</time></trkpt><trkpt lat="45.792338846725855" lon="9.660531453684316"><ele>303.2857142857143</ele><time>2026-04-17T14:03:16Z</time></trkpt><trkpt lat="45.79233347300204" lon="9.660624014432656"><ele>303.42857142857144</ele><time>2026-04-17T14:03:17Z</time></trkpt><trkpt lat="45.792322993220026" lon="9.660716086753155"><ele>303.57142857142856</ele><time>2026-04-17T14:03:18Z</time></trkpt><trkpt lat="45.792303120748755" lon="9.66089047769144"><ele>303.7142857142857</ele><time>2026-04-17T14:03:20Z</time></trkpt><trkpt lat="45.792294219048244" lon="9.660984434424382"><ele>303.85714285714283</ele><time>2026-04-17T14:03:21Z</time></trkpt><trkpt lat="45.79228488933374" lon="9.661075222534851"><ele>304.0</ele><time>2026-04-17T14:03:22Z</time></trkpt><trkpt lat="45.79227368449706" lon="9.661164937900812"><ele>304.66666666666663</ele><time>2026-04-17T14:03:23Z</time></trkpt><trkpt lat="45.79226096314722" lon="9.66125826920287"><ele>305.3333333333333</ele><time>2026-04-17T14:03:24Z</time></trkpt><trkpt lat="45.7922522723053" lon="9.661352628661596"><ele>306.0</ele><time>2026-04-17T14:03:25Z</time></trkpt><trkpt lat="45.79223127597554" lon="9.661529403611475"><ele>306.6666666666667</ele><time>2026-04-17T14:03:27Z</time></trkpt><trkpt lat="45.79221663962862" lon="9.661619041913909"><ele>307.33333333333337</ele><time>2026-04-17T14:03:28Z</time></trkpt><trkpt lat="45.7922106777311" lon="9.661709429504054"><ele>308.0</ele><time>2026-04-17T14:03:29Z</time></trkpt><trkpt lat="45.79220997783042" lon="9.661810553577473"><ele>308.33333333333337</ele><time>2026-04-17T14:03:30Z</time></trkpt><trkpt lat="45.79219889029275" lon="9.661989009114912"><ele>308.6666666666667</ele><time>2026-04-17T14:03:32Z</time></trkpt><trkpt lat="45.79219300198849" lon="9.662079254258579"><ele>309.0</ele><time>2026-04-17T14:03:33Z</time></trkpt><trkpt lat="45.79218962032486" lon="9.662169472219103"><ele>309.3333333333333</ele><time>2026-04-17T14:03:34Z</time></trkpt><trkpt lat="45.79218154420911" lon="9.662349542554596"><ele>309.66666666666663</ele><time>2026-04-17T14:03:36Z</time></trkpt><trkpt lat="45.79217963187502" lon="9.662445425114003"><ele>310.0</ele><time>2026-04-17T14:03:37Z</time></trkpt><trkpt lat="45.79217597809061" lon="9.662542291097388"><ele>310.0</ele><time>2026-04-17T14:03:38Z</time></trkpt><trkpt lat="45.792165287445016" lon="9.66271751830051"><ele>310.0</ele><time>2026-04-17T14:03:40Z</time></trkpt><trkpt lat="45.79215749437792" lon="9.66280944788913"><ele>310.0</ele><time>2026-04-17T14:03:41Z</time></trkpt><trkpt lat="45.79215128976091" lon="9.662986648668337"><ele>310.0</ele><time>2026-04-17T14:03:43Z</time></trkpt><trkpt lat="45.79214803954024" lon="9.66307724030142"><ele>310.0</ele><time>2026-04-17T14:03:44Z</time></trkpt><trkpt lat="45.79214165061658" lon="9.663257556203636"><ele>310.0</ele><time>2026-04-17T14:03:46Z</time></trkpt><trkpt lat="45.79213931416564" lon="9.663431493512261"><ele>310.0</ele><time>2026-04-17T14:03:48Z</time></trkpt><trkpt lat="45.79213642464441" lon="9.663523471720424"><ele>310.0</ele><time>2026-04-17T14:03:49Z</time></trkpt><trkpt lat="45.792137333086174" lon="9.663613832721829"><ele>310.0</ele><time>2026-04-17T14:03:50Z</time></trkpt><trkpt lat="45.79213800920407" lon="9.66379466172996"><ele>310.0</ele><time>2026-04-17T14:03:52Z</time></trkpt><trkpt lat="45.79215206670941" lon="9.663971037185256"><ele>310.0</ele><time>2026-04-17T14:03:54Z</time></trkpt><trkpt lat="45.79218085010027" lon="9.664143245223284"><ele>310.0</ele><time>2026-04-17T14:03:56Z</time></trkpt><trkpt lat="45.792201873963066" lon="9.664229816166873"><ele>310.0</ele><time>2026-04-17T14:03:57Z</time></trkpt><trkpt lat="45.792242895656024" lon="9.66437614220299"><ele>310.0</ele><time>2026-04-17T14:03:59Z</time></trkpt><trkpt lat="45.79228670565518" lon="9.664519919319536"><ele>310.0</ele><time>2026-04-17T14:04:01Z</time></trkpt><trkpt lat="45.792340952984475" lon="9.66466790663145"><ele>310.0</ele><time>2026-04-17T14:04:03Z</time></trkpt><trkpt lat="45.79238252612361" lon="9.664798406050258"><ele>310.0</ele><time>2026-04-17T14:04:05Z</time></trkpt><trkpt lat="45.792423240479046" lon="9.664919298154095"><ele>310.0</ele><time>2026-04-17T14:04:07Z</time></trkpt><trkpt lat="45.792463711693074" lon="9.665058494050228"><ele>310.0</ele><time>2026-04-17T14:04:09Z</time></trkpt><trkpt lat="45.792509967382905" lon="9.665218482399565"><ele>310.0</ele><time>2026-04-17T14:04:11Z</time></trkpt><trkpt lat="45.79256492783027" lon="9.665382827910845"><ele>310.25</ele><time>2026-04-17T14:04:13Z</time></trkpt><trkpt lat="45.792622043366826" lon="9.665541341510734"><ele>310.5</ele><time>2026-04-17T14:04:15Z</time></trkpt><trkpt lat="45.792674018313086" lon="9.665696784598817"><ele>310.75</ele><time>2026-04-17T14:04:17Z</time></trkpt><trkpt lat="45.79272426111112" lon="9.66585795261439"><ele>311.0</ele><time>2026-04-17T14:04:19Z</time></trkpt><trkpt lat="45.7927785545312" lon="9.666017047537968"><ele>312.5</ele><time>2026-04-17T14:04:21Z</time></trkpt><trkpt lat="45.79282994959818" lon="9.66617261488351"><ele>314.0</ele><time>2026-04-17T14:04:23Z</time></trkpt><trkpt lat="45.79288007725" lon="9.666326121373988"><ele>315.5</ele><time>2026-04-17T14:04:25Z</time></trkpt><trkpt lat="45.792930219859805" lon="9.666481307766206"><ele>317.0</ele><time>2026-04-17T14:04:27Z</time></trkpt><trkpt lat="45.792985185718" lon="9.66663526624334"><ele>317.0</ele><time>2026-04-17T14:04:29Z</time></trkpt><trkpt lat="45.79303574141073" lon="9.666789375242036"><ele>317.0</ele><time>2026-04-17T14:04:31Z</time></trkpt><trkpt lat="45.7930868453146" lon="9.666938613871974"><ele>317.0</ele><time>2026-04-17T14:04:33Z</time></trkpt><trkpt lat="45.793135420484866" lon="9.667094965795659"><ele>317.0</ele><time>2026-04-17T14:04:35Z</time></trkpt><trkpt lat="45.79318726116816" lon="9.667255413542001"><ele>317.25</ele><time>2026-04-17T14:04:37Z</time></trkpt><trkpt lat="45.79323991460637" lon="9.667412551706077"><ele>317.5</ele><time>2026-04-17T14:04:39Z</time></trkpt><trkpt lat="45.79329330185039" lon="9.667569261433988"><ele>317.75</ele><time>2026-04-17T14:04:41Z</time></trkpt><trkpt lat="45.79335192581412" lon="9.667721738603609"><ele>318.0</ele><time>2026-04-17T14:04:43Z</time></trkpt><trkpt lat="45.79340871418871" lon="9.667871442270945"><ele>318.0</ele><time>2026-04-17T14:04:45Z</time></trkpt><trkpt lat="45.793470810032275" lon="9.66802499066416"><ele>318.0</ele><time>2026-04-17T14:04:47Z</time></trkpt><trkpt lat="45.793533548404746" lon="9.668182170883673"><ele>318.0</ele><time>2026-04-17T14:04:49Z</time></trkpt><trkpt lat="45.79357111342821" lon="9.6682560578649"><ele>318.0</ele><time>2026-04-17T14:04:50Z</time></trkpt><trkpt lat="45.79360975966458" lon="9.668328449501182"><ele>318.0</ele><time>2026-04-17T14:04:51Z</time></trkpt><trkpt lat="45.79369574591286" lon="9.668456293489744"><ele>318.2</ele><time>2026-04-17T14:04:53Z</time></trkpt><trkpt lat="45.79374283530985" lon="9.668517357083186"><ele>318.4</ele><time>2026-04-17T14:04:54Z</time></trkpt><trkpt lat="45.79379070257704" lon="9.66857728321003"><ele>318.59999999999997</ele><time>2026-04-17T14:04:55Z</time></trkpt><trkpt lat="45.79387807234741" lon="9.668702407425814"><ele>318.8</ele><time>2026-04-17T14:04:57Z</time></trkpt><trkpt lat="45.79397086622884" lon="9.668813398146794"><ele>319.0</ele><time>2026-04-17T14:04:59Z</time></trkpt><trkpt lat="45.794075038539646" lon="9.668920140568048"><ele>319.0</ele><time>2026-04-17T14:05:01Z</time></trkpt><trkpt lat="45.794174077818305" lon="9.669026707267477"><ele>319.0</ele><time>2026-04-17T14:05:03Z</time></trkpt><trkpt lat="45.7942663340307" lon="9.66913114418127"><ele>319.0</ele><time>2026-04-17T14:05:05Z</time></trkpt><trkpt lat="45.794365557944616" lon="9.669226229925885"><ele>319.0</ele><time>2026-04-17T14:05:07Z</time></trkpt><trkpt lat="45.79446243299757" lon="9.669323064422988"><ele>320.0</ele><time>2026-04-17T14:05:09Z</time></trkpt><trkpt lat="45.79456338928383" lon="9.669411040786676"><ele>321.0</ele><time>2026-04-17T14:05:11Z</time></trkpt><trkpt lat="45.79466773248299" lon="9.669489809261337"><ele>322.0</ele><time>2026-04-17T14:05:13Z</time></trkpt><trkpt lat="45.79477915925978" lon="9.669547271468355"><ele>323.0</ele><time>2026-04-17T14:05:15Z</time></trkpt><trkpt lat="45.79489478670629" lon="9.669568438398505"><ele>321.0</ele><time>2026-04-17T14:05:17Z</time></trkpt><trkpt lat="45.79500201896534" lon="9.66963289554897"><ele>319.0</ele><time>2026-04-17T14:05:19Z</time></trkpt><trkpt lat="45.795101153645724" lon="9.669745410626463"><ele>317.0</ele><time>2026-04-17T14:05:21Z</time></trkpt><trkpt lat="45.79518471250787" lon="9.66985803928341"><ele>315.0</ele><time>2026-04-17T14:05:23Z</time></trkpt><trkpt lat="45.795244863096684" lon="9.670008393458865"><ele>315.0</ele><time>2026-04-17T14:05:25Z</time></trkpt><trkpt lat="45.79529896838286" lon="9.670167330591452"><ele>315.0</ele><time>2026-04-17T14:05:27Z</time></trkpt><trkpt lat="45.795361545835114" lon="9.670319009219064"><ele>315.0</ele><time>2026-04-17T14:05:29Z</time></trkpt><trkpt lat="45.79541717044554" lon="9.670476577864566"><ele>315.0</ele><time>2026-04-17T14:05:31Z</time></trkpt><trkpt lat="45.795475840487285" lon="9.670628203811953"><ele>314.75</ele><time>2026-04-17T14:05:33Z</time></trkpt><trkpt lat="45.795536799572886" lon="9.670778428631957"><ele>314.5</ele><time>2026-04-17T14:05:35Z</time></trkpt><trkpt lat="45.79559227005946" lon="9.670931997973625"><ele>314.25</ele><time>2026-04-17T14:05:37Z</time></trkpt><trkpt lat="45.795650254863446" lon="9.671074880836926"><ele>314.0</ele><time>2026-04-17T14:05:39Z</time></trkpt><trkpt lat="45.795703947379366" lon="9.67122224538475"><ele>317.4</ele><time>2026-04-17T14:05:41Z</time></trkpt><trkpt lat="45.79575534170264" lon="9.671366562684854"><ele>320.79999999999995</ele><time>2026-04-17T14:05:43Z</time></trkpt><trkpt lat="45.795790513388155" lon="9.671485458684252"><ele>324.20000000000005</ele><time>2026-04-17T14:05:45Z</time></trkpt><trkpt lat="45.79581423970976" lon="9.671601380669399"><ele>327.6</ele><time>2026-04-17T14:05:48Z</time></trkpt><trkpt lat="45.795889519613226" lon="9.671644685432836"><ele>331.0</ele><time>2026-04-17T14:05:50Z</time></trkpt><trkpt lat="45.79598455535876" lon="9.671583866502521"><ele>333.6</ele><time>2026-04-17T14:05:52Z</time></trkpt><trkpt lat="45.79607460947092" lon="9.671537698958936"><ele>336.20000000000005</ele><time>2026-04-17T14:05:54Z</time></trkpt><trkpt lat="45.79616316853061" lon="9.67148965996354"><ele>338.79999999999995</ele><time>2026-04-17T14:05:56Z</time></trkpt><trkpt lat="45.79626598507696" lon="9.671443045408918"><ele>341.4</ele><time>2026-04-17T14:05:58Z</time></trkpt><trkpt lat="45.796372794467196" lon="9.671418413555"><ele>344.0</ele><time>2026-04-17T14:06:00Z</time></trkpt><trkpt lat="45.79647853345244" lon="9.671388187399181"><ele>344.0</ele><time>2026-04-17T14:06:02Z</time></trkpt><trkpt lat="45.7965890663923" lon="9.671356807219343"><ele>344.0</ele><time>2026-04-17T14:06:04Z</time></trkpt><trkpt lat="45.79669606604055" lon="9.671354013014087"><ele>344.0</ele><time>2026-04-17T14:06:06Z</time></trkpt><trkpt lat="45.796809739508625" lon="9.671376575740391"><ele>344.0</ele><time>2026-04-17T14:06:08Z</time></trkpt><trkpt lat="45.79692394826287" lon="9.671404291643515"><ele>346.25</ele><time>2026-04-17T14:06:10Z</time></trkpt><trkpt lat="45.797043595896284" lon="9.671440047949607"><ele>348.5</ele><time>2026-04-17T14:06:12Z</time></trkpt><trkpt lat="45.79716311024607" lon="9.671473908351798"><ele>350.75</ele><time>2026-04-17T14:06:14Z</time></trkpt><trkpt lat="45.79727710454009" lon="9.671515051139126"><ele>353.0</ele><time>2026-04-17T14:06:16Z</time></trkpt><trkpt lat="45.79739429824816" lon="9.671545767921401"><ele>353.0</ele><time>2026-04-17T14:06:18Z</time></trkpt><trkpt lat="45.79751201422959" lon="9.671572792661685"><ele>353.0</ele><time>2026-04-17T14:06:20Z</time></trkpt><trkpt lat="45.7976320830644" lon="9.67157176531592"><ele>353.0</ele><time>2026-04-17T14:06:22Z</time></trkpt><trkpt lat="45.79774463476952" lon="9.671540827013997"><ele>353.0</ele><time>2026-04-17T14:06:24Z</time></trkpt><trkpt lat="45.79786275215181" lon="9.67149421704635"><ele>353.25</ele><time>2026-04-17T14:06:26Z</time></trkpt><trkpt lat="45.797976078264526" lon="9.671442890997099"><ele>353.5</ele><time>2026-04-17T14:06:28Z</time></trkpt><trkpt lat="45.798082191932636" lon="9.671387324329753"><ele>353.75</ele><time>2026-04-17T14:06:30Z</time></trkpt><trkpt lat="45.79819799810476" lon="9.671386139849941"><ele>354.0</ele><time>2026-04-17T14:06:32Z</time></trkpt><trkpt lat="45.79831038108279" lon="9.671380716244013"><ele>354.0</ele><time>2026-04-17T14:06:34Z</time></trkpt><trkpt lat="45.79841532633701" lon="9.671360874641236"><ele>354.0</ele><time>2026-04-17T14:06:36Z</time></trkpt><trkpt lat="45.798515179684294" lon="9.67136803871392"><ele>354.0</ele><time>2026-04-17T14:06:38Z</time></trkpt><trkpt lat="45.79861615254377" lon="9.671339555787947"><ele>354.0</ele><time>2026-04-17T14:06:40Z</time></trkpt><trkpt lat="45.79871390539764" lon="9.671317426332026"><ele>354.0</ele><time>2026-04-17T14:06:42Z</time></trkpt><trkpt lat="45.79881471078057" lon="9.671289652236421"><ele>355.0</ele><time>2026-04-17T14:06:44Z</time></trkpt><trkpt lat="45.798906749897256" lon="9.671266930465357"><ele>356.0</ele><time>2026-04-17T14:06:46Z</time></trkpt><trkpt lat="45.79900410146545" lon="9.671252882629426"><ele>357.0</ele><time>2026-04-17T14:06:48Z</time></trkpt><trkpt lat="45.79910039944498" lon="9.67122069930312"><ele>358.0</ele><time>2026-04-17T14:06:50Z</time></trkpt><trkpt lat="45.79919730360111" lon="9.671210436928856"><ele>359.0</ele><time>2026-04-17T14:06:52Z</time></trkpt><trkpt lat="45.79928674421126" lon="9.671191082478172"><ele>358.79999999999995</ele><time>2026-04-17T14:06:54Z</time></trkpt><trkpt lat="45.799384661697424" lon="9.671176493226167"><ele>358.59999999999997</ele><time>2026-04-17T14:06:56Z</time></trkpt><trkpt lat="45.79947196941321" lon="9.671166610403048"><ele>358.4</ele><time>2026-04-17T14:06:58Z</time></trkpt><trkpt lat="45.79957399767017" lon="9.671183216746877"><ele>358.2</ele><time>2026-04-17T14:07:00Z</time></trkpt><trkpt lat="45.79969284625083" lon="9.671203312386869"><ele>358.0</ele><time>2026-04-17T14:07:02Z</time></trkpt><trkpt lat="45.79980803866051" lon="9.671270255002327"><ele>358.0</ele><time>2026-04-17T14:07:04Z</time></trkpt><trkpt lat="45.79987393136629" lon="9.671272986266299"><ele>358.0</ele><time>2026-04-17T14:07:05Z</time></trkpt><trkpt lat="45.79994385920194" lon="9.67128756849943"><ele>358.0</ele><time>2026-04-17T14:07:06Z</time></trkpt><trkpt lat="45.80006063071113" lon="9.671332290980104"><ele>358.0</ele><time>2026-04-17T14:07:08Z</time></trkpt><trkpt lat="45.800183237487644" lon="9.671375041935413"><ele>358.0</ele><time>2026-04-17T14:07:10Z</time></trkpt><trkpt lat="45.80024617703381" lon="9.671394374649513"><ele>358.0</ele><time>2026-04-17T14:07:11Z</time></trkpt><trkpt lat="45.80030797229834" lon="9.671416620794176"><ele>357.2</ele><time>2026-04-17T14:07:12Z</time></trkpt><trkpt lat="45.800424782309506" lon="9.671467657619125"><ele>356.4</ele><time>2026-04-17T14:07:14Z</time></trkpt><trkpt lat="45.800481810934976" lon="9.671506046749759"><ele>355.59999999999997</ele><time>2026-04-17T14:07:15Z</time></trkpt><trkpt lat="45.80059060954108" lon="9.671586215843647"><ele>354.79999999999995</ele><time>2026-04-17T14:07:17Z</time></trkpt><trkpt lat="45.80069935011956" lon="9.671651453909087"><ele>354.0</ele><time>2026-04-17T14:07:19Z</time></trkpt><trkpt lat="45.80080837810616" lon="9.671702793046672"><ele>354.0</ele><time>2026-04-17T14:07:21Z</time></trkpt><trkpt lat="45.80091091925514" lon="9.671761785265037"><ele>354.0</ele><time>2026-04-17T14:07:23Z</time></trkpt><trkpt lat="45.801021474096075" lon="9.671798224568011"><ele>354.0</ele><time>2026-04-17T14:07:25Z</time></trkpt><trkpt lat="45.801131836994294" lon="9.67183474632785"><ele>354.0</ele><time>2026-04-17T14:07:27Z</time></trkpt><trkpt lat="45.80124403729865" lon="9.67188120574864"><ele>354.75</ele><time>2026-04-17T14:07:29Z</time></trkpt><trkpt lat="45.801357441260464" lon="9.671922697909864"><ele>355.5</ele><time>2026-04-17T14:07:31Z</time></trkpt><trkpt lat="45.801462695709745" lon="9.671990448864586"><ele>356.25</ele><time>2026-04-17T14:07:33Z</time></trkpt><trkpt lat="45.80151233503294" lon="9.672137099465047"><ele>357.0</ele><time>2026-04-17T14:07:35Z</time></trkpt><trkpt lat="45.801533853322795" lon="9.672296133613592"><ele>357.0</ele><time>2026-04-17T14:07:37Z</time></trkpt><trkpt lat="45.80153753194713" lon="9.672389150539175"><ele>357.0</ele><time>2026-04-17T14:07:38Z</time></trkpt><trkpt lat="45.801557394804554" lon="9.672560858159352"><ele>357.0</ele><time>2026-04-17T14:07:40Z</time></trkpt><trkpt lat="45.80157665685316" lon="9.672733948748633"><ele>357.0</ele><time>2026-04-17T14:07:42Z</time></trkpt><trkpt lat="45.80160013223822" lon="9.672905644255152"><ele>357.0</ele><time>2026-04-17T14:07:44Z</time></trkpt><trkpt lat="45.80162832432681" lon="9.673075968736462"><ele>358.8</ele><time>2026-04-17T14:07:46Z</time></trkpt><trkpt lat="45.80164819388994" lon="9.67323794756915"><ele>360.6</ele><time>2026-04-17T14:07:48Z</time></trkpt><trkpt lat="45.80165608836141" lon="9.673331133767984"><ele>362.40000000000003</ele><time>2026-04-17T14:07:49Z</time></trkpt><trkpt lat="45.80168546351624" lon="9.673487620805783"><ele>364.20000000000005</ele><time>2026-04-17T14:07:51Z</time></trkpt><trkpt lat="45.801732498250864" lon="9.673643424177001"><ele>366.0</ele><time>2026-04-17T14:07:53Z</time></trkpt><trkpt lat="45.80178311496861" lon="9.673795947587994"><ele>365.0</ele><time>2026-04-17T14:07:55Z</time></trkpt><trkpt lat="45.80181929563161" lon="9.673875299779803"><ele>364.0</ele><time>2026-04-17T14:07:56Z</time></trkpt><trkpt lat="45.801890488887416" lon="9.674004550696749"><ele>363.0</ele><time>2026-04-17T14:07:58Z</time></trkpt><trkpt lat="45.8019596382029" lon="9.674134369880509"><ele>362.0</ele><time>2026-04-17T14:08:00Z</time></trkpt><trkpt lat="45.8020371185888" lon="9.67425333092209"><ele>361.0</ele><time>2026-04-17T14:08:02Z</time></trkpt><trkpt lat="45.80212587727476" lon="9.674371607029496"><ele>363.5</ele><time>2026-04-17T14:08:04Z</time></trkpt><trkpt lat="45.802226527088976" lon="9.674471629303527"><ele>366.0</ele><time>2026-04-17T14:08:06Z</time></trkpt><trkpt lat="45.80234367910321" lon="9.674538525230972"><ele>368.5</ele><time>2026-04-17T14:08:08Z</time></trkpt><trkpt lat="45.80240595817652" lon="9.674569124452873"><ele>371.0</ele><time>2026-04-17T14:08:09Z</time></trkpt><trkpt lat="45.80246792965705" lon="9.674595827821095"><ele>373.5</ele><time>2026-04-17T14:08:10Z</time></trkpt><trkpt lat="45.80253129491424" lon="9.674627311052221"><ele>376.0</ele><time>2026-04-17T14:08:11Z</time></trkpt><trkpt lat="45.80259480133768" lon="9.674657397332899"><ele>376.0</ele><time>2026-04-17T14:08:12Z</time></trkpt><trkpt lat="45.80266075939982" lon="9.67467469692863"><ele>376.0</ele><time>2026-04-17T14:08:13Z</time></trkpt><trkpt lat="45.8027297732859" lon="9.674684592717966"><ele>376.0</ele><time>2026-04-17T14:08:14Z</time></trkpt><trkpt lat="45.802800528218526" lon="9.674683005553666"><ele>376.0</ele><time>2026-04-17T14:08:15Z</time></trkpt><trkpt lat="45.80287478428428" lon="9.674665631206466"><ele>376.0</ele><time>2026-04-17T14:08:16Z</time></trkpt><trkpt lat="45.802952254056166" lon="9.674649634268297"><ele>376.0</ele><time>2026-04-17T14:08:17Z</time></trkpt><trkpt lat="45.803037410877074" lon="9.674634449170618"><ele>376.0</ele><time>2026-04-17T14:08:18Z</time></trkpt><trkpt lat="45.80312527586316" lon="9.674630730543505"><ele>374.0</ele><time>2026-04-17T14:08:19Z</time></trkpt><trkpt lat="45.80321973900386" lon="9.67465456162737"><ele>372.0</ele><time>2026-04-17T14:08:20Z</time></trkpt><trkpt lat="45.80331525811198" lon="9.674699622024342"><ele>370.0</ele><time>2026-04-17T14:08:21Z</time></trkpt><trkpt lat="45.803414904410474" lon="9.674770210979062"><ele>368.0</ele><time>2026-04-17T14:08:22Z</time></trkpt><trkpt lat="45.803515490330845" lon="9.674847079730723"><ele>366.0</ele><time>2026-04-17T14:08:23Z</time></trkpt><trkpt lat="45.803621999095455" lon="9.674928581391638"><ele>361.25</ele><time>2026-04-17T14:08:24Z</time></trkpt><trkpt lat="45.80372224368368" lon="9.675018880382993"><ele>356.5</ele><time>2026-04-17T14:08:25Z</time></trkpt><trkpt lat="45.803829055788896" lon="9.675113235638918"><ele>351.75</ele><time>2026-04-17T14:08:26Z</time></trkpt><trkpt lat="45.80391958092822" lon="9.675217629660104"><ele>347.0</ele><time>2026-04-17T14:08:27Z</time></trkpt><trkpt lat="45.80400600988853" lon="9.675344588810123"><ele>347.0</ele><time>2026-04-17T14:08:28Z</time></trkpt><trkpt lat="45.80408198858728" lon="9.675490513010306"><ele>347.0</ele><time>2026-04-17T14:08:29Z</time></trkpt><trkpt lat="45.804152995982655" lon="9.675647913900193"><ele>347.0</ele><time>2026-04-17T14:08:30Z</time></trkpt><trkpt lat="45.80420706630354" lon="9.675832422452762"><ele>347.0</ele><time>2026-04-17T14:08:31Z</time></trkpt><trkpt lat="45.804258985254556" lon="9.676017837595113"><ele>342.5</ele><time>2026-04-17T14:08:32Z</time></trkpt><trkpt lat="45.80430831633615" lon="9.676202054047662"><ele>338.0</ele><time>2026-04-17T14:08:33Z</time></trkpt><trkpt lat="45.80435976789638" lon="9.67638873037606"><ele>333.5</ele><time>2026-04-17T14:08:34Z</time></trkpt><trkpt lat="45.80441747016654" lon="9.676557072399879"><ele>329.0</ele><time>2026-04-17T14:08:35Z</time></trkpt><trkpt lat="45.80449383229382" lon="9.676712487441792"><ele>329.0</ele><time>2026-04-17T14:08:36Z</time></trkpt><trkpt lat="45.80458091725585" lon="9.676854947136098"><ele>329.0</ele><time>2026-04-17T14:08:37Z</time></trkpt><trkpt lat="45.80467856657122" lon="9.676989650462502"><ele>329.0</ele><time>2026-04-17T14:08:38Z</time></trkpt><trkpt lat="45.80477864071181" lon="9.677122754900186"><ele>329.0</ele><time>2026-04-17T14:08:39Z</time></trkpt><trkpt lat="45.804883597677815" lon="9.677251946824216"><ele>328.0</ele><time>2026-04-17T14:08:40Z</time></trkpt><trkpt lat="45.80498413828085" lon="9.677384422908348"><ele>327.0</ele><time>2026-04-17T14:08:41Z</time></trkpt><trkpt lat="45.80507912650963" lon="9.67752755452002"><ele>326.0</ele><time>2026-04-17T14:08:42Z</time></trkpt><trkpt lat="45.80516746244299" lon="9.677680234290943"><ele>325.0</ele><time>2026-04-17T14:08:43Z</time></trkpt><trkpt lat="45.80525052019802" lon="9.6778448825366"><ele>325.0</ele><time>2026-04-17T14:08:44Z</time></trkpt><trkpt lat="45.80531775372455" lon="9.67801233017791"><ele>325.0</ele><time>2026-04-17T14:08:45Z</time></trkpt><trkpt lat="45.80537219371484" lon="9.67818787586779"><ele>325.0</ele><time>2026-04-17T14:08:46Z</time></trkpt><trkpt lat="45.80542303931901" lon="9.678344448852432"><ele>325.0</ele><time>2026-04-17T14:08:47Z</time></trkpt><trkpt lat="45.805469076352296" lon="9.678498435008667"><ele>327.2</ele><time>2026-04-17T14:08:48Z</time></trkpt><trkpt lat="45.8055204322068" lon="9.678640743980928"><ele>329.4</ele><time>2026-04-17T14:08:49Z</time></trkpt><trkpt lat="45.80556921980855" lon="9.67877651858315"><ele>331.6</ele><time>2026-04-17T14:08:50Z</time></trkpt><trkpt lat="45.80561543049804" lon="9.678908847088863"><ele>333.8</ele><time>2026-04-17T14:08:51Z</time></trkpt><trkpt lat="45.80565711900333" lon="9.679036755674236"><ele>336.0</ele><time>2026-04-17T14:08:52Z</time></trkpt><trkpt lat="45.80570219155833" lon="9.679157777585486"><ele>336.0</ele><time>2026-04-17T14:08:53Z</time></trkpt><trkpt lat="45.805744324952" lon="9.679279154334395"><ele>336.0</ele><time>2026-04-17T14:08:54Z</time></trkpt><trkpt lat="45.80578392902809" lon="9.679392467283757"><ele>336.0</ele><time>2026-04-17T14:08:55Z</time></trkpt><trkpt lat="45.80582043700094" lon="9.679502165401473"><ele>336.0</ele><time>2026-04-17T14:08:56Z</time></trkpt><trkpt lat="45.805853149899534" lon="9.679607550820801"><ele>336.0</ele><time>2026-04-17T14:08:57Z</time></trkpt><trkpt lat="45.805881048867725" lon="9.679717829285945"><ele>336.0</ele><time>2026-04-17T14:08:58Z</time></trkpt><trkpt lat="45.80590556143809" lon="9.679826283168726"><ele>334.0</ele><time>2026-04-17T14:08:59Z</time></trkpt><trkpt lat="45.80592883885468" lon="9.679931263712323"><ele>332.0</ele><time>2026-04-17T14:09:00Z</time></trkpt><trkpt lat="45.80594525595997" lon="9.680036491540447"><ele>330.0</ele><time>2026-04-17T14:09:01Z</time></trkpt><trkpt lat="45.80596802282097" lon="9.680135492172807"><ele>328.0</ele><time>2026-04-17T14:09:02Z</time></trkpt><trkpt lat="45.80599815232334" lon="9.680235994094746"><ele>326.0</ele><time>2026-04-17T14:09:03Z</time></trkpt><trkpt lat="45.806026218603755" lon="9.680339449354173"><ele>324.0</ele><time>2026-04-17T14:09:04Z</time></trkpt><trkpt lat="45.80605918804784" lon="9.680430094807898"><ele>324.0</ele><time>2026-04-17T14:09:05Z</time></trkpt><trkpt lat="45.80609780724182" lon="9.680526494569694"><ele>324.0</ele><time>2026-04-17T14:09:06Z</time></trkpt><trkpt lat="45.806137511658314" lon="9.680616850893626"><ele>324.0</ele><time>2026-04-17T14:09:07Z</time></trkpt><trkpt lat="45.80617996413614" lon="9.68070684440773"><ele>324.0</ele><time>2026-04-17T14:09:08Z</time></trkpt><trkpt lat="45.80623681574681" lon="9.680789291000869"><ele>324.0</ele><time>2026-04-17T14:09:09Z</time></trkpt><trkpt lat="45.80629472756732" lon="9.680861879220368"><ele>324.0</ele><time>2026-04-17T14:09:10Z</time></trkpt><trkpt lat="45.80635630031554" lon="9.680920431823138"><ele>324.0</ele><time>2026-04-17T14:09:11Z</time></trkpt><trkpt lat="45.80642924149682" lon="9.680976339091435"><ele>324.0</ele><time>2026-04-17T14:09:12Z</time></trkpt><trkpt lat="45.80649184954863" lon="9.681025363896046"><ele>324.0</ele><time>2026-04-17T14:09:13Z</time></trkpt><trkpt lat="45.80656604110407" lon="9.681061755467034"><ele>324.0</ele><time>2026-04-17T14:09:14Z</time></trkpt><trkpt lat="45.80664068177574" lon="9.681089126826212"><ele>324.0</ele><time>2026-04-17T14:09:15Z</time></trkpt><trkpt lat="45.806716777680826" lon="9.681107929485835"><ele>324.0</ele><time>2026-04-17T14:09:16Z</time></trkpt><trkpt lat="45.806796912427366" lon="9.681113550190494"><ele>324.3333333333333</ele><time>2026-04-17T14:09:17Z</time></trkpt><trkpt lat="45.80687306169542" lon="9.681107990757807"><ele>324.6666666666667</ele><time>2026-04-17T14:09:18Z</time></trkpt><trkpt lat="45.80694949009261" lon="9.681095671664812"><ele>325.0</ele><time>2026-04-17T14:09:19Z</time></trkpt><trkpt lat="45.80702899342898" lon="9.681072651862404"><ele>325.33333333333337</ele><time>2026-04-17T14:09:20Z</time></trkpt><trkpt lat="45.807099361212444" lon="9.681038100533646"><ele>325.6666666666667</ele><time>2026-04-17T14:09:21Z</time></trkpt><trkpt lat="45.807171275953465" lon="9.68101168760763"><ele>326.0</ele><time>2026-04-17T14:09:22Z</time></trkpt><trkpt lat="45.807236335978814" lon="9.68098307039604"><ele>326.0</ele><time>2026-04-17T14:09:23Z</time></trkpt><trkpt lat="45.80729981679877" lon="9.680944413134315"><ele>326.0</ele><time>2026-04-17T14:09:24Z</time></trkpt><trkpt lat="45.80736120655655" lon="9.680911533138083"><ele>326.0</ele><time>2026-04-17T14:09:25Z</time></trkpt><trkpt lat="45.80745852261844" lon="9.680835967705443"><ele>326.0</ele><time>2026-04-17T14:09:27Z</time></trkpt><trkpt lat="45.80756279796704" lon="9.680765375087049"><ele>326.0</ele><time>2026-04-17T14:09:29Z</time></trkpt><trkpt lat="45.80767943622817" lon="9.68071013331447"><ele>327.0</ele><time>2026-04-17T14:09:31Z</time></trkpt><trkpt lat="45.80779239100282" lon="9.680682846774483"><ele>328.0</ele><time>2026-04-17T14:09:33Z</time></trkpt><trkpt lat="45.80788217317029" lon="9.68074931627296"><ele>329.0</ele><time>2026-04-17T14:09:35Z</time></trkpt><trkpt lat="45.80791893508668" lon="9.68092484312313"><ele>330.0</ele><time>2026-04-17T14:09:37Z</time></trkpt><trkpt lat="45.80793164032969" lon="9.681030025066706"><ele>331.0</ele><time>2026-04-17T14:09:38Z</time></trkpt><trkpt lat="45.807972922290276" lon="9.68120705631295"><ele>331.8</ele><time>2026-04-17T14:09:40Z</time></trkpt><trkpt lat="45.8079940096534" lon="9.681295405741167"><ele>332.6</ele><time>2026-04-17T14:09:41Z</time></trkpt><trkpt lat="45.80803546160806" lon="9.681461779922325"><ele>333.4</ele><time>2026-04-17T14:09:43Z</time></trkpt><trkpt lat="45.808068154330684" lon="9.681543468051547"><ele>334.2</ele><time>2026-04-17T14:09:44Z</time></trkpt><trkpt lat="45.80814795940168" lon="9.681680795404356"><ele>335.0</ele><time>2026-04-17T14:09:46Z</time></trkpt><trkpt lat="45.808227304698484" lon="9.681814657348546"><ele>334.99999999999994</ele><time>2026-04-17T14:09:48Z</time></trkpt><trkpt lat="45.80826184088558" lon="9.68189026551386"><ele>335.0</ele><time>2026-04-17T14:09:49Z</time></trkpt><trkpt lat="45.80832463008203" lon="9.682041177959244"><ele>335.0</ele><time>2026-04-17T14:09:51Z</time></trkpt><trkpt lat="45.8083538723911" lon="9.682125265501167"><ele>335.0</ele><time>2026-04-17T14:09:52Z</time></trkpt><trkpt lat="45.80838120943794" lon="9.682208788910163"><ele>335.0</ele><time>2026-04-17T14:09:53Z</time></trkpt><trkpt lat="45.808400743095326" lon="9.682296872678066"><ele>334.99999999999994</ele><time>2026-04-17T14:09:54Z</time></trkpt><trkpt lat="45.80840686061604" lon="9.682389995817463"><ele>335.0</ele><time>2026-04-17T14:09:55Z</time></trkpt><trkpt lat="45.80841135577798" lon="9.682480592981477"><ele>334.0</ele><time>2026-04-17T14:09:56Z</time></trkpt><trkpt lat="45.8084113854451" lon="9.682573532363211"><ele>333.0</ele><time>2026-04-17T14:09:57Z</time></trkpt><trkpt lat="45.80841266983822" lon="9.682751711887786"><ele>332.0</ele><time>2026-04-17T14:09:59Z</time></trkpt><trkpt lat="45.8084121795064" lon="9.682929387354797"><ele>331.0</ele><time>2026-04-17T14:10:01Z</time></trkpt><trkpt lat="45.80841307660975" lon="9.683106840201853"><ele>330.0</ele><time>2026-04-17T14:10:03Z</time></trkpt><trkpt lat="45.80840981712938" lon="9.683279611161225"><ele>330.0</ele><time>2026-04-17T14:10:05Z</time></trkpt><trkpt lat="45.80839967748626" lon="9.683431549780584"><ele>330.0</ele><time>2026-04-17T14:10:07Z</time></trkpt><trkpt lat="45.808402872086035" lon="9.683592844272559"><ele>330.0</ele><time>2026-04-17T14:10:09Z</time></trkpt><trkpt lat="45.80841172276032" lon="9.683688753734438"><ele>330.0</ele><time>2026-04-17T14:10:10Z</time></trkpt><trkpt lat="45.80841523630291" lon="9.683859530020417"><ele>330.0</ele><time>2026-04-17T14:10:12Z</time></trkpt><trkpt lat="45.80841996839443" lon="9.684015736688545"><ele>330.4</ele><time>2026-04-17T14:10:14Z</time></trkpt><trkpt lat="45.80841998563147" lon="9.684156384571779"><ele>330.8</ele><time>2026-04-17T14:10:16Z</time></trkpt><trkpt lat="45.8084240974761" lon="9.684286645651776"><ele>331.20000000000005</ele><time>2026-04-17T14:10:18Z</time></trkpt><trkpt lat="45.80842735723055" lon="9.684449045272403"><ele>331.6</ele><time>2026-04-17T14:10:20Z</time></trkpt><trkpt lat="45.808429695079234" lon="9.684623887521397"><ele>332.0</ele><time>2026-04-17T14:10:22Z</time></trkpt><trkpt lat="45.80843457285242" lon="9.68480226450966"><ele>332.6</ele><time>2026-04-17T14:10:24Z</time></trkpt><trkpt lat="45.80843302498977" lon="9.684897321213638"><ele>333.20000000000005</ele><time>2026-04-17T14:10:25Z</time></trkpt><trkpt lat="45.80843384831075" lon="9.68506876269823"><ele>333.8</ele><time>2026-04-17T14:10:27Z</time></trkpt><trkpt lat="45.80843959138713" lon="9.685245311346618"><ele>334.4</ele><time>2026-04-17T14:10:29Z</time></trkpt><trkpt lat="45.808442977122304" lon="9.685339022806504"><ele>335.0</ele><time>2026-04-17T14:10:30Z</time></trkpt><trkpt lat="45.80844577870041" lon="9.68551434863229"><ele>335.4</ele><time>2026-04-17T14:10:32Z</time></trkpt><trkpt lat="45.80844060653929" lon="9.685694261659426"><ele>335.8</ele><time>2026-04-17T14:10:34Z</time></trkpt><trkpt lat="45.80843901477714" lon="9.685870980775336"><ele>336.20000000000005</ele><time>2026-04-17T14:10:36Z</time></trkpt><trkpt lat="45.8084438300797" lon="9.685963696488317"><ele>336.6</ele><time>2026-04-17T14:10:37Z</time></trkpt><trkpt lat="45.80844190497742" lon="9.686140015457912"><ele>337.0</ele><time>2026-04-17T14:10:39Z</time></trkpt><trkpt lat="45.808437631017995" lon="9.686313297931687"><ele>338.75</ele><time>2026-04-17T14:10:41Z</time></trkpt><trkpt lat="45.808421096306944" lon="9.686487619580252"><ele>340.5</ele><time>2026-04-17T14:10:43Z</time></trkpt><trkpt lat="45.80839168903122" lon="9.686656078422658"><ele>342.25</ele><time>2026-04-17T14:10:45Z</time></trkpt><trkpt lat="45.80835911094188" lon="9.686824422942477"><ele>344.0</ele><time>2026-04-17T14:10:47Z</time></trkpt><trkpt lat="45.808329001214666" lon="9.686985740466612"><ele>344.4</ele><time>2026-04-17T14:10:49Z</time></trkpt><trkpt lat="45.808305833212806" lon="9.687158106856568"><ele>344.79999999999995</ele><time>2026-04-17T14:10:51Z</time></trkpt><trkpt lat="45.80827729125038" lon="9.687327403697255"><ele>345.20000000000005</ele><time>2026-04-17T14:10:53Z</time></trkpt><trkpt lat="45.80826232265916" lon="9.687424834591699"><ele>345.6</ele><time>2026-04-17T14:10:54Z</time></trkpt><trkpt lat="45.808232119753505" lon="9.687597748353628"><ele>346.0</ele><time>2026-04-17T14:10:56Z</time></trkpt><trkpt lat="45.80820727908963" lon="9.68776489016759"><ele>348.0</ele><time>2026-04-17T14:10:58Z</time></trkpt><trkpt lat="45.80818640922454" lon="9.687850138104887"><ele>350.0</ele><time>2026-04-17T14:10:59Z</time></trkpt><trkpt lat="45.80814776914175" lon="9.688015051062566"><ele>352.0</ele><time>2026-04-17T14:11:01Z</time></trkpt><trkpt lat="45.808116341199515" lon="9.688182435765714"><ele>354.0</ele><time>2026-04-17T14:11:03Z</time></trkpt><trkpt lat="45.80810673801548" lon="9.688357841149209"><ele>356.0</ele><time>2026-04-17T14:11:05Z</time></trkpt><trkpt lat="45.80811496890639" lon="9.688539186839426"><ele>359.75</ele><time>2026-04-17T14:11:07Z</time></trkpt><trkpt lat="45.80812587012924" lon="9.688711890620526"><ele>363.5</ele><time>2026-04-17T14:11:09Z</time></trkpt><trkpt lat="45.808139212524225" lon="9.688883481835237"><ele>367.25</ele><time>2026-04-17T14:11:11Z</time></trkpt><trkpt lat="45.80815278490909" lon="9.689064950521185"><ele>371.0</ele><time>2026-04-17T14:11:13Z</time></trkpt><trkpt lat="45.808163361378746" lon="9.689228721422289"><ele>371.0</ele><time>2026-04-17T14:11:15Z</time></trkpt><trkpt lat="45.80819332173736" lon="9.689397061296775"><ele>371.0</ele><time>2026-04-17T14:11:17Z</time></trkpt><trkpt lat="45.80826972436293" lon="9.689541263719265"><ele>371.0</ele><time>2026-04-17T14:11:19Z</time></trkpt><trkpt lat="45.80831038164971" lon="9.68961665808819"><ele>371.0</ele><time>2026-04-17T14:11:20Z</time></trkpt><trkpt lat="45.808382643890184" lon="9.689746821866773"><ele>371.0</ele><time>2026-04-17T14:11:22Z</time></trkpt><trkpt lat="45.808459998426265" lon="9.689862765620541"><ele>378.20000000000005</ele><time>2026-04-17T14:11:24Z</time></trkpt><trkpt lat="45.80851627530351" lon="9.689947134495144"><ele>385.40000000000003</ele><time>2026-04-17T14:11:25Z</time></trkpt><trkpt lat="45.808598029189206" lon="9.690075463197713"><ele>392.6</ele><time>2026-04-17T14:11:27Z</time></trkpt><trkpt lat="45.80869468054737" lon="9.690179796474116"><ele>399.8</ele><time>2026-04-17T14:11:29Z</time></trkpt><trkpt lat="45.808749411228355" lon="9.690251719163282"><ele>407.0</ele><time>2026-04-17T14:11:30Z</time></trkpt><trkpt lat="45.80878419967578" lon="9.690327333539699"><ele>407.0</ele><time>2026-04-17T14:11:31Z</time></trkpt><trkpt lat="45.8088646872076" lon="9.690437004974351"><ele>407.0</ele><time>2026-04-17T14:11:33Z</time></trkpt><trkpt lat="45.808930428885816" lon="9.690575574832888"><ele>407.0</ele><time>2026-04-17T14:11:35Z</time></trkpt><trkpt lat="45.80894931967889" lon="9.690663201272379"><ele>407.0</ele><time>2026-04-17T14:11:36Z</time></trkpt><trkpt lat="45.80894919108384" lon="9.690756019536757"><ele>407.0</ele><time>2026-04-17T14:11:37Z</time></trkpt><trkpt lat="45.8089180867953" lon="9.690922243582392"><ele>407.0</ele><time>2026-04-17T14:11:39Z</time></trkpt><trkpt lat="45.80895007862447" lon="9.691025855343433"><ele>407.0</ele><time>2026-04-17T14:11:48Z</time></trkpt><trkpt lat="45.80885305234917" lon="9.691179710697226"><ele>407.0</ele><time>2026-04-17T14:11:50Z</time></trkpt><trkpt lat="45.8088012386582" lon="9.691280042478462"><ele>407.0</ele><time>2026-04-17T14:11:51Z</time></trkpt><trkpt lat="45.80880774054728" lon="9.691391926997289"><ele>407.0</ele><time>2026-04-17T14:11:52Z</time></trkpt><trkpt lat="45.808828611871306" lon="9.691488096993156"><ele>406.20000000000005</ele><time>2026-04-17T14:11:53Z</time></trkpt><trkpt lat="45.80882192202152" lon="9.691611185649917"><ele>405.4</ele><time>2026-04-17T14:11:54Z</time></trkpt><trkpt lat="45.80885865853753" lon="9.691734785432198"><ele>404.6</ele><time>2026-04-17T14:11:55Z</time></trkpt><trkpt lat="45.80894652508523" lon="9.691848088004441"><ele>403.79999999999995</ele><time>2026-04-17T14:11:56Z</time></trkpt><trkpt lat="45.80898873472305" lon="9.691979729377504"><ele>403.0</ele><time>2026-04-17T14:11:57Z</time></trkpt><trkpt lat="45.80905703883387" lon="9.692224763712067"><ele>401.5</ele><time>2026-04-17T14:11:58Z</time></trkpt><trkpt lat="45.80910213678038" lon="9.692462570446"><ele>400.0</ele><time>2026-04-17T14:11:59Z</time></trkpt><trkpt lat="45.80909701556286" lon="9.692615236710218"><ele>398.5</ele><time>2026-04-17T14:12:00Z</time></trkpt><trkpt lat="45.80909529925629" lon="9.692725390686324"><ele>397.0</ele><time>2026-04-17T14:12:01Z</time></trkpt><trkpt lat="45.8091050518585" lon="9.692907394376528"><ele>394.5</ele><time>2026-04-17T14:12:03Z</time></trkpt><trkpt lat="45.80912750042209" lon="9.693082712305536"><ele>392.0</ele><time>2026-04-17T14:12:05Z</time></trkpt><trkpt lat="45.809131760897145" lon="9.693252249867966"><ele>389.5</ele><time>2026-04-17T14:12:07Z</time></trkpt><trkpt lat="45.80914388554228" lon="9.693420677493389"><ele>387.0</ele><time>2026-04-17T14:12:09Z</time></trkpt><trkpt lat="45.80915276276713" lon="9.693584977008037"><ele>388.8</ele><time>2026-04-17T14:12:11Z</time></trkpt><trkpt lat="45.80917713322548" lon="9.693745929387065"><ele>390.6</ele><time>2026-04-17T14:12:13Z</time></trkpt><trkpt lat="45.80921291829054" lon="9.693823540977583"><ele>392.40000000000003</ele><time>2026-04-17T14:12:14Z</time></trkpt><trkpt lat="45.80925256106436" lon="9.69398342959191"><ele>394.20000000000005</ele><time>2026-04-17T14:12:16Z</time></trkpt><trkpt lat="45.80930528675698" lon="9.694135743759746"><ele>396.0</ele><time>2026-04-17T14:12:18Z</time></trkpt><trkpt lat="45.809351751764225" lon="9.694284741813043"><ele>395.8</ele><time>2026-04-17T14:12:20Z</time></trkpt><trkpt lat="45.80940000659149" lon="9.694456621773568"><ele>395.6</ele><time>2026-04-17T14:12:22Z</time></trkpt><trkpt lat="45.8094274885771" lon="9.694540256860666"><ele>395.4</ele><time>2026-04-17T14:12:23Z</time></trkpt><trkpt lat="45.809515306473095" lon="9.694700405361095"><ele>395.2</ele><time>2026-04-17T14:12:25Z</time></trkpt><trkpt lat="45.80956996233962" lon="9.69475738515502"><ele>395.0</ele><time>2026-04-17T14:12:26Z</time></trkpt><trkpt lat="45.809632378041684" lon="9.694777924524104"><ele>395.0</ele><time>2026-04-17T14:12:27Z</time></trkpt><trkpt lat="45.809698892755094" lon="9.694810619197456"><ele>395.0</ele><time>2026-04-17T14:12:28Z</time></trkpt><trkpt lat="45.80977229512196" lon="9.694904294036565"><ele>395.0</ele><time>2026-04-17T14:12:30Z</time></trkpt><trkpt lat="45.809829155376256" lon="9.69502937164282"><ele>395.0</ele><time>2026-04-17T14:12:32Z</time></trkpt><trkpt lat="45.80984676781421" lon="9.695117977019617"><ele>395.0</ele><time>2026-04-17T14:12:33Z</time></trkpt><trkpt lat="45.8098942226946" lon="9.69528595322739"><ele>390.75</ele><time>2026-04-17T14:12:35Z</time></trkpt><trkpt lat="45.80992351472257" lon="9.69543230444603"><ele>386.5</ele><time>2026-04-17T14:12:37Z</time></trkpt><trkpt lat="45.80997925845683" lon="9.695599160571255"><ele>382.25</ele><time>2026-04-17T14:12:39Z</time></trkpt><trkpt lat="45.81001567930624" lon="9.695746003690704"><ele>378.0</ele><time>2026-04-17T14:12:41Z</time></trkpt><trkpt lat="45.810036553764185" lon="9.695914249020904"><ele>378.0</ele><time>2026-04-17T14:12:43Z</time></trkpt><trkpt lat="45.81005694282699" lon="9.696079274865056"><ele>378.0</ele><time>2026-04-17T14:12:45Z</time></trkpt><trkpt lat="45.81009072462143" lon="9.696236905875375"><ele>378.0</ele><time>2026-04-17T14:12:47Z</time></trkpt><trkpt lat="45.81015254764483" lon="9.696391973261688"><ele>378.0</ele><time>2026-04-17T14:12:49Z</time></trkpt><trkpt lat="45.81020760914785" lon="9.696540609956248"><ele>380.25</ele><time>2026-04-17T14:12:51Z</time></trkpt><trkpt lat="45.810232526227225" lon="9.696706384642795"><ele>382.5</ele><time>2026-04-17T14:12:53Z</time></trkpt><trkpt lat="45.8102211271522" lon="9.696881809559683"><ele>384.75</ele><time>2026-04-17T14:12:55Z</time></trkpt><trkpt lat="45.810211302051314" lon="9.697057177716747"><ele>387.0</ele><time>2026-04-17T14:12:57Z</time></trkpt><trkpt lat="45.810209078984556" lon="9.697229730869081"><ele>387.0</ele><time>2026-04-17T14:12:59Z</time></trkpt><trkpt lat="45.81022892206223" lon="9.69739791452727"><ele>387.0</ele><time>2026-04-17T14:13:01Z</time></trkpt><trkpt lat="45.81025982858506" lon="9.697568356420799"><ele>387.0</ele><time>2026-04-17T14:13:03Z</time></trkpt><trkpt lat="45.81028655588964" lon="9.697736700182379"><ele>387.0</ele><time>2026-04-17T14:13:05Z</time></trkpt><trkpt lat="45.810326917810045" lon="9.697901664324672"><ele>384.40000000000003</ele><time>2026-04-17T14:13:07Z</time></trkpt><trkpt lat="45.81038179998837" lon="9.698056697346486"><ele>381.8</ele><time>2026-04-17T14:13:09Z</time></trkpt><trkpt lat="45.8104257176799" lon="9.698122537163776"><ele>379.2</ele><time>2026-04-17T14:13:10Z</time></trkpt><trkpt lat="45.81053197846737" lon="9.698228299723782"><ele>376.6</ele><time>2026-04-17T14:13:12Z</time></trkpt><trkpt lat="45.81064291145382" lon="9.698298997865136"><ele>374.0</ele><time>2026-04-17T14:13:14Z</time></trkpt><trkpt lat="45.81075763260637" lon="9.698371810718891"><ele>374.0</ele><time>2026-04-17T14:13:16Z</time></trkpt><trkpt lat="45.810865054834544" lon="9.698434073908045"><ele>374.0</ele><time>2026-04-17T14:13:18Z</time></trkpt><trkpt lat="45.81092317321621" lon="9.698479318051731"><ele>374.0</ele><time>2026-04-17T14:13:19Z</time></trkpt><trkpt lat="45.81097391492375" lon="9.698536287607183"><ele>374.0</ele><time>2026-04-17T14:13:20Z</time></trkpt><trkpt lat="45.81105944889285" lon="9.69865841793338"><ele>374.0</ele><time>2026-04-17T14:13:22Z</time></trkpt><trkpt lat="45.81113134033513" lon="9.698803124860767"><ele>378.75</ele><time>2026-04-17T14:13:24Z</time></trkpt><trkpt lat="45.811181961815" lon="9.698963531500594"><ele>383.5</ele><time>2026-04-17T14:13:26Z</time></trkpt><trkpt lat="45.81122229325213" lon="9.699124079010177"><ele>388.25</ele><time>2026-04-17T14:13:28Z</time></trkpt><trkpt lat="45.811265543077155" lon="9.699289084056307"><ele>393.0</ele><time>2026-04-17T14:13:30Z</time></trkpt><trkpt lat="45.811302647242414" lon="9.69945887336815"><ele>393.0</ele><time>2026-04-17T14:13:32Z</time></trkpt><trkpt lat="45.811344187188425" lon="9.699615907963327"><ele>393.0</ele><time>2026-04-17T14:13:34Z</time></trkpt><trkpt lat="45.81138608197124" lon="9.699775713264174"><ele>393.0</ele><time>2026-04-17T14:13:36Z</time></trkpt><trkpt lat="45.811431806626025" lon="9.69992931019867"><ele>393.0</ele><time>2026-04-17T14:13:38Z</time></trkpt><trkpt lat="45.81148754604215" lon="9.700075702868583"><ele>393.0</ele><time>2026-04-17T14:13:40Z</time></trkpt><trkpt lat="45.81153025717144" lon="9.70014951086964"><ele>393.0</ele><time>2026-04-17T14:13:41Z</time></trkpt><trkpt lat="45.811605530894155" lon="9.700276321259855"><ele>393.0</ele><time>2026-04-17T14:13:43Z</time></trkpt><trkpt lat="45.81167091942972" lon="9.700418889530638"><ele>393.0</ele><time>2026-04-17T14:13:45Z</time></trkpt><trkpt lat="45.81170310327321" lon="9.700585507334612"><ele>393.0</ele><time>2026-04-17T14:13:47Z</time></trkpt><trkpt lat="45.81169527459596" lon="9.700755519110258"><ele>391.25</ele><time>2026-04-17T14:13:49Z</time></trkpt><trkpt lat="45.81167293885949" lon="9.700932339077026"><ele>389.5</ele><time>2026-04-17T14:13:51Z</time></trkpt><trkpt lat="45.811644406478656" lon="9.701091410467319"><ele>387.75</ele><time>2026-04-17T14:13:53Z</time></trkpt><trkpt lat="45.81161094639228" lon="9.701292993254764"><ele>386.0</ele><time>2026-04-17T14:13:55Z</time></trkpt><trkpt lat="45.8116060852691" lon="9.701400483629737"><ele>386.0</ele><time>2026-04-17T14:13:56Z</time></trkpt><trkpt lat="45.811651349834314" lon="9.701524886042"><ele>386.0</ele><time>2026-04-17T14:13:58Z</time></trkpt><trkpt lat="45.81167649830787" lon="9.701693562186128"><ele>386.0</ele><time>2026-04-17T14:14:00Z</time></trkpt><trkpt lat="45.811711044861234" lon="9.701849928177538"><ele>386.0</ele><time>2026-04-17T14:14:02Z</time></trkpt><trkpt lat="45.81173258030886" lon="9.70200586501104"><ele>386.0</ele><time>2026-04-17T14:14:04Z</time></trkpt><trkpt lat="45.811751165664184" lon="9.702095556913646"><ele>385.8</ele><time>2026-04-17T14:14:05Z</time></trkpt><trkpt lat="45.8117830962117" lon="9.702250371699543"><ele>385.6</ele><time>2026-04-17T14:14:07Z</time></trkpt><trkpt lat="45.81179190224701" lon="9.702345018606602"><ele>385.4</ele><time>2026-04-17T14:14:08Z</time></trkpt><trkpt lat="45.81183274676003" lon="9.70249742064329"><ele>385.2</ele><time>2026-04-17T14:14:10Z</time></trkpt><trkpt lat="45.81190199537754" lon="9.702634397827886"><ele>385.0</ele><time>2026-04-17T14:14:12Z</time></trkpt><trkpt lat="45.81195754755203" lon="9.70268300220699"><ele>384.33333333333337</ele><time>2026-04-17T14:14:13Z</time></trkpt><trkpt lat="45.812022859505205" lon="9.702695189988656"><ele>383.6666666666667</ele><time>2026-04-17T14:14:14Z</time></trkpt><trkpt lat="45.81208805257262" lon="9.702691643121707"><ele>383.0</ele><time>2026-04-17T14:14:15Z</time></trkpt><trkpt lat="45.812152074633765" lon="9.70267302814158"><ele>382.33333333333337</ele><time>2026-04-17T14:14:16Z</time></trkpt><trkpt lat="45.81221482508187" lon="9.702633770172254"><ele>381.6666666666667</ele><time>2026-04-17T14:14:17Z</time></trkpt><trkpt lat="45.81232806943257" lon="9.702564178791068"><ele>381.0</ele><time>2026-04-17T14:14:19Z</time></trkpt><trkpt lat="45.81238985434234" lon="9.702530968613418"><ele>381.0</ele><time>2026-04-17T14:14:20Z</time></trkpt><trkpt lat="45.81250552431219" lon="9.702475157374918"><ele>381.0</ele><time>2026-04-17T14:14:22Z</time></trkpt><trkpt lat="45.81261583243006" lon="9.70241127156831"><ele>381.0</ele><time>2026-04-17T14:14:24Z</time></trkpt><trkpt lat="45.81272954350186" lon="9.702352455463764"><ele>381.0</ele><time>2026-04-17T14:14:26Z</time></trkpt><trkpt lat="45.81284172959659" lon="9.702288527510417"><ele>382.75</ele><time>2026-04-17T14:14:28Z</time></trkpt><trkpt lat="45.81295782617347" lon="9.702239883788353"><ele>384.5</ele><time>2026-04-17T14:14:30Z</time></trkpt><trkpt lat="45.813075941152825" lon="9.70221321968852"><ele>386.25</ele><time>2026-04-17T14:14:32Z</time></trkpt><trkpt lat="45.813202192333186" lon="9.702240994967717"><ele>388.0</ele><time>2026-04-17T14:14:34Z</time></trkpt><trkpt lat="45.81331291851071" lon="9.702300811652297"><ele>388.0</ele><time>2026-04-17T14:14:36Z</time></trkpt><trkpt lat="45.81342723567651" lon="9.70236544706126"><ele>388.0</ele><time>2026-04-17T14:14:38Z</time></trkpt><trkpt lat="45.813544793296835" lon="9.702421862378253"><ele>388.0</ele><time>2026-04-17T14:14:40Z</time></trkpt><trkpt lat="45.81365923115295" lon="9.702489207066481"><ele>388.0</ele><time>2026-04-17T14:14:42Z</time></trkpt><trkpt lat="45.81377418005795" lon="9.70254981761105"><ele>389.2</ele><time>2026-04-17T14:14:44Z</time></trkpt><trkpt lat="45.81388423625615" lon="9.702611434914255"><ele>390.4</ele><time>2026-04-17T14:14:46Z</time></trkpt><trkpt lat="45.81394464630528" lon="9.702640231240858"><ele>391.59999999999997</ele><time>2026-04-17T14:14:47Z</time></trkpt><trkpt lat="45.8140543284537" lon="9.702703248690646"><ele>392.79999999999995</ele><time>2026-04-17T14:14:49Z</time></trkpt><trkpt lat="45.81415784643856" lon="9.702802953613288"><ele>394.0</ele><time>2026-04-17T14:14:51Z</time></trkpt><trkpt lat="45.814223987964965" lon="9.702933018552018"><ele>394.25</ele><time>2026-04-17T14:14:53Z</time></trkpt><trkpt lat="45.814256979063316" lon="9.703093631849654"><ele>394.5</ele><time>2026-04-17T14:14:55Z</time></trkpt><trkpt lat="45.814272912495554" lon="9.703259547906415"><ele>394.75</ele><time>2026-04-17T14:14:57Z</time></trkpt><trkpt lat="45.81429833752115" lon="9.703427628128733"><ele>395.0</ele><time>2026-04-17T14:14:59Z</time></trkpt><trkpt lat="45.814313342362176" lon="9.703596214035063"><ele>396.2</ele><time>2026-04-17T14:15:01Z</time></trkpt><trkpt lat="45.814319665628375" lon="9.703693336828922"><ele>397.4</ele><time>2026-04-17T14:15:02Z</time></trkpt><trkpt lat="45.814300109018454" lon="9.703848644667984"><ele>398.6</ele><time>2026-04-17T14:15:04Z</time></trkpt><trkpt lat="45.81428397278343" lon="9.703941149229927"><ele>399.8</ele><time>2026-04-17T14:15:05Z</time></trkpt><trkpt lat="45.81426054063215" lon="9.704110074791858"><ele>401.0</ele><time>2026-04-17T14:15:07Z</time></trkpt><trkpt lat="45.8142644864159" lon="9.704283109932083"><ele>401.0</ele><time>2026-04-17T14:15:09Z</time></trkpt><trkpt lat="45.814287213594916" lon="9.704373147947924"><ele>401.0</ele><time>2026-04-17T14:15:10Z</time></trkpt><trkpt lat="45.81432535800327" lon="9.704528168862725"><ele>401.0</ele><time>2026-04-17T14:15:12Z</time></trkpt><trkpt lat="45.814359713273674" lon="9.704688788676684"><ele>401.0</ele><time>2026-04-17T14:15:14Z</time></trkpt><trkpt lat="45.8143837866033" lon="9.704777400757054"><ele>401.0</ele><time>2026-04-17T14:15:15Z</time></trkpt><trkpt lat="45.81441367366848" lon="9.704944284241241"><ele>400.75</ele><time>2026-04-17T14:15:17Z</time></trkpt><trkpt lat="45.814454959590364" lon="9.705099560928518"><ele>400.5</ele><time>2026-04-17T14:15:19Z</time></trkpt><trkpt lat="45.81449636480531" lon="9.705269095822258"><ele>400.25</ele><time>2026-04-17T14:15:21Z</time></trkpt><trkpt lat="45.814539889072876" lon="9.705423495250086"><ele>400.0</ele><time>2026-04-17T14:15:23Z</time></trkpt><trkpt lat="45.81462745366569" lon="9.705547127854809"><ele>400.00000000000006</ele><time>2026-04-17T14:15:25Z</time></trkpt><trkpt lat="45.814742730875324" lon="9.705600726417531"><ele>400.0</ele><time>2026-04-17T14:15:27Z</time></trkpt><trkpt lat="45.814810713686434" lon="9.705594323880488"><ele>400.0</ele><time>2026-04-17T14:15:28Z</time></trkpt><trkpt lat="45.814877290997345" lon="9.705566103191485"><ele>400.0</ele><time>2026-04-17T14:15:29Z</time></trkpt><trkpt lat="45.814935334687924" lon="9.705524256002958"><ele>400.00000000000006</ele><time>2026-04-17T14:15:30Z</time></trkpt><trkpt lat="45.815045617648614" lon="9.70544803931169"><ele>400.0</ele><time>2026-04-17T14:15:32Z</time></trkpt><trkpt lat="45.81515857047637" lon="9.70537792005593"><ele>400.0</ele><time>2026-04-17T14:15:34Z</time></trkpt><trkpt lat="45.8152719197353" lon="9.705302717094341"><ele>400.0</ele><time>2026-04-17T14:15:36Z</time></trkpt><trkpt lat="45.81538171387797" lon="9.705240482491662"><ele>400.0</ele><time>2026-04-17T14:15:38Z</time></trkpt><trkpt lat="45.81544376544453" lon="9.7052107112363"><ele>400.0</ele><time>2026-04-17T14:15:39Z</time></trkpt><trkpt lat="45.81555805219751" lon="9.705182740060826"><ele>400.0</ele><time>2026-04-17T14:15:41Z</time></trkpt><trkpt lat="45.81562396476538" lon="9.705171365313404"><ele>400.8</ele><time>2026-04-17T14:15:42Z</time></trkpt><trkpt lat="45.815744115400406" lon="9.705159221089819"><ele>401.6</ele><time>2026-04-17T14:15:44Z</time></trkpt><trkpt lat="45.815807955410776" lon="9.705183670239622"><ele>402.4</ele><time>2026-04-17T14:15:45Z</time></trkpt><trkpt lat="45.81592699490529" lon="9.705204716841886"><ele>403.2</ele><time>2026-04-17T14:15:47Z</time></trkpt><trkpt lat="45.81604788764578" lon="9.705254801538842"><ele>404.0</ele><time>2026-04-17T14:15:49Z</time></trkpt><trkpt lat="45.81610460899995" lon="9.705295222109916"><ele>403.99999999999994</ele><time>2026-04-17T14:15:50Z</time></trkpt><trkpt lat="45.81622059039408" lon="9.70535961451062"><ele>404.0</ele><time>2026-04-17T14:15:52Z</time></trkpt><trkpt lat="45.816282211414205" lon="9.705396999234646"><ele>404.0</ele><time>2026-04-17T14:15:53Z</time></trkpt><trkpt lat="45.81633312104453" lon="9.705459639972618"><ele>404.0</ele><time>2026-04-17T14:15:54Z</time></trkpt><trkpt lat="45.81644575720039" lon="9.705534523722454"><ele>403.99999999999994</ele><time>2026-04-17T14:15:56Z</time></trkpt><trkpt lat="45.816495226966595" lon="9.705595697353177"><ele>404.0</ele><time>2026-04-17T14:15:57Z</time></trkpt><trkpt lat="45.816588530176965" lon="9.70570847815552"><ele>404.0</ele><time>2026-04-17T14:15:59Z</time></trkpt><trkpt lat="45.81666707718911" lon="9.705833011875633"><ele>404.0</ele><time>2026-04-17T14:16:01Z</time></trkpt><trkpt lat="45.81670868713662" lon="9.705905004574463"><ele>404.0</ele><time>2026-04-17T14:16:02Z</time></trkpt><trkpt lat="45.81677787802167" lon="9.706052536405537"><ele>404.0</ele><time>2026-04-17T14:16:04Z</time></trkpt><trkpt lat="45.81684456455885" lon="9.706197106300989"><ele>404.0</ele><time>2026-04-17T14:16:06Z</time></trkpt><trkpt lat="45.81690615366218" lon="9.706342284127084"><ele>407.4</ele><time>2026-04-17T14:16:08Z</time></trkpt><trkpt lat="45.8169738961051" lon="9.70647376732032"><ele>410.79999999999995</ele><time>2026-04-17T14:16:10Z</time></trkpt><trkpt lat="45.81700248818959" lon="9.706556093865784"><ele>414.20000000000005</ele><time>2026-04-17T14:16:11Z</time></trkpt><trkpt lat="45.81706756590342" lon="9.70669968639142"><ele>417.6</ele><time>2026-04-17T14:16:13Z</time></trkpt><trkpt lat="45.817132230283484" lon="9.706839667012886"><ele>421.0</ele><time>2026-04-17T14:16:15Z</time></trkpt><trkpt lat="45.817191062639985" lon="9.706986624114025"><ele>421.0</ele><time>2026-04-17T14:16:17Z</time></trkpt><trkpt lat="45.817227022446176" lon="9.707144648269484"><ele>421.0</ele><time>2026-04-17T14:16:19Z</time></trkpt><trkpt lat="45.8172494515687" lon="9.707309683260512"><ele>421.0</ele><time>2026-04-17T14:16:21Z</time></trkpt><trkpt lat="45.817264853023126" lon="9.707466202395196"><ele>421.0</ele><time>2026-04-17T14:16:23Z</time></trkpt><trkpt lat="45.8172864170018" lon="9.7076426956303"><ele>418.5</ele><time>2026-04-17T14:16:25Z</time></trkpt><trkpt lat="45.81729578252819" lon="9.707806385469432"><ele>416.0</ele><time>2026-04-17T14:16:27Z</time></trkpt><trkpt lat="45.81730664843312" lon="9.707973406400905"><ele>413.5</ele><time>2026-04-17T14:16:29Z</time></trkpt><trkpt lat="45.817320216918176" lon="9.708137881133663"><ele>411.0</ele><time>2026-04-17T14:16:31Z</time></trkpt><trkpt lat="45.81735194857681" lon="9.708295239326679"><ele>411.0</ele><time>2026-04-17T14:16:33Z</time></trkpt><trkpt lat="45.817397461974714" lon="9.708455317437007"><ele>411.0</ele><time>2026-04-17T14:16:35Z</time></trkpt><trkpt lat="45.81747057024896" lon="9.708584168544325"><ele>411.0</ele><time>2026-04-17T14:16:37Z</time></trkpt><trkpt lat="45.817549689411415" lon="9.708713853741408"><ele>411.0</ele><time>2026-04-17T14:16:39Z</time></trkpt><trkpt lat="45.81763746682339" lon="9.7088308028343"><ele>411.6</ele><time>2026-04-17T14:16:41Z</time></trkpt><trkpt lat="45.817732957521976" lon="9.708941357511819"><ele>412.20000000000005</ele><time>2026-04-17T14:16:43Z</time></trkpt><trkpt lat="45.81782631485373" lon="9.709045165520092"><ele>412.79999999999995</ele><time>2026-04-17T14:16:45Z</time></trkpt><trkpt lat="45.81791998436028" lon="9.709137608009023"><ele>413.4</ele><time>2026-04-17T14:16:47Z</time></trkpt><trkpt lat="45.81798819526433" lon="9.709231804282282"><ele>414.0</ele><time>2026-04-17T14:16:49Z</time></trkpt><trkpt lat="45.81805299430404" lon="9.709306877022772"><ele>414.0</ele><time>2026-04-17T14:16:51Z</time></trkpt><trkpt lat="45.81810548264264" lon="9.709359192944376"><ele>414.0</ele><time>2026-04-17T14:16:52Z</time></trkpt><trkpt lat="45.81818974706844" lon="9.709464804998786"><ele>414.0</ele><time>2026-04-17T14:16:54Z</time></trkpt><trkpt lat="45.81827942672933" lon="9.70956711390313"><ele>414.0</ele><time>2026-04-17T14:16:56Z</time></trkpt><trkpt lat="45.81837154331222" lon="9.709674343743256"><ele>414.0</ele><time>2026-04-17T14:16:58Z</time></trkpt><trkpt lat="45.81846697616664" lon="9.709776032889755"><ele>415.0</ele><time>2026-04-17T14:17:00Z</time></trkpt><trkpt lat="45.818556744970614" lon="9.70988909288971"><ele>416.0</ele><time>2026-04-17T14:17:02Z</time></trkpt><trkpt lat="45.81864683931546" lon="9.709996668629323"><ele>417.0</ele><time>2026-04-17T14:17:04Z</time></trkpt><trkpt lat="45.8187429204784" lon="9.710095497817228"><ele>418.0</ele><time>2026-04-17T14:17:06Z</time></trkpt><trkpt lat="45.81884287899789" lon="9.710192675136872"><ele>417.59999999999997</ele><time>2026-04-17T14:17:08Z</time></trkpt><trkpt lat="45.8189425851135" lon="9.710257725708605"><ele>417.2</ele><time>2026-04-17T14:17:10Z</time></trkpt><trkpt lat="45.8190366346909" lon="9.71029298571906"><ele>416.8</ele><time>2026-04-17T14:17:12Z</time></trkpt><trkpt lat="45.819136248796994" lon="9.710337702697284"><ele>416.4</ele><time>2026-04-17T14:17:14Z</time></trkpt><trkpt lat="45.819239551511856" lon="9.710377544341807"><ele>416.0</ele><time>2026-04-17T14:17:16Z</time></trkpt><trkpt lat="45.81930233723864" lon="9.710389215750101"><ele>417.4</ele><time>2026-04-17T14:17:17Z</time></trkpt><trkpt lat="45.81941144294066" lon="9.71045005224354"><ele>418.8</ele><time>2026-04-17T14:17:19Z</time></trkpt><trkpt lat="45.81950715222929" lon="9.71050746395882"><ele>420.2</ele><time>2026-04-17T14:17:21Z</time></trkpt><trkpt lat="45.819569649393955" lon="9.71055883698447"><ele>421.59999999999997</ele><time>2026-04-17T14:17:22Z</time></trkpt><trkpt lat="45.81966127883574" lon="9.710636245857449"><ele>423.0</ele><time>2026-04-17T14:17:24Z</time></trkpt><trkpt lat="45.81976509749651" lon="9.710705671493184"><ele>423.0</ele><time>2026-04-17T14:17:26Z</time></trkpt><trkpt lat="45.819867030114565" lon="9.71078184388503"><ele>423.0</ele><time>2026-04-17T14:17:28Z</time></trkpt><trkpt lat="45.81991319282613" lon="9.710843736859523"><ele>423.0</ele><time>2026-04-17T14:17:29Z</time></trkpt><trkpt lat="45.82000603428173" lon="9.710949840442925"><ele>423.0</ele><time>2026-04-17T14:17:31Z</time></trkpt><trkpt lat="45.820095505659424" lon="9.711059640673946"><ele>423.0</ele><time>2026-04-17T14:17:33Z</time></trkpt><trkpt lat="45.82017708917588" lon="9.711181083085004"><ele>425.4</ele><time>2026-04-17T14:17:35Z</time></trkpt><trkpt lat="45.82025401667915" lon="9.71130041771243"><ele>427.79999999999995</ele><time>2026-04-17T14:17:37Z</time></trkpt><trkpt lat="45.820335375767804" lon="9.711417134245341"><ele>430.2</ele><time>2026-04-17T14:17:39Z</time></trkpt><trkpt lat="45.82042142086759" lon="9.711530703303442"><ele>432.6</ele><time>2026-04-17T14:17:41Z</time></trkpt><trkpt lat="45.82046545901145" lon="9.711601127825057"><ele>435.0</ele><time>2026-04-17T14:17:42Z</time></trkpt><trkpt lat="45.820533926002206" lon="9.711733323024953"><ele>435.0</ele><time>2026-04-17T14:17:44Z</time></trkpt><trkpt lat="45.82061001131461" lon="9.7118730223453"><ele>435.0</ele><time>2026-04-17T14:17:46Z</time></trkpt><trkpt lat="45.82066582839807" lon="9.71200524339569"><ele>435.0</ele><time>2026-04-17T14:17:48Z</time></trkpt><trkpt lat="45.82072940221408" lon="9.712148232319322"><ele>435.0</ele><time>2026-04-17T14:17:50Z</time></trkpt><trkpt lat="45.820771293073655" lon="9.712315778102095"><ele>433.0</ele><time>2026-04-17T14:17:52Z</time></trkpt><trkpt lat="45.820794664090904" lon="9.712475204459269"><ele>431.0</ele><time>2026-04-17T14:17:54Z</time></trkpt><trkpt lat="45.820809733795784" lon="9.712563883116935"><ele>429.0</ele><time>2026-04-17T14:17:55Z</time></trkpt><trkpt lat="45.820821543676885" lon="9.712728563134542"><ele>427.0</ele><time>2026-04-17T14:17:57Z</time></trkpt><trkpt lat="45.82084326058853" lon="9.712895134899954"><ele>425.0</ele><time>2026-04-17T14:17:59Z</time></trkpt><trkpt lat="45.820865256754466" lon="9.71305468470868"><ele>424.0</ele><time>2026-04-17T14:18:01Z</time></trkpt><trkpt lat="45.82088812505227" lon="9.713217688039354"><ele>423.0</ele><time>2026-04-17T14:18:03Z</time></trkpt><trkpt lat="45.820915444026966" lon="9.713378040386775"><ele>422.0</ele><time>2026-04-17T14:18:05Z</time></trkpt><trkpt lat="45.82097236961932" lon="9.713522932832218"><ele>421.0</ele><time>2026-04-17T14:18:07Z</time></trkpt><trkpt lat="45.82107227879521" lon="9.713607037183454"><ele>423.0</ele><time>2026-04-17T14:18:09Z</time></trkpt><trkpt lat="45.82113297330135" lon="9.713634302016775"><ele>425.0</ele><time>2026-04-17T14:18:10Z</time></trkpt><trkpt lat="45.821248853935735" lon="9.713659642949986"><ele>427.0</ele><time>2026-04-17T14:18:12Z</time></trkpt><trkpt lat="45.821364458225965" lon="9.71368201375612"><ele>429.0</ele><time>2026-04-17T14:18:14Z</time></trkpt><trkpt lat="45.821475005078035" lon="9.713695404081509"><ele>431.0</ele><time>2026-04-17T14:18:16Z</time></trkpt><trkpt lat="45.82158867485728" lon="9.713692973353167"><ele>431.0</ele><time>2026-04-17T14:18:18Z</time></trkpt><trkpt lat="45.821700577889004" lon="9.713697120213583"><ele>431.0</ele><time>2026-04-17T14:18:20Z</time></trkpt><trkpt lat="45.82181576841824" lon="9.713734448839963"><ele>431.0</ele><time>2026-04-17T14:18:22Z</time></trkpt><trkpt lat="45.821922396811054" lon="9.713795015061555"><ele>431.0</ele><time>2026-04-17T14:18:24Z</time></trkpt><trkpt lat="45.82201645443241" lon="9.713892257455925"><ele>432.75</ele><time>2026-04-17T14:18:26Z</time></trkpt><trkpt lat="45.82211665639529" lon="9.713991834273436"><ele>434.5</ele><time>2026-04-17T14:18:28Z</time></trkpt><trkpt lat="45.82221050287359" lon="9.71408193467139"><ele>436.25</ele><time>2026-04-17T14:18:30Z</time></trkpt><trkpt lat="45.82229090391296" lon="9.71420500422098"><ele>438.0</ele><time>2026-04-17T14:18:32Z</time></trkpt><trkpt lat="45.822367942285595" lon="9.71432850945569"><ele>438.75</ele><time>2026-04-17T14:18:34Z</time></trkpt><trkpt lat="45.82244496304745" lon="9.714456560272081"><ele>439.5</ele><time>2026-04-17T14:18:36Z</time></trkpt><trkpt lat="45.822480728399846" lon="9.714613891444953"><ele>440.25</ele><time>2026-04-17T14:18:38Z</time></trkpt><trkpt lat="45.82247581164156" lon="9.71477983226635"><ele>441.0</ele><time>2026-04-17T14:18:40Z</time></trkpt><trkpt lat="45.8224676890771" lon="9.714951702922505"><ele>441.0</ele><time>2026-04-17T14:18:42Z</time></trkpt><trkpt lat="45.82247247103127" lon="9.715118122855039"><ele>441.0</ele><time>2026-04-17T14:18:44Z</time></trkpt><trkpt lat="45.822499446707674" lon="9.71528818567146"><ele>441.0</ele><time>2026-04-17T14:18:46Z</time></trkpt><trkpt lat="45.82253624140141" lon="9.715453123028619"><ele>441.0</ele><time>2026-04-17T14:18:48Z</time></trkpt><trkpt lat="45.82256764078267" lon="9.71561560664982"><ele>439.5</ele><time>2026-04-17T14:18:50Z</time></trkpt><trkpt lat="45.82260903257486" lon="9.715772996616641"><ele>438.0</ele><time>2026-04-17T14:18:52Z</time></trkpt><trkpt lat="45.822648526894234" lon="9.715933579908013"><ele>436.5</ele><time>2026-04-17T14:18:54Z</time></trkpt><trkpt lat="45.8226822861545" lon="9.716090842766555"><ele>435.0</ele><time>2026-04-17T14:18:56Z</time></trkpt><trkpt lat="45.82271920706666" lon="9.716252376209999"><ele>434.2</ele><time>2026-04-17T14:18:58Z</time></trkpt><trkpt lat="45.82275759402308" lon="9.716412519007884"><ele>433.4</ele><time>2026-04-17T14:19:00Z</time></trkpt><trkpt lat="45.82279600086408" lon="9.716580118477202"><ele>432.6</ele><time>2026-04-17T14:19:02Z</time></trkpt><trkpt lat="45.822825761566335" lon="9.716730244131478"><ele>431.8</ele><time>2026-04-17T14:19:04Z</time></trkpt><trkpt lat="45.82286880914894" lon="9.716808279723377"><ele>431.0</ele><time>2026-04-17T14:19:05Z</time></trkpt><trkpt lat="45.822930202193746" lon="9.716957000696775"><ele>431.0</ele><time>2026-04-17T14:19:07Z</time></trkpt><trkpt lat="45.82298293973238" lon="9.717106203271436"><ele>431.0</ele><time>2026-04-17T14:19:09Z</time></trkpt><trkpt lat="45.82304172336321" lon="9.717252608816048"><ele>431.0</ele><time>2026-04-17T14:19:11Z</time></trkpt><trkpt lat="45.823113936026864" lon="9.717405476092656"><ele>431.0</ele><time>2026-04-17T14:19:13Z</time></trkpt><trkpt lat="45.82316388238543" lon="9.717547698459384"><ele>431.0</ele><time>2026-04-17T14:19:15Z</time></trkpt><trkpt lat="45.82322968874661" lon="9.717693754193911"><ele>431.0</ele><time>2026-04-17T14:19:17Z</time></trkpt><trkpt lat="45.823288207013256" lon="9.717810281393676"><ele>431.0</ele><time>2026-04-17T14:19:19Z</time></trkpt><trkpt lat="45.823316639058284" lon="9.71790236772552"><ele>431.0</ele><time>2026-04-17T14:19:20Z</time></trkpt><trkpt lat="45.82335938387792" lon="9.718057562685255"><ele>431.0</ele><time>2026-04-17T14:19:22Z</time></trkpt><trkpt lat="45.82336686784313" lon="9.718219797118385"><ele>434.25</ele><time>2026-04-17T14:19:24Z</time></trkpt><trkpt lat="45.82337384459107" lon="9.718375571566783"><ele>437.5</ele><time>2026-04-17T14:19:26Z</time></trkpt><trkpt lat="45.82338623979453" lon="9.718513032145877"><ele>440.75</ele><time>2026-04-17T14:19:28Z</time></trkpt><trkpt lat="45.82338371408949" lon="9.718692359878926"><ele>444.0</ele><time>2026-04-17T14:19:30Z</time></trkpt><trkpt lat="45.82337983771898" lon="9.718864459971726"><ele>444.8333333333333</ele><time>2026-04-17T14:19:32Z</time></trkpt><trkpt lat="45.82337596293776" lon="9.718960881754716"><ele>445.66666666666663</ele><time>2026-04-17T14:19:33Z</time></trkpt><trkpt lat="45.823372102001095" lon="9.719120350649247"><ele>446.5</ele><time>2026-04-17T14:19:35Z</time></trkpt><trkpt lat="45.823359252728245" lon="9.719253963112461"><ele>447.3333333333333</ele><time>2026-04-17T14:19:37Z</time></trkpt><trkpt lat="45.82331603548817" lon="9.719357433736802"><ele>448.16666666666663</ele><time>2026-04-17T14:19:39Z</time></trkpt><trkpt lat="45.82325314136994" lon="9.719424229872844"><ele>449.0</ele><time>2026-04-17T14:19:41Z</time></trkpt><trkpt lat="45.82317785368498" lon="9.719473900701848"><ele>446.99999999999994</ele><time>2026-04-17T14:19:43Z</time></trkpt><trkpt lat="45.82310558128077" lon="9.719549368067769"><ele>445.0</ele><time>2026-04-17T14:19:45Z</time></trkpt><trkpt lat="45.82304863259752" lon="9.719631634584994"><ele>443.0</ele><time>2026-04-17T14:19:47Z</time></trkpt><trkpt lat="45.82308327375372" lon="9.719548741442303"><ele>441.0</ele><time>2026-04-17T14:19:54Z</time></trkpt><trkpt lat="45.8231500083494" lon="9.719458455395637"><ele>438.99999999999994</ele><time>2026-04-17T14:19:57Z</time></trkpt><trkpt lat="45.82322556897813" lon="9.719476583167795"><ele>437.0</ele><time>2026-04-17T14:20:32Z</time></trkpt><trkpt lat="45.82316218331545" lon="9.719579358186246"><ele>437.0</ele><time>2026-04-17T14:20:35Z</time></trkpt><trkpt lat="45.82307740511649" lon="9.719666926330579"><ele>437.00000000000006</ele><time>2026-04-17T14:20:38Z</time></trkpt><trkpt lat="45.82301191739627" lon="9.719788289546816"><ele>437.00000000000006</ele><time>2026-04-17T14:20:40Z</time></trkpt><trkpt lat="45.82294444399879" lon="9.71991955921882"><ele>437.0</ele><time>2026-04-17T14:20:42Z</time></trkpt><trkpt lat="45.82288437160628" lon="9.72006259529382"><ele>437.0</ele><time>2026-04-17T14:20:44Z</time></trkpt><trkpt lat="45.82284169920756" lon="9.720221588869665"><ele>436.5</ele><time>2026-04-17T14:20:46Z</time></trkpt><trkpt lat="45.82279674565145" lon="9.720386685076422"><ele>436.0</ele><time>2026-04-17T14:20:48Z</time></trkpt><trkpt lat="45.82275360192693" lon="9.720549934091983"><ele>435.5</ele><time>2026-04-17T14:20:50Z</time></trkpt><trkpt lat="45.82271132563465" lon="9.720712518781252"><ele>435.0</ele><time>2026-04-17T14:20:52Z</time></trkpt><trkpt lat="45.822679155662364" lon="9.720866634810424"><ele>439.25</ele><time>2026-04-17T14:20:54Z</time></trkpt><trkpt lat="45.82264660056273" lon="9.721038487141433"><ele>443.5</ele><time>2026-04-17T14:20:56Z</time></trkpt><trkpt lat="45.822628549460305" lon="9.721218072402918"><ele>447.75</ele><time>2026-04-17T14:20:58Z</time></trkpt><trkpt lat="45.822610841593665" lon="9.721386079852948"><ele>452.0</ele><time>2026-04-17T14:21:00Z</time></trkpt><trkpt lat="45.822612891768124" lon="9.721550875550387"><ele>452.0</ele><time>2026-04-17T14:21:02Z</time></trkpt><trkpt lat="45.822604509029865" lon="9.721645681786777"><ele>452.00000000000006</ele><time>2026-04-17T14:21:03Z</time></trkpt><trkpt lat="45.822568059491616" lon="9.721812186068751"><ele>452.00000000000006</ele><time>2026-04-17T14:21:05Z</time></trkpt><trkpt lat="45.82250575114044" lon="9.721966043194191"><ele>452.0</ele><time>2026-04-17T14:21:07Z</time></trkpt><trkpt lat="45.82243641422708" lon="9.722110374222924"><ele>452.0</ele><time>2026-04-17T14:21:09Z</time></trkpt><trkpt lat="45.82240107658375" lon="9.722189271558"><ele>450.40000000000003</ele><time>2026-04-17T14:21:10Z</time></trkpt><trkpt lat="45.82232445185944" lon="9.722335118705583"><ele>448.80000000000007</ele><time>2026-04-17T14:21:12Z</time></trkpt><trkpt lat="45.822230735894664" lon="9.722462246969561"><ele>447.2</ele><time>2026-04-17T14:21:14Z</time></trkpt><trkpt lat="45.82218190312157" lon="9.722523859856308"><ele>445.6</ele><time>2026-04-17T14:21:15Z</time></trkpt><trkpt lat="45.822131124360354" lon="9.722582757036234"><ele>444.0</ele><time>2026-04-17T14:21:16Z</time></trkpt><trkpt lat="45.82203205372623" lon="9.722687337544803"><ele>445.0</ele><time>2026-04-17T14:21:18Z</time></trkpt><trkpt lat="45.821979414196655" lon="9.722743810726415"><ele>446.0</ele><time>2026-04-17T14:21:19Z</time></trkpt><trkpt lat="45.821921705586334" lon="9.722792674246847"><ele>447.0</ele><time>2026-04-17T14:21:20Z</time></trkpt><trkpt lat="45.821811451899165" lon="9.72288019795288"><ele>448.0</ele><time>2026-04-17T14:21:22Z</time></trkpt><trkpt lat="45.821759860663725" lon="9.722935066979097"><ele>449.0</ele><time>2026-04-17T14:21:23Z</time></trkpt><trkpt lat="45.82170294961577" lon="9.722979318515756"><ele>450.0</ele><time>2026-04-17T14:21:24Z</time></trkpt><trkpt lat="45.82164930591053" lon="9.723036248611747"><ele>450.0</ele><time>2026-04-17T14:21:25Z</time></trkpt><trkpt lat="45.82154309282814" lon="9.723140537149844"><ele>450.0</ele><time>2026-04-17T14:21:27Z</time></trkpt><trkpt lat="45.82149288959277" lon="9.723200202946664"><ele>450.0</ele><time>2026-04-17T14:21:28Z</time></trkpt><trkpt lat="45.821441505572956" lon="9.723255980468181"><ele>450.0</ele><time>2026-04-17T14:21:29Z</time></trkpt><trkpt lat="45.82139032540957" lon="9.7233100207546"><ele>450.0</ele><time>2026-04-17T14:21:30Z</time></trkpt><trkpt lat="45.821341531327306" lon="9.723370862635754"><ele>450.0</ele><time>2026-04-17T14:21:31Z</time></trkpt><trkpt lat="45.82129112571979" lon="9.723433100542884"><ele>450.0</ele><time>2026-04-17T14:21:32Z</time></trkpt><trkpt lat="45.8211970820955" lon="9.723550746421566"><ele>450.0</ele><time>2026-04-17T14:21:34Z</time></trkpt><trkpt lat="45.82115609607249" lon="9.723621463626772"><ele>450.0</ele><time>2026-04-17T14:21:35Z</time></trkpt><trkpt lat="45.82108420958332" lon="9.72375804729094"><ele>450.0</ele><time>2026-04-17T14:21:37Z</time></trkpt><trkpt lat="45.82103879538433" lon="9.72392027691208"><ele>450.0</ele><time>2026-04-17T14:21:39Z</time></trkpt><trkpt lat="45.82100712622056" lon="9.724088127673726"><ele>451.8</ele><time>2026-04-17T14:21:41Z</time></trkpt><trkpt lat="45.820983208175114" lon="9.724262941306055"><ele>453.6</ele><time>2026-04-17T14:21:43Z</time></trkpt><trkpt lat="45.82095672189594" lon="9.724420488080783"><ele>455.4</ele><time>2026-04-17T14:21:45Z</time></trkpt><trkpt lat="45.82095283264496" lon="9.724514995835522"><ele>457.2</ele><time>2026-04-17T14:21:46Z</time></trkpt><trkpt lat="45.820937245576715" lon="9.72469155040489"><ele>459.0</ele><time>2026-04-17T14:21:48Z</time></trkpt><trkpt lat="45.82091570027504" lon="9.724849799824517"><ele>459.6</ele><time>2026-04-17T14:21:50Z</time></trkpt><trkpt lat="45.820918808061755" lon="9.724947491731553"><ele>460.2</ele><time>2026-04-17T14:21:51Z</time></trkpt><trkpt lat="45.8209157902001" lon="9.725040932438034"><ele>460.80000000000007</ele><time>2026-04-17T14:21:52Z</time></trkpt><trkpt lat="45.82090369766118" lon="9.725208936530999"><ele>461.40000000000003</ele><time>2026-04-17T14:21:54Z</time></trkpt><trkpt lat="45.82087488508499" lon="9.725377013667307"><ele>462.0</ele><time>2026-04-17T14:21:56Z</time></trkpt><trkpt lat="45.82083284652358" lon="9.72553715789589"><ele>460.8</ele><time>2026-04-17T14:21:58Z</time></trkpt><trkpt lat="45.82078964920006" lon="9.72570392402967"><ele>459.6</ele><time>2026-04-17T14:22:00Z</time></trkpt><trkpt lat="45.820756648581934" lon="9.725865206419172"><ele>458.40000000000003</ele><time>2026-04-17T14:22:02Z</time></trkpt><trkpt lat="45.82073117971622" lon="9.725951429667154"><ele>457.20000000000005</ele><time>2026-04-17T14:22:03Z</time></trkpt><trkpt lat="45.820715002889415" lon="9.726129073668215"><ele>456.0</ele><time>2026-04-17T14:22:05Z</time></trkpt><trkpt lat="45.82071199242731" lon="9.726285104805445"><ele>455.8</ele><time>2026-04-17T14:22:07Z</time></trkpt><trkpt lat="45.82070658143196" lon="9.72645988087646"><ele>455.6</ele><time>2026-04-17T14:22:09Z</time></trkpt><trkpt lat="45.82071386391339" lon="9.726647275613153"><ele>455.4</ele><time>2026-04-17T14:22:11Z</time></trkpt><trkpt lat="45.82071836583335" lon="9.72674058271043"><ele>455.2</ele><time>2026-04-17T14:22:12Z</time></trkpt><trkpt lat="45.82070291515358" lon="9.726911259995168"><ele>455.0</ele><time>2026-04-17T14:22:14Z</time></trkpt><trkpt lat="45.820699462565585" lon="9.727083275704388"><ele>457.0</ele><time>2026-04-17T14:22:16Z</time></trkpt><trkpt lat="45.82071312739944" lon="9.727256499986336"><ele>459.0</ele><time>2026-04-17T14:22:18Z</time></trkpt><trkpt lat="45.82073653626174" lon="9.727427230612316"><ele>461.0</ele><time>2026-04-17T14:22:20Z</time></trkpt><trkpt lat="45.820758608613595" lon="9.727597674513998"><ele>463.0</ele><time>2026-04-17T14:22:22Z</time></trkpt><trkpt lat="45.820785392120904" lon="9.727773383378565"><ele>462.79999999999995</ele><time>2026-04-17T14:22:24Z</time></trkpt><trkpt lat="45.82078877679922" lon="9.727946742908733"><ele>462.59999999999997</ele><time>2026-04-17T14:22:26Z</time></trkpt><trkpt lat="45.82076982015434" lon="9.72811962187523"><ele>462.40000000000003</ele><time>2026-04-17T14:22:28Z</time></trkpt><trkpt lat="45.820767318568905" lon="9.728213129736396"><ele>462.20000000000005</ele><time>2026-04-17T14:22:29Z</time></trkpt><trkpt lat="45.82074959562467" lon="9.72839969590657"><ele>462.0</ele><time>2026-04-17T14:22:31Z</time></trkpt><trkpt lat="45.82072062246245" lon="9.728571067031718"><ele>462.0</ele><time>2026-04-17T14:22:33Z</time></trkpt><trkpt lat="45.820704223941036" lon="9.72874206450272"><ele>462.00000000000006</ele><time>2026-04-17T14:22:35Z</time></trkpt><trkpt lat="45.820683813406994" lon="9.72891231012248"><ele>462.00000000000006</ele><time>2026-04-17T14:22:37Z</time></trkpt><trkpt lat="45.82067553123124" lon="9.72900232699004"><ele>462.0</ele><time>2026-04-17T14:22:38Z</time></trkpt><trkpt lat="45.8206533986142" lon="9.729172794618364"><ele>462.0</ele><time>2026-04-17T14:22:40Z</time></trkpt><trkpt lat="45.82064013745378" lon="9.729337532757024"><ele>463.0</ele><time>2026-04-17T14:22:42Z</time></trkpt><trkpt lat="45.820629454724305" lon="9.729507077926353"><ele>464.0</ele><time>2026-04-17T14:22:44Z</time></trkpt><trkpt lat="45.82062070492671" lon="9.729673016854395"><ele>465.0</ele><time>2026-04-17T14:22:46Z</time></trkpt><trkpt lat="45.8206177131687" lon="9.729844399016732"><ele>466.0</ele><time>2026-04-17T14:22:48Z</time></trkpt><trkpt lat="45.82061135448429" lon="9.730017900774056"><ele>466.0</ele><time>2026-04-17T14:22:50Z</time></trkpt><trkpt lat="45.820599668473136" lon="9.730168813800287"><ele>466.0</ele><time>2026-04-17T14:22:52Z</time></trkpt><trkpt lat="45.82059161741991" lon="9.730267192798527"><ele>466.0</ele><time>2026-04-17T14:22:53Z</time></trkpt><trkpt lat="45.820583534579775" lon="9.730444492927964"><ele>466.0</ele><time>2026-04-17T14:22:55Z</time></trkpt><trkpt lat="45.82057442549926" lon="9.730534979218206"><ele>466.0</ele><time>2026-04-17T14:22:56Z</time></trkpt><trkpt lat="45.82054951067493" lon="9.730707920559745"><ele>466.4</ele><time>2026-04-17T14:22:58Z</time></trkpt><trkpt lat="45.82054437210506" lon="9.730799137674474"><ele>466.8</ele><time>2026-04-17T14:22:59Z</time></trkpt><trkpt lat="45.82051895088326" lon="9.730971913548702"><ele>467.19999999999993</ele><time>2026-04-17T14:23:01Z</time></trkpt><trkpt lat="45.8204884037603" lon="9.731139387864067"><ele>467.59999999999997</ele><time>2026-04-17T14:23:03Z</time></trkpt><trkpt lat="45.8204705150798" lon="9.731311979642184"><ele>468.0</ele><time>2026-04-17T14:23:05Z</time></trkpt><trkpt lat="45.820450386881035" lon="9.731484442920122"><ele>468.25</ele><time>2026-04-17T14:23:07Z</time></trkpt><trkpt lat="45.8204279906804" lon="9.731655570490592"><ele>468.5</ele><time>2026-04-17T14:23:09Z</time></trkpt><trkpt lat="45.82041063038528" lon="9.731827927205906"><ele>468.75</ele><time>2026-04-17T14:23:11Z</time></trkpt><trkpt lat="45.82038923841769" lon="9.731994428335113"><ele>469.0</ele><time>2026-04-17T14:23:13Z</time></trkpt><trkpt lat="45.82036897497102" lon="9.732156031597139"><ele>470.5</ele><time>2026-04-17T14:23:15Z</time></trkpt><trkpt lat="45.82035986669751" lon="9.732331290563547"><ele>472.0</ele><time>2026-04-17T14:23:17Z</time></trkpt><trkpt lat="45.82035132855005" lon="9.732500462703326"><ele>473.5</ele><time>2026-04-17T14:23:19Z</time></trkpt><trkpt lat="45.82035823008218" lon="9.73267732634942"><ele>475.0</ele><time>2026-04-17T14:23:21Z</time></trkpt><trkpt lat="45.82035687856787" lon="9.732849400223254"><ele>475.0</ele><time>2026-04-17T14:23:23Z</time></trkpt><trkpt lat="45.82035025978689" lon="9.733020948704388"><ele>475.0</ele><time>2026-04-17T14:23:25Z</time></trkpt><trkpt lat="45.8203468203613" lon="9.733192590604915"><ele>475.0</ele><time>2026-04-17T14:23:27Z</time></trkpt><trkpt lat="45.82034820172355" lon="9.733361419941655"><ele>475.0</ele><time>2026-04-17T14:23:29Z</time></trkpt><trkpt lat="45.82033719949276" lon="9.7335053253201"><ele>477.4</ele><time>2026-04-17T14:23:31Z</time></trkpt><trkpt lat="45.8203363487459" lon="9.733608399015193"><ele>479.8</ele><time>2026-04-17T14:23:32Z</time></trkpt><trkpt lat="45.820315172810666" lon="9.733775234610723"><ele>482.20000000000005</ele><time>2026-04-17T14:23:34Z</time></trkpt><trkpt lat="45.820291136758584" lon="9.73394085881504"><ele>484.6</ele><time>2026-04-17T14:23:36Z</time></trkpt><trkpt lat="45.820239216041955" lon="9.734094574856915"><ele>487.0</ele><time>2026-04-17T14:23:38Z</time></trkpt><trkpt lat="45.82018182490523" lon="9.734245377599672"><ele>487.20000000000005</ele><time>2026-04-17T14:23:40Z</time></trkpt><trkpt lat="45.820127638365335" lon="9.734402876034256"><ele>487.40000000000003</ele><time>2026-04-17T14:23:42Z</time></trkpt><trkpt lat="45.820071398597136" lon="9.734552155973335"><ele>487.59999999999997</ele><time>2026-04-17T14:23:44Z</time></trkpt><trkpt lat="45.82002377001398" lon="9.734620567633408"><ele>487.79999999999995</ele><time>2026-04-17T14:23:45Z</time></trkpt><trkpt lat="45.81990561307964" lon="9.734677610073192"><ele>488.0</ele><time>2026-04-17T14:23:47Z</time></trkpt><trkpt lat="45.81984153980139" lon="9.734696105993786"><ele>488.0</ele><time>2026-04-17T14:23:48Z</time></trkpt><trkpt lat="45.81977852995101" lon="9.73470495980443"><ele>487.99999999999994</ele><time>2026-04-17T14:23:49Z</time></trkpt><trkpt lat="45.819652762931376" lon="9.734716688670996"><ele>487.99999999999994</ele><time>2026-04-17T14:23:51Z</time></trkpt><trkpt lat="45.819530904464976" lon="9.734729548972206"><ele>488.0</ele><time>2026-04-17T14:23:53Z</time></trkpt><trkpt lat="45.81941904768421" lon="9.734745040291338"><ele>488.0</ele><time>2026-04-17T14:23:55Z</time></trkpt><trkpt lat="45.81931888273184" lon="9.734784109757433"><ele>488.5</ele><time>2026-04-17T14:23:57Z</time></trkpt><trkpt lat="45.819221925165216" lon="9.734823010861387"><ele>489.0</ele><time>2026-04-17T14:23:59Z</time></trkpt><trkpt lat="45.8191207013742" lon="9.734896834408369"><ele>489.5</ele><time>2026-04-17T14:24:01Z</time></trkpt><trkpt lat="45.81901238638656" lon="9.734981561571123"><ele>490.0</ele><time>2026-04-17T14:24:03Z</time></trkpt><trkpt lat="45.81890472476555" lon="9.735075920069796"><ele>490.0</ele><time>2026-04-17T14:24:05Z</time></trkpt><trkpt lat="45.81880465148612" lon="9.735180552359399"><ele>490.0</ele><time>2026-04-17T14:24:07Z</time></trkpt><trkpt lat="45.81870888538065" lon="9.735295795598997"><ele>490.0</ele><time>2026-04-17T14:24:09Z</time></trkpt><trkpt lat="45.81861509209664" lon="9.735409561250606"><ele>490.0</ele><time>2026-04-17T14:24:11Z</time></trkpt><trkpt lat="45.81852875681396" lon="9.735528032095756"><ele>489.5</ele><time>2026-04-17T14:24:13Z</time></trkpt><trkpt lat="45.81844573157811" lon="9.735659406232665"><ele>489.0</ele><time>2026-04-17T14:24:15Z</time></trkpt><trkpt lat="45.818371304004096" lon="9.735786409985026"><ele>488.5</ele><time>2026-04-17T14:24:17Z</time></trkpt><trkpt lat="45.81831372288133" lon="9.735938435483286"><ele>488.0</ele><time>2026-04-17T14:24:19Z</time></trkpt><trkpt lat="45.818261384517434" lon="9.736093966295002"><ele>488.0</ele><time>2026-04-17T14:24:21Z</time></trkpt><trkpt lat="45.81821088056501" lon="9.736252094753661"><ele>487.99999999999994</ele><time>2026-04-17T14:24:23Z</time></trkpt><trkpt lat="45.81818613612931" lon="9.73633729326761"><ele>487.99999999999994</ele><time>2026-04-17T14:24:24Z</time></trkpt><trkpt lat="45.818139588147055" lon="9.736519124942852"><ele>488.0</ele><time>2026-04-17T14:24:26Z</time></trkpt><trkpt lat="45.81809798213149" lon="9.736666614132666"><ele>488.0</ele><time>2026-04-17T14:24:28Z</time></trkpt><trkpt lat="45.81805426333411" lon="9.736831715968227"><ele>489.59999999999997</ele><time>2026-04-17T14:24:30Z</time></trkpt><trkpt lat="45.81800849414561" lon="9.736989311765418"><ele>491.19999999999993</ele><time>2026-04-17T14:24:32Z</time></trkpt><trkpt lat="45.81798758846759" lon="9.737076720183804"><ele>492.8</ele><time>2026-04-17T14:24:33Z</time></trkpt><trkpt lat="45.817926233480044" lon="9.737235438505563"><ele>494.4</ele><time>2026-04-17T14:24:35Z</time></trkpt><trkpt lat="45.81789548559209" lon="9.737322410985374"><ele>496.0</ele><time>2026-04-17T14:24:36Z</time></trkpt><trkpt lat="45.817843249426474" lon="9.737470054145035"><ele>496.0</ele><time>2026-04-17T14:24:38Z</time></trkpt><trkpt lat="45.81778820765845" lon="9.737624977971034"><ele>496.0</ele><time>2026-04-17T14:24:40Z</time></trkpt><trkpt lat="45.8177307766142" lon="9.73778112579276"><ele>496.0</ele><time>2026-04-17T14:24:42Z</time></trkpt><trkpt lat="45.81766954497903" lon="9.73793087679841"><ele>496.0</ele><time>2026-04-17T14:24:44Z</time></trkpt><trkpt lat="45.81760807303635" lon="9.738076686656546"><ele>492.0</ele><time>2026-04-17T14:24:46Z</time></trkpt><trkpt lat="45.81754909038002" lon="9.738225517389532"><ele>488.0</ele><time>2026-04-17T14:24:48Z</time></trkpt><trkpt lat="45.81749516422691" lon="9.738376351070182"><ele>484.0</ele><time>2026-04-17T14:24:50Z</time></trkpt><trkpt lat="45.817442279404474" lon="9.738526651942365"><ele>480.0</ele><time>2026-04-17T14:24:52Z</time></trkpt><trkpt lat="45.817391301367586" lon="9.738680203433116"><ele>480.0</ele><time>2026-04-17T14:24:54Z</time></trkpt><trkpt lat="45.81733476377189" lon="9.738832169651154"><ele>480.0</ele><time>2026-04-17T14:24:56Z</time></trkpt><trkpt lat="45.81728246595138" lon="9.738988625363481"><ele>480.0</ele><time>2026-04-17T14:24:58Z</time></trkpt><trkpt lat="45.81722979419202" lon="9.739146795579382"><ele>480.0</ele><time>2026-04-17T14:25:00Z</time></trkpt><trkpt lat="45.817179227578684" lon="9.739304251337224"><ele>482.8</ele><time>2026-04-17T14:25:02Z</time></trkpt><trkpt lat="45.81714695622327" lon="9.739384540718609"><ele>485.6</ele><time>2026-04-17T14:25:03Z</time></trkpt><trkpt lat="45.8170883679636" lon="9.739539755768048"><ele>488.4</ele><time>2026-04-17T14:25:05Z</time></trkpt><trkpt lat="45.81704878857003" lon="9.739612905374063"><ele>491.2</ele><time>2026-04-17T14:25:06Z</time></trkpt><trkpt lat="45.816962602227676" lon="9.73973271427823"><ele>494.0</ele><time>2026-04-17T14:25:08Z</time></trkpt><trkpt lat="45.81685544830177" lon="9.739823064925769"><ele>492.4</ele><time>2026-04-17T14:25:10Z</time></trkpt><trkpt lat="45.81679819890344" lon="9.739868064087078"><ele>490.79999999999995</ele><time>2026-04-17T14:25:11Z</time></trkpt><trkpt lat="45.81667922580143" lon="9.739921606840422"><ele>489.20000000000005</ele><time>2026-04-17T14:25:13Z</time></trkpt><trkpt lat="45.816551955452134" lon="9.739962483639871"><ele>487.6</ele><time>2026-04-17T14:25:15Z</time></trkpt><trkpt lat="45.816428662976755" lon="9.739994572998624"><ele>486.0</ele><time>2026-04-17T14:25:17Z</time></trkpt><trkpt lat="45.816311726549614" lon="9.739997658975623"><ele>486.0</ele><time>2026-04-17T14:25:19Z</time></trkpt><trkpt lat="45.81619419067607" lon="9.740015554743385"><ele>486.0</ele><time>2026-04-17T14:25:21Z</time></trkpt><trkpt lat="45.81608251130118" lon="9.740064583556686"><ele>486.0</ele><time>2026-04-17T14:25:23Z</time></trkpt><trkpt lat="45.815974987629204" lon="9.740138842385804"><ele>486.0</ele><time>2026-04-17T14:25:25Z</time></trkpt><trkpt lat="45.815921966117074" lon="9.740193900056944"><ele>486.0</ele><time>2026-04-17T14:25:26Z</time></trkpt><trkpt lat="45.8158316852839" lon="9.740309654147568"><ele>486.20000000000005</ele><time>2026-04-17T14:25:28Z</time></trkpt><trkpt lat="45.815795389492" lon="9.740383708437017"><ele>486.40000000000003</ele><time>2026-04-17T14:25:29Z</time></trkpt><trkpt lat="45.815748215581806" lon="9.740541667162747"><ele>486.6</ele><time>2026-04-17T14:25:31Z</time></trkpt><trkpt lat="45.815718300183626" lon="9.740711805807406"><ele>486.8</ele><time>2026-04-17T14:25:33Z</time></trkpt><trkpt lat="45.815715665883396" lon="9.7408816887715"><ele>487.0</ele><time>2026-04-17T14:25:35Z</time></trkpt><trkpt lat="45.815735203127794" lon="9.741048228822539"><ele>487.75</ele><time>2026-04-17T14:25:37Z</time></trkpt><trkpt lat="45.81575235836843" lon="9.741215390039729"><ele>488.5</ele><time>2026-04-17T14:25:39Z</time></trkpt><trkpt lat="45.81575489791554" lon="9.741380563381309"><ele>489.25</ele><time>2026-04-17T14:25:41Z</time></trkpt><trkpt lat="45.81575076626423" lon="9.74154903467584"><ele>490.0</ele><time>2026-04-17T14:25:43Z</time></trkpt><trkpt lat="45.81574607785482" lon="9.741715840991583"><ele>490.0</ele><time>2026-04-17T14:25:45Z</time></trkpt><trkpt lat="45.81572847245252" lon="9.741881799523181"><ele>490.0</ele><time>2026-04-17T14:25:47Z</time></trkpt><trkpt lat="45.8157006661792" lon="9.742041584016153"><ele>490.0</ele><time>2026-04-17T14:25:49Z</time></trkpt><trkpt lat="45.81567333952422" lon="9.74220078268615"><ele>490.0</ele><time>2026-04-17T14:25:51Z</time></trkpt><trkpt lat="45.81561161740219" lon="9.742324472078723"><ele>492.8</ele><time>2026-04-17T14:25:53Z</time></trkpt><trkpt lat="45.81552572624384" lon="9.742411193102857"><ele>495.6</ele><time>2026-04-17T14:25:55Z</time></trkpt><trkpt lat="45.815429379876974" lon="9.742484680942189"><ele>498.4</ele><time>2026-04-17T14:25:57Z</time></trkpt><trkpt lat="45.815344074734114" lon="9.742577691864476"><ele>501.2</ele><time>2026-04-17T14:25:59Z</time></trkpt><trkpt lat="45.81526932681449" lon="9.742684376524128"><ele>504.0</ele><time>2026-04-17T14:26:01Z</time></trkpt><trkpt lat="45.81519335123604" lon="9.742798640851722"><ele>503.6</ele><time>2026-04-17T14:26:03Z</time></trkpt><trkpt lat="45.815124585647716" lon="9.742920193751415"><ele>503.2</ele><time>2026-04-17T14:26:05Z</time></trkpt><trkpt lat="45.81503983675179" lon="9.743010207220927"><ele>502.80000000000007</ele><time>2026-04-17T14:26:07Z</time></trkpt><trkpt lat="45.81495708889168" lon="9.743088782110261"><ele>502.40000000000003</ele><time>2026-04-17T14:26:09Z</time></trkpt><trkpt lat="45.81486961017119" lon="9.743157199364576"><ele>502.0</ele><time>2026-04-17T14:26:11Z</time></trkpt><trkpt lat="45.814785899093586" lon="9.743221543607952"><ele>502.00000000000006</ele><time>2026-04-17T14:26:13Z</time></trkpt><trkpt lat="45.81470360353664" lon="9.743284384163605"><ele>502.0</ele><time>2026-04-17T14:26:15Z</time></trkpt><trkpt lat="45.81462677658721" lon="9.74333651854368"><ele>502.0</ele><time>2026-04-17T14:26:17Z</time></trkpt><trkpt lat="45.81456270064361" lon="9.743417044039651"><ele>502.0</ele><time>2026-04-17T14:26:19Z</time></trkpt><trkpt lat="45.81454747329841" lon="9.74353531041389"><ele>502.00000000000006</ele><time>2026-04-17T14:26:21Z</time></trkpt><trkpt lat="45.814609058598094" lon="9.743638616934762"><ele>502.0</ele><time>2026-04-17T14:26:23Z</time></trkpt><trkpt lat="45.814708284821066" lon="9.74361083771076"><ele>502.00000000000006</ele><time>2026-04-17T14:26:25Z</time></trkpt><trkpt lat="45.81478323816014" lon="9.743557515308515"><ele>502.0</ele><time>2026-04-17T14:26:27Z</time></trkpt><trkpt lat="45.81486753605628" lon="9.743532393150536"><ele>502.0</ele><time>2026-04-17T14:26:29Z</time></trkpt><trkpt lat="45.81495872035818" lon="9.74351486134492"><ele>502.0</ele><time>2026-04-17T14:26:31Z</time></trkpt><trkpt lat="45.81503689342739" lon="9.743584283146628"><ele>502.00000000000006</ele><time>2026-04-17T14:26:33Z</time></trkpt><trkpt lat="45.81507503022535" lon="9.743708703146835"><ele>502.0</ele><time>2026-04-17T14:26:35Z</time></trkpt><trkpt lat="45.815060781464965" lon="9.74385164697333"><ele>503.1666666666667</ele><time>2026-04-17T14:26:37Z</time></trkpt><trkpt lat="45.81501194736911" lon="9.743966692457875"><ele>504.33333333333337</ele><time>2026-04-17T14:26:39Z</time></trkpt><trkpt lat="45.81497057241976" lon="9.74408658765048"><ele>505.5</ele><time>2026-04-17T14:26:41Z</time></trkpt><trkpt lat="45.814938570869685" lon="9.74420294681486"><ele>506.66666666666663</ele><time>2026-04-17T14:26:43Z</time></trkpt><trkpt lat="45.81489935838931" lon="9.744313246435349"><ele>507.8333333333333</ele><time>2026-04-17T14:26:45Z</time></trkpt><trkpt lat="45.8148578350409" lon="9.744418843261956"><ele>509.0</ele><time>2026-04-17T14:26:47Z</time></trkpt><trkpt lat="45.81482012348753" lon="9.744526353721332"><ele>511.3333333333333</ele><time>2026-04-17T14:26:49Z</time></trkpt><trkpt lat="45.81478614626136" lon="9.744639297608936"><ele>513.6666666666666</ele><time>2026-04-17T14:26:51Z</time></trkpt><trkpt lat="45.814747477517706" lon="9.744749500418607"><ele>516.0</ele><time>2026-04-17T14:26:53Z</time></trkpt><trkpt lat="45.81470656725388" lon="9.744856139662604"><ele>518.3333333333334</ele><time>2026-04-17T14:26:55Z</time></trkpt><trkpt lat="45.814686361560554" lon="9.74496932563995"><ele>520.6666666666667</ele><time>2026-04-17T14:26:57Z</time></trkpt><trkpt lat="45.814729762427845" lon="9.745064381027879"><ele>523.0</ele><time>2026-04-17T14:26:59Z</time></trkpt><trkpt lat="45.81481510217019" lon="9.745102867600055"><ele>523.0</ele><time>2026-04-17T14:27:01Z</time></trkpt><trkpt lat="45.814886710224535" lon="9.74504311447316"><ele>523.0</ele><time>2026-04-17T14:27:03Z</time></trkpt><trkpt lat="45.814954032456846" lon="9.744972590787757"><ele>523.0</ele><time>2026-04-17T14:27:05Z</time></trkpt><trkpt lat="45.815022618134506" lon="9.744904611366604"><ele>523.0</ele><time>2026-04-17T14:27:07Z</time></trkpt><trkpt lat="45.81509817380347" lon="9.744839370819744"><ele>523.0</ele><time>2026-04-17T14:27:09Z</time></trkpt><trkpt lat="45.81517385817244" lon="9.744769849260368"><ele>523.0</ele><time>2026-04-17T14:27:11Z</time></trkpt><trkpt lat="45.815251449503215" lon="9.744705481248808"><ele>524.3333333333334</ele><time>2026-04-17T14:27:13Z</time></trkpt><trkpt lat="45.81533570417051" lon="9.744657067485171"><ele>525.6666666666667</ele><time>2026-04-17T14:27:15Z</time></trkpt><trkpt lat="45.815422263994236" lon="9.744614942949115"><ele>527.0</ele><time>2026-04-17T14:27:17Z</time></trkpt><trkpt lat="45.81549840005115" lon="9.744551724294933"><ele>528.3333333333334</ele><time>2026-04-17T14:27:19Z</time></trkpt><trkpt lat="45.8155735177782" lon="9.744482332833716"><ele>529.6666666666666</ele><time>2026-04-17T14:27:21Z</time></trkpt><trkpt lat="45.81563659466299" lon="9.744405390263486"><ele>531.0</ele><time>2026-04-17T14:27:23Z</time></trkpt><trkpt lat="45.81569880266885" lon="9.744330648111777"><ele>531.0</ele><time>2026-04-17T14:27:25Z</time></trkpt><trkpt lat="45.81574125246018" lon="9.744232293917493"><ele>531.0</ele><time>2026-04-17T14:27:27Z</time></trkpt><trkpt lat="45.815784782414504" lon="9.74412551535104"><ele>531.0</ele><time>2026-04-17T14:27:29Z</time></trkpt><trkpt lat="45.8158217781413" lon="9.74400685443899"><ele>531.0</ele><time>2026-04-17T14:27:31Z</time></trkpt><trkpt lat="45.81585925861202" lon="9.74387959249451"><ele>531.0</ele><time>2026-04-17T14:27:33Z</time></trkpt><trkpt lat="45.815898961590854" lon="9.743761656496371"><ele>531.0</ele><time>2026-04-17T14:27:35Z</time></trkpt><trkpt lat="45.815925739806055" lon="9.743645393998314"><ele>532.3333333333334</ele><time>2026-04-17T14:27:37Z</time></trkpt><trkpt lat="45.81595390465082" lon="9.74352934665511"><ele>533.6666666666666</ele><time>2026-04-17T14:27:39Z</time></trkpt><trkpt lat="45.81599134805131" lon="9.743425909454713"><ele>535.0</ele><time>2026-04-17T14:27:41Z</time></trkpt><trkpt lat="45.81605012479819" lon="9.743349263280628"><ele>536.3333333333333</ele><time>2026-04-17T14:27:43Z</time></trkpt><trkpt lat="45.81610535862488" lon="9.74343728188761"><ele>537.6666666666666</ele><time>2026-04-17T14:27:45Z</time></trkpt><trkpt lat="45.81606362499785" lon="9.743556570483038"><ele>539.0</ele><time>2026-04-17T14:27:47Z</time></trkpt><trkpt lat="45.81602108125777" lon="9.743657365441091"><ele>537.6666666666666</ele><time>2026-04-17T14:27:49Z</time></trkpt><trkpt lat="45.815995917899485" lon="9.743773608715443"><ele>536.3333333333333</ele><time>2026-04-17T14:27:51Z</time></trkpt><trkpt lat="45.815975980770375" lon="9.743886890838398"><ele>535.0</ele><time>2026-04-17T14:27:53Z</time></trkpt><trkpt lat="45.81595535874575" lon="9.74399677624075"><ele>533.6666666666666</ele><time>2026-04-17T14:27:55Z</time></trkpt><trkpt lat="45.81593269622906" lon="9.744105109566846"><ele>532.3333333333334</ele><time>2026-04-17T14:27:57Z</time></trkpt><trkpt lat="45.815911209577" lon="9.744214156429626"><ele>531.0</ele><time>2026-04-17T14:27:59Z</time></trkpt><trkpt lat="45.815885076695004" lon="9.74432235767622"><ele>536.2</ele><time>2026-04-17T14:28:01Z</time></trkpt><trkpt lat="45.81585119416747" lon="9.744436644427177"><ele>541.4000000000001</ele><time>2026-04-17T14:28:03Z</time></trkpt><trkpt lat="45.81579991642156" lon="9.74454001913394"><ele>546.6</ele><time>2026-04-17T14:28:05Z</time></trkpt><trkpt lat="45.81574689803593" lon="9.744645310192926"><ele>551.8000000000001</ele><time>2026-04-17T14:28:07Z</time></trkpt><trkpt lat="45.815698011188566" lon="9.744757741393787"><ele>557.0</ele><time>2026-04-17T14:28:09Z</time></trkpt><trkpt lat="45.8156376593304" lon="9.744865675039023"><ele>557.0</ele><time>2026-04-17T14:28:11Z</time></trkpt><trkpt lat="45.81557624988322" lon="9.74497024418131"><ele>557.0</ele><time>2026-04-17T14:28:13Z</time></trkpt><trkpt lat="45.815510298433736" lon="9.745073734862792"><ele>557.0</ele><time>2026-04-17T14:28:15Z</time></trkpt><trkpt lat="45.81543836507408" lon="9.745186048673622"><ele>557.0</ele><time>2026-04-17T14:28:17Z</time></trkpt><trkpt lat="45.815356029778584" lon="9.745297110936246"><ele>557.0</ele><time>2026-04-17T14:28:19Z</time></trkpt><trkpt lat="45.815275447331075" lon="9.74539964611099"><ele>553.25</ele><time>2026-04-17T14:28:21Z</time></trkpt><trkpt lat="45.81518692252682" lon="9.74550387115604"><ele>549.5</ele><time>2026-04-17T14:28:23Z</time></trkpt><trkpt lat="45.81508755886744" lon="9.745601188147813"><ele>545.75</ele><time>2026-04-17T14:28:25Z</time></trkpt><trkpt lat="45.81498698187412" lon="9.745695984373553"><ele>542.0</ele><time>2026-04-17T14:28:27Z</time></trkpt><trkpt lat="45.81491259722228" lon="9.745802475037642"><ele>542.0</ele><time>2026-04-17T14:28:29Z</time></trkpt><trkpt lat="45.81489719784809" lon="9.745971988679326"><ele>542.0</ele><time>2026-04-17T14:28:31Z</time></trkpt><trkpt lat="45.81484212788905" lon="9.746096040000655"><ele>542.0</ele><time>2026-04-17T14:28:33Z</time></trkpt><trkpt lat="45.81477771585502" lon="9.746209604201189"><ele>542.0</ele><time>2026-04-17T14:28:35Z</time></trkpt><trkpt lat="45.81474811214771" lon="9.746326374891797"><ele>542.0</ele><time>2026-04-17T14:28:37Z</time></trkpt><trkpt lat="45.81475182518669" lon="9.746467893349172"><ele>545.4</ele><time>2026-04-17T14:28:39Z</time></trkpt><trkpt lat="45.81474465015373" lon="9.746614720954167"><ele>548.8000000000001</ele><time>2026-04-17T14:28:41Z</time></trkpt><trkpt lat="45.814760469338445" lon="9.746759612339684"><ele>552.2</ele><time>2026-04-17T14:28:43Z</time></trkpt><trkpt lat="45.81478930667608" lon="9.746909150773929"><ele>555.6</ele><time>2026-04-17T14:28:45Z</time></trkpt><trkpt lat="45.81481040661445" lon="9.74705470772346"><ele>559.0</ele><time>2026-04-17T14:28:47Z</time></trkpt><trkpt lat="45.81484024457309" lon="9.74721043706695"><ele>559.2</ele><time>2026-04-17T14:28:49Z</time></trkpt><trkpt lat="45.814868700641085" lon="9.747359900706664"><ele>559.4</ele><time>2026-04-17T14:28:51Z</time></trkpt><trkpt lat="45.81490287726505" lon="9.747507406953272"><ele>559.6</ele><time>2026-04-17T14:28:53Z</time></trkpt><trkpt lat="45.81493230363875" lon="9.74765705957988"><ele>559.8</ele><time>2026-04-17T14:28:55Z</time></trkpt><trkpt lat="45.8149523882817" lon="9.74780658844074"><ele>560.0</ele><time>2026-04-17T14:28:57Z</time></trkpt><trkpt lat="45.814970467681825" lon="9.747951523843936"><ele>560.0</ele><time>2026-04-17T14:28:59Z</time></trkpt><trkpt lat="45.814975674793914" lon="9.748099027692303"><ele>560.0</ele><time>2026-04-17T14:29:01Z</time></trkpt><trkpt lat="45.81495861813561" lon="9.748252438804759"><ele>560.0</ele><time>2026-04-17T14:29:03Z</time></trkpt><trkpt lat="45.81491773297631" lon="9.748395854832115"><ele>560.0</ele><time>2026-04-17T14:29:05Z</time></trkpt><trkpt lat="45.814882607773995" lon="9.748534900012602"><ele>560.0</ele><time>2026-04-17T14:29:07Z</time></trkpt><trkpt lat="45.81482739517577" lon="9.748654569633635"><ele>561.1666666666666</ele><time>2026-04-17T14:29:09Z</time></trkpt><trkpt lat="45.81476109043891" lon="9.748730590828849"><ele>562.3333333333333</ele><time>2026-04-17T14:29:11Z</time></trkpt><trkpt lat="45.8146871151633" lon="9.748793178194159"><ele>563.5</ele><time>2026-04-17T14:29:13Z</time></trkpt><trkpt lat="45.81461775720271" lon="9.748852553238333"><ele>564.6666666666666</ele><time>2026-04-17T14:29:15Z</time></trkpt><trkpt lat="45.814546541862946" lon="9.748922543815906"><ele>565.8333333333334</ele><time>2026-04-17T14:29:17Z</time></trkpt><trkpt lat="45.814489495805816" lon="9.749002284768158"><ele>567.0</ele><time>2026-04-17T14:29:19Z</time></trkpt><trkpt lat="45.8144354230484" lon="9.74908431507882"><ele>567.0</ele><time>2026-04-17T14:29:21Z</time></trkpt><trkpt lat="45.81439123471715" lon="9.749169597911552"><ele>567.0</ele><time>2026-04-17T14:29:23Z</time></trkpt><trkpt lat="45.81435337372675" lon="9.749260444691114"><ele>567.0</ele><time>2026-04-17T14:29:25Z</time></trkpt><trkpt lat="45.81434442952547" lon="9.74938887297705"><ele>567.0</ele><time>2026-04-17T14:29:28Z</time></trkpt><trkpt lat="45.8144255632482" lon="9.749417045891457"><ele>567.0</ele><time>2026-04-17T14:29:31Z</time></trkpt><trkpt lat="45.81449032951213" lon="9.7493458043185"><ele>567.0</ele><time>2026-04-17T14:29:33Z</time></trkpt><trkpt lat="45.81455231817539" lon="9.749291749451574"><ele>567.0</ele><time>2026-04-17T14:29:35Z</time></trkpt><trkpt lat="45.81461875359954" lon="9.749268576631044"><ele>567.0</ele><time>2026-04-17T14:29:37Z</time></trkpt><trkpt lat="45.81468549963794" lon="9.749272891464733"><ele>567.0</ele><time>2026-04-17T14:29:39Z</time></trkpt><trkpt lat="45.81475216800455" lon="9.749312068556137"><ele>567.0</ele><time>2026-04-17T14:29:41Z</time></trkpt><trkpt lat="45.81480807502579" lon="9.749377535480416"><ele>567.0</ele><time>2026-04-17T14:29:43Z</time></trkpt><trkpt lat="45.814853705611775" lon="9.749459733299409"><ele>567.0</ele><time>2026-04-17T14:29:45Z</time></trkpt><trkpt lat="45.81490439453274" lon="9.749526130876676"><ele>567.0</ele><time>2026-04-17T14:29:47Z</time></trkpt><trkpt lat="45.81495581341306" lon="9.749595297444767"><ele>570.4285714285714</ele><time>2026-04-17T14:29:49Z</time></trkpt><trkpt lat="45.815013119698925" lon="9.74965444000498"><ele>573.8571428571429</ele><time>2026-04-17T14:29:51Z</time></trkpt><trkpt lat="45.81507878352414" lon="9.749709734898152"><ele>577.2857142857142</ele><time>2026-04-17T14:29:53Z</time></trkpt><trkpt lat="45.81513745103509" lon="9.749763566650241"><ele>580.7142857142858</ele><time>2026-04-17T14:29:55Z</time></trkpt><trkpt lat="45.8152052477298" lon="9.74979987223158"><ele>584.1428571428571</ele><time>2026-04-17T14:29:57Z</time></trkpt><trkpt lat="45.81527492445046" lon="9.749835832285086"><ele>587.5714285714286</ele><time>2026-04-17T14:29:59Z</time></trkpt><trkpt lat="45.815350524921584" lon="9.749834527197025"><ele>591.0</ele><time>2026-04-17T14:30:01Z</time></trkpt><trkpt lat="45.815425745398294" lon="9.749813191045288"><ele>594.0</ele><time>2026-04-17T14:30:03Z</time></trkpt><trkpt lat="45.8154923446277" lon="9.749774762888753"><ele>597.0</ele><time>2026-04-17T14:30:05Z</time></trkpt><trkpt lat="45.815564412539125" lon="9.749739687248697"><ele>600.0</ele><time>2026-04-17T14:30:07Z</time></trkpt><trkpt lat="45.81563568444215" lon="9.749704338971851"><ele>603.0</ele><time>2026-04-17T14:30:09Z</time></trkpt><trkpt lat="45.81571235070226" lon="9.749681885892898"><ele>606.0</ele><time>2026-04-17T14:30:11Z</time></trkpt><trkpt lat="45.81578763741983" lon="9.749657624966577"><ele>609.0</ele><time>2026-04-17T14:30:13Z</time></trkpt><trkpt lat="45.81586842690644" lon="9.749638710728782"><ele>609.0</ele><time>2026-04-17T14:30:15Z</time></trkpt><trkpt lat="45.81595529736386" lon="9.749624986007401"><ele>609.0</ele><time>2026-04-17T14:30:17Z</time></trkpt><trkpt lat="45.81603457391629" lon="9.74961244613806"><ele>609.0</ele><time>2026-04-17T14:30:19Z</time></trkpt><trkpt lat="45.816116505856" lon="9.74962288770489"><ele>609.0</ele><time>2026-04-17T14:30:21Z</time></trkpt><trkpt lat="45.816195337924924" lon="9.74965292442605"><ele>609.0</ele><time>2026-04-17T14:30:23Z</time></trkpt><trkpt lat="45.816269600985876" lon="9.74968444568598"><ele>609.0</ele><time>2026-04-17T14:30:25Z</time></trkpt><trkpt lat="45.816342240275" lon="9.749728481223407"><ele>609.8333333333334</ele><time>2026-04-17T14:30:27Z</time></trkpt><trkpt lat="45.816399999203675" lon="9.749797113670027"><ele>610.6666666666666</ele><time>2026-04-17T14:30:29Z</time></trkpt><trkpt lat="45.81645376120863" lon="9.749887324541625"><ele>611.5</ele><time>2026-04-17T14:30:31Z</time></trkpt><trkpt lat="45.816501597361196" lon="9.749983519648845"><ele>612.3333333333333</ele><time>2026-04-17T14:30:33Z</time></trkpt><trkpt lat="45.81655394786088" lon="9.750076054822937"><ele>613.1666666666666</ele><time>2026-04-17T14:30:35Z</time></trkpt><trkpt lat="45.816609931092515" lon="9.750163229900808"><ele>614.0</ele><time>2026-04-17T14:30:37Z</time></trkpt><trkpt lat="45.81666928422928" lon="9.750234671680465"><ele>618.0</ele><time>2026-04-17T14:30:39Z</time></trkpt><trkpt lat="45.81673250574053" lon="9.75030252035957"><ele>622.0</ele><time>2026-04-17T14:30:41Z</time></trkpt><trkpt lat="45.81679851146911" lon="9.750361286864601"><ele>626.0</ele><time>2026-04-17T14:30:43Z</time></trkpt><trkpt lat="45.81685749485793" lon="9.750413972823218"><ele>630.0</ele><time>2026-04-17T14:30:45Z</time></trkpt><trkpt lat="45.816929030172766" lon="9.750472533214445"><ele>634.0</ele><time>2026-04-17T14:30:47Z</time></trkpt><trkpt lat="45.81699769876151" lon="9.750521114608217"><ele>638.0</ele><time>2026-04-17T14:30:49Z</time></trkpt><trkpt lat="45.81706918530501" lon="9.750559368061928"><ele>638.5714285714286</ele><time>2026-04-17T14:30:51Z</time></trkpt><trkpt lat="45.81713458425533" lon="9.75056112986625"><ele>639.1428571428571</ele><time>2026-04-17T14:30:53Z</time></trkpt><trkpt lat="45.81720733555638" lon="9.750594197191461"><ele>639.7142857142857</ele><time>2026-04-17T14:30:55Z</time></trkpt><trkpt lat="45.81728407116533" lon="9.75056896257813"><ele>640.2857142857142</ele><time>2026-04-17T14:30:57Z</time></trkpt><trkpt lat="45.817344696995356" lon="9.750541693572371"><ele>640.8571428571429</ele><time>2026-04-17T14:30:59Z</time></trkpt><trkpt lat="45.81740988259235" lon="9.75053556551676"><ele>641.4285714285713</ele><time>2026-04-17T14:31:01Z</time></trkpt><trkpt lat="45.81747658356344" lon="9.750516653104379"><ele>642.0</ele><time>2026-04-17T14:31:03Z</time></trkpt><trkpt lat="45.81754016554762" lon="9.750489684665611"><ele>641.9999999999999</ele><time>2026-04-17T14:31:05Z</time></trkpt><trkpt lat="45.817608515257" lon="9.750460048625296"><ele>642.0</ele><time>2026-04-17T14:31:07Z</time></trkpt><trkpt lat="45.81768841166603" lon="9.750412728433815"><ele>642.0</ele><time>2026-04-17T14:31:10Z</time></trkpt><trkpt lat="45.81774679269265" lon="9.75037430972619"><ele>642.0</ele><time>2026-04-17T14:31:12Z</time></trkpt><trkpt lat="45.81781026658302" lon="9.750343461544894"><ele>642.0</ele><time>2026-04-17T14:31:14Z</time></trkpt><trkpt lat="45.8178742232911" lon="9.75031897828378"><ele>641.9999999999999</ele><time>2026-04-17T14:31:16Z</time></trkpt><trkpt lat="45.81795615323219" lon="9.750285109351625"><ele>642.0</ele><time>2026-04-17T14:31:19Z</time></trkpt><trkpt lat="45.81802115000547" lon="9.75026966545539"><ele>644.6666666666666</ele><time>2026-04-17T14:31:21Z</time></trkpt><trkpt lat="45.818107829206646" lon="9.750223013465956"><ele>647.3333333333334</ele><time>2026-04-17T14:31:24Z</time></trkpt><trkpt lat="45.81819902471768" lon="9.750210860296425"><ele>650.0</ele><time>2026-04-17T14:31:27Z</time></trkpt><trkpt lat="45.818276113861764" lon="9.75027003237821"><ele>652.6666666666667</ele><time>2026-04-17T14:31:30Z</time></trkpt><trkpt lat="45.818230942356585" lon="9.75036345955015"><ele>655.3333333333334</ele><time>2026-04-17T14:31:32Z</time></trkpt><trkpt lat="45.81814344982533" lon="9.750362362589351"><ele>658.0</ele><time>2026-04-17T14:31:34Z</time></trkpt><trkpt lat="45.81807701795132" lon="9.750399782201407"><ele>658.0</ele><time>2026-04-17T14:31:36Z</time></trkpt><trkpt lat="45.818026717958936" lon="9.750471440355692"><ele>658.0</ele><time>2026-04-17T14:31:38Z</time></trkpt><trkpt lat="45.817982098266626" lon="9.750544939202781"><ele>658.0</ele><time>2026-04-17T14:31:40Z</time></trkpt><trkpt lat="45.817935680956374" lon="9.750610441181449"><ele>658.0</ele><time>2026-04-17T14:31:42Z</time></trkpt><trkpt lat="45.817887046115885" lon="9.750675520297802"><ele>658.0</ele><time>2026-04-17T14:31:44Z</time></trkpt><trkpt lat="45.81780879815797" lon="9.750752954472695"><ele>658.0</ele><time>2026-04-17T14:31:47Z</time></trkpt><trkpt lat="45.81774023960424" lon="9.750836030153481"><ele>658.0</ele><time>2026-04-17T14:31:50Z</time></trkpt><trkpt lat="45.81769309745261" lon="9.750938093650479"><ele>658.0</ele><time>2026-04-17T14:31:53Z</time></trkpt><trkpt lat="45.81773766365331" lon="9.751003804690232"><ele>658.0</ele><time>2026-04-17T14:31:55Z</time></trkpt><trkpt lat="45.81780852276815" lon="9.750962908507761"><ele>658.0</ele><time>2026-04-17T14:31:57Z</time></trkpt><trkpt lat="45.817855492381725" lon="9.750889010025466"><ele>658.0</ele><time>2026-04-17T14:31:59Z</time></trkpt><trkpt lat="45.81791093062776" lon="9.750843786878628"><ele>658.0</ele><time>2026-04-17T14:32:01Z</time></trkpt><trkpt lat="45.81799130367397" lon="9.750770138487363"><ele>658.0</ele><time>2026-04-17T14:32:04Z</time></trkpt><trkpt lat="45.818052742548524" lon="9.750735996431473"><ele>658.0</ele><time>2026-04-17T14:32:06Z</time></trkpt><trkpt lat="45.81811316415203" lon="9.750696544933684"><ele>658.0</ele><time>2026-04-17T14:32:08Z</time></trkpt><trkpt lat="45.81817047327065" lon="9.750644032713648"><ele>658.0</ele><time>2026-04-17T14:32:10Z</time></trkpt><trkpt lat="45.81823651401508" lon="9.750609293366681"><ele>658.0</ele><time>2026-04-17T14:32:12Z</time></trkpt><trkpt lat="45.81831403496432" lon="9.750601996710033"><ele>658.0</ele><time>2026-04-17T14:32:14Z</time></trkpt><trkpt lat="45.81839285380686" lon="9.750600017499814"><ele>658.0</ele><time>2026-04-17T14:32:16Z</time></trkpt><trkpt lat="45.818467329208424" lon="9.750588281780878"><ele>661.2857142857143</ele><time>2026-04-17T14:32:18Z</time></trkpt><trkpt lat="45.81854386659244" lon="9.750560831217072"><ele>664.5714285714286</ele><time>2026-04-17T14:32:20Z</time></trkpt><trkpt lat="45.81860902272355" lon="9.75051524851933"><ele>667.8571428571429</ele><time>2026-04-17T14:32:22Z</time></trkpt><trkpt lat="45.81867562662898" lon="9.750473792236543"><ele>671.1428571428571</ele><time>2026-04-17T14:32:24Z</time></trkpt><trkpt lat="45.81873245540333" lon="9.750423391503158"><ele>674.4285714285714</ele><time>2026-04-17T14:32:26Z</time></trkpt><trkpt lat="45.81879173896103" lon="9.750380525304935"><ele>677.7142857142858</ele><time>2026-04-17T14:32:28Z</time></trkpt><trkpt lat="45.81884759300861" lon="9.750424426217737"><ele>681.0</ele><time>2026-04-17T14:32:30Z</time></trkpt><trkpt lat="45.81879636690974" lon="9.75052742605812"><ele>681.0</ele><time>2026-04-17T14:32:32Z</time></trkpt><trkpt lat="45.818719879073974" lon="9.750551324807287"><ele>681.0</ele><time>2026-04-17T14:32:34Z</time></trkpt><trkpt lat="45.81864494003486" lon="9.750620183080848"><ele>681.0</ele><time>2026-04-17T14:32:36Z</time></trkpt><trkpt lat="45.8185697000697" lon="9.750697106944727"><ele>681.0</ele><time>2026-04-17T14:32:38Z</time></trkpt><trkpt lat="45.818491261885846" lon="9.750734046422433"><ele>681.0</ele><time>2026-04-17T14:32:40Z</time></trkpt><trkpt lat="45.81841238757533" lon="9.75075075518932"><ele>681.0</ele><time>2026-04-17T14:32:42Z</time></trkpt><trkpt lat="45.81834197471072" lon="9.750793268973682"><ele>682.1666666666666</ele><time>2026-04-17T14:32:44Z</time></trkpt><trkpt lat="45.81826954576104" lon="9.750849829184018"><ele>683.3333333333334</ele><time>2026-04-17T14:32:46Z</time></trkpt><trkpt lat="45.81821123405788" lon="9.750926463010547"><ele>684.5</ele><time>2026-04-17T14:32:48Z</time></trkpt><trkpt lat="45.8181544706538" lon="9.751000676450374"><ele>685.6666666666667</ele><time>2026-04-17T14:32:50Z</time></trkpt><trkpt lat="45.81810728636725" lon="9.751078745871569"><ele>686.8333333333334</ele><time>2026-04-17T14:32:52Z</time></trkpt><trkpt lat="45.81805238528451" lon="9.751140380800088"><ele>688.0</ele><time>2026-04-17T14:32:54Z</time></trkpt><trkpt lat="45.81799208497129" lon="9.751200009353965"><ele>688.0000000000001</ele><time>2026-04-17T14:32:56Z</time></trkpt><trkpt lat="45.817947601753886" lon="9.751274596381718"><ele>688.0</ele><time>2026-04-17T14:32:58Z</time></trkpt><trkpt lat="45.81791424218258" lon="9.751361419182961"><ele>688.0</ele><time>2026-04-17T14:33:00Z</time></trkpt><trkpt lat="45.81788438945344" lon="9.751445976590803"><ele>688.0</ele><time>2026-04-17T14:33:02Z</time></trkpt><trkpt lat="45.817859221883815" lon="9.751530106168843"><ele>688.0</ele><time>2026-04-17T14:33:04Z</time></trkpt><trkpt lat="45.81782297799969" lon="9.75160571530675"><ele>688.0000000000001</ele><time>2026-04-17T14:33:06Z</time></trkpt><trkpt lat="45.81777832042542" lon="9.75172117149038"><ele>688.0</ele><time>2026-04-17T14:33:09Z</time></trkpt><trkpt lat="45.81773588207466" lon="9.751837777771097"><ele>688.3333333333334</ele><time>2026-04-17T14:33:12Z</time></trkpt><trkpt lat="45.81768853272128" lon="9.751952538132858"><ele>688.6666666666667</ele><time>2026-04-17T14:33:15Z</time></trkpt><trkpt lat="45.817618385861586" lon="9.752044197019247"><ele>689.0</ele><time>2026-04-17T14:33:18Z</time></trkpt><trkpt lat="45.817583619324175" lon="9.752127191697578"><ele>689.3333333333334</ele><time>2026-04-17T14:33:20Z</time></trkpt><trkpt lat="45.817532342239474" lon="9.752187051179934"><ele>689.6666666666666</ele><time>2026-04-17T14:33:22Z</time></trkpt><trkpt lat="45.817466287354236" lon="9.752215108023492"><ele>690.0</ele><time>2026-04-17T14:33:24Z</time></trkpt><trkpt lat="45.817395996697" lon="9.752201440583633"><ele>690.0</ele><time>2026-04-17T14:33:26Z</time></trkpt><trkpt lat="45.81734306114783" lon="9.752148921657371"><ele>690.0</ele><time>2026-04-17T14:33:28Z</time></trkpt><trkpt lat="45.81729246788392" lon="9.75206286698486"><ele>690.0</ele><time>2026-04-17T14:33:30Z</time></trkpt><trkpt lat="45.8172375103642" lon="9.751971681648568"><ele>690.0</ele><time>2026-04-17T14:33:32Z</time></trkpt><trkpt lat="45.817162913566115" lon="9.751943125874059"><ele>690.0</ele><time>2026-04-17T14:33:34Z</time></trkpt><trkpt lat="45.81708609369822" lon="9.752001500094202"><ele>690.0</ele><time>2026-04-17T14:33:36Z</time></trkpt><trkpt lat="45.81702530847506" lon="9.752062850155223"><ele>690.0</ele><time>2026-04-17T14:33:38Z</time></trkpt><trkpt lat="45.81696552673084" lon="9.752135684040068"><ele>690.0</ele><time>2026-04-17T14:33:40Z</time></trkpt><trkpt lat="45.81690628326989" lon="9.752205595475132"><ele>690.0</ele><time>2026-04-17T14:33:42Z</time></trkpt><trkpt lat="45.81684572584859" lon="9.75227020352224"><ele>690.0</ele><time>2026-04-17T14:33:44Z</time></trkpt><trkpt lat="45.816787815815154" lon="9.752340954939202"><ele>690.0</ele><time>2026-04-17T14:33:46Z</time></trkpt><trkpt lat="45.81672811578823" lon="9.75240599917662"><ele>690.0</ele><time>2026-04-17T14:33:48Z</time></trkpt><trkpt lat="45.81666126502252" lon="9.75245651281019"><ele>689.0</ele><time>2026-04-17T14:33:50Z</time></trkpt><trkpt lat="45.81659336889962" lon="9.752498472576375"><ele>688.0</ele><time>2026-04-17T14:33:52Z</time></trkpt><trkpt lat="45.816525898697826" lon="9.752524745856762"><ele>687.0</ele><time>2026-04-17T14:33:54Z</time></trkpt><trkpt lat="45.81645746615886" lon="9.752537273291166"><ele>686.0</ele><time>2026-04-17T14:33:56Z</time></trkpt><trkpt lat="45.816386779135144" lon="9.75256068187001"><ele>685.0</ele><time>2026-04-17T14:33:58Z</time></trkpt><trkpt lat="45.81630543530695" lon="9.752569002560357"><ele>684.0</ele><time>2026-04-17T14:34:00Z</time></trkpt><trkpt lat="45.81623372309827" lon="9.752602958370867"><ele>683.0</ele><time>2026-04-17T14:34:02Z</time></trkpt><trkpt lat="45.81616410303985" lon="9.752615905809177"><ele>683.0</ele><time>2026-04-17T14:34:04Z</time></trkpt><trkpt lat="45.81609807559826" lon="9.752627334040646"><ele>683.0</ele><time>2026-04-17T14:34:06Z</time></trkpt><trkpt lat="45.81603648489821" lon="9.752663913172723"><ele>683.0</ele><time>2026-04-17T14:34:08Z</time></trkpt><trkpt lat="45.81594867883022" lon="9.752725446789391"><ele>683.0</ele><time>2026-04-17T14:34:11Z</time></trkpt><trkpt lat="45.81590323255086" lon="9.752805220928552"><ele>683.0</ele><time>2026-04-17T14:34:13Z</time></trkpt><trkpt lat="45.81586469287386" lon="9.752887298814361"><ele>683.0</ele><time>2026-04-17T14:34:15Z</time></trkpt><trkpt lat="45.81583622678832" lon="9.752980627898516"><ele>683.0</ele><time>2026-04-17T14:34:17Z</time></trkpt><trkpt lat="45.81587010727735" lon="9.75307358780058"><ele>684.6666666666666</ele><time>2026-04-17T14:34:19Z</time></trkpt><trkpt lat="45.81595473816665" lon="9.753058548077583"><ele>686.3333333333333</ele><time>2026-04-17T14:34:21Z</time></trkpt><trkpt lat="45.81601678542768" lon="9.753019787166602"><ele>688.0</ele><time>2026-04-17T14:34:23Z</time></trkpt><trkpt lat="45.81608370107443" lon="9.753016987896228"><ele>689.6666666666666</ele><time>2026-04-17T14:34:25Z</time></trkpt><trkpt lat="45.81617403606731" lon="9.753027081099937"><ele>691.3333333333334</ele><time>2026-04-17T14:34:28Z</time></trkpt><trkpt lat="45.81625993337581" lon="9.753053203301569"><ele>693.0</ele><time>2026-04-17T14:34:31Z</time></trkpt><trkpt lat="45.81633139405783" lon="9.753095589507266"><ele>695.1666666666666</ele><time>2026-04-17T14:34:34Z</time></trkpt><trkpt lat="45.816393369963805" lon="9.753119773201659"><ele>697.3333333333334</ele><time>2026-04-17T14:34:36Z</time></trkpt><trkpt lat="45.81648069506404" lon="9.753153737566475"><ele>699.5</ele><time>2026-04-17T14:34:39Z</time></trkpt><trkpt lat="45.81654987934553" lon="9.753225544793574"><ele>701.6666666666667</ele><time>2026-04-17T14:34:42Z</time></trkpt><trkpt lat="45.81661521377995" lon="9.753304665543137"><ele>703.8333333333334</ele><time>2026-04-17T14:34:45Z</time></trkpt><trkpt lat="45.81668601848565" lon="9.753385767599058"><ele>706.0</ele><time>2026-04-17T14:34:48Z</time></trkpt><trkpt lat="45.81675900527398" lon="9.753445391015886"><ele>707.6666666666667</ele><time>2026-04-17T14:34:51Z</time></trkpt><trkpt lat="45.81683184385213" lon="9.75351054594597"><ele>709.3333333333334</ele><time>2026-04-17T14:34:54Z</time></trkpt><trkpt lat="45.81690324497191" lon="9.753563103262612"><ele>711.0</ele><time>2026-04-17T14:34:57Z</time></trkpt><trkpt lat="45.816974328876555" lon="9.753607626574636"><ele>712.6666666666666</ele><time>2026-04-17T14:35:00Z</time></trkpt><trkpt lat="45.817057736807094" lon="9.753643969918592"><ele>714.3333333333333</ele><time>2026-04-17T14:35:03Z</time></trkpt><trkpt lat="45.817151197784874" lon="9.753632890158674"><ele>716.0</ele><time>2026-04-17T14:35:06Z</time></trkpt><trkpt lat="45.81724262669071" lon="9.753661056417515"><ele>721.3333333333333</ele><time>2026-04-17T14:35:09Z</time></trkpt><trkpt lat="45.817276914991496" lon="9.753757712959624"><ele>726.6666666666666</ele><time>2026-04-17T14:35:11Z</time></trkpt><trkpt lat="45.81720934486436" lon="9.753840941635188"><ele>732.0</ele><time>2026-04-17T14:35:14Z</time></trkpt><trkpt lat="45.81712309890139" lon="9.753853117169143"><ele>737.3333333333334</ele><time>2026-04-17T14:35:17Z</time></trkpt><trkpt lat="45.817038966127996" lon="9.753858247017106"><ele>742.6666666666667</ele><time>2026-04-17T14:35:20Z</time></trkpt><trkpt lat="45.816955331894114" lon="9.753864030743395"><ele>748.0</ele><time>2026-04-17T14:35:23Z</time></trkpt><trkpt lat="45.816874322586955" lon="9.75388733585587"><ele>746.3333333333334</ele><time>2026-04-17T14:35:26Z</time></trkpt><trkpt lat="45.81679218682136" lon="9.753894714791187"><ele>744.6666666666667</ele><time>2026-04-17T14:35:29Z</time></trkpt><trkpt lat="45.8167153363622" lon="9.753911300395044"><ele>743.0</ele><time>2026-04-17T14:35:32Z</time></trkpt><trkpt lat="45.81663283090192" lon="9.753914824857697"><ele>741.3333333333334</ele><time>2026-04-17T14:35:35Z</time></trkpt><trkpt lat="45.81655167657025" lon="9.753948493169784"><ele>739.6666666666666</ele><time>2026-04-17T14:35:38Z</time></trkpt><trkpt lat="45.816472924990734" lon="9.753971252185707"><ele>738.0</ele><time>2026-04-17T14:35:41Z</time></trkpt><trkpt lat="45.81639675131093" lon="9.754014532894395"><ele>738.0</ele><time>2026-04-17T14:35:44Z</time></trkpt><trkpt lat="45.81632832309244" lon="9.754081380017547"><ele>738.0</ele><time>2026-04-17T14:35:47Z</time></trkpt><trkpt lat="45.8162670055648" lon="9.754163998769078"><ele>738.0</ele><time>2026-04-17T14:35:50Z</time></trkpt><trkpt lat="45.816271367866555" lon="9.754281990260251"><ele>738.0</ele><time>2026-04-17T14:35:53Z</time></trkpt><trkpt lat="45.81634464638921" lon="9.754304106170304"><ele>738.0</ele><time>2026-04-17T14:35:55Z</time></trkpt><trkpt lat="45.81640956218229" lon="9.754294845299457"><ele>738.0</ele><time>2026-04-17T14:35:57Z</time></trkpt><trkpt lat="45.8164975187231" lon="9.754261322363842"><ele>738.0</ele><time>2026-04-17T14:36:00Z</time></trkpt><trkpt lat="45.816586992936216" lon="9.754269333971468"><ele>738.0</ele><time>2026-04-17T14:36:03Z</time></trkpt><trkpt lat="45.81667557555855" lon="9.75428509368051"><ele>738.0</ele><time>2026-04-17T14:36:06Z</time></trkpt><trkpt lat="45.816761474370196" lon="9.754307571953591"><ele>738.0</ele><time>2026-04-17T14:36:09Z</time></trkpt><trkpt lat="45.816845128522274" lon="9.75432799809793"><ele>738.0</ele><time>2026-04-17T14:36:12Z</time></trkpt><trkpt lat="45.816908703333006" lon="9.754345409011242"><ele>738.0</ele><time>2026-04-17T14:36:14Z</time></trkpt><trkpt lat="45.81700179088029" lon="9.754372011539445"><ele>743.4285714285714</ele><time>2026-04-17T14:36:17Z</time></trkpt><trkpt lat="45.81709279598202" lon="9.754405082860861"><ele>748.8571428571429</ele><time>2026-04-17T14:36:20Z</time></trkpt><trkpt lat="45.81715627966733" lon="9.754434080284478"><ele>754.2857142857142</ele><time>2026-04-17T14:36:22Z</time></trkpt><trkpt lat="45.817238750315525" lon="9.754471592296644"><ele>759.7142857142858</ele><time>2026-04-17T14:36:25Z</time></trkpt><trkpt lat="45.817299777644" lon="9.754508566605953"><ele>765.1428571428572</ele><time>2026-04-17T14:36:27Z</time></trkpt><trkpt lat="45.817357037337864" lon="9.754546114872443"><ele>770.5714285714286</ele><time>2026-04-17T14:36:29Z</time></trkpt><trkpt lat="45.817414183513584" lon="9.754592820198056"><ele>776.0</ele><time>2026-04-17T14:36:31Z</time></trkpt><trkpt lat="45.8174881448617" lon="9.754660011157606"><ele>776.0</ele><time>2026-04-17T14:36:34Z</time></trkpt><trkpt lat="45.81756199331286" lon="9.75475401965976"><ele>776.0</ele><time>2026-04-17T14:36:37Z</time></trkpt><trkpt lat="45.81762796783122" lon="9.754864702283697"><ele>776.0</ele><time>2026-04-17T14:36:40Z</time></trkpt><trkpt lat="45.817701196443835" lon="9.754944128068454"><ele>776.0</ele><time>2026-04-17T14:36:43Z</time></trkpt><trkpt lat="45.81778847534773" lon="9.754995724938185"><ele>776.0</ele><time>2026-04-17T14:36:46Z</time></trkpt><trkpt lat="45.81785248317672" lon="9.7549601188114"><ele>774.7142857142857</ele><time>2026-04-17T14:36:48Z</time></trkpt><trkpt lat="45.817892947780756" lon="9.754880393606705"><ele>773.4285714285714</ele><time>2026-04-17T14:36:50Z</time></trkpt><trkpt lat="45.81792506324745" lon="9.754801382330038"><ele>772.1428571428571</ele><time>2026-04-17T14:36:52Z</time></trkpt><trkpt lat="45.81795737288029" lon="9.754722713718895"><ele>770.8571428571429</ele><time>2026-04-17T14:36:54Z</time></trkpt><trkpt lat="45.81798774315624" lon="9.754641047593195"><ele>769.5714285714287</ele><time>2026-04-17T14:36:56Z</time></trkpt><trkpt lat="45.81803430783168" lon="9.754526070825516"><ele>768.2857142857143</ele><time>2026-04-17T14:36:59Z</time></trkpt><trkpt lat="45.81807434180953" lon="9.754452426187529"><ele>767.0</ele><time>2026-04-17T14:37:01Z</time></trkpt><trkpt lat="45.81813349016823" lon="9.754347536230256"><ele>767.0</ele><time>2026-04-17T14:37:04Z</time></trkpt><trkpt lat="45.81820373032587" lon="9.754268766322411"><ele>767.0</ele><time>2026-04-17T14:37:07Z</time></trkpt><trkpt lat="45.81825881634698" lon="9.754221675096062"><ele>767.0</ele><time>2026-04-17T14:37:09Z</time></trkpt><trkpt lat="45.81834638712033" lon="9.754167580150336"><ele>767.0</ele><time>2026-04-17T14:37:12Z</time></trkpt><trkpt lat="45.818407127388916" lon="9.754133674084274"><ele>767.0</ele><time>2026-04-17T14:37:14Z</time></trkpt><trkpt lat="45.81847108282684" lon="9.754116411855597"><ele>767.0</ele><time>2026-04-17T14:37:16Z</time></trkpt><trkpt lat="45.818532413129084" lon="9.75409410239393"><ele>767.0</ele><time>2026-04-17T14:37:18Z</time></trkpt><trkpt lat="45.81859426913396" lon="9.754073320873532"><ele>769.6666666666666</ele><time>2026-04-17T14:37:20Z</time></trkpt><trkpt lat="45.818654115104415" lon="9.754043854229435"><ele>772.3333333333333</ele><time>2026-04-17T14:37:22Z</time></trkpt><trkpt lat="45.81874645898784" lon="9.754030570987274"><ele>775.0</ele><time>2026-04-17T14:37:25Z</time></trkpt><trkpt lat="45.818839234214316" lon="9.754017240289915"><ele>777.6666666666666</ele><time>2026-04-17T14:37:28Z</time></trkpt><trkpt lat="45.81891104572815" lon="9.754009129653884"><ele>780.3333333333334</ele><time>2026-04-17T14:37:30Z</time></trkpt><trkpt lat="45.81897842583312" lon="9.75400128848547"><ele>783.0</ele><time>2026-04-17T14:37:32Z</time></trkpt><trkpt lat="45.81904194874427" lon="9.753990874702135"><ele>783.0</ele><time>2026-04-17T14:37:34Z</time></trkpt><trkpt lat="45.81913809667768" lon="9.753985682009171"><ele>783.0</ele><time>2026-04-17T14:37:37Z</time></trkpt><trkpt lat="45.81919955586427" lon="9.753965770053311"><ele>783.0</ele><time>2026-04-17T14:37:39Z</time></trkpt><trkpt lat="45.81926156992877" lon="9.753949796930376"><ele>783.0</ele><time>2026-04-17T14:37:41Z</time></trkpt><trkpt lat="45.81935241650985" lon="9.753930624741267"><ele>783.0</ele><time>2026-04-17T14:37:44Z</time></trkpt><trkpt lat="45.81943878726288" lon="9.753889917927271"><ele>783.0</ele><time>2026-04-17T14:37:47Z</time></trkpt><trkpt lat="45.81951000075645" lon="9.753836794989898"><ele>785.1666666666666</ele><time>2026-04-17T14:37:50Z</time></trkpt><trkpt lat="45.819597863889804" lon="9.753826087537167"><ele>787.3333333333333</ele><time>2026-04-17T14:37:53Z</time></trkpt><trkpt lat="45.8196290003452" lon="9.753917905974353"><ele>789.5</ele><time>2026-04-17T14:37:55Z</time></trkpt><trkpt lat="45.81960548989021" lon="9.754019016479104"><ele>791.6666666666666</ele><time>2026-04-17T14:37:57Z</time></trkpt><trkpt lat="45.81954275626654" lon="9.75407240736887"><ele>793.8333333333333</ele><time>2026-04-17T14:37:59Z</time></trkpt><trkpt lat="45.81947648281453" lon="9.754124472437327"><ele>796.0</ele><time>2026-04-17T14:38:01Z</time></trkpt><trkpt lat="45.81941023664297" lon="9.754173865369768"><ele>795.9999999999999</ele><time>2026-04-17T14:38:03Z</time></trkpt><trkpt lat="45.81934875859547" lon="9.754231201632743"><ele>796.0</ele><time>2026-04-17T14:38:05Z</time></trkpt><trkpt lat="45.81928829246008" lon="9.754288173730052"><ele>796.0</ele><time>2026-04-17T14:38:07Z</time></trkpt><trkpt lat="45.81922528797998" lon="9.754319626273416"><ele>796.0</ele><time>2026-04-17T14:38:09Z</time></trkpt><trkpt lat="45.819159624671755" lon="9.754363827487598"><ele>796.0</ele><time>2026-04-17T14:38:11Z</time></trkpt><trkpt lat="45.819105893674596" lon="9.75442471468469"><ele>795.9999999999999</ele><time>2026-04-17T14:38:13Z</time></trkpt><trkpt lat="45.81904782470633" lon="9.754482395154577"><ele>796.0</ele><time>2026-04-17T14:38:15Z</time></trkpt><trkpt lat="45.818988214949286" lon="9.754527368156182"><ele>797.5714285714286</ele><time>2026-04-17T14:38:17Z</time></trkpt><trkpt lat="45.81892903365889" lon="9.75458030505956"><ele>799.1428571428571</ele><time>2026-04-17T14:38:19Z</time></trkpt><trkpt lat="45.818867598587644" lon="9.754615974793225"><ele>800.7142857142858</ele><time>2026-04-17T14:38:21Z</time></trkpt><trkpt lat="45.818805990607196" lon="9.754648539923151"><ele>802.2857142857142</ele><time>2026-04-17T14:38:23Z</time></trkpt><trkpt lat="45.81875533475575" lon="9.754705690059414"><ele>803.8571428571429</ele><time>2026-04-17T14:38:25Z</time></trkpt><trkpt lat="45.81878357054214" lon="9.754799356327966"><ele>805.4285714285714</ele><time>2026-04-17T14:38:27Z</time></trkpt><trkpt lat="45.81887831235405" lon="9.754804612593157"><ele>807.0</ele><time>2026-04-17T14:38:29Z</time></trkpt><trkpt lat="45.818958582215494" lon="9.754745029861915"><ele>807.0</ele><time>2026-04-17T14:38:31Z</time></trkpt><trkpt lat="45.81903798673806" lon="9.754713748529765"><ele>807.0</ele><time>2026-04-17T14:38:33Z</time></trkpt><trkpt lat="45.819112855960945" lon="9.754686985272974"><ele>807.0</ele><time>2026-04-17T14:38:35Z</time></trkpt><trkpt lat="45.81918649132968" lon="9.754664433484594"><ele>807.0</ele><time>2026-04-17T14:38:37Z</time></trkpt><trkpt lat="45.81925997474889" lon="9.754638376229485"><ele>807.0</ele><time>2026-04-17T14:38:39Z</time></trkpt><trkpt lat="45.81933516541249" lon="9.75462648853165"><ele>807.0</ele><time>2026-04-17T14:38:41Z</time></trkpt><trkpt lat="45.81941151164319" lon="9.754612145203637"><ele>810.1666666666666</ele><time>2026-04-17T14:38:43Z</time></trkpt><trkpt lat="45.81949031532302" lon="9.754607263264152"><ele>813.3333333333333</ele><time>2026-04-17T14:38:45Z</time></trkpt><trkpt lat="45.81957118271547" lon="9.754602169136612"><ele>816.5</ele><time>2026-04-17T14:38:47Z</time></trkpt><trkpt lat="45.81965312673048" lon="9.754581779950104"><ele>819.6666666666666</ele><time>2026-04-17T14:38:49Z</time></trkpt><trkpt lat="45.81973239303035" lon="9.754569730562098"><ele>822.8333333333333</ele><time>2026-04-17T14:38:51Z</time></trkpt><trkpt lat="45.819808495263636" lon="9.75454458545035"><ele>826.0</ele><time>2026-04-17T14:38:53Z</time></trkpt><trkpt lat="45.8198849165563" lon="9.754527804995417"><ele>825.9999999999999</ele><time>2026-04-17T14:38:55Z</time></trkpt><trkpt lat="45.819960213381314" lon="9.75450554285784"><ele>826.0</ele><time>2026-04-17T14:38:57Z</time></trkpt><trkpt lat="45.820033981154" lon="9.754480712612962"><ele>826.0</ele><time>2026-04-17T14:38:59Z</time></trkpt><trkpt lat="45.8201060171001" lon="9.75445657144807"><ele>826.0</ele><time>2026-04-17T14:39:01Z</time></trkpt><trkpt lat="45.82017746749643" lon="9.754432456023805"><ele>825.9999999999999</ele><time>2026-04-17T14:39:03Z</time></trkpt><trkpt lat="45.820252413777524" lon="9.754405881207504"><ele>826.0</ele><time>2026-04-17T14:39:05Z</time></trkpt><trkpt lat="45.82032732702906" lon="9.754404535209842"><ele>826.4999999999999</ele><time>2026-04-17T14:39:07Z</time></trkpt><trkpt lat="45.82040115801942" lon="9.754412701515909"><ele>827.0</ele><time>2026-04-17T14:39:09Z</time></trkpt><trkpt lat="45.82047310631214" lon="9.754445105547811"><ele>827.5</ele><time>2026-04-17T14:39:11Z</time></trkpt><trkpt lat="45.820540762031555" lon="9.75447428791006"><ele>828.0</ele><time>2026-04-17T14:39:13Z</time></trkpt><trkpt lat="45.820607633162425" lon="9.75451874542844"><ele>828.4999999999999</ele><time>2026-04-17T14:39:15Z</time></trkpt><trkpt lat="45.82067640662109" lon="9.754578186298787"><ele>829.0</ele><time>2026-04-17T14:39:17Z</time></trkpt><trkpt lat="45.820741054650554" lon="9.75464106842853"><ele>828.9999999999999</ele><time>2026-04-17T14:39:19Z</time></trkpt><trkpt lat="45.820810793411916" lon="9.754710418235936"><ele>829.0</ele><time>2026-04-17T14:39:21Z</time></trkpt><trkpt lat="45.82087141814804" lon="9.754768395270807"><ele>829.0</ele><time>2026-04-17T14:39:23Z</time></trkpt><trkpt lat="45.820935305554144" lon="9.754828064061916"><ele>829.0</ele><time>2026-04-17T14:39:25Z</time></trkpt><trkpt lat="45.82100325525355" lon="9.754882181322719"><ele>828.9999999999999</ele><time>2026-04-17T14:39:27Z</time></trkpt><trkpt lat="45.82107146560559" lon="9.75493028757951"><ele>829.0</ele><time>2026-04-17T14:39:29Z</time></trkpt><trkpt lat="45.82114860692065" lon="9.754962325089977"><ele>827.3333333333333</ele><time>2026-04-17T14:39:31Z</time></trkpt><trkpt lat="45.82122941339135" lon="9.754989187787503"><ele>825.6666666666666</ele><time>2026-04-17T14:39:33Z</time></trkpt><trkpt lat="45.821292394111936" lon="9.75502673716134"><ele>824.0</ele><time>2026-04-17T14:39:35Z</time></trkpt><trkpt lat="45.82136476628022" lon="9.755057035187344"><ele>822.3333333333333</ele><time>2026-04-17T14:39:37Z</time></trkpt><trkpt lat="45.821436623265186" lon="9.755101796285475"><ele>820.6666666666666</ele><time>2026-04-17T14:39:39Z</time></trkpt><trkpt lat="45.821438023098146" lon="9.755192390203117"><ele>819.0</ele><time>2026-04-17T14:39:41Z</time></trkpt><trkpt lat="45.8213440484381" lon="9.75521107308553"><ele>819.0</ele><time>2026-04-17T14:39:43Z</time></trkpt><trkpt lat="45.8212753593733" lon="9.755123161040084"><ele>819.0</ele><time>2026-04-17T14:39:45Z</time></trkpt><trkpt lat="45.82120559571725" lon="9.755076650561442"><ele>819.0</ele><time>2026-04-17T14:39:47Z</time></trkpt><trkpt lat="45.82112871244773" lon="9.755063778957302"><ele>819.0</ele><time>2026-04-17T14:39:49Z</time></trkpt><trkpt lat="45.821045084089306" lon="9.755054041450613"><ele>819.0</ele><time>2026-04-17T14:39:51Z</time></trkpt><trkpt lat="45.82096219951331" lon="9.755034835597083"><ele>819.0</ele><time>2026-04-17T14:39:53Z</time></trkpt><trkpt lat="45.820880933650805" lon="9.75500546292167"><ele>820.6666666666666</ele><time>2026-04-17T14:39:55Z</time></trkpt><trkpt lat="45.820803261769925" lon="9.754977249682288"><ele>822.3333333333333</ele><time>2026-04-17T14:39:57Z</time></trkpt><trkpt lat="45.820724815862704" lon="9.754954297174502"><ele>824.0</ele><time>2026-04-17T14:39:59Z</time></trkpt><trkpt lat="45.82064883166817" lon="9.754933881482703"><ele>825.6666666666666</ele><time>2026-04-17T14:40:01Z</time></trkpt><trkpt lat="45.82056527653352" lon="9.754910637157877"><ele>827.3333333333333</ele><time>2026-04-17T14:40:03Z</time></trkpt><trkpt lat="45.82047853562223" lon="9.754912752353693"><ele>829.0</ele><time>2026-04-17T14:40:05Z</time></trkpt><trkpt lat="45.82040537401128" lon="9.754963447381314"><ele>828.9999999999999</ele><time>2026-04-17T14:40:07Z</time></trkpt><trkpt lat="45.820334517024385" lon="9.755013301518364"><ele>829.0</ele><time>2026-04-17T14:40:09Z</time></trkpt><trkpt lat="45.82026627149265" lon="9.755059125603088"><ele>829.0</ele><time>2026-04-17T14:40:11Z</time></trkpt><trkpt lat="45.82019961589249" lon="9.755109618348776"><ele>829.0</ele><time>2026-04-17T14:40:13Z</time></trkpt><trkpt lat="45.82011858378954" lon="9.755154324449881"><ele>828.9999999999999</ele><time>2026-04-17T14:40:15Z</time></trkpt><trkpt lat="45.82007323907186" lon="9.755226798242308"><ele>829.0</ele><time>2026-04-17T14:40:17Z</time></trkpt><trkpt lat="45.81999692661936" lon="9.755241627682164"><ele>833.5714285714286</ele><time>2026-04-17T14:40:19Z</time></trkpt><trkpt lat="45.819930712246745" lon="9.755278491680155"><ele>838.1428571428571</ele><time>2026-04-17T14:40:21Z</time></trkpt><trkpt lat="45.81986020225098" lon="9.75531311606436"><ele>842.7142857142858</ele><time>2026-04-17T14:40:23Z</time></trkpt><trkpt lat="45.81980529808836" lon="9.755374743171076"><ele>847.2857142857142</ele><time>2026-04-17T14:40:25Z</time></trkpt><trkpt lat="45.819746030428526" lon="9.755426671912776"><ele>851.8571428571429</ele><time>2026-04-17T14:40:27Z</time></trkpt><trkpt lat="45.81968006254311" lon="9.755471564938572"><ele>856.4285714285714</ele><time>2026-04-17T14:40:29Z</time></trkpt><trkpt lat="45.81962603602667" lon="9.755528124946812"><ele>861.0</ele><time>2026-04-17T14:40:31Z</time></trkpt><trkpt lat="45.81956439515699" lon="9.755572789269474"><ele>861.0</ele><time>2026-04-17T14:40:33Z</time></trkpt><trkpt lat="45.819502305445056" lon="9.755620717762802"><ele>861.0</ele><time>2026-04-17T14:40:35Z</time></trkpt><trkpt lat="45.81943466602354" lon="9.755663099871649"><ele>861.0</ele><time>2026-04-17T14:40:37Z</time></trkpt><trkpt lat="45.81937278905941" lon="9.75570741415418"><ele>861.0</ele><time>2026-04-17T14:40:39Z</time></trkpt><trkpt lat="45.81930787297171" lon="9.755748600815902"><ele>861.0</ele><time>2026-04-17T14:40:41Z</time></trkpt><trkpt lat="45.819246006166715" lon="9.755792693962372"><ele>861.0</ele><time>2026-04-17T14:40:43Z</time></trkpt><trkpt lat="45.81918179486897" lon="9.75583264761854"><ele>861.0</ele><time>2026-04-17T14:40:45Z</time></trkpt><trkpt lat="45.819120276609986" lon="9.755886851765542"><ele>862.5714285714286</ele><time>2026-04-17T14:40:47Z</time></trkpt><trkpt lat="45.819059077038894" lon="9.755941138405126"><ele>864.1428571428571</ele><time>2026-04-17T14:40:49Z</time></trkpt><trkpt lat="45.8190039760421" lon="9.756008473328741"><ele>865.7142857142858</ele><time>2026-04-17T14:40:51Z</time></trkpt><trkpt lat="45.818962283847306" lon="9.756078099677547"><ele>867.2857142857142</ele><time>2026-04-17T14:40:53Z</time></trkpt><trkpt lat="45.81892087232029" lon="9.756150567748586"><ele>868.8571428571429</ele><time>2026-04-17T14:40:55Z</time></trkpt><trkpt lat="45.81888561450031" lon="9.756227427309126"><ele>870.4285714285714</ele><time>2026-04-17T14:40:57Z</time></trkpt><trkpt lat="45.818836822256735" lon="9.756289385959303"><ele>872.0</ele><time>2026-04-17T14:40:59Z</time></trkpt><trkpt lat="45.81878339618848" lon="9.756343750670405"><ele>872.0000000000001</ele><time>2026-04-17T14:41:01Z</time></trkpt><trkpt lat="45.81870419418031" lon="9.756419888125825"><ele>872.0</ele><time>2026-04-17T14:41:04Z</time></trkpt><trkpt lat="45.818657114846786" lon="9.75648137326995"><ele>872.0</ele><time>2026-04-17T14:41:06Z</time></trkpt><trkpt lat="45.81861804728222" lon="9.756593719279017"><ele>872.0</ele><time>2026-04-17T14:41:09Z</time></trkpt><trkpt lat="45.818539820770205" lon="9.756618398667158"><ele>872.0000000000001</ele><time>2026-04-17T14:42:50Z</time></trkpt><trkpt lat="45.818468834210215" lon="9.756637986689977"><ele>872.0</ele><time>2026-04-17T14:42:52Z</time></trkpt><trkpt lat="45.818399715517415" lon="9.75666521930913"><ele>867.8333333333334</ele><time>2026-04-17T14:42:54Z</time></trkpt><trkpt lat="45.818333043817255" lon="9.756731026004898"><ele>863.6666666666667</ele><time>2026-04-17T14:42:57Z</time></trkpt><trkpt lat="45.81827174513469" lon="9.75679398171288"><ele>859.5</ele><time>2026-04-17T14:43:00Z</time></trkpt><trkpt lat="45.818226651846764" lon="9.756864438517708"><ele>855.3333333333333</ele><time>2026-04-17T14:43:03Z</time></trkpt><trkpt lat="45.81829134484945" lon="9.756788232627747"><ele>851.1666666666666</ele><time>2026-04-17T14:43:10Z</time></trkpt><trkpt lat="45.818362037107" lon="9.756722038051867"><ele>847.0</ele><time>2026-04-17T14:43:13Z</time></trkpt><trkpt lat="45.8184440639594" lon="9.75666883391131"><ele>851.1666666666666</ele><time>2026-04-17T14:43:15Z</time></trkpt><trkpt lat="45.818539600803206" lon="9.756639390273843"><ele>855.3333333333333</ele><time>2026-04-17T14:43:17Z</time></trkpt><trkpt lat="45.818612626764285" lon="9.756599942613049"><ele>859.5</ele><time>2026-04-17T14:43:19Z</time></trkpt><trkpt lat="45.81868095379301" lon="9.756553374074434"><ele>863.6666666666667</ele><time>2026-04-17T14:43:21Z</time></trkpt><trkpt lat="45.81875475762428" lon="9.756489462651418"><ele>867.8333333333334</ele><time>2026-04-17T14:43:23Z</time></trkpt><trkpt lat="45.81882831512732" lon="9.756440124527357"><ele>872.0</ele><time>2026-04-17T14:43:25Z</time></trkpt><trkpt lat="45.81890274628505" lon="9.756385240511742"><ele>872.0</ele><time>2026-04-17T14:43:27Z</time></trkpt><trkpt lat="45.818986071354246" lon="9.75632112943484"><ele>872.0</ele><time>2026-04-17T14:43:29Z</time></trkpt><trkpt lat="45.819066205957355" lon="9.756253933970243"><ele>872.0</ele><time>2026-04-17T14:43:31Z</time></trkpt><trkpt lat="45.819148645507184" lon="9.756198240336698"><ele>872.0</ele><time>2026-04-17T14:43:33Z</time></trkpt><trkpt lat="45.81923400050641" lon="9.756156049205089"><ele>872.0</ele><time>2026-04-17T14:43:35Z</time></trkpt><trkpt lat="45.819321485864414" lon="9.756132690523124"><ele>870.1666666666667</ele><time>2026-04-17T14:43:37Z</time></trkpt><trkpt lat="45.819406917560926" lon="9.756110132168832"><ele>868.3333333333334</ele><time>2026-04-17T14:43:39Z</time></trkpt><trkpt lat="45.819485925632335" lon="9.756085694170034"><ele>866.5</ele><time>2026-04-17T14:43:41Z</time></trkpt><trkpt lat="45.819567199202886" lon="9.756071465045714"><ele>864.6666666666667</ele><time>2026-04-17T14:43:43Z</time></trkpt><trkpt lat="45.81964804375129" lon="9.756048219573154"><ele>862.8333333333334</ele><time>2026-04-17T14:43:45Z</time></trkpt><trkpt lat="45.819735394387926" lon="9.756035729493506"><ele>861.0</ele><time>2026-04-17T14:43:47Z</time></trkpt><trkpt lat="45.81982196286053" lon="9.756024278321455"><ele>861.0</ele><time>2026-04-17T14:43:49Z</time></trkpt><trkpt lat="45.819898011527116" lon="9.75601345024436"><ele>861.0</ele><time>2026-04-17T14:43:51Z</time></trkpt><trkpt lat="45.819978844219705" lon="9.755995265115365"><ele>861.0</ele><time>2026-04-17T14:43:53Z</time></trkpt><trkpt lat="45.82008479750159" lon="9.755979324119874"><ele>861.0</ele><time>2026-04-17T14:43:56Z</time></trkpt><trkpt lat="45.820147462624504" lon="9.755946498151015"><ele>861.0</ele><time>2026-04-17T14:43:58Z</time></trkpt><trkpt lat="45.82022864178824" lon="9.755912274935467"><ele>861.0</ele><time>2026-04-17T14:44:00Z</time></trkpt><trkpt lat="45.820300110476204" lon="9.755914567672617"><ele>862.6666666666666</ele><time>2026-04-17T14:44:02Z</time></trkpt><trkpt lat="45.82038084046217" lon="9.755899984010917"><ele>864.3333333333333</ele><time>2026-04-17T14:44:04Z</time></trkpt><trkpt lat="45.82044862388894" lon="9.755893181473807"><ele>866.0</ele><time>2026-04-17T14:44:06Z</time></trkpt><trkpt lat="45.82051692346009" lon="9.755913575322847"><ele>867.6666666666666</ele><time>2026-04-17T14:44:08Z</time></trkpt><trkpt lat="45.820556003874664" lon="9.755996359948021"><ele>869.3333333333333</ele><time>2026-04-17T14:44:10Z</time></trkpt><trkpt lat="45.820513880067914" lon="9.756075870782416"><ele>871.0</ele><time>2026-04-17T14:44:12Z</time></trkpt><trkpt lat="45.82042071582283" lon="9.756059361218584"><ele>873.7142857142857</ele><time>2026-04-17T14:44:14Z</time></trkpt><trkpt lat="45.82035729319093" lon="9.75606894356225"><ele>876.4285714285713</ele><time>2026-04-17T14:44:16Z</time></trkpt><trkpt lat="45.82029570097682" lon="9.756098774484526"><ele>879.1428571428571</ele><time>2026-04-17T14:44:18Z</time></trkpt><trkpt lat="45.820210848415044" lon="9.756151364565186"><ele>881.8571428571429</ele><time>2026-04-17T14:44:21Z</time></trkpt><trkpt lat="45.82015280350197" lon="9.75619157488812"><ele>884.5714285714286</ele><time>2026-04-17T14:44:23Z</time></trkpt><trkpt lat="45.82007179225981" lon="9.756253760887091"><ele>887.2857142857143</ele><time>2026-04-17T14:44:26Z</time></trkpt><trkpt lat="45.82001012069052" lon="9.756284590202693"><ele>890.0</ele><time>2026-04-17T14:44:28Z</time></trkpt><trkpt lat="45.81994692398163" lon="9.756338515429535"><ele>890.0</ele><time>2026-04-17T14:44:31Z</time></trkpt><trkpt lat="45.81990592842751" lon="9.756428451620538"><ele>890.0</ele><time>2026-04-17T14:44:35Z</time></trkpt><trkpt lat="45.819826745407276" lon="9.756406032324266"><ele>890.0</ele><time>2026-04-17T14:46:13Z</time></trkpt><trkpt lat="45.81974954964368" lon="9.756425464837147"><ele>890.0</ele><time>2026-04-17T14:46:15Z</time></trkpt><trkpt lat="45.81965624662387" lon="9.756448895078426"><ele>890.0</ele><time>2026-04-17T14:46:17Z</time></trkpt><trkpt lat="45.819533582234484" lon="9.756490697964198"><ele>890.0000000000001</ele><time>2026-04-17T14:46:19Z</time></trkpt><trkpt lat="45.81946805655778" lon="9.756512967071586"><ele>890.0</ele><time>2026-04-17T14:46:20Z</time></trkpt><trkpt lat="45.81940127381635" lon="9.756540130214816"><ele>890.0</ele><time>2026-04-17T14:46:21Z</time></trkpt><trkpt lat="45.819330210839865" lon="9.756570287427488"><ele>890.0</ele><time>2026-04-17T14:46:22Z</time></trkpt><trkpt lat="45.8192582159027" lon="9.756613675891517"><ele>890.0000000000001</ele><time>2026-04-17T14:46:23Z</time></trkpt><trkpt lat="45.81918512759752" lon="9.756659708846012"><ele>890.0</ele><time>2026-04-17T14:46:24Z</time></trkpt><trkpt lat="45.81911050387646" lon="9.75671185048205"><ele>891.6666666666667</ele><time>2026-04-17T14:46:25Z</time></trkpt><trkpt lat="45.81903817106563" lon="9.756770225675021"><ele>893.3333333333334</ele><time>2026-04-17T14:46:26Z</time></trkpt><trkpt lat="45.81896245600104" lon="9.756835981757424"><ele>895.0</ele><time>2026-04-17T14:46:27Z</time></trkpt><trkpt lat="45.8188831989854" lon="9.75689480284517"><ele>896.6666666666667</ele><time>2026-04-17T14:46:28Z</time></trkpt><trkpt lat="45.818805195683304" lon="9.756952363778284"><ele>898.3333333333334</ele><time>2026-04-17T14:46:29Z</time></trkpt><trkpt lat="45.818733924889806" lon="9.757023500102623"><ele>900.0</ele><time>2026-04-17T14:46:30Z</time></trkpt><trkpt lat="45.8186627349697" lon="9.75708443924304"><ele>900.0</ele><time>2026-04-17T14:46:31Z</time></trkpt><trkpt lat="45.818577556777676" lon="9.757133734531026"><ele>900.0</ele><time>2026-04-17T14:46:32Z</time></trkpt><trkpt lat="45.81849393985091" lon="9.757186542829636"><ele>900.0</ele><time>2026-04-17T14:46:33Z</time></trkpt><trkpt lat="45.81841342737615" lon="9.757246446132104"><ele>900.0</ele><time>2026-04-17T14:46:34Z</time></trkpt><trkpt lat="45.81834040805774" lon="9.757298197263104"><ele>900.0</ele><time>2026-04-17T14:46:35Z</time></trkpt><trkpt lat="45.81826621150491" lon="9.757339872379253"><ele>900.0</ele><time>2026-04-17T14:46:36Z</time></trkpt><trkpt lat="45.81820680797394" lon="9.75738911219635"><ele>898.5714285714287</ele><time>2026-04-17T14:46:37Z</time></trkpt><trkpt lat="45.818154135434426" lon="9.757445163848763"><ele>897.1428571428571</ele><time>2026-04-17T14:46:38Z</time></trkpt><trkpt lat="45.81812310238877" lon="9.757526875750502"><ele>895.7142857142858</ele><time>2026-04-17T14:46:39Z</time></trkpt><trkpt lat="45.81812310024782" lon="9.757617610084276"><ele>894.2857142857143</ele><time>2026-04-17T14:46:40Z</time></trkpt><trkpt lat="45.81814126936177" lon="9.757707159369188"><ele>892.8571428571429</ele><time>2026-04-17T14:46:41Z</time></trkpt><trkpt lat="45.81817272479837" lon="9.757794952307583"><ele>891.4285714285714</ele><time>2026-04-17T14:46:42Z</time></trkpt><trkpt lat="45.818198229584" lon="9.757888715359128"><ele>890.0</ele><time>2026-04-17T14:46:43Z</time></trkpt><trkpt lat="45.81821266945816" lon="9.758001003428799"><ele>890.0</ele><time>2026-04-17T14:46:44Z</time></trkpt><trkpt lat="45.81820885343772" lon="9.758123460489433"><ele>890.0</ele><time>2026-04-17T14:46:45Z</time></trkpt><trkpt lat="45.81818126102861" lon="9.758249293206495"><ele>890.0</ele><time>2026-04-17T14:46:46Z</time></trkpt><trkpt lat="45.818143352953605" lon="9.758370438651871"><ele>890.0</ele><time>2026-04-17T14:46:47Z</time></trkpt><trkpt lat="45.81811201438456" lon="9.758499612555694"><ele>890.0</ele><time>2026-04-17T14:46:48Z</time></trkpt><trkpt lat="45.81805578671038" lon="9.758614520256328"><ele>892.6</ele><time>2026-04-17T14:46:49Z</time></trkpt><trkpt lat="45.81798101663301" lon="9.758712949914544"><ele>895.2</ele><time>2026-04-17T14:46:50Z</time></trkpt><trkpt lat="45.8179165892645" lon="9.758828332844937"><ele>897.8</ele><time>2026-04-17T14:46:51Z</time></trkpt><trkpt lat="45.81787074142535" lon="9.758958173256955"><ele>900.4</ele><time>2026-04-17T14:46:52Z</time></trkpt><trkpt lat="45.817840625332146" lon="9.759106542999033"><ele>903.0</ele><time>2026-04-17T14:46:53Z</time></trkpt><trkpt lat="45.81781545635435" lon="9.75924964608607"><ele>903.0</ele><time>2026-04-17T14:46:54Z</time></trkpt><trkpt lat="45.817782724320644" lon="9.759387739714613"><ele>903.0</ele><time>2026-04-17T14:46:55Z</time></trkpt><trkpt lat="45.81775632037634" lon="9.759522012977643"><ele>903.0</ele><time>2026-04-17T14:46:56Z</time></trkpt><trkpt lat="45.817751438805544" lon="9.759653689060189"><ele>903.0</ele><time>2026-04-17T14:46:57Z</time></trkpt><trkpt lat="45.817772736918435" lon="9.75978479398365"><ele>903.0</ele><time>2026-04-17T14:46:58Z</time></trkpt><trkpt lat="45.81782157793732" lon="9.7599007483559"><ele>903.0</ele><time>2026-04-17T14:46:59Z</time></trkpt><trkpt lat="45.8178708315823" lon="9.76000292420558"><ele>903.0</ele><time>2026-04-17T14:47:00Z</time></trkpt><trkpt lat="45.81790405930374" lon="9.760109857795635"><ele>903.0</ele><time>2026-04-17T14:47:01Z</time></trkpt><trkpt lat="45.81792527832256" lon="9.760216615590233"><ele>903.0</ele><time>2026-04-17T14:47:02Z</time></trkpt><trkpt lat="45.8179300413367" lon="9.760325712041276"><ele>903.0</ele><time>2026-04-17T14:47:03Z</time></trkpt><trkpt lat="45.81790821552769" lon="9.760423412864586"><ele>903.0</ele><time>2026-04-17T14:47:04Z</time></trkpt><trkpt lat="45.81785250922469" lon="9.76048565590078"><ele>905.75</ele><time>2026-04-17T14:47:05Z</time></trkpt><trkpt lat="45.817751894495586" lon="9.760573167225344"><ele>908.5</ele><time>2026-04-17T14:47:07Z</time></trkpt><trkpt lat="45.817651867078055" lon="9.76066287821041"><ele>911.25</ele><time>2026-04-17T14:47:09Z</time></trkpt><trkpt lat="45.81755510694836" lon="9.760766335661403"><ele>914.0</ele><time>2026-04-17T14:47:11Z</time></trkpt><trkpt lat="45.81750203038491" lon="9.760924473527869"><ele>905.0</ele><time>2026-04-17T14:47:13Z</time></trkpt><trkpt lat="45.81747804878562" lon="9.761098476257805"><ele>896.0</ele><time>2026-04-17T14:47:15Z</time></trkpt><trkpt lat="45.817450198317346" lon="9.761273580200506"><ele>887.0</ele><time>2026-04-17T14:47:17Z</time></trkpt><trkpt lat="45.817418294575276" lon="9.761441922562508"><ele>878.0</ele><time>2026-04-17T14:47:19Z</time></trkpt><trkpt lat="45.81739443728113" lon="9.76161324080145"><ele>878.0000000000001</ele><time>2026-04-17T14:47:21Z</time></trkpt><trkpt lat="45.81739524877116" lon="9.76178784197521"><ele>878.0</ele><time>2026-04-17T14:47:23Z</time></trkpt><trkpt lat="45.817413926957194" lon="9.761965343621997"><ele>878.0</ele><time>2026-04-17T14:47:25Z</time></trkpt><trkpt lat="45.81741275560511" lon="9.762057568023563"><ele>878.0</ele><time>2026-04-17T14:47:26Z</time></trkpt><trkpt lat="45.81739835336443" lon="9.762150123918765"><ele>878.0000000000001</ele><time>2026-04-17T14:47:27Z</time></trkpt><trkpt lat="45.81737383775644" lon="9.762234724987339"><ele>878.0</ele><time>2026-04-17T14:47:28Z</time></trkpt><trkpt lat="45.817342855932765" lon="9.762317658963804"><ele>881.4</ele><time>2026-04-17T14:47:29Z</time></trkpt><trkpt lat="45.81731499480625" lon="9.762399154434968"><ele>884.8</ele><time>2026-04-17T14:47:30Z</time></trkpt><trkpt lat="45.817256841048085" lon="9.76256154191895"><ele>888.2</ele><time>2026-04-17T14:47:32Z</time></trkpt><trkpt lat="45.81715735466766" lon="9.762682787510279"><ele>891.6</ele><time>2026-04-17T14:47:34Z</time></trkpt><trkpt lat="45.817088810093736" lon="9.762701095782461"><ele>895.0</ele><time>2026-04-17T14:47:35Z</time></trkpt><trkpt lat="45.81702247905864" lon="9.76268462814375"><ele>895.0</ele><time>2026-04-17T14:47:36Z</time></trkpt><trkpt lat="45.81697217893171" lon="9.762627710616396"><ele>895.0</ele><time>2026-04-17T14:47:37Z</time></trkpt><trkpt lat="45.81690283740956" lon="9.76249417884226"><ele>895.0</ele><time>2026-04-17T14:47:39Z</time></trkpt><trkpt lat="45.816837598754944" lon="9.762346589943176"><ele>895.0</ele><time>2026-04-17T14:47:41Z</time></trkpt><trkpt lat="45.81678223918974" lon="9.762214612575788"><ele>895.0</ele><time>2026-04-17T14:47:43Z</time></trkpt><trkpt lat="45.816700434018514" lon="9.762105040895973"><ele>894.4</ele><time>2026-04-17T14:47:45Z</time></trkpt><trkpt lat="45.81661938291766" lon="9.761997103231584"><ele>893.8</ele><time>2026-04-17T14:47:47Z</time></trkpt><trkpt lat="45.81654277650217" lon="9.761892766284726"><ele>893.2</ele><time>2026-04-17T14:47:49Z</time></trkpt><trkpt lat="45.81646052773589" lon="9.761792545889197"><ele>892.6</ele><time>2026-04-17T14:47:51Z</time></trkpt><trkpt lat="45.816389192690444" lon="9.76168326060636"><ele>892.0</ele><time>2026-04-17T14:47:53Z</time></trkpt><trkpt lat="45.81631521794643" lon="9.761587160020722"><ele>891.8</ele><time>2026-04-17T14:47:55Z</time></trkpt><trkpt lat="45.816226033846526" lon="9.761495701932441"><ele>891.6</ele><time>2026-04-17T14:47:57Z</time></trkpt><trkpt lat="45.81612690926769" lon="9.761420678798803"><ele>891.3999999999999</ele><time>2026-04-17T14:47:59Z</time></trkpt><trkpt lat="45.81602708034375" lon="9.761357869951162"><ele>891.1999999999999</ele><time>2026-04-17T14:48:01Z</time></trkpt><trkpt lat="45.81593130633562" lon="9.76130704452707"><ele>891.0</ele><time>2026-04-17T14:48:03Z</time></trkpt><trkpt lat="45.8158322141882" lon="9.761272710349779"><ele>891.0</ele><time>2026-04-17T14:48:05Z</time></trkpt><trkpt lat="45.81573086688755" lon="9.761235605296624"><ele>890.9999999999999</ele><time>2026-04-17T14:48:07Z</time></trkpt><trkpt lat="45.8156317231801" lon="9.761201365600758"><ele>890.9999999999999</ele><time>2026-04-17T14:48:09Z</time></trkpt><trkpt lat="45.81553059529038" lon="9.761168774620504"><ele>891.0</ele><time>2026-04-17T14:48:11Z</time></trkpt><trkpt lat="45.815431184793006" lon="9.761142574030501"><ele>891.0</ele><time>2026-04-17T14:48:13Z</time></trkpt><trkpt lat="45.81533228927388" lon="9.761136416995226"><ele>891.0</ele><time>2026-04-17T14:48:15Z</time></trkpt><trkpt lat="45.8152351172979" lon="9.76117587840013"><ele>890.9999999999999</ele><time>2026-04-17T14:48:17Z</time></trkpt><trkpt lat="45.81513615467247" lon="9.76122030183242"><ele>890.9999999999999</ele><time>2026-04-17T14:48:19Z</time></trkpt><trkpt lat="45.81504742917726" lon="9.761275163789012"><ele>891.0</ele><time>2026-04-17T14:48:21Z</time></trkpt><trkpt lat="45.81495760743685" lon="9.7613322538222"><ele>891.0</ele><time>2026-04-17T14:48:23Z</time></trkpt><trkpt lat="45.81486582858681" lon="9.761379180264512"><ele>891.8</ele><time>2026-04-17T14:48:25Z</time></trkpt><trkpt lat="45.81477779563632" lon="9.76143405694718"><ele>892.5999999999999</ele><time>2026-04-17T14:48:27Z</time></trkpt><trkpt lat="45.814686977631375" lon="9.761493064661995"><ele>893.4</ele><time>2026-04-17T14:48:29Z</time></trkpt><trkpt lat="45.814603812895655" lon="9.761576504846394"><ele>894.2</ele><time>2026-04-17T14:48:31Z</time></trkpt><trkpt lat="45.81451989507848" lon="9.761675636538026"><ele>895.0</ele><time>2026-04-17T14:48:33Z</time></trkpt><trkpt lat="45.8144316690748" lon="9.76178061876619"><ele>896.0</ele><time>2026-04-17T14:48:35Z</time></trkpt><trkpt lat="45.814342251793974" lon="9.7618858530743"><ele>897.0</ele><time>2026-04-17T14:48:37Z</time></trkpt><trkpt lat="45.81425393705965" lon="9.762006427680976"><ele>898.0</ele><time>2026-04-17T14:48:39Z</time></trkpt><trkpt lat="45.81416861650526" lon="9.762134380977699"><ele>899.0</ele><time>2026-04-17T14:48:41Z</time></trkpt><trkpt lat="45.81412286434841" lon="9.762196704115436"><ele>900.0</ele><time>2026-04-17T14:48:42Z</time></trkpt><trkpt lat="45.81402375519756" lon="9.762307897934393"><ele>900.0</ele><time>2026-04-17T14:48:44Z</time></trkpt><trkpt lat="45.81392471466834" lon="9.762412559413693"><ele>900.0</ele><time>2026-04-17T14:48:46Z</time></trkpt><trkpt lat="45.813871698700865" lon="9.762462986416944"><ele>900.0</ele><time>2026-04-17T14:48:47Z</time></trkpt><trkpt lat="45.813784547913464" lon="9.762584021437597"><ele>900.0</ele><time>2026-04-17T14:48:49Z</time></trkpt><trkpt lat="45.8137443887449" lon="9.762654349679387"><ele>900.0</ele><time>2026-04-17T14:48:50Z</time></trkpt><trkpt lat="45.81367376540098" lon="9.762799878884694"><ele>901.6</ele><time>2026-04-17T14:48:52Z</time></trkpt><trkpt lat="45.81360260735463" lon="9.762947294262691"><ele>903.2</ele><time>2026-04-17T14:48:54Z</time></trkpt><trkpt lat="45.81356240338932" lon="9.763017025892129"><ele>904.8</ele><time>2026-04-17T14:48:55Z</time></trkpt><trkpt lat="45.813478621268935" lon="9.763152271361632"><ele>906.4</ele><time>2026-04-17T14:48:57Z</time></trkpt><trkpt lat="45.813435008554244" lon="9.763217803254003"><ele>908.0</ele><time>2026-04-17T14:48:58Z</time></trkpt><trkpt lat="45.813337821024405" lon="9.763325233170837"><ele>908.0</ele><time>2026-04-17T14:49:00Z</time></trkpt><trkpt lat="45.81323496590093" lon="9.763403273284043"><ele>908.0</ele><time>2026-04-17T14:49:02Z</time></trkpt><trkpt lat="45.8131745617471" lon="9.763439227432336"><ele>908.0</ele><time>2026-04-17T14:49:03Z</time></trkpt><trkpt lat="45.813061695094206" lon="9.763498781909702"><ele>908.0</ele><time>2026-04-17T14:49:05Z</time></trkpt><trkpt lat="45.81294547490591" lon="9.763561741408033"><ele>908.0</ele><time>2026-04-17T14:49:07Z</time></trkpt><trkpt lat="45.81288660356053" lon="9.763594842350509"><ele>912.2</ele><time>2026-04-17T14:49:08Z</time></trkpt><trkpt lat="45.81277405516662" lon="9.763659131073444"><ele>916.4</ele><time>2026-04-17T14:49:10Z</time></trkpt><trkpt lat="45.812656743133" lon="9.763719435804704"><ele>920.6000000000001</ele><time>2026-04-17T14:49:12Z</time></trkpt><trkpt lat="45.812588100561484" lon="9.763721554620943"><ele>924.8000000000001</ele><time>2026-04-17T14:49:13Z</time></trkpt><trkpt lat="45.81247448985862" lon="9.763699814753808"><ele>929.0</ele><time>2026-04-17T14:49:15Z</time></trkpt><trkpt lat="45.81238108801492" lon="9.763600474421398"><ele>923.75</ele><time>2026-04-17T14:49:17Z</time></trkpt><trkpt lat="45.81235285088931" lon="9.763448117598816"><ele>918.5</ele><time>2026-04-17T14:49:19Z</time></trkpt><trkpt lat="45.81232871990741" lon="9.763280821194384"><ele>913.25</ele><time>2026-04-17T14:49:21Z</time></trkpt><trkpt lat="45.812296516531035" lon="9.763136944152597"><ele>908.0</ele><time>2026-04-17T14:49:23Z</time></trkpt><trkpt lat="45.81222621324705" lon="9.763003546284224"><ele>908.0</ele><time>2026-04-17T14:49:25Z</time></trkpt><trkpt lat="45.81215647853544" lon="9.7628710212532"><ele>908.0</ele><time>2026-04-17T14:49:27Z</time></trkpt><trkpt lat="45.81208547069073" lon="9.762748286843067"><ele>908.0</ele><time>2026-04-17T14:49:29Z</time></trkpt><trkpt lat="45.811985041784496" lon="9.76266892376132"><ele>908.0</ele><time>2026-04-17T14:49:31Z</time></trkpt><trkpt lat="45.81187737278786" lon="9.762612572494822"><ele>912.4</ele><time>2026-04-17T14:49:33Z</time></trkpt><trkpt lat="45.81177376420253" lon="9.762568079927652"><ele>916.8</ele><time>2026-04-17T14:49:35Z</time></trkpt><trkpt lat="45.811685828880876" lon="9.762495926669795"><ele>921.2</ele><time>2026-04-17T14:49:37Z</time></trkpt><trkpt lat="45.811625442636775" lon="9.76236384956668"><ele>925.6</ele><time>2026-04-17T14:49:39Z</time></trkpt><trkpt lat="45.81163802776058" lon="9.762215514600014"><ele>930.0</ele><time>2026-04-17T14:49:41Z</time></trkpt><trkpt lat="45.811615351602356" lon="9.76206925446827"><ele>930.0</ele><time>2026-04-17T14:49:43Z</time></trkpt><trkpt lat="45.81162582673451" lon="9.761936495193922"><ele>930.0</ele><time>2026-04-17T14:49:45Z</time></trkpt><trkpt lat="45.81158891544262" lon="9.761781668237175"><ele>930.0</ele><time>2026-04-17T14:49:47Z</time></trkpt><trkpt lat="45.811555641098785" lon="9.7616285894725"><ele>930.0</ele><time>2026-04-17T14:49:49Z</time></trkpt><trkpt lat="45.811544204209355" lon="9.761478076006473"><ele>930.0</ele><time>2026-04-17T14:49:51Z</time></trkpt><trkpt lat="45.811527888871446" lon="9.761345339304484"><ele>926.4</ele><time>2026-04-17T14:49:53Z</time></trkpt><trkpt lat="45.811517400112244" lon="9.761246704622824"><ele>922.8</ele><time>2026-04-17T14:49:54Z</time></trkpt><trkpt lat="45.811527116518114" lon="9.761104520397097"><ele>919.2</ele><time>2026-04-17T14:49:56Z</time></trkpt><trkpt lat="45.8114859244767" lon="9.760953313667581"><ele>915.6</ele><time>2026-04-17T14:49:58Z</time></trkpt><trkpt lat="45.81146630099248" lon="9.760809713569135"><ele>912.0</ele><time>2026-04-17T14:50:00Z</time></trkpt><trkpt lat="45.811408293465426" lon="9.760688804345397"><ele>911.0</ele><time>2026-04-17T14:50:02Z</time></trkpt><trkpt lat="45.811357662712524" lon="9.76055126527908"><ele>910.0</ele><time>2026-04-17T14:50:04Z</time></trkpt><trkpt lat="45.8113111372612" lon="9.760404889177167"><ele>909.0</ele><time>2026-04-17T14:50:06Z</time></trkpt><trkpt lat="45.81126991200147" lon="9.760255817347195"><ele>908.0</ele><time>2026-04-17T14:50:08Z</time></trkpt><trkpt lat="45.8112343801794" lon="9.760105600227723"><ele>907.0</ele><time>2026-04-17T14:50:10Z</time></trkpt><trkpt lat="45.811181257878175" lon="9.759959740183232"><ele>902.5</ele><time>2026-04-17T14:50:12Z</time></trkpt><trkpt lat="45.81114579191421" lon="9.759802095645215"><ele>898.0</ele><time>2026-04-17T14:50:14Z</time></trkpt><trkpt lat="45.811144671777534" lon="9.759645652115772"><ele>893.5</ele><time>2026-04-17T14:50:16Z</time></trkpt><trkpt lat="45.81114180680506" lon="9.759479780525712"><ele>889.0</ele><time>2026-04-17T14:50:18Z</time></trkpt><trkpt lat="45.81112028771443" lon="9.75932189492142"><ele>886.2</ele><time>2026-04-17T14:50:20Z</time></trkpt><trkpt lat="45.811064163964396" lon="9.759188283177204"><ele>883.4000000000001</ele><time>2026-04-17T14:50:22Z</time></trkpt><trkpt lat="45.810980330309654" lon="9.759083214941025"><ele>880.6</ele><time>2026-04-17T14:50:24Z</time></trkpt><trkpt lat="45.810894117423715" lon="9.758982527931574"><ele>877.8</ele><time>2026-04-17T14:50:26Z</time></trkpt><trkpt lat="45.81081765101902" lon="9.758874426870326"><ele>875.0</ele><time>2026-04-17T14:50:28Z</time></trkpt><trkpt lat="45.81073455919305" lon="9.758781320019878"><ele>885.4</ele><time>2026-04-17T14:50:30Z</time></trkpt><trkpt lat="45.81062866372979" lon="9.758759566567594"><ele>895.8</ele><time>2026-04-17T14:50:32Z</time></trkpt><trkpt lat="45.8105358791826" lon="9.758838262133565"><ele>906.2</ele><time>2026-04-17T14:50:34Z</time></trkpt><trkpt lat="45.81048078049114" lon="9.758994757608718"><ele>916.6</ele><time>2026-04-17T14:50:36Z</time></trkpt><trkpt lat="45.81046004120467" lon="9.75908168748033"><ele>927.0</ele><time>2026-04-17T14:50:37Z</time></trkpt><trkpt lat="45.81038905068634" lon="9.759216371698919"><ele>927.0</ele><time>2026-04-17T14:50:39Z</time></trkpt><trkpt lat="45.81031555506325" lon="9.759341703773071"><ele>927.0</ele><time>2026-04-17T14:50:41Z</time></trkpt><trkpt lat="45.810246347337376" lon="9.759470682391639"><ele>927.0</ele><time>2026-04-17T14:50:43Z</time></trkpt><trkpt lat="45.81017233598444" lon="9.759597024286112"><ele>927.0</ele><time>2026-04-17T14:50:45Z</time></trkpt><trkpt lat="45.810099840105046" lon="9.759724594102405"><ele>928.0</ele><time>2026-04-17T14:50:47Z</time></trkpt><trkpt lat="45.81003054373569" lon="9.759851367867714"><ele>929.0</ele><time>2026-04-17T14:50:49Z</time></trkpt><trkpt lat="45.80996172868728" lon="9.759981166999646"><ele>930.0</ele><time>2026-04-17T14:50:51Z</time></trkpt><trkpt lat="45.809896249995816" lon="9.760118584508424"><ele>931.0</ele><time>2026-04-17T14:50:53Z</time></trkpt><trkpt lat="45.80985049091241" lon="9.760267459606142"><ele>938.0</ele><time>2026-04-17T14:50:55Z</time></trkpt><trkpt lat="45.80980159238506" lon="9.76041132118503"><ele>945.0</ele><time>2026-04-17T14:50:57Z</time></trkpt><trkpt lat="45.809709429783965" lon="9.76051420188181"><ele>952.0</ele><time>2026-04-17T14:50:59Z</time></trkpt><trkpt lat="45.80961617490825" lon="9.760611372598767"><ele>959.0</ele><time>2026-04-17T14:51:01Z</time></trkpt><trkpt lat="45.809528716960294" lon="9.760727069210894"><ele>959.0</ele><time>2026-04-17T14:51:03Z</time></trkpt><trkpt lat="45.80944247425669" lon="9.760841053606937"><ele>959.0</ele><time>2026-04-17T14:51:05Z</time></trkpt><trkpt lat="45.809350998634166" lon="9.760949040360051"><ele>959.0</ele><time>2026-04-17T14:51:07Z</time></trkpt><trkpt lat="45.80926093336622" lon="9.76104916366053"><ele>959.0</ele><time>2026-04-17T14:51:09Z</time></trkpt><trkpt lat="45.809163895426074" lon="9.761127933671295"><ele>960.75</ele><time>2026-04-17T14:51:11Z</time></trkpt><trkpt lat="45.809063390202446" lon="9.761211961958436"><ele>962.5</ele><time>2026-04-17T14:51:13Z</time></trkpt><trkpt lat="45.80895312418988" lon="9.761264921103345"><ele>964.25</ele><time>2026-04-17T14:51:15Z</time></trkpt><trkpt lat="45.80883704255581" lon="9.761268237124325"><ele>966.0</ele><time>2026-04-17T14:51:17Z</time></trkpt><trkpt lat="45.80873216064497" lon="9.761217803849322"><ele>966.0</ele><time>2026-04-17T14:51:19Z</time></trkpt><trkpt lat="45.808628006552176" lon="9.76115326589906"><ele>966.0</ele><time>2026-04-17T14:51:21Z</time></trkpt><trkpt lat="45.80851788221794" lon="9.76109202668766"><ele>966.0</ele><time>2026-04-17T14:51:23Z</time></trkpt><trkpt lat="45.80840621810961" lon="9.761038049503414"><ele>966.0</ele><time>2026-04-17T14:51:25Z</time></trkpt><trkpt lat="45.80830303377631" lon="9.76096168958352"><ele>961.1999999999999</ele><time>2026-04-17T14:51:27Z</time></trkpt><trkpt lat="45.808231360625655" lon="9.760843240979538"><ele>956.3999999999999</ele><time>2026-04-17T14:51:29Z</time></trkpt><trkpt lat="45.80815802318633" lon="9.760713342656228"><ele>951.6</ele><time>2026-04-17T14:51:31Z</time></trkpt><trkpt lat="45.80810811683852" lon="9.760564800553944"><ele>946.8</ele><time>2026-04-17T14:51:33Z</time></trkpt><trkpt lat="45.80807593014734" lon="9.760416504612706"><ele>942.0</ele><time>2026-04-17T14:51:35Z</time></trkpt><trkpt lat="45.80801412062561" lon="9.760268907937037"><ele>943.6</ele><time>2026-04-17T14:51:37Z</time></trkpt><trkpt lat="45.8079397458686" lon="9.760157436206454"><ele>945.2</ele><time>2026-04-17T14:51:39Z</time></trkpt><trkpt lat="45.80785991507571" lon="9.76004385147339"><ele>946.8</ele><time>2026-04-17T14:51:41Z</time></trkpt><trkpt lat="45.80777350810442" lon="9.759953087767158"><ele>948.4</ele><time>2026-04-17T14:51:43Z</time></trkpt><trkpt lat="45.8076801997107" lon="9.759875955755412"><ele>950.0</ele><time>2026-04-17T14:51:45Z</time></trkpt><trkpt lat="45.807588559625124" lon="9.759790532286987"><ele>950.0</ele><time>2026-04-17T14:51:47Z</time></trkpt><trkpt lat="45.80749137612787" lon="9.75971556729038"><ele>950.0</ele><time>2026-04-17T14:51:49Z</time></trkpt><trkpt lat="45.80739478774219" lon="9.759652287367313"><ele>950.0</ele><time>2026-04-17T14:51:51Z</time></trkpt><trkpt lat="45.807288287375776" lon="9.759607566490018"><ele>950.0</ele><time>2026-04-17T14:51:53Z</time></trkpt><trkpt lat="45.807183496563624" lon="9.759630638350199"><ele>950.0</ele><time>2026-04-17T14:51:55Z</time></trkpt><trkpt lat="45.80709001791137" lon="9.75969521084658"><ele>950.0</ele><time>2026-04-17T14:51:57Z</time></trkpt><trkpt lat="45.806994088598664" lon="9.75973903740421"><ele>950.0</ele><time>2026-04-17T14:51:59Z</time></trkpt><trkpt lat="45.806889283093824" lon="9.75971066331861"><ele>950.0</ele><time>2026-04-17T14:52:01Z</time></trkpt><trkpt lat="45.80679817830781" lon="9.759638215122386"><ele>950.0</ele><time>2026-04-17T14:52:03Z</time></trkpt><trkpt lat="45.80670164576454" lon="9.759555060957366"><ele>950.0</ele><time>2026-04-17T14:52:05Z</time></trkpt><trkpt lat="45.80660875023994" lon="9.759468471546786"><ele>948.4</ele><time>2026-04-17T14:52:07Z</time></trkpt><trkpt lat="45.80651948715515" lon="9.7593775801608"><ele>946.8</ele><time>2026-04-17T14:52:09Z</time></trkpt><trkpt lat="45.80642489108152" lon="9.75929208498242"><ele>945.2</ele><time>2026-04-17T14:52:11Z</time></trkpt><trkpt lat="45.80632119302213" lon="9.75922714195204"><ele>943.6</ele><time>2026-04-17T14:52:13Z</time></trkpt><trkpt lat="45.80621312216582" lon="9.759185792134325"><ele>942.0</ele><time>2026-04-17T14:52:15Z</time></trkpt><trkpt lat="45.80609824028559" lon="9.759170188856734"><ele>942.75</ele><time>2026-04-17T14:52:17Z</time></trkpt><trkpt lat="45.80598066692928" lon="9.759178521079013"><ele>943.5</ele><time>2026-04-17T14:52:19Z</time></trkpt><trkpt lat="45.80586101014894" lon="9.75920185341457"><ele>944.25</ele><time>2026-04-17T14:52:21Z</time></trkpt><trkpt lat="45.80574707988913" lon="9.759245017198788"><ele>945.0</ele><time>2026-04-17T14:52:23Z</time></trkpt><trkpt lat="45.80563835027373" lon="9.759310035618673"><ele>952.0</ele><time>2026-04-17T14:52:25Z</time></trkpt><trkpt lat="45.80553886168915" lon="9.759394327881656"><ele>959.0</ele><time>2026-04-17T14:52:27Z</time></trkpt><trkpt lat="45.805442336458704" lon="9.759486117994483"><ele>966.0</ele><time>2026-04-17T14:52:29Z</time></trkpt><trkpt lat="45.805358148224556" lon="9.759591115630808"><ele>973.0</ele><time>2026-04-17T14:52:31Z</time></trkpt><trkpt lat="45.805282931013885" lon="9.75970681628804"><ele>973.0</ele><time>2026-04-17T14:52:33Z</time></trkpt><trkpt lat="45.80521112578697" lon="9.75982512267294"><ele>973.0</ele><time>2026-04-17T14:52:35Z</time></trkpt><trkpt lat="45.80514033920201" lon="9.759939981829994"><ele>973.0</ele><time>2026-04-17T14:52:37Z</time></trkpt><trkpt lat="45.80507279383748" lon="9.76006136537286"><ele>973.0</ele><time>2026-04-17T14:52:39Z</time></trkpt><trkpt lat="45.80502002616522" lon="9.760191353402261"><ele>973.0</ele><time>2026-04-17T14:52:41Z</time></trkpt><trkpt lat="45.804951916189516" lon="9.76031821755746"><ele>974.2</ele><time>2026-04-17T14:52:43Z</time></trkpt><trkpt lat="45.804881377561905" lon="9.760430578885142"><ele>975.4</ele><time>2026-04-17T14:52:45Z</time></trkpt><trkpt lat="45.80480889597104" lon="9.76053325042108"><ele>976.6000000000001</ele><time>2026-04-17T14:52:47Z</time></trkpt><trkpt lat="45.80473045021175" lon="9.760630353786583"><ele>977.8000000000001</ele><time>2026-04-17T14:52:49Z</time></trkpt><trkpt lat="45.80465315449716" lon="9.760731426754463"><ele>979.0</ele><time>2026-04-17T14:52:51Z</time></trkpt><trkpt lat="45.80457449986719" lon="9.760835814858721"><ele>979.0</ele><time>2026-04-17T14:52:53Z</time></trkpt><trkpt lat="45.80450413720253" lon="9.760947923274527"><ele>979.0000000000001</ele><time>2026-04-17T14:52:55Z</time></trkpt><trkpt lat="45.80444075485768" lon="9.761066639975512"><ele>979.0000000000001</ele><time>2026-04-17T14:52:57Z</time></trkpt><trkpt lat="45.804372005057736" lon="9.761187714237096"><ele>979.0</ele><time>2026-04-17T14:52:59Z</time></trkpt><trkpt lat="45.804283221107916" lon="9.761271940562748"><ele>979.0</ele><time>2026-04-17T14:53:01Z</time></trkpt><trkpt lat="45.80422842476793" lon="9.761405676708224"><ele>977.4000000000001</ele><time>2026-04-17T14:53:03Z</time></trkpt><trkpt lat="45.804162439967826" lon="9.761519107445395"><ele>975.8000000000001</ele><time>2026-04-17T14:53:05Z</time></trkpt><trkpt lat="45.80410076478458" lon="9.761642998684382"><ele>974.1999999999999</ele><time>2026-04-17T14:53:07Z</time></trkpt><trkpt lat="45.804027900454585" lon="9.761750353064455"><ele>972.5999999999999</ele><time>2026-04-17T14:53:09Z</time></trkpt><trkpt lat="45.803954934539874" lon="9.761857888700847"><ele>971.0</ele><time>2026-04-17T14:53:11Z</time></trkpt><trkpt lat="45.8038914463108" lon="9.761983400551918"><ele>976.8</ele><time>2026-04-17T14:53:13Z</time></trkpt><trkpt lat="45.803839542178586" lon="9.762112550409102"><ele>982.5999999999999</ele><time>2026-04-17T14:53:15Z</time></trkpt><trkpt lat="45.80381659640584" lon="9.762245923477606"><ele>988.4</ele><time>2026-04-17T14:53:17Z</time></trkpt><trkpt lat="45.80380456121625" lon="9.762375797754324"><ele>994.2</ele><time>2026-04-17T14:53:19Z</time></trkpt><trkpt lat="45.8037834318367" lon="9.762507008332507"><ele>1000.0</ele><time>2026-04-17T14:53:21Z</time></trkpt><trkpt lat="45.8037289291828" lon="9.762627111236645"><ele>1000.0</ele><time>2026-04-17T14:53:23Z</time></trkpt><trkpt lat="45.80363462003537" lon="9.762697262808821"><ele>1000.0</ele><time>2026-04-17T14:53:25Z</time></trkpt><trkpt lat="45.80354247140872" lon="9.762749286907225"><ele>1000.0</ele><time>2026-04-17T14:53:27Z</time></trkpt><trkpt lat="45.80345151543713" lon="9.762819512932031"><ele>1000.0</ele><time>2026-04-17T14:53:29Z</time></trkpt><trkpt lat="45.803375121483235" lon="9.762921579612883"><ele>1000.0</ele><time>2026-04-17T14:53:31Z</time></trkpt><trkpt lat="45.80331569067869" lon="9.763040232168104"><ele>999.0</ele><time>2026-04-17T14:53:33Z</time></trkpt><trkpt lat="45.80326711938511" lon="9.763169353243455"><ele>998.0</ele><time>2026-04-17T14:53:35Z</time></trkpt><trkpt lat="45.8032540237253" lon="9.763319141957284"><ele>997.0</ele><time>2026-04-17T14:53:37Z</time></trkpt><trkpt lat="45.80325726366296" lon="9.763469776917468"><ele>996.0</ele><time>2026-04-17T14:53:39Z</time></trkpt><trkpt lat="45.80328109050203" lon="9.763616816555778"><ele>995.0</ele><time>2026-04-17T14:53:41Z</time></trkpt><trkpt lat="45.80329539017181" lon="9.763761281375968"><ele>995.0</ele><time>2026-04-17T14:53:43Z</time></trkpt><trkpt lat="45.80328520641365" lon="9.763895061949318"><ele>995.0</ele><time>2026-04-17T14:53:45Z</time></trkpt><trkpt lat="45.80324908356965" lon="9.76401496992597"><ele>995.0</ele><time>2026-04-17T14:53:47Z</time></trkpt><trkpt lat="45.803194580460485" lon="9.764117831387566"><ele>995.0</ele><time>2026-04-17T14:53:49Z</time></trkpt><trkpt lat="45.80316544973107" lon="9.764255979165759"><ele>995.0</ele><time>2026-04-17T14:53:51Z</time></trkpt><trkpt lat="45.8031551848553" lon="9.764394790200775"><ele>999.6</ele><time>2026-04-17T14:53:53Z</time></trkpt><trkpt lat="45.803153353795345" lon="9.764535950678285"><ele>1004.2</ele><time>2026-04-17T14:53:55Z</time></trkpt><trkpt lat="45.80313419593823" lon="9.764669191045034"><ele>1008.8</ele><time>2026-04-17T14:53:57Z</time></trkpt><trkpt lat="45.803110307313084" lon="9.764799517480755"><ele>1013.4</ele><time>2026-04-17T14:53:59Z</time></trkpt><trkpt lat="45.8030693727827" lon="9.764927036799083"><ele>1018.0</ele><time>2026-04-17T14:54:01Z</time></trkpt><trkpt lat="45.80300109893264" lon="9.765028020512455"><ele>1018.0</ele><time>2026-04-17T14:54:03Z</time></trkpt><trkpt lat="45.80291268843955" lon="9.765096527645575"><ele>1018.0</ele><time>2026-04-17T14:54:05Z</time></trkpt><trkpt lat="45.802816826057786" lon="9.765144312660514"><ele>1018.0</ele><time>2026-04-17T14:54:07Z</time></trkpt><trkpt lat="45.802725687045324" lon="9.765220704900592"><ele>1018.0</ele><time>2026-04-17T14:54:09Z</time></trkpt><trkpt lat="45.8026531815787" lon="9.765319247234926"><ele>1018.0</ele><time>2026-04-17T14:54:11Z</time></trkpt><trkpt lat="45.802601693936865" lon="9.765437976657001"><ele>1016.5999999999999</ele><time>2026-04-17T14:54:13Z</time></trkpt><trkpt lat="45.80257964899464" lon="9.765573363776927"><ele>1015.1999999999999</ele><time>2026-04-17T14:54:15Z</time></trkpt><trkpt lat="45.802570146767415" lon="9.765708914578498"><ele>1013.8</ele><time>2026-04-17T14:54:17Z</time></trkpt><trkpt lat="45.802570834917915" lon="9.76584623131745"><ele>1012.4</ele><time>2026-04-17T14:54:19Z</time></trkpt><trkpt lat="45.80258451638297" lon="9.765982174648332"><ele>1011.0</ele><time>2026-04-17T14:54:21Z</time></trkpt><trkpt lat="45.80259725366989" lon="9.7661153446683"><ele>1011.0</ele><time>2026-04-17T14:54:23Z</time></trkpt><trkpt lat="45.8025949391283" lon="9.766252098201884"><ele>1010.9999999999999</ele><time>2026-04-17T14:54:25Z</time></trkpt><trkpt lat="45.80253327386668" lon="9.766349581920121"><ele>1010.9999999999999</ele><time>2026-04-17T14:54:27Z</time></trkpt><trkpt lat="45.80249726281098" lon="9.766498957316912"><ele>1011.0</ele><time>2026-04-17T14:54:29Z</time></trkpt><trkpt lat="45.80245284134998" lon="9.76661905095921"><ele>1011.0</ele><time>2026-04-17T14:54:31Z</time></trkpt><trkpt lat="45.80241707850645" lon="9.766744634963153"><ele>1015.0</ele><time>2026-04-17T14:54:33Z</time></trkpt><trkpt lat="45.80238290410903" lon="9.76687455748299"><ele>1018.9999999999999</ele><time>2026-04-17T14:54:35Z</time></trkpt><trkpt lat="45.802343830350516" lon="9.766998671333756"><ele>1022.9999999999999</ele><time>2026-04-17T14:54:37Z</time></trkpt><trkpt lat="45.80230937529019" lon="9.767123932811707"><ele>1027.0</ele><time>2026-04-17T14:54:39Z</time></trkpt><trkpt lat="45.80227369644792" lon="9.76724917668827"><ele>1031.0</ele><time>2026-04-17T14:54:41Z</time></trkpt><trkpt lat="45.802243243133006" lon="9.767375584592205"><ele>1031.0</ele><time>2026-04-17T14:54:43Z</time></trkpt><trkpt lat="45.802217692078216" lon="9.767504356196671"><ele>1031.0</ele><time>2026-04-17T14:54:45Z</time></trkpt><trkpt lat="45.80221317897991" lon="9.767639524414871"><ele>1031.0</ele><time>2026-04-17T14:54:47Z</time></trkpt><trkpt lat="45.80219819324704" lon="9.767779908589391"><ele>1031.0</ele><time>2026-04-17T14:54:49Z</time></trkpt><trkpt lat="45.80216805805053" lon="9.767908066434602"><ele>1031.0</ele><time>2026-04-17T14:54:51Z</time></trkpt><trkpt lat="45.802136555069005" lon="9.768027190330772"><ele>1029.6</ele><time>2026-04-17T14:54:53Z</time></trkpt><trkpt lat="45.80206119888199" lon="9.768105599347392"><ele>1028.1999999999998</ele><time>2026-04-17T14:54:55Z</time></trkpt><trkpt lat="45.80196243787487" lon="9.768139936886456"><ele>1026.8000000000002</ele><time>2026-04-17T14:54:57Z</time></trkpt><trkpt lat="45.80186143181704" lon="9.768131261428422"><ele>1025.4</ele><time>2026-04-17T14:54:59Z</time></trkpt><trkpt lat="45.801769386683134" lon="9.768117193483363"><ele>1024.0</ele><time>2026-04-17T14:55:01Z</time></trkpt><trkpt lat="45.80168286828308" lon="9.768093690750463"><ele>1023.9999999999999</ele><time>2026-04-17T14:55:03Z</time></trkpt><trkpt lat="45.801603073283644" lon="9.768084846136128"><ele>1024.0</ele><time>2026-04-17T14:55:05Z</time></trkpt><trkpt lat="45.80152587817596" lon="9.768092878143694"><ele>1024.0</ele><time>2026-04-17T14:55:08Z</time></trkpt><trkpt lat="45.80148622980927" lon="9.768019985802987"><ele>1024.0</ele><time>2026-04-17T14:55:12Z</time></trkpt><trkpt lat="45.80155261161865" lon="9.768072961892623"><ele>1023.9999999999999</ele><time>2026-04-17T14:55:16Z</time></trkpt><trkpt lat="45.80151170351182" lon="9.768155872955623"><ele>1024.0</ele><time>2026-04-17T14:55:18Z</time></trkpt><trkpt lat="45.80142907092643" lon="9.76822208425936"><ele>1023.9999999999999</ele><time>2026-04-17T14:55:20Z</time></trkpt><trkpt lat="45.80139611948288" lon="9.7683816318329"><ele>1024.0</ele><time>2026-04-17T14:55:22Z</time></trkpt><trkpt lat="45.80140141939202" lon="9.768478522399722"><ele>1024.0</ele><time>2026-04-17T14:55:23Z</time></trkpt><trkpt lat="45.801403139900295" lon="9.768582529843343"><ele>1024.0</ele><time>2026-04-17T14:55:24Z</time></trkpt><trkpt lat="45.8014033017664" lon="9.768693286957157"><ele>1023.9999999999999</ele><time>2026-04-17T14:55:25Z</time></trkpt><trkpt lat="45.801410030479595" lon="9.76881237868063"><ele>1024.0</ele><time>2026-04-17T14:55:26Z</time></trkpt><trkpt lat="45.801415914121954" lon="9.76893946102926"><ele>1024.4</ele><time>2026-04-17T14:55:27Z</time></trkpt><trkpt lat="45.80140062057295" lon="9.769076599878225"><ele>1024.8000000000002</ele><time>2026-04-17T14:55:28Z</time></trkpt><trkpt lat="45.80136156763747" lon="9.769208500494278"><ele>1025.1999999999998</ele><time>2026-04-17T14:55:29Z</time></trkpt><trkpt lat="45.801300534316205" lon="9.76932937985451"><ele>1025.6</ele><time>2026-04-17T14:55:30Z</time></trkpt><trkpt lat="45.80122871215411" lon="9.769437985917113"><ele>1026.0</ele><time>2026-04-17T14:55:31Z</time></trkpt><trkpt lat="45.801149646907426" lon="9.769537432245023"><ele>1027.6</ele><time>2026-04-17T14:55:32Z</time></trkpt><trkpt lat="45.80106635544871" lon="9.76963351938171"><ele>1029.1999999999998</ele><time>2026-04-17T14:55:33Z</time></trkpt><trkpt lat="45.80097848213434" lon="9.769725806853932"><ele>1030.8000000000002</ele><time>2026-04-17T14:55:34Z</time></trkpt><trkpt lat="45.800897846545055" lon="9.769823876158943"><ele>1032.4</ele><time>2026-04-17T14:55:35Z</time></trkpt><trkpt lat="45.80081502434558" lon="9.769925720689432"><ele>1034.0</ele><time>2026-04-17T14:55:36Z</time></trkpt><trkpt lat="45.80072938624582" lon="9.770021629992685"><ele>1031.0</ele><time>2026-04-17T14:55:37Z</time></trkpt><trkpt lat="45.80064408479194" lon="9.770120502978267"><ele>1028.0</ele><time>2026-04-17T14:55:38Z</time></trkpt><trkpt lat="45.80055892563846" lon="9.77022311463407"><ele>1025.0</ele><time>2026-04-17T14:55:39Z</time></trkpt><trkpt lat="45.80047211637109" lon="9.770320697103603"><ele>1022.0</ele><time>2026-04-17T14:55:40Z</time></trkpt><trkpt lat="45.800376149460455" lon="9.770409982066678"><ele>1019.0</ele><time>2026-04-17T14:55:41Z</time></trkpt><trkpt lat="45.800285990202845" lon="9.77050140242405"><ele>1019.0</ele><time>2026-04-17T14:55:42Z</time></trkpt><trkpt lat="45.80020562973287" lon="9.770599270243032"><ele>1019.0000000000001</ele><time>2026-04-17T14:55:43Z</time></trkpt><trkpt lat="45.800136410140496" lon="9.770699210074838"><ele>1019.0000000000001</ele><time>2026-04-17T14:55:44Z</time></trkpt><trkpt lat="45.80008213154869" lon="9.77079865315942"><ele>1019.0</ele><time>2026-04-17T14:55:45Z</time></trkpt><trkpt lat="45.80004653917697" lon="9.770914086257484"><ele>1019.0</ele><time>2026-04-17T14:55:46Z</time></trkpt><trkpt lat="45.80003540933988" lon="9.771043071917884"><ele>1018.5000000000001</ele><time>2026-04-17T14:55:47Z</time></trkpt><trkpt lat="45.80002872290155" lon="9.771157375913385"><ele>1018.0</ele><time>2026-04-17T14:55:48Z</time></trkpt><trkpt lat="45.80000091374133" lon="9.771277577692894"><ele>1017.5</ele><time>2026-04-17T14:55:49Z</time></trkpt><trkpt lat="45.79994894610269" lon="9.771369513659678"><ele>1017.0</ele><time>2026-04-17T14:55:50Z</time></trkpt><trkpt lat="45.79988383354384" lon="9.771441253797965"><ele>1016.5000000000001</ele><time>2026-04-17T14:55:51Z</time></trkpt><trkpt lat="45.79982030413406" lon="9.771503714333297"><ele>1016.0</ele><time>2026-04-17T14:55:52Z</time></trkpt><trkpt lat="45.79975932465492" lon="9.771562836152617"><ele>1016.0</ele><time>2026-04-17T14:55:53Z</time></trkpt><trkpt lat="45.79970154135831" lon="9.77162235720598"><ele>1016.0</ele><time>2026-04-17T14:55:54Z</time></trkpt><trkpt lat="45.799645487437296" lon="9.771680825881287"><ele>1016.0</ele><time>2026-04-17T14:55:55Z</time></trkpt><trkpt lat="45.7995888589824" lon="9.771734930734105"><ele>1016.0</ele><time>2026-04-17T14:55:56Z</time></trkpt><trkpt lat="45.799530063308126" lon="9.771783412341591"><ele>1016.0</ele><time>2026-04-17T14:55:57Z</time></trkpt><trkpt lat="45.79947388206486" lon="9.771833335025049"><ele>1016.0</ele><time>2026-04-17T14:55:58Z</time></trkpt><trkpt lat="45.79941861071913" lon="9.771885718770212"><ele>1016.0</ele><time>2026-04-17T14:55:59Z</time></trkpt><trkpt lat="45.79936796987941" lon="9.771942143738903"><ele>1016.4285714285714</ele><time>2026-04-17T14:56:00Z</time></trkpt><trkpt lat="45.79931632345916" lon="9.771997101760745"><ele>1016.8571428571429</ele><time>2026-04-17T14:56:01Z</time></trkpt><trkpt lat="45.799262238800345" lon="9.772049759102028"><ele>1017.2857142857143</ele><time>2026-04-17T14:56:02Z</time></trkpt><trkpt lat="45.7992052305639" lon="9.772095870939088"><ele>1017.7142857142858</ele><time>2026-04-17T14:56:03Z</time></trkpt><trkpt lat="45.79914301277438" lon="9.772134542018202"><ele>1018.1428571428571</ele><time>2026-04-17T14:56:04Z</time></trkpt><trkpt lat="45.799077284831434" lon="9.772171221329728"><ele>1018.5714285714287</ele><time>2026-04-17T14:56:05Z</time></trkpt><trkpt lat="45.799013179362085" lon="9.772203447527005"><ele>1019.0000000000001</ele><time>2026-04-17T14:56:06Z</time></trkpt><trkpt lat="45.798942720291286" lon="9.772235111415455"><ele>1019.0000000000001</ele><time>2026-04-17T14:56:07Z</time></trkpt><trkpt lat="45.79887311116534" lon="9.772259298574815"><ele>1019.0</ele><time>2026-04-17T14:56:08Z</time></trkpt><trkpt lat="45.79880092063592" lon="9.772287204661874"><ele>1019.0000000000001</ele><time>2026-04-17T14:56:09Z</time></trkpt><trkpt lat="45.79873116386077" lon="9.772317631706672"><ele>1019.0000000000001</ele><time>2026-04-17T14:56:10Z</time></trkpt><trkpt lat="45.79865951760616" lon="9.772349517490431"><ele>1019.0</ele><time>2026-04-17T14:56:11Z</time></trkpt><trkpt lat="45.798589513783334" lon="9.77238818575058"><ele>1019.0000000000001</ele><time>2026-04-17T14:56:12Z</time></trkpt><trkpt lat="45.79851948502596" lon="9.772434835069935"><ele>1019.0000000000001</ele><time>2026-04-17T14:56:13Z</time></trkpt><trkpt lat="45.79845135756374" lon="9.772489853085213"><ele>1016.0000000000001</ele><time>2026-04-17T14:56:14Z</time></trkpt><trkpt lat="45.798379413367634" lon="9.772540533697445"><ele>1013.0</ele><time>2026-04-17T14:56:15Z</time></trkpt><trkpt lat="45.798299313575946" lon="9.77257607660673"><ele>1010.0</ele><time>2026-04-17T14:56:16Z</time></trkpt><trkpt lat="45.79821747593154" lon="9.772606705420849"><ele>1007.0</ele><time>2026-04-17T14:56:17Z</time></trkpt><trkpt lat="45.79813623276211" lon="9.772629852148256"><ele>1004.0000000000001</ele><time>2026-04-17T14:56:18Z</time></trkpt><trkpt lat="45.79805240651493" lon="9.772642530004962"><ele>1001.0</ele><time>2026-04-17T14:56:19Z</time></trkpt><trkpt lat="45.79796704403843" lon="9.772645337359856"><ele>1001.0000000000001</ele><time>2026-04-17T14:56:20Z</time></trkpt><trkpt lat="45.79788671490148" lon="9.772668425610396"><ele>1001.0</ele><time>2026-04-17T14:56:21Z</time></trkpt><trkpt lat="45.79780513912818" lon="9.772684963799733"><ele>1001.0</ele><time>2026-04-17T14:56:22Z</time></trkpt><trkpt lat="45.79772415558443" lon="9.7726885723365"><ele>1001.0</ele><time>2026-04-17T14:56:23Z</time></trkpt><trkpt lat="45.79764609971136" lon="9.772687900901294"><ele>1001.0000000000001</ele><time>2026-04-17T14:56:24Z</time></trkpt><trkpt lat="45.79756990009431" lon="9.772690604419825"><ele>1001.0</ele><time>2026-04-17T14:56:25Z</time></trkpt><trkpt lat="45.79749843421582" lon="9.772685122328822"><ele>1001.1999999999999</ele><time>2026-04-17T14:56:26Z</time></trkpt><trkpt lat="45.79742919000424" lon="9.77267461401236"><ele>1001.3999999999999</ele><time>2026-04-17T14:56:27Z</time></trkpt><trkpt lat="45.79736290718759" lon="9.772659936314728"><ele>1001.6</ele><time>2026-04-17T14:56:28Z</time></trkpt><trkpt lat="45.79724134882169" lon="9.772627770627501"><ele>1001.8</ele><time>2026-04-17T14:56:30Z</time></trkpt><trkpt lat="45.79712643422494" lon="9.772589373544806"><ele>1002.0</ele><time>2026-04-17T14:56:32Z</time></trkpt><trkpt lat="45.79701675591156" lon="9.77252434044808"><ele>1002.0</ele><time>2026-04-17T14:56:34Z</time></trkpt><trkpt lat="45.79690832021581" lon="9.772465391557622"><ele>1002.0</ele><time>2026-04-17T14:56:36Z</time></trkpt><trkpt lat="45.79680538198774" lon="9.772386792352021"><ele>1002.0</ele><time>2026-04-17T14:56:38Z</time></trkpt><trkpt lat="45.79670966745734" lon="9.772303767151657"><ele>1002.0</ele><time>2026-04-17T14:56:40Z</time></trkpt><trkpt lat="45.796613125263306" lon="9.772221963363773"><ele>1000.4000000000001</ele><time>2026-04-17T14:56:42Z</time></trkpt><trkpt lat="45.79651613736311" lon="9.772142521887337"><ele>998.8000000000001</ele><time>2026-04-17T14:56:44Z</time></trkpt><trkpt lat="45.796414886069044" lon="9.772071099052"><ele>997.2</ele><time>2026-04-17T14:56:46Z</time></trkpt><trkpt lat="45.79631685030558" lon="9.77199100606378"><ele>995.6</ele><time>2026-04-17T14:56:48Z</time></trkpt><trkpt lat="45.79621891235074" lon="9.771916253324287"><ele>994.0</ele><time>2026-04-17T14:56:50Z</time></trkpt><trkpt lat="45.79612250596005" lon="9.771833449627234"><ele>994.0</ele><time>2026-04-17T14:56:52Z</time></trkpt><trkpt lat="45.79602711555711" lon="9.771750167979853"><ele>994.0</ele><time>2026-04-17T14:56:54Z</time></trkpt><trkpt lat="45.795935914441614" lon="9.771647131858014"><ele>994.0</ele><time>2026-04-17T14:56:56Z</time></trkpt><trkpt lat="45.79584910362628" lon="9.771546032981744"><ele>994.0</ele><time>2026-04-17T14:56:58Z</time></trkpt><trkpt lat="45.79576758830906" lon="9.771439353045581"><ele>995.25</ele><time>2026-04-17T14:57:00Z</time></trkpt><trkpt lat="45.795678447742205" lon="9.77133875430386"><ele>996.5</ele><time>2026-04-17T14:57:02Z</time></trkpt><trkpt lat="45.79558915736939" lon="9.77122734980663"><ele>997.75</ele><time>2026-04-17T14:57:04Z</time></trkpt><trkpt lat="45.795504458531774" lon="9.771122712652124"><ele>999.0</ele><time>2026-04-17T14:57:06Z</time></trkpt><trkpt lat="45.79541898904131" lon="9.77101547605285"><ele>999.0</ele><time>2026-04-17T14:57:08Z</time></trkpt><trkpt lat="45.795332546965135" lon="9.77091162048053"><ele>999.0000000000001</ele><time>2026-04-17T14:57:10Z</time></trkpt><trkpt lat="45.79524425489686" lon="9.770808970549135"><ele>999.0000000000001</ele><time>2026-04-17T14:57:12Z</time></trkpt><trkpt lat="45.79515924158267" lon="9.770710393207706"><ele>999.0</ele><time>2026-04-17T14:57:14Z</time></trkpt><trkpt lat="45.79507077058423" lon="9.77061625218366"><ele>999.0</ele><time>2026-04-17T14:57:16Z</time></trkpt><trkpt lat="45.79498052301571" lon="9.770528728666044"><ele>1004.75</ele><time>2026-04-17T14:57:18Z</time></trkpt><trkpt lat="45.7948802884692" lon="9.770457580182434"><ele>1010.5</ele><time>2026-04-17T14:57:20Z</time></trkpt><trkpt lat="45.794776974612304" lon="9.770389842804061"><ele>1016.25</ele><time>2026-04-17T14:57:22Z</time></trkpt><trkpt lat="45.79466343205402" lon="9.770324789486716"><ele>1022.0</ele><time>2026-04-17T14:57:24Z</time></trkpt><trkpt lat="45.79455301554549" lon="9.77024592045493"><ele>1024.25</ele><time>2026-04-17T14:57:26Z</time></trkpt><trkpt lat="45.794467598904234" lon="9.770111935247444"><ele>1026.5</ele><time>2026-04-17T14:57:28Z</time></trkpt><trkpt lat="45.79439013019023" lon="9.769979383922264"><ele>1028.75</ele><time>2026-04-17T14:57:30Z</time></trkpt><trkpt lat="45.79431456191052" lon="9.76983508815539"><ele>1031.0</ele><time>2026-04-17T14:57:32Z</time></trkpt><trkpt lat="45.79425157173786" lon="9.769694849716448"><ele>1031.0</ele><time>2026-04-17T14:57:34Z</time></trkpt><trkpt lat="45.79422072054355" lon="9.769613579388984"><ele>1031.0</ele><time>2026-04-17T14:57:35Z</time></trkpt><trkpt lat="45.79418811259613" lon="9.769530037062998"><ele>1031.0</ele><time>2026-04-17T14:57:36Z</time></trkpt><trkpt lat="45.794150015817145" lon="9.76945680777196"><ele>1031.0</ele><time>2026-04-17T14:57:37Z</time></trkpt><trkpt lat="45.79407972680573" lon="9.769329563393887"><ele>1031.0</ele><time>2026-04-17T14:57:39Z</time></trkpt><trkpt lat="45.79400852577472" lon="9.769197042188084"><ele>1031.0</ele><time>2026-04-17T14:57:41Z</time></trkpt><trkpt lat="45.79393403684811" lon="9.769078376683956"><ele>1027.6</ele><time>2026-04-17T14:57:43Z</time></trkpt><trkpt lat="45.79383778125367" lon="9.7689653105747"><ele>1024.1999999999998</ele><time>2026-04-17T14:57:45Z</time></trkpt><trkpt lat="45.79375018804596" lon="9.768834893055933"><ele>1020.8000000000001</ele><time>2026-04-17T14:57:47Z</time></trkpt><trkpt lat="45.79370594415988" lon="9.768763410586539"><ele>1017.4000000000001</ele><time>2026-04-17T14:57:48Z</time></trkpt><trkpt lat="45.79366197256575" lon="9.768687591609554"><ele>1014.0</ele><time>2026-04-17T14:57:49Z</time></trkpt><trkpt lat="45.79361910589764" lon="9.768603601733197"><ele>1013.8333333333334</ele><time>2026-04-17T14:57:50Z</time></trkpt><trkpt lat="45.79357461363462" lon="9.76851603577954"><ele>1013.6666666666667</ele><time>2026-04-17T14:57:51Z</time></trkpt><trkpt lat="45.79352887382975" lon="9.768424083225018"><ele>1013.5</ele><time>2026-04-17T14:57:52Z</time></trkpt><trkpt lat="45.79348312234167" lon="9.768333091767587"><ele>1013.3333333333334</ele><time>2026-04-17T14:57:53Z</time></trkpt><trkpt lat="45.79344169630837" lon="9.768240993159267"><ele>1013.1666666666667</ele><time>2026-04-17T14:57:54Z</time></trkpt><trkpt lat="45.793395744414305" lon="9.768146489001076"><ele>1013.0</ele><time>2026-04-17T14:57:55Z</time></trkpt><trkpt lat="45.793348666906894" lon="9.768063953164617"><ele>1013.0</ele><time>2026-04-17T14:57:56Z</time></trkpt><trkpt lat="45.7933046858195" lon="9.767996597815822"><ele>1013.0</ele><time>2026-04-17T14:57:57Z</time></trkpt><trkpt lat="45.793215729882775" lon="9.767930041781568"><ele>1013.0</ele><time>2026-04-17T14:57:59Z</time></trkpt><trkpt lat="45.79314302537415" lon="9.768003181185655"><ele>1013.0</ele><time>2026-04-17T14:58:01Z</time></trkpt><trkpt lat="45.7931495632113" lon="9.768173160226437"><ele>1013.0</ele><time>2026-04-17T14:58:03Z</time></trkpt><trkpt lat="45.79311714841771" lon="9.768335581213332"><ele>1013.0</ele><time>2026-04-17T14:58:05Z</time></trkpt><trkpt lat="45.79307356166836" lon="9.768499371359544"><ele>1013.0</ele><time>2026-04-17T14:58:07Z</time></trkpt><trkpt lat="45.793032476840594" lon="9.768659912120873"><ele>1013.0</ele><time>2026-04-17T14:58:09Z</time></trkpt><trkpt lat="45.793013695889506" lon="9.768825606403555"><ele>1013.0</ele><time>2026-04-17T14:58:11Z</time></trkpt><trkpt lat="45.79301128523356" lon="9.768991153137613"><ele>1015.5</ele><time>2026-04-17T14:58:13Z</time></trkpt><trkpt lat="45.792980459282894" lon="9.769153571707916"><ele>1018.0</ele><time>2026-04-17T14:58:15Z</time></trkpt><trkpt lat="45.79294259671275" lon="9.769308725573154"><ele>1020.5</ele><time>2026-04-17T14:58:17Z</time></trkpt><trkpt lat="45.792902265780384" lon="9.76945923001094"><ele>1023.0</ele><time>2026-04-17T14:58:19Z</time></trkpt><trkpt lat="45.79286143723276" lon="9.769601757302587"><ele>1021.3333333333334</ele><time>2026-04-17T14:58:21Z</time></trkpt><trkpt lat="45.79283052760187" lon="9.769713962716184"><ele>1019.6666666666667</ele><time>2026-04-17T14:58:23Z</time></trkpt><trkpt lat="45.79281078218477" lon="9.769590753503744"><ele>1018.0</ele><time>2026-04-17T14:58:39Z</time></trkpt><trkpt lat="45.79272675825632" lon="9.769585334635948"><ele>1016.3333333333334</ele><time>2026-04-17T14:58:42Z</time></trkpt><trkpt lat="45.79270356580705" lon="9.769704728179658"><ele>1014.6666666666667</ele><time>2026-04-17T14:58:44Z</time></trkpt><trkpt lat="45.79265960295755" lon="9.769816965625397"><ele>1013.0</ele><time>2026-04-17T14:58:46Z</time></trkpt><trkpt lat="45.792605559028196" lon="9.76992784587123"><ele>1013.0000000000001</ele><time>2026-04-17T14:58:48Z</time></trkpt><trkpt lat="45.79256442515216" lon="9.77005166638716"><ele>1013.0</ele><time>2026-04-17T14:58:50Z</time></trkpt><trkpt lat="45.79251593362492" lon="9.770204859186146"><ele>1013.0</ele><time>2026-04-17T14:58:52Z</time></trkpt><trkpt lat="45.79249110675745" lon="9.770288998389812"><ele>1013.0</ele><time>2026-04-17T14:58:53Z</time></trkpt><trkpt lat="45.79247226674249" lon="9.770379006564498"><ele>1013.0000000000001</ele><time>2026-04-17T14:58:54Z</time></trkpt><trkpt lat="45.792453193365965" lon="9.770467635688846"><ele>1013.0</ele><time>2026-04-17T14:58:55Z</time></trkpt><trkpt lat="45.792431051477365" lon="9.770555114960779"><ele>1014.7142857142858</ele><time>2026-04-17T14:58:56Z</time></trkpt><trkpt lat="45.79240708825712" lon="9.770640135882958"><ele>1016.4285714285716</ele><time>2026-04-17T14:58:57Z</time></trkpt><trkpt lat="45.792383181394726" lon="9.770725274207637"><ele>1018.1428571428571</ele><time>2026-04-17T14:58:58Z</time></trkpt><trkpt lat="45.7923577592408" lon="9.770811882006905"><ele>1019.8571428571429</ele><time>2026-04-17T14:58:59Z</time></trkpt><trkpt lat="45.79233094179323" lon="9.770899808894251"><ele>1021.5714285714286</ele><time>2026-04-17T14:59:00Z</time></trkpt><trkpt lat="45.79230749762408" lon="9.77098829963161"><ele>1023.2857142857142</ele><time>2026-04-17T14:59:01Z</time></trkpt><trkpt lat="45.79228156162211" lon="9.771075297469688"><ele>1025.0</ele><time>2026-04-17T14:59:02Z</time></trkpt><trkpt lat="45.792254267072295" lon="9.77116197295917"><ele>1027.2857142857142</ele><time>2026-04-17T14:59:03Z</time></trkpt><trkpt lat="45.792222711008634" lon="9.771247443141574"><ele>1029.5714285714284</ele><time>2026-04-17T14:59:04Z</time></trkpt><trkpt lat="45.792187602573456" lon="9.77132659286712"><ele>1031.857142857143</ele><time>2026-04-17T14:59:05Z</time></trkpt><trkpt lat="45.79215246672912" lon="9.771405762550229"><ele>1034.142857142857</ele><time>2026-04-17T14:59:06Z</time></trkpt><trkpt lat="45.79211990171561" lon="9.771490522248119"><ele>1036.4285714285716</ele><time>2026-04-17T14:59:07Z</time></trkpt><trkpt lat="45.79208701965422" lon="9.771572349219543"><ele>1038.7142857142858</ele><time>2026-04-17T14:59:08Z</time></trkpt><trkpt lat="45.79205498996485" lon="9.771656758088447"><ele>1041.0</ele><time>2026-04-17T14:59:09Z</time></trkpt><trkpt lat="45.792023147659116" lon="9.771742765080898"><ele>1041.0</ele><time>2026-04-17T14:59:10Z</time></trkpt><trkpt lat="45.79198769097012" lon="9.771825757448049"><ele>1041.0</ele><time>2026-04-17T14:59:11Z</time></trkpt><trkpt lat="45.79195273205343" lon="9.771909871946683"><ele>1041.0</ele><time>2026-04-17T14:59:12Z</time></trkpt><trkpt lat="45.79191424652139" lon="9.771992652992935"><ele>1041.0</ele><time>2026-04-17T14:59:13Z</time></trkpt><trkpt lat="45.79187696838539" lon="9.772071461733585"><ele>1041.0</ele><time>2026-04-17T14:59:14Z</time></trkpt><trkpt lat="45.79183709858657" lon="9.772153831380582"><ele>1041.0</ele><time>2026-04-17T14:59:15Z</time></trkpt><trkpt lat="45.7918008863721" lon="9.77223915531979"><ele>1041.0</ele><time>2026-04-17T14:59:16Z</time></trkpt><trkpt lat="45.79176738618445" lon="9.772328567606637"><ele>1040.2857142857142</ele><time>2026-04-17T14:59:17Z</time></trkpt><trkpt lat="45.791734067252385" lon="9.772417998517408"><ele>1039.5714285714287</ele><time>2026-04-17T14:59:18Z</time></trkpt><trkpt lat="45.79170811928497" lon="9.772514408450117"><ele>1038.857142857143</ele><time>2026-04-17T14:59:19Z</time></trkpt><trkpt lat="45.79168420807571" lon="9.772608104738088"><ele>1038.142857142857</ele><time>2026-04-17T14:59:20Z</time></trkpt><trkpt lat="45.79166076931748" lon="9.772704213005042"><ele>1037.4285714285716</ele><time>2026-04-17T14:59:21Z</time></trkpt><trkpt lat="45.79163071736699" lon="9.772796651349937"><ele>1036.7142857142858</ele><time>2026-04-17T14:59:22Z</time></trkpt><trkpt lat="45.79159186741013" lon="9.77288784809125"><ele>1036.0</ele><time>2026-04-17T14:59:23Z</time></trkpt><trkpt lat="45.791549768350734" lon="9.772975659184677"><ele>1036.0</ele><time>2026-04-17T14:59:24Z</time></trkpt><trkpt lat="45.79150272636887" lon="9.773062063662914"><ele>1036.0</ele><time>2026-04-17T14:59:25Z</time></trkpt><trkpt lat="45.7914495161497" lon="9.773137352742722"><ele>1036.0</ele><time>2026-04-17T14:59:26Z</time></trkpt><trkpt lat="45.79139507390051" lon="9.773210400110743"><ele>1036.0</ele><time>2026-04-17T14:59:27Z</time></trkpt><trkpt lat="45.791340553261215" lon="9.773282572781296"><ele>1036.0</ele><time>2026-04-17T14:59:28Z</time></trkpt><trkpt lat="45.791285192972836" lon="9.773357361741935"><ele>1036.0</ele><time>2026-04-17T14:59:29Z</time></trkpt><trkpt lat="45.79123316984207" lon="9.773433827797032"><ele>1036.0</ele><time>2026-04-17T14:59:30Z</time></trkpt><trkpt lat="45.79118021827436" lon="9.77350991221435"><ele>1036.0</ele><time>2026-04-17T14:59:31Z</time></trkpt><trkpt lat="45.791122714868855" lon="9.773574967465345"><ele>1036.0</ele><time>2026-04-17T14:59:32Z</time></trkpt><trkpt lat="45.79105190714601" lon="9.773630398485112"><ele>1036.0</ele><time>2026-04-17T14:59:33Z</time></trkpt><trkpt lat="45.79099008103794" lon="9.773685874362716"><ele>1036.0</ele><time>2026-04-17T14:59:34Z</time></trkpt><trkpt lat="45.79091755467799" lon="9.77373597521519"><ele>1036.0</ele><time>2026-04-17T14:59:35Z</time></trkpt><trkpt lat="45.79085266928369" lon="9.773780988718235"><ele>1034.1666666666665</ele><time>2026-04-17T14:59:36Z</time></trkpt><trkpt lat="45.79077695677454" lon="9.773815340308117"><ele>1032.3333333333333</ele><time>2026-04-17T14:59:37Z</time></trkpt><trkpt lat="45.79071611992764" lon="9.773874815641037"><ele>1030.5</ele><time>2026-04-17T14:59:38Z</time></trkpt><trkpt lat="45.79064675868209" lon="9.773921041153965"><ele>1028.6666666666667</ele><time>2026-04-17T14:59:39Z</time></trkpt><trkpt lat="45.79057746996075" lon="9.77396258591076"><ele>1026.8333333333335</ele><time>2026-04-17T14:59:40Z</time></trkpt><trkpt lat="45.79050580298231" lon="9.774005519775246"><ele>1025.0</ele><time>2026-04-17T14:59:41Z</time></trkpt><trkpt lat="45.790439829229186" lon="9.774054508184488"><ele>1024.9999999999998</ele><time>2026-04-17T14:59:42Z</time></trkpt><trkpt lat="45.79036786471186" lon="9.774092607230411"><ele>1025.0</ele><time>2026-04-17T14:59:43Z</time></trkpt><trkpt lat="45.790300201879106" lon="9.774136321336162"><ele>1025.0</ele><time>2026-04-17T14:59:44Z</time></trkpt><trkpt lat="45.79023719990758" lon="9.774190873577524"><ele>1025.0</ele><time>2026-04-17T14:59:45Z</time></trkpt><trkpt lat="45.79017048528116" lon="9.774240770946026"><ele>1025.0</ele><time>2026-04-17T14:59:46Z</time></trkpt><trkpt lat="45.79011229280036" lon="9.77429691051101"><ele>1024.9999999999998</ele><time>2026-04-17T14:59:47Z</time></trkpt><trkpt lat="45.79005125480334" lon="9.774349395989749"><ele>1025.0</ele><time>2026-04-17T14:59:48Z</time></trkpt><trkpt lat="45.78999483897054" lon="9.77440382107087"><ele>1025.6666666666667</ele><time>2026-04-17T14:59:49Z</time></trkpt><trkpt lat="45.78994086001503" lon="9.774459606284818"><ele>1026.3333333333335</ele><time>2026-04-17T14:59:50Z</time></trkpt><trkpt lat="45.7898732341063" lon="9.774508849110825"><ele>1027.0</ele><time>2026-04-17T14:59:51Z</time></trkpt><trkpt lat="45.789816583045095" lon="9.774559009486085"><ele>1027.6666666666667</ele><time>2026-04-17T14:59:52Z</time></trkpt><trkpt lat="45.78971242812329" lon="9.774663152593957"><ele>1028.3333333333333</ele><time>2026-04-17T14:59:54Z</time></trkpt><trkpt lat="45.78965995136609" lon="9.774713027097691"><ele>1029.0</ele><time>2026-04-17T14:59:55Z</time></trkpt><trkpt lat="45.78955439559975" lon="9.774802813892867"><ele>1029.0</ele><time>2026-04-17T14:59:57Z</time></trkpt><trkpt lat="45.789430887223276" lon="9.77483056471168"><ele>1029.0</ele><time>2026-04-17T14:59:59Z</time></trkpt><trkpt lat="45.789367858352065" lon="9.774816588401357"><ele>1029.0</ele><time>2026-04-17T15:00:00Z</time></trkpt><trkpt lat="45.789299800754016" lon="9.774804345040138"><ele>1029.0</ele><time>2026-04-17T15:00:01Z</time></trkpt><trkpt lat="45.78923134754302" lon="9.774817987130591"><ele>1029.0</ele><time>2026-04-17T15:00:02Z</time></trkpt><trkpt lat="45.78916474494873" lon="9.77485233890708"><ele>1029.0</ele><time>2026-04-17T15:00:03Z</time></trkpt><trkpt lat="45.78910522831088" lon="9.77491400419839"><ele>1026.8333333333333</ele><time>2026-04-17T15:00:04Z</time></trkpt><trkpt lat="45.78905718992168" lon="9.774999365658672"><ele>1024.6666666666667</ele><time>2026-04-17T15:00:05Z</time></trkpt><trkpt lat="45.789017983501275" lon="9.775095843115423"><ele>1022.5</ele><time>2026-04-17T15:00:06Z</time></trkpt><trkpt lat="45.78898526670026" lon="9.775198259731008"><ele>1020.3333333333334</ele><time>2026-04-17T15:00:07Z</time></trkpt><trkpt lat="45.788951225175886" lon="9.775303876143976"><ele>1018.1666666666667</ele><time>2026-04-17T15:00:08Z</time></trkpt><trkpt lat="45.78891751702656" lon="9.775413230032843"><ele>1016.0</ele><time>2026-04-17T15:00:09Z</time></trkpt><trkpt lat="45.78888908385775" lon="9.775527447564173"><ele>1016.0000000000001</ele><time>2026-04-17T15:00:10Z</time></trkpt><trkpt lat="45.78886448446392" lon="9.775644423266657"><ele>1016.0</ele><time>2026-04-17T15:00:11Z</time></trkpt><trkpt lat="45.78884550676253" lon="9.77576590760602"><ele>1016.0</ele><time>2026-04-17T15:00:12Z</time></trkpt><trkpt lat="45.788826613448016" lon="9.775888818533076"><ele>1016.0</ele><time>2026-04-17T15:00:13Z</time></trkpt><trkpt lat="45.78880962443198" lon="9.776012212792207"><ele>1016.0000000000001</ele><time>2026-04-17T15:00:14Z</time></trkpt><trkpt lat="45.78878046657935" lon="9.776133954493817"><ele>1016.0</ele><time>2026-04-17T15:00:15Z</time></trkpt><trkpt lat="45.788739232745705" lon="9.776251195961473"><ele>1017.1999999999999</ele><time>2026-04-17T15:00:16Z</time></trkpt><trkpt lat="45.788664101767864" lon="9.776336894251283"><ele>1018.3999999999999</ele><time>2026-04-17T15:00:17Z</time></trkpt><trkpt lat="45.788574161302584" lon="9.77639242678365"><ele>1019.6</ele><time>2026-04-17T15:00:18Z</time></trkpt><trkpt lat="45.78849174137331" lon="9.776444833641142"><ele>1020.8</ele><time>2026-04-17T15:00:19Z</time></trkpt><trkpt lat="45.78841869041277" lon="9.776507542706051"><ele>1022.0</ele><time>2026-04-17T15:00:20Z</time></trkpt><trkpt lat="45.788354814292695" lon="9.776587708024387"><ele>1017.6666666666667</ele><time>2026-04-17T15:00:21Z</time></trkpt><trkpt lat="45.78830080247338" lon="9.776670804050982"><ele>1013.3333333333334</ele><time>2026-04-17T15:00:22Z</time></trkpt><trkpt lat="45.788262500174426" lon="9.776765014491113"><ele>1009.0</ele><time>2026-04-17T15:00:23Z</time></trkpt><trkpt lat="45.78824419709882" lon="9.776864189261309"><ele>1004.6666666666667</ele><time>2026-04-17T15:00:24Z</time></trkpt><trkpt lat="45.78823579869652" lon="9.776966085440902"><ele>1000.3333333333334</ele><time>2026-04-17T15:00:25Z</time></trkpt><trkpt lat="45.78822257828813" lon="9.777147097366278"><ele>996.0</ele><time>2026-04-17T15:00:27Z</time></trkpt><trkpt lat="45.78821687416027" lon="9.777323543407464"><ele>996.0</ele><time>2026-04-17T15:00:29Z</time></trkpt><trkpt lat="45.78824238739082" lon="9.777497639392745"><ele>996.0</ele><time>2026-04-17T15:00:31Z</time></trkpt><trkpt lat="45.78829384832969" lon="9.77756094774658"><ele>996.0</ele><time>2026-04-17T15:00:32Z</time></trkpt><trkpt lat="45.78835522691407" lon="9.777585744391212"><ele>996.0</ele><time>2026-04-17T15:00:33Z</time></trkpt><trkpt lat="45.78841893285279" lon="9.777609190975644"><ele>996.0</ele><time>2026-04-17T15:00:34Z</time></trkpt><trkpt lat="45.78848128003129" lon="9.777625223110654"><ele>996.0</ele><time>2026-04-17T15:00:35Z</time></trkpt><trkpt lat="45.78858846182397" lon="9.77770722869147"><ele>998.4</ele><time>2026-04-17T15:00:37Z</time></trkpt><trkpt lat="45.78868935785732" lon="9.777800378083827"><ele>1000.8</ele><time>2026-04-17T15:00:39Z</time></trkpt><trkpt lat="45.78879702730207" lon="9.777893901982177"><ele>1003.1999999999999</ele><time>2026-04-17T15:00:41Z</time></trkpt><trkpt lat="45.78885606169882" lon="9.777930666658794"><ele>1005.5999999999999</ele><time>2026-04-17T15:00:42Z</time></trkpt><trkpt lat="45.788972089695484" lon="9.777980634009142"><ele>1008.0</ele><time>2026-04-17T15:00:44Z</time></trkpt><trkpt lat="45.78903249066037" lon="9.778010232017682"><ele>1008.0</ele><time>2026-04-17T15:00:45Z</time></trkpt><trkpt lat="45.789089146067475" lon="9.778055519786566"><ele>1008.0</ele><time>2026-04-17T15:00:46Z</time></trkpt><trkpt lat="45.78918535456573" lon="9.7781605937223"><ele>1008.0</ele><time>2026-04-17T15:00:48Z</time></trkpt><trkpt lat="45.78923989713875" lon="9.778323359946238"><ele>1008.0</ele><time>2026-04-17T15:00:50Z</time></trkpt><trkpt lat="45.78928800861968" lon="9.778487006054876"><ele>1008.0</ele><time>2026-04-17T15:00:52Z</time></trkpt><trkpt lat="45.789369898032994" lon="9.778630317621664"><ele>1008.5714285714286</ele><time>2026-04-17T15:00:54Z</time></trkpt><trkpt lat="45.78941818717798" lon="9.778691491866544"><ele>1009.1428571428571</ele><time>2026-04-17T15:00:55Z</time></trkpt><trkpt lat="45.78946598140833" lon="9.778761239011542"><ele>1009.7142857142858</ele><time>2026-04-17T15:00:56Z</time></trkpt><trkpt lat="45.78952596632264" lon="9.77882576201211"><ele>1010.2857142857143</ele><time>2026-04-17T15:00:57Z</time></trkpt><trkpt lat="45.789583478190416" lon="9.778889518352083"><ele>1010.8571428571429</ele><time>2026-04-17T15:00:58Z</time></trkpt><trkpt lat="45.78964445267818" lon="9.778956255638622"><ele>1011.4285714285716</ele><time>2026-04-17T15:00:59Z</time></trkpt><trkpt lat="45.789709250567824" lon="9.779022911482713"><ele>1012.0000000000001</ele><time>2026-04-17T15:01:00Z</time></trkpt><trkpt lat="45.78977500067264" lon="9.77909696231703"><ele>1012.0</ele><time>2026-04-17T15:01:01Z</time></trkpt><trkpt lat="45.78984410810142" lon="9.7791720647386"><ele>1012.0</ele><time>2026-04-17T15:01:02Z</time></trkpt><trkpt lat="45.78991319841041" lon="9.779254615401971"><ele>1012.0</ele><time>2026-04-17T15:01:03Z</time></trkpt><trkpt lat="45.789966185577384" lon="9.779364468200447"><ele>1012.0</ele><time>2026-04-17T15:01:04Z</time></trkpt><trkpt lat="45.78998742967225" lon="9.779500266732377"><ele>1012.0</ele><time>2026-04-17T15:01:05Z</time></trkpt><trkpt lat="45.78998081887421" lon="9.779641297875523"><ele>1008.4000000000001</ele><time>2026-04-17T15:01:06Z</time></trkpt><trkpt lat="45.789980841568585" lon="9.779782978540322"><ele>1004.8000000000001</ele><time>2026-04-17T15:01:07Z</time></trkpt><trkpt lat="45.789995225951166" lon="9.779923150621773"><ele>1001.2</ele><time>2026-04-17T15:01:08Z</time></trkpt><trkpt lat="45.7900139855514" lon="9.780062552294057"><ele>997.6</ele><time>2026-04-17T15:01:09Z</time></trkpt><trkpt lat="45.790040404192666" lon="9.780203670185937"><ele>994.0</ele><time>2026-04-17T15:01:10Z</time></trkpt><trkpt lat="45.79006488126724" lon="9.780343512465867"><ele>991.2</ele><time>2026-04-17T15:01:11Z</time></trkpt><trkpt lat="45.79010166978116" lon="9.780478876442048"><ele>988.4000000000001</ele><time>2026-04-17T15:01:12Z</time></trkpt><trkpt lat="45.79014735406897" lon="9.780607200685797"><ele>985.6</ele><time>2026-04-17T15:01:13Z</time></trkpt><trkpt lat="45.790206017479306" lon="9.780725839487157"><ele>982.8</ele><time>2026-04-17T15:01:14Z</time></trkpt><trkpt lat="45.79026249314679" lon="9.780844473660444"><ele>980.0</ele><time>2026-04-17T15:01:15Z</time></trkpt><trkpt lat="45.79030954788606" lon="9.780954415219897"><ele>980.5000000000001</ele><time>2026-04-17T15:01:16Z</time></trkpt><trkpt lat="45.7903420537463" lon="9.781046219764582"><ele>981.0</ele><time>2026-04-17T15:01:17Z</time></trkpt><trkpt lat="45.79035340415522" lon="9.781137965766979"><ele>981.5</ele><time>2026-04-17T15:01:18Z</time></trkpt><trkpt lat="45.79032984550128" lon="9.781235434620912"><ele>982.0</ele><time>2026-04-17T15:01:19Z</time></trkpt><trkpt lat="45.79026839681721" lon="9.781320275779295"><ele>982.5000000000001</ele><time>2026-04-17T15:01:20Z</time></trkpt><trkpt lat="45.79019426629734" lon="9.78139064446972"><ele>983.0</ele><time>2026-04-17T15:01:21Z</time></trkpt><trkpt lat="45.79012491149871" lon="9.78143850608822"><ele>982.9999999999999</ele><time>2026-04-17T15:01:22Z</time></trkpt><trkpt lat="45.79006305925097" lon="9.781500314190628"><ele>983.0</ele><time>2026-04-17T15:01:23Z</time></trkpt><trkpt lat="45.79001538425616" lon="9.781577088994206"><ele>982.9999999999999</ele><time>2026-04-17T15:01:24Z</time></trkpt><trkpt lat="45.78998718467582" lon="9.781683017163541"><ele>982.9999999999999</ele><time>2026-04-17T15:01:25Z</time></trkpt><trkpt lat="45.78996785552264" lon="9.781784837260645"><ele>983.0</ele><time>2026-04-17T15:01:26Z</time></trkpt><trkpt lat="45.78994969239432" lon="9.781883943936453"><ele>982.9999999999999</ele><time>2026-04-17T15:01:27Z</time></trkpt><trkpt lat="45.78992322138764" lon="9.781969524929226"><ele>982.9999999999999</ele><time>2026-04-17T15:01:28Z</time></trkpt><trkpt lat="45.78991316416447" lon="9.782074616810604"><ele>982.9999999999999</ele><time>2026-04-17T15:01:29Z</time></trkpt><trkpt lat="45.78988665702445" lon="9.782170920021048"><ele>983.0</ele><time>2026-04-17T15:01:30Z</time></trkpt><trkpt lat="45.789864513435376" lon="9.782259222284173"><ele>982.9999999999999</ele><time>2026-04-17T15:01:31Z</time></trkpt><trkpt lat="45.78983097031627" lon="9.782360417990366"><ele>982.9999999999999</ele><time>2026-04-17T15:01:32Z</time></trkpt><trkpt lat="45.78979905819216" lon="9.782465938374699"><ele>983.0</ele><time>2026-04-17T15:01:33Z</time></trkpt><trkpt lat="45.78976642848275" lon="9.782560572086235"><ele>982.9999999999999</ele><time>2026-04-17T15:01:34Z</time></trkpt><trkpt lat="45.78974403391099" lon="9.782654831143091"><ele>982.9999999999999</ele><time>2026-04-17T15:01:35Z</time></trkpt><trkpt lat="45.789725039287994" lon="9.782740911888185"><ele>983.0000000000001</ele><time>2026-04-17T15:01:36Z</time></trkpt><trkpt lat="45.789694103178505" lon="9.782889597191817"><ele>983.0</ele><time>2026-04-17T15:01:37Z</time></trkpt><trkpt lat="45.789711806624865" lon="9.782992505939987"><ele>983.0</ele><time>2026-04-17T15:01:38Z</time></trkpt><trkpt lat="45.78976273630764" lon="9.783095243220385"><ele>983.0</ele><time>2026-04-17T15:01:39Z</time></trkpt><trkpt lat="45.78982806640961" lon="9.783171463185495"><ele>983.0000000000001</ele><time>2026-04-17T15:01:40Z</time></trkpt><trkpt lat="45.789895390635714" lon="9.78324178209393"><ele>983.0</ele><time>2026-04-17T15:01:41Z</time></trkpt><trkpt lat="45.78996673774171" lon="9.783289876632216"><ele>983.0000000000001</ele><time>2026-04-17T15:01:42Z</time></trkpt><trkpt lat="45.790030559106796" lon="9.783334321642934"><ele>983.0</ele><time>2026-04-17T15:01:43Z</time></trkpt><trkpt lat="45.790093293462085" lon="9.783389706570773"><ele>983.0</ele><time>2026-04-17T15:01:44Z</time></trkpt><trkpt lat="45.79015175820921" lon="9.78344424614908"><ele>983.0</ele><time>2026-04-17T15:01:45Z</time></trkpt><trkpt lat="45.790208325457485" lon="9.783495041632898"><ele>983.0000000000001</ele><time>2026-04-17T15:01:46Z</time></trkpt><trkpt lat="45.79030958687707" lon="9.783561272435666"><ele>983.0</ele><time>2026-04-17T15:01:48Z</time></trkpt><trkpt lat="45.79041376933429" lon="9.78362874454097"><ele>987.25</ele><time>2026-04-17T15:01:50Z</time></trkpt><trkpt lat="45.79050807989327" lon="9.78373292346544"><ele>991.5</ele><time>2026-04-17T15:01:52Z</time></trkpt><trkpt lat="45.79059189473164" lon="9.783858562597892"><ele>995.75</ele><time>2026-04-17T15:01:54Z</time></trkpt><trkpt lat="45.79067388719033" lon="9.783968584304326"><ele>1000.0</ele><time>2026-04-17T15:01:56Z</time></trkpt><trkpt lat="45.790753884983964" lon="9.784083601463223"><ele>1000.0</ele><time>2026-04-17T15:01:58Z</time></trkpt><trkpt lat="45.790826948713836" lon="9.78417810690955"><ele>1000.0</ele><time>2026-04-17T15:02:00Z</time></trkpt><trkpt lat="45.79088556078814" lon="9.784306065486133"><ele>1000.0</ele><time>2026-04-17T15:02:02Z</time></trkpt><trkpt lat="45.790940604073405" lon="9.784437729214837"><ele>1000.0</ele><time>2026-04-17T15:02:04Z</time></trkpt><trkpt lat="45.790938857137185" lon="9.784572917521349"><ele>1000.0</ele><time>2026-04-17T15:02:06Z</time></trkpt><trkpt lat="45.790891729736934" lon="9.78472470621509"><ele>999.1666666666666</ele><time>2026-04-17T15:02:08Z</time></trkpt><trkpt lat="45.790869787976575" lon="9.784897752722761"><ele>998.3333333333333</ele><time>2026-04-17T15:02:10Z</time></trkpt><trkpt lat="45.790863708164096" lon="9.784988969456759"><ele>997.5</ele><time>2026-04-17T15:02:11Z</time></trkpt><trkpt lat="45.790841518053554" lon="9.785085143698625"><ele>996.6666666666667</ele><time>2026-04-17T15:02:12Z</time></trkpt><trkpt lat="45.7908041623795" lon="9.785177525214896"><ele>995.8333333333334</ele><time>2026-04-17T15:02:13Z</time></trkpt><trkpt lat="45.79075620755937" lon="9.785257193820478"><ele>995.0</ele><time>2026-04-17T15:02:14Z</time></trkpt><trkpt lat="45.79070030541407" lon="9.78532374632121"><ele>999.8333333333334</ele><time>2026-04-17T15:02:15Z</time></trkpt><trkpt lat="45.790647982293855" lon="9.785383416819432"><ele>1004.6666666666667</ele><time>2026-04-17T15:02:16Z</time></trkpt><trkpt lat="45.79060038717735" lon="9.785448865293422"><ele>1009.5</ele><time>2026-04-17T15:02:17Z</time></trkpt><trkpt lat="45.79055930441647" lon="9.785526224607954"><ele>1014.3333333333333</ele><time>2026-04-17T15:02:18Z</time></trkpt><trkpt lat="45.79052031736859" lon="9.785600294130637"><ele>1019.1666666666666</ele><time>2026-04-17T15:02:19Z</time></trkpt><trkpt lat="45.79044984854868" lon="9.785731406623787"><ele>1024.0</ele><time>2026-04-17T15:02:21Z</time></trkpt><trkpt lat="45.79038780891669" lon="9.78586731412296"><ele>1024.0</ele><time>2026-04-17T15:02:23Z</time></trkpt><trkpt lat="45.79027331700289" lon="9.785879989602913"><ele>1024.0</ele><time>2026-04-17T15:02:25Z</time></trkpt><trkpt lat="45.79015961599438" lon="9.78588100411692"><ele>1024.0</ele><time>2026-04-17T15:02:27Z</time></trkpt><trkpt lat="45.790065277684675" lon="9.785946455443087"><ele>1024.0</ele><time>2026-04-17T15:02:29Z</time></trkpt><trkpt lat="45.790034110083475" lon="9.786114023926181"><ele>1021.6666666666666</ele><time>2026-04-17T15:02:31Z</time></trkpt><trkpt lat="45.7900627412625" lon="9.786199446374463"><ele>1019.3333333333333</ele><time>2026-04-17T15:02:32Z</time></trkpt><trkpt lat="45.79011962095749" lon="9.786253499524408"><ele>1017.0</ele><time>2026-04-17T15:02:33Z</time></trkpt><trkpt lat="45.79018307517627" lon="9.786279082856352"><ele>1014.6666666666667</ele><time>2026-04-17T15:02:34Z</time></trkpt><trkpt lat="45.7903016845141" lon="9.786344977336125"><ele>1012.3333333333334</ele><time>2026-04-17T15:02:36Z</time></trkpt><trkpt lat="45.790404666035926" lon="9.786428806129278"><ele>1010.0</ele><time>2026-04-17T15:02:38Z</time></trkpt><trkpt lat="45.79045889049609" lon="9.786478421637252"><ele>1010.0000000000001</ele><time>2026-04-17T15:02:39Z</time></trkpt><trkpt lat="45.790554566184966" lon="9.78659828532375"><ele>1010.0</ele><time>2026-04-17T15:02:41Z</time></trkpt><trkpt lat="45.79060400355666" lon="9.786669508467263"><ele>1010.0</ele><time>2026-04-17T15:02:42Z</time></trkpt><trkpt lat="45.79065405642549" lon="9.786725688170089"><ele>1010.0</ele><time>2026-04-17T15:02:43Z</time></trkpt><trkpt lat="45.79070436066239" lon="9.78678358969011"><ele>1010.0000000000001</ele><time>2026-04-17T15:02:44Z</time></trkpt><trkpt lat="45.790768214300165" lon="9.786852775227397"><ele>1010.0</ele><time>2026-04-17T15:02:45Z</time></trkpt><trkpt lat="45.7908816239034" lon="9.786887546887112"><ele>1008.0</ele><time>2026-04-17T15:02:47Z</time></trkpt><trkpt lat="45.790995936185645" lon="9.786933087805052"><ele>1006.0</ele><time>2026-04-17T15:02:49Z</time></trkpt><trkpt lat="45.791059191862644" lon="9.786947405233871"><ele>1004.0</ele><time>2026-04-17T15:02:50Z</time></trkpt><trkpt lat="45.7911712881872" lon="9.786987143974335"><ele>1002.0</ele><time>2026-04-17T15:02:52Z</time></trkpt><trkpt lat="45.79128172525343" lon="9.787031629668082"><ele>1000.0</ele><time>2026-04-17T15:02:54Z</time></trkpt><trkpt lat="45.79138869574914" lon="9.78707995620304"><ele>1000.0</ele><time>2026-04-17T15:02:56Z</time></trkpt><trkpt lat="45.79149272487183" lon="9.787123026930786"><ele>1000.0</ele><time>2026-04-17T15:02:58Z</time></trkpt><trkpt lat="45.79159999719" lon="9.78714939942823"><ele>1000.0</ele><time>2026-04-17T15:03:00Z</time></trkpt><trkpt lat="45.791712458800454" lon="9.78716539462342"><ele>1000.0</ele><time>2026-04-17T15:03:02Z</time></trkpt><trkpt lat="45.791823314193785" lon="9.787176815805775"><ele>1000.0</ele><time>2026-04-17T15:03:04Z</time></trkpt><trkpt lat="45.791935056575475" lon="9.78716561225382"><ele>1004.8</ele><time>2026-04-17T15:03:06Z</time></trkpt><trkpt lat="45.79204954242708" lon="9.787147934412978"><ele>1009.6</ele><time>2026-04-17T15:03:08Z</time></trkpt><trkpt lat="45.792156844775924" lon="9.787123799823654"><ele>1014.4000000000001</ele><time>2026-04-17T15:03:10Z</time></trkpt><trkpt lat="45.792264750927274" lon="9.787145925797136"><ele>1019.2</ele><time>2026-04-17T15:03:12Z</time></trkpt><trkpt lat="45.79233612837012" lon="9.787266919657464"><ele>1024.0</ele><time>2026-04-17T15:03:14Z</time></trkpt><trkpt lat="45.7923579261306" lon="9.787432669522886"><ele>1024.0</ele><time>2026-04-17T15:03:16Z</time></trkpt><trkpt lat="45.79241336617914" lon="9.78757279599568"><ele>1024.0</ele><time>2026-04-17T15:03:18Z</time></trkpt><trkpt lat="45.79249871888673" lon="9.787674845295289"><ele>1024.0</ele><time>2026-04-17T15:03:20Z</time></trkpt><trkpt lat="45.79260941289865" lon="9.787730655925301"><ele>1024.0</ele><time>2026-04-17T15:03:22Z</time></trkpt><trkpt lat="45.79271154209847" lon="9.787762474756649"><ele>1024.0</ele><time>2026-04-17T15:03:24Z</time></trkpt><trkpt lat="45.79282350489066" lon="9.787797038176567"><ele>1019.4000000000001</ele><time>2026-04-17T15:03:26Z</time></trkpt><trkpt lat="45.79293435244012" lon="9.78782361465011"><ele>1014.8000000000001</ele><time>2026-04-17T15:03:28Z</time></trkpt><trkpt lat="45.793040002124165" lon="9.787860870138033"><ele>1010.1999999999999</ele><time>2026-04-17T15:03:30Z</time></trkpt><trkpt lat="45.793150264057296" lon="9.787875927655667"><ele>1005.5999999999999</ele><time>2026-04-17T15:03:32Z</time></trkpt><trkpt lat="45.793261656726905" lon="9.787882827597183"><ele>1001.0</ele><time>2026-04-17T15:03:34Z</time></trkpt><trkpt lat="45.79336923288674" lon="9.787879457825111"><ele>1001.0</ele><time>2026-04-17T15:03:36Z</time></trkpt><trkpt lat="45.79347820979375" lon="9.787867678777046"><ele>1000.9999999999999</ele><time>2026-04-17T15:03:38Z</time></trkpt><trkpt lat="45.79358726337115" lon="9.787868106658815"><ele>1000.9999999999999</ele><time>2026-04-17T15:03:40Z</time></trkpt><trkpt lat="45.79369655739455" lon="9.787869284760022"><ele>1001.0</ele><time>2026-04-17T15:03:42Z</time></trkpt><trkpt lat="45.79380459899865" lon="9.787862209320942"><ele>1001.0</ele><time>2026-04-17T15:03:44Z</time></trkpt><trkpt lat="45.79391015639068" lon="9.787835186976698"><ele>1005.8</ele><time>2026-04-17T15:03:46Z</time></trkpt><trkpt lat="45.79400893323471" lon="9.787804991711848"><ele>1010.5999999999999</ele><time>2026-04-17T15:03:48Z</time></trkpt><trkpt lat="45.79410703733318" lon="9.787780635530455"><ele>1015.4</ele><time>2026-04-17T15:03:50Z</time></trkpt><trkpt lat="45.79420572789722" lon="9.787767566489505"><ele>1020.2</ele><time>2026-04-17T15:03:52Z</time></trkpt><trkpt lat="45.79429632661181" lon="9.787834720560435"><ele>1025.0</ele><time>2026-04-17T15:03:54Z</time></trkpt><trkpt lat="45.79437486048522" lon="9.787962349783083"><ele>1035.75</ele><time>2026-04-17T15:03:56Z</time></trkpt><trkpt lat="45.794437503638854" lon="9.788079705488146"><ele>1046.5</ele><time>2026-04-17T15:03:58Z</time></trkpt><trkpt lat="45.79453441807439" lon="9.78816825873456"><ele>1057.25</ele><time>2026-04-17T15:04:00Z</time></trkpt><trkpt lat="45.794632754543635" lon="9.788264722179576"><ele>1068.0</ele><time>2026-04-17T15:04:02Z</time></trkpt><trkpt lat="45.794642682704904" lon="9.78843495352101"><ele>1070.2</ele><time>2026-04-17T15:04:04Z</time></trkpt><trkpt lat="45.79460960085144" lon="9.788512572435447"><ele>1072.4</ele><time>2026-04-17T15:04:05Z</time></trkpt><trkpt lat="45.79452177961704" lon="9.78863011751777"><ele>1074.6000000000001</ele><time>2026-04-17T15:04:07Z</time></trkpt><trkpt lat="45.794444056085624" lon="9.788739459289712"><ele>1076.8</ele><time>2026-04-17T15:04:09Z</time></trkpt><trkpt lat="45.794373094109304" lon="9.788862942051212"><ele>1079.0</ele><time>2026-04-17T15:04:11Z</time></trkpt><trkpt lat="45.79432148458942" lon="9.789006869894441"><ele>1073.8</ele><time>2026-04-17T15:04:13Z</time></trkpt><trkpt lat="45.79429137733876" lon="9.789155421768186"><ele>1068.6000000000001</ele><time>2026-04-17T15:04:15Z</time></trkpt><trkpt lat="45.794259765802906" lon="9.78928995733114"><ele>1063.4</ele><time>2026-04-17T15:04:17Z</time></trkpt><trkpt lat="45.794233739396354" lon="9.789434442858527"><ele>1058.2</ele><time>2026-04-17T15:04:19Z</time></trkpt><trkpt lat="45.794178669962335" lon="9.789576611869016"><ele>1053.0</ele><time>2026-04-17T15:04:21Z</time></trkpt><trkpt lat="45.79410384089164" lon="9.789698973743743"><ele>1053.0</ele><time>2026-04-17T15:04:23Z</time></trkpt><trkpt lat="45.79404237630878" lon="9.789834054313548"><ele>1053.0</ele><time>2026-04-17T15:04:25Z</time></trkpt><trkpt lat="45.793968406258294" lon="9.789958288147655"><ele>1053.0</ele><time>2026-04-17T15:04:27Z</time></trkpt><trkpt lat="45.7939019774644" lon="9.790085172543709"><ele>1053.0</ele><time>2026-04-17T15:04:29Z</time></trkpt><trkpt lat="45.79381679683143" lon="9.79019662073796"><ele>1050.75</ele><time>2026-04-17T15:04:31Z</time></trkpt><trkpt lat="45.793736541311674" lon="9.790314386863654"><ele>1048.5</ele><time>2026-04-17T15:04:33Z</time></trkpt><trkpt lat="45.79364856760204" lon="9.790421350969972"><ele>1046.25</ele><time>2026-04-17T15:04:35Z</time></trkpt><trkpt lat="45.79355318063763" lon="9.790507674992169"><ele>1044.0</ele><time>2026-04-17T15:04:37Z</time></trkpt><trkpt lat="45.79345508551265" lon="9.79057180749686"><ele>1044.0</ele><time>2026-04-17T15:04:39Z</time></trkpt><trkpt lat="45.79336756340363" lon="9.790694897124466"><ele>1044.0</ele><time>2026-04-17T15:04:41Z</time></trkpt><trkpt lat="45.79328068666397" lon="9.790798668652828"><ele>1044.0</ele><time>2026-04-17T15:04:43Z</time></trkpt><trkpt lat="45.793208923963974" lon="9.790916240567945"><ele>1044.0</ele><time>2026-04-17T15:04:45Z</time></trkpt><trkpt lat="45.79318996117739" lon="9.791075500487402"><ele>1046.0</ele><time>2026-04-17T15:04:47Z</time></trkpt><trkpt lat="45.79322803228281" lon="9.791231692260983"><ele>1048.0</ele><time>2026-04-17T15:04:49Z</time></trkpt><trkpt lat="45.793249916685376" lon="9.791386376645175"><ele>1050.0</ele><time>2026-04-17T15:04:51Z</time></trkpt><trkpt lat="45.79326901588587" lon="9.791537678923444"><ele>1052.0</ele><time>2026-04-17T15:04:53Z</time></trkpt><trkpt lat="45.79326703939497" lon="9.791693449346953"><ele>1054.0</ele><time>2026-04-17T15:04:55Z</time></trkpt><trkpt lat="45.79325635647785" lon="9.791853466744326"><ele>1054.0</ele><time>2026-04-17T15:04:57Z</time></trkpt><trkpt lat="45.7932393361526" lon="9.792009613520852"><ele>1054.0</ele><time>2026-04-17T15:04:59Z</time></trkpt><trkpt lat="45.79323560752884" lon="9.79215968142489"><ele>1054.0</ele><time>2026-04-17T15:05:01Z</time></trkpt><trkpt lat="45.79323721389178" lon="9.79229993839804"><ele>1054.0</ele><time>2026-04-17T15:05:03Z</time></trkpt><trkpt lat="45.793257396282016" lon="9.792442968596504"><ele>1054.0</ele><time>2026-04-17T15:05:05Z</time></trkpt><trkpt lat="45.7932864111896" lon="9.792596457702265"><ele>1053.8</ele><time>2026-04-17T15:05:07Z</time></trkpt><trkpt lat="45.79331426212181" lon="9.792743449809631"><ele>1053.6000000000001</ele><time>2026-04-17T15:05:09Z</time></trkpt><trkpt lat="45.79334533812217" lon="9.792891170783637"><ele>1053.4</ele><time>2026-04-17T15:05:11Z</time></trkpt><trkpt lat="45.793367782139875" lon="9.793020586114931"><ele>1053.2</ele><time>2026-04-17T15:05:13Z</time></trkpt><trkpt lat="45.79337568230154" lon="9.793144767761344"><ele>1053.0</ele><time>2026-04-17T15:05:15Z</time></trkpt><trkpt lat="45.79337504033759" lon="9.793248338249347"><ele>1052.9999999999998</ele><time>2026-04-17T15:05:17Z</time></trkpt><trkpt lat="45.793377495689676" lon="9.793351486225653"><ele>1053.0</ele><time>2026-04-17T15:05:20Z</time></trkpt><trkpt lat="45.79333466912767" lon="9.793420880262014"><ele>1053.0</ele><time>2026-04-17T15:05:31Z</time></trkpt><trkpt lat="45.79339999301158" lon="9.793377640762975"><ele>1053.0</ele><time>2026-04-17T15:07:40Z</time></trkpt><trkpt lat="45.793452945424896" lon="9.79329226344013"><ele>1053.0</ele><time>2026-04-17T15:07:43Z</time></trkpt><trkpt lat="45.79347872727152" lon="9.793194485477237"><ele>1052.9999999999998</ele><time>2026-04-17T15:07:45Z</time></trkpt><trkpt lat="45.7935283102276" lon="9.79309974995756"><ele>1053.0</ele><time>2026-04-17T15:07:47Z</time></trkpt><trkpt lat="45.79359061820033" lon="9.793001913853017"><ele>1052.1666666666667</ele><time>2026-04-17T15:07:49Z</time></trkpt><trkpt lat="45.793641307580515" lon="9.792882016944178"><ele>1051.3333333333333</ele><time>2026-04-17T15:07:51Z</time></trkpt><trkpt lat="45.793686297451224" lon="9.792732765435092"><ele>1050.5</ele><time>2026-04-17T15:07:53Z</time></trkpt><trkpt lat="45.79371339336614" lon="9.79265024160921"><ele>1049.6666666666665</ele><time>2026-04-17T15:07:54Z</time></trkpt><trkpt lat="45.793746194124246" lon="9.792562314003982"><ele>1048.8333333333333</ele><time>2026-04-17T15:07:55Z</time></trkpt><trkpt lat="45.79377848806619" lon="9.79246631769771"><ele>1048.0</ele><time>2026-04-17T15:07:56Z</time></trkpt><trkpt lat="45.793819791830636" lon="9.792372065798519"><ele>1048.0</ele><time>2026-04-17T15:07:57Z</time></trkpt><trkpt lat="45.793869763502634" lon="9.79227789689623"><ele>1048.0</ele><time>2026-04-17T15:07:58Z</time></trkpt><trkpt lat="45.79393260769873" lon="9.792193572059489"><ele>1048.0</ele><time>2026-04-17T15:07:59Z</time></trkpt><trkpt lat="45.79400482959367" lon="9.792111898412259"><ele>1048.0</ele><time>2026-04-17T15:08:00Z</time></trkpt><trkpt lat="45.79408067096118" lon="9.792036154592397"><ele>1048.0</ele><time>2026-04-17T15:08:01Z</time></trkpt><trkpt lat="45.79417388266944" lon="9.791981412506008"><ele>1048.0</ele><time>2026-04-17T15:08:02Z</time></trkpt><trkpt lat="45.79426997968996" lon="9.791928538541931"><ele>1048.0</ele><time>2026-04-17T15:08:03Z</time></trkpt><trkpt lat="45.79437341979822" lon="9.79189589357247"><ele>1048.0</ele><time>2026-04-17T15:08:04Z</time></trkpt><trkpt lat="45.79448119758334" lon="9.79188719968934"><ele>1048.0</ele><time>2026-04-17T15:08:05Z</time></trkpt><trkpt lat="45.79458267183525" lon="9.791872537927246"><ele>1048.0</ele><time>2026-04-17T15:08:06Z</time></trkpt><trkpt lat="45.79467457807716" lon="9.791823785407438"><ele>1047.8</ele><time>2026-04-17T15:08:07Z</time></trkpt><trkpt lat="45.79476311097852" lon="9.791742316742598"><ele>1047.6</ele><time>2026-04-17T15:08:08Z</time></trkpt><trkpt lat="45.794850800670154" lon="9.791640163826271"><ele>1047.4</ele><time>2026-04-17T15:08:09Z</time></trkpt><trkpt lat="45.7949418826784" lon="9.791546434121452"><ele>1047.2</ele><time>2026-04-17T15:08:10Z</time></trkpt><trkpt lat="45.79504114109831" lon="9.791453201147037"><ele>1047.0</ele><time>2026-04-17T15:08:11Z</time></trkpt><trkpt lat="45.79513731896168" lon="9.791362158577936"><ele>1047.0</ele><time>2026-04-17T15:08:12Z</time></trkpt><trkpt lat="45.79523391579298" lon="9.791286801139794"><ele>1047.0</ele><time>2026-04-17T15:08:13Z</time></trkpt><trkpt lat="45.795324271111454" lon="9.79122259129875"><ele>1047.0</ele><time>2026-04-17T15:08:14Z</time></trkpt><trkpt lat="45.79539883028422" lon="9.791190326531693"><ele>1047.0</ele><time>2026-04-17T15:08:15Z</time></trkpt><trkpt lat="45.79547176776786" lon="9.791177885476346"><ele>1047.0</ele><time>2026-04-17T15:08:16Z</time></trkpt><trkpt lat="45.79553642987337" lon="9.791202533968987"><ele>1047.0</ele><time>2026-04-17T15:08:17Z</time></trkpt><trkpt lat="45.79558527364818" lon="9.791290322855835"><ele>1047.0</ele><time>2026-04-17T15:08:18Z</time></trkpt><trkpt lat="45.79559495394986" lon="9.791408759209467"><ele>1047.0</ele><time>2026-04-17T15:08:19Z</time></trkpt><trkpt lat="45.79560049675005" lon="9.791531786045292"><ele>1047.0</ele><time>2026-04-17T15:08:20Z</time></trkpt><trkpt lat="45.79561398853894" lon="9.791660753103365"><ele>1047.0</ele><time>2026-04-17T15:08:21Z</time></trkpt><trkpt lat="45.795634158114865" lon="9.791795681382242"><ele>1047.0</ele><time>2026-04-17T15:08:22Z</time></trkpt><trkpt lat="45.79564921966022" lon="9.791934863721089"><ele>1044.2</ele><time>2026-04-17T15:08:23Z</time></trkpt><trkpt lat="45.795668616033645" lon="9.79209227522019"><ele>1041.4</ele><time>2026-04-17T15:08:24Z</time></trkpt><trkpt lat="45.7956863725296" lon="9.79224228000394"><ele>1038.6</ele><time>2026-04-17T15:08:25Z</time></trkpt><trkpt lat="45.795700779353346" lon="9.79240112098583"><ele>1035.8</ele><time>2026-04-17T15:08:26Z</time></trkpt><trkpt lat="45.79570867416762" lon="9.792561684742454"><ele>1033.0</ele><time>2026-04-17T15:08:27Z</time></trkpt><trkpt lat="45.7957166054275" lon="9.792727179452276"><ele>1029.0</ele><time>2026-04-17T15:08:28Z</time></trkpt><trkpt lat="45.79574010789681" lon="9.792894026582003"><ele>1025.0</ele><time>2026-04-17T15:08:29Z</time></trkpt><trkpt lat="45.79577236966577" lon="9.793056498688378"><ele>1021.0</ele><time>2026-04-17T15:08:30Z</time></trkpt><trkpt lat="45.795810864842665" lon="9.793211028849207"><ele>1017.0</ele><time>2026-04-17T15:08:31Z</time></trkpt><trkpt lat="45.79585215367805" lon="9.793358058224927"><ele>1017.0</ele><time>2026-04-17T15:08:32Z</time></trkpt><trkpt lat="45.79590064107968" lon="9.793499392017537"><ele>1017.0</ele><time>2026-04-17T15:08:33Z</time></trkpt><trkpt lat="45.795950567249626" lon="9.793615701894693"><ele>1017.0</ele><time>2026-04-17T15:08:34Z</time></trkpt><trkpt lat="45.795997301309164" lon="9.793699364208114"><ele>1017.0</ele><time>2026-04-17T15:08:35Z</time></trkpt><trkpt lat="45.79605409821725" lon="9.793747637911522"><ele>1017.0</ele><time>2026-04-17T15:08:36Z</time></trkpt><trkpt lat="45.79612825605042" lon="9.793758345380697"><ele>1017.0</ele><time>2026-04-17T15:08:37Z</time></trkpt><trkpt lat="45.796206851035826" lon="9.793706237569152"><ele>1015.6666666666666</ele><time>2026-04-17T15:08:38Z</time></trkpt><trkpt lat="45.796259942265955" lon="9.793609260842683"><ele>1014.3333333333333</ele><time>2026-04-17T15:08:39Z</time></trkpt><trkpt lat="45.79631608120111" lon="9.793487913231823"><ele>1013.0</ele><time>2026-04-17T15:08:40Z</time></trkpt><trkpt lat="45.79637348393755" lon="9.793394412595452"><ele>1011.6666666666666</ele><time>2026-04-17T15:08:41Z</time></trkpt><trkpt lat="45.796426301984454" lon="9.793297802119724"><ele>1010.3333333333333</ele><time>2026-04-17T15:08:42Z</time></trkpt><trkpt lat="45.796481288169" lon="9.79320345458589"><ele>1009.0</ele><time>2026-04-17T15:08:43Z</time></trkpt><trkpt lat="45.79654603599336" lon="9.793100786207349"><ele>1009.0</ele><time>2026-04-17T15:08:44Z</time></trkpt><trkpt lat="45.796604289451516" lon="9.792997915954446"><ele>1009.0000000000001</ele><time>2026-04-17T15:08:45Z</time></trkpt><trkpt lat="45.79666591025647" lon="9.792918337238339"><ele>1009.0000000000001</ele><time>2026-04-17T15:08:46Z</time></trkpt><trkpt lat="45.796730425388894" lon="9.792812122047785"><ele>1009.0</ele><time>2026-04-17T15:08:47Z</time></trkpt><trkpt lat="45.79679828622261" lon="9.792700024719895"><ele>1009.0</ele><time>2026-04-17T15:08:48Z</time></trkpt><trkpt lat="45.7968650306283" lon="9.79258354284005"><ele>1005.8000000000001</ele><time>2026-04-17T15:08:49Z</time></trkpt><trkpt lat="45.79694455776718" lon="9.792481359429798"><ele>1002.6000000000001</ele><time>2026-04-17T15:08:50Z</time></trkpt><trkpt lat="45.79702860238439" lon="9.792376149680557"><ele>999.4</ele><time>2026-04-17T15:08:51Z</time></trkpt><trkpt lat="45.79711070830258" lon="9.792264974165818"><ele>996.2</ele><time>2026-04-17T15:08:52Z</time></trkpt><trkpt lat="45.79719857314756" lon="9.792160599278942"><ele>993.0</ele><time>2026-04-17T15:08:53Z</time></trkpt><trkpt lat="45.797296775772146" lon="9.792059000158986"><ele>993.0</ele><time>2026-04-17T15:08:54Z</time></trkpt><trkpt lat="45.797399576849635" lon="9.791966723652406"><ele>993.0</ele><time>2026-04-17T15:08:55Z</time></trkpt><trkpt lat="45.79750983261345" lon="9.791880707913228"><ele>993.0</ele><time>2026-04-17T15:08:56Z</time></trkpt><trkpt lat="45.79762616285772" lon="9.791813657481804"><ele>993.0</ele><time>2026-04-17T15:08:57Z</time></trkpt><trkpt lat="45.79774058124964" lon="9.791769325480143"><ele>992.3333333333334</ele><time>2026-04-17T15:08:58Z</time></trkpt><trkpt lat="45.79783942700021" lon="9.791739785063486"><ele>991.6666666666667</ele><time>2026-04-17T15:08:59Z</time></trkpt><trkpt lat="45.797915383692946" lon="9.7916985094847"><ele>991.0</ele><time>2026-04-17T15:09:00Z</time></trkpt><trkpt lat="45.79798663312284" lon="9.791675074182619"><ele>990.3333333333334</ele><time>2026-04-17T15:09:01Z</time></trkpt><trkpt lat="45.79806813543031" lon="9.791721009037838"><ele>989.6666666666667</ele><time>2026-04-17T15:09:02Z</time></trkpt><trkpt lat="45.798142139904016" lon="9.791813518774557"><ele>989.0</ele><time>2026-04-17T15:09:03Z</time></trkpt><trkpt lat="45.79819479059368" lon="9.791940673832457"><ele>989.0</ele><time>2026-04-17T15:09:04Z</time></trkpt><trkpt lat="45.798240572234086" lon="9.792074534463044"><ele>989.0000000000001</ele><time>2026-04-17T15:09:05Z</time></trkpt><trkpt lat="45.798304524434215" lon="9.792192364668962"><ele>989.0000000000001</ele><time>2026-04-17T15:09:06Z</time></trkpt><trkpt lat="45.79839342824507" lon="9.792269379128065"><ele>989.0</ele><time>2026-04-17T15:09:07Z</time></trkpt><trkpt lat="45.79847572314797" lon="9.792349270631398"><ele>989.0</ele><time>2026-04-17T15:09:08Z</time></trkpt><trkpt lat="45.798514549291774" lon="9.792473129910189"><ele>990.6</ele><time>2026-04-17T15:09:09Z</time></trkpt><trkpt lat="45.79852822628703" lon="9.792612472869367"><ele>992.2</ele><time>2026-04-17T15:09:10Z</time></trkpt><trkpt lat="45.798571301184545" lon="9.792741661322095"><ele>993.8000000000001</ele><time>2026-04-17T15:09:11Z</time></trkpt><trkpt lat="45.798641869181445" lon="9.792855156452902"><ele>995.4000000000001</ele><time>2026-04-17T15:09:12Z</time></trkpt><trkpt lat="45.798712452053344" lon="9.792977545047489"><ele>997.0</ele><time>2026-04-17T15:09:13Z</time></trkpt><trkpt lat="45.79879336885625" lon="9.793108797990433"><ele>997.0</ele><time>2026-04-17T15:09:14Z</time></trkpt><trkpt lat="45.798871216292476" lon="9.793247156450123"><ele>997.0</ele><time>2026-04-17T15:09:15Z</time></trkpt><trkpt lat="45.79895303920185" lon="9.793391492771999"><ele>997.0</ele><time>2026-04-17T15:09:16Z</time></trkpt><trkpt lat="45.799024400986404" lon="9.793554746825894"><ele>997.0</ele><time>2026-04-17T15:09:17Z</time></trkpt><trkpt lat="45.799086479570015" lon="9.793722743199396"><ele>992.0</ele><time>2026-04-17T15:09:18Z</time></trkpt><trkpt lat="45.799157148048025" lon="9.793905202627393"><ele>987.0</ele><time>2026-04-17T15:09:19Z</time></trkpt><trkpt lat="45.799231498025996" lon="9.794066540198575"><ele>982.0</ele><time>2026-04-17T15:09:20Z</time></trkpt><trkpt lat="45.799309905478054" lon="9.794233545023625"><ele>977.0</ele><time>2026-04-17T15:09:21Z</time></trkpt><trkpt lat="45.79938439332869" lon="9.794391459097735"><ele>977.0</ele><time>2026-04-17T15:09:22Z</time></trkpt><trkpt lat="45.79946432555031" lon="9.794561370630417"><ele>977.0</ele><time>2026-04-17T15:09:23Z</time></trkpt><trkpt lat="45.79954914747407" lon="9.794740099574835"><ele>977.0</ele><time>2026-04-17T15:09:24Z</time></trkpt><trkpt lat="45.799625841248734" lon="9.794919324605525"><ele>977.0</ele><time>2026-04-17T15:09:25Z</time></trkpt><trkpt lat="45.79968489015444" lon="9.795114174037515"><ele>971.0</ele><time>2026-04-17T15:09:26Z</time></trkpt><trkpt lat="45.79974872865422" lon="9.795307207373504"><ele>965.0</ele><time>2026-04-17T15:09:27Z</time></trkpt><trkpt lat="45.799815684668594" lon="9.79549085139011"><ele>959.0</ele><time>2026-04-17T15:09:28Z</time></trkpt><trkpt lat="45.79988650345071" lon="9.795667560038726"><ele>953.0</ele><time>2026-04-17T15:09:29Z</time></trkpt><trkpt lat="45.79994775703037" lon="9.795823483977957"><ele>953.0</ele><time>2026-04-17T15:09:30Z</time></trkpt><trkpt lat="45.800013802864584" lon="9.795959825708545"><ele>953.0</ele><time>2026-04-17T15:09:31Z</time></trkpt><trkpt lat="45.80008338375368" lon="9.796064760056648"><ele>953.0</ele><time>2026-04-17T15:09:32Z</time></trkpt><trkpt lat="45.8001435667011" lon="9.79617055615283"><ele>953.0</ele><time>2026-04-17T15:09:33Z</time></trkpt><trkpt lat="45.80018320828281" lon="9.796309010223212"><ele>953.0</ele><time>2026-04-17T15:09:34Z</time></trkpt><trkpt lat="45.800208635172346" lon="9.796467294830768"><ele>951.2</ele><time>2026-04-17T15:09:35Z</time></trkpt><trkpt lat="45.800236512419914" lon="9.796627443815149"><ele>949.4</ele><time>2026-04-17T15:09:36Z</time></trkpt><trkpt lat="45.8002890613018" lon="9.796780528796328"><ele>947.6000000000001</ele><time>2026-04-17T15:09:37Z</time></trkpt><trkpt lat="45.80035013564158" lon="9.796917522397198"><ele>945.8000000000001</ele><time>2026-04-17T15:09:38Z</time></trkpt><trkpt lat="45.800406137712756" lon="9.79702788189862"><ele>944.0</ele><time>2026-04-17T15:09:39Z</time></trkpt><trkpt lat="45.80046668827156" lon="9.797109255273789"><ele>940.0</ele><time>2026-04-17T15:09:40Z</time></trkpt><trkpt lat="45.80051637522326" lon="9.797231465082216"><ele>936.0000000000001</ele><time>2026-04-17T15:09:42Z</time></trkpt><trkpt lat="45.800422041228245" lon="9.797321900024176"><ele>932.0000000000001</ele><time>2026-04-17T15:09:44Z</time></trkpt><trkpt lat="45.8003475248042" lon="9.79727256998999"><ele>928.0</ele><time>2026-04-17T15:09:45Z</time></trkpt><trkpt lat="45.80029806098007" lon="9.79717412342887"><ele>924.0</ele><time>2026-04-17T15:09:46Z</time></trkpt><trkpt lat="45.80025604944601" lon="9.79708035241111"><ele>924.0</ele><time>2026-04-17T15:09:47Z</time></trkpt><trkpt lat="45.80020508552789" lon="9.797001772680538"><ele>924.0</ele><time>2026-04-17T15:09:48Z</time></trkpt><trkpt lat="45.8001485591429" lon="9.796926072822671"><ele>924.0</ele><time>2026-04-17T15:09:49Z</time></trkpt><trkpt lat="45.80008650186297" lon="9.796845664174409"><ele>924.0</ele><time>2026-04-17T15:09:50Z</time></trkpt><trkpt lat="45.80002530668737" lon="9.796756784427897"><ele>924.0</ele><time>2026-04-17T15:09:51Z</time></trkpt><trkpt lat="45.7999599422061" lon="9.796672730472386"><ele>924.0</ele><time>2026-04-17T15:09:52Z</time></trkpt><trkpt lat="45.799891011619984" lon="9.796588553512198"><ele>926.4000000000001</ele><time>2026-04-17T15:09:53Z</time></trkpt><trkpt lat="45.7998171718948" lon="9.796506173896121"><ele>928.8000000000001</ele><time>2026-04-17T15:09:54Z</time></trkpt><trkpt lat="45.799739571192916" lon="9.796421787329226"><ele>931.1999999999999</ele><time>2026-04-17T15:09:55Z</time></trkpt><trkpt lat="45.7996584750721" lon="9.796335964935697"><ele>933.5999999999999</ele><time>2026-04-17T15:09:56Z</time></trkpt><trkpt lat="45.79957350581094" lon="9.796249213438093"><ele>936.0</ele><time>2026-04-17T15:09:57Z</time></trkpt><trkpt lat="45.79948853745112" lon="9.79615585538626"><ele>936.0</ele><time>2026-04-17T15:09:58Z</time></trkpt><trkpt lat="45.799408743638075" lon="9.796046222461971"><ele>935.9999999999999</ele><time>2026-04-17T15:09:59Z</time></trkpt><trkpt lat="45.799331325386454" lon="9.795927959247514"><ele>935.9999999999999</ele><time>2026-04-17T15:10:00Z</time></trkpt><trkpt lat="45.7992575724198" lon="9.795828751879242"><ele>936.0</ele><time>2026-04-17T15:10:01Z</time></trkpt><trkpt lat="45.79919374240778" lon="9.795741181507962"><ele>936.0</ele><time>2026-04-17T15:10:02Z</time></trkpt><trkpt lat="45.79913422470004" lon="9.795672186030854"><ele>934.5714285714287</ele><time>2026-04-17T15:10:03Z</time></trkpt><trkpt lat="45.79906927805411" lon="9.795626836354558"><ele>933.1428571428572</ele><time>2026-04-17T15:10:04Z</time></trkpt><trkpt lat="45.79898370319861" lon="9.79560308231353"><ele>931.7142857142858</ele><time>2026-04-17T15:10:05Z</time></trkpt><trkpt lat="45.798907180867644" lon="9.79558930530531"><ele>930.2857142857142</ele><time>2026-04-17T15:10:06Z</time></trkpt><trkpt lat="45.7988443190659" lon="9.795556138494371"><ele>928.8571428571428</ele><time>2026-04-17T15:10:07Z</time></trkpt><trkpt lat="45.79879528321" lon="9.795496684899158"><ele>927.4285714285713</ele><time>2026-04-17T15:10:08Z</time></trkpt><trkpt lat="45.7987702570472" lon="9.795385328858362"><ele>926.0</ele><time>2026-04-17T15:10:09Z</time></trkpt><trkpt lat="45.79870218388989" lon="9.795311855139595"><ele>926.0000000000001</ele><time>2026-04-17T15:10:11Z</time></trkpt><trkpt lat="45.79865298030727" lon="9.79538556839418"><ele>926.0</ele><time>2026-04-17T15:10:12Z</time></trkpt><trkpt lat="45.79864676280416" lon="9.795500392960045"><ele>926.0</ele><time>2026-04-17T15:10:13Z</time></trkpt><trkpt lat="45.79865991483644" lon="9.795622483654409"><ele>926.0</ele><time>2026-04-17T15:10:14Z</time></trkpt><trkpt lat="45.798660213198325" lon="9.795743413613023"><ele>926.0000000000001</ele><time>2026-04-17T15:10:15Z</time></trkpt><trkpt lat="45.798657732287595" lon="9.795870963655892"><ele>926.0</ele><time>2026-04-17T15:10:16Z</time></trkpt><trkpt lat="45.79869179079927" lon="9.79599516675513"><ele>923.4</ele><time>2026-04-17T15:10:17Z</time></trkpt><trkpt lat="45.79876044869858" lon="9.796103549620657"><ele>920.8</ele><time>2026-04-17T15:10:18Z</time></trkpt><trkpt lat="45.798840896844936" lon="9.796198111035956"><ele>918.1999999999999</ele><time>2026-04-17T15:10:19Z</time></trkpt><trkpt lat="45.79892261584982" lon="9.796292088400811"><ele>915.5999999999999</ele><time>2026-04-17T15:10:20Z</time></trkpt><trkpt lat="45.79899652605806" lon="9.79641040282757"><ele>913.0</ele><time>2026-04-17T15:10:21Z</time></trkpt><trkpt lat="45.799060632724355" lon="9.796549820696168"><ele>913.0</ele><time>2026-04-17T15:10:22Z</time></trkpt><trkpt lat="45.79911214312851" lon="9.796690958800383"><ele>913.0</ele><time>2026-04-17T15:10:23Z</time></trkpt><trkpt lat="45.7991634329516" lon="9.796818904151882"><ele>913.0</ele><time>2026-04-17T15:10:24Z</time></trkpt><trkpt lat="45.79920884340909" lon="9.796962586232002"><ele>913.0</ele><time>2026-04-17T15:10:25Z</time></trkpt><trkpt lat="45.79923762578743" lon="9.79712263678501"><ele>913.0</ele><time>2026-04-17T15:10:26Z</time></trkpt><trkpt lat="45.79925811095277" lon="9.797285593827656"><ele>910.0</ele><time>2026-04-17T15:10:27Z</time></trkpt><trkpt lat="45.799266143958384" lon="9.79746087290115"><ele>907.0</ele><time>2026-04-17T15:10:28Z</time></trkpt><trkpt lat="45.799275672558636" lon="9.797638752011986"><ele>904.0</ele><time>2026-04-17T15:10:29Z</time></trkpt><trkpt lat="45.79929380061379" lon="9.79782204989495"><ele>901.0</ele><time>2026-04-17T15:10:30Z</time></trkpt><trkpt lat="45.79931540919881" lon="9.798006574965482"><ele>901.0</ele><time>2026-04-17T15:10:31Z</time></trkpt><trkpt lat="45.799334341630015" lon="9.79819190658442"><ele>901.0</ele><time>2026-04-17T15:10:32Z</time></trkpt><trkpt lat="45.799363273306895" lon="9.798378716286349"><ele>901.0</ele><time>2026-04-17T15:10:33Z</time></trkpt><trkpt lat="45.79940261594003" lon="9.798555330181154"><ele>901.0</ele><time>2026-04-17T15:10:34Z</time></trkpt><trkpt lat="45.79942138363218" lon="9.79870924198212"><ele>901.0</ele><time>2026-04-17T15:10:35Z</time></trkpt><trkpt lat="45.79939441272796" lon="9.798856965819306"><ele>900.9999999999999</ele><time>2026-04-17T15:10:36Z</time></trkpt><trkpt lat="45.79936351874481" lon="9.798980273441929"><ele>900.9999999999999</ele><time>2026-04-17T15:10:37Z</time></trkpt><trkpt lat="45.79936216727132" lon="9.799129492854787"><ele>901.0</ele><time>2026-04-17T15:10:38Z</time></trkpt><trkpt lat="45.79938770880521" lon="9.79926506696581"><ele>901.0</ele><time>2026-04-17T15:10:39Z</time></trkpt><trkpt lat="45.79944906172158" lon="9.799386325912796"><ele>897.25</ele><time>2026-04-17T15:10:40Z</time></trkpt><trkpt lat="45.79952524787758" lon="9.79950097932446"><ele>893.5</ele><time>2026-04-17T15:10:41Z</time></trkpt><trkpt lat="45.79959966169271" lon="9.799624022902922"><ele>889.75</ele><time>2026-04-17T15:10:42Z</time></trkpt><trkpt lat="45.79967017461164" lon="9.799751168591817"><ele>886.0</ele><time>2026-04-17T15:10:43Z</time></trkpt><trkpt lat="45.799747356959955" lon="9.799878677084312"><ele>886.0</ele><time>2026-04-17T15:10:44Z</time></trkpt><trkpt lat="45.79981678509853" lon="9.800016692397993"><ele>886.0</ele><time>2026-04-17T15:10:45Z</time></trkpt><trkpt lat="45.79986339837027" lon="9.800186060238367"><ele>886.0</ele><time>2026-04-17T15:10:46Z</time></trkpt><trkpt lat="45.799891396080426" lon="9.800349997377928"><ele>886.0</ele><time>2026-04-17T15:10:47Z</time></trkpt><trkpt lat="45.79992130506894" lon="9.800474877225783"><ele>883.1666666666666</ele><time>2026-04-17T15:10:48Z</time></trkpt><trkpt lat="45.79990627477542" lon="9.800591118667638"><ele>880.3333333333333</ele><time>2026-04-17T15:10:50Z</time></trkpt><trkpt lat="45.79983733198686" lon="9.800580887075542"><ele>877.5</ele><time>2026-04-17T15:10:51Z</time></trkpt><trkpt lat="45.79976828896081" lon="9.800523672887476"><ele>874.6666666666667</ele><time>2026-04-17T15:10:52Z</time></trkpt><trkpt lat="45.79972578249567" lon="9.800419148152185"><ele>871.8333333333334</ele><time>2026-04-17T15:10:53Z</time></trkpt><trkpt lat="45.7996940766032" lon="9.800317804879867"><ele>869.0</ele><time>2026-04-17T15:10:54Z</time></trkpt><trkpt lat="45.799665616357224" lon="9.800203786126911"><ele>871.8333333333334</ele><time>2026-04-17T15:10:55Z</time></trkpt><trkpt lat="45.799629569736595" lon="9.800095599390673"><ele>874.6666666666667</ele><time>2026-04-17T15:10:56Z</time></trkpt><trkpt lat="45.799577879886336" lon="9.799994451090694"><ele>877.5</ele><time>2026-04-17T15:10:57Z</time></trkpt><trkpt lat="45.79951935126033" lon="9.7999051045276"><ele>880.3333333333333</ele><time>2026-04-17T15:10:58Z</time></trkpt><trkpt lat="45.79945722718326" lon="9.799863009153942"><ele>883.1666666666666</ele><time>2026-04-17T15:10:59Z</time></trkpt><trkpt lat="45.79939544916062" lon="9.79988725463394"><ele>886.0</ele><time>2026-04-17T15:11:00Z</time></trkpt><trkpt lat="45.799357674313136" lon="9.799981950052711"><ele>886.0</ele><time>2026-04-17T15:11:01Z</time></trkpt><trkpt lat="45.79937362867816" lon="9.800115857224593"><ele>885.9999999999999</ele><time>2026-04-17T15:11:02Z</time></trkpt><trkpt lat="45.7994303814499" lon="9.80023198641535"><ele>885.9999999999999</ele><time>2026-04-17T15:11:03Z</time></trkpt><trkpt lat="45.79948764219825" lon="9.800359700831102"><ele>886.0</ele><time>2026-04-17T15:11:04Z</time></trkpt><trkpt lat="45.79953892915375" lon="9.800462166503799"><ele>886.0</ele><time>2026-04-17T15:11:05Z</time></trkpt><trkpt lat="45.799597087095115" lon="9.800586222006853"><ele>881.75</ele><time>2026-04-17T15:11:06Z</time></trkpt><trkpt lat="45.79966328784236" lon="9.800704584077543"><ele>877.5</ele><time>2026-04-17T15:11:07Z</time></trkpt><trkpt lat="45.79973264165276" lon="9.800832757618702"><ele>873.25</ele><time>2026-04-17T15:11:08Z</time></trkpt><trkpt lat="45.79979955290189" lon="9.800966961365962"><ele>869.0</ele><time>2026-04-17T15:11:09Z</time></trkpt><trkpt lat="45.799872015023965" lon="9.801112475277302"><ele>862.5</ele><time>2026-04-17T15:11:10Z</time></trkpt><trkpt lat="45.79994452760453" lon="9.801260212601406"><ele>856.0</ele><time>2026-04-17T15:11:11Z</time></trkpt><trkpt lat="45.8000207001211" lon="9.801411843050321"><ele>849.5</ele><time>2026-04-17T15:11:12Z</time></trkpt><trkpt lat="45.800101747406885" lon="9.801558219746806"><ele>843.0</ele><time>2026-04-17T15:11:13Z</time></trkpt><trkpt lat="45.80018719969923" lon="9.801696520126528"><ele>841.8333333333334</ele><time>2026-04-17T15:11:14Z</time></trkpt><trkpt lat="45.80026453277312" lon="9.801798798273316"><ele>840.6666666666667</ele><time>2026-04-17T15:11:15Z</time></trkpt><trkpt lat="45.80033634016389" lon="9.801885690091456"><ele>839.5</ele><time>2026-04-17T15:11:16Z</time></trkpt><trkpt lat="45.8004078473459" lon="9.801945944426054"><ele>838.3333333333334</ele><time>2026-04-17T15:11:17Z</time></trkpt><trkpt lat="45.80048017035348" lon="9.801968028409147"><ele>837.1666666666667</ele><time>2026-04-17T15:11:18Z</time></trkpt><trkpt lat="45.80055326878455" lon="9.801958304619196"><ele>836.0</ele><time>2026-04-17T15:11:19Z</time></trkpt><trkpt lat="45.80062747920573" lon="9.80188917718932"><ele>836.0</ele><time>2026-04-17T15:11:20Z</time></trkpt><trkpt lat="45.80068229832009" lon="9.8017676138408"><ele>836.0</ele><time>2026-04-17T15:11:21Z</time></trkpt><trkpt lat="45.80071900922009" lon="9.801625191332302"><ele>836.0</ele><time>2026-04-17T15:11:22Z</time></trkpt><trkpt lat="45.80075834624835" lon="9.801475929081665"><ele>836.0</ele><time>2026-04-17T15:11:23Z</time></trkpt><trkpt lat="45.800810422389326" lon="9.801331147406284"><ele>836.0</ele><time>2026-04-17T15:11:24Z</time></trkpt><trkpt lat="45.8008507272783" lon="9.801179711093848"><ele>836.0</ele><time>2026-04-17T15:11:25Z</time></trkpt><trkpt lat="45.80090311574751" lon="9.801024270909927"><ele>836.0</ele><time>2026-04-17T15:11:26Z</time></trkpt><trkpt lat="45.800951316483" lon="9.800858815022078"><ele>836.0</ele><time>2026-04-17T15:11:27Z</time></trkpt><trkpt lat="45.80098681608603" lon="9.800682359063707"><ele>836.0</ele><time>2026-04-17T15:11:28Z</time></trkpt><trkpt lat="45.80102498652819" lon="9.800500939299502"><ele>832.25</ele><time>2026-04-17T15:11:29Z</time></trkpt><trkpt lat="45.80106749454395" lon="9.800323289803162"><ele>828.5</ele><time>2026-04-17T15:11:30Z</time></trkpt><trkpt lat="45.80112099384851" lon="9.80014467595559"><ele>824.75</ele><time>2026-04-17T15:11:31Z</time></trkpt><trkpt lat="45.801180074994356" lon="9.799968254217664"><ele>821.0</ele><time>2026-04-17T15:11:32Z</time></trkpt><trkpt lat="45.8012452868584" lon="9.799800056645775"><ele>821.0</ele><time>2026-04-17T15:11:33Z</time></trkpt><trkpt lat="45.801309084161446" lon="9.799627136957671"><ele>821.0</ele><time>2026-04-17T15:11:34Z</time></trkpt><trkpt lat="45.801373040524425" lon="9.799454675547032"><ele>821.0</ele><time>2026-04-17T15:11:35Z</time></trkpt><trkpt lat="45.80143517811647" lon="9.79928749493585"><ele>821.0</ele><time>2026-04-17T15:11:36Z</time></trkpt><trkpt lat="45.80147952547557" lon="9.799135041810398"><ele>824.6666666666667</ele><time>2026-04-17T15:11:37Z</time></trkpt><trkpt lat="45.801519064210616" lon="9.799002348042622"><ele>828.3333333333334</ele><time>2026-04-17T15:11:38Z</time></trkpt><trkpt lat="45.80154235163475" lon="9.798889667036676"><ele>832.0</ele><time>2026-04-17T15:11:39Z</time></trkpt><trkpt lat="45.801589453589564" lon="9.798818697131168"><ele>835.6666666666667</ele><time>2026-04-17T15:11:40Z</time></trkpt><trkpt lat="45.8016606565409" lon="9.798800232884895"><ele>839.3333333333334</ele><time>2026-04-17T15:11:41Z</time></trkpt><trkpt lat="45.80172199288627" lon="9.79887347058968"><ele>843.0</ele><time>2026-04-17T15:11:42Z</time></trkpt><trkpt lat="45.80174168223505" lon="9.79899056189945"><ele>843.0</ele><time>2026-04-17T15:11:43Z</time></trkpt><trkpt lat="45.801750178136295" lon="9.799102772607696"><ele>843.0</ele><time>2026-04-17T15:11:44Z</time></trkpt><trkpt lat="45.801767208823556" lon="9.799221935330904"><ele>843.0</ele><time>2026-04-17T15:11:45Z</time></trkpt><trkpt lat="45.80179005516045" lon="9.799340148130861"><ele>843.0</ele><time>2026-04-17T15:11:46Z</time></trkpt><trkpt lat="45.801816229893966" lon="9.799467702642549"><ele>843.0</ele><time>2026-04-17T15:11:47Z</time></trkpt><trkpt lat="45.80185803685568" lon="9.799579659017247"><ele>843.0</ele><time>2026-04-17T15:11:48Z</time></trkpt><trkpt lat="45.80190405242743" lon="9.79969190138109"><ele>841.8</ele><time>2026-04-17T15:11:49Z</time></trkpt><trkpt lat="45.801964235064986" lon="9.799798706709067"><ele>840.5999999999999</ele><time>2026-04-17T15:11:50Z</time></trkpt><trkpt lat="45.802042326344775" lon="9.799885458725267"><ele>839.4000000000001</ele><time>2026-04-17T15:11:51Z</time></trkpt><trkpt lat="45.8021249749678" lon="9.799961321795275"><ele>838.2</ele><time>2026-04-17T15:11:52Z</time></trkpt><trkpt lat="45.802206499397315" lon="9.800043513594778"><ele>837.0</ele><time>2026-04-17T15:11:53Z</time></trkpt><trkpt lat="45.80228528734559" lon="9.800146733386779"><ele>830.4000000000001</ele><time>2026-04-17T15:11:54Z</time></trkpt><trkpt lat="45.80235620504433" lon="9.800243388140881"><ele>823.8000000000001</ele><time>2026-04-17T15:11:55Z</time></trkpt><trkpt lat="45.802426911816994" lon="9.800359058881725"><ele>817.2</ele><time>2026-04-17T15:11:56Z</time></trkpt><trkpt lat="45.80250562797952" lon="9.800466228420968"><ele>810.6</ele><time>2026-04-17T15:11:57Z</time></trkpt><trkpt lat="45.80258542730469" lon="9.800575349561786"><ele>804.0</ele><time>2026-04-17T15:11:58Z</time></trkpt><trkpt lat="45.80265587701399" lon="9.800721306213225"><ele>807.0</ele><time>2026-04-17T15:11:59Z</time></trkpt><trkpt lat="45.802717798973745" lon="9.800861741548498"><ele>810.0</ele><time>2026-04-17T15:12:00Z</time></trkpt><trkpt lat="45.80277696318334" lon="9.801002652374502"><ele>813.0</ele><time>2026-04-17T15:12:01Z</time></trkpt><trkpt lat="45.80283839353392" lon="9.801146690379342"><ele>816.0</ele><time>2026-04-17T15:12:02Z</time></trkpt><trkpt lat="45.80289792543194" lon="9.801293114668143"><ele>816.0</ele><time>2026-04-17T15:12:03Z</time></trkpt><trkpt lat="45.802952261458714" lon="9.801442477932381"><ele>816.0</ele><time>2026-04-17T15:12:04Z</time></trkpt><trkpt lat="45.80301066346408" lon="9.801589140737482"><ele>816.0</ele><time>2026-04-17T15:12:05Z</time></trkpt><trkpt lat="45.80306959559061" lon="9.801732269293582"><ele>816.0</ele><time>2026-04-17T15:12:06Z</time></trkpt><trkpt lat="45.80312452383506" lon="9.801877251016153"><ele>811.75</ele><time>2026-04-17T15:12:07Z</time></trkpt><trkpt lat="45.80318526848544" lon="9.802021943751216"><ele>807.5</ele><time>2026-04-17T15:12:08Z</time></trkpt><trkpt lat="45.80324564217082" lon="9.80216583299347"><ele>803.25</ele><time>2026-04-17T15:12:09Z</time></trkpt><trkpt lat="45.80330998165206" lon="9.802313754304958"><ele>799.0</ele><time>2026-04-17T15:12:10Z</time></trkpt><trkpt lat="45.80337098048487" lon="9.802465723248734"><ele>799.0</ele><time>2026-04-17T15:12:11Z</time></trkpt><trkpt lat="45.803431029047026" lon="9.802614045722985"><ele>799.0</ele><time>2026-04-17T15:12:12Z</time></trkpt><trkpt lat="45.8034951113732" lon="9.802766233905215"><ele>799.0</ele><time>2026-04-17T15:12:13Z</time></trkpt><trkpt lat="45.80355035382754" lon="9.8029009114307"><ele>799.0</ele><time>2026-04-17T15:12:14Z</time></trkpt><trkpt lat="45.803605505886836" lon="9.803028272184777"><ele>799.4000000000001</ele><time>2026-04-17T15:12:15Z</time></trkpt><trkpt lat="45.80367319994768" lon="9.80315527066474"><ele>799.8</ele><time>2026-04-17T15:12:16Z</time></trkpt><trkpt lat="45.80375700604934" lon="9.803260915760271"><ele>800.2</ele><time>2026-04-17T15:12:17Z</time></trkpt><trkpt lat="45.80384662657532" lon="9.803363730984286"><ele>800.5999999999999</ele><time>2026-04-17T15:12:18Z</time></trkpt><trkpt lat="45.803924366471556" lon="9.80347450157091"><ele>801.0</ele><time>2026-04-17T15:12:19Z</time></trkpt><trkpt lat="45.80398745447162" lon="9.80358067651128"><ele>797.8333333333334</ele><time>2026-04-17T15:12:20Z</time></trkpt><trkpt lat="45.804043034184325" lon="9.803654104172242"><ele>794.6666666666667</ele><time>2026-04-17T15:12:21Z</time></trkpt><trkpt lat="45.80411896874991" lon="9.80368895205291"><ele>791.5</ele><time>2026-04-17T15:12:22Z</time></trkpt><trkpt lat="45.80420346537111" lon="9.80366513349769"><ele>788.3333333333334</ele><time>2026-04-17T15:12:23Z</time></trkpt><trkpt lat="45.80428380179018" lon="9.803622888338815"><ele>785.1666666666667</ele><time>2026-04-17T15:12:24Z</time></trkpt><trkpt lat="45.80436480500091" lon="9.803581367817626"><ele>782.0</ele><time>2026-04-17T15:12:25Z</time></trkpt><trkpt lat="45.804447577618625" lon="9.80353445327465"><ele>785.8</ele><time>2026-04-17T15:12:26Z</time></trkpt><trkpt lat="45.80453611520221" lon="9.803481714853909"><ele>789.6</ele><time>2026-04-17T15:12:27Z</time></trkpt><trkpt lat="45.80462845297152" lon="9.803421894724265"><ele>793.4</ele><time>2026-04-17T15:12:28Z</time></trkpt><trkpt lat="45.80471541681994" lon="9.803340946357105"><ele>797.1999999999999</ele><time>2026-04-17T15:12:29Z</time></trkpt><trkpt lat="45.80478647804755" lon="9.803236664854335"><ele>801.0</ele><time>2026-04-17T15:12:30Z</time></trkpt><trkpt lat="45.80483914954834" lon="9.80313823633138"><ele>801.0</ele><time>2026-04-17T15:12:31Z</time></trkpt><trkpt lat="45.80493795880994" lon="9.803090599063182"><ele>801.0</ele><time>2026-04-17T15:12:33Z</time></trkpt><trkpt lat="45.80499606365732" lon="9.803242715584028"><ele>801.0</ele><time>2026-04-17T15:12:35Z</time></trkpt><trkpt lat="45.80499754749595" lon="9.803349584548695"><ele>801.0</ele><time>2026-04-17T15:12:36Z</time></trkpt><trkpt lat="45.805013011643474" lon="9.803451556388897"><ele>801.0</ele><time>2026-04-17T15:12:37Z</time></trkpt><trkpt lat="45.805037154926254" lon="9.803556580938986"><ele>801.0</ele><time>2026-04-17T15:12:38Z</time></trkpt><trkpt lat="45.80506758045397" lon="9.803664182189893"><ele>797.1999999999999</ele><time>2026-04-17T15:12:39Z</time></trkpt><trkpt lat="45.805092043477394" lon="9.80378392432621"><ele>793.4</ele><time>2026-04-17T15:12:40Z</time></trkpt><trkpt lat="45.8051231105433" lon="9.803903013167647"><ele>789.6</ele><time>2026-04-17T15:12:41Z</time></trkpt><trkpt lat="45.80514887801748" lon="9.80403140696279"><ele>785.8</ele><time>2026-04-17T15:12:42Z</time></trkpt><trkpt lat="45.805158126335435" lon="9.804166847065547"><ele>782.0</ele><time>2026-04-17T15:12:43Z</time></trkpt><trkpt lat="45.80515217124115" lon="9.804299276142833"><ele>779.8</ele><time>2026-04-17T15:12:44Z</time></trkpt><trkpt lat="45.80514119799537" lon="9.80443938585412"><ele>777.6</ele><time>2026-04-17T15:12:45Z</time></trkpt><trkpt lat="45.805135287064516" lon="9.80458681405727"><ele>775.4</ele><time>2026-04-17T15:12:46Z</time></trkpt><trkpt lat="45.80512333316821" lon="9.804725565322086"><ele>773.1999999999999</ele><time>2026-04-17T15:12:47Z</time></trkpt><trkpt lat="45.805124995841894" lon="9.804874938357404"><ele>771.0</ele><time>2026-04-17T15:12:48Z</time></trkpt><trkpt lat="45.80514641482862" lon="9.805016600881336"><ele>776.5</ele><time>2026-04-17T15:12:49Z</time></trkpt><trkpt lat="45.80518382319672" lon="9.805146272291788"><ele>782.0</ele><time>2026-04-17T15:12:50Z</time></trkpt><trkpt lat="45.805247067583686" lon="9.805249776428568"><ele>787.5</ele><time>2026-04-17T15:12:51Z</time></trkpt><trkpt lat="45.80532362670875" lon="9.805323094440183"><ele>793.0</ele><time>2026-04-17T15:12:52Z</time></trkpt><trkpt lat="45.80536892077223" lon="9.805394570027522"><ele>798.5</ele><time>2026-04-17T15:12:53Z</time></trkpt><trkpt lat="45.805378901113805" lon="9.805497986074945"><ele>804.0</ele><time>2026-04-17T15:12:54Z</time></trkpt><trkpt lat="45.8053425241087" lon="9.805602796382596"><ele>804.0</ele><time>2026-04-17T15:12:55Z</time></trkpt><trkpt lat="45.80530066446469" lon="9.805700362317104"><ele>804.0</ele><time>2026-04-17T15:12:56Z</time></trkpt><trkpt lat="45.80529170177689" lon="9.805817704593835"><ele>804.0</ele><time>2026-04-17T15:12:57Z</time></trkpt><trkpt lat="45.80531112455796" lon="9.805940219355723"><ele>804.0</ele><time>2026-04-17T15:12:58Z</time></trkpt><trkpt lat="45.80535369356065" lon="9.806054772158161"><ele>804.0</ele><time>2026-04-17T15:12:59Z</time></trkpt><trkpt lat="45.80537435667429" lon="9.80617655471489"><ele>804.0</ele><time>2026-04-17T15:13:00Z</time></trkpt><trkpt lat="45.80540483967013" lon="9.80630461369566"><ele>800.6</ele><time>2026-04-17T15:13:01Z</time></trkpt><trkpt lat="45.80544662123818" lon="9.806431329849426"><ele>797.2</ele><time>2026-04-17T15:13:02Z</time></trkpt><trkpt lat="45.805506110465785" lon="9.806552411507154"><ele>793.8000000000001</ele><time>2026-04-17T15:13:03Z</time></trkpt><trkpt lat="45.80555305050835" lon="9.80665749702079"><ele>790.4000000000001</ele><time>2026-04-17T15:13:04Z</time></trkpt><trkpt lat="45.80558868757084" lon="9.806788466044472"><ele>787.0</ele><time>2026-04-17T15:13:05Z</time></trkpt><trkpt lat="45.805576722553226" lon="9.806943223816264"><ele>784.4000000000001</ele><time>2026-04-17T15:13:06Z</time></trkpt><trkpt lat="45.80559410449686" lon="9.80707111292648"><ele>781.8000000000001</ele><time>2026-04-17T15:13:07Z</time></trkpt><trkpt lat="45.80563297486931" lon="9.807199769395206"><ele>779.2</ele><time>2026-04-17T15:13:08Z</time></trkpt><trkpt lat="45.80568434766151" lon="9.807315491161877"><ele>776.6</ele><time>2026-04-17T15:13:09Z</time></trkpt><trkpt lat="45.805711454251885" lon="9.807444493690758"><ele>774.0</ele><time>2026-04-17T15:13:10Z</time></trkpt><trkpt lat="45.80570082314773" lon="9.80758528833995"><ele>772.8000000000001</ele><time>2026-04-17T15:13:11Z</time></trkpt><trkpt lat="45.80567258193734" lon="9.807720007115654"><ele>771.6</ele><time>2026-04-17T15:13:12Z</time></trkpt><trkpt lat="45.8056603219516" lon="9.807862963575934"><ele>770.4</ele><time>2026-04-17T15:13:13Z</time></trkpt><trkpt lat="45.805666012530686" lon="9.808007431933563"><ele>769.2</ele><time>2026-04-17T15:13:14Z</time></trkpt><trkpt lat="45.80566304741153" lon="9.808156138139434"><ele>768.0</ele><time>2026-04-17T15:13:15Z</time></trkpt><trkpt lat="45.80565335024116" lon="9.808306421956116"><ele>768.0</ele><time>2026-04-17T15:13:16Z</time></trkpt><trkpt lat="45.805644661860576" lon="9.808458900005917"><ele>768.0</ele><time>2026-04-17T15:13:17Z</time></trkpt><trkpt lat="45.805649882694944" lon="9.808614119679268"><ele>768.0</ele><time>2026-04-17T15:13:18Z</time></trkpt><trkpt lat="45.80566243986927" lon="9.808773603135817"><ele>768.0</ele><time>2026-04-17T15:13:19Z</time></trkpt><trkpt lat="45.80568129626705" lon="9.808934424598922"><ele>768.0</ele><time>2026-04-17T15:13:20Z</time></trkpt><trkpt lat="45.805697062590006" lon="9.809090258242442"><ele>767.0</ele><time>2026-04-17T15:13:21Z</time></trkpt><trkpt lat="45.80569139902624" lon="9.809245705961091"><ele>766.0</ele><time>2026-04-17T15:13:22Z</time></trkpt><trkpt lat="45.80565457420154" lon="9.809400116063067"><ele>765.0</ele><time>2026-04-17T15:13:23Z</time></trkpt><trkpt lat="45.805621055044945" lon="9.809553105332366"><ele>764.0</ele><time>2026-04-17T15:13:24Z</time></trkpt><trkpt lat="45.80561302697625" lon="9.809728890622878"><ele>763.0</ele><time>2026-04-17T15:13:25Z</time></trkpt><trkpt lat="45.80561214216458" lon="9.809885120139926"><ele>762.0</ele><time>2026-04-17T15:13:26Z</time></trkpt><trkpt lat="45.80562239156037" lon="9.810056084468767"><ele>761.0</ele><time>2026-04-17T15:13:27Z</time></trkpt><trkpt lat="45.80563943233553" lon="9.810226904688896"><ele>760.0</ele><time>2026-04-17T15:13:28Z</time></trkpt><trkpt lat="45.80566455104561" lon="9.810402024147072"><ele>757.5</ele><time>2026-04-17T15:13:29Z</time></trkpt><trkpt lat="45.80569409288113" lon="9.810565981326858"><ele>755.0</ele><time>2026-04-17T15:13:30Z</time></trkpt><trkpt lat="45.80572721976067" lon="9.81073107883814"><ele>752.5</ele><time>2026-04-17T15:13:31Z</time></trkpt><trkpt lat="45.80576277287865" lon="9.810904119018566"><ele>750.0</ele><time>2026-04-17T15:13:32Z</time></trkpt><trkpt lat="45.80580313872799" lon="9.81107520020619"><ele>748.25</ele><time>2026-04-17T15:13:33Z</time></trkpt><trkpt lat="45.805843259569066" lon="9.811244806774983"><ele>746.5</ele><time>2026-04-17T15:13:34Z</time></trkpt><trkpt lat="45.80588376260637" lon="9.811413171429143"><ele>744.75</ele><time>2026-04-17T15:13:35Z</time></trkpt><trkpt lat="45.805902922787965" lon="9.811583185439263"><ele>743.0</ele><time>2026-04-17T15:13:36Z</time></trkpt><trkpt lat="45.80589470760629" lon="9.811754430952256"><ele>742.75</ele><time>2026-04-17T15:13:37Z</time></trkpt><trkpt lat="45.80587032708602" lon="9.811924594233995"><ele>742.5</ele><time>2026-04-17T15:13:38Z</time></trkpt><trkpt lat="45.8058245435258" lon="9.812084842093729"><ele>742.25</ele><time>2026-04-17T15:13:39Z</time></trkpt><trkpt lat="45.80574854671811" lon="9.812221127265097"><ele>742.0</ele><time>2026-04-17T15:13:40Z</time></trkpt><trkpt lat="45.805663646411965" lon="9.81234467011336"><ele>742.0</ele><time>2026-04-17T15:13:41Z</time></trkpt><trkpt lat="45.805582241112" lon="9.81247348901242"><ele>742.0</ele><time>2026-04-17T15:13:42Z</time></trkpt><trkpt lat="45.80550767823229" lon="9.812613280641264"><ele>742.0</ele><time>2026-04-17T15:13:43Z</time></trkpt><trkpt lat="45.80544916871456" lon="9.812764173078124"><ele>742.0</ele><time>2026-04-17T15:13:44Z</time></trkpt><trkpt lat="45.805408125733116" lon="9.812940110708237"><ele>742.25</ele><time>2026-04-17T15:13:45Z</time></trkpt><trkpt lat="45.805394183755666" lon="9.81312181274782"><ele>742.5</ele><time>2026-04-17T15:13:46Z</time></trkpt><trkpt lat="45.805381162456406" lon="9.813293190944576"><ele>742.75</ele><time>2026-04-17T15:13:47Z</time></trkpt><trkpt lat="45.80537631725755" lon="9.813462524045931"><ele>743.0</ele><time>2026-04-17T15:13:48Z</time></trkpt><trkpt lat="45.80538630266558" lon="9.813611177350749"><ele>741.2</ele><time>2026-04-17T15:13:49Z</time></trkpt><trkpt lat="45.805416204333795" lon="9.813747592101842"><ele>739.4</ele><time>2026-04-17T15:13:50Z</time></trkpt><trkpt lat="45.80547392310411" lon="9.813865587036725"><ele>737.6</ele><time>2026-04-17T15:13:51Z</time></trkpt><trkpt lat="45.80555358077473" lon="9.813966197600003"><ele>735.8000000000001</ele><time>2026-04-17T15:13:52Z</time></trkpt><trkpt lat="45.805632458065915" lon="9.814063458044279"><ele>734.0</ele><time>2026-04-17T15:13:53Z</time></trkpt><trkpt lat="45.80569560850315" lon="9.8141783828079"><ele>734.0</ele><time>2026-04-17T15:13:54Z</time></trkpt><trkpt lat="45.805730856981775" lon="9.814318941309184"><ele>734.0</ele><time>2026-04-17T15:13:55Z</time></trkpt><trkpt lat="45.805753372782355" lon="9.814465636647332"><ele>734.0</ele><time>2026-04-17T15:13:56Z</time></trkpt><trkpt lat="45.805778820719375" lon="9.814608526820132"><ele>734.0</ele><time>2026-04-17T15:13:57Z</time></trkpt><trkpt lat="45.80582854894729" lon="9.814724838949964"><ele>734.0</ele><time>2026-04-17T15:13:58Z</time></trkpt><trkpt lat="45.805894188502016" lon="9.81481344865677"><ele>734.4000000000001</ele><time>2026-04-17T15:13:59Z</time></trkpt><trkpt lat="45.805975770041414" lon="9.814882252407912"><ele>734.8</ele><time>2026-04-17T15:14:00Z</time></trkpt><trkpt lat="45.80605518665187" lon="9.814955603147673"><ele>735.2</ele><time>2026-04-17T15:14:01Z</time></trkpt><trkpt lat="45.806130105362385" lon="9.815044754697817"><ele>735.5999999999999</ele><time>2026-04-17T15:14:02Z</time></trkpt><trkpt lat="45.80620314576331" lon="9.815132792101869"><ele>736.0</ele><time>2026-04-17T15:14:03Z</time></trkpt><trkpt lat="45.806272242913955" lon="9.815227250574514"><ele>733.1999999999999</ele><time>2026-04-17T15:14:04Z</time></trkpt><trkpt lat="45.806341957571654" lon="9.81532567401352"><ele>730.4</ele><time>2026-04-17T15:14:05Z</time></trkpt><trkpt lat="45.80640269968406" lon="9.815417203930394"><ele>727.6</ele><time>2026-04-17T15:14:06Z</time></trkpt><trkpt lat="45.80647788336935" lon="9.815518502226183"><ele>724.8</ele><time>2026-04-17T15:14:07Z</time></trkpt><trkpt lat="45.80653951603209" lon="9.815623172855588"><ele>722.0</ele><time>2026-04-17T15:14:08Z</time></trkpt><trkpt lat="45.80657451534421" lon="9.81573289178272"><ele>722.0</ele><time>2026-04-17T15:14:09Z</time></trkpt><trkpt lat="45.806567138684514" lon="9.815852719892682"><ele>722.0</ele><time>2026-04-17T15:14:10Z</time></trkpt><trkpt lat="45.80653687680023" lon="9.815973749080477"><ele>722.0</ele><time>2026-04-17T15:14:11Z</time></trkpt><trkpt lat="45.80651967414481" lon="9.816083453218805"><ele>722.0</ele><time>2026-04-17T15:14:12Z</time></trkpt><trkpt lat="45.80652252201907" lon="9.816185295830618"><ele>722.0</ele><time>2026-04-17T15:14:13Z</time></trkpt><trkpt lat="45.806533717185346" lon="9.816296214424524"><ele>722.0</ele><time>2026-04-17T15:14:14Z</time></trkpt><trkpt lat="45.806551186482594" lon="9.81640693225857"><ele>721.1666666666666</ele><time>2026-04-17T15:14:15Z</time></trkpt><trkpt lat="45.80657075346553" lon="9.816522443015268"><ele>720.3333333333333</ele><time>2026-04-17T15:14:16Z</time></trkpt><trkpt lat="45.80659219402336" lon="9.816643505833772"><ele>719.5</ele><time>2026-04-17T15:14:17Z</time></trkpt><trkpt lat="45.80661196991429" lon="9.816765969592025"><ele>718.6666666666666</ele><time>2026-04-17T15:14:18Z</time></trkpt><trkpt lat="45.80661993692469" lon="9.816891298718813"><ele>717.8333333333334</ele><time>2026-04-17T15:14:19Z</time></trkpt><trkpt lat="45.806620306808604" lon="9.81701940631322"><ele>717.0</ele><time>2026-04-17T15:14:20Z</time></trkpt><trkpt lat="45.80661366106437" lon="9.817144834938352"><ele>717.4000000000001</ele><time>2026-04-17T15:14:21Z</time></trkpt><trkpt lat="45.80659680623842" lon="9.817268826798934"><ele>717.8000000000001</ele><time>2026-04-17T15:14:22Z</time></trkpt><trkpt lat="45.806584009975" lon="9.817407314056085"><ele>718.2</ele><time>2026-04-17T15:14:23Z</time></trkpt><trkpt lat="45.80656557967482" lon="9.817541315811456"><ele>718.6</ele><time>2026-04-17T15:14:24Z</time></trkpt><trkpt lat="45.80653123868547" lon="9.817670694201338"><ele>719.0</ele><time>2026-04-17T15:14:25Z</time></trkpt><trkpt lat="45.80648914864787" lon="9.817800049988453"><ele>719.0</ele><time>2026-04-17T15:14:26Z</time></trkpt><trkpt lat="45.80643639021085" lon="9.817920785339313"><ele>719.0</ele><time>2026-04-17T15:14:27Z</time></trkpt><trkpt lat="45.80638526232052" lon="9.818039201247696"><ele>719.0</ele><time>2026-04-17T15:14:28Z</time></trkpt><trkpt lat="45.806334368687054" lon="9.818159870425113"><ele>719.0</ele><time>2026-04-17T15:14:29Z</time></trkpt><trkpt lat="45.80628674001763" lon="9.81827836849762"><ele>719.0</ele><time>2026-04-17T15:14:30Z</time></trkpt><trkpt lat="45.8062351100721" lon="9.81839986877018"><ele>720.6</ele><time>2026-04-17T15:14:31Z</time></trkpt><trkpt lat="45.80618423151688" lon="9.818522543243596"><ele>722.2</ele><time>2026-04-17T15:14:32Z</time></trkpt><trkpt lat="45.806132737896554" lon="9.818645483216242"><ele>723.8000000000001</ele><time>2026-04-17T15:14:33Z</time></trkpt><trkpt lat="45.80607840126321" lon="9.81876286413375"><ele>725.4000000000001</ele><time>2026-04-17T15:14:34Z</time></trkpt><trkpt lat="45.8060259170137" lon="9.81888151427598"><ele>727.0</ele><time>2026-04-17T15:14:35Z</time></trkpt><trkpt lat="45.805974646658775" lon="9.818992287656526"><ele>724.4000000000001</ele><time>2026-04-17T15:14:36Z</time></trkpt><trkpt lat="45.80591178218529" lon="9.819088108096594"><ele>721.8000000000001</ele><time>2026-04-17T15:14:37Z</time></trkpt><trkpt lat="45.805838731957266" lon="9.819165047169069"><ele>719.2</ele><time>2026-04-17T15:14:38Z</time></trkpt><trkpt lat="45.805763693666336" lon="9.81924937022407"><ele>716.6</ele><time>2026-04-17T15:14:39Z</time></trkpt><trkpt lat="45.805686599987695" lon="9.819322859742286"><ele>714.0</ele><time>2026-04-17T15:14:40Z</time></trkpt><trkpt lat="45.80560120423035" lon="9.819383143856635"><ele>714.0</ele><time>2026-04-17T15:14:41Z</time></trkpt><trkpt lat="45.80551742142268" lon="9.819445805884394"><ele>714.0</ele><time>2026-04-17T15:14:42Z</time></trkpt><trkpt lat="45.80543704348335" lon="9.819513071747634"><ele>714.0</ele><time>2026-04-17T15:14:43Z</time></trkpt><trkpt lat="45.80535808522841" lon="9.8195775701883"><ele>714.0</ele><time>2026-04-17T15:14:44Z</time></trkpt><trkpt lat="45.80527925258983" lon="9.819635987882956"><ele>714.0</ele><time>2026-04-17T15:14:45Z</time></trkpt><trkpt lat="45.80520598480411" lon="9.819693879386973"><ele>710.6</ele><time>2026-04-17T15:14:46Z</time></trkpt><trkpt lat="45.805130612452" lon="9.819770769824776"><ele>707.2</ele><time>2026-04-17T15:14:47Z</time></trkpt><trkpt lat="45.80505483855156" lon="9.819845258675526"><ele>703.8000000000001</ele><time>2026-04-17T15:14:48Z</time></trkpt><trkpt lat="45.80499264726138" lon="9.819930079523036"><ele>700.4000000000001</ele><time>2026-04-17T15:14:49Z</time></trkpt><trkpt lat="45.804933699423856" lon="9.820032744512716"><ele>697.0</ele><time>2026-04-17T15:14:50Z</time></trkpt><trkpt lat="45.80488585956598" lon="9.820148654959011"><ele>697.4000000000001</ele><time>2026-04-17T15:14:51Z</time></trkpt><trkpt lat="45.80484877894706" lon="9.820274485281683"><ele>697.8000000000001</ele><time>2026-04-17T15:14:52Z</time></trkpt><trkpt lat="45.804824741184284" lon="9.820397839170026"><ele>698.2</ele><time>2026-04-17T15:14:53Z</time></trkpt><trkpt lat="45.804808961663596" lon="9.820528041591931"><ele>698.6</ele><time>2026-04-17T15:14:54Z</time></trkpt><trkpt lat="45.804808959762596" lon="9.820660707144313"><ele>699.0</ele><time>2026-04-17T15:14:55Z</time></trkpt><trkpt lat="45.80482149421052" lon="9.820790545084755"><ele>699.0</ele><time>2026-04-17T15:14:56Z</time></trkpt><trkpt lat="45.804829560030875" lon="9.820917823917442"><ele>699.0</ele><time>2026-04-17T15:14:57Z</time></trkpt><trkpt lat="45.804840799566016" lon="9.821052440995762"><ele>699.0</ele><time>2026-04-17T15:14:58Z</time></trkpt><trkpt lat="45.80485140510799" lon="9.82116826189303"><ele>699.0</ele><time>2026-04-17T15:14:59Z</time></trkpt><trkpt lat="45.80488586329175" lon="9.82128877701576"><ele>699.0</ele><time>2026-04-17T15:15:00Z</time></trkpt><trkpt lat="45.80494460364368" lon="9.821393656842579"><ele>698.2</ele><time>2026-04-17T15:15:01Z</time></trkpt><trkpt lat="45.80500077592347" lon="9.821506444791959"><ele>697.4000000000001</ele><time>2026-04-17T15:15:02Z</time></trkpt><trkpt lat="45.805055273576656" lon="9.821622159385253"><ele>696.6</ele><time>2026-04-17T15:15:03Z</time></trkpt><trkpt lat="45.805107559314145" lon="9.821749176346783"><ele>695.8</ele><time>2026-04-17T15:15:04Z</time></trkpt><trkpt lat="45.805163178310075" lon="9.821882780511896"><ele>695.0</ele><time>2026-04-17T15:15:05Z</time></trkpt><trkpt lat="45.805209276027604" lon="9.822029996243865"><ele>695.0</ele><time>2026-04-17T15:15:06Z</time></trkpt><trkpt lat="45.805257515695274" lon="9.822178274121226"><ele>695.0</ele><time>2026-04-17T15:15:07Z</time></trkpt><trkpt lat="45.8053195592407" lon="9.822317338755232"><ele>695.0</ele><time>2026-04-17T15:15:08Z</time></trkpt><trkpt lat="45.805390103917695" lon="9.82245308586102"><ele>695.0</ele><time>2026-04-17T15:15:09Z</time></trkpt><trkpt lat="45.805456219482934" lon="9.822583052841527"><ele>691.8333333333333</ele><time>2026-04-17T15:15:10Z</time></trkpt><trkpt lat="45.80551190017466" lon="9.82270056058297"><ele>688.6666666666666</ele><time>2026-04-17T15:15:11Z</time></trkpt><trkpt lat="45.80555310763073" lon="9.822801893704037"><ele>685.5</ele><time>2026-04-17T15:15:12Z</time></trkpt><trkpt lat="45.80559296519687" lon="9.822883925558084"><ele>682.3333333333334</ele><time>2026-04-17T15:15:13Z</time></trkpt><trkpt lat="45.80566641896837" lon="9.823003255139252"><ele>679.1666666666667</ele><time>2026-04-17T15:15:15Z</time></trkpt><trkpt lat="45.80563439647882" lon="9.823088805846153"><ele>676.0</ele><time>2026-04-17T15:15:18Z</time></trkpt><trkpt lat="45.80555772073346" lon="9.822931226114642"><ele>676.0</ele><time>2026-04-17T15:15:20Z</time></trkpt><trkpt lat="45.80545451415745" lon="9.822817021495975"><ele>676.0</ele><time>2026-04-17T15:15:22Z</time></trkpt><trkpt lat="45.80539417681201" lon="9.822761635956248"><ele>676.0</ele><time>2026-04-17T15:15:23Z</time></trkpt><trkpt lat="45.80533207546159" lon="9.822703100173735"><ele>676.0</ele><time>2026-04-17T15:15:24Z</time></trkpt><trkpt lat="45.805269017450016" lon="9.822636510436505"><ele>676.0</ele><time>2026-04-17T15:15:25Z</time></trkpt><trkpt lat="45.80520804181118" lon="9.822562996595945"><ele>676.0</ele><time>2026-04-17T15:15:26Z</time></trkpt><trkpt lat="45.80513884638647" lon="9.822491613312351"><ele>675.1666666666667</ele><time>2026-04-17T15:15:27Z</time></trkpt><trkpt lat="45.80506896978127" lon="9.82243153801152"><ele>674.3333333333334</ele><time>2026-04-17T15:15:28Z</time></trkpt><trkpt lat="45.805001439986334" lon="9.822368459742027"><ele>673.5</ele><time>2026-04-17T15:15:29Z</time></trkpt><trkpt lat="45.80493798502045" lon="9.822299659735693"><ele>672.6666666666666</ele><time>2026-04-17T15:15:30Z</time></trkpt><trkpt lat="45.804873430045525" lon="9.822230054340018"><ele>671.8333333333333</ele><time>2026-04-17T15:15:31Z</time></trkpt><trkpt lat="45.80480471276963" lon="9.822161457068098"><ele>671.0</ele><time>2026-04-17T15:15:32Z</time></trkpt><trkpt lat="45.80473315308961" lon="9.82208930442242"><ele>671.0</ele><time>2026-04-17T15:15:33Z</time></trkpt><trkpt lat="45.80466102893985" lon="9.822012404679242"><ele>671.0</ele><time>2026-04-17T15:15:34Z</time></trkpt><trkpt lat="45.80458422259553" lon="9.821934778058926"><ele>671.0</ele><time>2026-04-17T15:15:35Z</time></trkpt><trkpt lat="45.8045158548986" lon="9.821850721203122"><ele>671.0</ele><time>2026-04-17T15:15:36Z</time></trkpt><trkpt lat="45.804443684522376" lon="9.821757783649794"><ele>671.0</ele><time>2026-04-17T15:15:37Z</time></trkpt><trkpt lat="45.80437089951031" lon="9.821662470540195"><ele>668.4</ele><time>2026-04-17T15:15:38Z</time></trkpt><trkpt lat="45.804308501517575" lon="9.821550523253617"><ele>665.8</ele><time>2026-04-17T15:15:39Z</time></trkpt><trkpt lat="45.80425136599082" lon="9.821432164227488"><ele>663.1999999999999</ele><time>2026-04-17T15:15:40Z</time></trkpt><trkpt lat="45.8041948390572" lon="9.821308399705272"><ele>660.5999999999999</ele><time>2026-04-17T15:15:41Z</time></trkpt><trkpt lat="45.804142579831854" lon="9.821182015714728"><ele>658.0</ele><time>2026-04-17T15:15:42Z</time></trkpt><trkpt lat="45.8040920111447" lon="9.821061400216479"><ele>659.8333333333334</ele><time>2026-04-17T15:15:43Z</time></trkpt><trkpt lat="45.804045362000515" lon="9.820952462926492"><ele>661.6666666666667</ele><time>2026-04-17T15:15:44Z</time></trkpt><trkpt lat="45.804002325907966" lon="9.8208605580861"><ele>663.5</ele><time>2026-04-17T15:15:45Z</time></trkpt><trkpt lat="45.803970196548946" lon="9.820775617294736"><ele>665.3333333333334</ele><time>2026-04-17T15:15:46Z</time></trkpt><trkpt lat="45.80386941369817" lon="9.820706723050382"><ele>667.1666666666666</ele><time>2026-04-17T15:15:48Z</time></trkpt><trkpt lat="45.80381687390959" lon="9.820760520660588"><ele>669.0</ele><time>2026-04-17T15:15:49Z</time></trkpt><trkpt lat="45.803798375786705" lon="9.82085160781426"><ele>669.0</ele><time>2026-04-17T15:15:50Z</time></trkpt><trkpt lat="45.80382452967147" lon="9.820953287698492"><ele>669.0</ele><time>2026-04-17T15:15:51Z</time></trkpt><trkpt lat="45.803861630378435" lon="9.821042866939887"><ele>669.0</ele><time>2026-04-17T15:15:52Z</time></trkpt><trkpt lat="45.80389419845866" lon="9.821139249866365"><ele>669.0</ele><time>2026-04-17T15:15:53Z</time></trkpt><trkpt lat="45.80392878893163" lon="9.821245002821"><ele>669.0</ele><time>2026-04-17T15:15:54Z</time></trkpt><trkpt lat="45.80396499915759" lon="9.8213511355609"><ele>669.0</ele><time>2026-04-17T15:15:55Z</time></trkpt><trkpt lat="45.80400269217713" lon="9.82146166189882"><ele>666.8000000000001</ele><time>2026-04-17T15:15:56Z</time></trkpt><trkpt lat="45.80404078974333" lon="9.82157850322478"><ele>664.6</ele><time>2026-04-17T15:15:57Z</time></trkpt><trkpt lat="45.80408329367841" lon="9.821696961468865"><ele>662.4</ele><time>2026-04-17T15:15:58Z</time></trkpt><trkpt lat="45.8041338609466" lon="9.821814141583184"><ele>660.2</ele><time>2026-04-17T15:15:59Z</time></trkpt><trkpt lat="45.804189908861645" lon="9.82193251326437"><ele>658.0</ele><time>2026-04-17T15:16:00Z</time></trkpt><trkpt lat="45.804248944625314" lon="9.822049763888941"><ele>657.0</ele><time>2026-04-17T15:16:01Z</time></trkpt><trkpt lat="45.80430962622355" lon="9.822172918020044"><ele>656.0</ele><time>2026-04-17T15:16:02Z</time></trkpt><trkpt lat="45.80437495811037" lon="9.822295479834768"><ele>655.0</ele><time>2026-04-17T15:16:03Z</time></trkpt><trkpt lat="45.80444495950974" lon="9.822416177260362"><ele>654.0</ele><time>2026-04-17T15:16:04Z</time></trkpt><trkpt lat="45.80451619540071" lon="9.82253644310728"><ele>653.0</ele><time>2026-04-17T15:16:05Z</time></trkpt><trkpt lat="45.80458725795104" lon="9.822659988301114"><ele>653.0</ele><time>2026-04-17T15:16:06Z</time></trkpt><trkpt lat="45.8046599880571" lon="9.822782890315208"><ele>653.0</ele><time>2026-04-17T15:16:07Z</time></trkpt><trkpt lat="45.80473342031868" lon="9.822904422867518"><ele>653.0</ele><time>2026-04-17T15:16:08Z</time></trkpt><trkpt lat="45.804800439467954" lon="9.823014159503282"><ele>653.0</ele><time>2026-04-17T15:16:09Z</time></trkpt><trkpt lat="45.80486452847366" lon="9.823117322076921"><ele>653.0</ele><time>2026-04-17T15:16:10Z</time></trkpt><trkpt lat="45.80493619852346" lon="9.823216833481066"><ele>653.0</ele><time>2026-04-17T15:16:11Z</time></trkpt><trkpt lat="45.805014923367594" lon="9.82330888404965"><ele>653.0</ele><time>2026-04-17T15:16:12Z</time></trkpt><trkpt lat="45.80507476129684" lon="9.823397886430449"><ele>653.0</ele><time>2026-04-17T15:16:13Z</time></trkpt><trkpt lat="45.80510485668198" lon="9.823503893138579"><ele>653.0</ele><time>2026-04-17T15:16:14Z</time></trkpt><trkpt lat="45.805100560063856" lon="9.823620882065333"><ele>653.0</ele><time>2026-04-17T15:16:15Z</time></trkpt><trkpt lat="45.80505365017882" lon="9.823729484448151"><ele>653.0</ele><time>2026-04-17T15:16:16Z</time></trkpt><trkpt lat="45.80497408519138" lon="9.823788312368755"><ele>652.0</ele><time>2026-04-17T15:16:17Z</time></trkpt><trkpt lat="45.80488965204728" lon="9.823785474027913"><ele>651.0</ele><time>2026-04-17T15:16:18Z</time></trkpt><trkpt lat="45.80481509716296" lon="9.823789199665574"><ele>650.0</ele><time>2026-04-17T15:16:19Z</time></trkpt><trkpt lat="45.80472155841971" lon="9.823808775191146"><ele>649.0</ele><time>2026-04-17T15:16:20Z</time></trkpt><trkpt lat="45.80462734361756" lon="9.823825421834858"><ele>648.0</ele><time>2026-04-17T15:16:21Z</time></trkpt><trkpt lat="45.804525796837204" lon="9.823850018108768"><ele>648.0</ele><time>2026-04-17T15:16:22Z</time></trkpt><trkpt lat="45.80443294710518" lon="9.823877522490774"><ele>648.0</ele><time>2026-04-17T15:16:23Z</time></trkpt><trkpt lat="45.804338662658935" lon="9.82390391990899"><ele>648.0</ele><time>2026-04-17T15:16:24Z</time></trkpt><trkpt lat="45.804251409665554" lon="9.823930214899478"><ele>648.0</ele><time>2026-04-17T15:16:25Z</time></trkpt><trkpt lat="45.80417513060689" lon="9.82395790795907"><ele>648.0</ele><time>2026-04-17T15:16:26Z</time></trkpt><trkpt lat="45.80410954657368" lon="9.823986370862603"><ele>648.0</ele><time>2026-04-17T15:16:27Z</time></trkpt><trkpt lat="45.80405960585133" lon="9.824060202985955"><ele>643.4</ele><time>2026-04-17T15:16:28Z</time></trkpt><trkpt lat="45.804020593015" lon="9.824175847684462"><ele>638.8</ele><time>2026-04-17T15:16:29Z</time></trkpt><trkpt lat="45.80398188370453" lon="9.824294928998988"><ele>634.2</ele><time>2026-04-17T15:16:30Z</time></trkpt><trkpt lat="45.803956251167286" lon="9.824423501567747"><ele>629.6</ele><time>2026-04-17T15:16:31Z</time></trkpt><trkpt lat="45.803955358004" lon="9.824556396177442"><ele>625.0</ele><time>2026-04-17T15:16:32Z</time></trkpt><trkpt lat="45.8039891623445" lon="9.824679051581793"><ele>624.0</ele><time>2026-04-17T15:16:33Z</time></trkpt><trkpt lat="45.8040428069317" lon="9.824796133833479"><ele>623.0</ele><time>2026-04-17T15:16:34Z</time></trkpt><trkpt lat="45.804098743810414" lon="9.824907783090225"><ele>622.0</ele><time>2026-04-17T15:16:35Z</time></trkpt><trkpt lat="45.80414160346334" lon="9.825014313451168"><ele>621.0</ele><time>2026-04-17T15:16:36Z</time></trkpt><trkpt lat="45.804176306190506" lon="9.825099794283888"><ele>620.0</ele><time>2026-04-17T15:16:37Z</time></trkpt><trkpt lat="45.80420655103032" lon="9.825231430763312"><ele>619.0</ele><time>2026-04-17T15:16:39Z</time></trkpt><trkpt lat="45.80421574611732" lon="9.825329309890172"><ele>616.2</ele><time>2026-04-17T15:16:41Z</time></trkpt><trkpt lat="45.80415125710567" lon="9.825500892746515"><ele>613.4</ele><time>2026-04-17T15:16:43Z</time></trkpt><trkpt lat="45.804110474596335" lon="9.825609112068328"><ele>610.6</ele><time>2026-04-17T15:16:44Z</time></trkpt><trkpt lat="45.80408016247753" lon="9.825719903193527"><ele>607.8</ele><time>2026-04-17T15:16:45Z</time></trkpt><trkpt lat="45.80406731993277" lon="9.82581522828665"><ele>605.0</ele><time>2026-04-17T15:16:46Z</time></trkpt><trkpt lat="45.80406086725001" lon="9.825960801123136"><ele>601.8333333333333</ele><time>2026-04-17T15:16:48Z</time></trkpt><trkpt lat="45.80403097651127" lon="9.826082484237597"><ele>598.6666666666666</ele><time>2026-04-17T15:16:50Z</time></trkpt><trkpt lat="45.803932496746924" lon="9.826140376905087"><ele>595.5</ele><time>2026-04-17T15:16:52Z</time></trkpt><trkpt lat="45.80385987323243" lon="9.826126267650867"><ele>592.3333333333334</ele><time>2026-04-17T15:16:53Z</time></trkpt><trkpt lat="45.80378402584337" lon="9.826098946132435"><ele>589.1666666666667</ele><time>2026-04-17T15:16:54Z</time></trkpt><trkpt lat="45.80370585752536" lon="9.826059573951616"><ele>586.0</ele><time>2026-04-17T15:16:55Z</time></trkpt><trkpt lat="45.80363378505349" lon="9.826012642171385"><ele>586.6666666666667</ele><time>2026-04-17T15:16:56Z</time></trkpt><trkpt lat="45.80356358147826" lon="9.825963734827662"><ele>587.3333333333334</ele><time>2026-04-17T15:16:57Z</time></trkpt><trkpt lat="45.8034866750323" lon="9.825921600381832"><ele>588.0</ele><time>2026-04-17T15:16:58Z</time></trkpt><trkpt lat="45.80341411289245" lon="9.825887182574977"><ele>588.6666666666666</ele><time>2026-04-17T15:16:59Z</time></trkpt><trkpt lat="45.80334660603631" lon="9.825833682827547"><ele>589.3333333333333</ele><time>2026-04-17T15:17:00Z</time></trkpt><trkpt lat="45.803283404862526" lon="9.825775575238762"><ele>590.0</ele><time>2026-04-17T15:17:01Z</time></trkpt><trkpt lat="45.80323045740593" lon="9.825725892540937"><ele>590.0</ele><time>2026-04-17T15:17:02Z</time></trkpt><trkpt lat="45.80317977610206" lon="9.825668836421674"><ele>590.0</ele><time>2026-04-17T15:17:03Z</time></trkpt><trkpt lat="45.80311140335656" lon="9.825618351120415"><ele>590.0</ele><time>2026-04-17T15:17:04Z</time></trkpt><trkpt lat="45.80305034216689" lon="9.825561855774229"><ele>590.0</ele><time>2026-04-17T15:17:05Z</time></trkpt><trkpt lat="45.802986719485546" lon="9.825494454299038"><ele>590.0</ele><time>2026-04-17T15:17:06Z</time></trkpt><trkpt lat="45.802920763666314" lon="9.82542301534179"><ele>590.0</ele><time>2026-04-17T15:17:07Z</time></trkpt><trkpt lat="45.80285362572239" lon="9.825361837726792"><ele>590.0000000000001</ele><time>2026-04-17T15:17:08Z</time></trkpt><trkpt lat="45.80279372005989" lon="9.82530727502753"><ele>590.0</ele><time>2026-04-17T15:17:09Z</time></trkpt><trkpt lat="45.80273868838747" lon="9.825259765723274"><ele>590.0</ele><time>2026-04-17T15:17:10Z</time></trkpt><trkpt lat="45.80268035791673" lon="9.825211043431093"><ele>590.0</ele><time>2026-04-17T15:17:11Z</time></trkpt><trkpt lat="45.80261840778401" lon="9.825162447485003"><ele>590.0</ele><time>2026-04-17T15:17:12Z</time></trkpt><trkpt lat="45.80254909468401" lon="9.825100118921355"><ele>590.0000000000001</ele><time>2026-04-17T15:17:13Z</time></trkpt><trkpt lat="45.802473833172414" lon="9.825028673857242"><ele>590.0</ele><time>2026-04-17T15:17:14Z</time></trkpt><trkpt lat="45.80240576230496" lon="9.824954195020387"><ele>587.1666666666666</ele><time>2026-04-17T15:17:15Z</time></trkpt><trkpt lat="45.802335369791884" lon="9.824855451644982"><ele>584.3333333333333</ele><time>2026-04-17T15:17:16Z</time></trkpt><trkpt lat="45.802267028069316" lon="9.824763886252272"><ele>581.5</ele><time>2026-04-17T15:17:17Z</time></trkpt><trkpt lat="45.80220440982597" lon="9.82469061937871"><ele>578.6666666666666</ele><time>2026-04-17T15:17:18Z</time></trkpt><trkpt lat="45.80216070869373" lon="9.824624362159478"><ele>575.8333333333334</ele><time>2026-04-17T15:17:19Z</time></trkpt><trkpt lat="45.80207970493155" lon="9.82452128354612"><ele>573.0</ele><time>2026-04-17T15:17:21Z</time></trkpt><trkpt lat="45.802016933436306" lon="9.824504342279816"><ele>573.0</ele><time>2026-04-17T15:17:23Z</time></trkpt><trkpt lat="45.80201044497434" lon="9.824664736759427"><ele>573.0</ele><time>2026-04-17T15:17:25Z</time></trkpt><trkpt lat="45.80202124819946" lon="9.824764435024548"><ele>573.0</ele><time>2026-04-17T15:17:26Z</time></trkpt><trkpt lat="45.80202474401528" lon="9.82486768361948"><ele>573.0</ele><time>2026-04-17T15:17:27Z</time></trkpt><trkpt lat="45.80204141287172" lon="9.824996769403764"><ele>573.0</ele><time>2026-04-17T15:17:28Z</time></trkpt><trkpt lat="45.80207317544414" lon="9.82513221695289"><ele>573.0</ele><time>2026-04-17T15:17:29Z</time></trkpt><trkpt lat="45.80210313603936" lon="9.825269107181862"><ele>570.5</ele><time>2026-04-17T15:17:30Z</time></trkpt><trkpt lat="45.80213630148452" lon="9.825392598695425"><ele>568.0</ele><time>2026-04-17T15:17:31Z</time></trkpt><trkpt lat="45.80214538165029" lon="9.825503057528785"><ele>565.5</ele><time>2026-04-17T15:17:32Z</time></trkpt><trkpt lat="45.80220516334629" lon="9.82557810729629"><ele>563.0</ele><time>2026-04-17T15:17:34Z</time></trkpt><trkpt lat="45.80209334546021" lon="9.825562734011559"><ele>560.5</ele><time>2026-04-17T15:17:37Z</time></trkpt><trkpt lat="45.802060318343536" lon="9.825456133850851"><ele>558.0</ele><time>2026-04-17T15:17:38Z</time></trkpt><trkpt lat="45.80198697038347" lon="9.825345322185425"><ele>557.9999999999999</ele><time>2026-04-17T15:17:40Z</time></trkpt><trkpt lat="45.801949949462724" lon="9.825271286351509"><ele>558.0</ele><time>2026-04-17T15:17:41Z</time></trkpt><trkpt lat="45.80191160349574" lon="9.825187321676035"><ele>558.0</ele><time>2026-04-17T15:17:42Z</time></trkpt><trkpt lat="45.80187182604306" lon="9.825102460478126"><ele>558.0</ele><time>2026-04-17T15:17:43Z</time></trkpt><trkpt lat="45.80184460524586" lon="9.825003198393402"><ele>558.0</ele><time>2026-04-17T15:17:44Z</time></trkpt><trkpt lat="45.80183175406669" lon="9.824898242501195"><ele>557.9999999999999</ele><time>2026-04-17T15:17:45Z</time></trkpt><trkpt lat="45.801818310116616" lon="9.824798104882536"><ele>558.0</ele><time>2026-04-17T15:17:46Z</time></trkpt><trkpt lat="45.80173347868868" lon="9.824697324527543"><ele>554.5</ele><time>2026-04-17T15:17:48Z</time></trkpt><trkpt lat="45.801664868708606" lon="9.824701923942856"><ele>551.0</ele><time>2026-04-17T15:17:49Z</time></trkpt><trkpt lat="45.80159192266814" lon="9.82467792830332"><ele>547.5</ele><time>2026-04-17T15:17:50Z</time></trkpt><trkpt lat="45.80152218643591" lon="9.824637324162426"><ele>544.0</ele><time>2026-04-17T15:17:51Z</time></trkpt><trkpt lat="45.80144122400393" lon="9.824585262295102"><ele>540.5</ele><time>2026-04-17T15:17:52Z</time></trkpt><trkpt lat="45.80135756971173" lon="9.824522950225992"><ele>537.0</ele><time>2026-04-17T15:17:53Z</time></trkpt><trkpt lat="45.80126708980131" lon="9.824446583985598"><ele>537.0</ele><time>2026-04-17T15:17:54Z</time></trkpt><trkpt lat="45.801184141543516" lon="9.824358520412492"><ele>537.0</ele><time>2026-04-17T15:17:55Z</time></trkpt><trkpt lat="45.8011108756703" lon="9.824275413768966"><ele>537.0</ele><time>2026-04-17T15:17:56Z</time></trkpt><trkpt lat="45.801059701047514" lon="9.824197299617872"><ele>537.0</ele><time>2026-04-17T15:17:57Z</time></trkpt><trkpt lat="45.80102041997551" lon="9.82411157603598"><ele>537.0</ele><time>2026-04-17T15:17:58Z</time></trkpt><trkpt lat="45.80099098091298" lon="9.824014701541898"><ele>537.0</ele><time>2026-04-17T15:17:59Z</time></trkpt><trkpt lat="45.80098065615253" lon="9.823891904944652"><ele>531.0</ele><time>2026-04-17T15:18:00Z</time></trkpt><trkpt lat="45.80097421726975" lon="9.823757153150963"><ele>525.0</ele><time>2026-04-17T15:18:01Z</time></trkpt><trkpt lat="45.8009573120935" lon="9.823607637295044"><ele>519.0</ele><time>2026-04-17T15:18:02Z</time></trkpt><trkpt lat="45.8009429323952" lon="9.82347641435961"><ele>513.0</ele><time>2026-04-17T15:18:03Z</time></trkpt><trkpt lat="45.80093657453402" lon="9.82335311460281"><ele>507.0</ele><time>2026-04-17T15:18:04Z</time></trkpt><trkpt lat="45.80093021253274" lon="9.823249381626962"><ele>507.0</ele><time>2026-04-17T15:18:05Z</time></trkpt><trkpt lat="45.80091612064905" lon="9.823106354014246"><ele>507.0</ele><time>2026-04-17T15:18:07Z</time></trkpt><trkpt lat="45.80083881663751" lon="9.82308223814684"><ele>507.0</ele><time>2026-04-17T15:18:09Z</time></trkpt><trkpt lat="45.80078625247631" lon="9.823163127517061"><ele>507.0</ele><time>2026-04-17T15:18:10Z</time></trkpt><trkpt lat="45.80076582588693" lon="9.823266686243173"><ele>507.0</ele><time>2026-04-17T15:18:11Z</time></trkpt><trkpt lat="45.800743920108054" lon="9.823369123363346"><ele>507.0</ele><time>2026-04-17T15:18:12Z</time></trkpt><trkpt lat="45.80072695863075" lon="9.823483013493423"><ele>507.0</ele><time>2026-04-17T15:18:13Z</time></trkpt><trkpt lat="45.80069684169916" lon="9.823610184236252"><ele>507.0</ele><time>2026-04-17T15:18:14Z</time></trkpt><trkpt lat="45.80066381886998" lon="9.82373216824232"><ele>507.0</ele><time>2026-04-17T15:18:15Z</time></trkpt><trkpt lat="45.80062468082807" lon="9.823834677552005"><ele>507.0</ele><time>2026-04-17T15:18:16Z</time></trkpt><trkpt lat="45.80056680328897" lon="9.823929187796573"><ele>507.0</ele><time>2026-04-17T15:18:17Z</time></trkpt><trkpt lat="45.800490059241675" lon="9.824006154669009"><ele>507.0</ele><time>2026-04-17T15:18:18Z</time></trkpt><trkpt lat="45.80042247343338" lon="9.824079450694938"><ele>507.0</ele><time>2026-04-17T15:18:19Z</time></trkpt><trkpt lat="45.800355257580385" lon="9.824192507328709"><ele>507.0</ele><time>2026-04-17T15:18:20Z</time></trkpt><trkpt lat="45.800291469642104" lon="9.82433152608579"><ele>507.0</ele><time>2026-04-17T15:18:21Z</time></trkpt><trkpt lat="45.8002279554752" lon="9.82447740538211"><ele>507.0</ele><time>2026-04-17T15:18:22Z</time></trkpt><trkpt lat="45.80015661187385" lon="9.82461983551524"><ele>501.6</ele><time>2026-04-17T15:18:23Z</time></trkpt><trkpt lat="45.80008764428109" lon="9.824769270907257"><ele>496.20000000000005</ele><time>2026-04-17T15:18:24Z</time></trkpt><trkpt lat="45.80002862939565" lon="9.8249142497016"><ele>490.8</ele><time>2026-04-17T15:18:25Z</time></trkpt><trkpt lat="45.799978159933154" lon="9.825044397859642"><ele>485.4</ele><time>2026-04-17T15:18:26Z</time></trkpt><trkpt lat="45.79995008014331" lon="9.825177665813445"><ele>480.0</ele><time>2026-04-17T15:18:27Z</time></trkpt><trkpt lat="45.799924274098785" lon="9.825333117359504"><ele>480.0</ele><time>2026-04-17T15:18:28Z</time></trkpt><trkpt lat="45.79989312695621" lon="9.825466069143008"><ele>480.0</ele><time>2026-04-17T15:18:29Z</time></trkpt><trkpt lat="45.799845183452604" lon="9.825591328594887"><ele>480.0</ele><time>2026-04-17T15:18:30Z</time></trkpt><trkpt lat="45.799796738163955" lon="9.825710848790086"><ele>480.0</ele><time>2026-04-17T15:18:31Z</time></trkpt><trkpt lat="45.799759601188114" lon="9.825835455103746"><ele>480.0</ele><time>2026-04-17T15:18:32Z</time></trkpt><trkpt lat="45.79974179629433" lon="9.825959538982575"><ele>480.2</ele><time>2026-04-17T15:18:33Z</time></trkpt><trkpt lat="45.79974172754455" lon="9.826086372401042"><ele>480.4</ele><time>2026-04-17T15:18:34Z</time></trkpt><trkpt lat="45.79976031694644" lon="9.826216215014892"><ele>480.6</ele><time>2026-04-17T15:18:35Z</time></trkpt><trkpt lat="45.799784975306856" lon="9.826338052231439"><ele>480.8</ele><time>2026-04-17T15:18:36Z</time></trkpt><trkpt lat="45.799804449676884" lon="9.826468553289354"><ele>481.0</ele><time>2026-04-17T15:18:37Z</time></trkpt><trkpt lat="45.79981855805101" lon="9.826594443924437"><ele>481.0</ele><time>2026-04-17T15:18:38Z</time></trkpt><trkpt lat="45.7998296710267" lon="9.826721846710283"><ele>481.0</ele><time>2026-04-17T15:18:39Z</time></trkpt><trkpt lat="45.79984002314799" lon="9.82684830776218"><ele>481.0</ele><time>2026-04-17T15:18:40Z</time></trkpt><trkpt lat="45.79985308312579" lon="9.826983194284288"><ele>481.0</ele><time>2026-04-17T15:18:41Z</time></trkpt><trkpt lat="45.79986269412748" lon="9.827118011260083"><ele>481.0</ele><time>2026-04-17T15:18:42Z</time></trkpt><trkpt lat="45.7998606209525" lon="9.82725873348623"><ele>480.6</ele><time>2026-04-17T15:18:43Z</time></trkpt><trkpt lat="45.79984856356492" lon="9.827400572023397"><ele>480.20000000000005</ele><time>2026-04-17T15:18:44Z</time></trkpt><trkpt lat="45.799832514091484" lon="9.827544341033962"><ele>479.79999999999995</ele><time>2026-04-17T15:18:45Z</time></trkpt><trkpt lat="45.79982747610162" lon="9.827686803632378"><ele>479.4</ele><time>2026-04-17T15:18:46Z</time></trkpt><trkpt lat="45.79983236292297" lon="9.827830947773727"><ele>479.0</ele><time>2026-04-17T15:18:47Z</time></trkpt><trkpt lat="45.79982566531383" lon="9.82798274081249"><ele>478.2</ele><time>2026-04-17T15:18:48Z</time></trkpt><trkpt lat="45.79979748275648" lon="9.828129163577232"><ele>477.4</ele><time>2026-04-17T15:18:49Z</time></trkpt><trkpt lat="45.79975216592404" lon="9.828276222535923"><ele>476.6</ele><time>2026-04-17T15:18:50Z</time></trkpt><trkpt lat="45.799697567582264" lon="9.82841338400931"><ele>475.8</ele><time>2026-04-17T15:18:51Z</time></trkpt><trkpt lat="45.799637834832666" lon="9.828532934072873"><ele>475.0</ele><time>2026-04-17T15:18:52Z</time></trkpt><trkpt lat="45.79959132676218" lon="9.828642987417549"><ele>474.50000000000006</ele><time>2026-04-17T15:18:53Z</time></trkpt><trkpt lat="45.79954897963227" lon="9.828742935111856"><ele>474.0</ele><time>2026-04-17T15:18:54Z</time></trkpt><trkpt lat="45.799495308365145" lon="9.82882852911565"><ele>473.5</ele><time>2026-04-17T15:18:55Z</time></trkpt><trkpt lat="45.7994305310453" lon="9.828905664055242"><ele>473.0</ele><time>2026-04-17T15:18:56Z</time></trkpt><trkpt lat="45.79934959814607" lon="9.828973871395572"><ele>472.50000000000006</ele><time>2026-04-17T15:18:57Z</time></trkpt><trkpt lat="45.79925851962252" lon="9.829040194754336"><ele>472.0</ele><time>2026-04-17T15:18:58Z</time></trkpt><trkpt lat="45.799166398535675" lon="9.829123593179052"><ele>470.6</ele><time>2026-04-17T15:18:59Z</time></trkpt><trkpt lat="45.799077599721635" lon="9.829206081521255"><ele>469.20000000000005</ele><time>2026-04-17T15:19:00Z</time></trkpt><trkpt lat="45.79900635784072" lon="9.829291111489631"><ele>467.8</ele><time>2026-04-17T15:19:01Z</time></trkpt><trkpt lat="45.79894477258352" lon="9.829386323821778"><ele>466.4</ele><time>2026-04-17T15:19:02Z</time></trkpt><trkpt lat="45.79888173237201" lon="9.829505816890794"><ele>465.0</ele><time>2026-04-17T15:19:03Z</time></trkpt><trkpt lat="45.79881516279082" lon="9.829628846629406"><ele>464.8</ele><time>2026-04-17T15:19:04Z</time></trkpt><trkpt lat="45.79875376764897" lon="9.829743523220417"><ele>464.6</ele><time>2026-04-17T15:19:05Z</time></trkpt><trkpt lat="45.79868994339513" lon="9.829859160777936"><ele>464.4</ele><time>2026-04-17T15:19:06Z</time></trkpt><trkpt lat="45.798627073759405" lon="9.829989652775456"><ele>464.2</ele><time>2026-04-17T15:19:07Z</time></trkpt><trkpt lat="45.798566588986816" lon="9.830115011700018"><ele>464.0</ele><time>2026-04-17T15:19:08Z</time></trkpt><trkpt lat="45.798510581192396" lon="9.830211099586748"><ele>462.16666666666663</ele><time>2026-04-17T15:19:09Z</time></trkpt><trkpt lat="45.79846309193789" lon="9.83030733044367"><ele>460.3333333333333</ele><time>2026-04-17T15:19:10Z</time></trkpt><trkpt lat="45.798414390271255" lon="9.83038184052206"><ele>458.5</ele><time>2026-04-17T15:19:11Z</time></trkpt><trkpt lat="45.79836243485294" lon="9.830442577488705"><ele>456.66666666666663</ele><time>2026-04-17T15:19:12Z</time></trkpt><trkpt lat="45.79828946343784" lon="9.830489924956526"><ele>454.8333333333333</ele><time>2026-04-17T15:19:13Z</time></trkpt><trkpt lat="45.79820341964662" lon="9.830529025319196"><ele>453.0</ele><time>2026-04-17T15:19:14Z</time></trkpt><trkpt lat="45.79811524282033" lon="9.830554034345555"><ele>453.0</ele><time>2026-04-17T15:19:15Z</time></trkpt><trkpt lat="45.798033008091686" lon="9.830582169580419"><ele>453.0</ele><time>2026-04-17T15:19:16Z</time></trkpt><trkpt lat="45.79793601126809" lon="9.830548476910618"><ele>453.0</ele><time>2026-04-17T15:19:18Z</time></trkpt><trkpt lat="45.79786274579299" lon="9.830423452907942"><ele>453.0</ele><time>2026-04-17T15:19:20Z</time></trkpt><trkpt lat="45.79771457700048" lon="9.830497525609177"><ele>450.0</ele><time>2026-04-17T15:19:22Z</time></trkpt><trkpt lat="45.797630013300704" lon="9.83052870918907"><ele>447.0</ele><time>2026-04-17T15:19:23Z</time></trkpt><trkpt lat="45.79753420271631" lon="9.830565987831806"><ele>444.0</ele><time>2026-04-17T15:19:24Z</time></trkpt><trkpt lat="45.797439021085474" lon="9.830593850988818"><ele>441.0</ele><time>2026-04-17T15:19:25Z</time></trkpt><trkpt lat="45.79735866696863" lon="9.830591855576152"><ele>438.0</ele><time>2026-04-17T15:19:26Z</time></trkpt><trkpt lat="45.797277957003836" lon="9.830597241771125"><ele>435.0</ele><time>2026-04-17T15:19:27Z</time></trkpt><trkpt lat="45.79720556012971" lon="9.830610359051573"><ele>435.0</ele><time>2026-04-17T15:19:28Z</time></trkpt><trkpt lat="45.79709906111468" lon="9.830654043685453"><ele>435.0</ele><time>2026-04-17T15:19:30Z</time></trkpt><trkpt lat="45.79703962553777" lon="9.83068934395943"><ele>435.0</ele><time>2026-04-17T15:19:31Z</time></trkpt><trkpt lat="45.79697907727907" lon="9.830754749054632"><ele>435.0</ele><time>2026-04-17T15:19:32Z</time></trkpt><trkpt lat="45.79691341621875" lon="9.830823580222424"><ele>435.0</ele><time>2026-04-17T15:19:33Z</time></trkpt><trkpt lat="45.79685707255488" lon="9.830890744714297"><ele>435.0</ele><time>2026-04-17T15:19:34Z</time></trkpt><trkpt lat="45.796768109463784" lon="9.831020512107882"><ele>430.0</ele><time>2026-04-17T15:19:36Z</time></trkpt><trkpt lat="45.79672671551308" lon="9.831095223325411"><ele>425.0</ele><time>2026-04-17T15:19:37Z</time></trkpt><trkpt lat="45.79667550504514" lon="9.831255207440474"><ele>420.0</ele><time>2026-04-17T15:19:39Z</time></trkpt><trkpt lat="45.796650597498385" lon="9.831422271292825"><ele>415.0</ele><time>2026-04-17T15:19:41Z</time></trkpt><trkpt lat="45.796658104664296" lon="9.831525457959165"><ele>410.0</ele><time>2026-04-17T15:19:43Z</time></trkpt><trkpt lat="45.796713408161324" lon="9.831605927576248"><ele>410.0</ele><time>2026-04-17T15:20:04Z</time></trkpt><trkpt lat="45.79674949493794" lon="9.831721480437775"><ele>410.0</ele><time>2026-04-17T15:20:06Z</time></trkpt><trkpt lat="45.79677528426508" lon="9.831857946127615"><ele>410.0</ele><time>2026-04-17T15:20:08Z</time></trkpt><trkpt lat="45.79684565651059" lon="9.831983306986848"><ele>410.0</ele><time>2026-04-17T15:20:10Z</time></trkpt><trkpt lat="45.79691665989194" lon="9.832095686782498"><ele>410.0</ele><time>2026-04-17T15:20:12Z</time></trkpt><trkpt lat="45.796936993370984" lon="9.832232894764173"><ele>409.2</ele><time>2026-04-17T15:20:14Z</time></trkpt><trkpt lat="45.79690589269758" lon="9.832410522183912"><ele>408.4</ele><time>2026-04-17T15:20:16Z</time></trkpt><trkpt lat="45.79691088553928" lon="9.832501345473746"><ele>407.6</ele><time>2026-04-17T15:20:17Z</time></trkpt><trkpt lat="45.796918652707916" lon="9.832655335512204"><ele>406.8</ele><time>2026-04-17T15:20:19Z</time></trkpt><trkpt lat="45.79690751200494" lon="9.832766015256963"><ele>406.0</ele><time>2026-04-17T15:20:21Z</time></trkpt><trkpt lat="45.79682708593025" lon="9.832844138611812"><ele>404.0</ele><time>2026-04-17T15:20:23Z</time></trkpt><trkpt lat="45.796748757392365" lon="9.832938029881744"><ele>402.0</ele><time>2026-04-17T15:20:25Z</time></trkpt><trkpt lat="45.79672136294177" lon="9.83302923957102"><ele>400.0</ele><time>2026-04-17T15:20:29Z</time></trkpt><trkpt lat="45.7967363246579" lon="9.83318988563898"><ele>398.0</ele><time>2026-04-17T15:20:31Z</time></trkpt><trkpt lat="45.79674540407789" lon="9.833368945376675"><ele>396.0</ele><time>2026-04-17T15:20:33Z</time></trkpt><trkpt lat="45.79676456401988" lon="9.833537840741522"><ele>395.7142857142857</ele><time>2026-04-17T15:20:35Z</time></trkpt><trkpt lat="45.7967882026676" lon="9.83362677909054"><ele>395.4285714285714</ele><time>2026-04-17T15:20:36Z</time></trkpt><trkpt lat="45.7968107672249" lon="9.833713525008779"><ele>395.1428571428571</ele><time>2026-04-17T15:20:37Z</time></trkpt><trkpt lat="45.796840295362124" lon="9.833803015146241"><ele>394.8571428571429</ele><time>2026-04-17T15:20:38Z</time></trkpt><trkpt lat="45.79687186229099" lon="9.833892226094202"><ele>394.57142857142856</ele><time>2026-04-17T15:20:39Z</time></trkpt><trkpt lat="45.7969040889107" lon="9.833977818616443"><ele>394.2857142857143</ele><time>2026-04-17T15:20:40Z</time></trkpt><trkpt lat="45.796916527122434" lon="9.834069909981759"><ele>394.0</ele><time>2026-04-17T15:20:41Z</time></trkpt><trkpt lat="45.79691686561806" lon="9.834183490844449"><ele>394.33333333333337</ele><time>2026-04-17T15:20:42Z</time></trkpt><trkpt lat="45.79692560599577" lon="9.834303313039523"><ele>394.6666666666667</ele><time>2026-04-17T15:20:43Z</time></trkpt><trkpt lat="45.79693827818929" lon="9.834399752946451"><ele>395.0</ele><time>2026-04-17T15:20:44Z</time></trkpt><trkpt lat="45.79695784660877" lon="9.834526633651482"><ele>395.33333333333337</ele><time>2026-04-17T15:20:46Z</time></trkpt><trkpt lat="45.796918150265476" lon="9.83460013720741"><ele>395.6666666666667</ele><time>2026-04-17T15:20:48Z</time></trkpt><trkpt lat="45.79683523935908" lon="9.834640371216103"><ele>396.0</ele><time>2026-04-17T15:20:50Z</time></trkpt><trkpt lat="45.79677130291144" lon="9.834569242113549"><ele>395.6666666666667</ele><time>2026-04-17T15:20:52Z</time></trkpt><trkpt lat="45.79671968891513" lon="9.834409843547583"><ele>395.33333333333337</ele><time>2026-04-17T15:20:54Z</time></trkpt><trkpt lat="45.79669390277122" lon="9.834317893033726"><ele>395.0</ele><time>2026-04-17T15:20:55Z</time></trkpt><trkpt lat="45.79666724865835" lon="9.834228952128873"><ele>394.6666666666667</ele><time>2026-04-17T15:20:56Z</time></trkpt><trkpt lat="45.79663785298566" lon="9.834140470094656"><ele>394.33333333333337</ele><time>2026-04-17T15:20:57Z</time></trkpt><trkpt lat="45.79662371561257" lon="9.83404069805181"><ele>394.0</ele><time>2026-04-17T15:20:58Z</time></trkpt><trkpt lat="45.796583715567934" lon="9.83394989036026"><ele>394.00000000000006</ele><time>2026-04-17T15:20:59Z</time></trkpt><trkpt lat="45.796528596245885" lon="9.83385935226869"><ele>394.0</ele><time>2026-04-17T15:21:00Z</time></trkpt><trkpt lat="45.79648022782068" lon="9.833766020201935"><ele>394.0</ele><time>2026-04-17T15:21:01Z</time></trkpt><trkpt lat="45.79643255716686" lon="9.83366619042541"><ele>394.0</ele><time>2026-04-17T15:21:02Z</time></trkpt><trkpt lat="45.79638272960981" lon="9.833562895834888"><ele>394.00000000000006</ele><time>2026-04-17T15:21:03Z</time></trkpt><trkpt lat="45.79634149570845" lon="9.83345621972237"><ele>394.0</ele><time>2026-04-17T15:21:04Z</time></trkpt><trkpt lat="45.796298253508375" lon="9.8333560775147"><ele>394.33333333333337</ele><time>2026-04-17T15:21:05Z</time></trkpt><trkpt lat="45.79626085969164" lon="9.833248392572512"><ele>394.6666666666667</ele><time>2026-04-17T15:21:06Z</time></trkpt><trkpt lat="45.79621147262817" lon="9.833145902979146"><ele>395.0</ele><time>2026-04-17T15:21:07Z</time></trkpt><trkpt lat="45.7961526399935" lon="9.833050758612684"><ele>395.33333333333337</ele><time>2026-04-17T15:21:08Z</time></trkpt><trkpt lat="45.79611015648017" lon="9.832951315968044"><ele>395.6666666666667</ele><time>2026-04-17T15:21:09Z</time></trkpt><trkpt lat="45.79606692069124" lon="9.83286052056814"><ele>396.0</ele><time>2026-04-17T15:21:10Z</time></trkpt><trkpt lat="45.79600518756915" lon="9.832776454489332"><ele>394.5</ele><time>2026-04-17T15:21:11Z</time></trkpt><trkpt lat="45.795943642663744" lon="9.83269104483221"><ele>393.0</ele><time>2026-04-17T15:21:12Z</time></trkpt><trkpt lat="45.79589329733145" lon="9.832596651429908"><ele>391.5</ele><time>2026-04-17T15:21:13Z</time></trkpt><trkpt lat="45.79584662092632" lon="9.832507935123141"><ele>390.0</ele><time>2026-04-17T15:21:14Z</time></trkpt><trkpt lat="45.79579645962986" lon="9.832429238501907"><ele>388.5</ele><time>2026-04-17T15:21:15Z</time></trkpt><trkpt lat="45.79574596378286" lon="9.83235946175277"><ele>387.0</ele><time>2026-04-17T15:21:16Z</time></trkpt><trkpt lat="45.79570239076415" lon="9.83229119464865"><ele>387.0</ele><time>2026-04-17T15:21:17Z</time></trkpt><trkpt lat="45.79563396443352" lon="9.832150340529198"><ele>387.0</ele><time>2026-04-17T15:21:19Z</time></trkpt><trkpt lat="45.795557815316535" lon="9.832019746912126"><ele>387.0</ele><time>2026-04-17T15:21:21Z</time></trkpt><trkpt lat="45.795492556557974" lon="9.831876845036911"><ele>387.0</ele><time>2026-04-17T15:21:23Z</time></trkpt><trkpt lat="45.79541642271527" lon="9.831739546776125"><ele>388.0</ele><time>2026-04-17T15:21:25Z</time></trkpt><trkpt lat="45.7953386853823" lon="9.831606595677801"><ele>389.0</ele><time>2026-04-17T15:21:27Z</time></trkpt><trkpt lat="45.795284754763955" lon="9.831462859108324"><ele>390.0</ele><time>2026-04-17T15:21:29Z</time></trkpt><trkpt lat="45.79523181031889" lon="9.831318944363355"><ele>391.0</ele><time>2026-04-17T15:21:31Z</time></trkpt><trkpt lat="45.795191077344704" lon="9.831162667262365"><ele>389.1666666666667</ele><time>2026-04-17T15:21:33Z</time></trkpt><trkpt lat="45.795159682593834" lon="9.831004072939056"><ele>387.33333333333337</ele><time>2026-04-17T15:21:35Z</time></trkpt><trkpt lat="45.795127716807606" lon="9.830845565809248"><ele>385.5</ele><time>2026-04-17T15:21:37Z</time></trkpt><trkpt lat="45.79510617669569" lon="9.830757328100637"><ele>383.6666666666667</ele><time>2026-04-17T15:21:38Z</time></trkpt><trkpt lat="45.79508844228463" lon="9.83066744637397"><ele>381.83333333333337</ele><time>2026-04-17T15:21:39Z</time></trkpt><trkpt lat="45.79506126396741" lon="9.83057948751555"><ele>380.0</ele><time>2026-04-17T15:21:40Z</time></trkpt><trkpt lat="45.79500175441113" lon="9.830417917477247"><ele>380.0</ele><time>2026-04-17T15:21:42Z</time></trkpt><trkpt lat="45.79496361749877" lon="9.830338299584469"><ele>380.0</ele><time>2026-04-17T15:21:43Z</time></trkpt><trkpt lat="45.79492170802472" lon="9.830261668973653"><ele>380.0</ele><time>2026-04-17T15:21:44Z</time></trkpt><trkpt lat="45.79487420097408" lon="9.830187875003546"><ele>380.0</ele><time>2026-04-17T15:21:45Z</time></trkpt><trkpt lat="45.79482785370321" lon="9.8301163071971"><ele>380.0</ele><time>2026-04-17T15:21:46Z</time></trkpt><trkpt lat="45.794783212860764" lon="9.830038843438466"><ele>380.0</ele><time>2026-04-17T15:21:47Z</time></trkpt><trkpt lat="45.79473374117055" lon="9.829974947277837"><ele>380.0</ele><time>2026-04-17T15:21:48Z</time></trkpt><trkpt lat="45.794679960477474" lon="9.829905401343755"><ele>380.42857142857144</ele><time>2026-04-17T15:21:49Z</time></trkpt><trkpt lat="45.79462622847909" lon="9.82983984564143"><ele>380.8571428571429</ele><time>2026-04-17T15:21:50Z</time></trkpt><trkpt lat="45.794569398242714" lon="9.829769181414063"><ele>381.2857142857143</ele><time>2026-04-17T15:21:51Z</time></trkpt><trkpt lat="45.79451327163184" lon="9.829710194472412"><ele>381.7142857142857</ele><time>2026-04-17T15:21:52Z</time></trkpt><trkpt lat="45.79444901723976" lon="9.82966313496483"><ele>382.1428571428571</ele><time>2026-04-17T15:21:53Z</time></trkpt><trkpt lat="45.794378016764" lon="9.829630781404914"><ele>382.57142857142856</ele><time>2026-04-17T15:21:54Z</time></trkpt><trkpt lat="45.79430443556482" lon="9.829624736606618"><ele>383.0</ele><time>2026-04-17T15:21:55Z</time></trkpt><trkpt lat="45.7942313917538" lon="9.829650250891286"><ele>381.6666666666667</ele><time>2026-04-17T15:21:56Z</time></trkpt><trkpt lat="45.79415488174655" lon="9.829667047682609"><ele>380.33333333333337</ele><time>2026-04-17T15:21:57Z</time></trkpt><trkpt lat="45.79408333329226" lon="9.829683507713446"><ele>379.0</ele><time>2026-04-17T15:21:58Z</time></trkpt><trkpt lat="45.79400784419028" lon="9.829702816714429"><ele>377.6666666666667</ele><time>2026-04-17T15:21:59Z</time></trkpt><trkpt lat="45.793930758197334" lon="9.829710560620404"><ele>376.3333333333333</ele><time>2026-04-17T15:22:00Z</time></trkpt><trkpt lat="45.793855250513296" lon="9.829703040152895"><ele>375.0</ele><time>2026-04-17T15:22:01Z</time></trkpt><trkpt lat="45.79377977440527" lon="9.829687628280329"><ele>375.0</ele><time>2026-04-17T15:22:02Z</time></trkpt><trkpt lat="45.79370342692408" lon="9.829671221454896"><ele>375.0</ele><time>2026-04-17T15:22:03Z</time></trkpt><trkpt lat="45.79362782857707" lon="9.829652129827863"><ele>375.0</ele><time>2026-04-17T15:22:04Z</time></trkpt><trkpt lat="45.79356330607809" lon="9.82962756145617"><ele>375.0</ele><time>2026-04-17T15:22:05Z</time></trkpt><trkpt lat="45.793458662960184" lon="9.82956166985072"><ele>375.0</ele><time>2026-04-17T15:22:07Z</time></trkpt><trkpt lat="45.793378695883206" lon="9.829425798281054"><ele>374.5</ele><time>2026-04-17T15:22:09Z</time></trkpt><trkpt lat="45.793342717675245" lon="9.829350799293582"><ele>374.0</ele><time>2026-04-17T15:22:10Z</time></trkpt><trkpt lat="45.793302376559204" lon="9.829277260342302"><ele>373.5</ele><time>2026-04-17T15:22:11Z</time></trkpt><trkpt lat="45.79322120675549" lon="9.829152796332947"><ele>373.0</ele><time>2026-04-17T15:22:13Z</time></trkpt><trkpt lat="45.79313240911514" lon="9.829025402006694"><ele>372.5</ele><time>2026-04-17T15:22:15Z</time></trkpt><trkpt lat="45.79308713770409" lon="9.828956069136451"><ele>372.0</ele><time>2026-04-17T15:22:16Z</time></trkpt><trkpt lat="45.792994698203294" lon="9.828825237857552"><ele>372.0</ele><time>2026-04-17T15:22:18Z</time></trkpt><trkpt lat="45.79294879336533" lon="9.82875998614973"><ele>372.0</ele><time>2026-04-17T15:22:19Z</time></trkpt><trkpt lat="45.79290659835969" lon="9.8286891823731"><ele>372.0</ele><time>2026-04-17T15:22:20Z</time></trkpt><trkpt lat="45.79286093255241" lon="9.828624772542792"><ele>372.0</ele><time>2026-04-17T15:22:21Z</time></trkpt><trkpt lat="45.792812892296006" lon="9.828559829969855"><ele>372.0</ele><time>2026-04-17T15:22:22Z</time></trkpt><trkpt lat="45.79271110961855" lon="9.828443793873035"><ele>372.0</ele><time>2026-04-17T15:22:24Z</time></trkpt><trkpt lat="45.792609491106504" lon="9.828327742166381"><ele>372.20000000000005</ele><time>2026-04-17T15:22:26Z</time></trkpt><trkpt lat="45.79255736761413" lon="9.828276060865045"><ele>372.4</ele><time>2026-04-17T15:22:27Z</time></trkpt><trkpt lat="45.79244912363104" lon="9.828168601419385"><ele>372.6</ele><time>2026-04-17T15:22:29Z</time></trkpt><trkpt lat="45.792351093613185" lon="9.828051467306633"><ele>372.79999999999995</ele><time>2026-04-17T15:22:31Z</time></trkpt><trkpt lat="45.79230252470469" lon="9.827993994417279"><ele>373.0</ele><time>2026-04-17T15:22:32Z</time></trkpt><trkpt lat="45.79223172486218" lon="9.82785913982188"><ele>373.0</ele><time>2026-04-17T15:22:34Z</time></trkpt><trkpt lat="45.79219648367018" lon="9.827696657151435"><ele>373.0</ele><time>2026-04-17T15:22:36Z</time></trkpt><trkpt lat="45.792143192822316" lon="9.827646744822118"><ele>373.0</ele><time>2026-04-17T15:22:37Z</time></trkpt><trkpt lat="45.79207084948766" lon="9.827641256002988"><ele>373.0</ele><time>2026-04-17T15:22:38Z</time></trkpt><trkpt lat="45.79200646664782" lon="9.827656483087813"><ele>373.0</ele><time>2026-04-17T15:22:39Z</time></trkpt><trkpt lat="45.79188943248373" lon="9.827581986007564"><ele>373.0</ele><time>2026-04-17T15:22:41Z</time></trkpt><trkpt lat="45.79183808117327" lon="9.827521725413076"><ele>372.57142857142856</ele><time>2026-04-17T15:22:42Z</time></trkpt><trkpt lat="45.79178459848652" lon="9.82746478863437"><ele>372.14285714285717</ele><time>2026-04-17T15:22:43Z</time></trkpt><trkpt lat="45.79173184873487" lon="9.827408091726761"><ele>371.71428571428567</ele><time>2026-04-17T15:22:44Z</time></trkpt><trkpt lat="45.79167605020432" lon="9.827354458203606"><ele>371.2857142857143</ele><time>2026-04-17T15:22:45Z</time></trkpt><trkpt lat="45.79162072121909" lon="9.8273049937878"><ele>370.85714285714283</ele><time>2026-04-17T15:22:46Z</time></trkpt><trkpt lat="45.79157038508055" lon="9.827243217694152"><ele>370.4285714285714</ele><time>2026-04-17T15:22:47Z</time></trkpt><trkpt lat="45.79151754353801" lon="9.827187151245091"><ele>370.0</ele><time>2026-04-17T15:22:48Z</time></trkpt><trkpt lat="45.791465827615845" lon="9.827128408572582"><ele>370.0</ele><time>2026-04-17T15:22:49Z</time></trkpt><trkpt lat="45.79141248488167" lon="9.827077109007996"><ele>370.0</ele><time>2026-04-17T15:22:50Z</time></trkpt><trkpt lat="45.791358296265884" lon="9.827027111609446"><ele>370.0</ele><time>2026-04-17T15:22:51Z</time></trkpt><trkpt lat="45.79125901782835" lon="9.826920452336184"><ele>370.0</ele><time>2026-04-17T15:22:53Z</time></trkpt><trkpt lat="45.79120992135622" lon="9.826863321384751"><ele>370.0</ele><time>2026-04-17T15:22:54Z</time></trkpt><trkpt lat="45.79110752140782" lon="9.826755831957968"><ele>370.0</ele><time>2026-04-17T15:22:56Z</time></trkpt><trkpt lat="45.79105301439953" lon="9.826696636212603"><ele>369.71428571428567</ele><time>2026-04-17T15:22:57Z</time></trkpt><trkpt lat="45.790995243178074" lon="9.826644107982775"><ele>369.42857142857144</ele><time>2026-04-17T15:22:58Z</time></trkpt><trkpt lat="45.79094163769264" lon="9.826587823192837"><ele>369.1428571428571</ele><time>2026-04-17T15:22:59Z</time></trkpt><trkpt lat="45.79088657893963" lon="9.826529912583597"><ele>368.85714285714283</ele><time>2026-04-17T15:23:00Z</time></trkpt><trkpt lat="45.79083254748486" lon="9.826468717956695"><ele>368.57142857142856</ele><time>2026-04-17T15:23:01Z</time></trkpt><trkpt lat="45.790779167890385" lon="9.826411335548064"><ele>368.2857142857143</ele><time>2026-04-17T15:23:02Z</time></trkpt><trkpt lat="45.79072053937142" lon="9.8263520245505"><ele>368.0</ele><time>2026-04-17T15:23:03Z</time></trkpt><trkpt lat="45.79066438004058" lon="9.826291758569125"><ele>368.0</ele><time>2026-04-17T15:23:04Z</time></trkpt><trkpt lat="45.7906061315443" lon="9.8262333568451"><ele>368.0</ele><time>2026-04-17T15:23:05Z</time></trkpt><trkpt lat="45.7905489176465" lon="9.82617656940683"><ele>368.0</ele><time>2026-04-17T15:23:06Z</time></trkpt><trkpt lat="45.79049213491057" lon="9.826115551232087"><ele>368.0</ele><time>2026-04-17T15:23:07Z</time></trkpt><trkpt lat="45.790435424172415" lon="9.826055213978792"><ele>368.0</ele><time>2026-04-17T15:23:08Z</time></trkpt><trkpt lat="45.79037906973602" lon="9.825994908928115"><ele>368.0</ele><time>2026-04-17T15:23:09Z</time></trkpt><trkpt lat="45.79032244134354" lon="9.825937589735899"><ele>368.0</ele><time>2026-04-17T15:23:10Z</time></trkpt><trkpt lat="45.79026683891309" lon="9.82587999422487"><ele>367.8571428571429</ele><time>2026-04-17T15:23:11Z</time></trkpt><trkpt lat="45.79021246397804" lon="9.825819986748568"><ele>367.71428571428567</ele><time>2026-04-17T15:23:12Z</time></trkpt><trkpt lat="45.790158207440754" lon="9.825764080195812"><ele>367.57142857142856</ele><time>2026-04-17T15:23:13Z</time></trkpt><trkpt lat="45.790103523716446" lon="9.82571140141582"><ele>367.42857142857144</ele><time>2026-04-17T15:23:14Z</time></trkpt><trkpt lat="45.79004907222198" lon="9.82566086715254"><ele>367.28571428571433</ele><time>2026-04-17T15:23:15Z</time></trkpt><trkpt lat="45.78999652781974" lon="9.825602355715567"><ele>367.1428571428571</ele><time>2026-04-17T15:23:16Z</time></trkpt><trkpt lat="45.78994420679624" lon="9.825544785203542"><ele>367.0</ele><time>2026-04-17T15:23:17Z</time></trkpt><trkpt lat="45.78989150105225" lon="9.8254913746683"><ele>366.8333333333333</ele><time>2026-04-17T15:23:18Z</time></trkpt><trkpt lat="45.78983879529606" lon="9.82543588054558"><ele>366.66666666666663</ele><time>2026-04-17T15:23:19Z</time></trkpt><trkpt lat="45.78978465102014" lon="9.82538366456945"><ele>366.5</ele><time>2026-04-17T15:23:20Z</time></trkpt><trkpt lat="45.78973045321416" lon="9.825331988693698"><ele>366.3333333333333</ele><time>2026-04-17T15:23:21Z</time></trkpt><trkpt lat="45.78967817577118" lon="9.825276652339538"><ele>366.1666666666667</ele><time>2026-04-17T15:23:22Z</time></trkpt><trkpt lat="45.78957573668164" lon="9.825168301735719"><ele>366.0</ele><time>2026-04-17T15:23:24Z</time></trkpt><trkpt lat="45.789524580639124" lon="9.825112722546683"><ele>365.8333333333333</ele><time>2026-04-17T15:23:25Z</time></trkpt><trkpt lat="45.789473122423466" lon="9.825059806711645"><ele>365.6666666666667</ele><time>2026-04-17T15:23:26Z</time></trkpt><trkpt lat="45.789371303993676" lon="9.824955498746338"><ele>365.5</ele><time>2026-04-17T15:23:28Z</time></trkpt><trkpt lat="45.78927079345729" lon="9.82484878051886"><ele>365.33333333333337</ele><time>2026-04-17T15:23:30Z</time></trkpt><trkpt lat="45.78922078739617" lon="9.82479294942263"><ele>365.1666666666667</ele><time>2026-04-17T15:23:31Z</time></trkpt><trkpt lat="45.78916980677213" lon="9.82473923335867"><ele>365.0</ele><time>2026-04-17T15:23:32Z</time></trkpt><trkpt lat="45.78906471817322" lon="9.824640171627482"><ele>365.0</ele><time>2026-04-17T15:23:34Z</time></trkpt><trkpt lat="45.7890121334251" lon="9.82458989318009"><ele>365.0</ele><time>2026-04-17T15:23:35Z</time></trkpt><trkpt lat="45.78891204573274" lon="9.824482605521029"><ele>365.0</ele><time>2026-04-17T15:23:37Z</time></trkpt><trkpt lat="45.78886149965342" lon="9.82442789437191"><ele>365.0</ele><time>2026-04-17T15:23:38Z</time></trkpt><trkpt lat="45.78881031838624" lon="9.82437402910671"><ele>365.0</ele><time>2026-04-17T15:23:39Z</time></trkpt><trkpt lat="45.78875742670709" lon="9.824322301022761"><ele>365.0</ele><time>2026-04-17T15:23:40Z</time></trkpt><trkpt lat="45.788654975019284" lon="9.824218339678676"><ele>365.0</ele><time>2026-04-17T15:23:42Z</time></trkpt><trkpt lat="45.78860293458985" lon="9.824167306264172"><ele>365.0</ele><time>2026-04-17T15:23:43Z</time></trkpt><trkpt lat="45.78850103153833" lon="9.824062613918295"><ele>365.0</ele><time>2026-04-17T15:23:45Z</time></trkpt><trkpt lat="45.78840290495662" lon="9.82395751704434"><ele>365.0</ele><time>2026-04-17T15:23:47Z</time></trkpt><trkpt lat="45.788303233341644" lon="9.8238557006776"><ele>365.0</ele><time>2026-04-17T15:23:49Z</time></trkpt><trkpt lat="45.78820225288243" lon="9.823754141499977"><ele>365.0</ele><time>2026-04-17T15:23:51Z</time></trkpt><trkpt lat="45.788104033892736" lon="9.823646723311878"><ele>365.0</ele><time>2026-04-17T15:23:53Z</time></trkpt><trkpt lat="45.788005881656616" lon="9.823538013949516"><ele>365.0</ele><time>2026-04-17T15:23:55Z</time></trkpt><trkpt lat="45.787906264177536" lon="9.823435755511165"><ele>365.0</ele><time>2026-04-17T15:23:57Z</time></trkpt><trkpt lat="45.787854742925674" lon="9.823382261327563"><ele>365.0</ele><time>2026-04-17T15:23:58Z</time></trkpt><trkpt lat="45.78780448385979" lon="9.823327538912542"><ele>364.5</ele><time>2026-04-17T15:23:59Z</time></trkpt><trkpt lat="45.78769969191218" lon="9.823231779013666"><ele>364.0</ele><time>2026-04-17T15:24:01Z</time></trkpt><trkpt lat="45.78759705227419" lon="9.823133721637625"><ele>363.5</ele><time>2026-04-17T15:24:03Z</time></trkpt><trkpt lat="45.78749651359804" lon="9.823036187625348"><ele>363.0</ele><time>2026-04-17T15:24:05Z</time></trkpt><trkpt lat="45.78739754902955" lon="9.822937642157402"><ele>363.0</ele><time>2026-04-17T15:24:07Z</time></trkpt><trkpt lat="45.78729774669558" lon="9.822846873242053"><ele>363.0</ele><time>2026-04-17T15:24:09Z</time></trkpt><trkpt lat="45.78718905851478" lon="9.822769212756503"><ele>363.0</ele><time>2026-04-17T15:24:11Z</time></trkpt><trkpt lat="45.7870777753276" lon="9.822703785264801"><ele>363.0</ele><time>2026-04-17T15:24:13Z</time></trkpt><trkpt lat="45.787016475832345" lon="9.822676326967587"><ele>363.0</ele><time>2026-04-17T15:24:14Z</time></trkpt><trkpt lat="45.78690983140829" lon="9.822588378966158"><ele>363.79999999999995</ele><time>2026-04-17T15:24:16Z</time></trkpt><trkpt lat="45.7867995093431" lon="9.822504098127828"><ele>364.6</ele><time>2026-04-17T15:24:18Z</time></trkpt><trkpt lat="45.786688253997546" lon="9.822425625962898"><ele>365.4</ele><time>2026-04-17T15:24:20Z</time></trkpt><trkpt lat="45.78657476776321" lon="9.822347914927244"><ele>366.20000000000005</ele><time>2026-04-17T15:24:22Z</time></trkpt><trkpt lat="45.78651606580648" lon="9.822309268015923"><ele>367.0</ele><time>2026-04-17T15:24:23Z</time></trkpt><trkpt lat="45.786404532779876" lon="9.822237319973542"><ele>367.0</ele><time>2026-04-17T15:24:25Z</time></trkpt><trkpt lat="45.78629442210311" lon="9.822180753178342"><ele>367.0</ele><time>2026-04-17T15:24:27Z</time></trkpt><trkpt lat="45.7861773139976" lon="9.822124236798897"><ele>367.0</ele><time>2026-04-17T15:24:29Z</time></trkpt><trkpt lat="45.786119018036274" lon="9.822088508567479"><ele>367.0</ele><time>2026-04-17T15:24:30Z</time></trkpt><trkpt lat="45.78605899133522" lon="9.822060219375288"><ele>367.0</ele><time>2026-04-17T15:24:31Z</time></trkpt><trkpt lat="45.78600006400311" lon="9.82202545532993"><ele>367.0</ele><time>2026-04-17T15:24:32Z</time></trkpt><trkpt lat="45.78593927458191" lon="9.821980516138991"><ele>366.0</ele><time>2026-04-17T15:24:33Z</time></trkpt><trkpt lat="45.785883111683944" lon="9.821937636045229"><ele>365.0</ele><time>2026-04-17T15:24:34Z</time></trkpt><trkpt lat="45.78582061741628" lon="9.82190638879902"><ele>364.0</ele><time>2026-04-17T15:24:35Z</time></trkpt><trkpt lat="45.78576169224282" lon="9.821873145459891"><ele>363.0</ele><time>2026-04-17T15:24:36Z</time></trkpt><trkpt lat="45.78563995526124" lon="9.821812338417919"><ele>362.0</ele><time>2026-04-17T15:24:38Z</time></trkpt><trkpt lat="45.785520912607055" lon="9.821760586214408"><ele>361.0</ele><time>2026-04-17T15:24:40Z</time></trkpt><trkpt lat="45.78545766395572" lon="9.821738084707974"><ele>361.5</ele><time>2026-04-17T15:24:41Z</time></trkpt><trkpt lat="45.78539403013458" lon="9.821714703010914"><ele>362.0</ele><time>2026-04-17T15:24:42Z</time></trkpt><trkpt lat="45.785331236771995" lon="9.821689859054532"><ele>362.5</ele><time>2026-04-17T15:24:43Z</time></trkpt><trkpt lat="45.78520374610484" lon="9.821642013961783"><ele>363.0</ele><time>2026-04-17T15:24:45Z</time></trkpt><trkpt lat="45.78514125831067" lon="9.821623787324148"><ele>363.5</ele><time>2026-04-17T15:24:46Z</time></trkpt><trkpt lat="45.78507859095923" lon="9.821604048307279"><ele>364.0</ele><time>2026-04-17T15:24:47Z</time></trkpt><trkpt lat="45.78501531862795" lon="9.82158251632693"><ele>364.0</ele><time>2026-04-17T15:24:48Z</time></trkpt><trkpt lat="45.78495231028778" lon="9.821561113964126"><ele>364.0</ele><time>2026-04-17T15:24:49Z</time></trkpt><trkpt lat="45.78489057070405" lon="9.821534803225275"><ele>364.0</ele><time>2026-04-17T15:24:50Z</time></trkpt><trkpt lat="45.78482678328187" lon="9.821514635671992"><ele>364.0</ele><time>2026-04-17T15:24:51Z</time></trkpt><trkpt lat="45.78476135047275" lon="9.821496554643685"><ele>364.0</ele><time>2026-04-17T15:24:52Z</time></trkpt><trkpt lat="45.78469714850909" lon="9.821473290582187"><ele>364.0</ele><time>2026-04-17T15:24:53Z</time></trkpt><trkpt lat="45.78463235901107" lon="9.821454490365062"><ele>364.0</ele><time>2026-04-17T15:24:54Z</time></trkpt><trkpt lat="45.784566967986585" lon="9.82143774309896"><ele>364.0</ele><time>2026-04-17T15:24:55Z</time></trkpt><trkpt lat="45.78450291626059" lon="9.8214106370077"><ele>364.0</ele><time>2026-04-17T15:24:56Z</time></trkpt><trkpt lat="45.78444226892023" lon="9.821376592208171"><ele>364.0</ele><time>2026-04-17T15:24:57Z</time></trkpt><trkpt lat="45.78437461297359" lon="9.821352514213004"><ele>364.0</ele><time>2026-04-17T15:24:58Z</time></trkpt><trkpt lat="45.78430956151655" lon="9.821330806650112"><ele>364.0</ele><time>2026-04-17T15:24:59Z</time></trkpt><trkpt lat="45.78424504706181" lon="9.821309193863204"><ele>364.0</ele><time>2026-04-17T15:25:00Z</time></trkpt><trkpt lat="45.78411934467755" lon="9.8212623281893"><ele>363.3333333333333</ele><time>2026-04-17T15:25:02Z</time></trkpt><trkpt lat="45.7840570392366" lon="9.82124121050758"><ele>362.66666666666663</ele><time>2026-04-17T15:25:03Z</time></trkpt><trkpt lat="45.783992669282775" lon="9.82122009533698"><ele>362.0</ele><time>2026-04-17T15:25:04Z</time></trkpt><trkpt lat="45.78392939467052" lon="9.821194622072928"><ele>361.3333333333333</ele><time>2026-04-17T15:25:05Z</time></trkpt><trkpt lat="45.78386469790819" lon="9.821176089306197"><ele>360.6666666666667</ele><time>2026-04-17T15:25:06Z</time></trkpt><trkpt lat="45.783797945024936" lon="9.821160627411523"><ele>360.0</ele><time>2026-04-17T15:25:07Z</time></trkpt><trkpt lat="45.78367303249215" lon="9.82111572748079"><ele>360.0</ele><time>2026-04-17T15:25:09Z</time></trkpt><trkpt lat="45.783603364965565" lon="9.821095214824785"><ele>360.0</ele><time>2026-04-17T15:25:10Z</time></trkpt><trkpt lat="45.78348152506945" lon="9.821050079086131"><ele>360.0</ele><time>2026-04-17T15:25:12Z</time></trkpt><trkpt lat="45.78341398768282" lon="9.82104072630195"><ele>360.0</ele><time>2026-04-17T15:25:13Z</time></trkpt><trkpt lat="45.783288159454365" lon="9.821014090288932"><ele>360.0</ele><time>2026-04-17T15:25:15Z</time></trkpt><trkpt lat="45.783224256556664" lon="9.821003268108253"><ele>359.75</ele><time>2026-04-17T15:25:16Z</time></trkpt><trkpt lat="45.783095326450926" lon="9.820984620519445"><ele>359.5</ele><time>2026-04-17T15:25:18Z</time></trkpt><trkpt lat="45.7829674289492" lon="9.82096526826642"><ele>359.25</ele><time>2026-04-17T15:25:20Z</time></trkpt><trkpt lat="45.78290313534671" lon="9.820959418645284"><ele>359.0</ele><time>2026-04-17T15:25:21Z</time></trkpt><trkpt lat="45.782774754735534" lon="9.8209389746551"><ele>360.0</ele><time>2026-04-17T15:25:23Z</time></trkpt><trkpt lat="45.782647718283265" lon="9.820921282051714"><ele>361.0</ele><time>2026-04-17T15:25:25Z</time></trkpt><trkpt lat="45.78258237184675" lon="9.82092075803444"><ele>362.0</ele><time>2026-04-17T15:25:26Z</time></trkpt><trkpt lat="45.782516819167036" lon="9.82091145727766"><ele>363.0</ele><time>2026-04-17T15:25:27Z</time></trkpt><trkpt lat="45.78245382268207" lon="9.820894417054932"><ele>364.0</ele><time>2026-04-17T15:25:28Z</time></trkpt><trkpt lat="45.78238792811762" lon="9.820889448844623"><ele>365.0</ele><time>2026-04-17T15:25:29Z</time></trkpt><trkpt lat="45.78225434453939" lon="9.820874228614139"><ele>365.0</ele><time>2026-04-17T15:25:31Z</time></trkpt><trkpt lat="45.78212967422879" lon="9.820852894979462"><ele>365.0</ele><time>2026-04-17T15:25:33Z</time></trkpt><trkpt lat="45.78200039222764" lon="9.820835558812318"><ele>365.0</ele><time>2026-04-17T15:25:35Z</time></trkpt><trkpt lat="45.7819363956223" lon="9.820825197770594"><ele>365.0</ele><time>2026-04-17T15:25:36Z</time></trkpt><trkpt lat="45.78187012092179" lon="9.82081282942232"><ele>365.0</ele><time>2026-04-17T15:25:37Z</time></trkpt><trkpt lat="45.781805451315186" lon="9.820796505374691"><ele>364.0</ele><time>2026-04-17T15:25:38Z</time></trkpt><trkpt lat="45.78174004640023" lon="9.820769568396692"><ele>363.0</ele><time>2026-04-17T15:25:39Z</time></trkpt><trkpt lat="45.7816177645258" lon="9.820700620357014"><ele>362.0</ele><time>2026-04-17T15:25:41Z</time></trkpt><trkpt lat="45.78156187404218" lon="9.820657506605285"><ele>361.0</ele><time>2026-04-17T15:25:42Z</time></trkpt><trkpt lat="45.78150649393659" lon="9.820613582484922"><ele>360.0</ele><time>2026-04-17T15:25:43Z</time></trkpt><trkpt lat="45.78145024860923" lon="9.820570856508212"><ele>359.0</ele><time>2026-04-17T15:25:44Z</time></trkpt><trkpt lat="45.78139267260319" lon="9.82053193710735"><ele>359.0</ele><time>2026-04-17T15:25:45Z</time></trkpt><trkpt lat="45.78128095010117" lon="9.820450628869729"><ele>359.0</ele><time>2026-04-17T15:25:47Z</time></trkpt><trkpt lat="45.78117288896155" lon="9.820372227267251"><ele>359.0</ele><time>2026-04-17T15:25:49Z</time></trkpt><trkpt lat="45.78107165552765" lon="9.820298134304174"><ele>359.0</ele><time>2026-04-17T15:25:51Z</time></trkpt><trkpt lat="45.78097603631183" lon="9.820229681390307"><ele>358.4</ele><time>2026-04-17T15:25:53Z</time></trkpt><trkpt lat="45.78087720161969" lon="9.8201527084065"><ele>357.79999999999995</ele><time>2026-04-17T15:25:55Z</time></trkpt><trkpt lat="45.78082149374641" lon="9.820107916713441"><ele>357.20000000000005</ele><time>2026-04-17T15:25:56Z</time></trkpt><trkpt lat="45.78070903147455" lon="9.82002853851649"><ele>356.6</ele><time>2026-04-17T15:25:58Z</time></trkpt><trkpt lat="45.78060459944333" lon="9.819934916533908"><ele>356.0</ele><time>2026-04-17T15:26:00Z</time></trkpt><trkpt lat="45.78049466915728" lon="9.819847524672879"><ele>356.4</ele><time>2026-04-17T15:26:02Z</time></trkpt><trkpt lat="45.7803814352707" lon="9.819766633741068"><ele>356.8</ele><time>2026-04-17T15:26:04Z</time></trkpt><trkpt lat="45.78032479810049" lon="9.819725139021283"><ele>357.2</ele><time>2026-04-17T15:26:05Z</time></trkpt><trkpt lat="45.780217494025145" lon="9.819640441835496"><ele>357.59999999999997</ele><time>2026-04-17T15:26:07Z</time></trkpt><trkpt lat="45.78010827475825" lon="9.819555344256782"><ele>358.0</ele><time>2026-04-17T15:26:09Z</time></trkpt><trkpt lat="45.780050491401575" lon="9.819513925503262"><ele>358.0</ele><time>2026-04-17T15:26:10Z</time></trkpt><trkpt lat="45.77994650532753" lon="9.819420908348414"><ele>358.0</ele><time>2026-04-17T15:26:12Z</time></trkpt><trkpt lat="45.77984064742746" lon="9.819326621333472"><ele>358.0</ele><time>2026-04-17T15:26:14Z</time></trkpt><trkpt lat="45.779733152729655" lon="9.819237815481037"><ele>358.0</ele><time>2026-04-17T15:26:16Z</time></trkpt><trkpt lat="45.779623870768106" lon="9.81914895001936"><ele>357.2</ele><time>2026-04-17T15:26:18Z</time></trkpt><trkpt lat="45.77957213483788" lon="9.819096436317468"><ele>356.4</ele><time>2026-04-17T15:26:19Z</time></trkpt><trkpt lat="45.779466178684224" lon="9.819007328425169"><ele>355.59999999999997</ele><time>2026-04-17T15:26:21Z</time></trkpt><trkpt lat="45.77936256232308" lon="9.818914735510758"><ele>354.79999999999995</ele><time>2026-04-17T15:26:23Z</time></trkpt><trkpt lat="45.77925637744664" lon="9.81882077690925"><ele>354.0</ele><time>2026-04-17T15:26:25Z</time></trkpt><trkpt lat="45.779149277348836" lon="9.81872550785712"><ele>354.0</ele><time>2026-04-17T15:26:27Z</time></trkpt><trkpt lat="45.77904218878743" lon="9.818632843103918"><ele>354.0</ele><time>2026-04-17T15:26:29Z</time></trkpt><trkpt lat="45.778934026063" lon="9.818546555716786"><ele>354.0</ele><time>2026-04-17T15:26:31Z</time></trkpt><trkpt lat="45.7788259172504" lon="9.818452904320605"><ele>354.0</ele><time>2026-04-17T15:26:33Z</time></trkpt><trkpt lat="45.77872008210366" lon="9.818359380418109"><ele>355.0</ele><time>2026-04-17T15:26:35Z</time></trkpt><trkpt lat="45.7786148989149" lon="9.818261393013138"><ele>356.0</ele><time>2026-04-17T15:26:37Z</time></trkpt><trkpt lat="45.778508402093806" lon="9.818174928507842"><ele>357.0</ele><time>2026-04-17T15:26:39Z</time></trkpt><trkpt lat="45.77839820709972" lon="9.818094144982142"><ele>358.0</ele><time>2026-04-17T15:26:41Z</time></trkpt><trkpt lat="45.77834097837966" lon="9.81805365794983"><ele>359.0</ele><time>2026-04-17T15:26:42Z</time></trkpt><trkpt lat="45.778281324972475" lon="9.818016488602334"><ele>359.0</ele><time>2026-04-17T15:26:43Z</time></trkpt><trkpt lat="45.77816073538923" lon="9.81795802384985"><ele>359.0</ele><time>2026-04-17T15:26:45Z</time></trkpt><trkpt lat="45.77803799194855" lon="9.817902914408235"><ele>359.0</ele><time>2026-04-17T15:26:47Z</time></trkpt><trkpt lat="45.77797125696341" lon="9.817865916192101"><ele>359.0</ele><time>2026-04-17T15:26:48Z</time></trkpt><trkpt lat="45.77790518481062" lon="9.817846342088973"><ele>359.0</ele><time>2026-04-17T15:26:49Z</time></trkpt><trkpt lat="45.777838280314946" lon="9.817816153663475"><ele>359.0</ele><time>2026-04-17T15:26:50Z</time></trkpt><trkpt lat="45.77777330736799" lon="9.817790486770637"><ele>359.0</ele><time>2026-04-17T15:26:51Z</time></trkpt><trkpt lat="45.777706463099676" lon="9.81775263236922"><ele>359.0</ele><time>2026-04-17T15:26:52Z</time></trkpt><trkpt lat="45.77763948846557" lon="9.817713811550167"><ele>359.0</ele><time>2026-04-17T15:26:53Z</time></trkpt><trkpt lat="45.77757462660324" lon="9.817679142611498"><ele>359.0</ele><time>2026-04-17T15:26:54Z</time></trkpt><trkpt lat="45.77750924979705" lon="9.817631163521698"><ele>359.0</ele><time>2026-04-17T15:26:55Z</time></trkpt><trkpt lat="45.77744937489965" lon="9.817581458458637"><ele>359.0</ele><time>2026-04-17T15:26:56Z</time></trkpt><trkpt lat="45.77738949488806" lon="9.817535916371876"><ele>359.57142857142856</ele><time>2026-04-17T15:26:57Z</time></trkpt><trkpt lat="45.77733294774319" lon="9.817478753724787"><ele>360.14285714285717</ele><time>2026-04-17T15:26:58Z</time></trkpt><trkpt lat="45.777278836886026" lon="9.817425261526862"><ele>360.71428571428567</ele><time>2026-04-17T15:26:59Z</time></trkpt><trkpt lat="45.7772234211427" lon="9.817364394168578"><ele>361.2857142857143</ele><time>2026-04-17T15:27:00Z</time></trkpt><trkpt lat="45.777172224970805" lon="9.817308574627651"><ele>361.85714285714283</ele><time>2026-04-17T15:27:01Z</time></trkpt><trkpt lat="45.77712147581356" lon="9.817253016131426"><ele>362.4285714285714</ele><time>2026-04-17T15:27:02Z</time></trkpt><trkpt lat="45.77707050628003" lon="9.817194326155485"><ele>363.0</ele><time>2026-04-17T15:27:03Z</time></trkpt><trkpt lat="45.776972974155484" lon="9.817078143668526"><ele>363.0</ele><time>2026-04-17T15:27:05Z</time></trkpt><trkpt lat="45.776925613281406" lon="9.81701720436464"><ele>363.0</ele><time>2026-04-17T15:27:06Z</time></trkpt><trkpt lat="45.77687607713628" lon="9.816958101322154"><ele>363.0</ele><time>2026-04-17T15:27:07Z</time></trkpt><trkpt lat="45.77682832808794" lon="9.816894718151213"><ele>363.0</ele><time>2026-04-17T15:27:08Z</time></trkpt><trkpt lat="45.77672822975388" lon="9.816781430698803"><ele>363.0</ele><time>2026-04-17T15:27:10Z</time></trkpt><trkpt lat="45.77662572185847" lon="9.816665825612853"><ele>362.4</ele><time>2026-04-17T15:27:12Z</time></trkpt><trkpt lat="45.776538767686475" lon="9.816538055194231"><ele>361.79999999999995</ele><time>2026-04-17T15:27:14Z</time></trkpt><trkpt lat="45.77648734876362" lon="9.816484014360935"><ele>361.2</ele><time>2026-04-17T15:27:15Z</time></trkpt><trkpt lat="45.77639208432513" lon="9.816360343624208"><ele>360.6</ele><time>2026-04-17T15:27:17Z</time></trkpt><trkpt lat="45.77629392416332" lon="9.816250329478363"><ele>360.0</ele><time>2026-04-17T15:27:19Z</time></trkpt><trkpt lat="45.77624415201999" lon="9.816189078481576"><ele>360.0</ele><time>2026-04-17T15:27:20Z</time></trkpt><trkpt lat="45.77619384899623" lon="9.816129207313969"><ele>360.0</ele><time>2026-04-17T15:27:21Z</time></trkpt><trkpt lat="45.77609820008511" lon="9.816018071697599"><ele>360.0</ele><time>2026-04-17T15:27:23Z</time></trkpt><trkpt lat="45.776003224472134" lon="9.815901330510567"><ele>360.0</ele><time>2026-04-17T15:27:25Z</time></trkpt><trkpt lat="45.775908110098236" lon="9.815771354890108"><ele>360.0</ele><time>2026-04-17T15:27:27Z</time></trkpt><trkpt lat="45.77581903527825" lon="9.81566291786184"><ele>359.6</ele><time>2026-04-17T15:27:29Z</time></trkpt><trkpt lat="45.775765760365545" lon="9.815605846215954"><ele>359.2</ele><time>2026-04-17T15:27:30Z</time></trkpt><trkpt lat="45.77571321711246" lon="9.815537817475297"><ele>358.79999999999995</ele><time>2026-04-17T15:27:31Z</time></trkpt><trkpt lat="45.775619977229354" lon="9.815422613269062"><ele>358.4</ele><time>2026-04-17T15:27:33Z</time></trkpt><trkpt lat="45.775565394216834" lon="9.815362849218543"><ele>358.0</ele><time>2026-04-17T15:27:34Z</time></trkpt><trkpt lat="45.77546231319939" lon="9.815265834773522"><ele>358.0</ele><time>2026-04-17T15:27:36Z</time></trkpt><trkpt lat="45.77534696712323" lon="9.815159223227408"><ele>358.0</ele><time>2026-04-17T15:27:38Z</time></trkpt><trkpt lat="45.77524323272043" lon="9.81507114900614"><ele>358.0</ele><time>2026-04-17T15:27:40Z</time></trkpt><trkpt lat="45.77514331769958" lon="9.814972817901918"><ele>358.0</ele><time>2026-04-17T15:27:42Z</time></trkpt><trkpt lat="45.77503668367655" lon="9.814885537172207"><ele>359.0</ele><time>2026-04-17T15:27:44Z</time></trkpt><trkpt lat="45.774934126042126" lon="9.814790555218337"><ele>360.0</ele><time>2026-04-17T15:27:46Z</time></trkpt><trkpt lat="45.774837650010745" lon="9.814686871394114"><ele>361.0</ele><time>2026-04-17T15:27:48Z</time></trkpt><trkpt lat="45.77473330188698" lon="9.814595985974826"><ele>362.0</ele><time>2026-04-17T15:27:50Z</time></trkpt><trkpt lat="45.77467632943849" lon="9.814547045465417"><ele>363.0</ele><time>2026-04-17T15:27:51Z</time></trkpt><trkpt lat="45.7745707484775" lon="9.814459230087465"><ele>363.0</ele><time>2026-04-17T15:27:53Z</time></trkpt><trkpt lat="45.774512491604426" lon="9.814416660976807"><ele>363.0</ele><time>2026-04-17T15:27:54Z</time></trkpt><trkpt lat="45.77440095516191" lon="9.814337101447684"><ele>363.0</ele><time>2026-04-17T15:27:56Z</time></trkpt><trkpt lat="45.77428973405123" lon="9.814252118148502"><ele>363.0</ele><time>2026-04-17T15:27:58Z</time></trkpt><trkpt lat="45.774180736521664" lon="9.814156005512265"><ele>363.0</ele><time>2026-04-17T15:28:00Z</time></trkpt><trkpt lat="45.77412439153765" lon="9.814114615410002"><ele>361.5</ele><time>2026-04-17T15:28:01Z</time></trkpt><trkpt lat="45.77406839890142" lon="9.814070428309115"><ele>360.0</ele><time>2026-04-17T15:28:02Z</time></trkpt><trkpt lat="45.77400830679643" lon="9.814019359718504"><ele>358.5</ele><time>2026-04-17T15:28:03Z</time></trkpt><trkpt lat="45.77389950896392" lon="9.813923962056009"><ele>357.0</ele><time>2026-04-17T15:28:05Z</time></trkpt><trkpt lat="45.77384328642713" lon="9.813876915214864"><ele>355.5</ele><time>2026-04-17T15:28:06Z</time></trkpt><trkpt lat="45.77378805584431" lon="9.813821518081143"><ele>354.0</ele><time>2026-04-17T15:28:07Z</time></trkpt><trkpt lat="45.77372760230342" lon="9.813778453402431"><ele>354.0</ele><time>2026-04-17T15:28:08Z</time></trkpt><trkpt lat="45.77367408606026" lon="9.813728884111443"><ele>354.0</ele><time>2026-04-17T15:28:09Z</time></trkpt><trkpt lat="45.7736173954202" lon="9.813683027511797"><ele>354.0</ele><time>2026-04-17T15:28:10Z</time></trkpt><trkpt lat="45.77351491418341" lon="9.813581943427875"><ele>354.0</ele><time>2026-04-17T15:28:12Z</time></trkpt><trkpt lat="45.773448434448476" lon="9.813546365075407"><ele>354.0</ele><time>2026-04-17T15:28:13Z</time></trkpt><trkpt lat="45.77336817675153" lon="9.813503210959492"><ele>354.0</ele><time>2026-04-17T15:28:14Z</time></trkpt><trkpt lat="45.77329570427673" lon="9.813411343036387"><ele>353.79999999999995</ele><time>2026-04-17T15:28:16Z</time></trkpt><trkpt lat="45.77318793676645" lon="9.813318286596846"><ele>353.59999999999997</ele><time>2026-04-17T15:28:18Z</time></trkpt><trkpt lat="45.77308259822846" lon="9.81322518896874"><ele>353.4</ele><time>2026-04-17T15:28:20Z</time></trkpt><trkpt lat="45.773028096916995" lon="9.813179447473988"><ele>353.2</ele><time>2026-04-17T15:28:21Z</time></trkpt><trkpt lat="45.772922373169415" lon="9.813089197141167"><ele>353.0</ele><time>2026-04-17T15:28:23Z</time></trkpt><trkpt lat="45.772814419357026" lon="9.812999317076798"><ele>353.0</ele><time>2026-04-17T15:28:25Z</time></trkpt><trkpt lat="45.77276028680695" lon="9.812950006542671"><ele>353.0</ele><time>2026-04-17T15:28:26Z</time></trkpt><trkpt lat="45.77265813719366" lon="9.812864722890849"><ele>353.0</ele><time>2026-04-17T15:28:28Z</time></trkpt><trkpt lat="45.772561176966335" lon="9.812778783772515"><ele>353.0</ele><time>2026-04-17T15:28:30Z</time></trkpt><trkpt lat="45.77246326375447" lon="9.812697383982869"><ele>353.0</ele><time>2026-04-17T15:28:32Z</time></trkpt><trkpt lat="45.7723570252761" lon="9.812606621273869"><ele>352.6666666666667</ele><time>2026-04-17T15:28:34Z</time></trkpt><trkpt lat="45.77230262099506" lon="9.812557929440791"><ele>352.33333333333337</ele><time>2026-04-17T15:28:35Z</time></trkpt><trkpt lat="45.7722411318658" lon="9.812506504129383"><ele>352.0</ele><time>2026-04-17T15:28:36Z</time></trkpt><trkpt lat="45.77213469177734" lon="9.812414037163157"><ele>351.6666666666667</ele><time>2026-04-17T15:28:38Z</time></trkpt><trkpt lat="45.77202987651034" lon="9.812326675798111"><ele>351.3333333333333</ele><time>2026-04-17T15:28:40Z</time></trkpt><trkpt lat="45.77197432414586" lon="9.812276289865164"><ele>351.0</ele><time>2026-04-17T15:28:41Z</time></trkpt><trkpt lat="45.77186837231803" lon="9.81218247985969"><ele>350.6</ele><time>2026-04-17T15:28:43Z</time></trkpt><trkpt lat="45.771812771489515" lon="9.812133267127452"><ele>350.20000000000005</ele><time>2026-04-17T15:28:44Z</time></trkpt><trkpt lat="45.77170112955533" lon="9.812044035938568"><ele>349.79999999999995</ele><time>2026-04-17T15:28:46Z</time></trkpt><trkpt lat="45.77159133195337" lon="9.811951293377183"><ele>349.4</ele><time>2026-04-17T15:28:48Z</time></trkpt><trkpt lat="45.77148453345325" lon="9.811862413242002"><ele>349.0</ele><time>2026-04-17T15:28:50Z</time></trkpt><trkpt lat="45.77137745136785" lon="9.811770457702767"><ele>349.0</ele><time>2026-04-17T15:28:52Z</time></trkpt><trkpt lat="45.77132094517014" lon="9.811725494002138"><ele>349.0</ele><time>2026-04-17T15:28:53Z</time></trkpt><trkpt lat="45.77126724199849" lon="9.811675136118367"><ele>349.0</ele><time>2026-04-17T15:28:54Z</time></trkpt><trkpt lat="45.77115857339514" lon="9.81159264969887"><ele>349.0</ele><time>2026-04-17T15:28:56Z</time></trkpt><trkpt lat="45.771045644636445" lon="9.811510164872788"><ele>349.0</ele><time>2026-04-17T15:28:58Z</time></trkpt><trkpt lat="45.770931237043" lon="9.811438221557117"><ele>349.0</ele><time>2026-04-17T15:29:00Z</time></trkpt><trkpt lat="45.77087591691559" lon="9.811393645097418"><ele>349.0</ele><time>2026-04-17T15:29:01Z</time></trkpt><trkpt lat="45.77076352626904" lon="9.811315433025143"><ele>349.0</ele><time>2026-04-17T15:29:03Z</time></trkpt><trkpt lat="45.77065142027039" lon="9.811230134805841"><ele>349.0</ele><time>2026-04-17T15:29:05Z</time></trkpt><trkpt lat="45.770594056187726" lon="9.811191663858905"><ele>349.0</ele><time>2026-04-17T15:29:06Z</time></trkpt><trkpt lat="45.77047939565645" lon="9.811119595137585"><ele>349.0</ele><time>2026-04-17T15:29:08Z</time></trkpt><trkpt lat="45.77037366329474" lon="9.81104263101813"><ele>349.0</ele><time>2026-04-17T15:29:10Z</time></trkpt><trkpt lat="45.77026844483757" lon="9.810964274246373"><ele>349.0</ele><time>2026-04-17T15:29:12Z</time></trkpt><trkpt lat="45.770165530042945" lon="9.81090093277158"><ele>349.0</ele><time>2026-04-17T15:29:14Z</time></trkpt><trkpt lat="45.77005715549472" lon="9.810842226708079"><ele>349.0</ele><time>2026-04-17T15:29:16Z</time></trkpt><trkpt lat="45.76995487051196" lon="9.810782342246272"><ele>349.0</ele><time>2026-04-17T15:29:18Z</time></trkpt><trkpt lat="45.76986054280269" lon="9.810736144694555"><ele>349.0</ele><time>2026-04-17T15:29:20Z</time></trkpt><trkpt lat="45.76976726311583" lon="9.810687104306975"><ele>349.0</ele><time>2026-04-17T15:29:22Z</time></trkpt><trkpt lat="45.769689166014146" lon="9.810621616016036"><ele>349.0</ele><time>2026-04-17T15:29:24Z</time></trkpt><trkpt lat="45.76960106952583" lon="9.81057201007064"><ele>349.0</ele><time>2026-04-17T15:29:26Z</time></trkpt><trkpt lat="45.76953574196073" lon="9.810568382173907"><ele>349.0</ele><time>2026-04-17T15:29:27Z</time></trkpt><trkpt lat="45.76947323477367" lon="9.810554858673013"><ele>349.0</ele><time>2026-04-17T15:29:28Z</time></trkpt><trkpt lat="45.76941346433478" lon="9.810520297641995"><ele>349.0</ele><time>2026-04-17T15:29:29Z</time></trkpt><trkpt lat="45.769355762020986" lon="9.810478527740948"><ele>349.0</ele><time>2026-04-17T15:29:30Z</time></trkpt><trkpt lat="45.76923831258865" lon="9.810416655134143"><ele>349.0</ele><time>2026-04-17T15:29:32Z</time></trkpt><trkpt lat="45.76912290902606" lon="9.81035650516069"><ele>349.0</ele><time>2026-04-17T15:29:34Z</time></trkpt><trkpt lat="45.76900668574201" lon="9.81029498669711"><ele>349.0</ele><time>2026-04-17T15:29:36Z</time></trkpt><trkpt lat="45.7688942984897" lon="9.810237280518306"><ele>349.0</ele><time>2026-04-17T15:29:38Z</time></trkpt><trkpt lat="45.7687799540796" lon="9.81017594737645"><ele>349.0</ele><time>2026-04-17T15:29:40Z</time></trkpt><trkpt lat="45.768666380141255" lon="9.810115191769047"><ele>349.4</ele><time>2026-04-17T15:29:42Z</time></trkpt><trkpt lat="45.76854944689864" lon="9.810056975685603"><ele>349.79999999999995</ele><time>2026-04-17T15:29:44Z</time></trkpt><trkpt lat="45.76843323879044" lon="9.81000115136347"><ele>350.20000000000005</ele><time>2026-04-17T15:29:46Z</time></trkpt><trkpt lat="45.768317401126524" lon="9.809932942853457"><ele>350.6</ele><time>2026-04-17T15:29:48Z</time></trkpt><trkpt lat="45.7682552523435" lon="9.809905033330256"><ele>351.0</ele><time>2026-04-17T15:29:49Z</time></trkpt><trkpt lat="45.76813860553167" lon="9.809836910007448"><ele>351.00000000000006</ele><time>2026-04-17T15:29:51Z</time></trkpt><trkpt lat="45.768078393589" lon="9.809806677935752"><ele>351.0</ele><time>2026-04-17T15:29:52Z</time></trkpt><trkpt lat="45.768018791192084" lon="9.809775205236232"><ele>351.0</ele><time>2026-04-17T15:29:53Z</time></trkpt><trkpt lat="45.76795818939702" lon="9.809744793166875"><ele>351.0</ele><time>2026-04-17T15:29:54Z</time></trkpt><trkpt lat="45.76789555474916" lon="9.809715733620195"><ele>351.0</ele><time>2026-04-17T15:29:55Z</time></trkpt><trkpt lat="45.76783493114293" lon="9.80968219658704"><ele>351.00000000000006</ele><time>2026-04-17T15:29:56Z</time></trkpt><trkpt lat="45.767771528779086" lon="9.809648976598542"><ele>351.0</ele><time>2026-04-17T15:29:57Z</time></trkpt><trkpt lat="45.767652187436404" lon="9.809583521064537"><ele>349.75</ele><time>2026-04-17T15:29:59Z</time></trkpt><trkpt lat="45.76753445780535" lon="9.809518762355445"><ele>348.5</ele><time>2026-04-17T15:30:01Z</time></trkpt><trkpt lat="45.76741770620572" lon="9.809457180219807"><ele>347.25</ele><time>2026-04-17T15:30:03Z</time></trkpt><trkpt lat="45.767302308201586" lon="9.809398277947306"><ele>346.0</ele><time>2026-04-17T15:30:05Z</time></trkpt><trkpt lat="45.767187988680874" lon="9.8093374370705"><ele>346.0</ele><time>2026-04-17T15:30:07Z</time></trkpt><trkpt lat="45.76707483964058" lon="9.809275950600131"><ele>346.0</ele><time>2026-04-17T15:30:09Z</time></trkpt><trkpt lat="45.76696201881762" lon="9.809219262658573"><ele>346.0</ele><time>2026-04-17T15:30:11Z</time></trkpt><trkpt lat="45.76685128461063" lon="9.809156966674866"><ele>346.0</ele><time>2026-04-17T15:30:13Z</time></trkpt><trkpt lat="45.76673882173767" lon="9.80909686254599"><ele>346.0</ele><time>2026-04-17T15:30:15Z</time></trkpt><trkpt lat="45.76662895153152" lon="9.80904318459979"><ele>346.0</ele><time>2026-04-17T15:30:17Z</time></trkpt><trkpt lat="45.76652236043865" lon="9.80898894264001"><ele>346.0</ele><time>2026-04-17T15:30:19Z</time></trkpt><trkpt lat="45.76646213576791" lon="9.808958913242655"><ele>346.0</ele><time>2026-04-17T15:30:20Z</time></trkpt><trkpt lat="45.76640151921098" lon="9.808922901796421"><ele>346.0</ele><time>2026-04-17T15:30:21Z</time></trkpt><trkpt lat="45.76634231507812" lon="9.80889176167188"><ele>346.0</ele><time>2026-04-17T15:30:22Z</time></trkpt><trkpt lat="45.766279923627486" lon="9.808863417118923"><ele>346.0</ele><time>2026-04-17T15:30:23Z</time></trkpt><trkpt lat="45.7662200752209" lon="9.808826344618563"><ele>346.0</ele><time>2026-04-17T15:30:24Z</time></trkpt><trkpt lat="45.766157674373794" lon="9.808794886054626"><ele>346.0</ele><time>2026-04-17T15:30:25Z</time></trkpt><trkpt lat="45.76609530910486" lon="9.808770973094198"><ele>346.0</ele><time>2026-04-17T15:30:26Z</time></trkpt><trkpt lat="45.766032444798036" lon="9.808725167656917"><ele>346.0</ele><time>2026-04-17T15:30:27Z</time></trkpt><trkpt lat="45.76597162514466" lon="9.808697099857143"><ele>346.0</ele><time>2026-04-17T15:30:28Z</time></trkpt><trkpt lat="45.765909594562714" lon="9.808669409507086"><ele>346.0</ele><time>2026-04-17T15:30:29Z</time></trkpt><trkpt lat="45.7658493181601" lon="9.808637733776148"><ele>347.0</ele><time>2026-04-17T15:30:30Z</time></trkpt><trkpt lat="45.76578843575938" lon="9.808606679548964"><ele>348.0</ele><time>2026-04-17T15:30:31Z</time></trkpt><trkpt lat="45.76572846642086" lon="9.808572811802108"><ele>349.0</ele><time>2026-04-17T15:30:32Z</time></trkpt><trkpt lat="45.765610641285306" lon="9.808509934796337"><ele>350.0</ele><time>2026-04-17T15:30:34Z</time></trkpt><trkpt lat="45.765491020712666" lon="9.808438969367694"><ele>351.0</ele><time>2026-04-17T15:30:36Z</time></trkpt><trkpt lat="45.76536667539862" lon="9.80836622818578"><ele>351.00000000000006</ele><time>2026-04-17T15:30:38Z</time></trkpt><trkpt lat="45.765304815121205" lon="9.808348333674221"><ele>351.0</ele><time>2026-04-17T15:30:39Z</time></trkpt><trkpt lat="45.76524261422028" lon="9.808313182013018"><ele>351.0</ele><time>2026-04-17T15:30:40Z</time></trkpt><trkpt lat="45.76517830246057" lon="9.808282682053973"><ele>351.0</ele><time>2026-04-17T15:30:41Z</time></trkpt><trkpt lat="45.76511680516601" lon="9.808248222124334"><ele>351.0</ele><time>2026-04-17T15:30:42Z</time></trkpt><trkpt lat="45.76505389234584" lon="9.808216301540934"><ele>351.00000000000006</ele><time>2026-04-17T15:30:43Z</time></trkpt><trkpt lat="45.76499202583748" lon="9.808177595911518"><ele>351.0</ele><time>2026-04-17T15:30:44Z</time></trkpt><trkpt lat="45.764932525390016" lon="9.808144400887656"><ele>349.6666666666667</ele><time>2026-04-17T15:30:45Z</time></trkpt><trkpt lat="45.76486888665444" lon="9.808117131627569"><ele>348.3333333333333</ele><time>2026-04-17T15:30:46Z</time></trkpt><trkpt lat="45.76480952352433" lon="9.808076564038188"><ele>347.0</ele><time>2026-04-17T15:30:47Z</time></trkpt><trkpt lat="45.76474986482219" lon="9.8080397913158"><ele>345.66666666666663</ele><time>2026-04-17T15:30:48Z</time></trkpt><trkpt lat="45.76469299329554" lon="9.807996705775219"><ele>344.3333333333333</ele><time>2026-04-17T15:30:49Z</time></trkpt><trkpt lat="45.76458028919684" lon="9.807903358453597"><ele>343.0</ele><time>2026-04-17T15:30:51Z</time></trkpt><trkpt lat="45.764472223147095" lon="9.80780355748809"><ele>343.0</ele><time>2026-04-17T15:30:53Z</time></trkpt><trkpt lat="45.764421127197096" lon="9.807746997417498"><ele>343.0</ele><time>2026-04-17T15:30:54Z</time></trkpt><trkpt lat="45.7643698716905" lon="9.807690238213011"><ele>343.0</ele><time>2026-04-17T15:30:55Z</time></trkpt><trkpt lat="45.76431054608978" lon="9.807636405414351"><ele>343.0</ele><time>2026-04-17T15:30:56Z</time></trkpt><trkpt lat="45.764267253276934" lon="9.807566471136141"><ele>343.0</ele><time>2026-04-17T15:30:57Z</time></trkpt><trkpt lat="45.764219025870055" lon="9.807506791535166"><ele>343.0</ele><time>2026-04-17T15:30:58Z</time></trkpt><trkpt lat="45.76417342032646" lon="9.80744133259719"><ele>343.0</ele><time>2026-04-17T15:30:59Z</time></trkpt><trkpt lat="45.76412266094041" lon="9.807371883718284"><ele>342.7142857142857</ele><time>2026-04-17T15:31:00Z</time></trkpt><trkpt lat="45.764077150537325" lon="9.807300642686517"><ele>342.42857142857144</ele><time>2026-04-17T15:31:01Z</time></trkpt><trkpt lat="45.764032509547334" lon="9.80722837533719"><ele>342.1428571428571</ele><time>2026-04-17T15:31:02Z</time></trkpt><trkpt lat="45.76398842150623" lon="9.807154632541936"><ele>341.8571428571429</ele><time>2026-04-17T15:31:03Z</time></trkpt><trkpt lat="45.76394401023934" lon="9.807083955054548"><ele>341.57142857142856</ele><time>2026-04-17T15:31:04Z</time></trkpt><trkpt lat="45.763901801152706" lon="9.807011034258785"><ele>341.2857142857143</ele><time>2026-04-17T15:31:05Z</time></trkpt><trkpt lat="45.763852361127284" lon="9.806936984154582"><ele>341.0</ele><time>2026-04-17T15:31:06Z</time></trkpt><trkpt lat="45.763811897130545" lon="9.806863035416924"><ele>341.42857142857144</ele><time>2026-04-17T15:31:07Z</time></trkpt><trkpt lat="45.76376937745406" lon="9.80679054070956"><ele>341.8571428571429</ele><time>2026-04-17T15:31:08Z</time></trkpt><trkpt lat="45.76372629602965" lon="9.80671739840894"><ele>342.28571428571433</ele><time>2026-04-17T15:31:09Z</time></trkpt><trkpt lat="45.76368263029075" lon="9.806647078110428"><ele>342.7142857142857</ele><time>2026-04-17T15:31:10Z</time></trkpt><trkpt lat="45.76364048316085" lon="9.80657174622264"><ele>343.14285714285717</ele><time>2026-04-17T15:31:11Z</time></trkpt><trkpt lat="45.76359798735509" lon="9.806498023139401"><ele>343.5714285714286</ele><time>2026-04-17T15:31:12Z</time></trkpt><trkpt lat="45.763556476226746" lon="9.806423684473033"><ele>344.0</ele><time>2026-04-17T15:31:13Z</time></trkpt><trkpt lat="45.76350974668535" lon="9.80634905792671"><ele>342.83333333333337</ele><time>2026-04-17T15:31:14Z</time></trkpt><trkpt lat="45.763466606196594" lon="9.80627686503183"><ele>341.6666666666667</ele><time>2026-04-17T15:31:15Z</time></trkpt><trkpt lat="45.76342815394631" lon="9.80620259800813"><ele>340.5</ele><time>2026-04-17T15:31:16Z</time></trkpt><trkpt lat="45.763382889545746" lon="9.806127520525862"><ele>339.3333333333333</ele><time>2026-04-17T15:31:17Z</time></trkpt><trkpt lat="45.76333461120062" lon="9.806051139300276"><ele>338.16666666666663</ele><time>2026-04-17T15:31:18Z</time></trkpt><trkpt lat="45.76324971929192" lon="9.805907040430405"><ele>337.0</ele><time>2026-04-17T15:31:20Z</time></trkpt><trkpt lat="45.76321315615359" lon="9.805830489479595"><ele>337.00000000000006</ele><time>2026-04-17T15:31:21Z</time></trkpt><trkpt lat="45.76317742144652" lon="9.80575462891451"><ele>337.0</ele><time>2026-04-17T15:31:22Z</time></trkpt><trkpt lat="45.763113404326724" lon="9.805678930252382"><ele>337.0</ele><time>2026-04-17T15:31:23Z</time></trkpt><trkpt lat="45.76307256651586" lon="9.805604087257105"><ele>337.0</ele><time>2026-04-17T15:31:24Z</time></trkpt><trkpt lat="45.76303384551149" lon="9.80552859334122"><ele>337.0</ele><time>2026-04-17T15:31:25Z</time></trkpt><trkpt lat="45.76299372678014" lon="9.805454844186768"><ele>337.00000000000006</ele><time>2026-04-17T15:31:26Z</time></trkpt><trkpt lat="45.76295294138142" lon="9.805383620808717"><ele>337.0</ele><time>2026-04-17T15:31:27Z</time></trkpt><trkpt lat="45.76291094169799" lon="9.805312772244028"><ele>337.00000000000006</ele><time>2026-04-17T15:31:28Z</time></trkpt><trkpt lat="45.76286034532254" lon="9.805247600532597"><ele>337.0</ele><time>2026-04-17T15:31:29Z</time></trkpt><trkpt lat="45.762813070529546" lon="9.80517709109291"><ele>337.0</ele><time>2026-04-17T15:31:30Z</time></trkpt><trkpt lat="45.76276938525239" lon="9.805105908415745"><ele>337.0</ele><time>2026-04-17T15:31:31Z</time></trkpt><trkpt lat="45.762722146299396" lon="9.805041164885528"><ele>337.0</ele><time>2026-04-17T15:31:32Z</time></trkpt><trkpt lat="45.762676730932576" lon="9.80497046132417"><ele>337.00000000000006</ele><time>2026-04-17T15:31:33Z</time></trkpt><trkpt lat="45.7626264704162" lon="9.80489951594188"><ele>337.0</ele><time>2026-04-17T15:31:34Z</time></trkpt><trkpt lat="45.76257796605497" lon="9.804834485894354"><ele>336.8571428571429</ele><time>2026-04-17T15:31:35Z</time></trkpt><trkpt lat="45.762537258818114" lon="9.804755543680471"><ele>336.7142857142857</ele><time>2026-04-17T15:31:36Z</time></trkpt><trkpt lat="45.76249863534392" lon="9.804676595328113"><ele>336.57142857142856</ele><time>2026-04-17T15:31:37Z</time></trkpt><trkpt lat="45.762456655893786" lon="9.804600746569308"><ele>336.42857142857144</ele><time>2026-04-17T15:31:38Z</time></trkpt><trkpt lat="45.76242053048125" lon="9.804523063331695"><ele>336.2857142857143</ele><time>2026-04-17T15:31:39Z</time></trkpt><trkpt lat="45.76238280270268" lon="9.80444711408191"><ele>336.14285714285717</ele><time>2026-04-17T15:31:40Z</time></trkpt><trkpt lat="45.76234561012001" lon="9.80437182971669"><ele>336.0</ele><time>2026-04-17T15:31:41Z</time></trkpt><trkpt lat="45.762306541636214" lon="9.804298074806395"><ele>336.3333333333333</ele><time>2026-04-17T15:31:42Z</time></trkpt><trkpt lat="45.76222676660013" lon="9.804154516321873"><ele>336.6666666666667</ele><time>2026-04-17T15:31:44Z</time></trkpt><trkpt lat="45.76218481139184" lon="9.804084349899828"><ele>337.0</ele><time>2026-04-17T15:31:45Z</time></trkpt><trkpt lat="45.762141172222776" lon="9.804014699735893"><ele>337.33333333333337</ele><time>2026-04-17T15:31:46Z</time></trkpt><trkpt lat="45.76210189408603" lon="9.803941733511367"><ele>337.6666666666667</ele><time>2026-04-17T15:31:47Z</time></trkpt><trkpt lat="45.76201629253244" lon="9.803814046932503"><ele>338.0</ele><time>2026-04-17T15:31:49Z</time></trkpt><trkpt lat="45.76193966269808" lon="9.803686656371656"><ele>338.0</ele><time>2026-04-17T15:31:51Z</time></trkpt><trkpt lat="45.76187635119234" lon="9.803558199893038"><ele>338.0</ele><time>2026-04-17T15:31:53Z</time></trkpt><trkpt lat="45.76183127973385" lon="9.803484051546606"><ele>338.0</ele><time>2026-04-17T15:31:54Z</time></trkpt><trkpt lat="45.76178924115525" lon="9.803415322188316"><ele>338.0</ele><time>2026-04-17T15:31:55Z</time></trkpt><trkpt lat="45.761713230398165" lon="9.803273288489416"><ele>338.0</ele><time>2026-04-17T15:31:57Z</time></trkpt><trkpt lat="45.76166741420582" lon="9.803202172681168"><ele>338.0</ele><time>2026-04-17T15:31:58Z</time></trkpt><trkpt lat="45.76162514004116" lon="9.803131860879729"><ele>337.57142857142856</ele><time>2026-04-17T15:31:59Z</time></trkpt><trkpt lat="45.76158214014707" lon="9.803060940486349"><ele>337.1428571428571</ele><time>2026-04-17T15:32:00Z</time></trkpt><trkpt lat="45.76154055725784" lon="9.80299113746049"><ele>336.71428571428567</ele><time>2026-04-17T15:32:01Z</time></trkpt><trkpt lat="45.76150103089963" lon="9.802919857333805"><ele>336.2857142857143</ele><time>2026-04-17T15:32:02Z</time></trkpt><trkpt lat="45.76145763979274" lon="9.802849674820198"><ele>335.85714285714283</ele><time>2026-04-17T15:32:03Z</time></trkpt><trkpt lat="45.761414636567665" lon="9.802777747739224"><ele>335.4285714285714</ele><time>2026-04-17T15:32:04Z</time></trkpt><trkpt lat="45.76137168188686" lon="9.80271036052162"><ele>335.0</ele><time>2026-04-17T15:32:05Z</time></trkpt><trkpt lat="45.76133088819861" lon="9.8026337889468"><ele>335.0</ele><time>2026-04-17T15:32:06Z</time></trkpt><trkpt lat="45.76129815985314" lon="9.802554862259127"><ele>335.0</ele><time>2026-04-17T15:32:07Z</time></trkpt><trkpt lat="45.76124551716422" lon="9.802493878154907"><ele>335.0</ele><time>2026-04-17T15:32:08Z</time></trkpt><trkpt lat="45.761208020832036" lon="9.80241561776619"><ele>335.0</ele><time>2026-04-17T15:32:09Z</time></trkpt><trkpt lat="45.76112636914024" lon="9.802273505209362"><ele>335.0</ele><time>2026-04-17T15:32:11Z</time></trkpt><trkpt lat="45.7610450638204" lon="9.802139736941218"><ele>334.0</ele><time>2026-04-17T15:32:13Z</time></trkpt><trkpt lat="45.76096642740503" lon="9.802007849458777"><ele>333.0</ele><time>2026-04-17T15:32:15Z</time></trkpt><trkpt lat="45.76088855831369" lon="9.801879692885178"><ele>332.0</ele><time>2026-04-17T15:32:17Z</time></trkpt><trkpt lat="45.760813912559264" lon="9.801754026032732"><ele>331.0</ele><time>2026-04-17T15:32:19Z</time></trkpt><trkpt lat="45.76074201453851" lon="9.801627723681774"><ele>331.0</ele><time>2026-04-17T15:32:21Z</time></trkpt><trkpt lat="45.76067631071195" lon="9.801506070270728"><ele>331.0</ele><time>2026-04-17T15:32:23Z</time></trkpt><trkpt lat="45.760605951396236" lon="9.801388624088233"><ele>331.0</ele><time>2026-04-17T15:32:25Z</time></trkpt><trkpt lat="45.760540515458175" lon="9.80127320052009"><ele>331.0</ele><time>2026-04-17T15:32:27Z</time></trkpt><trkpt lat="45.76047635317247" lon="9.80116268141129"><ele>331.0</ele><time>2026-04-17T15:32:29Z</time></trkpt><trkpt lat="45.76041659785366" lon="9.801060931702088"><ele>331.0</ele><time>2026-04-17T15:32:31Z</time></trkpt><trkpt lat="45.76035884027115" lon="9.800961893566821"><ele>331.0</ele><time>2026-04-17T15:32:33Z</time></trkpt><trkpt lat="45.76029652079258" lon="9.800848096574807"><ele>331.0</ele><time>2026-04-17T15:32:35Z</time></trkpt><trkpt lat="45.76023680435378" lon="9.800752076038941"><ele>331.0</ele><time>2026-04-17T15:32:37Z</time></trkpt><trkpt lat="45.76018022222458" lon="9.80065769785972"><ele>331.0</ele><time>2026-04-17T15:32:39Z</time></trkpt><trkpt lat="45.76011248939263" lon="9.800533540044775"><ele>331.0</ele><time>2026-04-17T15:32:41Z</time></trkpt><trkpt lat="45.76004035273424" lon="9.800413451159287"><ele>331.0</ele><time>2026-04-17T15:32:43Z</time></trkpt><trkpt lat="45.7599699525115" lon="9.800290602838755"><ele>331.0</ele><time>2026-04-17T15:32:45Z</time></trkpt><trkpt lat="45.75992852278511" lon="9.800220100635528"><ele>331.0</ele><time>2026-04-17T15:32:46Z</time></trkpt><trkpt lat="45.75984716932828" lon="9.800085304596266"><ele>331.0</ele><time>2026-04-17T15:32:48Z</time></trkpt><trkpt lat="45.75976466504629" lon="9.799946721586856"><ele>331.75</ele><time>2026-04-17T15:32:50Z</time></trkpt><trkpt lat="45.75968644126119" lon="9.799818423934884"><ele>332.5</ele><time>2026-04-17T15:32:52Z</time></trkpt><trkpt lat="45.75961555201689" lon="9.799689798148266"><ele>333.25</ele><time>2026-04-17T15:32:54Z</time></trkpt><trkpt lat="45.75953544186918" lon="9.79955557737224"><ele>334.0</ele><time>2026-04-17T15:32:56Z</time></trkpt><trkpt lat="45.759458014323904" lon="9.799423365931817"><ele>333.5</ele><time>2026-04-17T15:32:58Z</time></trkpt><trkpt lat="45.759373407261094" lon="9.799293644631918"><ele>333.0</ele><time>2026-04-17T15:33:00Z</time></trkpt><trkpt lat="45.759293524762505" lon="9.799161634223148"><ele>332.5</ele><time>2026-04-17T15:33:02Z</time></trkpt><trkpt lat="45.7592151299942" lon="9.799024425082445"><ele>332.0</ele><time>2026-04-17T15:33:04Z</time></trkpt><trkpt lat="45.75914106812941" lon="9.798888874695432"><ele>332.0</ele><time>2026-04-17T15:33:06Z</time></trkpt><trkpt lat="45.75906157716176" lon="9.79875693893006"><ele>332.0</ele><time>2026-04-17T15:33:08Z</time></trkpt><trkpt lat="45.75898264351309" lon="9.798630149474649"><ele>332.0</ele><time>2026-04-17T15:33:10Z</time></trkpt><trkpt lat="45.75890039039738" lon="9.798503114804138"><ele>332.0</ele><time>2026-04-17T15:33:12Z</time></trkpt><trkpt lat="45.75881660636147" lon="9.798377404889312"><ele>332.20000000000005</ele><time>2026-04-17T15:33:14Z</time></trkpt><trkpt lat="45.758737059040826" lon="9.798249486789407"><ele>332.4</ele><time>2026-04-17T15:33:16Z</time></trkpt><trkpt lat="45.75865726669683" lon="9.798129381516379"><ele>332.6</ele><time>2026-04-17T15:33:18Z</time></trkpt><trkpt lat="45.75858881659944" lon="9.798014677131603"><ele>332.79999999999995</ele><time>2026-04-17T15:33:20Z</time></trkpt><trkpt lat="45.758523964293545" lon="9.797912956692985"><ele>333.0</ele><time>2026-04-17T15:33:22Z</time></trkpt><trkpt lat="45.7584775746738" lon="9.797813946819558"><ele>333.0</ele><time>2026-04-17T15:33:24Z</time></trkpt><trkpt lat="45.75845021104889" lon="9.797722895328336"><ele>333.0</ele><time>2026-04-17T15:33:27Z</time></trkpt><trkpt lat="45.758456813648074" lon="9.797610050286998"><ele>333.0</ele><time>2026-04-17T15:33:31Z</time></trkpt><trkpt lat="45.7585305428504" lon="9.797552116818217"><ele>333.0</ele><time>2026-04-17T15:33:33Z</time></trkpt><trkpt lat="45.758564525279716" lon="9.797448146968955"><ele>333.0</ele><time>2026-04-17T15:33:35Z</time></trkpt><trkpt lat="45.758475276979055" lon="9.797366691141162"><ele>333.0</ele><time>2026-04-17T15:33:37Z</time></trkpt><trkpt lat="45.75841238080838" lon="9.797362227148403"><ele>332.59999999999997</ele><time>2026-04-17T15:33:38Z</time></trkpt><trkpt lat="45.75828781474542" lon="9.797334766585735"><ele>332.2</ele><time>2026-04-17T15:33:40Z</time></trkpt><trkpt lat="45.75823377757145" lon="9.797277493145312"><ele>331.8</ele><time>2026-04-17T15:33:41Z</time></trkpt><trkpt lat="45.758154336853686" lon="9.797142698321547"><ele>331.4</ele><time>2026-04-17T15:33:43Z</time></trkpt><trkpt lat="45.75808571990351" lon="9.797013268171659"><ele>331.0</ele><time>2026-04-17T15:33:45Z</time></trkpt><trkpt lat="45.75801235588126" lon="9.796893312394548"><ele>330.4</ele><time>2026-04-17T15:33:47Z</time></trkpt><trkpt lat="45.75794846313973" lon="9.79676962266411"><ele>329.8</ele><time>2026-04-17T15:33:49Z</time></trkpt><trkpt lat="45.75787783644456" lon="9.796659051989895"><ele>329.2</ele><time>2026-04-17T15:33:51Z</time></trkpt><trkpt lat="45.7578180750326" lon="9.796546488218095"><ele>328.59999999999997</ele><time>2026-04-17T15:33:53Z</time></trkpt><trkpt lat="45.75774289245758" lon="9.796455659137276"><ele>328.0</ele><time>2026-04-17T15:33:55Z</time></trkpt><trkpt lat="45.75767238663112" lon="9.796340221871228"><ele>328.0</ele><time>2026-04-17T15:33:57Z</time></trkpt><trkpt lat="45.75762999578037" lon="9.796272114265511"><ele>328.0</ele><time>2026-04-17T15:33:58Z</time></trkpt><trkpt lat="45.75758982937666" lon="9.796200476820687"><ele>328.0</ele><time>2026-04-17T15:33:59Z</time></trkpt><trkpt lat="45.75751289490776" lon="9.796054233545052"><ele>328.0</ele><time>2026-04-17T15:34:01Z</time></trkpt><trkpt lat="45.7574313903284" lon="9.795912996543986"><ele>328.0</ele><time>2026-04-17T15:34:03Z</time></trkpt><trkpt lat="45.7573604896495" lon="9.795763637921242"><ele>328.2</ele><time>2026-04-17T15:34:05Z</time></trkpt><trkpt lat="45.75732520430385" lon="9.795687708212972"><ele>328.4</ele><time>2026-04-17T15:34:06Z</time></trkpt><trkpt lat="45.7572620555529" lon="9.7955345988808"><ele>328.59999999999997</ele><time>2026-04-17T15:34:08Z</time></trkpt><trkpt lat="45.757231469876366" lon="9.795453475448143"><ele>328.79999999999995</ele><time>2026-04-17T15:34:09Z</time></trkpt><trkpt lat="45.75718060612752" lon="9.795288197265059"><ele>329.0</ele><time>2026-04-17T15:34:11Z</time></trkpt><trkpt lat="45.75712973963381" lon="9.795122618468826"><ele>329.4</ele><time>2026-04-17T15:34:13Z</time></trkpt><trkpt lat="45.757088542860885" lon="9.794955224371176"><ele>329.79999999999995</ele><time>2026-04-17T15:34:15Z</time></trkpt><trkpt lat="45.75705251513046" lon="9.794783840588797"><ele>330.20000000000005</ele><time>2026-04-17T15:34:17Z</time></trkpt><trkpt lat="45.75704104797655" lon="9.794694850363438"><ele>330.6</ele><time>2026-04-17T15:34:18Z</time></trkpt><trkpt lat="45.75701673163296" lon="9.794521339247062"><ele>331.0</ele><time>2026-04-17T15:34:20Z</time></trkpt><trkpt lat="45.75700023070496" lon="9.794342598777737"><ele>331.25</ele><time>2026-04-17T15:34:22Z</time></trkpt><trkpt lat="45.75698796748959" lon="9.79416847887117"><ele>331.5</ele><time>2026-04-17T15:34:24Z</time></trkpt><trkpt lat="45.75697195394115" lon="9.793996894129702"><ele>331.75</ele><time>2026-04-17T15:34:26Z</time></trkpt><trkpt lat="45.756951282321026" lon="9.793819416994372"><ele>332.0</ele><time>2026-04-17T15:34:28Z</time></trkpt><trkpt lat="45.75694633100356" lon="9.793649947165335"><ele>332.40000000000003</ele><time>2026-04-17T15:34:30Z</time></trkpt><trkpt lat="45.75693779112035" lon="9.793477049770885"><ele>332.8</ele><time>2026-04-17T15:34:32Z</time></trkpt><trkpt lat="45.75692945215527" lon="9.793385448998176"><ele>333.2</ele><time>2026-04-17T15:34:33Z</time></trkpt><trkpt lat="45.756923298396" lon="9.7932939909572"><ele>333.6</ele><time>2026-04-17T15:34:34Z</time></trkpt><trkpt lat="45.75690784426276" lon="9.793115654153581"><ele>334.0</ele><time>2026-04-17T15:34:36Z</time></trkpt><trkpt lat="45.756892501349995" lon="9.792946773762747"><ele>333.0</ele><time>2026-04-17T15:34:38Z</time></trkpt><trkpt lat="45.75686785213774" lon="9.792774974224322"><ele>332.0</ele><time>2026-04-17T15:34:40Z</time></trkpt><trkpt lat="45.75685638650201" lon="9.792597231390507"><ele>331.0</ele><time>2026-04-17T15:34:42Z</time></trkpt><trkpt lat="45.75685532909342" lon="9.792499270673902"><ele>330.0</ele><time>2026-04-17T15:34:43Z</time></trkpt><trkpt lat="45.75685208814158" lon="9.792324519828588"><ele>329.0</ele><time>2026-04-17T15:34:45Z</time></trkpt><trkpt lat="45.75684662432961" lon="9.792234043481038"><ele>328.79999999999995</ele><time>2026-04-17T15:34:46Z</time></trkpt><trkpt lat="45.75683462290574" lon="9.792058036826289"><ele>328.59999999999997</ele><time>2026-04-17T15:34:48Z</time></trkpt><trkpt lat="45.756825847901524" lon="9.791880883365264"><ele>328.4</ele><time>2026-04-17T15:34:50Z</time></trkpt><trkpt lat="45.75681751816183" lon="9.791705812682816"><ele>328.2</ele><time>2026-04-17T15:34:52Z</time></trkpt><trkpt lat="45.756803479804084" lon="9.791605346534718"><ele>328.0</ele><time>2026-04-17T15:34:53Z</time></trkpt><trkpt lat="45.75679683603665" lon="9.791435433966578"><ele>328.0</ele><time>2026-04-17T15:34:55Z</time></trkpt><trkpt lat="45.75678901752706" lon="9.791250818208448"><ele>328.0</ele><time>2026-04-17T15:34:57Z</time></trkpt><trkpt lat="45.75676314522833" lon="9.791075583212507"><ele>328.0</ele><time>2026-04-17T15:34:59Z</time></trkpt><trkpt lat="45.75675356923547" lon="9.790910470824043"><ele>328.0</ele><time>2026-04-17T15:35:01Z</time></trkpt><trkpt lat="45.75680961043059" lon="9.790767074891951"><ele>328.16666666666663</ele><time>2026-04-17T15:35:03Z</time></trkpt><trkpt lat="45.756884736316074" lon="9.790629624474127"><ele>328.3333333333333</ele><time>2026-04-17T15:35:05Z</time></trkpt><trkpt lat="45.75687698392315" lon="9.790534997049367"><ele>328.5</ele><time>2026-04-17T15:35:06Z</time></trkpt><trkpt lat="45.75683330475097" lon="9.790456693169862"><ele>328.6666666666667</ele><time>2026-04-17T15:35:07Z</time></trkpt><trkpt lat="45.756772015956734" lon="9.790413780719154"><ele>328.83333333333337</ele><time>2026-04-17T15:35:08Z</time></trkpt><trkpt lat="45.75670597276769" lon="9.79039766844438"><ele>329.0</ele><time>2026-04-17T15:35:09Z</time></trkpt><trkpt lat="45.75662062324531" lon="9.790276197767167"><ele>328.7142857142857</ele><time>2026-04-17T15:35:11Z</time></trkpt><trkpt lat="45.756614832175046" lon="9.790174454208893"><ele>328.42857142857144</ele><time>2026-04-17T15:35:12Z</time></trkpt><trkpt lat="45.75660149003466" lon="9.790082441460216"><ele>328.1428571428571</ele><time>2026-04-17T15:35:13Z</time></trkpt><trkpt lat="45.756584057808176" lon="9.78999078978179"><ele>327.8571428571429</ele><time>2026-04-17T15:35:14Z</time></trkpt><trkpt lat="45.756564060156066" lon="9.789900961761127"><ele>327.57142857142856</ele><time>2026-04-17T15:35:15Z</time></trkpt><trkpt lat="45.75654162911904" lon="9.789810830687781"><ele>327.2857142857143</ele><time>2026-04-17T15:35:16Z</time></trkpt><trkpt lat="45.75652142758822" lon="9.78971971677223"><ele>327.0</ele><time>2026-04-17T15:35:17Z</time></trkpt><trkpt lat="45.756502631305494" lon="9.789627684429343"><ele>327.0</ele><time>2026-04-17T15:35:18Z</time></trkpt><trkpt lat="45.756481810087465" lon="9.789537357538961"><ele>327.0</ele><time>2026-04-17T15:35:19Z</time></trkpt><trkpt lat="45.756459455226036" lon="9.789450024799278"><ele>327.0</ele><time>2026-04-17T15:35:20Z</time></trkpt><trkpt lat="45.75643413834697" lon="9.789363889892133"><ele>327.0</ele><time>2026-04-17T15:35:21Z</time></trkpt><trkpt lat="45.75641083981702" lon="9.789275648739661"><ele>327.0</ele><time>2026-04-17T15:35:22Z</time></trkpt><trkpt lat="45.75638822062448" lon="9.789187089724505"><ele>327.0</ele><time>2026-04-17T15:35:23Z</time></trkpt><trkpt lat="45.75636761215677" lon="9.789096454386947"><ele>327.0</ele><time>2026-04-17T15:35:24Z</time></trkpt><trkpt lat="45.7563452739118" lon="9.789007181817869"><ele>327.1428571428571</ele><time>2026-04-17T15:35:25Z</time></trkpt><trkpt lat="45.75632045152155" lon="9.788921490661519"><ele>327.2857142857143</ele><time>2026-04-17T15:35:26Z</time></trkpt><trkpt lat="45.75629886808363" lon="9.78883147247296"><ele>327.42857142857144</ele><time>2026-04-17T15:35:27Z</time></trkpt><trkpt lat="45.75627933034767" lon="9.788741611291275"><ele>327.57142857142856</ele><time>2026-04-17T15:35:28Z</time></trkpt><trkpt lat="45.75624928878331" lon="9.788660530841877"><ele>327.7142857142857</ele><time>2026-04-17T15:35:29Z</time></trkpt><trkpt lat="45.7562170800297" lon="9.788579937941611"><ele>327.85714285714283</ele><time>2026-04-17T15:35:30Z</time></trkpt><trkpt lat="45.75618885862593" lon="9.788499005577155"><ele>328.0</ele><time>2026-04-17T15:35:31Z</time></trkpt><trkpt lat="45.75615372303811" lon="9.788325585079633"><ele>328.0</ele><time>2026-04-17T15:35:33Z</time></trkpt><trkpt lat="45.756106091933646" lon="9.788155257460406"><ele>328.0</ele><time>2026-04-17T15:35:35Z</time></trkpt><trkpt lat="45.75607658489591" lon="9.787980310529878"><ele>328.0</ele><time>2026-04-17T15:35:37Z</time></trkpt><trkpt lat="45.756037207794506" lon="9.787799092238357"><ele>328.0</ele><time>2026-04-17T15:35:39Z</time></trkpt><trkpt lat="45.756015844429605" lon="9.787708901657956"><ele>327.71428571428567</ele><time>2026-04-17T15:35:40Z</time></trkpt><trkpt lat="45.75599124436913" lon="9.78761984998357"><ele>327.42857142857144</ele><time>2026-04-17T15:35:41Z</time></trkpt><trkpt lat="45.75596438599277" lon="9.78753246595846"><ele>327.1428571428571</ele><time>2026-04-17T15:35:42Z</time></trkpt><trkpt lat="45.7559409850388" lon="9.787448597843644"><ele>326.85714285714283</ele><time>2026-04-17T15:35:43Z</time></trkpt><trkpt lat="45.75591976047792" lon="9.787359485114646"><ele>326.57142857142856</ele><time>2026-04-17T15:35:44Z</time></trkpt><trkpt lat="45.755893967218036" lon="9.787271447015357"><ele>326.2857142857143</ele><time>2026-04-17T15:35:45Z</time></trkpt><trkpt lat="45.7558672358522" lon="9.787182105280355"><ele>326.0</ele><time>2026-04-17T15:35:46Z</time></trkpt><trkpt lat="45.75582169432604" lon="9.787010495521397"><ele>326.0</ele><time>2026-04-17T15:35:48Z</time></trkpt><trkpt lat="45.75580568516041" lon="9.786902800835394"><ele>326.0</ele><time>2026-04-17T15:35:49Z</time></trkpt><trkpt lat="45.75574143553726" lon="9.786736344554672"><ele>326.0</ele><time>2026-04-17T15:35:51Z</time></trkpt><trkpt lat="45.75571052731524" lon="9.78665067725476"><ele>326.0</ele><time>2026-04-17T15:35:52Z</time></trkpt><trkpt lat="45.75568043524319" lon="9.786564307633443"><ele>326.0</ele><time>2026-04-17T15:35:53Z</time></trkpt><trkpt lat="45.75564330005288" lon="9.786480571949875"><ele>326.0</ele><time>2026-04-17T15:35:54Z</time></trkpt><trkpt lat="45.75561013155587" lon="9.786397366171443"><ele>326.0</ele><time>2026-04-17T15:35:55Z</time></trkpt><trkpt lat="45.75557298551923" lon="9.786322553725121"><ele>326.0</ele><time>2026-04-17T15:35:56Z</time></trkpt><trkpt lat="45.755539602158954" lon="9.786240158596929"><ele>326.0</ele><time>2026-04-17T15:35:57Z</time></trkpt><trkpt lat="45.755519079147206" lon="9.7861534649231"><ele>326.0</ele><time>2026-04-17T15:35:58Z</time></trkpt><trkpt lat="45.75552277012714" lon="9.786055400542034"><ele>326.0</ele><time>2026-04-17T15:35:59Z</time></trkpt><trkpt lat="45.75555994232192" lon="9.785882117492195"><ele>326.0</ele><time>2026-04-17T15:36:01Z</time></trkpt><trkpt lat="45.755555082264934" lon="9.785714606122667"><ele>326.0</ele><time>2026-04-17T15:36:03Z</time></trkpt><trkpt lat="45.755522957005134" lon="9.785636020290289"><ele>326.0</ele><time>2026-04-17T15:36:04Z</time></trkpt><trkpt lat="45.75546681327105" lon="9.785586241548627"><ele>326.0</ele><time>2026-04-17T15:36:05Z</time></trkpt><trkpt lat="45.75540231225347" lon="9.785557894890752"><ele>326.0</ele><time>2026-04-17T15:36:06Z</time></trkpt><trkpt lat="45.75533844759517" lon="9.785534766386574"><ele>326.0</ele><time>2026-04-17T15:36:07Z</time></trkpt><trkpt lat="45.755274957089696" lon="9.785519288336076"><ele>326.0</ele><time>2026-04-17T15:36:08Z</time></trkpt><trkpt lat="45.755213264389695" lon="9.785496101722375"><ele>326.0</ele><time>2026-04-17T15:36:09Z</time></trkpt><trkpt lat="45.755155176965104" lon="9.785454804658983"><ele>325.625</ele><time>2026-04-17T15:36:10Z</time></trkpt><trkpt lat="45.755100769483214" lon="9.78540295073603"><ele>325.25</ele><time>2026-04-17T15:36:11Z</time></trkpt><trkpt lat="45.75504633184149" lon="9.785355408987828"><ele>324.875</ele><time>2026-04-17T15:36:12Z</time></trkpt><trkpt lat="45.75499212571185" lon="9.785307739971238"><ele>324.5</ele><time>2026-04-17T15:36:13Z</time></trkpt><trkpt lat="45.75493871860609" lon="9.78525786219613"><ele>324.125</ele><time>2026-04-17T15:36:14Z</time></trkpt><trkpt lat="45.754885091347525" lon="9.785207669746349"><ele>323.75</ele><time>2026-04-17T15:36:15Z</time></trkpt><trkpt lat="45.75482797570107" lon="9.78516528452958"><ele>323.375</ele><time>2026-04-17T15:36:16Z</time></trkpt><trkpt lat="45.75477169688839" lon="9.78511976027678"><ele>323.0</ele><time>2026-04-17T15:36:17Z</time></trkpt><trkpt lat="45.754658373067656" lon="9.785032589875224"><ele>323.00000000000006</ele><time>2026-04-17T15:36:19Z</time></trkpt><trkpt lat="45.75460283789162" lon="9.784987075296941"><ele>323.0</ele><time>2026-04-17T15:36:20Z</time></trkpt><trkpt lat="45.75454828350361" lon="9.78493682922534"><ele>323.0</ele><time>2026-04-17T15:36:21Z</time></trkpt><trkpt lat="45.75449458196608" lon="9.78488422645427"><ele>323.0</ele><time>2026-04-17T15:36:22Z</time></trkpt><trkpt lat="45.75444026244088" lon="9.784832403554846"><ele>323.0</ele><time>2026-04-17T15:36:23Z</time></trkpt><trkpt lat="45.75438709556421" lon="9.784779791608427"><ele>323.00000000000006</ele><time>2026-04-17T15:36:24Z</time></trkpt><trkpt lat="45.75433606660728" lon="9.7847224028729"><ele>323.0</ele><time>2026-04-17T15:36:25Z</time></trkpt><trkpt lat="45.75428340405636" lon="9.78466735393644"><ele>323.14285714285717</ele><time>2026-04-17T15:36:26Z</time></trkpt><trkpt lat="45.75423127226527" lon="9.784613301360991"><ele>323.2857142857143</ele><time>2026-04-17T15:36:27Z</time></trkpt><trkpt lat="45.75418146177685" lon="9.784549694391139"><ele>323.42857142857144</ele><time>2026-04-17T15:36:28Z</time></trkpt><trkpt lat="45.75413242813949" lon="9.784491835376654"><ele>323.57142857142856</ele><time>2026-04-17T15:36:29Z</time></trkpt><trkpt lat="45.754081416163665" lon="9.784429264776128"><ele>323.7142857142857</ele><time>2026-04-17T15:36:30Z</time></trkpt><trkpt lat="45.75403137055751" lon="9.784364986030848"><ele>323.8571428571429</ele><time>2026-04-17T15:36:31Z</time></trkpt><trkpt lat="45.753983521554765" lon="9.784297902514297"><ele>324.0</ele><time>2026-04-17T15:36:32Z</time></trkpt><trkpt lat="45.75393726067402" lon="9.784227934118778"><ele>324.0</ele><time>2026-04-17T15:36:33Z</time></trkpt><trkpt lat="45.75389289704203" lon="9.784157059994637"><ele>324.0</ele><time>2026-04-17T15:36:34Z</time></trkpt><trkpt lat="45.7538442467589" lon="9.784089986847192"><ele>324.0</ele><time>2026-04-17T15:36:35Z</time></trkpt><trkpt lat="45.753800840539085" lon="9.78402003521942"><ele>324.0</ele><time>2026-04-17T15:36:36Z</time></trkpt><trkpt lat="45.75375582856905" lon="9.783949314487193"><ele>324.0</ele><time>2026-04-17T15:36:37Z</time></trkpt><trkpt lat="45.75371081760438" lon="9.78387780639367"><ele>324.0</ele><time>2026-04-17T15:36:38Z</time></trkpt><trkpt lat="45.753667661502185" lon="9.783808694724154"><ele>324.0</ele><time>2026-04-17T15:36:39Z</time></trkpt><trkpt lat="45.753626050029055" lon="9.783739718654076"><ele>324.0</ele><time>2026-04-17T15:36:40Z</time></trkpt><trkpt lat="45.753582944175214" lon="9.783671715221478"><ele>324.0</ele><time>2026-04-17T15:36:41Z</time></trkpt><trkpt lat="45.75354181645035" lon="9.783601797984034"><ele>324.0</ele><time>2026-04-17T15:36:42Z</time></trkpt><trkpt lat="45.75349796254642" lon="9.783534280186975"><ele>324.0</ele><time>2026-04-17T15:36:43Z</time></trkpt><trkpt lat="45.75345591785781" lon="9.783462690530783"><ele>324.0</ele><time>2026-04-17T15:36:44Z</time></trkpt><trkpt lat="45.75341065069265" lon="9.783393217934476"><ele>324.0</ele><time>2026-04-17T15:36:45Z</time></trkpt><trkpt lat="45.75336817476539" lon="9.783322575195672"><ele>324.0</ele><time>2026-04-17T15:36:46Z</time></trkpt><trkpt lat="45.75332523345096" lon="9.783256386035578"><ele>323.4</ele><time>2026-04-17T15:36:47Z</time></trkpt><trkpt lat="45.75328240037198" lon="9.783187386514408"><ele>322.79999999999995</ele><time>2026-04-17T15:36:48Z</time></trkpt><trkpt lat="45.753241052735575" lon="9.783119000290618"><ele>322.20000000000005</ele><time>2026-04-17T15:36:49Z</time></trkpt><trkpt lat="45.75315878905171" lon="9.78298980262981"><ele>321.6</ele><time>2026-04-17T15:36:51Z</time></trkpt><trkpt lat="45.7530772653223" lon="9.782875132358026"><ele>321.0</ele><time>2026-04-17T15:36:53Z</time></trkpt><trkpt lat="45.75297498811558" lon="9.78277551683199"><ele>321.0</ele><time>2026-04-17T15:36:55Z</time></trkpt><trkpt lat="45.75292847680383" lon="9.782707970313135"><ele>321.0</ele><time>2026-04-17T15:36:56Z</time></trkpt><trkpt lat="45.75288884670264" lon="9.782628215998965"><ele>321.0</ele><time>2026-04-17T15:36:57Z</time></trkpt><trkpt lat="45.75285081598054" lon="9.782552783177941"><ele>321.0</ele><time>2026-04-17T15:36:58Z</time></trkpt><trkpt lat="45.752814659565786" lon="9.782474059579332"><ele>321.0</ele><time>2026-04-17T15:36:59Z</time></trkpt><trkpt lat="45.75277639733365" lon="9.782401567967966"><ele>321.0</ele><time>2026-04-17T15:37:00Z</time></trkpt><trkpt lat="45.752660726289854" lon="9.782335690395776"><ele>320.1666666666667</ele><time>2026-04-17T15:37:02Z</time></trkpt><trkpt lat="45.75259697612594" lon="9.782365246478362"><ele>319.3333333333333</ele><time>2026-04-17T15:37:03Z</time></trkpt><trkpt lat="45.752548051335445" lon="9.782429301061017"><ele>318.5</ele><time>2026-04-17T15:37:04Z</time></trkpt><trkpt lat="45.75251876194978" lon="9.782511537624563"><ele>317.66666666666663</ele><time>2026-04-17T15:37:05Z</time></trkpt><trkpt lat="45.752446575755506" lon="9.782657100262435"><ele>316.8333333333333</ele><time>2026-04-17T15:37:07Z</time></trkpt><trkpt lat="45.7524015518447" lon="9.782720787252472"><ele>316.0</ele><time>2026-04-17T15:37:08Z</time></trkpt><trkpt lat="45.752302596676955" lon="9.782831688005821"><ele>315.66666666666663</ele><time>2026-04-17T15:37:10Z</time></trkpt><trkpt lat="45.752201124769044" lon="9.782934255854586"><ele>315.3333333333333</ele><time>2026-04-17T15:37:12Z</time></trkpt><trkpt lat="45.75214955771685" lon="9.782995835603593"><ele>315.0</ele><time>2026-04-17T15:37:13Z</time></trkpt><trkpt lat="45.752099291319794" lon="9.783062926323773"><ele>314.6666666666667</ele><time>2026-04-17T15:37:14Z</time></trkpt><trkpt lat="45.75204681553011" lon="9.783132557041426"><ele>314.33333333333337</ele><time>2026-04-17T15:37:15Z</time></trkpt><trkpt lat="45.75198972271167" lon="9.783201299627436"><ele>314.0</ele><time>2026-04-17T15:37:16Z</time></trkpt><trkpt lat="45.7519300209949" lon="9.783272963289019"><ele>314.1666666666667</ele><time>2026-04-17T15:37:17Z</time></trkpt><trkpt lat="45.75186765602295" lon="9.78334371485085"><ele>314.33333333333337</ele><time>2026-04-17T15:37:18Z</time></trkpt><trkpt lat="45.75180077872924" lon="9.783411854423116"><ele>314.5</ele><time>2026-04-17T15:37:19Z</time></trkpt><trkpt lat="45.75174689633879" lon="9.783497649437178"><ele>314.6666666666667</ele><time>2026-04-17T15:37:20Z</time></trkpt><trkpt lat="45.751687615553244" lon="9.783574676389325"><ele>314.8333333333333</ele><time>2026-04-17T15:37:21Z</time></trkpt><trkpt lat="45.75160873855701" lon="9.783600624684743"><ele>315.0</ele><time>2026-04-17T15:37:22Z</time></trkpt><trkpt lat="45.751538681041886" lon="9.783596736968583"><ele>314.6666666666667</ele><time>2026-04-17T15:37:23Z</time></trkpt><trkpt lat="45.75146092666937" lon="9.783581935995118"><ele>314.3333333333333</ele><time>2026-04-17T15:37:24Z</time></trkpt><trkpt lat="45.751397174171125" lon="9.783575086565174"><ele>314.0</ele><time>2026-04-17T15:37:25Z</time></trkpt><trkpt lat="45.751277061148464" lon="9.783612277260284"><ele>313.66666666666663</ele><time>2026-04-17T15:37:27Z</time></trkpt><trkpt lat="45.75122413576383" lon="9.78367109395124"><ele>313.3333333333333</ele><time>2026-04-17T15:37:28Z</time></trkpt><trkpt lat="45.751227442575086" lon="9.783785820011873"><ele>313.0</ele><time>2026-04-17T15:37:29Z</time></trkpt><trkpt lat="45.751202330129814" lon="9.783965561722871"><ele>313.0</ele><time>2026-04-17T15:37:31Z</time></trkpt><trkpt lat="45.75118816958919" lon="9.784054321216608"><ele>313.0</ele><time>2026-04-17T15:37:32Z</time></trkpt><trkpt lat="45.75114385882871" lon="9.784217906266061"><ele>313.0</ele><time>2026-04-17T15:37:34Z</time></trkpt><trkpt lat="45.75108679217515" lon="9.784373152851868"><ele>313.0</ele><time>2026-04-17T15:37:36Z</time></trkpt><trkpt lat="45.75101814020181" lon="9.78452281254408"><ele>313.0</ele><time>2026-04-17T15:37:38Z</time></trkpt><trkpt lat="45.750926820599844" lon="9.784639053263076"><ele>313.4</ele><time>2026-04-17T15:37:40Z</time></trkpt><trkpt lat="45.750824522210465" lon="9.784737136837073"><ele>313.8</ele><time>2026-04-17T15:37:42Z</time></trkpt><trkpt lat="45.75075149284884" lon="9.784858128759115"><ele>314.2</ele><time>2026-04-17T15:37:44Z</time></trkpt><trkpt lat="45.75070266434279" lon="9.784968972777058"><ele>314.6</ele><time>2026-04-17T15:37:46Z</time></trkpt><trkpt lat="45.75062983607468" lon="9.785043065735838"><ele>315.0</ele><time>2026-04-17T15:37:48Z</time></trkpt><trkpt lat="45.75054210655693" lon="9.785099798628934"><ele>315.0</ele><time>2026-04-17T15:37:50Z</time></trkpt><trkpt lat="45.75045702714792" lon="9.785176410599314"><ele>315.0</ele><time>2026-04-17T15:37:52Z</time></trkpt><trkpt lat="45.75036811878558" lon="9.785259711455591"><ele>315.0</ele><time>2026-04-17T15:37:54Z</time></trkpt><trkpt lat="45.75029394890584" lon="9.785339193676375"><ele>315.0</ele><time>2026-04-17T15:37:56Z</time></trkpt><trkpt lat="45.750239882902775" lon="9.785399685069232"><ele>315.0</ele><time>2026-04-17T15:37:58Z</time></trkpt><trkpt lat="45.7501852267366" lon="9.785456797966681"><ele>315.0</ele><time>2026-04-17T15:38:00Z</time></trkpt><trkpt lat="45.75014464848733" lon="9.785528044573864"><ele>314.8333333333333</ele><time>2026-04-17T15:38:03Z</time></trkpt><trkpt lat="45.75007525129597" lon="9.785572873014797"><ele>314.6666666666667</ele><time>2026-04-17T15:38:09Z</time></trkpt><trkpt lat="45.75001755466301" lon="9.78552232599304"><ele>314.5</ele><time>2026-04-17T15:38:11Z</time></trkpt><trkpt lat="45.74997091396971" lon="9.785436231866848"><ele>314.33333333333337</ele><time>2026-04-17T15:38:13Z</time></trkpt><trkpt lat="45.749923144011674" lon="9.78536891253551"><ele>314.1666666666667</ele><time>2026-04-17T15:38:15Z</time></trkpt><trkpt lat="45.749871997163304" lon="9.785460711423239"><ele>314.0</ele><time>2026-04-17T15:38:18Z</time></trkpt><trkpt lat="45.749816949157044" lon="9.785551582861316"><ele>314.0</ele><time>2026-04-17T15:38:20Z</time></trkpt><trkpt lat="45.749768721711156" lon="9.78562475454268"><ele>314.0</ele><time>2026-04-17T15:38:22Z</time></trkpt><trkpt lat="45.749802820377425" lon="9.785708350103219"><ele>314.0</ele><time>2026-04-17T15:38:25Z</time></trkpt><trkpt lat="45.74973238423859" lon="9.7857539230658"><ele>314.0</ele><time>2026-04-17T15:38:28Z</time></trkpt><trkpt lat="45.74964650909593" lon="9.785769693602276"><ele>314.0</ele><time>2026-04-17T15:38:30Z</time></trkpt><trkpt lat="45.74959657734317" lon="9.785862750649697"><ele>314.0</ele><time>2026-04-17T15:38:32Z</time></trkpt><trkpt lat="45.74967171585784" lon="9.785940321251358"><ele>314.0</ele><time>2026-04-17T15:38:34Z</time></trkpt><trkpt lat="45.749761517466936" lon="9.785887459106954"><ele>314.0</ele><time>2026-04-17T15:38:36Z</time></trkpt><trkpt lat="45.749835268754424" lon="9.785827097075881"><ele>314.0</ele><time>2026-04-17T15:38:38Z</time></trkpt><trkpt lat="45.74991619708919" lon="9.785805822847152"><ele>314.0</ele><time>2026-04-17T15:38:40Z</time></trkpt><trkpt lat="45.749977086052894" lon="9.785831683749022"><ele>314.0</ele><time>2026-04-17T15:38:42Z</time></trkpt><trkpt lat="45.7500170905557" lon="9.785939150017155"><ele>314.0</ele><time>2026-04-17T15:38:44Z</time></trkpt><trkpt lat="45.75007434407864" lon="9.786039481983078"><ele>314.6666666666667</ele><time>2026-04-17T15:38:46Z</time></trkpt><trkpt lat="45.75012914319714" lon="9.786157768646111"><ele>315.33333333333337</ele><time>2026-04-17T15:38:48Z</time></trkpt><trkpt lat="45.750163032142055" lon="9.78628575878004"><ele>316.0</ele><time>2026-04-17T15:38:50Z</time></trkpt><trkpt lat="45.75016387610013" lon="9.786388831663444"><ele>316.6666666666667</ele><time>2026-04-17T15:38:52Z</time></trkpt><trkpt lat="45.750156632130675" lon="9.786479099833365"><ele>317.3333333333333</ele><time>2026-04-17T15:38:55Z</time></trkpt><trkpt lat="45.7501751914139" lon="9.786368795038836"><ele>318.0</ele><time>2026-04-17T15:41:11Z</time></trkpt><trkpt lat="45.750148629968216" lon="9.786230131622194"><ele>318.0</ele><time>2026-04-17T15:41:13Z</time></trkpt><trkpt lat="45.75011067922409" lon="9.786113105828738"><ele>318.0</ele><time>2026-04-17T15:41:15Z</time></trkpt><trkpt lat="45.750062052870035" lon="9.786015166933552"><ele>318.0</ele><time>2026-04-17T15:41:17Z</time></trkpt><trkpt lat="45.75001381067997" lon="9.785930794996045"><ele>318.0</ele><time>2026-04-17T15:41:19Z</time></trkpt><trkpt lat="45.749957634724325" lon="9.78586832310965"><ele>318.0</ele><time>2026-04-17T15:41:21Z</time></trkpt><trkpt lat="45.749889462390925" lon="9.7858068859927"><ele>318.0</ele><time>2026-04-17T15:41:24Z</time></trkpt><trkpt lat="45.74980181394276" lon="9.78582606977816"><ele>318.0</ele><time>2026-04-17T15:41:26Z</time></trkpt><trkpt lat="45.749708063946606" lon="9.785891780218797"><ele>318.0</ele><time>2026-04-17T15:41:28Z</time></trkpt><trkpt lat="45.74960678129562" lon="9.785935144626562"><ele>318.0</ele><time>2026-04-17T15:41:30Z</time></trkpt><trkpt lat="45.749514161259285" lon="9.786010249571834"><ele>318.0</ele><time>2026-04-17T15:41:32Z</time></trkpt><trkpt lat="45.749428982600726" lon="9.786118812850182"><ele>318.0</ele><time>2026-04-17T15:41:34Z</time></trkpt><trkpt lat="45.74934553644803" lon="9.786237747421175"><ele>318.4</ele><time>2026-04-17T15:41:36Z</time></trkpt><trkpt lat="45.74926780990988" lon="9.786349168169783"><ele>318.8</ele><time>2026-04-17T15:41:38Z</time></trkpt><trkpt lat="45.74919990202074" lon="9.786464497930549"><ele>319.2</ele><time>2026-04-17T15:41:40Z</time></trkpt><trkpt lat="45.749148082435674" lon="9.786600679397983"><ele>319.6</ele><time>2026-04-17T15:41:42Z</time></trkpt><trkpt lat="45.74911752500688" lon="9.786689014275874"><ele>320.0</ele><time>2026-04-17T15:41:43Z</time></trkpt><trkpt lat="45.74906792442234" lon="9.78684808189452"><ele>321.6</ele><time>2026-04-17T15:41:45Z</time></trkpt><trkpt lat="45.749003230751896" lon="9.78699073997801"><ele>323.2</ele><time>2026-04-17T15:41:47Z</time></trkpt><trkpt lat="45.74891929660277" lon="9.787082535458287"><ele>324.79999999999995</ele><time>2026-04-17T15:41:49Z</time></trkpt><trkpt lat="45.748831795545236" lon="9.787141133916517"><ele>326.4</ele><time>2026-04-17T15:41:51Z</time></trkpt><trkpt lat="45.74872378535601" lon="9.787172226624966"><ele>328.0</ele><time>2026-04-17T15:41:53Z</time></trkpt><trkpt lat="45.74866034762851" lon="9.787174532737296"><ele>328.59999999999997</ele><time>2026-04-17T15:41:54Z</time></trkpt><trkpt lat="45.74853600930211" lon="9.787175138435147"><ele>329.2</ele><time>2026-04-17T15:41:56Z</time></trkpt><trkpt lat="45.74841113817609" lon="9.787171666301335"><ele>329.8</ele><time>2026-04-17T15:41:58Z</time></trkpt><trkpt lat="45.748286231818824" lon="9.787169369919852"><ele>330.4</ele><time>2026-04-17T15:42:00Z</time></trkpt><trkpt lat="45.748222359870965" lon="9.787149418859569"><ele>331.0</ele><time>2026-04-17T15:42:01Z</time></trkpt><trkpt lat="45.7481668732054" lon="9.787099720007719"><ele>331.0</ele><time>2026-04-17T15:42:02Z</time></trkpt><trkpt lat="45.748121156245055" lon="9.787032222492433"><ele>331.0</ele><time>2026-04-17T15:42:03Z</time></trkpt><trkpt lat="45.748081367135185" lon="9.78695216111284"><ele>331.0</ele><time>2026-04-17T15:42:04Z</time></trkpt><trkpt lat="45.7480511736508" lon="9.786866274795097"><ele>331.0</ele><time>2026-04-17T15:42:05Z</time></trkpt><trkpt lat="45.74801843805314" lon="9.786781239606732"><ele>331.0</ele><time>2026-04-17T15:42:06Z</time></trkpt><trkpt lat="45.747983392175" lon="9.7867029703616"><ele>331.0</ele><time>2026-04-17T15:42:07Z</time></trkpt><trkpt lat="45.74795056538253" lon="9.786623847915008"><ele>331.0</ele><time>2026-04-17T15:42:08Z</time></trkpt><trkpt lat="45.74789606186781" lon="9.786462007731094"><ele>329.20000000000005</ele><time>2026-04-17T15:42:10Z</time></trkpt><trkpt lat="45.74784599560414" lon="9.786304324956026"><ele>327.40000000000003</ele><time>2026-04-17T15:42:12Z</time></trkpt><trkpt lat="45.74778524664238" lon="9.786152051316224"><ele>325.6</ele><time>2026-04-17T15:42:14Z</time></trkpt><trkpt lat="45.74772960121722" lon="9.785990593851208"><ele>323.8</ele><time>2026-04-17T15:42:16Z</time></trkpt><trkpt lat="45.74769961494563" lon="9.785903998059283"><ele>322.0</ele><time>2026-04-17T15:42:17Z</time></trkpt><trkpt lat="45.74763812585609" lon="9.785741267570298"><ele>322.0</ele><time>2026-04-17T15:42:19Z</time></trkpt><trkpt lat="45.74757858449969" lon="9.785583005519822"><ele>322.0</ele><time>2026-04-17T15:42:21Z</time></trkpt><trkpt lat="45.74754562268901" lon="9.785499292511027"><ele>322.0</ele><time>2026-04-17T15:42:22Z</time></trkpt><trkpt lat="45.7474932548441" lon="9.785334605690329"><ele>322.0</ele><time>2026-04-17T15:42:24Z</time></trkpt><trkpt lat="45.74744759210674" lon="9.785196267746551"><ele>322.0</ele><time>2026-04-17T15:42:26Z</time></trkpt><trkpt lat="45.747402675014456" lon="9.785049253988303"><ele>321.7142857142857</ele><time>2026-04-17T15:42:28Z</time></trkpt><trkpt lat="45.74737248348988" lon="9.784969605897489"><ele>321.42857142857144</ele><time>2026-04-17T15:42:29Z</time></trkpt><trkpt lat="45.7473449340166" lon="9.784883223029682"><ele>321.1428571428571</ele><time>2026-04-17T15:42:30Z</time></trkpt><trkpt lat="45.74731182238036" lon="9.784804516079314"><ele>320.8571428571429</ele><time>2026-04-17T15:42:31Z</time></trkpt><trkpt lat="45.74725404849851" lon="9.784646322759627"><ele>320.57142857142856</ele><time>2026-04-17T15:42:33Z</time></trkpt><trkpt lat="45.74722340399021" lon="9.784566248173899"><ele>320.2857142857143</ele><time>2026-04-17T15:42:34Z</time></trkpt><trkpt lat="45.74718023697131" lon="9.784494429214725"><ele>320.0</ele><time>2026-04-17T15:42:35Z</time></trkpt><trkpt lat="45.747126532296114" lon="9.784325220160031"><ele>320.0</ele><time>2026-04-17T15:42:37Z</time></trkpt><trkpt lat="45.747067314977144" lon="9.78416660286346"><ele>320.0</ele><time>2026-04-17T15:42:39Z</time></trkpt><trkpt lat="45.74703735252018" lon="9.784084357692002"><ele>320.0</ele><time>2026-04-17T15:42:40Z</time></trkpt><trkpt lat="45.746981823725214" lon="9.783923781059903"><ele>320.0</ele><time>2026-04-17T15:42:42Z</time></trkpt><trkpt lat="45.74695476368759" lon="9.783842112438329"><ele>320.0</ele><time>2026-04-17T15:42:43Z</time></trkpt><trkpt lat="45.74692504844064" lon="9.783762435590146"><ele>320.0</ele><time>2026-04-17T15:42:44Z</time></trkpt><trkpt lat="45.74687183717955" lon="9.783604668636848"><ele>320.0</ele><time>2026-04-17T15:42:46Z</time></trkpt><trkpt lat="45.7468453899575" lon="9.783518977768143"><ele>320.0</ele><time>2026-04-17T15:42:47Z</time></trkpt><trkpt lat="45.746789389978915" lon="9.783354589022098"><ele>320.0</ele><time>2026-04-17T15:42:49Z</time></trkpt><trkpt lat="45.74676226482384" lon="9.78327252966356"><ele>320.0</ele><time>2026-04-17T15:42:50Z</time></trkpt><trkpt lat="45.746735504097686" lon="9.78318244110784"><ele>320.0</ele><time>2026-04-17T15:42:51Z</time></trkpt><trkpt lat="45.74670501635732" lon="9.783093360195068"><ele>320.0</ele><time>2026-04-17T15:42:52Z</time></trkpt><trkpt lat="45.74668069418774" lon="9.783004384596968"><ele>319.5</ele><time>2026-04-17T15:42:53Z</time></trkpt><trkpt lat="45.74665033162214" lon="9.782910985952864"><ele>319.0</ele><time>2026-04-17T15:42:54Z</time></trkpt><trkpt lat="45.74662263936738" lon="9.782819643082524"><ele>318.5</ele><time>2026-04-17T15:42:55Z</time></trkpt><trkpt lat="45.74659276723677" lon="9.782657078944304"><ele>318.0</ele><time>2026-04-17T15:42:57Z</time></trkpt><trkpt lat="45.74654696412904" lon="9.782552449700729"><ele>317.5</ele><time>2026-04-17T15:42:58Z</time></trkpt><trkpt lat="45.74651766448354" lon="9.782462256709483"><ele>317.0</ele><time>2026-04-17T15:42:59Z</time></trkpt><trkpt lat="45.74649639676432" lon="9.782364686237862"><ele>316.57142857142856</ele><time>2026-04-17T15:43:00Z</time></trkpt><trkpt lat="45.746471951791904" lon="9.782268936128485"><ele>316.1428571428571</ele><time>2026-04-17T15:43:01Z</time></trkpt><trkpt lat="45.74644683303609" lon="9.7821700157306"><ele>315.71428571428567</ele><time>2026-04-17T15:43:02Z</time></trkpt><trkpt lat="45.74641916382487" lon="9.782075760149455"><ele>315.2857142857143</ele><time>2026-04-17T15:43:03Z</time></trkpt><trkpt lat="45.74639088356642" lon="9.78198498284875"><ele>314.85714285714283</ele><time>2026-04-17T15:43:04Z</time></trkpt><trkpt lat="45.7463669076053" lon="9.781896667092626"><ele>314.4285714285714</ele><time>2026-04-17T15:43:05Z</time></trkpt><trkpt lat="45.74634311996186" lon="9.781812650217447"><ele>314.0</ele><time>2026-04-17T15:43:06Z</time></trkpt><trkpt lat="45.74631219170476" lon="9.781724248701536"><ele>313.85714285714283</ele><time>2026-04-17T15:43:07Z</time></trkpt><trkpt lat="45.74628993533728" lon="9.781639608229884"><ele>313.7142857142857</ele><time>2026-04-17T15:43:08Z</time></trkpt><trkpt lat="45.746265439622405" lon="9.781548771393092"><ele>313.57142857142856</ele><time>2026-04-17T15:43:09Z</time></trkpt><trkpt lat="45.74624416269561" lon="9.781458037063441"><ele>313.42857142857144</ele><time>2026-04-17T15:43:10Z</time></trkpt><trkpt lat="45.74621697600735" lon="9.781367928415994"><ele>313.2857142857143</ele><time>2026-04-17T15:43:11Z</time></trkpt><trkpt lat="45.74619319577095" lon="9.781278707180016"><ele>313.1428571428571</ele><time>2026-04-17T15:43:12Z</time></trkpt><trkpt lat="45.74617314780518" lon="9.78118562988503"><ele>313.0</ele><time>2026-04-17T15:43:13Z</time></trkpt><trkpt lat="45.74614699134699" lon="9.78109007154"><ele>312.8333333333333</ele><time>2026-04-17T15:43:14Z</time></trkpt><trkpt lat="45.7461212797978" lon="9.781007594928026"><ele>312.66666666666663</ele><time>2026-04-17T15:43:15Z</time></trkpt><trkpt lat="45.74609513334462" lon="9.780925030487506"><ele>312.5</ele><time>2026-04-17T15:43:16Z</time></trkpt><trkpt lat="45.74606331315978" lon="9.780839345548278"><ele>312.3333333333333</ele><time>2026-04-17T15:43:17Z</time></trkpt><trkpt lat="45.74601135309818" lon="9.780669730986316"><ele>312.1666666666667</ele><time>2026-04-17T15:43:19Z</time></trkpt><trkpt lat="45.74598896202191" lon="9.780579791848055"><ele>312.0</ele><time>2026-04-17T15:43:20Z</time></trkpt><trkpt lat="45.74596399279998" lon="9.780491128081916"><ele>312.2</ele><time>2026-04-17T15:43:21Z</time></trkpt><trkpt lat="45.745937263741276" lon="9.780408147728938"><ele>312.4</ele><time>2026-04-17T15:43:22Z</time></trkpt><trkpt lat="45.74591098555708" lon="9.780316124115025"><ele>312.6</ele><time>2026-04-17T15:43:23Z</time></trkpt><trkpt lat="45.74586237623395" lon="9.78014862764658"><ele>312.8</ele><time>2026-04-17T15:43:25Z</time></trkpt><trkpt lat="45.74583586655362" lon="9.780066730628299"><ele>313.0</ele><time>2026-04-17T15:43:26Z</time></trkpt><trkpt lat="45.745790760380956" lon="9.77989328381068"><ele>313.0</ele><time>2026-04-17T15:43:28Z</time></trkpt><trkpt lat="45.74575571624506" lon="9.779815252391945"><ele>313.0</ele><time>2026-04-17T15:43:29Z</time></trkpt><trkpt lat="45.74573227318805" lon="9.779730959058083"><ele>313.0</ele><time>2026-04-17T15:43:30Z</time></trkpt><trkpt lat="45.74570237931994" lon="9.779644868110115"><ele>313.0</ele><time>2026-04-17T15:43:31Z</time></trkpt><trkpt lat="45.74567192704281" lon="9.779562801437367"><ele>313.0</ele><time>2026-04-17T15:43:32Z</time></trkpt><trkpt lat="45.74564566490572" lon="9.779475765839136"><ele>313.0</ele><time>2026-04-17T15:43:33Z</time></trkpt><trkpt lat="45.74561690788232" lon="9.77939339773431"><ele>313.0</ele><time>2026-04-17T15:43:34Z</time></trkpt><trkpt lat="45.74559206948565" lon="9.779308943512335"><ele>312.7142857142857</ele><time>2026-04-17T15:43:35Z</time></trkpt><trkpt lat="45.74556278268017" lon="9.779227497504092"><ele>312.42857142857144</ele><time>2026-04-17T15:43:36Z</time></trkpt><trkpt lat="45.745536337627534" lon="9.779144949136562"><ele>312.1428571428571</ele><time>2026-04-17T15:43:37Z</time></trkpt><trkpt lat="45.745504173713" lon="9.779063670570746"><ele>311.8571428571429</ele><time>2026-04-17T15:43:38Z</time></trkpt><trkpt lat="45.74548714269037" lon="9.7789719222368"><ele>311.5714285714286</ele><time>2026-04-17T15:43:39Z</time></trkpt><trkpt lat="45.745450905834986" lon="9.778896015731588"><ele>311.2857142857143</ele><time>2026-04-17T15:43:40Z</time></trkpt><trkpt lat="45.745422694834495" lon="9.778812919487946"><ele>311.0</ele><time>2026-04-17T15:43:41Z</time></trkpt><trkpt lat="45.745385632400975" lon="9.77873817038361"><ele>311.0</ele><time>2026-04-17T15:43:42Z</time></trkpt><trkpt lat="45.74534627521978" lon="9.778666219386368"><ele>311.0</ele><time>2026-04-17T15:43:43Z</time></trkpt><trkpt lat="45.745275803128074" lon="9.778529681422162"><ele>311.0</ele><time>2026-04-17T15:43:45Z</time></trkpt><trkpt lat="45.74520560211533" lon="9.778389961313817"><ele>311.0</ele><time>2026-04-17T15:43:47Z</time></trkpt><trkpt lat="45.745132471777225" lon="9.778250746277077"><ele>311.0</ele><time>2026-04-17T15:43:49Z</time></trkpt><trkpt lat="45.74507395692458" lon="9.778103102754626"><ele>310.75</ele><time>2026-04-17T15:43:51Z</time></trkpt><trkpt lat="45.74502665034895" lon="9.777948339415031"><ele>310.5</ele><time>2026-04-17T15:43:53Z</time></trkpt><trkpt lat="45.74498436746678" lon="9.777795763335162"><ele>310.25</ele><time>2026-04-17T15:43:55Z</time></trkpt><trkpt lat="45.74494173735117" lon="9.777645345033458"><ele>310.0</ele><time>2026-04-17T15:43:57Z</time></trkpt><trkpt lat="45.744891860739074" lon="9.777501952277598"><ele>310.0</ele><time>2026-04-17T15:43:59Z</time></trkpt><trkpt lat="45.74484767760333" lon="9.77736934028683"><ele>310.0</ele><time>2026-04-17T15:44:01Z</time></trkpt><trkpt lat="45.744786452618904" lon="9.777244170564714"><ele>310.0</ele><time>2026-04-17T15:44:03Z</time></trkpt><trkpt lat="45.74472826669143" lon="9.777115581118458"><ele>310.0</ele><time>2026-04-17T15:44:05Z</time></trkpt><trkpt lat="45.744662080751596" lon="9.776989774671256"><ele>310.0</ele><time>2026-04-17T15:44:07Z</time></trkpt><trkpt lat="45.744621165866214" lon="9.776915971397138"><ele>310.2</ele><time>2026-04-17T15:44:08Z</time></trkpt><trkpt lat="45.7445417924538" lon="9.77677149816426"><ele>310.4</ele><time>2026-04-17T15:44:10Z</time></trkpt><trkpt lat="45.74445892437466" lon="9.77662613822598"><ele>310.6</ele><time>2026-04-17T15:44:12Z</time></trkpt><trkpt lat="45.74441802245384" lon="9.776553328030797"><ele>310.8</ele><time>2026-04-17T15:44:13Z</time></trkpt><trkpt lat="45.74438137416866" lon="9.776473829589701"><ele>311.0</ele><time>2026-04-17T15:44:14Z</time></trkpt><trkpt lat="45.74434479146461" lon="9.776396037978127"><ele>311.0</ele><time>2026-04-17T15:44:15Z</time></trkpt><trkpt lat="45.744300363683706" lon="9.776329937954175"><ele>311.0</ele><time>2026-04-17T15:44:16Z</time></trkpt><trkpt lat="45.74425978656655" lon="9.776258146841323"><ele>311.0</ele><time>2026-04-17T15:44:17Z</time></trkpt><trkpt lat="45.74422172951178" lon="9.776184537038402"><ele>311.0</ele><time>2026-04-17T15:44:18Z</time></trkpt><trkpt lat="45.744182869958394" lon="9.776106001987241"><ele>311.0</ele><time>2026-04-17T15:44:19Z</time></trkpt><trkpt lat="45.74411639226893" lon="9.775961857053968"><ele>311.0</ele><time>2026-04-17T15:44:21Z</time></trkpt><trkpt lat="45.74408070719382" lon="9.775887296212682"><ele>311.0</ele><time>2026-04-17T15:44:22Z</time></trkpt><trkpt lat="45.7440130111297" lon="9.775735904917934"><ele>310.8</ele><time>2026-04-17T15:44:24Z</time></trkpt><trkpt lat="45.74394198524605" lon="9.775583437537442"><ele>310.6</ele><time>2026-04-17T15:44:26Z</time></trkpt><trkpt lat="45.74387600663641" lon="9.775431055171516"><ele>310.4</ele><time>2026-04-17T15:44:28Z</time></trkpt><trkpt lat="45.74384220539375" lon="9.775349319028662"><ele>310.2</ele><time>2026-04-17T15:44:29Z</time></trkpt><trkpt lat="45.74377761295012" lon="9.775201321193105"><ele>310.0</ele><time>2026-04-17T15:44:31Z</time></trkpt><trkpt lat="45.74372030820243" lon="9.775053437918586"><ele>309.6</ele><time>2026-04-17T15:44:33Z</time></trkpt><trkpt lat="45.743666138114584" lon="9.774916908997305"><ele>309.2</ele><time>2026-04-17T15:44:35Z</time></trkpt><trkpt lat="45.74362535796822" lon="9.774775466545897"><ele>308.8</ele><time>2026-04-17T15:44:37Z</time></trkpt><trkpt lat="45.74358553053973" lon="9.774616179126053"><ele>308.4</ele><time>2026-04-17T15:44:39Z</time></trkpt><trkpt lat="45.74355224348809" lon="9.774461090317116"><ele>308.0</ele><time>2026-04-17T15:44:41Z</time></trkpt><trkpt lat="45.743524652207945" lon="9.774320605225043"><ele>308.0</ele><time>2026-04-17T15:44:43Z</time></trkpt><trkpt lat="45.74349709113312" lon="9.774201899588718"><ele>308.0</ele><time>2026-04-17T15:44:45Z</time></trkpt><trkpt lat="45.74346445182936" lon="9.774071472605755"><ele>308.0</ele><time>2026-04-17T15:44:47Z</time></trkpt><trkpt lat="45.74341920364618" lon="9.773948537555233"><ele>308.0</ele><time>2026-04-17T15:44:49Z</time></trkpt><trkpt lat="45.74333284060224" lon="9.773878608849765"><ele>308.0</ele><time>2026-04-17T15:44:51Z</time></trkpt><trkpt lat="45.74326878280201" lon="9.77387697300448"><ele>308.0</ele><time>2026-04-17T15:44:52Z</time></trkpt><trkpt lat="45.743153845504814" lon="9.773911490741579"><ele>308.0</ele><time>2026-04-17T15:44:54Z</time></trkpt><trkpt lat="45.7430385272669" lon="9.77395386529316"><ele>308.0</ele><time>2026-04-17T15:44:56Z</time></trkpt><trkpt lat="45.74292260282641" lon="9.773977608235489"><ele>308.0</ele><time>2026-04-17T15:44:58Z</time></trkpt><trkpt lat="45.7428070910711" lon="9.774005096483195"><ele>308.0</ele><time>2026-04-17T15:45:00Z</time></trkpt><trkpt lat="45.742691720832994" lon="9.774033623200998"><ele>309.25</ele><time>2026-04-17T15:45:02Z</time></trkpt><trkpt lat="45.74257655535387" lon="9.774052849876526"><ele>310.5</ele><time>2026-04-17T15:45:04Z</time></trkpt><trkpt lat="45.74245968191473" lon="9.774056027725617"><ele>311.75</ele><time>2026-04-17T15:45:06Z</time></trkpt><trkpt lat="45.742345916136365" lon="9.774054693813904"><ele>313.0</ele><time>2026-04-17T15:45:08Z</time></trkpt><trkpt lat="45.742233511159164" lon="9.774043580964268"><ele>313.0</ele><time>2026-04-17T15:45:10Z</time></trkpt><trkpt lat="45.74212128363367" lon="9.774026115653037"><ele>313.0</ele><time>2026-04-17T15:45:12Z</time></trkpt><trkpt lat="45.74201207501214" lon="9.77400921467037"><ele>313.0</ele><time>2026-04-17T15:45:14Z</time></trkpt><trkpt lat="45.741901218806845" lon="9.773986469379766"><ele>313.0</ele><time>2026-04-17T15:45:16Z</time></trkpt><trkpt lat="45.741792831742536" lon="9.77397134464632"><ele>313.0</ele><time>2026-04-17T15:45:18Z</time></trkpt><trkpt lat="45.741683271993715" lon="9.773957625637443"><ele>314.6</ele><time>2026-04-17T15:45:20Z</time></trkpt><trkpt lat="45.74157231514145" lon="9.77394478239812"><ele>316.20000000000005</ele><time>2026-04-17T15:45:22Z</time></trkpt><trkpt lat="45.74146748503044" lon="9.773932719753168"><ele>317.8</ele><time>2026-04-17T15:45:24Z</time></trkpt><trkpt lat="45.74136458162091" lon="9.773911423683991"><ele>319.40000000000003</ele><time>2026-04-17T15:45:26Z</time></trkpt><trkpt lat="45.74126330691417" lon="9.773892534696795"><ele>321.0</ele><time>2026-04-17T15:45:28Z</time></trkpt><trkpt lat="45.74116110867019" lon="9.773878010177988"><ele>321.0</ele><time>2026-04-17T15:45:30Z</time></trkpt><trkpt lat="45.74109569650598" lon="9.77395233103169"><ele>321.0</ele><time>2026-04-17T15:45:32Z</time></trkpt><trkpt lat="45.74113415360822" lon="9.774102400716533"><ele>321.0</ele><time>2026-04-17T15:45:34Z</time></trkpt><trkpt lat="45.74119829425526" lon="9.774217514950028"><ele>321.0</ele><time>2026-04-17T15:45:36Z</time></trkpt><trkpt lat="45.7412446859234" lon="9.774341193668135"><ele>321.0</ele><time>2026-04-17T15:45:38Z</time></trkpt><trkpt lat="45.741271964293674" lon="9.77447990934351"><ele>321.8333333333333</ele><time>2026-04-17T15:45:40Z</time></trkpt><trkpt lat="45.741262724622324" lon="9.774607814421147"><ele>322.6666666666667</ele><time>2026-04-17T15:45:42Z</time></trkpt><trkpt lat="45.74120611325931" lon="9.774701813996167"><ele>323.5</ele><time>2026-04-17T15:45:44Z</time></trkpt><trkpt lat="45.74113672827168" lon="9.774776962146854"><ele>324.33333333333337</ele><time>2026-04-17T15:45:46Z</time></trkpt><trkpt lat="45.74108918811118" lon="9.774860627133954"><ele>325.1666666666667</ele><time>2026-04-17T15:45:48Z</time></trkpt><trkpt lat="45.741130369901164" lon="9.774972718568545"><ele>326.0</ele><time>2026-04-17T15:45:51Z</time></trkpt><trkpt lat="45.74118628709632" lon="9.775026699704602"><ele>326.0</ele><time>2026-04-17T15:45:54Z</time></trkpt><trkpt lat="45.74124167153848" lon="9.77493793229687"><ele>326.0</ele><time>2026-04-17T15:46:07Z</time></trkpt><trkpt lat="45.74129756305705" lon="9.774877538720872"><ele>326.0</ele><time>2026-04-17T15:46:10Z</time></trkpt><trkpt lat="45.74130344221547" lon="9.774994537437644"><ele>326.0</ele><time>2026-04-17T15:51:01Z</time></trkpt><trkpt lat="45.7412583969481" lon="9.775072574736338"><ele>326.0</ele><time>2026-04-17T15:51:03Z</time></trkpt><trkpt lat="45.741172731648255" lon="9.77511716303489"><ele>326.0</ele><time>2026-04-17T15:51:05Z</time></trkpt><trkpt lat="45.74119173103875" lon="9.77502608699031"><ele>326.0</ele><time>2026-04-17T15:51:06Z</time></trkpt><trkpt lat="45.74111789229203" lon="9.775025411714774"><ele>326.0</ele><time>2026-04-17T15:51:10Z</time></trkpt><trkpt lat="45.74108796720642" lon="9.77491471653035"><ele>326.0</ele><time>2026-04-17T15:51:13Z</time></trkpt><trkpt lat="45.741076900472144" lon="9.774817317156016"><ele>326.0</ele><time>2026-04-17T15:51:16Z</time></trkpt><trkpt lat="45.741035300146365" lon="9.774702808277913"><ele>326.0</ele><time>2026-04-17T15:51:19Z</time></trkpt><trkpt lat="45.74098291532051" lon="9.77459764503296"><ele>326.0</ele><time>2026-04-17T15:51:21Z</time></trkpt><trkpt lat="45.74092195980365" lon="9.774517148679513"><ele>326.6</ele><time>2026-04-17T15:51:23Z</time></trkpt><trkpt lat="45.740883916347336" lon="9.77443810260218"><ele>327.20000000000005</ele><time>2026-04-17T15:51:25Z</time></trkpt><trkpt lat="45.74082345267895" lon="9.774317014942962"><ele>327.79999999999995</ele><time>2026-04-17T15:51:30Z</time></trkpt><trkpt lat="45.74075546975145" lon="9.774165141738465"><ele>328.4</ele><time>2026-04-17T15:51:32Z</time></trkpt><trkpt lat="45.740678371460376" lon="9.774029712718441"><ele>329.0</ele><time>2026-04-17T15:51:34Z</time></trkpt><trkpt lat="45.74062182100506" lon="9.773891649042458"><ele>329.0</ele><time>2026-04-17T15:51:36Z</time></trkpt><trkpt lat="45.7405447939535" lon="9.773845577544586"><ele>329.0</ele><time>2026-04-17T15:51:38Z</time></trkpt><trkpt lat="45.7404496355384" lon="9.773865564175223"><ele>329.0</ele><time>2026-04-17T15:51:40Z</time></trkpt><trkpt lat="45.74032741078185" lon="9.773919795113116"><ele>329.0</ele><time>2026-04-17T15:51:42Z</time></trkpt><trkpt lat="45.74021560907235" lon="9.773937110028545"><ele>329.0</ele><time>2026-04-17T15:51:44Z</time></trkpt><trkpt lat="45.740108577959845" lon="9.773965310769277"><ele>330.2</ele><time>2026-04-17T15:51:46Z</time></trkpt><trkpt lat="45.74000392011152" lon="9.773998626607526"><ele>331.4</ele><time>2026-04-17T15:51:48Z</time></trkpt><trkpt lat="45.73990146598853" lon="9.77403242494583"><ele>332.6</ele><time>2026-04-17T15:51:50Z</time></trkpt><trkpt lat="45.739806039380944" lon="9.77407345867771"><ele>333.8</ele><time>2026-04-17T15:51:52Z</time></trkpt><trkpt lat="45.73970480904215" lon="9.774121918633893"><ele>335.0</ele><time>2026-04-17T15:51:54Z</time></trkpt><trkpt lat="45.73961814845805" lon="9.77416363948454"><ele>335.0</ele><time>2026-04-17T15:51:56Z</time></trkpt><trkpt lat="45.739535560720356" lon="9.774145087950805"><ele>335.0</ele><time>2026-04-17T15:51:58Z</time></trkpt><trkpt lat="45.73949650901478" lon="9.774041299079089"><ele>335.0</ele><time>2026-04-17T15:52:00Z</time></trkpt><trkpt lat="45.73950702697165" lon="9.773872337163358"><ele>335.0</ele><time>2026-04-17T15:52:02Z</time></trkpt><trkpt lat="45.73951208245618" lon="9.773780552438035"><ele>335.0</ele><time>2026-04-17T15:52:03Z</time></trkpt><trkpt lat="45.73951658738026" lon="9.773690292413168"><ele>335.0</ele><time>2026-04-17T15:52:04Z</time></trkpt><trkpt lat="45.739513815211005" lon="9.773510129428907"><ele>335.0</ele><time>2026-04-17T15:52:06Z</time></trkpt><trkpt lat="45.739510217787675" lon="9.773419219801875"><ele>335.0</ele><time>2026-04-17T15:52:07Z</time></trkpt><trkpt lat="45.739506094275114" lon="9.773240411728745"><ele>335.0</ele><time>2026-04-17T15:52:09Z</time></trkpt><trkpt lat="45.7394951365711" lon="9.773068904223875"><ele>335.0</ele><time>2026-04-17T15:52:11Z</time></trkpt><trkpt lat="45.73947081885457" lon="9.772904035571099"><ele>335.0</ele><time>2026-04-17T15:52:13Z</time></trkpt><trkpt lat="45.73944548861817" lon="9.772754698147311"><ele>335.0</ele><time>2026-04-17T15:52:15Z</time></trkpt><trkpt lat="45.73940951710409" lon="9.77260425127115"><ele>335.0</ele><time>2026-04-17T15:52:17Z</time></trkpt><trkpt lat="45.73938491150216" lon="9.772440209611833"><ele>335.0</ele><time>2026-04-17T15:52:19Z</time></trkpt><trkpt lat="45.739366068373805" lon="9.772347285853659"><ele>335.0</ele><time>2026-04-17T15:52:20Z</time></trkpt><trkpt lat="45.739347181188265" lon="9.772252482489804"><ele>335.0</ele><time>2026-04-17T15:52:21Z</time></trkpt><trkpt lat="45.73933036446374" lon="9.772152861730866"><ele>335.0</ele><time>2026-04-17T15:52:22Z</time></trkpt><trkpt lat="45.739315936443795" lon="9.772051849632362"><ele>335.0</ele><time>2026-04-17T15:52:23Z</time></trkpt><trkpt lat="45.73929533908024" lon="9.771946844963418"><ele>335.0</ele><time>2026-04-17T15:52:24Z</time></trkpt><trkpt lat="45.73927769706102" lon="9.771834165472637"><ele>335.0</ele><time>2026-04-17T15:52:25Z</time></trkpt><trkpt lat="45.739250166807324" lon="9.771720715168073"><ele>335.0</ele><time>2026-04-17T15:52:26Z</time></trkpt><trkpt lat="45.73923296866236" lon="9.771592218286498"><ele>335.0</ele><time>2026-04-17T15:52:27Z</time></trkpt><trkpt lat="45.73920552741541" lon="9.771465905340527"><ele>335.0</ele><time>2026-04-17T15:52:28Z</time></trkpt><trkpt lat="45.73917326738583" lon="9.771330176324325"><ele>335.0</ele><time>2026-04-17T15:52:29Z</time></trkpt><trkpt lat="45.7391297577561" lon="9.771191153966498"><ele>335.0</ele><time>2026-04-17T15:52:30Z</time></trkpt><trkpt lat="45.73908180494984" lon="9.77105203869755"><ele>335.0</ele><time>2026-04-17T15:52:31Z</time></trkpt><trkpt lat="45.739029557385265" lon="9.770905639381317"><ele>335.0</ele><time>2026-04-17T15:52:32Z</time></trkpt><trkpt lat="45.738992239784125" lon="9.77076193504193"><ele>335.0</ele><time>2026-04-17T15:52:33Z</time></trkpt><trkpt lat="45.73896310828451" lon="9.770618659271895"><ele>334.0</ele><time>2026-04-17T15:52:34Z</time></trkpt><trkpt lat="45.738947432637836" lon="9.770473604593565"><ele>333.0</ele><time>2026-04-17T15:52:35Z</time></trkpt><trkpt lat="45.738957701427" lon="9.770330697722434"><ele>332.0</ele><time>2026-04-17T15:52:36Z</time></trkpt><trkpt lat="45.73898624823698" lon="9.770184017852563"><ele>331.0</ele><time>2026-04-17T15:52:37Z</time></trkpt><trkpt lat="45.73901628684292" lon="9.770037446875344"><ele>330.0</ele><time>2026-04-17T15:52:38Z</time></trkpt><trkpt lat="45.7390424038942" lon="9.7698920017814"><ele>328.0</ele><time>2026-04-17T15:52:39Z</time></trkpt><trkpt lat="45.73906387287038" lon="9.769768799605915"><ele>326.0</ele><time>2026-04-17T15:52:40Z</time></trkpt><trkpt lat="45.739085531914746" lon="9.769648733023079"><ele>324.0</ele><time>2026-04-17T15:52:41Z</time></trkpt><trkpt lat="45.73910567726509" lon="9.769518934384266"><ele>322.0</ele><time>2026-04-17T15:52:42Z</time></trkpt><trkpt lat="45.73910912634764" lon="9.769379942705049"><ele>320.0</ele><time>2026-04-17T15:52:43Z</time></trkpt><trkpt lat="45.73910477395443" lon="9.76924199049711"><ele>319.2</ele><time>2026-04-17T15:52:44Z</time></trkpt><trkpt lat="45.739094141132945" lon="9.769100385131328"><ele>318.4</ele><time>2026-04-17T15:52:45Z</time></trkpt><trkpt lat="45.73906850893807" lon="9.768968326855195"><ele>317.6</ele><time>2026-04-17T15:52:46Z</time></trkpt><trkpt lat="45.73904010271704" lon="9.76883263612896"><ele>316.8</ele><time>2026-04-17T15:52:47Z</time></trkpt><trkpt lat="45.73900977469099" lon="9.76869961208955"><ele>316.0</ele><time>2026-04-17T15:52:48Z</time></trkpt><trkpt lat="45.73898345605277" lon="9.768575325025543"><ele>315.16666666666663</ele><time>2026-04-17T15:52:49Z</time></trkpt><trkpt lat="45.73896306952213" lon="9.768449328031767"><ele>314.3333333333333</ele><time>2026-04-17T15:52:50Z</time></trkpt><trkpt lat="45.7389608602295" lon="9.768317823846706"><ele>313.5</ele><time>2026-04-17T15:52:51Z</time></trkpt><trkpt lat="45.73896465964083" lon="9.7681918907201"><ele>312.6666666666667</ele><time>2026-04-17T15:52:52Z</time></trkpt><trkpt lat="45.73897220148143" lon="9.76808059311258"><ele>311.83333333333337</ele><time>2026-04-17T15:52:53Z</time></trkpt><trkpt lat="45.73899742199342" lon="9.76799317805638"><ele>311.0</ele><time>2026-04-17T15:52:54Z</time></trkpt><trkpt lat="45.73905020556198" lon="9.767840183952243"><ele>311.0</ele><time>2026-04-17T15:52:56Z</time></trkpt><trkpt lat="45.73906122145858" lon="9.767745066477575"><ele>311.0</ele><time>2026-04-17T15:52:57Z</time></trkpt><trkpt lat="45.73908229872643" lon="9.767637076120211"><ele>311.0</ele><time>2026-04-17T15:52:58Z</time></trkpt><trkpt lat="45.73910536572063" lon="9.767526974709781"><ele>311.0</ele><time>2026-04-17T15:52:59Z</time></trkpt><trkpt lat="45.7391109557128" lon="9.767409800692109"><ele>311.0</ele><time>2026-04-17T15:53:00Z</time></trkpt><trkpt lat="45.739130188710476" lon="9.767288107032504"><ele>311.0</ele><time>2026-04-17T15:53:01Z</time></trkpt><trkpt lat="45.73913468894172" lon="9.767164972425855"><ele>309.83333333333337</ele><time>2026-04-17T15:53:02Z</time></trkpt><trkpt lat="45.739125441740214" lon="9.76704994233121"><ele>308.6666666666667</ele><time>2026-04-17T15:53:03Z</time></trkpt><trkpt lat="45.739103213920814" lon="9.766927796624524"><ele>307.5</ele><time>2026-04-17T15:53:04Z</time></trkpt><trkpt lat="45.7390680736106" lon="9.76682268762984"><ele>306.3333333333333</ele><time>2026-04-17T15:53:05Z</time></trkpt><trkpt lat="45.73902519956641" lon="9.766726011255946"><ele>305.16666666666663</ele><time>2026-04-17T15:53:06Z</time></trkpt><trkpt lat="45.73898788871991" lon="9.766630748638857"><ele>304.0</ele><time>2026-04-17T15:53:07Z</time></trkpt><trkpt lat="45.73895709633836" lon="9.766534893579323"><ele>303.57142857142856</ele><time>2026-04-17T15:53:08Z</time></trkpt><trkpt lat="45.73892627806422" lon="9.766440155398588"><ele>303.14285714285717</ele><time>2026-04-17T15:53:09Z</time></trkpt><trkpt lat="45.73889104331759" lon="9.76634180607302"><ele>302.7142857142857</ele><time>2026-04-17T15:53:10Z</time></trkpt><trkpt lat="45.73887038569433" lon="9.766250904655838"><ele>302.2857142857143</ele><time>2026-04-17T15:53:11Z</time></trkpt><trkpt lat="45.73884787489695" lon="9.766151961023025"><ele>301.8571428571429</ele><time>2026-04-17T15:53:12Z</time></trkpt><trkpt lat="45.73881443006179" lon="9.766063349324929"><ele>301.42857142857144</ele><time>2026-04-17T15:53:13Z</time></trkpt><trkpt lat="45.73878704663933" lon="9.765972708207936"><ele>301.0</ele><time>2026-04-17T15:53:14Z</time></trkpt><trkpt lat="45.73875806843622" lon="9.765886690544626"><ele>300.66666666666663</ele><time>2026-04-17T15:53:15Z</time></trkpt><trkpt lat="45.73872365519904" lon="9.765803310714315"><ele>300.3333333333333</ele><time>2026-04-17T15:53:16Z</time></trkpt><trkpt lat="45.73869710378798" lon="9.76571719941769"><ele>300.0</ele><time>2026-04-17T15:53:17Z</time></trkpt><trkpt lat="45.73867613068941" lon="9.765622665833696"><ele>299.6666666666667</ele><time>2026-04-17T15:53:18Z</time></trkpt><trkpt lat="45.738619691063214" lon="9.76545735021474"><ele>299.33333333333337</ele><time>2026-04-17T15:53:20Z</time></trkpt><trkpt lat="45.73859202292495" lon="9.765375600648028"><ele>299.0</ele><time>2026-04-17T15:53:21Z</time></trkpt><trkpt lat="45.738567750829006" lon="9.765289900568574"><ele>299.8</ele><time>2026-04-17T15:53:22Z</time></trkpt><trkpt lat="45.738513551772" lon="9.765121453062273"><ele>300.59999999999997</ele><time>2026-04-17T15:53:24Z</time></trkpt><trkpt lat="45.738466100480885" lon="9.76496037820178"><ele>301.4</ele><time>2026-04-17T15:53:26Z</time></trkpt><trkpt lat="45.73843265166509" lon="9.764880262243134"><ele>302.2</ele><time>2026-04-17T15:53:27Z</time></trkpt><trkpt lat="45.738398094402136" lon="9.764712263129926"><ele>303.0</ele><time>2026-04-17T15:53:29Z</time></trkpt><trkpt lat="45.738388340102944" lon="9.764547549946421"><ele>303.0</ele><time>2026-04-17T15:53:31Z</time></trkpt><trkpt lat="45.73834088568909" lon="9.764378154503643"><ele>303.0</ele><time>2026-04-17T15:53:33Z</time></trkpt><trkpt lat="45.73826825729051" lon="9.764214874851193"><ele>303.0</ele><time>2026-04-17T15:53:35Z</time></trkpt><trkpt lat="45.73824300422646" lon="9.76412919352799"><ele>303.0</ele><time>2026-04-17T15:53:36Z</time></trkpt><trkpt lat="45.73820730759275" lon="9.764031448309018"><ele>303.0</ele><time>2026-04-17T15:53:37Z</time></trkpt><trkpt lat="45.73817232807449" lon="9.763946462595845"><ele>302.42857142857144</ele><time>2026-04-17T15:53:38Z</time></trkpt><trkpt lat="45.738139388211216" lon="9.763853347234985"><ele>301.85714285714283</ele><time>2026-04-17T15:53:39Z</time></trkpt><trkpt lat="45.73811589536632" lon="9.763759784707455"><ele>301.2857142857143</ele><time>2026-04-17T15:53:40Z</time></trkpt><trkpt lat="45.738080638134015" lon="9.76367937495863"><ele>300.7142857142857</ele><time>2026-04-17T15:53:41Z</time></trkpt><trkpt lat="45.73804944403601" lon="9.763589234738385"><ele>300.14285714285717</ele><time>2026-04-17T15:53:42Z</time></trkpt><trkpt lat="45.73801939723497" lon="9.7635021279864"><ele>299.57142857142856</ele><time>2026-04-17T15:53:43Z</time></trkpt><trkpt lat="45.73798975479543" lon="9.763417665538855"><ele>299.0</ele><time>2026-04-17T15:53:44Z</time></trkpt><trkpt lat="45.737959665846546" lon="9.763327930765483"><ele>298.2857142857143</ele><time>2026-04-17T15:53:45Z</time></trkpt><trkpt lat="45.73793058337645" lon="9.763241519216342"><ele>297.57142857142856</ele><time>2026-04-17T15:53:46Z</time></trkpt><trkpt lat="45.73789580012707" lon="9.763157497803155"><ele>296.8571428571429</ele><time>2026-04-17T15:53:47Z</time></trkpt><trkpt lat="45.73786092422304" lon="9.763070297373764"><ele>296.1428571428571</ele><time>2026-04-17T15:53:48Z</time></trkpt><trkpt lat="45.73783842693948" lon="9.762984602242145"><ele>295.42857142857144</ele><time>2026-04-17T15:53:49Z</time></trkpt><trkpt lat="45.73781942049869" lon="9.762883236910518"><ele>294.7142857142857</ele><time>2026-04-17T15:53:50Z</time></trkpt><trkpt lat="45.73780092475826" lon="9.762795734669464"><ele>294.0</ele><time>2026-04-17T15:53:51Z</time></trkpt><trkpt lat="45.73778058229132" lon="9.76269656139384"><ele>293.7142857142857</ele><time>2026-04-17T15:53:52Z</time></trkpt><trkpt lat="45.737775540700724" lon="9.7626025354275"><ele>293.42857142857144</ele><time>2026-04-17T15:53:53Z</time></trkpt><trkpt lat="45.73776059221535" lon="9.762498599281423"><ele>293.1428571428571</ele><time>2026-04-17T15:53:54Z</time></trkpt><trkpt lat="45.73775885603305" lon="9.762400616830622"><ele>292.8571428571429</ele><time>2026-04-17T15:53:55Z</time></trkpt><trkpt lat="45.73775990969169" lon="9.762300379270231"><ele>292.57142857142856</ele><time>2026-04-17T15:53:56Z</time></trkpt><trkpt lat="45.73775368972496" lon="9.762199805371544"><ele>292.2857142857143</ele><time>2026-04-17T15:53:57Z</time></trkpt><trkpt lat="45.737753668507935" lon="9.762100226408002"><ele>292.0</ele><time>2026-04-17T15:53:58Z</time></trkpt><trkpt lat="45.73775958228713" lon="9.761998960441279"><ele>292.0</ele><time>2026-04-17T15:53:59Z</time></trkpt><trkpt lat="45.73775992653215" lon="9.761900476272668"><ele>292.0</ele><time>2026-04-17T15:54:00Z</time></trkpt><trkpt lat="45.7377608819954" lon="9.761803412807762"><ele>292.0</ele><time>2026-04-17T15:54:01Z</time></trkpt><trkpt lat="45.73776198022101" lon="9.761705721119684"><ele>292.0</ele><time>2026-04-17T15:54:02Z</time></trkpt><trkpt lat="45.73776373712568" lon="9.76161013333819"><ele>292.0</ele><time>2026-04-17T15:54:03Z</time></trkpt><trkpt lat="45.737757926437055" lon="9.761520028677513"><ele>292.0</ele><time>2026-04-17T15:54:04Z</time></trkpt><trkpt lat="45.73775763885583" lon="9.761426476065425"><ele>292.0</ele><time>2026-04-17T15:54:05Z</time></trkpt><trkpt lat="45.73773256009371" lon="9.761249836332077"><ele>293.6</ele><time>2026-04-17T15:54:07Z</time></trkpt><trkpt lat="45.73771471111454" lon="9.761070481022243"><ele>295.2</ele><time>2026-04-17T15:54:09Z</time></trkpt><trkpt lat="45.73770362540727" lon="9.760978455993955"><ele>296.8</ele><time>2026-04-17T15:54:10Z</time></trkpt><trkpt lat="45.73767565865318" lon="9.760801571062215"><ele>298.4</ele><time>2026-04-17T15:54:12Z</time></trkpt><trkpt lat="45.73766064788463" lon="9.76070955697029"><ele>300.0</ele><time>2026-04-17T15:54:13Z</time></trkpt><trkpt lat="45.737630696679375" lon="9.760541141255924"><ele>300.0</ele><time>2026-04-17T15:54:15Z</time></trkpt><trkpt lat="45.73761040009907" lon="9.760454701393211"><ele>300.0</ele><time>2026-04-17T15:54:16Z</time></trkpt><trkpt lat="45.73756608061365" lon="9.760291992786819"><ele>300.0</ele><time>2026-04-17T15:54:18Z</time></trkpt><trkpt lat="45.73754667648638" lon="9.760203597522922"><ele>300.0</ele><time>2026-04-17T15:54:19Z</time></trkpt><trkpt lat="45.73749559003848" lon="9.76004389318968"><ele>300.0</ele><time>2026-04-17T15:54:21Z</time></trkpt><trkpt lat="45.73747354675378" lon="9.759951055960439"><ele>300.0</ele><time>2026-04-17T15:54:22Z</time></trkpt><trkpt lat="45.73741314540359" lon="9.759798101072588"><ele>299.25</ele><time>2026-04-17T15:54:24Z</time></trkpt><trkpt lat="45.73737427600025" lon="9.759626231649701"><ele>298.5</ele><time>2026-04-17T15:54:26Z</time></trkpt><trkpt lat="45.73732434289978" lon="9.759465258320262"><ele>297.75</ele><time>2026-04-17T15:54:28Z</time></trkpt><trkpt lat="45.73727287840243" lon="9.759301241595253"><ele>297.0</ele><time>2026-04-17T15:54:30Z</time></trkpt><trkpt lat="45.7372241175124" lon="9.759141141250318"><ele>296.25</ele><time>2026-04-17T15:54:32Z</time></trkpt><trkpt lat="45.73716644957473" lon="9.758984729013171"><ele>295.5</ele><time>2026-04-17T15:54:34Z</time></trkpt><trkpt lat="45.737100628493415" lon="9.758836244028673"><ele>294.75</ele><time>2026-04-17T15:54:36Z</time></trkpt><trkpt lat="45.73703129331172" lon="9.758683672784539"><ele>294.0</ele><time>2026-04-17T15:54:38Z</time></trkpt><trkpt lat="45.736967069144704" lon="9.758535481720592"><ele>294.25</ele><time>2026-04-17T15:54:40Z</time></trkpt><trkpt lat="45.73689818744107" lon="9.758390682660899"><ele>294.5</ele><time>2026-04-17T15:54:42Z</time></trkpt><trkpt lat="45.73682641401021" lon="9.758248526303163"><ele>294.75</ele><time>2026-04-17T15:54:44Z</time></trkpt><trkpt lat="45.73675879144203" lon="9.758090439340409"><ele>295.0</ele><time>2026-04-17T15:54:46Z</time></trkpt><trkpt lat="45.73669349723672" lon="9.75796380504245"><ele>295.16666666666663</ele><time>2026-04-17T15:54:48Z</time></trkpt><trkpt lat="45.73666854299933" lon="9.757875228955236"><ele>295.3333333333333</ele><time>2026-04-17T15:54:49Z</time></trkpt><trkpt lat="45.73662787392673" lon="9.757805970669827"><ele>295.5</ele><time>2026-04-17T15:54:50Z</time></trkpt><trkpt lat="45.73655598189247" lon="9.757665877156198"><ele>295.6666666666667</ele><time>2026-04-17T15:54:52Z</time></trkpt><trkpt lat="45.73651649163401" lon="9.757587789817935"><ele>295.83333333333337</ele><time>2026-04-17T15:54:53Z</time></trkpt><trkpt lat="45.73647511850916" lon="9.757515674484988"><ele>296.0</ele><time>2026-04-17T15:54:54Z</time></trkpt><trkpt lat="45.73639307338085" lon="9.757392713914697"><ele>296.0</ele><time>2026-04-17T15:54:56Z</time></trkpt><trkpt lat="45.73630797189932" lon="9.757272008528533"><ele>296.0</ele><time>2026-04-17T15:54:58Z</time></trkpt><trkpt lat="45.73624888247812" lon="9.757237906193579"><ele>296.0</ele><time>2026-04-17T15:54:59Z</time></trkpt><trkpt lat="45.736183545021746" lon="9.757227609619639"><ele>296.0</ele><time>2026-04-17T15:55:00Z</time></trkpt><trkpt lat="45.73606835049453" lon="9.757269098144162"><ele>296.0</ele><time>2026-04-17T15:55:02Z</time></trkpt><trkpt lat="45.73594768899268" lon="9.757248012266965"><ele>297.5</ele><time>2026-04-17T15:55:04Z</time></trkpt><trkpt lat="45.73583922750854" lon="9.757206370884884"><ele>299.0</ele><time>2026-04-17T15:55:06Z</time></trkpt><trkpt lat="45.735721088167125" lon="9.75719749217844"><ele>300.5</ele><time>2026-04-17T15:55:08Z</time></trkpt><trkpt lat="45.73560272541102" lon="9.757209541584848"><ele>302.0</ele><time>2026-04-17T15:55:10Z</time></trkpt><trkpt lat="45.735483134082926" lon="9.75721305764057"><ele>302.0</ele><time>2026-04-17T15:55:12Z</time></trkpt><trkpt lat="45.7353669133944" lon="9.757232665303349"><ele>302.0</ele><time>2026-04-17T15:55:14Z</time></trkpt><trkpt lat="45.73525109518167" lon="9.757227319395762"><ele>302.0</ele><time>2026-04-17T15:55:16Z</time></trkpt><trkpt lat="45.735188381128864" lon="9.757238885949148"><ele>302.0</ele><time>2026-04-17T15:55:17Z</time></trkpt><trkpt lat="45.73506495575374" lon="9.757245079490295"><ele>302.0</ele><time>2026-04-17T15:55:19Z</time></trkpt><trkpt lat="45.73494443276432" lon="9.757253490301977"><ele>303.25</ele><time>2026-04-17T15:55:21Z</time></trkpt><trkpt lat="45.73482466378989" lon="9.757262762481675"><ele>304.5</ele><time>2026-04-17T15:55:23Z</time></trkpt><trkpt lat="45.73470574381074" lon="9.757269513847886"><ele>305.75</ele><time>2026-04-17T15:55:25Z</time></trkpt><trkpt lat="45.734584457838935" lon="9.757285195202781"><ele>307.0</ele><time>2026-04-17T15:55:27Z</time></trkpt><trkpt lat="45.734467207210116" lon="9.757297723668316"><ele>307.0</ele><time>2026-04-17T15:55:29Z</time></trkpt><trkpt lat="45.73434811448002" lon="9.757313489426243"><ele>307.0</ele><time>2026-04-17T15:55:31Z</time></trkpt><trkpt lat="45.734230659576596" lon="9.757348577798526"><ele>307.0</ele><time>2026-04-17T15:55:33Z</time></trkpt><trkpt lat="45.73412418562748" lon="9.75741742353963"><ele>307.0</ele><time>2026-04-17T15:55:35Z</time></trkpt><trkpt lat="45.73401756994401" lon="9.757499005997369"><ele>307.0</ele><time>2026-04-17T15:55:37Z</time></trkpt><trkpt lat="45.733903019835246" lon="9.757563716389406"><ele>307.0</ele><time>2026-04-17T15:55:39Z</time></trkpt><trkpt lat="45.733785340538944" lon="9.757629443824861"><ele>307.0</ele><time>2026-04-17T15:55:41Z</time></trkpt><trkpt lat="45.73372327553154" lon="9.757664465876077"><ele>307.0</ele><time>2026-04-17T15:55:42Z</time></trkpt><trkpt lat="45.733661379826565" lon="9.75769219957801"><ele>307.0</ele><time>2026-04-17T15:55:43Z</time></trkpt><trkpt lat="45.733595228380956" lon="9.757720631388782"><ele>306.85714285714283</ele><time>2026-04-17T15:55:44Z</time></trkpt><trkpt lat="45.73353230509839" lon="9.757751430875693"><ele>306.7142857142857</ele><time>2026-04-17T15:55:45Z</time></trkpt><trkpt lat="45.733468735015684" lon="9.757777011563249"><ele>306.57142857142856</ele><time>2026-04-17T15:55:46Z</time></trkpt><trkpt lat="45.733402088500505" lon="9.75781083400856"><ele>306.42857142857144</ele><time>2026-04-17T15:55:47Z</time></trkpt><trkpt lat="45.733342739238935" lon="9.757843965288737"><ele>306.2857142857143</ele><time>2026-04-17T15:55:48Z</time></trkpt><trkpt lat="45.73328161693359" lon="9.757890227069833"><ele>306.1428571428571</ele><time>2026-04-17T15:55:49Z</time></trkpt><trkpt lat="45.733222330192866" lon="9.757924526857497"><ele>306.0</ele><time>2026-04-17T15:55:50Z</time></trkpt><trkpt lat="45.73315874379435" lon="9.757965502608702"><ele>306.0</ele><time>2026-04-17T15:55:51Z</time></trkpt><trkpt lat="45.73304702443967" lon="9.75806138358249"><ele>306.0</ele><time>2026-04-17T15:55:53Z</time></trkpt><trkpt lat="45.73298861329791" lon="9.758100108009732"><ele>306.0</ele><time>2026-04-17T15:55:54Z</time></trkpt><trkpt lat="45.73292987592098" lon="9.75813626215248"><ele>306.0</ele><time>2026-04-17T15:55:55Z</time></trkpt><trkpt lat="45.732873980609" lon="9.758189361140746"><ele>306.0</ele><time>2026-04-17T15:55:56Z</time></trkpt><trkpt lat="45.732815645448305" lon="9.758232497307494"><ele>306.0</ele><time>2026-04-17T15:55:57Z</time></trkpt><trkpt lat="45.73275833049442" lon="9.758275652115703"><ele>305.6</ele><time>2026-04-17T15:55:58Z</time></trkpt><trkpt lat="45.73264494160296" lon="9.758354348458827"><ele>305.20000000000005</ele><time>2026-04-17T15:56:00Z</time></trkpt><trkpt lat="45.732527041132705" lon="9.758420014735288"><ele>304.79999999999995</ele><time>2026-04-17T15:56:02Z</time></trkpt><trkpt lat="45.732408642012146" lon="9.758480662545441"><ele>304.4</ele><time>2026-04-17T15:56:04Z</time></trkpt><trkpt lat="45.73234498163661" lon="9.75850953003386"><ele>304.0</ele><time>2026-04-17T15:56:05Z</time></trkpt><trkpt lat="45.7322843623195" lon="9.758538421135466"><ele>304.5</ele><time>2026-04-17T15:56:06Z</time></trkpt><trkpt lat="45.73222193206758" lon="9.758567707459383"><ele>305.0</ele><time>2026-04-17T15:56:07Z</time></trkpt><trkpt lat="45.73216050792468" lon="9.75859390746778"><ele>305.5</ele><time>2026-04-17T15:56:08Z</time></trkpt><trkpt lat="45.73209529060437" lon="9.758616684008462"><ele>306.0</ele><time>2026-04-17T15:56:09Z</time></trkpt><trkpt lat="45.73197442930986" lon="9.758676904887096"><ele>306.5</ele><time>2026-04-17T15:56:11Z</time></trkpt><trkpt lat="45.731856827106654" lon="9.758704766090142"><ele>307.0</ele><time>2026-04-17T15:56:13Z</time></trkpt><trkpt lat="45.731793867788525" lon="9.758731179431672"><ele>307.0</ele><time>2026-04-17T15:56:14Z</time></trkpt><trkpt lat="45.73166838473728" lon="9.758752601761527"><ele>307.0</ele><time>2026-04-17T15:56:16Z</time></trkpt><trkpt lat="45.73160269332383" lon="9.75875505574816"><ele>307.0</ele><time>2026-04-17T15:56:17Z</time></trkpt><trkpt lat="45.73147495316914" lon="9.758775863383642"><ele>307.0</ele><time>2026-04-17T15:56:19Z</time></trkpt><trkpt lat="45.73135232345576" lon="9.758800581926668"><ele>307.0</ele><time>2026-04-17T15:56:21Z</time></trkpt><trkpt lat="45.731245108003534" lon="9.75882098618498"><ele>307.0</ele><time>2026-04-17T15:56:23Z</time></trkpt><trkpt lat="45.73112836708809" lon="9.758856147038554"><ele>307.0</ele><time>2026-04-17T15:56:25Z</time></trkpt><trkpt lat="45.731016249936744" lon="9.758912386230326"><ele>307.0</ele><time>2026-04-17T15:56:27Z</time></trkpt><trkpt lat="45.730912848065614" lon="9.758977521446234"><ele>307.0</ele><time>2026-04-17T15:56:29Z</time></trkpt><trkpt lat="45.73081126183686" lon="9.75905345234792"><ele>306.8</ele><time>2026-04-17T15:56:31Z</time></trkpt><trkpt lat="45.73070814789004" lon="9.759118001108774"><ele>306.6</ele><time>2026-04-17T15:56:33Z</time></trkpt><trkpt lat="45.73059886770363" lon="9.759167515209759"><ele>306.40000000000003</ele><time>2026-04-17T15:56:35Z</time></trkpt><trkpt lat="45.73053766042728" lon="9.759199478494358"><ele>306.2</ele><time>2026-04-17T15:56:36Z</time></trkpt><trkpt lat="45.7304182916493" lon="9.759225614357785"><ele>306.0</ele><time>2026-04-17T15:56:38Z</time></trkpt><trkpt lat="45.73030201006065" lon="9.759245452304324"><ele>306.0</ele><time>2026-04-17T15:56:40Z</time></trkpt><trkpt lat="45.73019264988617" lon="9.75925782795163"><ele>306.0</ele><time>2026-04-17T15:56:42Z</time></trkpt><trkpt lat="45.73012886150421" lon="9.759269273500166"><ele>306.0</ele><time>2026-04-17T15:56:43Z</time></trkpt><trkpt lat="45.73000829834064" lon="9.759276273924733"><ele>306.0</ele><time>2026-04-17T15:56:45Z</time></trkpt><trkpt lat="45.72988756619714" lon="9.759289181646464"><ele>306.0</ele><time>2026-04-17T15:56:47Z</time></trkpt><trkpt lat="45.72975809316836" lon="9.759296831869479"><ele>306.0</ele><time>2026-04-17T15:56:49Z</time></trkpt><trkpt lat="45.72964498217029" lon="9.759304023340883"><ele>306.0</ele><time>2026-04-17T15:56:51Z</time></trkpt><trkpt lat="45.729528084970376" lon="9.759301039406994"><ele>306.0</ele><time>2026-04-17T15:56:53Z</time></trkpt><trkpt lat="45.729409878400865" lon="9.759303972617401"><ele>306.0</ele><time>2026-04-17T15:56:55Z</time></trkpt><trkpt lat="45.729287332056124" lon="9.759322202408377"><ele>305.8</ele><time>2026-04-17T15:56:57Z</time></trkpt><trkpt lat="45.72916710748401" lon="9.759341432732763"><ele>305.6</ele><time>2026-04-17T15:56:59Z</time></trkpt><trkpt lat="45.72910377508783" lon="9.75935416272706"><ele>305.4</ele><time>2026-04-17T15:57:00Z</time></trkpt><trkpt lat="45.72898485957" lon="9.759385082214887"><ele>305.2</ele><time>2026-04-17T15:57:02Z</time></trkpt><trkpt lat="45.72886811451227" lon="9.759426802713035"><ele>305.0</ele><time>2026-04-17T15:57:04Z</time></trkpt><trkpt lat="45.72875370537483" lon="9.759490277026933"><ele>306.0</ele><time>2026-04-17T15:57:06Z</time></trkpt><trkpt lat="45.72869650578457" lon="9.759530824163642"><ele>307.0</ele><time>2026-04-17T15:57:07Z</time></trkpt><trkpt lat="45.72857736235684" lon="9.759590989075274"><ele>308.0</ele><time>2026-04-17T15:57:09Z</time></trkpt><trkpt lat="45.72846714504505" lon="9.759642577537011"><ele>309.0</ele><time>2026-04-17T15:57:11Z</time></trkpt><trkpt lat="45.72840668153645" lon="9.759675439128454"><ele>310.0</ele><time>2026-04-17T15:57:12Z</time></trkpt><trkpt lat="45.72829325395531" lon="9.759735464044164"><ele>310.0</ele><time>2026-04-17T15:57:14Z</time></trkpt><trkpt lat="45.728180456086434" lon="9.759794483130829"><ele>310.0</ele><time>2026-04-17T15:57:16Z</time></trkpt><trkpt lat="45.72806847230798" lon="9.759850624056543"><ele>310.0</ele><time>2026-04-17T15:57:18Z</time></trkpt><trkpt lat="45.727953038000074" lon="9.759896792652567"><ele>310.0</ele><time>2026-04-17T15:57:20Z</time></trkpt><trkpt lat="45.72783824590114" lon="9.759950199601578"><ele>310.0</ele><time>2026-04-17T15:57:22Z</time></trkpt><trkpt lat="45.72772751131" lon="9.760003002336516"><ele>310.0</ele><time>2026-04-17T15:57:24Z</time></trkpt><trkpt lat="45.727667340671864" lon="9.76004014897622"><ele>310.0</ele><time>2026-04-17T15:57:25Z</time></trkpt><trkpt lat="45.72755413762785" lon="9.760097193506247"><ele>310.0</ele><time>2026-04-17T15:57:27Z</time></trkpt><trkpt lat="45.7274425084728" lon="9.760147918045414"><ele>310.0</ele><time>2026-04-17T15:57:29Z</time></trkpt><trkpt lat="45.72732994126517" lon="9.760197086753754"><ele>310.75</ele><time>2026-04-17T15:57:31Z</time></trkpt><trkpt lat="45.7272134787203" lon="9.760236656261617"><ele>311.5</ele><time>2026-04-17T15:57:33Z</time></trkpt><trkpt lat="45.727094723060326" lon="9.760271370343697"><ele>312.25</ele><time>2026-04-17T15:57:35Z</time></trkpt><trkpt lat="45.726976418813294" lon="9.760302544130218"><ele>313.0</ele><time>2026-04-17T15:57:37Z</time></trkpt><trkpt lat="45.72685791489927" lon="9.760333177178875"><ele>313.0</ele><time>2026-04-17T15:57:39Z</time></trkpt><trkpt lat="45.72673983284253" lon="9.760372166949841"><ele>313.0</ele><time>2026-04-17T15:57:41Z</time></trkpt><trkpt lat="45.726624859824874" lon="9.760418524665173"><ele>313.0</ele><time>2026-04-17T15:57:43Z</time></trkpt><trkpt lat="45.72650732580596" lon="9.760466821766693"><ele>313.0</ele><time>2026-04-17T15:57:45Z</time></trkpt><trkpt lat="45.726396542608214" lon="9.760514372021806"><ele>313.0</ele><time>2026-04-17T15:57:47Z</time></trkpt><trkpt lat="45.726278338302805" lon="9.760557531758087"><ele>313.0</ele><time>2026-04-17T15:57:49Z</time></trkpt><trkpt lat="45.726164910812926" lon="9.76060717243758"><ele>313.0</ele><time>2026-04-17T15:57:51Z</time></trkpt><trkpt lat="45.72604845401911" lon="9.760656839361095"><ele>313.0</ele><time>2026-04-17T15:57:53Z</time></trkpt><trkpt lat="45.725933598021875" lon="9.760704222698521"><ele>312.25</ele><time>2026-04-17T15:57:55Z</time></trkpt><trkpt lat="45.72582160658094" lon="9.760744802674681"><ele>311.5</ele><time>2026-04-17T15:57:57Z</time></trkpt><trkpt lat="45.72570733053012" lon="9.760793427111583"><ele>310.75</ele><time>2026-04-17T15:57:59Z</time></trkpt><trkpt lat="45.72559484482622" lon="9.760839862571888"><ele>310.0</ele><time>2026-04-17T15:58:01Z</time></trkpt><trkpt lat="45.72547796247208" lon="9.760895425684144"><ele>310.0</ele><time>2026-04-17T15:58:03Z</time></trkpt><trkpt lat="45.725367983285985" lon="9.760940758597789"><ele>310.0</ele><time>2026-04-17T15:58:05Z</time></trkpt><trkpt lat="45.725309576247135" lon="9.760975917964373"><ele>310.0</ele><time>2026-04-17T15:58:06Z</time></trkpt><trkpt lat="45.72519726194749" lon="9.761038158198254"><ele>310.0</ele><time>2026-04-17T15:58:08Z</time></trkpt><trkpt lat="45.7250921596006" lon="9.761107434207638"><ele>310.0</ele><time>2026-04-17T15:58:10Z</time></trkpt><trkpt lat="45.72498513521322" lon="9.761179115603317"><ele>311.0</ele><time>2026-04-17T15:58:12Z</time></trkpt><trkpt lat="45.72488158366421" lon="9.761259706069234"><ele>312.0</ele><time>2026-04-17T15:58:14Z</time></trkpt><trkpt lat="45.72478512362293" lon="9.761358783167701"><ele>313.0</ele><time>2026-04-17T15:58:16Z</time></trkpt><trkpt lat="45.72469946577295" lon="9.761472885299623"><ele>314.0</ele><time>2026-04-17T15:58:18Z</time></trkpt><trkpt lat="45.72465713934543" lon="9.76154001787341"><ele>315.0</ele><time>2026-04-17T15:58:19Z</time></trkpt><trkpt lat="45.72458148625682" lon="9.761666940237765"><ele>315.0</ele><time>2026-04-17T15:58:21Z</time></trkpt><trkpt lat="45.72451978897879" lon="9.76180987372775"><ele>315.0</ele><time>2026-04-17T15:58:23Z</time></trkpt><trkpt lat="45.7244924637243" lon="9.7619083698599"><ele>315.0</ele><time>2026-04-17T15:58:24Z</time></trkpt><trkpt lat="45.724431994981195" lon="9.762041299360419"><ele>315.0</ele><time>2026-04-17T15:58:26Z</time></trkpt><trkpt lat="45.72436929257815" lon="9.762194374214248"><ele>315.0</ele><time>2026-04-17T15:58:28Z</time></trkpt><trkpt lat="45.724306107874725" lon="9.762329306424894"><ele>314.75</ele><time>2026-04-17T15:58:30Z</time></trkpt><trkpt lat="45.72423083228786" lon="9.76246903247959"><ele>314.5</ele><time>2026-04-17T15:58:32Z</time></trkpt><trkpt lat="45.72416160124162" lon="9.76258776746088"><ele>314.25</ele><time>2026-04-17T15:58:34Z</time></trkpt><trkpt lat="45.724078046529385" lon="9.76271511576816"><ele>314.0</ele><time>2026-04-17T15:58:36Z</time></trkpt><trkpt lat="45.72398211285044" lon="9.76281232174844"><ele>314.75</ele><time>2026-04-17T15:58:38Z</time></trkpt><trkpt lat="45.723883854156455" lon="9.762914914206187"><ele>315.5</ele><time>2026-04-17T15:58:40Z</time></trkpt><trkpt lat="45.7237900686595" lon="9.76302604969226"><ele>316.25</ele><time>2026-04-17T15:58:42Z</time></trkpt><trkpt lat="45.723695311196465" lon="9.76312630170556"><ele>317.0</ele><time>2026-04-17T15:58:44Z</time></trkpt><trkpt lat="45.7236049685673" lon="9.763232471090886"><ele>316.5</ele><time>2026-04-17T15:58:46Z</time></trkpt><trkpt lat="45.72351689107668" lon="9.76334518529583"><ele>316.0</ele><time>2026-04-17T15:58:48Z</time></trkpt><trkpt lat="45.7234317422403" lon="9.763464541435253"><ele>315.5</ele><time>2026-04-17T15:58:50Z</time></trkpt><trkpt lat="45.723347777528474" lon="9.763595279651753"><ele>315.0</ele><time>2026-04-17T15:58:52Z</time></trkpt><trkpt lat="45.72325898554326" lon="9.76370777469355"><ele>314.75</ele><time>2026-04-17T15:58:54Z</time></trkpt><trkpt lat="45.72317126672949" lon="9.763829352062144"><ele>314.5</ele><time>2026-04-17T15:58:56Z</time></trkpt><trkpt lat="45.723079700525936" lon="9.763937431132815"><ele>314.25</ele><time>2026-04-17T15:58:58Z</time></trkpt><trkpt lat="45.72298971917868" lon="9.76404774195159"><ele>314.0</ele><time>2026-04-17T15:59:00Z</time></trkpt><trkpt lat="45.72289321425517" lon="9.764137957061358"><ele>314.0</ele><time>2026-04-17T15:59:02Z</time></trkpt><trkpt lat="45.722791916040805" lon="9.764251045618295"><ele>314.0</ele><time>2026-04-17T15:59:04Z</time></trkpt><trkpt lat="45.72269177019276" lon="9.764343630372956"><ele>314.0</ele><time>2026-04-17T15:59:06Z</time></trkpt><trkpt lat="45.722591096161565" lon="9.764440138299248"><ele>314.0</ele><time>2026-04-17T15:59:08Z</time></trkpt><trkpt lat="45.722513820673804" lon="9.76450429834166"><ele>315.0</ele><time>2026-04-17T15:59:09Z</time></trkpt><trkpt lat="45.72245753892624" lon="9.76457198373911"><ele>316.0</ele><time>2026-04-17T15:59:11Z</time></trkpt><trkpt lat="45.72236077899584" lon="9.764659345906278"><ele>317.0</ele><time>2026-04-17T15:59:13Z</time></trkpt><trkpt lat="45.72227024388961" lon="9.764757203722125"><ele>318.0</ele><time>2026-04-17T15:59:15Z</time></trkpt><trkpt lat="45.72217712013639" lon="9.764852877525538"><ele>319.0</ele><time>2026-04-17T15:59:17Z</time></trkpt><trkpt lat="45.72208811640159" lon="9.764949628530067"><ele>319.0</ele><time>2026-04-17T15:59:19Z</time></trkpt><trkpt lat="45.72199335882558" lon="9.765043755441344"><ele>319.0</ele><time>2026-04-17T15:59:21Z</time></trkpt><trkpt lat="45.721896420322246" lon="9.765139004697735"><ele>319.0</ele><time>2026-04-17T15:59:23Z</time></trkpt><trkpt lat="45.72180137016854" lon="9.765225368754935"><ele>319.0</ele><time>2026-04-17T15:59:25Z</time></trkpt><trkpt lat="45.72170632582524" lon="9.765324612025932"><ele>319.0</ele><time>2026-04-17T15:59:27Z</time></trkpt><trkpt lat="45.7216034512708" lon="9.765431364155296"><ele>319.0</ele><time>2026-04-17T15:59:29Z</time></trkpt><trkpt lat="45.72155233470347" lon="9.765484231309422"><ele>319.0</ele><time>2026-04-17T15:59:30Z</time></trkpt><trkpt lat="45.72145998193681" lon="9.765587635220877"><ele>319.0</ele><time>2026-04-17T15:59:32Z</time></trkpt><trkpt lat="45.721410378701165" lon="9.765644506272858"><ele>319.0</ele><time>2026-04-17T15:59:33Z</time></trkpt><trkpt lat="45.72131256016643" lon="9.765758063430887"><ele>319.0</ele><time>2026-04-17T15:59:35Z</time></trkpt><trkpt lat="45.721214775603286" lon="9.765863811121596"><ele>319.0</ele><time>2026-04-17T15:59:37Z</time></trkpt><trkpt lat="45.721122012573666" lon="9.765979541967"><ele>319.0</ele><time>2026-04-17T15:59:39Z</time></trkpt><trkpt lat="45.72102754406695" lon="9.766083400590405"><ele>319.0</ele><time>2026-04-17T15:59:41Z</time></trkpt><trkpt lat="45.7209371230009" lon="9.766196558515984"><ele>319.6</ele><time>2026-04-17T15:59:43Z</time></trkpt><trkpt lat="45.72088914803448" lon="9.766255152251913"><ele>320.2</ele><time>2026-04-17T15:59:44Z</time></trkpt><trkpt lat="45.72079782652547" lon="9.76636844829375"><ele>320.8</ele><time>2026-04-17T15:59:46Z</time></trkpt><trkpt lat="45.72070790627587" lon="9.766492799069484"><ele>321.40000000000003</ele><time>2026-04-17T15:59:48Z</time></trkpt><trkpt lat="45.72061830250894" lon="9.766595232147232"><ele>322.0</ele><time>2026-04-17T15:59:50Z</time></trkpt><trkpt lat="45.72051933316339" lon="9.766698943955655"><ele>322.0</ele><time>2026-04-17T15:59:52Z</time></trkpt><trkpt lat="45.72047213104416" lon="9.766758640569325"><ele>322.0</ele><time>2026-04-17T15:59:53Z</time></trkpt><trkpt lat="45.720369514092866" lon="9.766849354509626"><ele>322.0</ele><time>2026-04-17T15:59:55Z</time></trkpt><trkpt lat="45.72027527691308" lon="9.766955717373186"><ele>322.0</ele><time>2026-04-17T15:59:57Z</time></trkpt><trkpt lat="45.7201759438684" lon="9.767043258124966"><ele>322.0</ele><time>2026-04-17T15:59:59Z</time></trkpt><trkpt lat="45.72012401266487" lon="9.767099173811927"><ele>323.0</ele><time>2026-04-17T16:00:00Z</time></trkpt><trkpt lat="45.72002365361123" lon="9.767208987595824"><ele>324.0</ele><time>2026-04-17T16:00:02Z</time></trkpt><trkpt lat="45.71992877336729" lon="9.767310003153893"><ele>325.0</ele><time>2026-04-17T16:00:04Z</time></trkpt><trkpt lat="45.719824515962316" lon="9.767398701457426"><ele>326.0</ele><time>2026-04-17T16:00:06Z</time></trkpt><trkpt lat="45.719727993980406" lon="9.76749826055083"><ele>326.0</ele><time>2026-04-17T16:00:08Z</time></trkpt><trkpt lat="45.719673652748114" lon="9.767556286664862"><ele>326.0</ele><time>2026-04-17T16:00:09Z</time></trkpt><trkpt lat="45.71957114235398" lon="9.767655622092486"><ele>326.0</ele><time>2026-04-17T16:00:11Z</time></trkpt><trkpt lat="45.7194720148718" lon="9.767752976617482"><ele>326.0</ele><time>2026-04-17T16:00:13Z</time></trkpt><trkpt lat="45.719374891723625" lon="9.767845651329397"><ele>326.0</ele><time>2026-04-17T16:00:15Z</time></trkpt><trkpt lat="45.71928209472179" lon="9.7679472788088"><ele>325.25</ele><time>2026-04-17T16:00:17Z</time></trkpt><trkpt lat="45.71918415550739" lon="9.768043664374725"><ele>324.5</ele><time>2026-04-17T16:00:19Z</time></trkpt><trkpt lat="45.71908775706012" lon="9.768149630469605"><ele>323.75</ele><time>2026-04-17T16:00:21Z</time></trkpt><trkpt lat="45.71898973144852" lon="9.768243867152599"><ele>323.0</ele><time>2026-04-17T16:00:23Z</time></trkpt><trkpt lat="45.718889785804556" lon="9.768346748887788"><ele>323.0</ele><time>2026-04-17T16:00:25Z</time></trkpt><trkpt lat="45.718783513628374" lon="9.768427847560565"><ele>323.0</ele><time>2026-04-17T16:00:27Z</time></trkpt><trkpt lat="45.71868656667509" lon="9.76853363398102"><ele>323.0</ele><time>2026-04-17T16:00:29Z</time></trkpt><trkpt lat="45.718588423542236" lon="9.768625426920973"><ele>323.0</ele><time>2026-04-17T16:00:31Z</time></trkpt><trkpt lat="45.71848793870918" lon="9.768718390486256"><ele>322.75</ele><time>2026-04-17T16:00:33Z</time></trkpt><trkpt lat="45.71839301349003" lon="9.768810416453714"><ele>322.5</ele><time>2026-04-17T16:00:35Z</time></trkpt><trkpt lat="45.71829259651979" lon="9.768911788646863"><ele>322.25</ele><time>2026-04-17T16:00:37Z</time></trkpt><trkpt lat="45.71820740033086" lon="9.7690256292077"><ele>322.0</ele><time>2026-04-17T16:00:39Z</time></trkpt><trkpt lat="45.71811903953395" lon="9.769141322169254"><ele>322.0</ele><time>2026-04-17T16:00:41Z</time></trkpt><trkpt lat="45.71803668119303" lon="9.769263133304149"><ele>322.0</ele><time>2026-04-17T16:00:43Z</time></trkpt><trkpt lat="45.71795649806946" lon="9.769392989266652"><ele>322.0</ele><time>2026-04-17T16:00:45Z</time></trkpt><trkpt lat="45.71787848859467" lon="9.769522226888173"><ele>322.0</ele><time>2026-04-17T16:00:47Z</time></trkpt><trkpt lat="45.71780835148754" lon="9.769641700305607"><ele>322.20000000000005</ele><time>2026-04-17T16:00:49Z</time></trkpt><trkpt lat="45.7177329506622" lon="9.769775898673254"><ele>322.4</ele><time>2026-04-17T16:00:51Z</time></trkpt><trkpt lat="45.717654658125774" lon="9.769901925163419"><ele>322.6</ele><time>2026-04-17T16:00:53Z</time></trkpt><trkpt lat="45.71762117623901" lon="9.769981874707161"><ele>322.79999999999995</ele><time>2026-04-17T16:00:54Z</time></trkpt><trkpt lat="45.71753966448659" lon="9.77011712013343"><ele>323.0</ele><time>2026-04-17T16:00:56Z</time></trkpt><trkpt lat="45.7174761286297" lon="9.770262093041266"><ele>323.59999999999997</ele><time>2026-04-17T16:00:58Z</time></trkpt><trkpt lat="45.717391814759004" lon="9.770385953490146"><ele>324.2</ele><time>2026-04-17T16:01:00Z</time></trkpt><trkpt lat="45.7173146026546" lon="9.770510679461372"><ele>324.8</ele><time>2026-04-17T16:01:02Z</time></trkpt><trkpt lat="45.7172757492314" lon="9.770581754586635"><ele>325.4</ele><time>2026-04-17T16:01:03Z</time></trkpt><trkpt lat="45.71718760369878" lon="9.770689419350292"><ele>326.0</ele><time>2026-04-17T16:01:05Z</time></trkpt><trkpt lat="45.71715134645319" lon="9.770764876315756"><ele>326.0</ele><time>2026-04-17T16:01:06Z</time></trkpt><trkpt lat="45.717067667906434" lon="9.77088987266615"><ele>326.0</ele><time>2026-04-17T16:01:08Z</time></trkpt><trkpt lat="45.71700066895336" lon="9.77101779164339"><ele>326.0</ele><time>2026-04-17T16:01:10Z</time></trkpt><trkpt lat="45.71698203396182" lon="9.771161361257425"><ele>326.0</ele><time>2026-04-17T16:01:12Z</time></trkpt><trkpt lat="45.7169565288538" lon="9.771261497608494"><ele>326.0</ele><time>2026-04-17T16:01:14Z</time></trkpt><trkpt lat="45.71697282569068" lon="9.771360880624554"><ele>326.6</ele><time>2026-04-17T16:01:16Z</time></trkpt><trkpt lat="45.71706601413147" lon="9.771410059612087"><ele>327.20000000000005</ele><time>2026-04-17T16:01:18Z</time></trkpt><trkpt lat="45.71716169277579" lon="9.771443862945782"><ele>327.79999999999995</ele><time>2026-04-17T16:01:20Z</time></trkpt><trkpt lat="45.71726402997949" lon="9.771467500546553"><ele>328.4</ele><time>2026-04-17T16:01:22Z</time></trkpt><trkpt lat="45.717355306006084" lon="9.771500638350794"><ele>329.0</ele><time>2026-04-17T16:01:24Z</time></trkpt><trkpt lat="45.71744424311273" lon="9.771500582030338"><ele>329.0</ele><time>2026-04-17T16:01:26Z</time></trkpt><trkpt lat="45.717513420315626" lon="9.771379470718944"><ele>329.0</ele><time>2026-04-17T16:01:28Z</time></trkpt><trkpt lat="45.71754449823017" lon="9.771231331016313"><ele>329.0</ele><time>2026-04-17T16:01:30Z</time></trkpt><trkpt lat="45.71758354868794" lon="9.771096183149291"><ele>329.0</ele><time>2026-04-17T16:01:32Z</time></trkpt><trkpt lat="45.71764139936804" lon="9.770963990403397"><ele>329.0</ele><time>2026-04-17T16:01:34Z</time></trkpt><trkpt lat="45.71772056984743" lon="9.770853685553329"><ele>329.79999999999995</ele><time>2026-04-17T16:01:36Z</time></trkpt><trkpt lat="45.71778478690965" lon="9.770731739553757"><ele>330.59999999999997</ele><time>2026-04-17T16:01:38Z</time></trkpt><trkpt lat="45.71784631778087" lon="9.770624399782095"><ele>331.4</ele><time>2026-04-17T16:01:40Z</time></trkpt><trkpt lat="45.71794537520916" lon="9.770594521815253"><ele>332.2</ele><time>2026-04-17T16:01:42Z</time></trkpt><trkpt lat="45.71804053803616" lon="9.770673300770532"><ele>333.0</ele><time>2026-04-17T16:01:44Z</time></trkpt><trkpt lat="45.718121075124365" lon="9.77073146566374"><ele>333.0</ele><time>2026-04-17T16:01:46Z</time></trkpt><trkpt lat="45.718195405782694" lon="9.770773492157986"><ele>333.0</ele><time>2026-04-17T16:01:48Z</time></trkpt><trkpt lat="45.71826257295408" lon="9.770798669017589"><ele>333.0</ele><time>2026-04-17T16:01:50Z</time></trkpt><trkpt lat="45.71831626528747" lon="9.770852219094376"><ele>333.0</ele><time>2026-04-17T16:01:52Z</time></trkpt><trkpt lat="45.71838405539164" lon="9.770932422204883"><ele>333.0</ele><time>2026-04-17T16:01:55Z</time></trkpt><trkpt lat="45.71845302513941" lon="9.77097187535363"><ele>333.0</ele><time>2026-04-17T16:01:58Z</time></trkpt><trkpt lat="45.718524532599446" lon="9.770990197847462"><ele>333.0</ele><time>2026-04-17T16:02:01Z</time></trkpt><trkpt lat="45.718567660399806" lon="9.770899356220287"><ele>333.0</ele><time>2026-04-17T16:02:04Z</time></trkpt></trkseg></trk></gpx>